<?xml version='1.0' encoding='UTF-8'?><gpx version="1.1" creator="JPX - https://github.com/jenetics/jpx" xmlns="http://www.topografix.com/GPX/1/1"><trk><trkseg><trkpt lat="45.6397971" lon="11.5508573"><ele>59.0</ele><time>2026-04-19T06:52:25.301Z</time></trkpt><trkpt lat="45.6397914" lon="11.5509682"><ele>59.00000000000001</ele><time>2026-04-19T06:52:27.292Z</time></trkpt><trkpt lat="45.6397879" lon="11.5511122"><ele>59.00000000000001</ele><time>2026-04-19T06:52:29.291Z</time></trkpt><trkpt lat="45.6397441" lon="11.5512493"><ele>59.0</ele><time>2026-04-19T06:52:31.295Z</time></trkpt><trkpt lat="45.6396256" lon="11.5512806"><ele>59.0</ele><time>2026-04-19T06:52:33.295Z</time></trkpt><trkpt lat="45.6395602" lon="11.5512451"><ele>59.0</ele><time>2026-04-19T06:52:34.287Z</time></trkpt><trkpt lat="45.6394729" lon="11.5512029"><ele>59.00000000000001</ele><time>2026-04-19T06:52:35.283Z</time></trkpt><trkpt lat="45.6393749" lon="11.5511449"><ele>59.00000000000001</ele><time>2026-04-19T06:52:36.278Z</time></trkpt><trkpt lat="45.6392797" lon="11.5510753"><ele>59.0</ele><time>2026-04-19T06:52:37.296Z</time></trkpt><trkpt lat="45.6391821" lon="11.5509974"><ele>59.0</ele><time>2026-04-19T06:52:38.278Z</time></trkpt><trkpt lat="45.6390749" lon="11.5509202"><ele>59.0</ele><time>2026-04-19T06:52:39.278Z</time></trkpt><trkpt lat="45.6389608" lon="11.5508493"><ele>59.0</ele><time>2026-04-19T06:52:40.291Z</time></trkpt><trkpt lat="45.6388383" lon="11.5507873"><ele>59.0</ele><time>2026-04-19T06:52:41.29Z</time></trkpt><trkpt lat="45.6387171" lon="11.5507132"><ele>59.0</ele><time>2026-04-19T06:52:42.296Z</time></trkpt><trkpt lat="45.6385998" lon="11.550637"><ele>59.0</ele><time>2026-04-19T06:52:43.268Z</time></trkpt><trkpt lat="45.6384878" lon="11.5505555"><ele>59.0</ele><time>2026-04-19T06:52:44.291Z</time></trkpt><trkpt lat="45.6383777" lon="11.5504795"><ele>59.0</ele><time>2026-04-19T06:52:45.293Z</time></trkpt><trkpt lat="45.6382702" lon="11.550412"><ele>59.0</ele><time>2026-04-19T06:52:46.285Z</time></trkpt><trkpt lat="45.6381722" lon="11.5503496"><ele>58.800000000000004</ele><time>2026-04-19T06:52:47.284Z</time></trkpt><trkpt lat="45.6380814" lon="11.5502881"><ele>58.60000000000001</ele><time>2026-04-19T06:52:48.293Z</time></trkpt><trkpt lat="45.6379911" lon="11.5502343"><ele>58.4</ele><time>2026-04-19T06:52:49.287Z</time></trkpt><trkpt lat="45.6378996" lon="11.550183"><ele>58.2</ele><time>2026-04-19T06:52:50.282Z</time></trkpt><trkpt lat="45.6378138" lon="11.5501277"><ele>58.0</ele><time>2026-04-19T06:52:51.287Z</time></trkpt><trkpt lat="45.637732" lon="11.5500592"><ele>58.4</ele><time>2026-04-19T06:52:52.28Z</time></trkpt><trkpt lat="45.6376428" lon="11.550007"><ele>58.8</ele><time>2026-04-19T06:52:53.297Z</time></trkpt><trkpt lat="45.6375602" lon="11.549936"><ele>59.2</ele><time>2026-04-19T06:52:54.282Z</time></trkpt><trkpt lat="45.637478" lon="11.5498694"><ele>59.6</ele><time>2026-04-19T06:52:55.272Z</time></trkpt><trkpt lat="45.6373908" lon="11.5498313"><ele>60.0</ele><time>2026-04-19T06:52:56.283Z</time></trkpt><trkpt lat="45.6373053" lon="11.5497971"><ele>60.0</ele><time>2026-04-19T06:52:57.278Z</time></trkpt><trkpt lat="45.6372248" lon="11.5497467"><ele>60.0</ele><time>2026-04-19T06:52:58.293Z</time></trkpt><trkpt lat="45.6371485" lon="11.5496815"><ele>60.0</ele><time>2026-04-19T06:52:59.279Z</time></trkpt><trkpt lat="45.6370689" lon="11.5496293"><ele>60.0</ele><time>2026-04-19T06:53:00.277Z</time></trkpt><trkpt lat="45.6369872" lon="11.5495864"><ele>60.0</ele><time>2026-04-19T06:53:01.291Z</time></trkpt><trkpt lat="45.6369075" lon="11.5495531"><ele>60.0</ele><time>2026-04-19T06:53:02.281Z</time></trkpt><trkpt lat="45.6368404" lon="11.5494848"><ele>59.666666666666664</ele><time>2026-04-19T06:53:03.291Z</time></trkpt><trkpt lat="45.6367741" lon="11.5494154"><ele>59.33333333333333</ele><time>2026-04-19T06:53:04.276Z</time></trkpt><trkpt lat="45.6367087" lon="11.54935"><ele>59.0</ele><time>2026-04-19T06:53:05.278Z</time></trkpt><trkpt lat="45.6366478" lon="11.549286"><ele>58.666666666666664</ele><time>2026-04-19T06:53:06.275Z</time></trkpt><trkpt lat="45.6365876" lon="11.5492252"><ele>58.33333333333333</ele><time>2026-04-19T06:53:07.28Z</time></trkpt><trkpt lat="45.6365289" lon="11.5491652"><ele>58.0</ele><time>2026-04-19T06:53:08.293Z</time></trkpt><trkpt lat="45.6364599" lon="11.5491231"><ele>57.99999999999999</ele><time>2026-04-19T06:53:09.291Z</time></trkpt><trkpt lat="45.6363818" lon="11.5490746"><ele>58.0</ele><time>2026-04-19T06:53:10.283Z</time></trkpt><trkpt lat="45.6362949" lon="11.5490333"><ele>58.0</ele><time>2026-04-19T06:53:11.278Z</time></trkpt><trkpt lat="45.6362071" lon="11.5489967"><ele>58.0</ele><time>2026-04-19T06:53:12.27Z</time></trkpt><trkpt lat="45.636121" lon="11.5489609"><ele>57.99999999999999</ele><time>2026-04-19T06:53:13.274Z</time></trkpt><trkpt lat="45.6360354" lon="11.5489273"><ele>58.0</ele><time>2026-04-19T06:53:14.285Z</time></trkpt><trkpt lat="45.6359501" lon="11.5488985"><ele>57.99999999999999</ele><time>2026-04-19T06:53:15.286Z</time></trkpt><trkpt lat="45.635866" lon="11.5488697"><ele>58.0</ele><time>2026-04-19T06:53:16.281Z</time></trkpt><trkpt lat="45.6357834" lon="11.5488398"><ele>58.0</ele><time>2026-04-19T06:53:17.288Z</time></trkpt><trkpt lat="45.6357034" lon="11.5488052"><ele>58.0</ele><time>2026-04-19T06:53:18.296Z</time></trkpt><trkpt lat="45.6356285" lon="11.5487736"><ele>57.99999999999999</ele><time>2026-04-19T06:53:19.28Z</time></trkpt><trkpt lat="45.6355674" lon="11.5487168"><ele>58.0</ele><time>2026-04-19T06:53:20.278Z</time></trkpt><trkpt lat="45.635524" lon="11.5486365"><ele>58.0</ele><time>2026-04-19T06:53:21.28Z</time></trkpt><trkpt lat="45.6354914" lon="11.5485477"><ele>58.0</ele><time>2026-04-19T06:53:22.265Z</time></trkpt><trkpt lat="45.6354951" lon="11.5484254"><ele>58.0</ele><time>2026-04-19T06:53:23.29Z</time></trkpt><trkpt lat="45.6355358" lon="11.5482857"><ele>58.0</ele><time>2026-04-19T06:53:24.283Z</time></trkpt><trkpt lat="45.6355635" lon="11.5481367"><ele>58.0</ele><time>2026-04-19T06:53:25.294Z</time></trkpt><trkpt lat="45.6355585" lon="11.5479643"><ele>57.75</ele><time>2026-04-19T06:53:26.281Z</time></trkpt><trkpt lat="45.6355239" lon="11.5477752"><ele>57.5</ele><time>2026-04-19T06:53:27.277Z</time></trkpt><trkpt lat="45.6354838" lon="11.5475956"><ele>57.25</ele><time>2026-04-19T06:53:28.281Z</time></trkpt><trkpt lat="45.635447" lon="11.5474358"><ele>57.0</ele><time>2026-04-19T06:53:29.287Z</time></trkpt><trkpt lat="45.6354188" lon="11.5472965"><ele>57.0</ele><time>2026-04-19T06:53:30.283Z</time></trkpt><trkpt lat="45.6353946" lon="11.5471835"><ele>57.0</ele><time>2026-04-19T06:53:31.288Z</time></trkpt><trkpt lat="45.6353758" lon="11.5470965"><ele>57.0</ele><time>2026-04-19T06:53:32.29Z</time></trkpt><trkpt lat="45.6353523" lon="11.5470044"><ele>57.0</ele><time>2026-04-19T06:53:34.3Z</time></trkpt><trkpt lat="45.6353676" lon="11.5469055"><ele>57.0</ele><time>2026-04-19T06:53:38.293Z</time></trkpt><trkpt lat="45.6353486" lon="11.5467825"><ele>57.0</ele><time>2026-04-19T06:58:35.258Z</time></trkpt><trkpt lat="45.6353413" lon="11.5469068"><ele>57.0</ele><time>2026-04-19T07:29:52.278Z</time></trkpt><trkpt lat="45.6353528" lon="11.5470642"><ele>57.0</ele><time>2026-04-19T07:29:55.318Z</time></trkpt><trkpt lat="45.6353548" lon="11.5471568"><ele>57.0</ele><time>2026-04-19T07:29:56.293Z</time></trkpt><trkpt lat="45.6353776" lon="11.5472436"><ele>57.0</ele><time>2026-04-19T07:29:57.299Z</time></trkpt><trkpt lat="45.63539" lon="11.547342"><ele>57.0</ele><time>2026-04-19T07:29:58.294Z</time></trkpt><trkpt lat="45.635427" lon="11.5474794"><ele>57.0</ele><time>2026-04-19T07:29:59.291Z</time></trkpt><trkpt lat="45.6354632" lon="11.5476149"><ele>57.0</ele><time>2026-04-19T07:30:00.288Z</time></trkpt><trkpt lat="45.6354902" lon="11.5477447"><ele>57.0</ele><time>2026-04-19T07:30:01.276Z</time></trkpt><trkpt lat="45.6355184" lon="11.5478715"><ele>57.0</ele><time>2026-04-19T07:30:02.288Z</time></trkpt><trkpt lat="45.6355422" lon="11.547991"><ele>57.0</ele><time>2026-04-19T07:30:03.271Z</time></trkpt><trkpt lat="45.6355571" lon="11.5480972"><ele>57.0</ele><time>2026-04-19T07:30:04.29Z</time></trkpt><trkpt lat="45.6355612" lon="11.5482053"><ele>57.0</ele><time>2026-04-19T07:30:05.294Z</time></trkpt><trkpt lat="45.6355511" lon="11.5483088"><ele>57.2</ele><time>2026-04-19T07:30:06.284Z</time></trkpt><trkpt lat="45.6355263" lon="11.548395"><ele>57.400000000000006</ele><time>2026-04-19T07:30:07.292Z</time></trkpt><trkpt lat="45.635475" lon="11.5484673"><ele>57.599999999999994</ele><time>2026-04-19T07:30:09.29Z</time></trkpt><trkpt lat="45.635427" lon="11.5485807"><ele>57.8</ele><time>2026-04-19T07:30:14.401Z</time></trkpt><trkpt lat="45.6354441" lon="11.5487256"><ele>58.0</ele><time>2026-04-19T07:30:16.329Z</time></trkpt><trkpt lat="45.635559" lon="11.5487826"><ele>57.99999999999999</ele><time>2026-04-19T07:30:18.3Z</time></trkpt><trkpt lat="45.6356633" lon="11.5488034"><ele>58.0</ele><time>2026-04-19T07:30:20.294Z</time></trkpt><trkpt lat="45.6357269" lon="11.548814"><ele>58.0</ele><time>2026-04-19T07:30:22.311Z</time></trkpt><trkpt lat="45.6358035" lon="11.5488443"><ele>58.0</ele><time>2026-04-19T07:30:24.289Z</time></trkpt><trkpt lat="45.6359224" lon="11.5488856"><ele>57.99999999999999</ele><time>2026-04-19T07:30:26.338Z</time></trkpt><trkpt lat="45.6359894" lon="11.5489129"><ele>58.0</ele><time>2026-04-19T07:30:27.283Z</time></trkpt><trkpt lat="45.6360565" lon="11.5489412"><ele>57.99999999999999</ele><time>2026-04-19T07:30:28.276Z</time></trkpt><trkpt lat="45.6361266" lon="11.54897"><ele>58.0</ele><time>2026-04-19T07:30:29.281Z</time></trkpt><trkpt lat="45.6362002" lon="11.5490026"><ele>58.0</ele><time>2026-04-19T07:30:30.298Z</time></trkpt><trkpt lat="45.6362716" lon="11.5490488"><ele>58.0</ele><time>2026-04-19T07:30:31.282Z</time></trkpt><trkpt lat="45.6363409" lon="11.549099"><ele>57.99999999999999</ele><time>2026-04-19T07:30:32.281Z</time></trkpt><trkpt lat="45.6364077" lon="11.5491478"><ele>58.0</ele><time>2026-04-19T07:30:33.28Z</time></trkpt><trkpt lat="45.6364701" lon="11.5491984"><ele>58.0</ele><time>2026-04-19T07:30:34.29Z</time></trkpt><trkpt lat="45.6365618" lon="11.5492822"><ele>58.0</ele><time>2026-04-19T07:30:36.283Z</time></trkpt><trkpt lat="45.6366564" lon="11.5492449"><ele>58.0</ele><time>2026-04-19T07:30:38.294Z</time></trkpt><trkpt lat="45.6366969" lon="11.5491474"><ele>58.0</ele><time>2026-04-19T07:30:39.287Z</time></trkpt><trkpt lat="45.6367412" lon="11.5490329"><ele>58.0</ele><time>2026-04-19T07:30:40.298Z</time></trkpt><trkpt lat="45.6368048" lon="11.5489311"><ele>58.0</ele><time>2026-04-19T07:30:41.286Z</time></trkpt><trkpt lat="45.636876" lon="11.5488162"><ele>58.0</ele><time>2026-04-19T07:30:42.291Z</time></trkpt><trkpt lat="45.6369444" lon="11.5487041"><ele>58.0</ele><time>2026-04-19T07:30:43.289Z</time></trkpt><trkpt lat="45.6370118" lon="11.5485947"><ele>58.0</ele><time>2026-04-19T07:30:44.282Z</time></trkpt><trkpt lat="45.6370761" lon="11.5484843"><ele>58.0</ele><time>2026-04-19T07:30:45.287Z</time></trkpt><trkpt lat="45.6371414" lon="11.5483767"><ele>57.599999999999994</ele><time>2026-04-19T07:30:46.289Z</time></trkpt><trkpt lat="45.637206" lon="11.5482754"><ele>57.199999999999996</ele><time>2026-04-19T07:30:47.28Z</time></trkpt><trkpt lat="45.6372696" lon="11.5481781"><ele>56.8</ele><time>2026-04-19T07:30:48.294Z</time></trkpt><trkpt lat="45.637331" lon="11.5480835"><ele>56.4</ele><time>2026-04-19T07:30:49.281Z</time></trkpt><trkpt lat="45.6373907" lon="11.5479957"><ele>56.0</ele><time>2026-04-19T07:30:50.275Z</time></trkpt><trkpt lat="45.637454" lon="11.5479109"><ele>55.833333333333336</ele><time>2026-04-19T07:30:51.291Z</time></trkpt><trkpt lat="45.6375143" lon="11.5478271"><ele>55.66666666666667</ele><time>2026-04-19T07:30:52.292Z</time></trkpt><trkpt lat="45.6375725" lon="11.5477436"><ele>55.5</ele><time>2026-04-19T07:30:53.289Z</time></trkpt><trkpt lat="45.6376295" lon="11.5476668"><ele>55.33333333333333</ele><time>2026-04-19T07:30:54.297Z</time></trkpt><trkpt lat="45.6376903" lon="11.5476058"><ele>55.166666666666664</ele><time>2026-04-19T07:30:55.294Z</time></trkpt><trkpt lat="45.6377454" lon="11.5475474"><ele>55.0</ele><time>2026-04-19T07:30:56.3Z</time></trkpt><trkpt lat="45.6377998" lon="11.5474969"><ele>54.99999999999999</ele><time>2026-04-19T07:30:57.286Z</time></trkpt><trkpt lat="45.6379059" lon="11.5474071"><ele>55.0</ele><time>2026-04-19T07:30:59.302Z</time></trkpt><trkpt lat="45.6379623" lon="11.5473596"><ele>55.0</ele><time>2026-04-19T07:31:00.3Z</time></trkpt><trkpt lat="45.6380254" lon="11.5473069"><ele>55.0</ele><time>2026-04-19T07:31:01.3Z</time></trkpt><trkpt lat="45.6380932" lon="11.5472498"><ele>54.99999999999999</ele><time>2026-04-19T07:31:02.288Z</time></trkpt><trkpt lat="45.638164" lon="11.5471863"><ele>55.0</ele><time>2026-04-19T07:31:03.288Z</time></trkpt><trkpt lat="45.6382375" lon="11.5471206"><ele>55.0</ele><time>2026-04-19T07:31:04.297Z</time></trkpt><trkpt lat="45.6383116" lon="11.5470544"><ele>55.0</ele><time>2026-04-19T07:31:05.285Z</time></trkpt><trkpt lat="45.638396" lon="11.5469879"><ele>55.0</ele><time>2026-04-19T07:31:06.293Z</time></trkpt><trkpt lat="45.638488" lon="11.5469031"><ele>55.0</ele><time>2026-04-19T07:31:07.282Z</time></trkpt><trkpt lat="45.6385999" lon="11.5468281"><ele>55.0</ele><time>2026-04-19T07:31:08.279Z</time></trkpt><trkpt lat="45.6387148" lon="11.5467448"><ele>55.25</ele><time>2026-04-19T07:31:09.293Z</time></trkpt><trkpt lat="45.6388318" lon="11.5466545"><ele>55.5</ele><time>2026-04-19T07:31:10.271Z</time></trkpt><trkpt lat="45.6389488" lon="11.5465605"><ele>55.75</ele><time>2026-04-19T07:31:11.287Z</time></trkpt><trkpt lat="45.6390572" lon="11.5464728"><ele>56.0</ele><time>2026-04-19T07:31:12.275Z</time></trkpt><trkpt lat="45.6391508" lon="11.5463783"><ele>56.00000000000001</ele><time>2026-04-19T07:31:13.284Z</time></trkpt><trkpt lat="45.63924" lon="11.5462966"><ele>56.0</ele><time>2026-04-19T07:31:14.28Z</time></trkpt><trkpt lat="45.6393215" lon="11.5462285"><ele>56.0</ele><time>2026-04-19T07:31:15.279Z</time></trkpt><trkpt lat="45.6393906" lon="11.5461735"><ele>56.0</ele><time>2026-04-19T07:31:16.297Z</time></trkpt><trkpt lat="45.6394467" lon="11.5461273"><ele>56.00000000000001</ele><time>2026-04-19T07:31:17.284Z</time></trkpt><trkpt lat="45.6395387" lon="11.546058"><ele>56.0</ele><time>2026-04-19T07:31:19.288Z</time></trkpt><trkpt lat="45.6396103" lon="11.5460032"><ele>56.14285714285714</ele><time>2026-04-19T07:31:21.271Z</time></trkpt><trkpt lat="45.6396658" lon="11.5459575"><ele>56.285714285714285</ele><time>2026-04-19T07:31:23.294Z</time></trkpt><trkpt lat="45.6397238" lon="11.5459181"><ele>56.42857142857143</ele><time>2026-04-19T07:31:27.289Z</time></trkpt><trkpt lat="45.6397979" lon="11.5459157"><ele>56.57142857142857</ele><time>2026-04-19T07:32:08.28Z</time></trkpt><trkpt lat="45.6398904" lon="11.5458951"><ele>56.71428571428571</ele><time>2026-04-19T07:32:10.279Z</time></trkpt><trkpt lat="45.6399509" lon="11.5458571"><ele>56.857142857142854</ele><time>2026-04-19T07:32:11.283Z</time></trkpt><trkpt lat="45.6400346" lon="11.5458469"><ele>57.0</ele><time>2026-04-19T07:32:12.282Z</time></trkpt><trkpt lat="45.6401395" lon="11.5458702"><ele>57.0</ele><time>2026-04-19T07:32:13.291Z</time></trkpt><trkpt lat="45.6402703" lon="11.5458684"><ele>57.0</ele><time>2026-04-19T07:32:14.281Z</time></trkpt><trkpt lat="45.6404185" lon="11.5458976"><ele>57.0</ele><time>2026-04-19T07:32:15.284Z</time></trkpt><trkpt lat="45.6405765" lon="11.5459348"><ele>57.0</ele><time>2026-04-19T07:32:16.278Z</time></trkpt><trkpt lat="45.6407354" lon="11.5459771"><ele>57.25</ele><time>2026-04-19T07:32:17.293Z</time></trkpt><trkpt lat="45.6408828" lon="11.5460217"><ele>57.5</ele><time>2026-04-19T07:32:18.292Z</time></trkpt><trkpt lat="45.6410252" lon="11.5460672"><ele>57.75</ele><time>2026-04-19T07:32:19.287Z</time></trkpt><trkpt lat="45.641165" lon="11.5461077"><ele>58.0</ele><time>2026-04-19T07:32:20.281Z</time></trkpt><trkpt lat="45.6413004" lon="11.5461395"><ele>58.0</ele><time>2026-04-19T07:32:21.3Z</time></trkpt><trkpt lat="45.6414306" lon="11.5461573"><ele>58.0</ele><time>2026-04-19T07:32:22.286Z</time></trkpt><trkpt lat="45.6415587" lon="11.5461585"><ele>58.0</ele><time>2026-04-19T07:32:23.289Z</time></trkpt><trkpt lat="45.641688" lon="11.5461152"><ele>58.0</ele><time>2026-04-19T07:32:24.288Z</time></trkpt><trkpt lat="45.6418231" lon="11.5460254"><ele>58.0</ele><time>2026-04-19T07:32:25.296Z</time></trkpt><trkpt lat="45.6419664" lon="11.5459132"><ele>58.0</ele><time>2026-04-19T07:32:26.286Z</time></trkpt><trkpt lat="45.6421162" lon="11.5458042"><ele>58.0</ele><time>2026-04-19T07:32:27.29Z</time></trkpt><trkpt lat="45.6422605" lon="11.5456835"><ele>58.0</ele><time>2026-04-19T07:32:28.292Z</time></trkpt><trkpt lat="45.6424158" lon="11.5455836"><ele>58.0</ele><time>2026-04-19T07:32:29.282Z</time></trkpt><trkpt lat="45.6425712" lon="11.5454777"><ele>58.0</ele><time>2026-04-19T07:32:30.28Z</time></trkpt><trkpt lat="45.6427273" lon="11.5453815"><ele>57.666666666666664</ele><time>2026-04-19T07:32:31.285Z</time></trkpt><trkpt lat="45.6428799" lon="11.5452775"><ele>57.33333333333333</ele><time>2026-04-19T07:32:32.279Z</time></trkpt><trkpt lat="45.6430288" lon="11.545161"><ele>57.0</ele><time>2026-04-19T07:32:33.296Z</time></trkpt><trkpt lat="45.643173" lon="11.5450327"><ele>57.0</ele><time>2026-04-19T07:32:34.284Z</time></trkpt><trkpt lat="45.6433118" lon="11.5449016"><ele>57.0</ele><time>2026-04-19T07:32:35.293Z</time></trkpt><trkpt lat="45.6434482" lon="11.5447692"><ele>57.0</ele><time>2026-04-19T07:32:36.286Z</time></trkpt><trkpt lat="45.6435755" lon="11.5446242"><ele>57.0</ele><time>2026-04-19T07:32:37.29Z</time></trkpt><trkpt lat="45.6436979" lon="11.5444844"><ele>57.0</ele><time>2026-04-19T07:32:38.28Z</time></trkpt><trkpt lat="45.6438132" lon="11.5443404"><ele>57.0</ele><time>2026-04-19T07:32:39.293Z</time></trkpt><trkpt lat="45.6439371" lon="11.5442322"><ele>57.0</ele><time>2026-04-19T07:32:40.292Z</time></trkpt><trkpt lat="45.6440666" lon="11.5441714"><ele>57.0</ele><time>2026-04-19T07:32:41.288Z</time></trkpt><trkpt lat="45.644201" lon="11.5441758"><ele>57.0</ele><time>2026-04-19T07:32:42.289Z</time></trkpt><trkpt lat="45.6443325" lon="11.5442144"><ele>57.0</ele><time>2026-04-19T07:32:43.295Z</time></trkpt><trkpt lat="45.6444505" lon="11.5443091"><ele>57.0</ele><time>2026-04-19T07:32:44.283Z</time></trkpt><trkpt lat="45.6445686" lon="11.5443813"><ele>57.0</ele><time>2026-04-19T07:32:45.276Z</time></trkpt><trkpt lat="45.6446908" lon="11.5444288"><ele>57.0</ele><time>2026-04-19T07:32:46.28Z</time></trkpt><trkpt lat="45.6448107" lon="11.5444431"><ele>57.0</ele><time>2026-04-19T07:32:47.285Z</time></trkpt><trkpt lat="45.6449325" lon="11.5444183"><ele>57.0</ele><time>2026-04-19T07:32:48.283Z</time></trkpt><trkpt lat="45.6450531" lon="11.5443253"><ele>57.0</ele><time>2026-04-19T07:32:49.295Z</time></trkpt><trkpt lat="45.6451643" lon="11.5441755"><ele>57.0</ele><time>2026-04-19T07:32:50.289Z</time></trkpt><trkpt lat="45.6452799" lon="11.5440114"><ele>57.66666666666667</ele><time>2026-04-19T07:32:51.293Z</time></trkpt><trkpt lat="45.6454119" lon="11.5438511"><ele>58.333333333333336</ele><time>2026-04-19T07:32:52.286Z</time></trkpt><trkpt lat="45.6455583" lon="11.5436988"><ele>59.0</ele><time>2026-04-19T07:32:53.286Z</time></trkpt><trkpt lat="45.6457112" lon="11.5435416"><ele>59.0</ele><time>2026-04-19T07:32:54.289Z</time></trkpt><trkpt lat="45.6458686" lon="11.5433936"><ele>59.0</ele><time>2026-04-19T07:32:55.288Z</time></trkpt><trkpt lat="45.6460262" lon="11.54324"><ele>59.0</ele><time>2026-04-19T07:32:56.27Z</time></trkpt><trkpt lat="45.6461876" lon="11.5430867"><ele>59.0</ele><time>2026-04-19T07:32:57.285Z</time></trkpt><trkpt lat="45.6463508" lon="11.542931"><ele>59.0</ele><time>2026-04-19T07:32:58.29Z</time></trkpt><trkpt lat="45.6465155" lon="11.5427762"><ele>59.0</ele><time>2026-04-19T07:32:59.289Z</time></trkpt><trkpt lat="45.6466884" lon="11.5426414"><ele>59.0</ele><time>2026-04-19T07:33:00.286Z</time></trkpt><trkpt lat="45.6468604" lon="11.5425167"><ele>59.0</ele><time>2026-04-19T07:33:01.284Z</time></trkpt><trkpt lat="45.6470348" lon="11.5424118"><ele>59.0</ele><time>2026-04-19T07:33:02.29Z</time></trkpt><trkpt lat="45.6471933" lon="11.5422803"><ele>59.333333333333336</ele><time>2026-04-19T07:33:03.289Z</time></trkpt><trkpt lat="45.6473412" lon="11.5421311"><ele>59.66666666666667</ele><time>2026-04-19T07:33:04.279Z</time></trkpt><trkpt lat="45.6474844" lon="11.5419847"><ele>60.0</ele><time>2026-04-19T07:33:05.285Z</time></trkpt><trkpt lat="45.647613" lon="11.5418226"><ele>60.0</ele><time>2026-04-19T07:33:06.282Z</time></trkpt><trkpt lat="45.6477449" lon="11.5416832"><ele>60.0</ele><time>2026-04-19T07:33:07.292Z</time></trkpt><trkpt lat="45.6478664" lon="11.5415391"><ele>60.0</ele><time>2026-04-19T07:33:08.288Z</time></trkpt><trkpt lat="45.64799" lon="11.5414136"><ele>60.25</ele><time>2026-04-19T07:33:09.288Z</time></trkpt><trkpt lat="45.6481138" lon="11.5413047"><ele>60.5</ele><time>2026-04-19T07:33:10.296Z</time></trkpt><trkpt lat="45.6482404" lon="11.5412119"><ele>60.75</ele><time>2026-04-19T07:33:11.29Z</time></trkpt><trkpt lat="45.6483787" lon="11.541156"><ele>61.0</ele><time>2026-04-19T07:33:12.288Z</time></trkpt><trkpt lat="45.6485231" lon="11.5411525"><ele>61.25</ele><time>2026-04-19T07:33:13.295Z</time></trkpt><trkpt lat="45.6486615" lon="11.5411943"><ele>61.5</ele><time>2026-04-19T07:33:14.271Z</time></trkpt><trkpt lat="45.6487935" lon="11.5412709"><ele>61.75</ele><time>2026-04-19T07:33:15.294Z</time></trkpt><trkpt lat="45.648926" lon="11.5413817"><ele>62.0</ele><time>2026-04-19T07:33:16.289Z</time></trkpt><trkpt lat="45.6490586" lon="11.541495"><ele>62.0</ele><time>2026-04-19T07:33:17.298Z</time></trkpt><trkpt lat="45.6491929" lon="11.5415939"><ele>62.0</ele><time>2026-04-19T07:33:18.302Z</time></trkpt><trkpt lat="45.6493249" lon="11.5416635"><ele>62.0</ele><time>2026-04-19T07:33:19.289Z</time></trkpt><trkpt lat="45.6494462" lon="11.541734"><ele>62.0</ele><time>2026-04-19T07:33:20.289Z</time></trkpt><trkpt lat="45.6495593" lon="11.5418053"><ele>62.25</ele><time>2026-04-19T07:33:21.287Z</time></trkpt><trkpt lat="45.6496785" lon="11.5418555"><ele>62.5</ele><time>2026-04-19T07:33:22.29Z</time></trkpt><trkpt lat="45.6498118" lon="11.5418584"><ele>62.75</ele><time>2026-04-19T07:33:23.274Z</time></trkpt><trkpt lat="45.6499561" lon="11.5418198"><ele>63.0</ele><time>2026-04-19T07:33:24.29Z</time></trkpt><trkpt lat="45.6501073" lon="11.541743"><ele>63.0</ele><time>2026-04-19T07:33:25.29Z</time></trkpt><trkpt lat="45.6502651" lon="11.5416432"><ele>63.0</ele><time>2026-04-19T07:33:26.307Z</time></trkpt><trkpt lat="45.6504314" lon="11.541546"><ele>63.0</ele><time>2026-04-19T07:33:27.295Z</time></trkpt><trkpt lat="45.6506126" lon="11.5414661"><ele>63.33333333333333</ele><time>2026-04-19T07:33:28.285Z</time></trkpt><trkpt lat="45.6508137" lon="11.5414086"><ele>63.666666666666664</ele><time>2026-04-19T07:33:29.29Z</time></trkpt><trkpt lat="45.651023" lon="11.5413593"><ele>64.0</ele><time>2026-04-19T07:33:30.272Z</time></trkpt><trkpt lat="45.6512308" lon="11.5413275"><ele>65.33333333333333</ele><time>2026-04-19T07:33:31.294Z</time></trkpt><trkpt lat="45.6514381" lon="11.5413304"><ele>66.66666666666667</ele><time>2026-04-19T07:33:32.292Z</time></trkpt><trkpt lat="45.6516437" lon="11.5413529"><ele>68.0</ele><time>2026-04-19T07:33:33.296Z</time></trkpt><trkpt lat="45.6518489" lon="11.5413829"><ele>68.66666666666667</ele><time>2026-04-19T07:33:34.292Z</time></trkpt><trkpt lat="45.652056" lon="11.5414188"><ele>69.33333333333333</ele><time>2026-04-19T07:33:35.292Z</time></trkpt><trkpt lat="45.6522654" lon="11.5414315"><ele>70.0</ele><time>2026-04-19T07:33:36.297Z</time></trkpt><trkpt lat="45.6524738" lon="11.5414496"><ele>70.0</ele><time>2026-04-19T07:33:37.283Z</time></trkpt><trkpt lat="45.652679" lon="11.5414709"><ele>70.0</ele><time>2026-04-19T07:33:38.286Z</time></trkpt><trkpt lat="45.6528757" lon="11.5415009"><ele>70.0</ele><time>2026-04-19T07:33:39.284Z</time></trkpt><trkpt lat="45.6530621" lon="11.541543"><ele>69.66666666666666</ele><time>2026-04-19T07:33:40.288Z</time></trkpt><trkpt lat="45.6532412" lon="11.5415756"><ele>69.33333333333333</ele><time>2026-04-19T07:33:41.303Z</time></trkpt><trkpt lat="45.6534158" lon="11.5416044"><ele>69.0</ele><time>2026-04-19T07:33:42.277Z</time></trkpt><trkpt lat="45.6535797" lon="11.5416069"><ele>68.0</ele><time>2026-04-19T07:33:43.299Z</time></trkpt><trkpt lat="45.653733" lon="11.5416029"><ele>67.0</ele><time>2026-04-19T07:33:44.285Z</time></trkpt><trkpt lat="45.6538828" lon="11.5415975"><ele>66.0</ele><time>2026-04-19T07:33:45.29Z</time></trkpt><trkpt lat="45.6540208" lon="11.5415331"><ele>65.0</ele><time>2026-04-19T07:33:46.298Z</time></trkpt><trkpt lat="45.6541463" lon="11.5414432"><ele>65.0</ele><time>2026-04-19T07:33:47.303Z</time></trkpt><trkpt lat="45.6542587" lon="11.5413147"><ele>65.0</ele><time>2026-04-19T07:33:48.297Z</time></trkpt><trkpt lat="45.6543435" lon="11.5411262"><ele>65.0</ele><time>2026-04-19T07:33:49.284Z</time></trkpt><trkpt lat="45.6544237" lon="11.5409055"><ele>64.66666666666667</ele><time>2026-04-19T07:33:50.289Z</time></trkpt><trkpt lat="45.654486" lon="11.540639"><ele>64.33333333333333</ele><time>2026-04-19T07:33:51.294Z</time></trkpt><trkpt lat="45.65455" lon="11.5403635"><ele>64.0</ele><time>2026-04-19T07:33:52.29Z</time></trkpt><trkpt lat="45.6546221" lon="11.5400846"><ele>64.0</ele><time>2026-04-19T07:33:53.296Z</time></trkpt><trkpt lat="45.6546845" lon="11.5398081"><ele>64.0</ele><time>2026-04-19T07:33:54.301Z</time></trkpt><trkpt lat="45.6547447" lon="11.5395405"><ele>64.0</ele><time>2026-04-19T07:33:55.29Z</time></trkpt><trkpt lat="45.6548035" lon="11.5392756"><ele>64.33333333333333</ele><time>2026-04-19T07:33:56.278Z</time></trkpt><trkpt lat="45.6548632" lon="11.5390098"><ele>64.66666666666667</ele><time>2026-04-19T07:33:57.287Z</time></trkpt><trkpt lat="45.6549266" lon="11.5387433"><ele>65.0</ele><time>2026-04-19T07:33:58.29Z</time></trkpt><trkpt lat="45.6549985" lon="11.5384833"><ele>65.33333333333334</ele><time>2026-04-19T07:33:59.284Z</time></trkpt><trkpt lat="45.655084" lon="11.5382412"><ele>65.66666666666667</ele><time>2026-04-19T07:34:00.286Z</time></trkpt><trkpt lat="45.6551764" lon="11.538021"><ele>66.0</ele><time>2026-04-19T07:34:01.273Z</time></trkpt><trkpt lat="45.6552767" lon="11.5378191"><ele>64.66666666666667</ele><time>2026-04-19T07:34:02.289Z</time></trkpt><trkpt lat="45.6553851" lon="11.5376319"><ele>63.333333333333336</ele><time>2026-04-19T07:34:03.297Z</time></trkpt><trkpt lat="45.6554941" lon="11.5374478"><ele>62.0</ele><time>2026-04-19T07:34:04.289Z</time></trkpt><trkpt lat="45.6556129" lon="11.5372756"><ele>62.0</ele><time>2026-04-19T07:34:05.279Z</time></trkpt><trkpt lat="45.6557441" lon="11.5371133"><ele>62.0</ele><time>2026-04-19T07:34:06.279Z</time></trkpt><trkpt lat="45.6558903" lon="11.536971"><ele>62.0</ele><time>2026-04-19T07:34:07.287Z</time></trkpt><trkpt lat="45.6560391" lon="11.5368311"><ele>63.333333333333336</ele><time>2026-04-19T07:34:08.292Z</time></trkpt><trkpt lat="45.656192" lon="11.5367008"><ele>64.66666666666667</ele><time>2026-04-19T07:34:09.295Z</time></trkpt><trkpt lat="45.6563415" lon="11.5365651"><ele>66.0</ele><time>2026-04-19T07:34:10.292Z</time></trkpt><trkpt lat="45.6564878" lon="11.5364327"><ele>66.0</ele><time>2026-04-19T07:34:11.284Z</time></trkpt><trkpt lat="45.6566263" lon="11.5363"><ele>66.0</ele><time>2026-04-19T07:34:12.293Z</time></trkpt><trkpt lat="45.6567605" lon="11.5361717"><ele>66.0</ele><time>2026-04-19T07:34:13.3Z</time></trkpt><trkpt lat="45.6568955" lon="11.5360557"><ele>67.0</ele><time>2026-04-19T07:34:14.278Z</time></trkpt><trkpt lat="45.6570289" lon="11.5359396"><ele>68.0</ele><time>2026-04-19T07:34:15.288Z</time></trkpt><trkpt lat="45.6571651" lon="11.5358243"><ele>69.0</ele><time>2026-04-19T07:34:16.287Z</time></trkpt><trkpt lat="45.6573066" lon="11.5357148"><ele>69.0</ele><time>2026-04-19T07:34:17.311Z</time></trkpt><trkpt lat="45.6574514" lon="11.5356039"><ele>69.0</ele><time>2026-04-19T07:34:18.299Z</time></trkpt><trkpt lat="45.6575975" lon="11.5354966"><ele>69.0</ele><time>2026-04-19T07:34:19.294Z</time></trkpt><trkpt lat="45.6577441" lon="11.5354015"><ele>70.0</ele><time>2026-04-19T07:34:20.298Z</time></trkpt><trkpt lat="45.6578886" lon="11.5353123"><ele>71.0</ele><time>2026-04-19T07:34:21.297Z</time></trkpt><trkpt lat="45.6580167" lon="11.5352558"><ele>72.0</ele><time>2026-04-19T07:34:22.308Z</time></trkpt><trkpt lat="45.6581723" lon="11.5351656"><ele>72.0</ele><time>2026-04-19T07:34:23.302Z</time></trkpt><trkpt lat="45.6583196" lon="11.535083"><ele>72.0</ele><time>2026-04-19T07:34:24.28Z</time></trkpt><trkpt lat="45.6584678" lon="11.5350004"><ele>72.0</ele><time>2026-04-19T07:34:25.281Z</time></trkpt><trkpt lat="45.6586179" lon="11.5349155"><ele>72.33333333333333</ele><time>2026-04-19T07:34:26.284Z</time></trkpt><trkpt lat="45.6587723" lon="11.5348339"><ele>72.66666666666666</ele><time>2026-04-19T07:34:27.287Z</time></trkpt><trkpt lat="45.6589316" lon="11.5347597"><ele>73.0</ele><time>2026-04-19T07:34:28.291Z</time></trkpt><trkpt lat="45.6590933" lon="11.5346951"><ele>73.0</ele><time>2026-04-19T07:34:29.299Z</time></trkpt><trkpt lat="45.6592573" lon="11.5346423"><ele>73.0</ele><time>2026-04-19T07:34:30.293Z</time></trkpt><trkpt lat="45.659409" lon="11.5345899"><ele>73.0</ele><time>2026-04-19T07:34:31.305Z</time></trkpt><trkpt lat="45.6595606" lon="11.5345318"><ele>72.75</ele><time>2026-04-19T07:34:32.293Z</time></trkpt><trkpt lat="45.6597023" lon="11.5344777"><ele>72.5</ele><time>2026-04-19T07:34:33.298Z</time></trkpt><trkpt lat="45.6598375" lon="11.5344238"><ele>72.25</ele><time>2026-04-19T07:34:34.288Z</time></trkpt><trkpt lat="45.6599702" lon="11.5343763"><ele>72.0</ele><time>2026-04-19T07:34:35.28Z</time></trkpt><trkpt lat="45.6600944" lon="11.5343268"><ele>72.0</ele><time>2026-04-19T07:34:36.287Z</time></trkpt><trkpt lat="45.6602174" lon="11.5342752"><ele>72.0</ele><time>2026-04-19T07:34:37.298Z</time></trkpt><trkpt lat="45.66034" lon="11.5342305"><ele>72.0</ele><time>2026-04-19T07:34:38.303Z</time></trkpt><trkpt lat="45.6604561" lon="11.5342074"><ele>72.0</ele><time>2026-04-19T07:34:39.287Z</time></trkpt><trkpt lat="45.6605301" lon="11.5342237"><ele>72.0</ele><time>2026-04-19T07:34:40.283Z</time></trkpt><trkpt lat="45.6606476" lon="11.5342398"><ele>72.0</ele><time>2026-04-19T07:34:41.298Z</time></trkpt><trkpt lat="45.6607882" lon="11.5342393"><ele>72.0</ele><time>2026-04-19T07:34:42.294Z</time></trkpt><trkpt lat="45.6608669" lon="11.5342226"><ele>72.0</ele><time>2026-04-19T07:34:43.29Z</time></trkpt><trkpt lat="45.6610552" lon="11.5340511"><ele>72.0</ele><time>2026-04-19T07:34:45.295Z</time></trkpt><trkpt lat="45.6612381" lon="11.5339243"><ele>72.0</ele><time>2026-04-19T07:34:46.293Z</time></trkpt><trkpt lat="45.6614287" lon="11.5337541"><ele>72.0</ele><time>2026-04-19T07:34:47.281Z</time></trkpt><trkpt lat="45.6615567" lon="11.5336741"><ele>72.0</ele><time>2026-04-19T07:34:48.278Z</time></trkpt><trkpt lat="45.6616875" lon="11.5335954"><ele>72.75</ele><time>2026-04-19T07:34:49.283Z</time></trkpt><trkpt lat="45.6618142" lon="11.5335168"><ele>73.5</ele><time>2026-04-19T07:34:50.282Z</time></trkpt><trkpt lat="45.6619378" lon="11.5334359"><ele>74.25</ele><time>2026-04-19T07:34:51.282Z</time></trkpt><trkpt lat="45.6620558" lon="11.5333549"><ele>75.0</ele><time>2026-04-19T07:34:52.289Z</time></trkpt><trkpt lat="45.6621684" lon="11.5332757"><ele>75.2</ele><time>2026-04-19T07:34:53.29Z</time></trkpt><trkpt lat="45.6622784" lon="11.533208"><ele>75.4</ele><time>2026-04-19T07:34:54.293Z</time></trkpt><trkpt lat="45.6623859" lon="11.5331567"><ele>75.6</ele><time>2026-04-19T07:34:55.289Z</time></trkpt><trkpt lat="45.6624756" lon="11.5331309"><ele>75.8</ele><time>2026-04-19T07:34:56.286Z</time></trkpt><trkpt lat="45.662554" lon="11.5331407"><ele>76.0</ele><time>2026-04-19T07:34:57.293Z</time></trkpt><trkpt lat="45.6626849" lon="11.5331632"><ele>76.0</ele><time>2026-04-19T07:34:58.29Z</time></trkpt><trkpt lat="45.6628417" lon="11.5331698"><ele>76.0</ele><time>2026-04-19T07:34:59.288Z</time></trkpt><trkpt lat="45.6630122" lon="11.533161"><ele>76.0</ele><time>2026-04-19T07:35:00.286Z</time></trkpt><trkpt lat="45.663174" lon="11.5331345"><ele>76.0</ele><time>2026-04-19T07:35:01.293Z</time></trkpt><trkpt lat="45.6633365" lon="11.5330949"><ele>76.0</ele><time>2026-04-19T07:35:02.288Z</time></trkpt><trkpt lat="45.6634957" lon="11.5330518"><ele>76.0</ele><time>2026-04-19T07:35:03.29Z</time></trkpt><trkpt lat="45.6636608" lon="11.532991"><ele>76.33333333333333</ele><time>2026-04-19T07:35:04.292Z</time></trkpt><trkpt lat="45.6638132" lon="11.532952"><ele>76.66666666666667</ele><time>2026-04-19T07:35:05.282Z</time></trkpt><trkpt lat="45.6639629" lon="11.5329422"><ele>77.0</ele><time>2026-04-19T07:35:06.282Z</time></trkpt><trkpt lat="45.6641098" lon="11.5329508"><ele>77.0</ele><time>2026-04-19T07:35:07.293Z</time></trkpt><trkpt lat="45.6642403" lon="11.5329353"><ele>77.0</ele><time>2026-04-19T07:35:08.283Z</time></trkpt><trkpt lat="45.6643903" lon="11.5328675"><ele>77.0</ele><time>2026-04-19T07:35:09.288Z</time></trkpt><trkpt lat="45.6645597" lon="11.5327896"><ele>77.33333333333334</ele><time>2026-04-19T07:35:10.286Z</time></trkpt><trkpt lat="45.6647334" lon="11.5327192"><ele>77.66666666666667</ele><time>2026-04-19T07:35:11.296Z</time></trkpt><trkpt lat="45.6649044" lon="11.5326542"><ele>78.0</ele><time>2026-04-19T07:35:12.276Z</time></trkpt><trkpt lat="45.6650776" lon="11.5325878"><ele>78.0</ele><time>2026-04-19T07:35:13.29Z</time></trkpt><trkpt lat="45.665243" lon="11.5325276"><ele>78.0</ele><time>2026-04-19T07:35:14.298Z</time></trkpt><trkpt lat="45.6654107" lon="11.5324687"><ele>78.0</ele><time>2026-04-19T07:35:15.289Z</time></trkpt><trkpt lat="45.6655779" lon="11.5324231"><ele>78.0</ele><time>2026-04-19T07:35:16.28Z</time></trkpt><trkpt lat="45.6657484" lon="11.5323978"><ele>78.0</ele><time>2026-04-19T07:35:17.299Z</time></trkpt><trkpt lat="45.6659211" lon="11.5323876"><ele>78.0</ele><time>2026-04-19T07:35:18.29Z</time></trkpt><trkpt lat="45.6660952" lon="11.5323714"><ele>78.66666666666667</ele><time>2026-04-19T07:35:19.305Z</time></trkpt><trkpt lat="45.6662759" lon="11.5323546"><ele>79.33333333333334</ele><time>2026-04-19T07:35:20.281Z</time></trkpt><trkpt lat="45.6664381" lon="11.5323303"><ele>80.0</ele><time>2026-04-19T07:35:21.275Z</time></trkpt><trkpt lat="45.6665989" lon="11.5323098"><ele>80.0</ele><time>2026-04-19T07:35:22.275Z</time></trkpt><trkpt lat="45.6667601" lon="11.5322921"><ele>80.0</ele><time>2026-04-19T07:35:23.295Z</time></trkpt><trkpt lat="45.666919" lon="11.5322731"><ele>80.0</ele><time>2026-04-19T07:35:24.279Z</time></trkpt><trkpt lat="45.6670877" lon="11.5322525"><ele>80.66666666666667</ele><time>2026-04-19T07:35:25.278Z</time></trkpt><trkpt lat="45.6672557" lon="11.5322345"><ele>81.33333333333333</ele><time>2026-04-19T07:35:26.281Z</time></trkpt><trkpt lat="45.6674196" lon="11.5322166"><ele>82.0</ele><time>2026-04-19T07:35:27.288Z</time></trkpt><trkpt lat="45.6675785" lon="11.5322006"><ele>82.0</ele><time>2026-04-19T07:35:28.278Z</time></trkpt><trkpt lat="45.6677313" lon="11.5321835"><ele>82.0</ele><time>2026-04-19T07:35:29.287Z</time></trkpt><trkpt lat="45.6678766" lon="11.5321657"><ele>82.0</ele><time>2026-04-19T07:35:30.273Z</time></trkpt><trkpt lat="45.6680187" lon="11.5321492"><ele>82.0</ele><time>2026-04-19T07:35:31.287Z</time></trkpt><trkpt lat="45.6681467" lon="11.5321339"><ele>82.0</ele><time>2026-04-19T07:35:32.279Z</time></trkpt><trkpt lat="45.6682662" lon="11.5321175"><ele>82.0</ele><time>2026-04-19T07:35:33.267Z</time></trkpt><trkpt lat="45.6683764" lon="11.5321072"><ele>82.0</ele><time>2026-04-19T07:35:34.275Z</time></trkpt><trkpt lat="45.6684689" lon="11.5321059"><ele>82.0</ele><time>2026-04-19T07:35:35.281Z</time></trkpt><trkpt lat="45.6685568" lon="11.5321104"><ele>82.0</ele><time>2026-04-19T07:35:36.289Z</time></trkpt><trkpt lat="45.6686357" lon="11.5321159"><ele>81.8</ele><time>2026-04-19T07:35:37.291Z</time></trkpt><trkpt lat="45.6687033" lon="11.5321134"><ele>81.6</ele><time>2026-04-19T07:35:38.28Z</time></trkpt><trkpt lat="45.668796" lon="11.5321006"><ele>81.39999999999999</ele><time>2026-04-19T07:35:39.283Z</time></trkpt><trkpt lat="45.6688987" lon="11.5320864"><ele>81.19999999999999</ele><time>2026-04-19T07:35:40.289Z</time></trkpt><trkpt lat="45.6690043" lon="11.5320683"><ele>81.0</ele><time>2026-04-19T07:35:41.281Z</time></trkpt><trkpt lat="45.6691122" lon="11.53205"><ele>81.25</ele><time>2026-04-19T07:35:42.284Z</time></trkpt><trkpt lat="45.6692271" lon="11.5320321"><ele>81.5</ele><time>2026-04-19T07:35:43.292Z</time></trkpt><trkpt lat="45.6693371" lon="11.5320103"><ele>81.75</ele><time>2026-04-19T07:35:44.28Z</time></trkpt><trkpt lat="45.6694558" lon="11.5319835"><ele>82.0</ele><time>2026-04-19T07:35:45.288Z</time></trkpt><trkpt lat="45.6695768" lon="11.5319555"><ele>82.0</ele><time>2026-04-19T07:35:46.276Z</time></trkpt><trkpt lat="45.6697056" lon="11.5319265"><ele>82.0</ele><time>2026-04-19T07:35:47.29Z</time></trkpt><trkpt lat="45.6698379" lon="11.531901"><ele>82.0</ele><time>2026-04-19T07:35:48.298Z</time></trkpt><trkpt lat="45.6699765" lon="11.5318709"><ele>82.0</ele><time>2026-04-19T07:35:49.289Z</time></trkpt><trkpt lat="45.6701113" lon="11.5318282"><ele>82.0</ele><time>2026-04-19T07:35:50.28Z</time></trkpt><trkpt lat="45.6702654" lon="11.5317643"><ele>82.0</ele><time>2026-04-19T07:35:51.284Z</time></trkpt><trkpt lat="45.6704362" lon="11.5316785"><ele>82.0</ele><time>2026-04-19T07:35:52.277Z</time></trkpt><trkpt lat="45.6705962" lon="11.5316003"><ele>82.0</ele><time>2026-04-19T07:35:53.282Z</time></trkpt><trkpt lat="45.6707582" lon="11.531521"><ele>82.0</ele><time>2026-04-19T07:35:54.276Z</time></trkpt><trkpt lat="45.6709218" lon="11.5314411"><ele>82.0</ele><time>2026-04-19T07:35:55.285Z</time></trkpt><trkpt lat="45.6710829" lon="11.5313584"><ele>83.0</ele><time>2026-04-19T07:35:56.291Z</time></trkpt><trkpt lat="45.6712445" lon="11.5312763"><ele>84.0</ele><time>2026-04-19T07:35:57.296Z</time></trkpt><trkpt lat="45.6714045" lon="11.5311974"><ele>85.0</ele><time>2026-04-19T07:35:58.272Z</time></trkpt><trkpt lat="45.671566" lon="11.5311181"><ele>85.0</ele><time>2026-04-19T07:35:59.292Z</time></trkpt><trkpt lat="45.6717217" lon="11.5310437"><ele>85.0</ele><time>2026-04-19T07:36:00.277Z</time></trkpt><trkpt lat="45.6718768" lon="11.5309747"><ele>85.0</ele><time>2026-04-19T07:36:01.302Z</time></trkpt><trkpt lat="45.6720278" lon="11.53091"><ele>84.66666666666666</ele><time>2026-04-19T07:36:02.302Z</time></trkpt><trkpt lat="45.6721786" lon="11.5308519"><ele>84.33333333333333</ele><time>2026-04-19T07:36:03.282Z</time></trkpt><trkpt lat="45.6723387" lon="11.5307808"><ele>84.0</ele><time>2026-04-19T07:36:04.274Z</time></trkpt><trkpt lat="45.6724928" lon="11.5307358"><ele>84.0</ele><time>2026-04-19T07:36:05.285Z</time></trkpt><trkpt lat="45.6726475" lon="11.5306938"><ele>84.0</ele><time>2026-04-19T07:36:06.28Z</time></trkpt><trkpt lat="45.6728059" lon="11.5306577"><ele>84.0</ele><time>2026-04-19T07:36:07.285Z</time></trkpt><trkpt lat="45.6729637" lon="11.530627"><ele>83.66666666666667</ele><time>2026-04-19T07:36:08.282Z</time></trkpt><trkpt lat="45.673125" lon="11.5306035"><ele>83.33333333333334</ele><time>2026-04-19T07:36:09.288Z</time></trkpt><trkpt lat="45.6732852" lon="11.5305842"><ele>83.0</ele><time>2026-04-19T07:36:10.286Z</time></trkpt><trkpt lat="45.6734451" lon="11.5305627"><ele>83.66666666666667</ele><time>2026-04-19T07:36:11.274Z</time></trkpt><trkpt lat="45.6736112" lon="11.5305428"><ele>84.33333333333333</ele><time>2026-04-19T07:36:12.292Z</time></trkpt><trkpt lat="45.673778" lon="11.5305272"><ele>85.0</ele><time>2026-04-19T07:36:13.281Z</time></trkpt><trkpt lat="45.6739477" lon="11.5305128"><ele>85.0</ele><time>2026-04-19T07:36:14.28Z</time></trkpt><trkpt lat="45.6741131" lon="11.5304996"><ele>85.0</ele><time>2026-04-19T07:36:15.29Z</time></trkpt><trkpt lat="45.6742739" lon="11.5304903"><ele>85.0</ele><time>2026-04-19T07:36:16.286Z</time></trkpt><trkpt lat="45.6744279" lon="11.5304881"><ele>85.0</ele><time>2026-04-19T07:36:17.275Z</time></trkpt><trkpt lat="45.6745745" lon="11.5304982"><ele>85.0</ele><time>2026-04-19T07:36:18.285Z</time></trkpt><trkpt lat="45.6747087" lon="11.5305366"><ele>85.0</ele><time>2026-04-19T07:36:19.274Z</time></trkpt><trkpt lat="45.6748082" lon="11.5305693"><ele>85.0</ele><time>2026-04-19T07:36:20.286Z</time></trkpt><trkpt lat="45.6748755" lon="11.5305916"><ele>85.0</ele><time>2026-04-19T07:36:21.282Z</time></trkpt><trkpt lat="45.6749538" lon="11.5306178"><ele>85.0</ele><time>2026-04-19T07:36:23.291Z</time></trkpt><trkpt lat="45.6751485" lon="11.5306803"><ele>85.0</ele><time>2026-04-19T07:36:37.286Z</time></trkpt><trkpt lat="45.6752488" lon="11.5307301"><ele>85.0</ele><time>2026-04-19T07:36:39.297Z</time></trkpt><trkpt lat="45.6753271" lon="11.5307778"><ele>85.25</ele><time>2026-04-19T07:36:40.286Z</time></trkpt><trkpt lat="45.6754309" lon="11.5308269"><ele>85.5</ele><time>2026-04-19T07:36:41.298Z</time></trkpt><trkpt lat="45.6755358" lon="11.5309218"><ele>85.75</ele><time>2026-04-19T07:36:42.314Z</time></trkpt><trkpt lat="45.6756508" lon="11.531016"><ele>86.0</ele><time>2026-04-19T07:36:43.298Z</time></trkpt><trkpt lat="45.6757764" lon="11.5311146"><ele>86.0</ele><time>2026-04-19T07:36:44.3Z</time></trkpt><trkpt lat="45.6759191" lon="11.5312198"><ele>86.0</ele><time>2026-04-19T07:36:45.295Z</time></trkpt><trkpt lat="45.6760701" lon="11.5313283"><ele>86.0</ele><time>2026-04-19T07:36:46.296Z</time></trkpt><trkpt lat="45.6762253" lon="11.5314467"><ele>86.0</ele><time>2026-04-19T07:36:47.296Z</time></trkpt><trkpt lat="45.6763841" lon="11.5315692"><ele>86.0</ele><time>2026-04-19T07:36:48.291Z</time></trkpt><trkpt lat="45.6765461" lon="11.5317063"><ele>86.0</ele><time>2026-04-19T07:36:49.297Z</time></trkpt><trkpt lat="45.6767076" lon="11.5318454"><ele>86.0</ele><time>2026-04-19T07:36:50.29Z</time></trkpt><trkpt lat="45.6768694" lon="11.5319751"><ele>86.0</ele><time>2026-04-19T07:36:51.299Z</time></trkpt><trkpt lat="45.6770311" lon="11.5320973"><ele>86.0</ele><time>2026-04-19T07:36:52.288Z</time></trkpt><trkpt lat="45.6771919" lon="11.5322141"><ele>86.66666666666667</ele><time>2026-04-19T07:36:53.292Z</time></trkpt><trkpt lat="45.6773559" lon="11.5323192"><ele>87.33333333333333</ele><time>2026-04-19T07:36:54.288Z</time></trkpt><trkpt lat="45.6775066" lon="11.5324445"><ele>88.0</ele><time>2026-04-19T07:36:55.282Z</time></trkpt><trkpt lat="45.6776564" lon="11.5325608"><ele>88.33333333333333</ele><time>2026-04-19T07:36:56.283Z</time></trkpt><trkpt lat="45.6778036" lon="11.532678"><ele>88.66666666666667</ele><time>2026-04-19T07:36:57.301Z</time></trkpt><trkpt lat="45.6779502" lon="11.5328022"><ele>89.0</ele><time>2026-04-19T07:36:58.284Z</time></trkpt><trkpt lat="45.6780997" lon="11.5329211"><ele>89.33333333333334</ele><time>2026-04-19T07:36:59.296Z</time></trkpt><trkpt lat="45.6782495" lon="11.533049"><ele>89.66666666666667</ele><time>2026-04-19T07:37:00.293Z</time></trkpt><trkpt lat="45.6783996" lon="11.5331816"><ele>90.0</ele><time>2026-04-19T07:37:01.298Z</time></trkpt><trkpt lat="45.6785463" lon="11.5333192"><ele>90.0</ele><time>2026-04-19T07:37:02.301Z</time></trkpt><trkpt lat="45.6786953" lon="11.5334448"><ele>90.0</ele><time>2026-04-19T07:37:03.297Z</time></trkpt><trkpt lat="45.6788427" lon="11.5335644"><ele>90.0</ele><time>2026-04-19T07:37:04.286Z</time></trkpt><trkpt lat="45.6789885" lon="11.5336764"><ele>90.0</ele><time>2026-04-19T07:37:05.298Z</time></trkpt><trkpt lat="45.679133" lon="11.5337856"><ele>90.0</ele><time>2026-04-19T07:37:06.286Z</time></trkpt><trkpt lat="45.6792809" lon="11.5338943"><ele>90.0</ele><time>2026-04-19T07:37:07.297Z</time></trkpt><trkpt lat="45.6794273" lon="11.53401"><ele>90.33333333333333</ele><time>2026-04-19T07:37:08.301Z</time></trkpt><trkpt lat="45.6795711" lon="11.534126"><ele>90.66666666666666</ele><time>2026-04-19T07:37:09.301Z</time></trkpt><trkpt lat="45.6797128" lon="11.5342353"><ele>91.0</ele><time>2026-04-19T07:37:10.305Z</time></trkpt><trkpt lat="45.6798521" lon="11.5343423"><ele>91.0</ele><time>2026-04-19T07:37:11.293Z</time></trkpt><trkpt lat="45.6799914" lon="11.5344488"><ele>91.0</ele><time>2026-04-19T07:37:12.31Z</time></trkpt><trkpt lat="45.6801295" lon="11.5345653"><ele>91.0</ele><time>2026-04-19T07:37:13.288Z</time></trkpt><trkpt lat="45.680277" lon="11.534666"><ele>91.33333333333333</ele><time>2026-04-19T07:37:14.294Z</time></trkpt><trkpt lat="45.680423" lon="11.5347726"><ele>91.66666666666667</ele><time>2026-04-19T07:37:15.316Z</time></trkpt><trkpt lat="45.6805713" lon="11.5348777"><ele>92.0</ele><time>2026-04-19T07:37:16.296Z</time></trkpt><trkpt lat="45.6807208" lon="11.5349792"><ele>92.0</ele><time>2026-04-19T07:37:17.29Z</time></trkpt><trkpt lat="45.6808697" lon="11.5350821"><ele>92.0</ele><time>2026-04-19T07:37:18.289Z</time></trkpt><trkpt lat="45.6810163" lon="11.5351814"><ele>92.0</ele><time>2026-04-19T07:37:19.295Z</time></trkpt><trkpt lat="45.6811591" lon="11.5352817"><ele>91.66666666666667</ele><time>2026-04-19T07:37:20.307Z</time></trkpt><trkpt lat="45.6813057" lon="11.5353676"><ele>91.33333333333333</ele><time>2026-04-19T07:37:21.279Z</time></trkpt><trkpt lat="45.6814437" lon="11.5354609"><ele>91.0</ele><time>2026-04-19T07:37:22.286Z</time></trkpt><trkpt lat="45.6815757" lon="11.5355444"><ele>91.5</ele><time>2026-04-19T07:37:23.3Z</time></trkpt><trkpt lat="45.6816952" lon="11.5356511"><ele>92.0</ele><time>2026-04-19T07:37:24.292Z</time></trkpt><trkpt lat="45.6818086" lon="11.5357475"><ele>92.5</ele><time>2026-04-19T07:37:25.284Z</time></trkpt><trkpt lat="45.6819073" lon="11.5358276"><ele>93.0</ele><time>2026-04-19T07:37:26.297Z</time></trkpt><trkpt lat="45.6819882" lon="11.5358927"><ele>93.0</ele><time>2026-04-19T07:37:27.285Z</time></trkpt><trkpt lat="45.682049" lon="11.535937"><ele>93.0</ele><time>2026-04-19T07:37:28.307Z</time></trkpt><trkpt lat="45.6821224" lon="11.53606"><ele>93.0</ele><time>2026-04-19T07:37:33.292Z</time></trkpt><trkpt lat="45.6822072" lon="11.5361938"><ele>93.0</ele><time>2026-04-19T07:37:35.287Z</time></trkpt><trkpt lat="45.6822716" lon="11.5362359"><ele>93.0</ele><time>2026-04-19T07:37:36.285Z</time></trkpt><trkpt lat="45.6823462" lon="11.5362638"><ele>93.0</ele><time>2026-04-19T07:37:37.291Z</time></trkpt><trkpt lat="45.6824247" lon="11.5362177"><ele>93.0</ele><time>2026-04-19T07:37:38.293Z</time></trkpt><trkpt lat="45.6824849" lon="11.5360883"><ele>93.0</ele><time>2026-04-19T07:37:39.287Z</time></trkpt><trkpt lat="45.6825396" lon="11.5359168"><ele>93.0</ele><time>2026-04-19T07:37:40.286Z</time></trkpt><trkpt lat="45.6826146" lon="11.5357269"><ele>93.0</ele><time>2026-04-19T07:37:41.283Z</time></trkpt><trkpt lat="45.6827243" lon="11.5355373"><ele>93.0</ele><time>2026-04-19T07:37:42.29Z</time></trkpt><trkpt lat="45.6828624" lon="11.5353433"><ele>93.0</ele><time>2026-04-19T07:37:43.282Z</time></trkpt><trkpt lat="45.6829933" lon="11.5351219"><ele>93.0</ele><time>2026-04-19T07:37:44.287Z</time></trkpt><trkpt lat="45.6831217" lon="11.5348895"><ele>93.0</ele><time>2026-04-19T07:37:45.292Z</time></trkpt><trkpt lat="45.6832704" lon="11.534668"><ele>93.0</ele><time>2026-04-19T07:37:46.295Z</time></trkpt><trkpt lat="45.6834294" lon="11.5344626"><ele>93.0</ele><time>2026-04-19T07:37:47.308Z</time></trkpt><trkpt lat="45.6835952" lon="11.5342779"><ele>93.0</ele><time>2026-04-19T07:37:48.282Z</time></trkpt><trkpt lat="45.683765" lon="11.5341142"><ele>93.0</ele><time>2026-04-19T07:37:49.287Z</time></trkpt><trkpt lat="45.6839311" lon="11.5339718"><ele>93.33333333333333</ele><time>2026-04-19T07:37:50.302Z</time></trkpt><trkpt lat="45.684091" lon="11.5338489"><ele>93.66666666666666</ele><time>2026-04-19T07:37:51.283Z</time></trkpt><trkpt lat="45.6842481" lon="11.5337523"><ele>94.0</ele><time>2026-04-19T07:37:52.297Z</time></trkpt><trkpt lat="45.684391" lon="11.5336653"><ele>94.0</ele><time>2026-04-19T07:37:53.306Z</time></trkpt><trkpt lat="45.6845146" lon="11.5336002"><ele>94.0</ele><time>2026-04-19T07:37:54.291Z</time></trkpt><trkpt lat="45.6846166" lon="11.5335505"><ele>94.0</ele><time>2026-04-19T07:37:55.307Z</time></trkpt><trkpt lat="45.6847054" lon="11.533508"><ele>94.0</ele><time>2026-04-19T07:37:56.292Z</time></trkpt><trkpt lat="45.6847922" lon="11.5334978"><ele>94.0</ele><time>2026-04-19T07:37:57.299Z</time></trkpt><trkpt lat="45.6848725" lon="11.5335108"><ele>94.0</ele><time>2026-04-19T07:37:58.289Z</time></trkpt><trkpt lat="45.6849443" lon="11.5335315"><ele>94.0</ele><time>2026-04-19T07:37:59.297Z</time></trkpt><trkpt lat="45.6850123" lon="11.5335399"><ele>94.0</ele><time>2026-04-19T07:38:00.281Z</time></trkpt><trkpt lat="45.6850773" lon="11.5335227"><ele>94.0</ele><time>2026-04-19T07:38:01.301Z</time></trkpt><trkpt lat="45.685133" lon="11.5334643"><ele>94.0</ele><time>2026-04-19T07:38:02.278Z</time></trkpt><trkpt lat="45.6851717" lon="11.5333791"><ele>94.0</ele><time>2026-04-19T07:38:03.291Z</time></trkpt><trkpt lat="45.6851646" lon="11.5332678"><ele>94.0</ele><time>2026-04-19T07:38:04.282Z</time></trkpt><trkpt lat="45.6851375" lon="11.5331376"><ele>94.0</ele><time>2026-04-19T07:38:05.296Z</time></trkpt><trkpt lat="45.6850823" lon="11.5330448"><ele>94.0</ele><time>2026-04-19T07:38:06.287Z</time></trkpt><trkpt lat="45.6850091" lon="11.5329935"><ele>94.0</ele><time>2026-04-19T07:38:07.292Z</time></trkpt><trkpt lat="45.6849564" lon="11.5329162"><ele>94.0</ele><time>2026-04-19T07:38:08.302Z</time></trkpt><trkpt lat="45.6849267" lon="11.5328117"><ele>94.0</ele><time>2026-04-19T07:38:09.286Z</time></trkpt><trkpt lat="45.6849236" lon="11.5327026"><ele>94.0</ele><time>2026-04-19T07:38:10.29Z</time></trkpt><trkpt lat="45.6849516" lon="11.5325692"><ele>94.5</ele><time>2026-04-19T07:38:11.286Z</time></trkpt><trkpt lat="45.6850124" lon="11.5324458"><ele>95.0</ele><time>2026-04-19T07:38:12.29Z</time></trkpt><trkpt lat="45.6850988" lon="11.5323403"><ele>95.5</ele><time>2026-04-19T07:38:13.296Z</time></trkpt><trkpt lat="45.685199" lon="11.5322419"><ele>96.0</ele><time>2026-04-19T07:38:14.297Z</time></trkpt><trkpt lat="45.6853108" lon="11.5321563"><ele>96.25</ele><time>2026-04-19T07:38:15.301Z</time></trkpt><trkpt lat="45.6854241" lon="11.5320763"><ele>96.5</ele><time>2026-04-19T07:38:16.293Z</time></trkpt><trkpt lat="45.685532" lon="11.5319955"><ele>96.75</ele><time>2026-04-19T07:38:17.303Z</time></trkpt><trkpt lat="45.6856376" lon="11.5319078"><ele>97.0</ele><time>2026-04-19T07:38:18.29Z</time></trkpt><trkpt lat="45.6857323" lon="11.5317965"><ele>97.0</ele><time>2026-04-19T07:38:19.292Z</time></trkpt><trkpt lat="45.6857797" lon="11.5316246"><ele>97.0</ele><time>2026-04-19T07:38:20.292Z</time></trkpt><trkpt lat="45.6858203" lon="11.5314095"><ele>97.0</ele><time>2026-04-19T07:38:21.313Z</time></trkpt><trkpt lat="45.6858515" lon="11.5311603"><ele>96.33333333333334</ele><time>2026-04-19T07:38:22.288Z</time></trkpt><trkpt lat="45.6859066" lon="11.5308773"><ele>95.66666666666667</ele><time>2026-04-19T07:38:23.295Z</time></trkpt><trkpt lat="45.6859592" lon="11.5305796"><ele>95.0</ele><time>2026-04-19T07:38:24.282Z</time></trkpt><trkpt lat="45.6860062" lon="11.530282"><ele>95.0</ele><time>2026-04-19T07:38:25.299Z</time></trkpt><trkpt lat="45.6860565" lon="11.5299941"><ele>95.0</ele><time>2026-04-19T07:38:26.276Z</time></trkpt><trkpt lat="45.6861007" lon="11.5297198"><ele>95.0</ele><time>2026-04-19T07:38:27.281Z</time></trkpt><trkpt lat="45.6861264" lon="11.5294452"><ele>94.66666666666667</ele><time>2026-04-19T07:38:28.293Z</time></trkpt><trkpt lat="45.6861639" lon="11.5291756"><ele>94.33333333333333</ele><time>2026-04-19T07:38:29.291Z</time></trkpt><trkpt lat="45.6861953" lon="11.5289073"><ele>94.0</ele><time>2026-04-19T07:38:30.278Z</time></trkpt><trkpt lat="45.6862049" lon="11.5286361"><ele>93.66666666666666</ele><time>2026-04-19T07:38:31.289Z</time></trkpt><trkpt lat="45.6862086" lon="11.5283703"><ele>93.33333333333333</ele><time>2026-04-19T07:38:32.293Z</time></trkpt><trkpt lat="45.686208" lon="11.5281118"><ele>93.0</ele><time>2026-04-19T07:38:33.29Z</time></trkpt><trkpt lat="45.6862165" lon="11.5278541"><ele>93.0</ele><time>2026-04-19T07:38:34.306Z</time></trkpt><trkpt lat="45.6862155" lon="11.5275985"><ele>93.0</ele><time>2026-04-19T07:38:35.289Z</time></trkpt><trkpt lat="45.6862136" lon="11.5273462"><ele>93.0</ele><time>2026-04-19T07:38:36.284Z</time></trkpt><trkpt lat="45.6862098" lon="11.5270974"><ele>93.66666666666667</ele><time>2026-04-19T07:38:37.3Z</time></trkpt><trkpt lat="45.6862172" lon="11.526846"><ele>94.33333333333334</ele><time>2026-04-19T07:38:38.288Z</time></trkpt><trkpt lat="45.6862309" lon="11.5265888"><ele>95.0</ele><time>2026-04-19T07:38:39.29Z</time></trkpt><trkpt lat="45.6862578" lon="11.5263291"><ele>95.0</ele><time>2026-04-19T07:38:40.286Z</time></trkpt><trkpt lat="45.6863152" lon="11.5260793"><ele>95.0</ele><time>2026-04-19T07:38:41.291Z</time></trkpt><trkpt lat="45.686379" lon="11.525839"><ele>95.0</ele><time>2026-04-19T07:38:42.289Z</time></trkpt><trkpt lat="45.6864397" lon="11.525606"><ele>94.33333333333334</ele><time>2026-04-19T07:38:43.288Z</time></trkpt><trkpt lat="45.6865104" lon="11.5253845"><ele>93.66666666666667</ele><time>2026-04-19T07:38:44.282Z</time></trkpt><trkpt lat="45.6865849" lon="11.5251666"><ele>93.0</ele><time>2026-04-19T07:38:45.292Z</time></trkpt><trkpt lat="45.6866602" lon="11.5249415"><ele>93.0</ele><time>2026-04-19T07:38:46.303Z</time></trkpt><trkpt lat="45.6867365" lon="11.5247016"><ele>93.0</ele><time>2026-04-19T07:38:47.28Z</time></trkpt><trkpt lat="45.6868121" lon="11.5244475"><ele>93.0</ele><time>2026-04-19T07:38:48.289Z</time></trkpt><trkpt lat="45.6868884" lon="11.5241867"><ele>92.66666666666667</ele><time>2026-04-19T07:38:49.284Z</time></trkpt><trkpt lat="45.686967" lon="11.523928"><ele>92.33333333333334</ele><time>2026-04-19T07:38:50.298Z</time></trkpt><trkpt lat="45.6870423" lon="11.523675"><ele>92.0</ele><time>2026-04-19T07:38:51.287Z</time></trkpt><trkpt lat="45.6871184" lon="11.5234289"><ele>91.66666666666667</ele><time>2026-04-19T07:38:52.287Z</time></trkpt><trkpt lat="45.6871949" lon="11.5231837"><ele>91.33333333333333</ele><time>2026-04-19T07:38:53.294Z</time></trkpt><trkpt lat="45.6872498" lon="11.5229203"><ele>91.0</ele><time>2026-04-19T07:38:54.288Z</time></trkpt><trkpt lat="45.6872716" lon="11.5226363"><ele>91.66666666666666</ele><time>2026-04-19T07:38:55.281Z</time></trkpt><trkpt lat="45.687262" lon="11.5223412"><ele>92.33333333333333</ele><time>2026-04-19T07:38:56.287Z</time></trkpt><trkpt lat="45.6872514" lon="11.5220287"><ele>93.0</ele><time>2026-04-19T07:38:57.291Z</time></trkpt><trkpt lat="45.6872367" lon="11.5217077"><ele>93.0</ele><time>2026-04-19T07:38:58.287Z</time></trkpt><trkpt lat="45.6872277" lon="11.5213797"><ele>93.0</ele><time>2026-04-19T07:38:59.306Z</time></trkpt><trkpt lat="45.6872185" lon="11.521057"><ele>93.0</ele><time>2026-04-19T07:39:00.288Z</time></trkpt><trkpt lat="45.6872111" lon="11.5207429"><ele>93.0</ele><time>2026-04-19T07:39:01.291Z</time></trkpt><trkpt lat="45.6871943" lon="11.52044"><ele>93.0</ele><time>2026-04-19T07:39:02.294Z</time></trkpt><trkpt lat="45.6871816" lon="11.5201512"><ele>93.0</ele><time>2026-04-19T07:39:03.29Z</time></trkpt><trkpt lat="45.687172" lon="11.5198704"><ele>93.0</ele><time>2026-04-19T07:39:04.287Z</time></trkpt><trkpt lat="45.6871638" lon="11.5195902"><ele>93.0</ele><time>2026-04-19T07:39:05.311Z</time></trkpt><trkpt lat="45.6871575" lon="11.5193097"><ele>93.0</ele><time>2026-04-19T07:39:06.301Z</time></trkpt><trkpt lat="45.6871539" lon="11.5190299"><ele>93.0</ele><time>2026-04-19T07:39:07.293Z</time></trkpt><trkpt lat="45.6871608" lon="11.518753"><ele>93.0</ele><time>2026-04-19T07:39:08.305Z</time></trkpt><trkpt lat="45.6871824" lon="11.5184775"><ele>93.33333333333333</ele><time>2026-04-19T07:39:09.285Z</time></trkpt><trkpt lat="45.6872121" lon="11.5182038"><ele>93.66666666666666</ele><time>2026-04-19T07:39:10.288Z</time></trkpt><trkpt lat="45.687266" lon="11.5179349"><ele>94.0</ele><time>2026-04-19T07:39:11.32Z</time></trkpt><trkpt lat="45.6873321" lon="11.5176688"><ele>94.0</ele><time>2026-04-19T07:39:12.285Z</time></trkpt><trkpt lat="45.6873948" lon="11.5173982"><ele>94.0</ele><time>2026-04-19T07:39:13.312Z</time></trkpt><trkpt lat="45.6874551" lon="11.5171288"><ele>94.0</ele><time>2026-04-19T07:39:14.283Z</time></trkpt><trkpt lat="45.6875148" lon="11.5168653"><ele>94.33333333333333</ele><time>2026-04-19T07:39:15.286Z</time></trkpt><trkpt lat="45.6875686" lon="11.5166103"><ele>94.66666666666667</ele><time>2026-04-19T07:39:16.291Z</time></trkpt><trkpt lat="45.6876214" lon="11.5163647"><ele>95.0</ele><time>2026-04-19T07:39:17.294Z</time></trkpt><trkpt lat="45.6876744" lon="11.5161229"><ele>95.0</ele><time>2026-04-19T07:39:18.288Z</time></trkpt><trkpt lat="45.6877252" lon="11.5158832"><ele>95.0</ele><time>2026-04-19T07:39:19.301Z</time></trkpt><trkpt lat="45.6877739" lon="11.5156444"><ele>95.0</ele><time>2026-04-19T07:39:20.296Z</time></trkpt><trkpt lat="45.687822" lon="11.5154067"><ele>94.66666666666667</ele><time>2026-04-19T07:39:21.298Z</time></trkpt><trkpt lat="45.6878734" lon="11.5151712"><ele>94.33333333333333</ele><time>2026-04-19T07:39:22.288Z</time></trkpt><trkpt lat="45.6879217" lon="11.5149389"><ele>94.0</ele><time>2026-04-19T07:39:23.293Z</time></trkpt><trkpt lat="45.6879687" lon="11.5147162"><ele>94.5</ele><time>2026-04-19T07:39:24.282Z</time></trkpt><trkpt lat="45.6880106" lon="11.5145108"><ele>95.0</ele><time>2026-04-19T07:39:25.286Z</time></trkpt><trkpt lat="45.6880502" lon="11.5143358"><ele>95.5</ele><time>2026-04-19T07:39:26.292Z</time></trkpt><trkpt lat="45.688086" lon="11.5141857"><ele>96.0</ele><time>2026-04-19T07:39:27.279Z</time></trkpt><trkpt lat="45.6881235" lon="11.5140517"><ele>96.0</ele><time>2026-04-19T07:39:28.289Z</time></trkpt><trkpt lat="45.6881842" lon="11.5139421"><ele>96.0</ele><time>2026-04-19T07:39:29.304Z</time></trkpt><trkpt lat="45.6882694" lon="11.5138724"><ele>96.0</ele><time>2026-04-19T07:39:30.289Z</time></trkpt><trkpt lat="45.6883638" lon="11.5138302"><ele>96.0</ele><time>2026-04-19T07:39:31.296Z</time></trkpt><trkpt lat="45.6884812" lon="11.5138214"><ele>96.0</ele><time>2026-04-19T07:39:32.291Z</time></trkpt><trkpt lat="45.6886206" lon="11.5138152"><ele>96.66666666666666</ele><time>2026-04-19T07:39:33.288Z</time></trkpt><trkpt lat="45.6887811" lon="11.5138045"><ele>97.33333333333333</ele><time>2026-04-19T07:39:34.289Z</time></trkpt><trkpt lat="45.6889549" lon="11.5137951"><ele>98.0</ele><time>2026-04-19T07:39:35.302Z</time></trkpt><trkpt lat="45.6891275" lon="11.5137769"><ele>98.0</ele><time>2026-04-19T07:39:36.287Z</time></trkpt><trkpt lat="45.6892939" lon="11.5137746"><ele>98.0</ele><time>2026-04-19T07:39:37.301Z</time></trkpt><trkpt lat="45.6894618" lon="11.5137811"><ele>98.0</ele><time>2026-04-19T07:39:38.29Z</time></trkpt><trkpt lat="45.6896347" lon="11.5138069"><ele>98.33333333333333</ele><time>2026-04-19T07:39:39.295Z</time></trkpt><trkpt lat="45.689813" lon="11.5138521"><ele>98.66666666666666</ele><time>2026-04-19T07:39:40.297Z</time></trkpt><trkpt lat="45.6899927" lon="11.5139011"><ele>99.0</ele><time>2026-04-19T07:39:41.29Z</time></trkpt><trkpt lat="45.6901696" lon="11.513957"><ele>99.33333333333334</ele><time>2026-04-19T07:39:42.29Z</time></trkpt><trkpt lat="45.6903412" lon="11.5140146"><ele>99.66666666666667</ele><time>2026-04-19T07:39:43.297Z</time></trkpt><trkpt lat="45.690507" lon="11.5140721"><ele>100.0</ele><time>2026-04-19T07:39:44.284Z</time></trkpt><trkpt lat="45.69067" lon="11.5141236"><ele>100.0</ele><time>2026-04-19T07:39:45.295Z</time></trkpt><trkpt lat="45.6908331" lon="11.5141783"><ele>100.0</ele><time>2026-04-19T07:39:46.298Z</time></trkpt><trkpt lat="45.6910005" lon="11.5142357"><ele>100.0</ele><time>2026-04-19T07:39:47.302Z</time></trkpt><trkpt lat="45.6911729" lon="11.514293"><ele>100.0</ele><time>2026-04-19T07:39:48.289Z</time></trkpt><trkpt lat="45.6913492" lon="11.514347"><ele>100.0</ele><time>2026-04-19T07:39:49.289Z</time></trkpt><trkpt lat="45.6915273" lon="11.5144019"><ele>100.0</ele><time>2026-04-19T07:39:50.293Z</time></trkpt><trkpt lat="45.6917119" lon="11.5144448"><ele>100.0</ele><time>2026-04-19T07:39:51.309Z</time></trkpt><trkpt lat="45.691903" lon="11.5144757"><ele>100.0</ele><time>2026-04-19T07:39:52.289Z</time></trkpt><trkpt lat="45.6921" lon="11.514491"><ele>100.0</ele><time>2026-04-19T07:39:53.31Z</time></trkpt><trkpt lat="45.6923026" lon="11.5145075"><ele>100.66666666666667</ele><time>2026-04-19T07:39:54.312Z</time></trkpt><trkpt lat="45.6925082" lon="11.5145196"><ele>101.33333333333334</ele><time>2026-04-19T07:39:55.299Z</time></trkpt><trkpt lat="45.6927161" lon="11.5145356"><ele>102.0</ele><time>2026-04-19T07:39:56.3Z</time></trkpt><trkpt lat="45.6929253" lon="11.5145537"><ele>102.33333333333334</ele><time>2026-04-19T07:39:57.28Z</time></trkpt><trkpt lat="45.693136" lon="11.5145732"><ele>102.66666666666667</ele><time>2026-04-19T07:39:58.282Z</time></trkpt><trkpt lat="45.6933496" lon="11.514585"><ele>103.0</ele><time>2026-04-19T07:39:59.287Z</time></trkpt><trkpt lat="45.6935666" lon="11.5145931"><ele>102.66666666666667</ele><time>2026-04-19T07:40:00.281Z</time></trkpt><trkpt lat="45.6937862" lon="11.5145998"><ele>102.33333333333334</ele><time>2026-04-19T07:40:01.292Z</time></trkpt><trkpt lat="45.6940087" lon="11.5146153"><ele>102.0</ele><time>2026-04-19T07:40:02.286Z</time></trkpt><trkpt lat="45.6942335" lon="11.5146295"><ele>103.0</ele><time>2026-04-19T07:40:03.291Z</time></trkpt><trkpt lat="45.6944584" lon="11.5146404"><ele>104.0</ele><time>2026-04-19T07:40:04.285Z</time></trkpt><trkpt lat="45.694681" lon="11.5146478"><ele>105.0</ele><time>2026-04-19T07:40:05.286Z</time></trkpt><trkpt lat="45.6948963" lon="11.5146578"><ele>105.0</ele><time>2026-04-19T07:40:06.283Z</time></trkpt><trkpt lat="45.6951026" lon="11.5146639"><ele>105.0</ele><time>2026-04-19T07:40:07.303Z</time></trkpt><trkpt lat="45.695304" lon="11.5146859"><ele>105.0</ele><time>2026-04-19T07:40:08.304Z</time></trkpt><trkpt lat="45.6955034" lon="11.514695"><ele>105.33333333333334</ele><time>2026-04-19T07:40:09.3Z</time></trkpt><trkpt lat="45.6957041" lon="11.5147108"><ele>105.66666666666667</ele><time>2026-04-19T07:40:10.288Z</time></trkpt><trkpt lat="45.6959079" lon="11.5147267"><ele>106.0</ele><time>2026-04-19T07:40:11.299Z</time></trkpt><trkpt lat="45.6961148" lon="11.5147432"><ele>106.0</ele><time>2026-04-19T07:40:12.29Z</time></trkpt><trkpt lat="45.6963253" lon="11.5147589"><ele>106.0</ele><time>2026-04-19T07:40:13.289Z</time></trkpt><trkpt lat="45.6965406" lon="11.5147707"><ele>106.0</ele><time>2026-04-19T07:40:14.292Z</time></trkpt><trkpt lat="45.6967591" lon="11.5147861"><ele>107.0</ele><time>2026-04-19T07:40:15.302Z</time></trkpt><trkpt lat="45.6969804" lon="11.514803"><ele>108.0</ele><time>2026-04-19T07:40:16.283Z</time></trkpt><trkpt lat="45.6972035" lon="11.5148146"><ele>109.0</ele><time>2026-04-19T07:40:17.297Z</time></trkpt><trkpt lat="45.697424" lon="11.5148337"><ele>109.0</ele><time>2026-04-19T07:40:18.288Z</time></trkpt><trkpt lat="45.6976371" lon="11.5148506"><ele>109.0</ele><time>2026-04-19T07:40:19.302Z</time></trkpt><trkpt lat="45.6978448" lon="11.5148676"><ele>109.0</ele><time>2026-04-19T07:40:20.286Z</time></trkpt><trkpt lat="45.6980497" lon="11.5148754"><ele>109.0</ele><time>2026-04-19T07:40:21.298Z</time></trkpt><trkpt lat="45.698252" lon="11.5148821"><ele>109.0</ele><time>2026-04-19T07:40:22.287Z</time></trkpt><trkpt lat="45.6984484" lon="11.5148998"><ele>109.0</ele><time>2026-04-19T07:40:23.291Z</time></trkpt><trkpt lat="45.6986412" lon="11.5149155"><ele>109.66666666666667</ele><time>2026-04-19T07:40:24.303Z</time></trkpt><trkpt lat="45.6988311" lon="11.5149166"><ele>110.33333333333334</ele><time>2026-04-19T07:40:25.305Z</time></trkpt><trkpt lat="45.6990207" lon="11.5149076"><ele>111.0</ele><time>2026-04-19T07:40:26.299Z</time></trkpt><trkpt lat="45.6992109" lon="11.5148897"><ele>111.0</ele><time>2026-04-19T07:40:27.291Z</time></trkpt><trkpt lat="45.6993999" lon="11.5148459"><ele>111.0</ele><time>2026-04-19T07:40:28.308Z</time></trkpt><trkpt lat="45.6995854" lon="11.5147726"><ele>111.0</ele><time>2026-04-19T07:40:29.299Z</time></trkpt><trkpt lat="45.6997634" lon="11.5146761"><ele>111.0</ele><time>2026-04-19T07:40:30.29Z</time></trkpt><trkpt lat="45.699932" lon="11.5145602"><ele>111.0</ele><time>2026-04-19T07:40:31.294Z</time></trkpt><trkpt lat="45.7001015" lon="11.5144571"><ele>111.0</ele><time>2026-04-19T07:40:32.304Z</time></trkpt><trkpt lat="45.7002584" lon="11.5143363"><ele>111.33333333333334</ele><time>2026-04-19T07:40:33.33Z</time></trkpt><trkpt lat="45.700412" lon="11.5142261"><ele>111.66666666666667</ele><time>2026-04-19T07:40:34.284Z</time></trkpt><trkpt lat="45.7005607" lon="11.5141275"><ele>112.0</ele><time>2026-04-19T07:40:35.297Z</time></trkpt><trkpt lat="45.7006976" lon="11.5140297"><ele>112.0</ele><time>2026-04-19T07:40:36.281Z</time></trkpt><trkpt lat="45.7008204" lon="11.5139417"><ele>112.0</ele><time>2026-04-19T07:40:37.285Z</time></trkpt><trkpt lat="45.7009342" lon="11.5138868"><ele>112.0</ele><time>2026-04-19T07:40:38.286Z</time></trkpt><trkpt lat="45.7010386" lon="11.5138627"><ele>112.0</ele><time>2026-04-19T07:40:39.299Z</time></trkpt><trkpt lat="45.7011374" lon="11.5138831"><ele>112.39999999999999</ele><time>2026-04-19T07:40:40.289Z</time></trkpt><trkpt lat="45.7012291" lon="11.5139507"><ele>112.79999999999998</ele><time>2026-04-19T07:40:41.303Z</time></trkpt><trkpt lat="45.7013116" lon="11.514044"><ele>113.2</ele><time>2026-04-19T07:40:42.303Z</time></trkpt><trkpt lat="45.7013974" lon="11.5141155"><ele>113.6</ele><time>2026-04-19T07:40:43.283Z</time></trkpt><trkpt lat="45.7014866" lon="11.5141502"><ele>114.0</ele><time>2026-04-19T07:40:44.29Z</time></trkpt><trkpt lat="45.7015861" lon="11.5141509"><ele>114.0</ele><time>2026-04-19T07:40:45.294Z</time></trkpt><trkpt lat="45.7016881" lon="11.5140982"><ele>114.0</ele><time>2026-04-19T07:40:46.291Z</time></trkpt><trkpt lat="45.7017714" lon="11.5139749"><ele>114.0</ele><time>2026-04-19T07:40:47.307Z</time></trkpt><trkpt lat="45.7018282" lon="11.5138062"><ele>114.0</ele><time>2026-04-19T07:40:48.311Z</time></trkpt><trkpt lat="45.7018735" lon="11.5136176"><ele>114.33333333333334</ele><time>2026-04-19T07:40:49.288Z</time></trkpt><trkpt lat="45.7019364" lon="11.5134266"><ele>114.66666666666667</ele><time>2026-04-19T07:40:50.289Z</time></trkpt><trkpt lat="45.7020329" lon="11.5132426"><ele>115.0</ele><time>2026-04-19T07:40:51.292Z</time></trkpt><trkpt lat="45.7021534" lon="11.5130616"><ele>116.0</ele><time>2026-04-19T07:40:52.294Z</time></trkpt><trkpt lat="45.7022808" lon="11.5128681"><ele>117.0</ele><time>2026-04-19T07:40:53.306Z</time></trkpt><trkpt lat="45.702413" lon="11.5126685"><ele>118.0</ele><time>2026-04-19T07:40:54.321Z</time></trkpt><trkpt lat="45.7025507" lon="11.5124703"><ele>118.0</ele><time>2026-04-19T07:40:55.305Z</time></trkpt><trkpt lat="45.7026865" lon="11.5122666"><ele>118.0</ele><time>2026-04-19T07:40:56.284Z</time></trkpt><trkpt lat="45.7028219" lon="11.5120582"><ele>118.0</ele><time>2026-04-19T07:40:57.298Z</time></trkpt><trkpt lat="45.7029588" lon="11.5118528"><ele>118.33333333333334</ele><time>2026-04-19T07:40:58.3Z</time></trkpt><trkpt lat="45.7030903" lon="11.5116444"><ele>118.66666666666666</ele><time>2026-04-19T07:40:59.285Z</time></trkpt><trkpt lat="45.7032146" lon="11.5114364"><ele>119.0</ele><time>2026-04-19T07:41:00.306Z</time></trkpt><trkpt lat="45.7033286" lon="11.5112269"><ele>119.0</ele><time>2026-04-19T07:41:01.305Z</time></trkpt><trkpt lat="45.7034484" lon="11.5110292"><ele>119.0</ele><time>2026-04-19T07:41:02.29Z</time></trkpt><trkpt lat="45.7035739" lon="11.5108391"><ele>119.0</ele><time>2026-04-19T07:41:03.309Z</time></trkpt><trkpt lat="45.7037007" lon="11.5106475"><ele>118.66666666666666</ele><time>2026-04-19T07:41:04.289Z</time></trkpt><trkpt lat="45.7038315" lon="11.5104605"><ele>118.33333333333334</ele><time>2026-04-19T07:41:05.292Z</time></trkpt><trkpt lat="45.7039475" lon="11.5102529"><ele>118.0</ele><time>2026-04-19T07:41:06.307Z</time></trkpt><trkpt lat="45.7040792" lon="11.5100711"><ele>118.0</ele><time>2026-04-19T07:41:07.32Z</time></trkpt><trkpt lat="45.7041929" lon="11.5098684"><ele>118.0</ele><time>2026-04-19T07:41:08.287Z</time></trkpt><trkpt lat="45.7043195" lon="11.5096926"><ele>118.0</ele><time>2026-04-19T07:41:09.287Z</time></trkpt><trkpt lat="45.7044428" lon="11.5095186"><ele>118.33333333333334</ele><time>2026-04-19T07:41:10.312Z</time></trkpt><trkpt lat="45.7045502" lon="11.5093264"><ele>118.66666666666666</ele><time>2026-04-19T07:41:11.317Z</time></trkpt><trkpt lat="45.7046563" lon="11.509138"><ele>119.0</ele><time>2026-04-19T07:41:12.308Z</time></trkpt><trkpt lat="45.704772" lon="11.5089658"><ele>119.0</ele><time>2026-04-19T07:41:13.3Z</time></trkpt><trkpt lat="45.7048846" lon="11.5087935"><ele>119.0</ele><time>2026-04-19T07:41:14.287Z</time></trkpt><trkpt lat="45.7050015" lon="11.5086265"><ele>119.0</ele><time>2026-04-19T07:41:15.301Z</time></trkpt><trkpt lat="45.7051187" lon="11.5084516"><ele>119.33333333333333</ele><time>2026-04-19T07:41:16.285Z</time></trkpt><trkpt lat="45.705238" lon="11.5082664"><ele>119.66666666666666</ele><time>2026-04-19T07:41:17.317Z</time></trkpt><trkpt lat="45.7053592" lon="11.5080697"><ele>120.0</ele><time>2026-04-19T07:41:18.299Z</time></trkpt><trkpt lat="45.7054799" lon="11.5078716"><ele>121.33333333333334</ele><time>2026-04-19T07:41:19.31Z</time></trkpt><trkpt lat="45.7056008" lon="11.5076818"><ele>122.66666666666667</ele><time>2026-04-19T07:41:20.297Z</time></trkpt><trkpt lat="45.705718" lon="11.5074994"><ele>124.0</ele><time>2026-04-19T07:41:21.279Z</time></trkpt><trkpt lat="45.7058354" lon="11.5073255"><ele>124.0</ele><time>2026-04-19T07:41:22.292Z</time></trkpt><trkpt lat="45.7059499" lon="11.5071567"><ele>124.0</ele><time>2026-04-19T07:41:23.3Z</time></trkpt><trkpt lat="45.7060622" lon="11.5069933"><ele>124.0</ele><time>2026-04-19T07:41:24.303Z</time></trkpt><trkpt lat="45.7061738" lon="11.5068294"><ele>124.66666666666667</ele><time>2026-04-19T07:41:25.293Z</time></trkpt><trkpt lat="45.7062849" lon="11.5066608"><ele>125.33333333333334</ele><time>2026-04-19T07:41:26.287Z</time></trkpt><trkpt lat="45.7063978" lon="11.5064863"><ele>126.0</ele><time>2026-04-19T07:41:27.307Z</time></trkpt><trkpt lat="45.7065127" lon="11.5063134"><ele>126.0</ele><time>2026-04-19T07:41:28.285Z</time></trkpt><trkpt lat="45.7066294" lon="11.5061431"><ele>126.0</ele><time>2026-04-19T07:41:29.297Z</time></trkpt><trkpt lat="45.7067463" lon="11.5059752"><ele>126.0</ele><time>2026-04-19T07:41:30.299Z</time></trkpt><trkpt lat="45.7068555" lon="11.5057993"><ele>125.66666666666666</ele><time>2026-04-19T07:41:31.284Z</time></trkpt><trkpt lat="45.7069699" lon="11.505638"><ele>125.33333333333333</ele><time>2026-04-19T07:41:32.288Z</time></trkpt><trkpt lat="45.7070748" lon="11.5054712"><ele>125.0</ele><time>2026-04-19T07:41:33.29Z</time></trkpt><trkpt lat="45.7071803" lon="11.5053079"><ele>125.66666666666666</ele><time>2026-04-19T07:41:34.301Z</time></trkpt><trkpt lat="45.7072601" lon="11.5051187"><ele>126.33333333333334</ele><time>2026-04-19T07:41:35.303Z</time></trkpt><trkpt lat="45.7073725" lon="11.5049685"><ele>127.0</ele><time>2026-04-19T07:41:36.289Z</time></trkpt><trkpt lat="45.7074847" lon="11.5048139"><ele>127.0</ele><time>2026-04-19T07:41:37.3Z</time></trkpt><trkpt lat="45.7075934" lon="11.5046514"><ele>127.0</ele><time>2026-04-19T07:41:38.302Z</time></trkpt><trkpt lat="45.7077047" lon="11.5044885"><ele>127.0</ele><time>2026-04-19T07:41:39.29Z</time></trkpt><trkpt lat="45.7078149" lon="11.5043215"><ele>127.33333333333334</ele><time>2026-04-19T07:41:40.303Z</time></trkpt><trkpt lat="45.7079203" lon="11.5041497"><ele>127.66666666666666</ele><time>2026-04-19T07:41:41.322Z</time></trkpt><trkpt lat="45.7080286" lon="11.5039865"><ele>128.0</ele><time>2026-04-19T07:41:42.288Z</time></trkpt><trkpt lat="45.7081399" lon="11.5038293"><ele>128.66666666666666</ele><time>2026-04-19T07:41:43.303Z</time></trkpt><trkpt lat="45.7082487" lon="11.5036654"><ele>129.33333333333334</ele><time>2026-04-19T07:41:44.305Z</time></trkpt><trkpt lat="45.7083463" lon="11.5034824"><ele>130.0</ele><time>2026-04-19T07:41:45.286Z</time></trkpt><trkpt lat="45.7084519" lon="11.503305"><ele>130.0</ele><time>2026-04-19T07:41:46.294Z</time></trkpt><trkpt lat="45.7085588" lon="11.5031266"><ele>130.0</ele><time>2026-04-19T07:41:47.281Z</time></trkpt><trkpt lat="45.7086639" lon="11.5029448"><ele>130.0</ele><time>2026-04-19T07:41:48.283Z</time></trkpt><trkpt lat="45.7087703" lon="11.5027706"><ele>130.33333333333334</ele><time>2026-04-19T07:41:49.288Z</time></trkpt><trkpt lat="45.7088732" lon="11.5026015"><ele>130.66666666666666</ele><time>2026-04-19T07:41:50.285Z</time></trkpt><trkpt lat="45.7089836" lon="11.502452"><ele>131.0</ele><time>2026-04-19T07:41:51.298Z</time></trkpt><trkpt lat="45.7090895" lon="11.502308"><ele>131.0</ele><time>2026-04-19T07:41:52.283Z</time></trkpt><trkpt lat="45.7091891" lon="11.5021669"><ele>131.0</ele><time>2026-04-19T07:41:53.292Z</time></trkpt><trkpt lat="45.7092858" lon="11.5020322"><ele>131.0</ele><time>2026-04-19T07:41:54.293Z</time></trkpt><trkpt lat="45.709375" lon="11.5018969"><ele>131.0</ele><time>2026-04-19T07:41:55.289Z</time></trkpt><trkpt lat="45.7094637" lon="11.501766"><ele>131.5</ele><time>2026-04-19T07:41:56.293Z</time></trkpt><trkpt lat="45.70955" lon="11.5016288"><ele>132.0</ele><time>2026-04-19T07:41:57.305Z</time></trkpt><trkpt lat="45.7096402" lon="11.5014863"><ele>132.5</ele><time>2026-04-19T07:41:58.311Z</time></trkpt><trkpt lat="45.7097354" lon="11.5013445"><ele>133.0</ele><time>2026-04-19T07:41:59.291Z</time></trkpt><trkpt lat="45.70983" lon="11.5012026"><ele>133.25</ele><time>2026-04-19T07:42:00.292Z</time></trkpt><trkpt lat="45.7099243" lon="11.5010621"><ele>133.5</ele><time>2026-04-19T07:42:01.283Z</time></trkpt><trkpt lat="45.7100223" lon="11.5009251"><ele>133.75</ele><time>2026-04-19T07:42:02.291Z</time></trkpt><trkpt lat="45.7101179" lon="11.5007865"><ele>134.0</ele><time>2026-04-19T07:42:03.297Z</time></trkpt><trkpt lat="45.7102097" lon="11.5006506"><ele>134.0</ele><time>2026-04-19T07:42:04.301Z</time></trkpt><trkpt lat="45.7102925" lon="11.5005123"><ele>134.0</ele><time>2026-04-19T07:42:05.286Z</time></trkpt><trkpt lat="45.7103744" lon="11.5003808"><ele>134.0</ele><time>2026-04-19T07:42:06.298Z</time></trkpt><trkpt lat="45.7104525" lon="11.5002584"><ele>134.0</ele><time>2026-04-19T07:42:07.286Z</time></trkpt><trkpt lat="45.7105296" lon="11.500142"><ele>134.0</ele><time>2026-04-19T07:42:08.282Z</time></trkpt><trkpt lat="45.7106101" lon="11.5000288"><ele>134.0</ele><time>2026-04-19T07:42:09.28Z</time></trkpt><trkpt lat="45.7106899" lon="11.4999088"><ele>134.0</ele><time>2026-04-19T07:42:10.279Z</time></trkpt><trkpt lat="45.7107745" lon="11.4997903"><ele>134.0</ele><time>2026-04-19T07:42:11.282Z</time></trkpt><trkpt lat="45.7108581" lon="11.4996671"><ele>134.25</ele><time>2026-04-19T07:42:12.287Z</time></trkpt><trkpt lat="45.7109301" lon="11.4995297"><ele>134.5</ele><time>2026-04-19T07:42:13.278Z</time></trkpt><trkpt lat="45.7110053" lon="11.4993999"><ele>134.75</ele><time>2026-04-19T07:42:14.286Z</time></trkpt><trkpt lat="45.7110783" lon="11.4992788"><ele>135.0</ele><time>2026-04-19T07:42:15.29Z</time></trkpt><trkpt lat="45.7111404" lon="11.4991516"><ele>135.4</ele><time>2026-04-19T07:42:16.282Z</time></trkpt><trkpt lat="45.7111926" lon="11.4990228"><ele>135.8</ele><time>2026-04-19T07:42:17.283Z</time></trkpt><trkpt lat="45.7112583" lon="11.4989154"><ele>136.2</ele><time>2026-04-19T07:42:18.285Z</time></trkpt><trkpt lat="45.7113053" lon="11.4987971"><ele>136.6</ele><time>2026-04-19T07:42:19.287Z</time></trkpt><trkpt lat="45.7113222" lon="11.4986688"><ele>137.0</ele><time>2026-04-19T07:42:20.298Z</time></trkpt><trkpt lat="45.711348" lon="11.4985593"><ele>137.16666666666666</ele><time>2026-04-19T07:42:21.283Z</time></trkpt><trkpt lat="45.7113701" lon="11.4984581"><ele>137.33333333333331</ele><time>2026-04-19T07:42:22.287Z</time></trkpt><trkpt lat="45.7113823" lon="11.4983596"><ele>137.5</ele><time>2026-04-19T07:42:23.297Z</time></trkpt><trkpt lat="45.7113973" lon="11.4982637"><ele>137.66666666666666</ele><time>2026-04-19T07:42:24.292Z</time></trkpt><trkpt lat="45.7114297" lon="11.4981696"><ele>137.83333333333334</ele><time>2026-04-19T07:42:25.29Z</time></trkpt><trkpt lat="45.7114892" lon="11.4980743"><ele>138.0</ele><time>2026-04-19T07:42:26.294Z</time></trkpt><trkpt lat="45.7115809" lon="11.4979784"><ele>138.0</ele><time>2026-04-19T07:42:27.287Z</time></trkpt><trkpt lat="45.71169" lon="11.4978651"><ele>138.0</ele><time>2026-04-19T07:42:28.286Z</time></trkpt><trkpt lat="45.7117857" lon="11.49772"><ele>138.0</ele><time>2026-04-19T07:42:29.294Z</time></trkpt><trkpt lat="45.711876" lon="11.4975666"><ele>138.0</ele><time>2026-04-19T07:42:30.277Z</time></trkpt><trkpt lat="45.7119598" lon="11.4974037"><ele>138.5</ele><time>2026-04-19T07:42:31.29Z</time></trkpt><trkpt lat="45.7120425" lon="11.4972288"><ele>139.0</ele><time>2026-04-19T07:42:32.293Z</time></trkpt><trkpt lat="45.7121348" lon="11.4970566"><ele>139.5</ele><time>2026-04-19T07:42:33.3Z</time></trkpt><trkpt lat="45.7122109" lon="11.4968745"><ele>140.0</ele><time>2026-04-19T07:42:34.302Z</time></trkpt><trkpt lat="45.71229" lon="11.4967046"><ele>140.0</ele><time>2026-04-19T07:42:35.308Z</time></trkpt><trkpt lat="45.7123729" lon="11.4965527"><ele>140.0</ele><time>2026-04-19T07:42:36.288Z</time></trkpt><trkpt lat="45.7124573" lon="11.4964114"><ele>140.0</ele><time>2026-04-19T07:42:37.283Z</time></trkpt><trkpt lat="45.7125383" lon="11.4962745"><ele>140.0</ele><time>2026-04-19T07:42:38.291Z</time></trkpt><trkpt lat="45.7126166" lon="11.4961503"><ele>140.2</ele><time>2026-04-19T07:42:39.294Z</time></trkpt><trkpt lat="45.7126867" lon="11.4960362"><ele>140.4</ele><time>2026-04-19T07:42:40.302Z</time></trkpt><trkpt lat="45.7127507" lon="11.4959416"><ele>140.6</ele><time>2026-04-19T07:42:41.294Z</time></trkpt><trkpt lat="45.7128071" lon="11.4958512"><ele>140.8</ele><time>2026-04-19T07:42:42.307Z</time></trkpt><trkpt lat="45.7128613" lon="11.4957661"><ele>141.0</ele><time>2026-04-19T07:42:43.286Z</time></trkpt><trkpt lat="45.7129279" lon="11.4956834"><ele>141.0</ele><time>2026-04-19T07:42:44.288Z</time></trkpt><trkpt lat="45.7130022" lon="11.4955842"><ele>141.0</ele><time>2026-04-19T07:42:45.286Z</time></trkpt><trkpt lat="45.7130846" lon="11.4954823"><ele>141.0</ele><time>2026-04-19T07:42:46.286Z</time></trkpt><trkpt lat="45.7131655" lon="11.4953727"><ele>141.0</ele><time>2026-04-19T07:42:47.283Z</time></trkpt><trkpt lat="45.7132519" lon="11.4952642"><ele>141.0</ele><time>2026-04-19T07:42:48.282Z</time></trkpt><trkpt lat="45.7133447" lon="11.49517"><ele>141.2</ele><time>2026-04-19T07:42:49.289Z</time></trkpt><trkpt lat="45.7134332" lon="11.4950724"><ele>141.39999999999998</ele><time>2026-04-19T07:42:50.297Z</time></trkpt><trkpt lat="45.7135151" lon="11.494978"><ele>141.6</ele><time>2026-04-19T07:42:51.276Z</time></trkpt><trkpt lat="45.7135874" lon="11.4948999"><ele>141.79999999999998</ele><time>2026-04-19T07:42:52.285Z</time></trkpt><trkpt lat="45.7136534" lon="11.49483"><ele>142.0</ele><time>2026-04-19T07:42:53.278Z</time></trkpt><trkpt lat="45.7137178" lon="11.4947603"><ele>142.0</ele><time>2026-04-19T07:42:54.297Z</time></trkpt><trkpt lat="45.7137889" lon="11.4946928"><ele>142.0</ele><time>2026-04-19T07:42:55.313Z</time></trkpt><trkpt lat="45.7138602" lon="11.4946158"><ele>142.0</ele><time>2026-04-19T07:42:56.283Z</time></trkpt><trkpt lat="45.7139371" lon="11.494535"><ele>142.0</ele><time>2026-04-19T07:42:57.297Z</time></trkpt><trkpt lat="45.7140222" lon="11.4944533"><ele>142.0</ele><time>2026-04-19T07:42:58.313Z</time></trkpt><trkpt lat="45.7141206" lon="11.4943673"><ele>142.0</ele><time>2026-04-19T07:42:59.29Z</time></trkpt><trkpt lat="45.7142369" lon="11.4942765"><ele>142.0</ele><time>2026-04-19T07:43:00.303Z</time></trkpt><trkpt lat="45.7143652" lon="11.4941739"><ele>142.0</ele><time>2026-04-19T07:43:01.296Z</time></trkpt><trkpt lat="45.7144955" lon="11.4940514"><ele>142.0</ele><time>2026-04-19T07:43:02.298Z</time></trkpt><trkpt lat="45.7146334" lon="11.4939318"><ele>142.33333333333334</ele><time>2026-04-19T07:43:03.291Z</time></trkpt><trkpt lat="45.7147704" lon="11.4938064"><ele>142.66666666666666</ele><time>2026-04-19T07:43:04.301Z</time></trkpt><trkpt lat="45.7149073" lon="11.4936807"><ele>143.0</ele><time>2026-04-19T07:43:05.282Z</time></trkpt><trkpt lat="45.7150454" lon="11.4935526"><ele>143.66666666666666</ele><time>2026-04-19T07:43:06.273Z</time></trkpt><trkpt lat="45.7151894" lon="11.4934318"><ele>144.33333333333334</ele><time>2026-04-19T07:43:07.284Z</time></trkpt><trkpt lat="45.7153307" lon="11.4933093"><ele>145.0</ele><time>2026-04-19T07:43:08.287Z</time></trkpt><trkpt lat="45.71547" lon="11.4931917"><ele>145.0</ele><time>2026-04-19T07:43:09.292Z</time></trkpt><trkpt lat="45.7156022" lon="11.4930696"><ele>145.0</ele><time>2026-04-19T07:43:10.301Z</time></trkpt><trkpt lat="45.7157338" lon="11.4929586"><ele>145.0</ele><time>2026-04-19T07:43:11.288Z</time></trkpt><trkpt lat="45.7158605" lon="11.4928468"><ele>145.5</ele><time>2026-04-19T07:43:12.282Z</time></trkpt><trkpt lat="45.7159811" lon="11.4927301"><ele>146.0</ele><time>2026-04-19T07:43:13.286Z</time></trkpt><trkpt lat="45.716107" lon="11.4926253"><ele>146.5</ele><time>2026-04-19T07:43:14.285Z</time></trkpt><trkpt lat="45.7162346" lon="11.492524"><ele>147.0</ele><time>2026-04-19T07:43:15.303Z</time></trkpt><trkpt lat="45.716359" lon="11.4924204"><ele>147.0</ele><time>2026-04-19T07:43:16.282Z</time></trkpt><trkpt lat="45.7164836" lon="11.4923209"><ele>147.0</ele><time>2026-04-19T07:43:17.303Z</time></trkpt><trkpt lat="45.7166038" lon="11.4922135"><ele>147.0</ele><time>2026-04-19T07:43:18.284Z</time></trkpt><trkpt lat="45.716725" lon="11.4921102"><ele>147.0</ele><time>2026-04-19T07:43:19.28Z</time></trkpt><trkpt lat="45.7168418" lon="11.4920011"><ele>148.25</ele><time>2026-04-19T07:43:20.292Z</time></trkpt><trkpt lat="45.7169572" lon="11.4918914"><ele>149.5</ele><time>2026-04-19T07:43:21.293Z</time></trkpt><trkpt lat="45.7170695" lon="11.4917796"><ele>150.75</ele><time>2026-04-19T07:43:22.288Z</time></trkpt><trkpt lat="45.7171784" lon="11.4916688"><ele>152.0</ele><time>2026-04-19T07:43:23.293Z</time></trkpt><trkpt lat="45.717286" lon="11.4915611"><ele>152.0</ele><time>2026-04-19T07:43:24.3Z</time></trkpt><trkpt lat="45.7173925" lon="11.4914557"><ele>152.0</ele><time>2026-04-19T07:43:25.281Z</time></trkpt><trkpt lat="45.7174981" lon="11.4913519"><ele>152.0</ele><time>2026-04-19T07:43:26.289Z</time></trkpt><trkpt lat="45.7176032" lon="11.4912428"><ele>152.0</ele><time>2026-04-19T07:43:27.298Z</time></trkpt><trkpt lat="45.7177115" lon="11.4911309"><ele>151.75</ele><time>2026-04-19T07:43:28.282Z</time></trkpt><trkpt lat="45.7178218" lon="11.4910175"><ele>151.5</ele><time>2026-04-19T07:43:29.291Z</time></trkpt><trkpt lat="45.7179305" lon="11.4909064"><ele>151.25</ele><time>2026-04-19T07:43:30.29Z</time></trkpt><trkpt lat="45.7180452" lon="11.4908189"><ele>151.0</ele><time>2026-04-19T07:43:31.287Z</time></trkpt><trkpt lat="45.71815" lon="11.4907209"><ele>151.0</ele><time>2026-04-19T07:43:32.286Z</time></trkpt><trkpt lat="45.7182432" lon="11.4906168"><ele>151.0</ele><time>2026-04-19T07:43:33.291Z</time></trkpt><trkpt lat="45.7183509" lon="11.490517"><ele>151.0</ele><time>2026-04-19T07:43:34.297Z</time></trkpt><trkpt lat="45.7184546" lon="11.4904186"><ele>151.0</ele><time>2026-04-19T07:43:35.287Z</time></trkpt><trkpt lat="45.7185562" lon="11.4903221"><ele>151.8</ele><time>2026-04-19T07:43:36.287Z</time></trkpt><trkpt lat="45.718652" lon="11.4902312"><ele>152.6</ele><time>2026-04-19T07:43:37.275Z</time></trkpt><trkpt lat="45.7187401" lon="11.4901387"><ele>153.4</ele><time>2026-04-19T07:43:38.286Z</time></trkpt><trkpt lat="45.7188118" lon="11.4900646"><ele>154.2</ele><time>2026-04-19T07:43:39.287Z</time></trkpt><trkpt lat="45.7188743" lon="11.4899965"><ele>155.0</ele><time>2026-04-19T07:43:40.288Z</time></trkpt><trkpt lat="45.7189609" lon="11.4898959"><ele>155.0</ele><time>2026-04-19T07:43:42.28Z</time></trkpt><trkpt lat="45.7190299" lon="11.489853"><ele>155.0</ele><time>2026-04-19T07:43:44.277Z</time></trkpt><trkpt lat="45.7191004" lon="11.4898459"><ele>155.0</ele><time>2026-04-19T07:43:45.282Z</time></trkpt><trkpt lat="45.7191783" lon="11.4898818"><ele>155.0</ele><time>2026-04-19T07:43:46.297Z</time></trkpt><trkpt lat="45.719305" lon="11.4899501"><ele>155.0</ele><time>2026-04-19T07:43:47.284Z</time></trkpt><trkpt lat="45.7194383" lon="11.4900211"><ele>155.0</ele><time>2026-04-19T07:43:48.291Z</time></trkpt><trkpt lat="45.7195514" lon="11.4900913"><ele>155.0</ele><time>2026-04-19T07:43:49.273Z</time></trkpt><trkpt lat="45.719651" lon="11.4901686"><ele>155.0</ele><time>2026-04-19T07:43:50.277Z</time></trkpt><trkpt lat="45.7197305" lon="11.4902632"><ele>155.0</ele><time>2026-04-19T07:43:51.275Z</time></trkpt><trkpt lat="45.7197879" lon="11.4903716"><ele>155.0</ele><time>2026-04-19T07:43:52.287Z</time></trkpt><trkpt lat="45.7198406" lon="11.4904657"><ele>155.0</ele><time>2026-04-19T07:43:53.285Z</time></trkpt><trkpt lat="45.7199137" lon="11.4905296"><ele>155.0</ele><time>2026-04-19T07:43:54.274Z</time></trkpt><trkpt lat="45.719999" lon="11.4905488"><ele>155.0</ele><time>2026-04-19T07:43:55.288Z</time></trkpt><trkpt lat="45.7200787" lon="11.4904969"><ele>155.0</ele><time>2026-04-19T07:43:56.292Z</time></trkpt><trkpt lat="45.7201334" lon="11.4904006"><ele>155.0</ele><time>2026-04-19T07:43:57.289Z</time></trkpt><trkpt lat="45.7201553" lon="11.4902761"><ele>155.0</ele><time>2026-04-19T07:43:58.28Z</time></trkpt><trkpt lat="45.7201475" lon="11.4901349"><ele>155.0</ele><time>2026-04-19T07:43:59.287Z</time></trkpt><trkpt lat="45.7201483" lon="11.4899774"><ele>155.0</ele><time>2026-04-19T07:44:00.275Z</time></trkpt><trkpt lat="45.72019" lon="11.4898064"><ele>155.0</ele><time>2026-04-19T07:44:01.278Z</time></trkpt><trkpt lat="45.7202764" lon="11.4896191"><ele>155.0</ele><time>2026-04-19T07:44:02.289Z</time></trkpt><trkpt lat="45.7203696" lon="11.4893838"><ele>155.0</ele><time>2026-04-19T07:44:03.28Z</time></trkpt><trkpt lat="45.7204811" lon="11.4891555"><ele>155.0</ele><time>2026-04-19T07:44:04.295Z</time></trkpt><trkpt lat="45.7205676" lon="11.4889364"><ele>155.0</ele><time>2026-04-19T07:44:05.266Z</time></trkpt><trkpt lat="45.7206487" lon="11.4887256"><ele>154.66666666666666</ele><time>2026-04-19T07:44:06.282Z</time></trkpt><trkpt lat="45.7207418" lon="11.4885189"><ele>154.33333333333334</ele><time>2026-04-19T07:44:07.279Z</time></trkpt><trkpt lat="45.7208402" lon="11.4883235"><ele>154.0</ele><time>2026-04-19T07:44:08.278Z</time></trkpt><trkpt lat="45.7209256" lon="11.4881284"><ele>154.0</ele><time>2026-04-19T07:44:09.286Z</time></trkpt><trkpt lat="45.7210055" lon="11.4879438"><ele>154.0</ele><time>2026-04-19T07:44:10.307Z</time></trkpt><trkpt lat="45.7210782" lon="11.4877706"><ele>154.0</ele><time>2026-04-19T07:44:11.274Z</time></trkpt><trkpt lat="45.7211408" lon="11.4876003"><ele>154.0</ele><time>2026-04-19T07:44:12.277Z</time></trkpt><trkpt lat="45.7212101" lon="11.4874441"><ele>154.5</ele><time>2026-04-19T07:44:13.268Z</time></trkpt><trkpt lat="45.7212813" lon="11.487291"><ele>155.0</ele><time>2026-04-19T07:44:14.268Z</time></trkpt><trkpt lat="45.7213566" lon="11.4871398"><ele>155.5</ele><time>2026-04-19T07:44:15.284Z</time></trkpt><trkpt lat="45.7214381" lon="11.4869918"><ele>156.0</ele><time>2026-04-19T07:44:16.285Z</time></trkpt><trkpt lat="45.721524" lon="11.4868418"><ele>156.25</ele><time>2026-04-19T07:44:17.284Z</time></trkpt><trkpt lat="45.7216069" lon="11.4866847"><ele>156.5</ele><time>2026-04-19T07:44:18.29Z</time></trkpt><trkpt lat="45.7216897" lon="11.4865253"><ele>156.75</ele><time>2026-04-19T07:44:19.296Z</time></trkpt><trkpt lat="45.7217708" lon="11.4863639"><ele>157.0</ele><time>2026-04-19T07:44:20.29Z</time></trkpt><trkpt lat="45.7218636" lon="11.4862137"><ele>158.25</ele><time>2026-04-19T07:44:21.291Z</time></trkpt><trkpt lat="45.721951" lon="11.4860605"><ele>159.5</ele><time>2026-04-19T07:44:22.3Z</time></trkpt><trkpt lat="45.7220331" lon="11.4859057"><ele>160.75</ele><time>2026-04-19T07:44:23.276Z</time></trkpt><trkpt lat="45.7221136" lon="11.4857494"><ele>162.0</ele><time>2026-04-19T07:44:24.281Z</time></trkpt><trkpt lat="45.7221825" lon="11.4855812"><ele>161.5</ele><time>2026-04-19T07:44:25.286Z</time></trkpt><trkpt lat="45.7222529" lon="11.4854125"><ele>161.0</ele><time>2026-04-19T07:44:26.273Z</time></trkpt><trkpt lat="45.7223415" lon="11.4852588"><ele>160.5</ele><time>2026-04-19T07:44:27.292Z</time></trkpt><trkpt lat="45.7224234" lon="11.4850924"><ele>160.0</ele><time>2026-04-19T07:44:28.288Z</time></trkpt><trkpt lat="45.7225081" lon="11.4849128"><ele>160.0</ele><time>2026-04-19T07:44:29.286Z</time></trkpt><trkpt lat="45.7226017" lon="11.4847272"><ele>160.0</ele><time>2026-04-19T07:44:30.292Z</time></trkpt><trkpt lat="45.7226977" lon="11.4845365"><ele>160.0</ele><time>2026-04-19T07:44:31.295Z</time></trkpt><trkpt lat="45.7227926" lon="11.4843477"><ele>161.0</ele><time>2026-04-19T07:44:32.276Z</time></trkpt><trkpt lat="45.7228835" lon="11.4841651"><ele>162.0</ele><time>2026-04-19T07:44:33.297Z</time></trkpt><trkpt lat="45.7229714" lon="11.4839916"><ele>163.0</ele><time>2026-04-19T07:44:34.285Z</time></trkpt><trkpt lat="45.7230543" lon="11.4838289"><ele>164.0</ele><time>2026-04-19T07:44:35.286Z</time></trkpt><trkpt lat="45.7231346" lon="11.4836712"><ele>164.5</ele><time>2026-04-19T07:44:36.3Z</time></trkpt><trkpt lat="45.723218" lon="11.4835188"><ele>165.0</ele><time>2026-04-19T07:44:37.279Z</time></trkpt><trkpt lat="45.7233104" lon="11.483372"><ele>165.5</ele><time>2026-04-19T07:44:38.285Z</time></trkpt><trkpt lat="45.7234087" lon="11.4832265"><ele>166.0</ele><time>2026-04-19T07:44:39.29Z</time></trkpt><trkpt lat="45.7235055" lon="11.4830747"><ele>167.0</ele><time>2026-04-19T07:44:40.285Z</time></trkpt><trkpt lat="45.723605" lon="11.4829195"><ele>168.0</ele><time>2026-04-19T07:44:41.285Z</time></trkpt><trkpt lat="45.7237049" lon="11.482763"><ele>169.0</ele><time>2026-04-19T07:44:42.303Z</time></trkpt><trkpt lat="45.7238046" lon="11.4826038"><ele>170.0</ele><time>2026-04-19T07:44:43.297Z</time></trkpt><trkpt lat="45.7239035" lon="11.4824459"><ele>170.0</ele><time>2026-04-19T07:44:44.27Z</time></trkpt><trkpt lat="45.7240037" lon="11.4822942"><ele>170.0</ele><time>2026-04-19T07:44:45.297Z</time></trkpt><trkpt lat="45.7241064" lon="11.4821481"><ele>170.0</ele><time>2026-04-19T07:44:46.29Z</time></trkpt><trkpt lat="45.7242105" lon="11.4820083"><ele>170.0</ele><time>2026-04-19T07:44:47.302Z</time></trkpt><trkpt lat="45.7243144" lon="11.4818794"><ele>170.2</ele><time>2026-04-19T07:44:48.3Z</time></trkpt><trkpt lat="45.72441" lon="11.4817518"><ele>170.4</ele><time>2026-04-19T07:44:49.279Z</time></trkpt><trkpt lat="45.7244981" lon="11.4816259"><ele>170.60000000000002</ele><time>2026-04-19T07:44:50.28Z</time></trkpt><trkpt lat="45.7245758" lon="11.481519"><ele>170.8</ele><time>2026-04-19T07:44:51.281Z</time></trkpt><trkpt lat="45.7246326" lon="11.4814418"><ele>171.0</ele><time>2026-04-19T07:44:52.276Z</time></trkpt><trkpt lat="45.724717" lon="11.4813202"><ele>171.0</ele><time>2026-04-19T07:44:54.281Z</time></trkpt><trkpt lat="45.7248056" lon="11.4811979"><ele>171.0</ele><time>2026-04-19T07:44:56.284Z</time></trkpt><trkpt lat="45.7248764" lon="11.4810601"><ele>171.0</ele><time>2026-04-19T07:44:58.276Z</time></trkpt><trkpt lat="45.7249339" lon="11.480932"><ele>171.0</ele><time>2026-04-19T07:45:00.278Z</time></trkpt><trkpt lat="45.7249772" lon="11.4808472"><ele>171.0</ele><time>2026-04-19T07:45:02.282Z</time></trkpt><trkpt lat="45.725083" lon="11.4806792"><ele>171.0</ele><time>2026-04-19T07:45:11.289Z</time></trkpt><trkpt lat="45.7251528" lon="11.4805011"><ele>171.0</ele><time>2026-04-19T07:45:17.279Z</time></trkpt><trkpt lat="45.7252038" lon="11.4804138"><ele>171.0</ele><time>2026-04-19T07:45:18.277Z</time></trkpt><trkpt lat="45.7252495" lon="11.4802845"><ele>171.0</ele><time>2026-04-19T07:45:19.293Z</time></trkpt><trkpt lat="45.7252839" lon="11.4801234"><ele>171.0</ele><time>2026-04-19T07:45:20.29Z</time></trkpt><trkpt lat="45.7253204" lon="11.4799724"><ele>171.16666666666666</ele><time>2026-04-19T07:45:21.28Z</time></trkpt><trkpt lat="45.7253596" lon="11.4798294"><ele>171.33333333333334</ele><time>2026-04-19T07:45:22.284Z</time></trkpt><trkpt lat="45.7253957" lon="11.4797015"><ele>171.5</ele><time>2026-04-19T07:45:23.28Z</time></trkpt><trkpt lat="45.725423" lon="11.4795847"><ele>171.66666666666669</ele><time>2026-04-19T07:45:24.272Z</time></trkpt><trkpt lat="45.7254508" lon="11.479478"><ele>171.83333333333334</ele><time>2026-04-19T07:45:25.281Z</time></trkpt><trkpt lat="45.7254773" lon="11.4793789"><ele>172.0</ele><time>2026-04-19T07:45:26.287Z</time></trkpt><trkpt lat="45.7254999" lon="11.4792816"><ele>172.16666666666669</ele><time>2026-04-19T07:45:27.285Z</time></trkpt><trkpt lat="45.725528" lon="11.4791848"><ele>172.33333333333334</ele><time>2026-04-19T07:45:28.281Z</time></trkpt><trkpt lat="45.7255567" lon="11.4790833"><ele>172.5</ele><time>2026-04-19T07:45:29.288Z</time></trkpt><trkpt lat="45.7255855" lon="11.4789737"><ele>172.66666666666666</ele><time>2026-04-19T07:45:30.287Z</time></trkpt><trkpt lat="45.7256133" lon="11.4788541"><ele>172.83333333333331</ele><time>2026-04-19T07:45:31.297Z</time></trkpt><trkpt lat="45.7256481" lon="11.4787337"><ele>173.0</ele><time>2026-04-19T07:45:32.27Z</time></trkpt><trkpt lat="45.7256863" lon="11.478612"><ele>173.5</ele><time>2026-04-19T07:45:33.279Z</time></trkpt><trkpt lat="45.7257231" lon="11.4784898"><ele>174.0</ele><time>2026-04-19T07:45:34.283Z</time></trkpt><trkpt lat="45.7257548" lon="11.4783802"><ele>174.5</ele><time>2026-04-19T07:45:35.271Z</time></trkpt><trkpt lat="45.7257817" lon="11.47829"><ele>175.0</ele><time>2026-04-19T07:45:36.281Z</time></trkpt><trkpt lat="45.7258268" lon="11.4781372"><ele>175.5</ele><time>2026-04-19T07:45:38.283Z</time></trkpt><trkpt lat="45.7258488" lon="11.4780522"><ele>176.0</ele><time>2026-04-19T07:45:39.289Z</time></trkpt><trkpt lat="45.7258816" lon="11.4779503"><ele>176.0</ele><time>2026-04-19T07:45:40.28Z</time></trkpt><trkpt lat="45.7259297" lon="11.4778285"><ele>176.0</ele><time>2026-04-19T07:45:41.285Z</time></trkpt><trkpt lat="45.7259834" lon="11.4776884"><ele>176.0</ele><time>2026-04-19T07:45:42.279Z</time></trkpt><trkpt lat="45.7260422" lon="11.4775351"><ele>176.0</ele><time>2026-04-19T07:45:43.283Z</time></trkpt><trkpt lat="45.7261006" lon="11.4773727"><ele>176.0</ele><time>2026-04-19T07:45:44.292Z</time></trkpt><trkpt lat="45.7261591" lon="11.4772015"><ele>176.0</ele><time>2026-04-19T07:45:45.287Z</time></trkpt><trkpt lat="45.7262213" lon="11.4770222"><ele>176.0</ele><time>2026-04-19T07:45:46.29Z</time></trkpt><trkpt lat="45.726282" lon="11.4768451"><ele>176.0</ele><time>2026-04-19T07:45:47.277Z</time></trkpt><trkpt lat="45.7263359" lon="11.4766839"><ele>176.0</ele><time>2026-04-19T07:45:48.281Z</time></trkpt><trkpt lat="45.7263785" lon="11.4765457"><ele>176.0</ele><time>2026-04-19T07:45:49.273Z</time></trkpt><trkpt lat="45.7264161" lon="11.4764211"><ele>176.0</ele><time>2026-04-19T07:45:50.269Z</time></trkpt><trkpt lat="45.7264521" lon="11.4762998"><ele>176.0</ele><time>2026-04-19T07:45:51.288Z</time></trkpt><trkpt lat="45.7264825" lon="11.4761904"><ele>176.0</ele><time>2026-04-19T07:45:52.29Z</time></trkpt><trkpt lat="45.7265064" lon="11.4761015"><ele>176.0</ele><time>2026-04-19T07:45:53.283Z</time></trkpt><trkpt lat="45.7265368" lon="11.4759702"><ele>176.0</ele><time>2026-04-19T07:45:55.278Z</time></trkpt><trkpt lat="45.7265793" lon="11.4758932"><ele>176.0</ele><time>2026-04-19T07:45:57.291Z</time></trkpt><trkpt lat="45.7266122" lon="11.4757962"><ele>176.0</ele><time>2026-04-19T07:45:59.291Z</time></trkpt><trkpt lat="45.7266479" lon="11.4757203"><ele>176.0</ele><time>2026-04-19T07:46:00.286Z</time></trkpt><trkpt lat="45.7266227" lon="11.4755885"><ele>176.0</ele><time>2026-04-19T07:46:01.282Z</time></trkpt><trkpt lat="45.7266039" lon="11.4754213"><ele>176.0</ele><time>2026-04-19T07:46:02.29Z</time></trkpt><trkpt lat="45.7265571" lon="11.4752049"><ele>176.0</ele><time>2026-04-19T07:46:03.292Z</time></trkpt><trkpt lat="45.7265223" lon="11.4749588"><ele>176.0</ele><time>2026-04-19T07:46:04.289Z</time></trkpt><trkpt lat="45.7264923" lon="11.4746911"><ele>176.0</ele><time>2026-04-19T07:46:05.278Z</time></trkpt><trkpt lat="45.7264589" lon="11.4743963"><ele>176.0</ele><time>2026-04-19T07:46:06.296Z</time></trkpt><trkpt lat="45.7264133" lon="11.4740745"><ele>176.0</ele><time>2026-04-19T07:46:07.289Z</time></trkpt><trkpt lat="45.7263697" lon="11.4737599"><ele>176.0</ele><time>2026-04-19T07:46:08.287Z</time></trkpt><trkpt lat="45.7263278" lon="11.4734637"><ele>176.0</ele><time>2026-04-19T07:46:09.278Z</time></trkpt><trkpt lat="45.726286" lon="11.4731866"><ele>176.0</ele><time>2026-04-19T07:46:10.287Z</time></trkpt><trkpt lat="45.7262363" lon="11.4729278"><ele>176.0</ele><time>2026-04-19T07:46:11.275Z</time></trkpt><trkpt lat="45.7262002" lon="11.4726819"><ele>176.0</ele><time>2026-04-19T07:46:12.277Z</time></trkpt><trkpt lat="45.7261608" lon="11.4724528"><ele>176.0</ele><time>2026-04-19T07:46:13.282Z</time></trkpt><trkpt lat="45.7261258" lon="11.4722385"><ele>176.5</ele><time>2026-04-19T07:46:14.302Z</time></trkpt><trkpt lat="45.7260977" lon="11.4720371"><ele>177.0</ele><time>2026-04-19T07:46:15.281Z</time></trkpt><trkpt lat="45.7260723" lon="11.4718512"><ele>177.5</ele><time>2026-04-19T07:46:16.273Z</time></trkpt><trkpt lat="45.7260471" lon="11.4716738"><ele>178.0</ele><time>2026-04-19T07:46:17.278Z</time></trkpt><trkpt lat="45.7260202" lon="11.4714932"><ele>177.5</ele><time>2026-04-19T07:46:18.286Z</time></trkpt><trkpt lat="45.7259957" lon="11.4713074"><ele>177.0</ele><time>2026-04-19T07:46:19.298Z</time></trkpt><trkpt lat="45.7259704" lon="11.4711194"><ele>176.5</ele><time>2026-04-19T07:46:20.292Z</time></trkpt><trkpt lat="45.7259415" lon="11.4709305"><ele>176.0</ele><time>2026-04-19T07:46:21.289Z</time></trkpt><trkpt lat="45.7259144" lon="11.4707402"><ele>176.0</ele><time>2026-04-19T07:46:22.287Z</time></trkpt><trkpt lat="45.7258866" lon="11.470547"><ele>176.0</ele><time>2026-04-19T07:46:23.281Z</time></trkpt><trkpt lat="45.7258574" lon="11.4703482"><ele>176.0</ele><time>2026-04-19T07:46:24.281Z</time></trkpt><trkpt lat="45.7258289" lon="11.4701418"><ele>176.0</ele><time>2026-04-19T07:46:25.282Z</time></trkpt><trkpt lat="45.7257977" lon="11.4699297"><ele>176.0</ele><time>2026-04-19T07:46:26.292Z</time></trkpt><trkpt lat="45.7257684" lon="11.469717"><ele>176.0</ele><time>2026-04-19T07:46:27.287Z</time></trkpt><trkpt lat="45.7257399" lon="11.4695093"><ele>176.0</ele><time>2026-04-19T07:46:28.29Z</time></trkpt><trkpt lat="45.7257098" lon="11.4693037"><ele>176.0</ele><time>2026-04-19T07:46:29.278Z</time></trkpt><trkpt lat="45.7256688" lon="11.4690965"><ele>176.0</ele><time>2026-04-19T07:46:30.276Z</time></trkpt><trkpt lat="45.7256437" lon="11.4688914"><ele>176.0</ele><time>2026-04-19T07:46:31.282Z</time></trkpt><trkpt lat="45.7256086" lon="11.4686919"><ele>176.0</ele><time>2026-04-19T07:46:32.291Z</time></trkpt><trkpt lat="45.7255693" lon="11.4684998"><ele>176.0</ele><time>2026-04-19T07:46:33.279Z</time></trkpt><trkpt lat="45.725526" lon="11.4683212"><ele>176.4</ele><time>2026-04-19T07:46:34.28Z</time></trkpt><trkpt lat="45.7254791" lon="11.4681583"><ele>176.8</ele><time>2026-04-19T07:46:35.286Z</time></trkpt><trkpt lat="45.7254296" lon="11.4680102"><ele>177.20000000000002</ele><time>2026-04-19T07:46:36.276Z</time></trkpt><trkpt lat="45.7253703" lon="11.4678848"><ele>177.60000000000002</ele><time>2026-04-19T07:46:37.284Z</time></trkpt><trkpt lat="45.7253172" lon="11.4677717"><ele>178.0</ele><time>2026-04-19T07:46:38.276Z</time></trkpt><trkpt lat="45.7252647" lon="11.467671"><ele>178.0</ele><time>2026-04-19T07:46:39.285Z</time></trkpt><trkpt lat="45.7252192" lon="11.4675764"><ele>178.0</ele><time>2026-04-19T07:46:40.271Z</time></trkpt><trkpt lat="45.7251717" lon="11.467489"><ele>178.0</ele><time>2026-04-19T07:46:41.267Z</time></trkpt><trkpt lat="45.7251323" lon="11.4674103"><ele>178.0</ele><time>2026-04-19T07:46:42.275Z</time></trkpt><trkpt lat="45.7250677" lon="11.4672964"><ele>178.0</ele><time>2026-04-19T07:46:44.27Z</time></trkpt><trkpt lat="45.7250307" lon="11.4672201"><ele>178.0</ele><time>2026-04-19T07:46:46.284Z</time></trkpt><trkpt lat="45.7249748" lon="11.4671054"><ele>178.60000000000002</ele><time>2026-04-19T07:47:07.285Z</time></trkpt><trkpt lat="45.724903" lon="11.4669862"><ele>179.20000000000002</ele><time>2026-04-19T07:47:09.292Z</time></trkpt><trkpt lat="45.7248448" lon="11.4668435"><ele>179.8</ele><time>2026-04-19T07:47:11.288Z</time></trkpt><trkpt lat="45.7248597" lon="11.4667019"><ele>180.4</ele><time>2026-04-19T07:47:13.282Z</time></trkpt><trkpt lat="45.7249157" lon="11.4666546"><ele>181.0</ele><time>2026-04-19T07:47:14.28Z</time></trkpt><trkpt lat="45.7250022" lon="11.4666339"><ele>181.0</ele><time>2026-04-19T07:47:15.275Z</time></trkpt><trkpt lat="45.7251002" lon="11.466616"><ele>181.0</ele><time>2026-04-19T07:47:16.285Z</time></trkpt><trkpt lat="45.7252162" lon="11.4666041"><ele>181.0</ele><time>2026-04-19T07:47:17.284Z</time></trkpt><trkpt lat="45.7253358" lon="11.4665782"><ele>181.0</ele><time>2026-04-19T07:47:18.289Z</time></trkpt><trkpt lat="45.7254598" lon="11.4665468"><ele>180.75</ele><time>2026-04-19T07:47:19.296Z</time></trkpt><trkpt lat="45.7255906" lon="11.4665117"><ele>180.5</ele><time>2026-04-19T07:47:20.294Z</time></trkpt><trkpt lat="45.7257264" lon="11.4664758"><ele>180.25</ele><time>2026-04-19T07:47:21.291Z</time></trkpt><trkpt lat="45.7258691" lon="11.4664479"><ele>180.0</ele><time>2026-04-19T07:47:22.287Z</time></trkpt><trkpt lat="45.7260128" lon="11.4664104"><ele>180.25</ele><time>2026-04-19T07:47:23.287Z</time></trkpt><trkpt lat="45.7261545" lon="11.4663672"><ele>180.5</ele><time>2026-04-19T07:47:24.294Z</time></trkpt><trkpt lat="45.7262952" lon="11.4663274"><ele>180.75</ele><time>2026-04-19T07:47:25.291Z</time></trkpt><trkpt lat="45.7264321" lon="11.4662871"><ele>181.0</ele><time>2026-04-19T07:47:26.284Z</time></trkpt><trkpt lat="45.7265675" lon="11.4662554"><ele>181.5</ele><time>2026-04-19T07:47:27.295Z</time></trkpt><trkpt lat="45.7267059" lon="11.4662203"><ele>182.0</ele><time>2026-04-19T07:47:28.275Z</time></trkpt><trkpt lat="45.7268477" lon="11.4661753"><ele>182.5</ele><time>2026-04-19T07:47:29.272Z</time></trkpt><trkpt lat="45.726994" lon="11.4661308"><ele>183.0</ele><time>2026-04-19T07:47:30.271Z</time></trkpt><trkpt lat="45.7271466" lon="11.4660954"><ele>183.33333333333334</ele><time>2026-04-19T07:47:31.273Z</time></trkpt><trkpt lat="45.7272982" lon="11.4660354"><ele>183.66666666666669</ele><time>2026-04-19T07:47:32.28Z</time></trkpt><trkpt lat="45.7274544" lon="11.4659856"><ele>184.0</ele><time>2026-04-19T07:47:33.287Z</time></trkpt><trkpt lat="45.7276106" lon="11.465933"><ele>184.0</ele><time>2026-04-19T07:47:34.297Z</time></trkpt><trkpt lat="45.7277688" lon="11.4658903"><ele>184.0</ele><time>2026-04-19T07:47:35.284Z</time></trkpt><trkpt lat="45.7279239" lon="11.4658428"><ele>184.0</ele><time>2026-04-19T07:47:36.278Z</time></trkpt><trkpt lat="45.7280766" lon="11.4658061"><ele>184.0</ele><time>2026-04-19T07:47:37.286Z</time></trkpt><trkpt lat="45.7282275" lon="11.4657792"><ele>184.0</ele><time>2026-04-19T07:47:38.29Z</time></trkpt><trkpt lat="45.7283711" lon="11.4657399"><ele>184.0</ele><time>2026-04-19T07:47:39.291Z</time></trkpt><trkpt lat="45.7285101" lon="11.4657087"><ele>184.0</ele><time>2026-04-19T07:47:40.289Z</time></trkpt><trkpt lat="45.7286421" lon="11.4656722"><ele>184.2</ele><time>2026-04-19T07:47:41.283Z</time></trkpt><trkpt lat="45.7287652" lon="11.465623"><ele>184.39999999999998</ele><time>2026-04-19T07:47:42.286Z</time></trkpt><trkpt lat="45.7288798" lon="11.4656018"><ele>184.6</ele><time>2026-04-19T07:47:43.272Z</time></trkpt><trkpt lat="45.7289761" lon="11.4655705"><ele>184.8</ele><time>2026-04-19T07:47:44.28Z</time></trkpt><trkpt lat="45.7290559" lon="11.465557"><ele>185.0</ele><time>2026-04-19T07:47:45.292Z</time></trkpt><trkpt lat="45.7291618" lon="11.4655668"><ele>184.99999999999997</ele><time>2026-04-19T07:47:47.287Z</time></trkpt><trkpt lat="45.7292207" lon="11.4656167"><ele>185.0</ele><time>2026-04-19T07:47:49.302Z</time></trkpt><trkpt lat="45.729296" lon="11.4656608"><ele>185.0</ele><time>2026-04-19T07:47:52.28Z</time></trkpt><trkpt lat="45.7293535" lon="11.4656983"><ele>185.0</ele><time>2026-04-19T07:47:55.291Z</time></trkpt><trkpt lat="45.729399" lon="11.4657859"><ele>185.0</ele><time>2026-04-19T07:48:00.281Z</time></trkpt><trkpt lat="45.7294587" lon="11.4658693"><ele>184.99999999999997</ele><time>2026-04-19T07:48:03.294Z</time></trkpt><trkpt lat="45.7295238" lon="11.4659128"><ele>185.0</ele><time>2026-04-19T07:48:05.294Z</time></trkpt><trkpt lat="45.7295884" lon="11.4658741"><ele>185.2</ele><time>2026-04-19T07:48:07.295Z</time></trkpt><trkpt lat="45.7296245" lon="11.4657813"><ele>185.4</ele><time>2026-04-19T07:48:10.29Z</time></trkpt><trkpt lat="45.7295998" lon="11.4656865"><ele>185.60000000000002</ele><time>2026-04-19T07:52:07.289Z</time></trkpt><trkpt lat="45.7296001" lon="11.465568"><ele>185.8</ele><time>2026-04-19T07:52:10.295Z</time></trkpt><trkpt lat="45.7296336" lon="11.4654671"><ele>186.0</ele><time>2026-04-19T07:52:12.278Z</time></trkpt><trkpt lat="45.7297563" lon="11.4653544"><ele>186.5</ele><time>2026-04-19T07:52:14.283Z</time></trkpt><trkpt lat="45.7298679" lon="11.4653136"><ele>187.0</ele><time>2026-04-19T07:52:15.3Z</time></trkpt><trkpt lat="45.7300193" lon="11.465273"><ele>187.5</ele><time>2026-04-19T07:52:16.289Z</time></trkpt><trkpt lat="45.7301899" lon="11.4652197"><ele>188.0</ele><time>2026-04-19T07:52:17.293Z</time></trkpt><trkpt lat="45.7303722" lon="11.4651614"><ele>188.66666666666666</ele><time>2026-04-19T07:52:18.292Z</time></trkpt><trkpt lat="45.7305528" lon="11.4650976"><ele>189.33333333333334</ele><time>2026-04-19T07:52:19.296Z</time></trkpt><trkpt lat="45.7307323" lon="11.4650538"><ele>190.0</ele><time>2026-04-19T07:52:20.297Z</time></trkpt><trkpt lat="45.7309169" lon="11.4650032"><ele>190.66666666666669</ele><time>2026-04-19T07:52:21.299Z</time></trkpt><trkpt lat="45.7311063" lon="11.4649636"><ele>191.33333333333334</ele><time>2026-04-19T07:52:22.3Z</time></trkpt><trkpt lat="45.7312938" lon="11.4649114"><ele>192.0</ele><time>2026-04-19T07:52:23.287Z</time></trkpt><trkpt lat="45.7314851" lon="11.4648747"><ele>192.0</ele><time>2026-04-19T07:52:24.285Z</time></trkpt><trkpt lat="45.7316762" lon="11.4648298"><ele>192.0</ele><time>2026-04-19T07:52:25.29Z</time></trkpt><trkpt lat="45.7318643" lon="11.4647737"><ele>192.0</ele><time>2026-04-19T07:52:26.29Z</time></trkpt><trkpt lat="45.7320466" lon="11.4647297"><ele>192.66666666666669</ele><time>2026-04-19T07:52:27.3Z</time></trkpt><trkpt lat="45.7322192" lon="11.4646719"><ele>193.33333333333334</ele><time>2026-04-19T07:52:28.3Z</time></trkpt><trkpt lat="45.732389" lon="11.4646082"><ele>194.0</ele><time>2026-04-19T07:52:29.293Z</time></trkpt><trkpt lat="45.7325624" lon="11.4645624"><ele>194.66666666666669</ele><time>2026-04-19T07:52:30.316Z</time></trkpt><trkpt lat="45.7327355" lon="11.46451"><ele>195.33333333333331</ele><time>2026-04-19T07:52:31.291Z</time></trkpt><trkpt lat="45.7329152" lon="11.4644792"><ele>196.0</ele><time>2026-04-19T07:52:32.301Z</time></trkpt><trkpt lat="45.7330958" lon="11.4644605"><ele>196.0</ele><time>2026-04-19T07:52:33.296Z</time></trkpt><trkpt lat="45.7332725" lon="11.4644416"><ele>196.0</ele><time>2026-04-19T07:52:34.296Z</time></trkpt><trkpt lat="45.7334451" lon="11.4644409"><ele>196.0</ele><time>2026-04-19T07:52:35.298Z</time></trkpt><trkpt lat="45.7336153" lon="11.4644414"><ele>196.33333333333331</ele><time>2026-04-19T07:52:36.31Z</time></trkpt><trkpt lat="45.733785" lon="11.4644407"><ele>196.66666666666669</ele><time>2026-04-19T07:52:37.301Z</time></trkpt><trkpt lat="45.7339538" lon="11.464432"><ele>197.0</ele><time>2026-04-19T07:52:38.29Z</time></trkpt><trkpt lat="45.7341232" lon="11.4644294"><ele>197.0</ele><time>2026-04-19T07:52:39.291Z</time></trkpt><trkpt lat="45.7342955" lon="11.4644394"><ele>197.0</ele><time>2026-04-19T07:52:40.299Z</time></trkpt><trkpt lat="45.7344693" lon="11.4644504"><ele>197.0</ele><time>2026-04-19T07:52:41.286Z</time></trkpt><trkpt lat="45.7346426" lon="11.4644479"><ele>198.0</ele><time>2026-04-19T07:52:42.293Z</time></trkpt><trkpt lat="45.7348177" lon="11.4644538"><ele>199.0</ele><time>2026-04-19T07:52:43.316Z</time></trkpt><trkpt lat="45.7349955" lon="11.4644486"><ele>200.0</ele><time>2026-04-19T07:52:44.297Z</time></trkpt><trkpt lat="45.735174" lon="11.4644421"><ele>200.33333333333334</ele><time>2026-04-19T07:52:45.294Z</time></trkpt><trkpt lat="45.7353521" lon="11.4644384"><ele>200.66666666666669</ele><time>2026-04-19T07:52:46.297Z</time></trkpt><trkpt lat="45.7355303" lon="11.4644445"><ele>201.0</ele><time>2026-04-19T07:52:47.288Z</time></trkpt><trkpt lat="45.7357064" lon="11.4644395"><ele>201.0</ele><time>2026-04-19T07:52:48.309Z</time></trkpt><trkpt lat="45.7358813" lon="11.4644386"><ele>201.0</ele><time>2026-04-19T07:52:49.306Z</time></trkpt><trkpt lat="45.7360495" lon="11.464429"><ele>201.0</ele><time>2026-04-19T07:52:50.312Z</time></trkpt><trkpt lat="45.7362114" lon="11.4644425"><ele>201.66666666666669</ele><time>2026-04-19T07:52:51.299Z</time></trkpt><trkpt lat="45.7363663" lon="11.4644492"><ele>202.33333333333334</ele><time>2026-04-19T07:52:52.304Z</time></trkpt><trkpt lat="45.7365232" lon="11.4644554"><ele>203.0</ele><time>2026-04-19T07:52:53.289Z</time></trkpt><trkpt lat="45.7366804" lon="11.4644536"><ele>203.0</ele><time>2026-04-19T07:52:54.301Z</time></trkpt><trkpt lat="45.7368411" lon="11.4644547"><ele>203.0</ele><time>2026-04-19T07:52:55.3Z</time></trkpt><trkpt lat="45.7370017" lon="11.4644566"><ele>203.0</ele><time>2026-04-19T07:52:56.304Z</time></trkpt><trkpt lat="45.7371604" lon="11.4644558"><ele>204.66666666666669</ele><time>2026-04-19T07:52:57.301Z</time></trkpt><trkpt lat="45.7373177" lon="11.4644535"><ele>206.33333333333331</ele><time>2026-04-19T07:52:58.312Z</time></trkpt><trkpt lat="45.7374763" lon="11.4644477"><ele>208.0</ele><time>2026-04-19T07:52:59.302Z</time></trkpt><trkpt lat="45.7376399" lon="11.4644323"><ele>207.66666666666666</ele><time>2026-04-19T07:53:00.29Z</time></trkpt><trkpt lat="45.7378062" lon="11.4644048"><ele>207.33333333333331</ele><time>2026-04-19T07:53:01.301Z</time></trkpt><trkpt lat="45.7379739" lon="11.4643628"><ele>207.0</ele><time>2026-04-19T07:53:02.292Z</time></trkpt><trkpt lat="45.7381439" lon="11.4643085"><ele>207.0</ele><time>2026-04-19T07:53:03.301Z</time></trkpt><trkpt lat="45.7383151" lon="11.4642415"><ele>207.0</ele><time>2026-04-19T07:53:04.287Z</time></trkpt><trkpt lat="45.7384857" lon="11.4641619"><ele>207.0</ele><time>2026-04-19T07:53:05.29Z</time></trkpt><trkpt lat="45.7386589" lon="11.4640766"><ele>207.33333333333331</ele><time>2026-04-19T07:53:06.286Z</time></trkpt><trkpt lat="45.7388331" lon="11.4639901"><ele>207.66666666666666</ele><time>2026-04-19T07:53:07.3Z</time></trkpt><trkpt lat="45.7390082" lon="11.4639098"><ele>208.0</ele><time>2026-04-19T07:53:08.316Z</time></trkpt><trkpt lat="45.7391799" lon="11.4638219"><ele>208.33333333333331</ele><time>2026-04-19T07:53:09.321Z</time></trkpt><trkpt lat="45.7393496" lon="11.4637349"><ele>208.66666666666669</ele><time>2026-04-19T07:53:10.293Z</time></trkpt><trkpt lat="45.7395165" lon="11.4636453"><ele>209.0</ele><time>2026-04-19T07:53:11.308Z</time></trkpt><trkpt lat="45.7396818" lon="11.4635512"><ele>209.0</ele><time>2026-04-19T07:53:12.3Z</time></trkpt><trkpt lat="45.7398486" lon="11.4634609"><ele>209.0</ele><time>2026-04-19T07:53:13.29Z</time></trkpt><trkpt lat="45.7400165" lon="11.4633701"><ele>209.0</ele><time>2026-04-19T07:53:14.295Z</time></trkpt><trkpt lat="45.740186" lon="11.4632808"><ele>210.33333333333334</ele><time>2026-04-19T07:53:15.305Z</time></trkpt><trkpt lat="45.7403565" lon="11.4631896"><ele>211.66666666666669</ele><time>2026-04-19T07:53:16.302Z</time></trkpt><trkpt lat="45.7405278" lon="11.4630989"><ele>213.0</ele><time>2026-04-19T07:53:17.321Z</time></trkpt><trkpt lat="45.7406977" lon="11.4630079"><ele>213.33333333333331</ele><time>2026-04-19T07:53:18.292Z</time></trkpt><trkpt lat="45.7408681" lon="11.462925"><ele>213.66666666666666</ele><time>2026-04-19T07:53:19.325Z</time></trkpt><trkpt lat="45.7410356" lon="11.4628329"><ele>214.0</ele><time>2026-04-19T07:53:20.294Z</time></trkpt><trkpt lat="45.7412035" lon="11.4627371"><ele>214.0</ele><time>2026-04-19T07:53:21.31Z</time></trkpt><trkpt lat="45.7413733" lon="11.4626497"><ele>214.0</ele><time>2026-04-19T07:53:22.306Z</time></trkpt><trkpt lat="45.7415428" lon="11.4625572"><ele>214.0</ele><time>2026-04-19T07:53:23.302Z</time></trkpt><trkpt lat="45.7417074" lon="11.4624453"><ele>214.0</ele><time>2026-04-19T07:53:24.291Z</time></trkpt><trkpt lat="45.7418708" lon="11.462321"><ele>214.0</ele><time>2026-04-19T07:53:25.302Z</time></trkpt><trkpt lat="45.7420233" lon="11.4621728"><ele>214.0</ele><time>2026-04-19T07:53:26.293Z</time></trkpt><trkpt lat="45.7421649" lon="11.4620008"><ele>213.33333333333331</ele><time>2026-04-19T07:53:27.299Z</time></trkpt><trkpt lat="45.7423076" lon="11.4618398"><ele>212.66666666666669</ele><time>2026-04-19T07:53:28.284Z</time></trkpt><trkpt lat="45.7424446" lon="11.461668"><ele>212.0</ele><time>2026-04-19T07:53:29.291Z</time></trkpt><trkpt lat="45.7425766" lon="11.46149"><ele>212.0</ele><time>2026-04-19T07:53:30.286Z</time></trkpt><trkpt lat="45.7427027" lon="11.4613065"><ele>212.0</ele><time>2026-04-19T07:53:31.299Z</time></trkpt><trkpt lat="45.7428277" lon="11.4611194"><ele>212.0</ele><time>2026-04-19T07:53:32.298Z</time></trkpt><trkpt lat="45.7429633" lon="11.4609517"><ele>212.33333333333334</ele><time>2026-04-19T07:53:33.283Z</time></trkpt><trkpt lat="45.7430889" lon="11.4607749"><ele>212.66666666666669</ele><time>2026-04-19T07:53:34.303Z</time></trkpt><trkpt lat="45.7432112" lon="11.4605968"><ele>213.0</ele><time>2026-04-19T07:53:35.292Z</time></trkpt><trkpt lat="45.7433402" lon="11.460433"><ele>213.0</ele><time>2026-04-19T07:53:36.302Z</time></trkpt><trkpt lat="45.743462" lon="11.4602654"><ele>213.0</ele><time>2026-04-19T07:53:37.31Z</time></trkpt><trkpt lat="45.7435808" lon="11.4601078"><ele>213.0</ele><time>2026-04-19T07:53:38.312Z</time></trkpt><trkpt lat="45.74369" lon="11.459945"><ele>213.66666666666669</ele><time>2026-04-19T07:53:39.321Z</time></trkpt><trkpt lat="45.7438046" lon="11.4597895"><ele>214.33333333333334</ele><time>2026-04-19T07:53:40.311Z</time></trkpt><trkpt lat="45.7439119" lon="11.4596311"><ele>215.0</ele><time>2026-04-19T07:53:41.306Z</time></trkpt><trkpt lat="45.7440202" lon="11.4594782"><ele>215.0</ele><time>2026-04-19T07:53:42.293Z</time></trkpt><trkpt lat="45.7441306" lon="11.4593333"><ele>215.0</ele><time>2026-04-19T07:53:43.305Z</time></trkpt><trkpt lat="45.7442412" lon="11.459192"><ele>215.0</ele><time>2026-04-19T07:53:44.294Z</time></trkpt><trkpt lat="45.7443615" lon="11.459074"><ele>215.0</ele><time>2026-04-19T07:53:45.3Z</time></trkpt><trkpt lat="45.7444813" lon="11.4589687"><ele>215.5</ele><time>2026-04-19T07:53:46.289Z</time></trkpt><trkpt lat="45.7445988" lon="11.4588768"><ele>216.0</ele><time>2026-04-19T07:53:47.29Z</time></trkpt><trkpt lat="45.7447051" lon="11.4587877"><ele>216.5</ele><time>2026-04-19T07:53:48.294Z</time></trkpt><trkpt lat="45.7448062" lon="11.4587128"><ele>217.0</ele><time>2026-04-19T07:53:49.29Z</time></trkpt><trkpt lat="45.7448996" lon="11.4586445"><ele>217.0</ele><time>2026-04-19T07:53:50.309Z</time></trkpt><trkpt lat="45.7449921" lon="11.4585797"><ele>217.0</ele><time>2026-04-19T07:53:51.301Z</time></trkpt><trkpt lat="45.745097" lon="11.4585772"><ele>217.0</ele><time>2026-04-19T07:53:52.291Z</time></trkpt><trkpt lat="45.7451853" lon="11.4585134"><ele>217.0</ele><time>2026-04-19T07:53:53.297Z</time></trkpt><trkpt lat="45.745252" lon="11.4584284"><ele>217.0</ele><time>2026-04-19T07:53:54.288Z</time></trkpt><trkpt lat="45.7452871" lon="11.4583165"><ele>217.39999999999998</ele><time>2026-04-19T07:53:55.311Z</time></trkpt><trkpt lat="45.7452929" lon="11.4581816"><ele>217.79999999999998</ele><time>2026-04-19T07:53:56.297Z</time></trkpt><trkpt lat="45.7453214" lon="11.4580465"><ele>218.2</ele><time>2026-04-19T07:53:57.304Z</time></trkpt><trkpt lat="45.7453971" lon="11.4579303"><ele>218.6</ele><time>2026-04-19T07:53:58.3Z</time></trkpt><trkpt lat="45.7455003" lon="11.457821"><ele>219.0</ele><time>2026-04-19T07:53:59.287Z</time></trkpt><trkpt lat="45.7456358" lon="11.4577149"><ele>219.0</ele><time>2026-04-19T07:54:00.3Z</time></trkpt><trkpt lat="45.7457821" lon="11.4576033"><ele>219.0</ele><time>2026-04-19T07:54:01.29Z</time></trkpt><trkpt lat="45.7459182" lon="11.4574872"><ele>219.0</ele><time>2026-04-19T07:54:02.296Z</time></trkpt><trkpt lat="45.7460446" lon="11.4573746"><ele>219.25</ele><time>2026-04-19T07:54:03.291Z</time></trkpt><trkpt lat="45.7461673" lon="11.4572838"><ele>219.5</ele><time>2026-04-19T07:54:04.29Z</time></trkpt><trkpt lat="45.7462736" lon="11.4571804"><ele>219.75</ele><time>2026-04-19T07:54:05.311Z</time></trkpt><trkpt lat="45.746379" lon="11.457104"><ele>220.0</ele><time>2026-04-19T07:54:06.312Z</time></trkpt><trkpt lat="45.7464713" lon="11.4570374"><ele>220.0</ele><time>2026-04-19T07:54:07.3Z</time></trkpt><trkpt lat="45.7465612" lon="11.4570061"><ele>220.0</ele><time>2026-04-19T07:54:08.289Z</time></trkpt><trkpt lat="45.7466473" lon="11.4569629"><ele>220.0</ele><time>2026-04-19T07:54:10.28Z</time></trkpt><trkpt lat="45.7467356" lon="11.4569992"><ele>220.0</ele><time>2026-04-19T07:54:14.289Z</time></trkpt><trkpt lat="45.7468544" lon="11.4569702"><ele>220.0</ele><time>2026-04-19T07:54:16.282Z</time></trkpt><trkpt lat="45.7469237" lon="11.4569064"><ele>220.0</ele><time>2026-04-19T07:54:17.301Z</time></trkpt><trkpt lat="45.746994" lon="11.4568195"><ele>220.0</ele><time>2026-04-19T07:54:18.304Z</time></trkpt><trkpt lat="45.7470769" lon="11.4567391"><ele>220.0</ele><time>2026-04-19T07:54:19.294Z</time></trkpt><trkpt lat="45.7471852" lon="11.4566754"><ele>220.0</ele><time>2026-04-19T07:54:20.292Z</time></trkpt><trkpt lat="45.7473191" lon="11.4566319"><ele>220.0</ele><time>2026-04-19T07:54:21.303Z</time></trkpt><trkpt lat="45.7474707" lon="11.4566006"><ele>220.0</ele><time>2026-04-19T07:54:22.295Z</time></trkpt><trkpt lat="45.7476249" lon="11.4565846"><ele>220.0</ele><time>2026-04-19T07:54:23.292Z</time></trkpt><trkpt lat="45.7477753" lon="11.4565764"><ele>220.0</ele><time>2026-04-19T07:54:24.284Z</time></trkpt><trkpt lat="45.7479261" lon="11.4565777"><ele>220.75</ele><time>2026-04-19T07:54:25.305Z</time></trkpt><trkpt lat="45.748075" lon="11.4565923"><ele>221.5</ele><time>2026-04-19T07:54:26.291Z</time></trkpt><trkpt lat="45.7482235" lon="11.4566031"><ele>222.25</ele><time>2026-04-19T07:54:27.286Z</time></trkpt><trkpt lat="45.7483698" lon="11.4566169"><ele>223.0</ele><time>2026-04-19T07:54:28.291Z</time></trkpt><trkpt lat="45.7485143" lon="11.4566257"><ele>223.25</ele><time>2026-04-19T07:54:29.293Z</time></trkpt><trkpt lat="45.74866" lon="11.4566328"><ele>223.5</ele><time>2026-04-19T07:54:30.289Z</time></trkpt><trkpt lat="45.7488059" lon="11.4566472"><ele>223.75</ele><time>2026-04-19T07:54:31.31Z</time></trkpt><trkpt lat="45.7489539" lon="11.4566647"><ele>224.0</ele><time>2026-04-19T07:54:32.297Z</time></trkpt><trkpt lat="45.7491034" lon="11.4566828"><ele>224.0</ele><time>2026-04-19T07:54:33.302Z</time></trkpt><trkpt lat="45.749253" lon="11.456701"><ele>224.0</ele><time>2026-04-19T07:54:34.312Z</time></trkpt><trkpt lat="45.749403" lon="11.4567213"><ele>224.0</ele><time>2026-04-19T07:54:35.301Z</time></trkpt><trkpt lat="45.7495526" lon="11.456733"><ele>224.33333333333334</ele><time>2026-04-19T07:54:36.291Z</time></trkpt><trkpt lat="45.7497008" lon="11.4567484"><ele>224.66666666666669</ele><time>2026-04-19T07:54:37.297Z</time></trkpt><trkpt lat="45.7498506" lon="11.4567646"><ele>225.0</ele><time>2026-04-19T07:54:38.296Z</time></trkpt><trkpt lat="45.7500034" lon="11.4567879"><ele>225.0</ele><time>2026-04-19T07:54:39.296Z</time></trkpt><trkpt lat="45.7501597" lon="11.456807"><ele>225.0</ele><time>2026-04-19T07:54:40.297Z</time></trkpt><trkpt lat="45.7503183" lon="11.456821"><ele>225.0</ele><time>2026-04-19T07:54:41.3Z</time></trkpt><trkpt lat="45.7504729" lon="11.4568156"><ele>225.66666666666669</ele><time>2026-04-19T07:54:42.291Z</time></trkpt><trkpt lat="45.7506231" lon="11.4568372"><ele>226.33333333333334</ele><time>2026-04-19T07:54:43.287Z</time></trkpt><trkpt lat="45.7507724" lon="11.4568671"><ele>227.0</ele><time>2026-04-19T07:54:44.288Z</time></trkpt><trkpt lat="45.7509221" lon="11.4569017"><ele>226.66666666666669</ele><time>2026-04-19T07:54:45.297Z</time></trkpt><trkpt lat="45.7510737" lon="11.4569512"><ele>226.33333333333331</ele><time>2026-04-19T07:54:46.301Z</time></trkpt><trkpt lat="45.7512248" lon="11.4569998"><ele>226.0</ele><time>2026-04-19T07:54:47.297Z</time></trkpt><trkpt lat="45.7513783" lon="11.4570463"><ele>226.0</ele><time>2026-04-19T07:54:48.287Z</time></trkpt><trkpt lat="45.7515304" lon="11.4571055"><ele>226.0</ele><time>2026-04-19T07:54:49.298Z</time></trkpt><trkpt lat="45.7516844" lon="11.4571686"><ele>226.0</ele><time>2026-04-19T07:54:50.298Z</time></trkpt><trkpt lat="45.7518389" lon="11.4572226"><ele>226.0</ele><time>2026-04-19T07:54:51.308Z</time></trkpt><trkpt lat="45.7519974" lon="11.4572654"><ele>226.0</ele><time>2026-04-19T07:54:52.309Z</time></trkpt><trkpt lat="45.7521529" lon="11.457328"><ele>226.0</ele><time>2026-04-19T07:54:53.292Z</time></trkpt><trkpt lat="45.752308" lon="11.4573693"><ele>226.0</ele><time>2026-04-19T07:54:54.297Z</time></trkpt><trkpt lat="45.7524575" lon="11.4574403"><ele>226.0</ele><time>2026-04-19T07:54:55.29Z</time></trkpt><trkpt lat="45.7526117" lon="11.4574886"><ele>226.0</ele><time>2026-04-19T07:54:56.291Z</time></trkpt><trkpt lat="45.7527651" lon="11.4575314"><ele>226.5</ele><time>2026-04-19T07:54:57.311Z</time></trkpt><trkpt lat="45.7529147" lon="11.4575686"><ele>227.0</ele><time>2026-04-19T07:54:58.292Z</time></trkpt><trkpt lat="45.7530612" lon="11.4575957"><ele>227.5</ele><time>2026-04-19T07:54:59.318Z</time></trkpt><trkpt lat="45.7532025" lon="11.4576353"><ele>228.0</ele><time>2026-04-19T07:55:00.313Z</time></trkpt><trkpt lat="45.7533424" lon="11.4576563"><ele>228.0</ele><time>2026-04-19T07:55:01.307Z</time></trkpt><trkpt lat="45.753476" lon="11.4576844"><ele>228.0</ele><time>2026-04-19T07:55:02.292Z</time></trkpt><trkpt lat="45.7536063" lon="11.4577207"><ele>228.0</ele><time>2026-04-19T07:55:03.295Z</time></trkpt><trkpt lat="45.7537325" lon="11.4577468"><ele>228.0</ele><time>2026-04-19T07:55:04.29Z</time></trkpt><trkpt lat="45.7538543" lon="11.4577737"><ele>228.5</ele><time>2026-04-19T07:55:05.293Z</time></trkpt><trkpt lat="45.7539769" lon="11.4577963"><ele>229.0</ele><time>2026-04-19T07:55:06.283Z</time></trkpt><trkpt lat="45.7541025" lon="11.4578141"><ele>229.5</ele><time>2026-04-19T07:55:07.288Z</time></trkpt><trkpt lat="45.7542292" lon="11.4578463"><ele>230.0</ele><time>2026-04-19T07:55:08.278Z</time></trkpt><trkpt lat="45.7543576" lon="11.4578616"><ele>230.75</ele><time>2026-04-19T07:55:09.298Z</time></trkpt><trkpt lat="45.7544852" lon="11.4578868"><ele>231.5</ele><time>2026-04-19T07:55:10.291Z</time></trkpt><trkpt lat="45.7546084" lon="11.4578933"><ele>232.25</ele><time>2026-04-19T07:55:11.293Z</time></trkpt><trkpt lat="45.7547239" lon="11.4579111"><ele>233.0</ele><time>2026-04-19T07:55:12.283Z</time></trkpt><trkpt lat="45.7548281" lon="11.4579372"><ele>232.8</ele><time>2026-04-19T07:55:13.296Z</time></trkpt><trkpt lat="45.754922" lon="11.4579731"><ele>232.60000000000002</ele><time>2026-04-19T07:55:14.282Z</time></trkpt><trkpt lat="45.7550061" lon="11.4580274"><ele>232.39999999999998</ele><time>2026-04-19T07:55:15.297Z</time></trkpt><trkpt lat="45.755091" lon="11.4580683"><ele>232.2</ele><time>2026-04-19T07:55:16.288Z</time></trkpt><trkpt lat="45.7551883" lon="11.4580619"><ele>232.0</ele><time>2026-04-19T07:55:17.282Z</time></trkpt><trkpt lat="45.7552939" lon="11.4580424"><ele>232.75</ele><time>2026-04-19T07:55:18.284Z</time></trkpt><trkpt lat="45.7554149" lon="11.4580109"><ele>233.5</ele><time>2026-04-19T07:55:19.293Z</time></trkpt><trkpt lat="45.7555568" lon="11.4580367"><ele>234.25</ele><time>2026-04-19T07:55:20.287Z</time></trkpt><trkpt lat="45.7557039" lon="11.4580767"><ele>235.0</ele><time>2026-04-19T07:55:21.288Z</time></trkpt><trkpt lat="45.7558537" lon="11.4580945"><ele>235.0</ele><time>2026-04-19T07:55:22.306Z</time></trkpt><trkpt lat="45.7560081" lon="11.4581101"><ele>235.0</ele><time>2026-04-19T07:55:23.283Z</time></trkpt><trkpt lat="45.7561691" lon="11.4581335"><ele>235.0</ele><time>2026-04-19T07:55:24.282Z</time></trkpt><trkpt lat="45.7563348" lon="11.4581527"><ele>235.0</ele><time>2026-04-19T07:55:25.291Z</time></trkpt><trkpt lat="45.7565012" lon="11.4581745"><ele>235.0</ele><time>2026-04-19T07:55:26.285Z</time></trkpt><trkpt lat="45.7566673" lon="11.4581894"><ele>235.0</ele><time>2026-04-19T07:55:27.291Z</time></trkpt><trkpt lat="45.7568309" lon="11.458199"><ele>235.0</ele><time>2026-04-19T07:55:28.312Z</time></trkpt><trkpt lat="45.756989" lon="11.4582091"><ele>235.0</ele><time>2026-04-19T07:55:29.326Z</time></trkpt><trkpt lat="45.7571445" lon="11.4582144"><ele>235.0</ele><time>2026-04-19T07:55:30.299Z</time></trkpt><trkpt lat="45.7572967" lon="11.4582205"><ele>235.0</ele><time>2026-04-19T07:55:31.3Z</time></trkpt><trkpt lat="45.7574493" lon="11.4582277"><ele>235.0</ele><time>2026-04-19T07:55:32.285Z</time></trkpt><trkpt lat="45.7576057" lon="11.4582472"><ele>235.0</ele><time>2026-04-19T07:55:33.305Z</time></trkpt><trkpt lat="45.7577657" lon="11.4582675"><ele>235.33333333333331</ele><time>2026-04-19T07:55:34.298Z</time></trkpt><trkpt lat="45.7579269" lon="11.4582755"><ele>235.66666666666669</ele><time>2026-04-19T07:55:35.295Z</time></trkpt><trkpt lat="45.7580892" lon="11.4582899"><ele>236.0</ele><time>2026-04-19T07:55:36.289Z</time></trkpt><trkpt lat="45.7582527" lon="11.4582922"><ele>236.0</ele><time>2026-04-19T07:55:37.297Z</time></trkpt><trkpt lat="45.7584172" lon="11.4582949"><ele>236.0</ele><time>2026-04-19T07:55:38.291Z</time></trkpt><trkpt lat="45.7585803" lon="11.4582922"><ele>236.0</ele><time>2026-04-19T07:55:39.295Z</time></trkpt><trkpt lat="45.7587438" lon="11.4583007"><ele>237.0</ele><time>2026-04-19T07:55:40.308Z</time></trkpt><trkpt lat="45.7589058" lon="11.4583062"><ele>238.0</ele><time>2026-04-19T07:55:41.29Z</time></trkpt><trkpt lat="45.759063" lon="11.4582971"><ele>239.0</ele><time>2026-04-19T07:55:42.296Z</time></trkpt><trkpt lat="45.7592158" lon="11.458304"><ele>239.0</ele><time>2026-04-19T07:55:43.299Z</time></trkpt><trkpt lat="45.7593641" lon="11.4583112"><ele>239.0</ele><time>2026-04-19T07:55:44.286Z</time></trkpt><trkpt lat="45.7595086" lon="11.4583129"><ele>239.0</ele><time>2026-04-19T07:55:45.289Z</time></trkpt><trkpt lat="45.7596476" lon="11.458315"><ele>239.0</ele><time>2026-04-19T07:55:46.311Z</time></trkpt><trkpt lat="45.7597805" lon="11.458302"><ele>239.5</ele><time>2026-04-19T07:55:47.287Z</time></trkpt><trkpt lat="45.75991" lon="11.4582918"><ele>240.0</ele><time>2026-04-19T07:55:48.32Z</time></trkpt><trkpt lat="45.7600351" lon="11.4582883"><ele>240.5</ele><time>2026-04-19T07:55:49.316Z</time></trkpt><trkpt lat="45.7601573" lon="11.4582801"><ele>241.0</ele><time>2026-04-19T07:55:50.28Z</time></trkpt><trkpt lat="45.7602758" lon="11.4582779"><ele>241.0</ele><time>2026-04-19T07:55:51.301Z</time></trkpt><trkpt lat="45.7603894" lon="11.45829"><ele>241.00000000000003</ele><time>2026-04-19T07:55:52.286Z</time></trkpt><trkpt lat="45.7604978" lon="11.4582869"><ele>241.00000000000003</ele><time>2026-04-19T07:55:53.292Z</time></trkpt><trkpt lat="45.760602" lon="11.4582839"><ele>241.0</ele><time>2026-04-19T07:55:54.285Z</time></trkpt><trkpt lat="45.7607031" lon="11.458276"><ele>241.0</ele><time>2026-04-19T07:55:55.293Z</time></trkpt><trkpt lat="45.7607948" lon="11.4582866"><ele>240.99999999999997</ele><time>2026-04-19T07:55:56.304Z</time></trkpt><trkpt lat="45.7608777" lon="11.4582896"><ele>241.0</ele><time>2026-04-19T07:55:57.302Z</time></trkpt><trkpt lat="45.760956" lon="11.4582892"><ele>241.0</ele><time>2026-04-19T07:55:58.297Z</time></trkpt><trkpt lat="45.76104" lon="11.4583007"><ele>241.0</ele><time>2026-04-19T07:55:59.291Z</time></trkpt><trkpt lat="45.7611362" lon="11.4583138"><ele>240.99999999999997</ele><time>2026-04-19T07:56:00.294Z</time></trkpt><trkpt lat="45.7612419" lon="11.4582985"><ele>241.0</ele><time>2026-04-19T07:56:01.3Z</time></trkpt><trkpt lat="45.7613498" lon="11.4582706"><ele>241.0</ele><time>2026-04-19T07:56:02.289Z</time></trkpt><trkpt lat="45.7614642" lon="11.458253"><ele>241.0</ele><time>2026-04-19T07:56:03.299Z</time></trkpt><trkpt lat="45.7615852" lon="11.4582517"><ele>241.0</ele><time>2026-04-19T07:56:04.292Z</time></trkpt><trkpt lat="45.7617069" lon="11.4582578"><ele>241.0</ele><time>2026-04-19T07:56:05.303Z</time></trkpt><trkpt lat="45.7618302" lon="11.4582568"><ele>241.5</ele><time>2026-04-19T07:56:06.294Z</time></trkpt><trkpt lat="45.7619555" lon="11.458254"><ele>242.0</ele><time>2026-04-19T07:56:07.303Z</time></trkpt><trkpt lat="45.7620819" lon="11.458243"><ele>242.5</ele><time>2026-04-19T07:56:08.303Z</time></trkpt><trkpt lat="45.7622166" lon="11.4582294"><ele>243.0</ele><time>2026-04-19T07:56:09.302Z</time></trkpt><trkpt lat="45.7623626" lon="11.4582293"><ele>243.0</ele><time>2026-04-19T07:56:10.302Z</time></trkpt><trkpt lat="45.762514" lon="11.4582264"><ele>243.0</ele><time>2026-04-19T07:56:11.29Z</time></trkpt><trkpt lat="45.7626672" lon="11.4582232"><ele>243.0</ele><time>2026-04-19T07:56:12.318Z</time></trkpt><trkpt lat="45.7628187" lon="11.4582263"><ele>243.33333333333331</ele><time>2026-04-19T07:56:13.311Z</time></trkpt><trkpt lat="45.7629728" lon="11.4582196"><ele>243.66666666666666</ele><time>2026-04-19T07:56:14.29Z</time></trkpt><trkpt lat="45.7631288" lon="11.4582269"><ele>244.0</ele><time>2026-04-19T07:56:15.309Z</time></trkpt><trkpt lat="45.763285" lon="11.4582336"><ele>244.0</ele><time>2026-04-19T07:56:16.31Z</time></trkpt><trkpt lat="45.7634422" lon="11.4582503"><ele>244.0</ele><time>2026-04-19T07:56:17.308Z</time></trkpt><trkpt lat="45.7635981" lon="11.4582654"><ele>244.0</ele><time>2026-04-19T07:56:18.311Z</time></trkpt><trkpt lat="45.7637508" lon="11.4582773"><ele>244.25</ele><time>2026-04-19T07:56:19.31Z</time></trkpt><trkpt lat="45.7639008" lon="11.458288"><ele>244.5</ele><time>2026-04-19T07:56:20.306Z</time></trkpt><trkpt lat="45.7640495" lon="11.4582965"><ele>244.75</ele><time>2026-04-19T07:56:21.31Z</time></trkpt><trkpt lat="45.7641985" lon="11.4583133"><ele>245.0</ele><time>2026-04-19T07:56:22.297Z</time></trkpt><trkpt lat="45.7643468" lon="11.4583106"><ele>245.0</ele><time>2026-04-19T07:56:23.3Z</time></trkpt><trkpt lat="45.7644916" lon="11.4583158"><ele>245.0</ele><time>2026-04-19T07:56:24.305Z</time></trkpt><trkpt lat="45.7646342" lon="11.4583325"><ele>245.0</ele><time>2026-04-19T07:56:25.318Z</time></trkpt><trkpt lat="45.7647719" lon="11.458353"><ele>245.0</ele><time>2026-04-19T07:56:26.292Z</time></trkpt><trkpt lat="45.7649082" lon="11.4583514"><ele>245.0</ele><time>2026-04-19T07:56:27.309Z</time></trkpt><trkpt lat="45.7650445" lon="11.4583625"><ele>245.0</ele><time>2026-04-19T07:56:28.293Z</time></trkpt><trkpt lat="45.7651808" lon="11.4583784"><ele>245.0</ele><time>2026-04-19T07:56:29.317Z</time></trkpt><trkpt lat="45.7653166" lon="11.4583985"><ele>245.0</ele><time>2026-04-19T07:56:30.297Z</time></trkpt><trkpt lat="45.7654506" lon="11.4584"><ele>245.25</ele><time>2026-04-19T07:56:31.32Z</time></trkpt><trkpt lat="45.765582" lon="11.4584158"><ele>245.5</ele><time>2026-04-19T07:56:32.307Z</time></trkpt><trkpt lat="45.76571" lon="11.4584252"><ele>245.75</ele><time>2026-04-19T07:56:33.299Z</time></trkpt><trkpt lat="45.765834" lon="11.4584496"><ele>246.0</ele><time>2026-04-19T07:56:34.294Z</time></trkpt><trkpt lat="45.7659555" lon="11.4584624"><ele>246.20000000000002</ele><time>2026-04-19T07:56:35.292Z</time></trkpt><trkpt lat="45.7660688" lon="11.4584909"><ele>246.40000000000003</ele><time>2026-04-19T07:56:36.302Z</time></trkpt><trkpt lat="45.766171" lon="11.4585206"><ele>246.6</ele><time>2026-04-19T07:56:37.319Z</time></trkpt><trkpt lat="45.7662668" lon="11.45854"><ele>246.8</ele><time>2026-04-19T07:56:38.287Z</time></trkpt><trkpt lat="45.766354" lon="11.4585566"><ele>247.0</ele><time>2026-04-19T07:56:39.303Z</time></trkpt><trkpt lat="45.7664275" lon="11.458569"><ele>247.0</ele><time>2026-04-19T07:56:40.29Z</time></trkpt><trkpt lat="45.7665031" lon="11.4585859"><ele>247.0</ele><time>2026-04-19T07:56:42.285Z</time></trkpt><trkpt lat="45.766594" lon="11.4586241"><ele>247.0</ele><time>2026-04-19T07:56:45.307Z</time></trkpt><trkpt lat="45.7666938" lon="11.4586366"><ele>247.0</ele><time>2026-04-19T07:56:46.299Z</time></trkpt><trkpt lat="45.7668194" lon="11.4586459"><ele>247.0</ele><time>2026-04-19T07:56:47.293Z</time></trkpt><trkpt lat="45.766934" lon="11.4586345"><ele>246.33333333333331</ele><time>2026-04-19T07:56:48.284Z</time></trkpt><trkpt lat="45.7670318" lon="11.4586087"><ele>245.66666666666666</ele><time>2026-04-19T07:56:49.285Z</time></trkpt><trkpt lat="45.7671214" lon="11.4585947"><ele>245.0</ele><time>2026-04-19T07:56:50.284Z</time></trkpt><trkpt lat="45.7672004" lon="11.4585595"><ele>244.33333333333331</ele><time>2026-04-19T07:56:51.289Z</time></trkpt><trkpt lat="45.767276" lon="11.4585176"><ele>243.66666666666666</ele><time>2026-04-19T07:56:52.289Z</time></trkpt><trkpt lat="45.7673485" lon="11.458469"><ele>243.0</ele><time>2026-04-19T07:56:53.305Z</time></trkpt><trkpt lat="45.7674118" lon="11.4583982"><ele>243.0</ele><time>2026-04-19T07:56:54.306Z</time></trkpt><trkpt lat="45.7674665" lon="11.4583121"><ele>243.0</ele><time>2026-04-19T07:56:55.284Z</time></trkpt><trkpt lat="45.7675136" lon="11.4582165"><ele>243.0</ele><time>2026-04-19T07:56:56.288Z</time></trkpt><trkpt lat="45.7675454" lon="11.4581081"><ele>243.0</ele><time>2026-04-19T07:56:57.292Z</time></trkpt><trkpt lat="45.7675685" lon="11.4580012"><ele>243.0</ele><time>2026-04-19T07:56:58.303Z</time></trkpt><trkpt lat="45.7675832" lon="11.4578964"><ele>243.0</ele><time>2026-04-19T07:56:59.312Z</time></trkpt><trkpt lat="45.7676058" lon="11.4578081"><ele>242.66666666666666</ele><time>2026-04-19T07:57:00.285Z</time></trkpt><trkpt lat="45.7676368" lon="11.4577258"><ele>242.33333333333331</ele><time>2026-04-19T07:57:01.289Z</time></trkpt><trkpt lat="45.7676813" lon="11.4576514"><ele>242.0</ele><time>2026-04-19T07:57:02.307Z</time></trkpt><trkpt lat="45.7677231" lon="11.457573"><ele>241.66666666666666</ele><time>2026-04-19T07:57:03.313Z</time></trkpt><trkpt lat="45.7677687" lon="11.4575041"><ele>241.33333333333331</ele><time>2026-04-19T07:57:04.287Z</time></trkpt><trkpt lat="45.7678446" lon="11.4573752"><ele>241.0</ele><time>2026-04-19T07:57:06.297Z</time></trkpt><trkpt lat="45.7679311" lon="11.4572659"><ele>240.0</ele><time>2026-04-19T07:57:08.299Z</time></trkpt><trkpt lat="45.7679951" lon="11.4572374"><ele>239.00000000000003</ele><time>2026-04-19T07:57:09.302Z</time></trkpt><trkpt lat="45.7680703" lon="11.4572269"><ele>238.00000000000003</ele><time>2026-04-19T07:57:10.309Z</time></trkpt><trkpt lat="45.7681594" lon="11.4572312"><ele>237.0</ele><time>2026-04-19T07:57:11.294Z</time></trkpt><trkpt lat="45.7682653" lon="11.4572666"><ele>236.0</ele><time>2026-04-19T07:57:12.286Z</time></trkpt><trkpt lat="45.7683877" lon="11.4573137"><ele>236.0</ele><time>2026-04-19T07:57:13.297Z</time></trkpt><trkpt lat="45.7685216" lon="11.4573893"><ele>236.0</ele><time>2026-04-19T07:57:14.299Z</time></trkpt><trkpt lat="45.7686642" lon="11.4574672"><ele>236.0</ele><time>2026-04-19T07:57:15.323Z</time></trkpt><trkpt lat="45.7688083" lon="11.4575435"><ele>233.0</ele><time>2026-04-19T07:57:16.286Z</time></trkpt><trkpt lat="45.7689532" lon="11.4576217"><ele>230.0</ele><time>2026-04-19T07:57:17.284Z</time></trkpt><trkpt lat="45.7691094" lon="11.4576602"><ele>227.0</ele><time>2026-04-19T07:57:18.285Z</time></trkpt><trkpt lat="45.7692661" lon="11.4576708"><ele>222.66666666666669</ele><time>2026-04-19T07:57:19.298Z</time></trkpt><trkpt lat="45.7694245" lon="11.4576417"><ele>218.33333333333331</ele><time>2026-04-19T07:57:20.284Z</time></trkpt><trkpt lat="45.7695823" lon="11.4575611"><ele>214.0</ele><time>2026-04-19T07:57:21.286Z</time></trkpt><trkpt lat="45.7697334" lon="11.4574252"><ele>214.0</ele><time>2026-04-19T07:57:22.289Z</time></trkpt><trkpt lat="45.769867" lon="11.4572314"><ele>214.0</ele><time>2026-04-19T07:57:23.302Z</time></trkpt><trkpt lat="45.769985" lon="11.4570323"><ele>214.0</ele><time>2026-04-19T07:57:24.299Z</time></trkpt><trkpt lat="45.7700893" lon="11.4568325"><ele>214.0</ele><time>2026-04-19T07:57:25.302Z</time></trkpt><trkpt lat="45.7701913" lon="11.4566416"><ele>214.0</ele><time>2026-04-19T07:57:26.291Z</time></trkpt><trkpt lat="45.7702914" lon="11.4564597"><ele>214.0</ele><time>2026-04-19T07:57:27.306Z</time></trkpt><trkpt lat="45.7703845" lon="11.4562803"><ele>217.75</ele><time>2026-04-19T07:57:28.297Z</time></trkpt><trkpt lat="45.7704721" lon="11.4560986"><ele>221.5</ele><time>2026-04-19T07:57:29.302Z</time></trkpt><trkpt lat="45.7705636" lon="11.4559319"><ele>225.25</ele><time>2026-04-19T07:57:30.289Z</time></trkpt><trkpt lat="45.7706507" lon="11.4557685"><ele>229.0</ele><time>2026-04-19T07:57:31.291Z</time></trkpt><trkpt lat="45.7707248" lon="11.4555992"><ele>230.25</ele><time>2026-04-19T07:57:32.304Z</time></trkpt><trkpt lat="45.7707838" lon="11.4554189"><ele>231.5</ele><time>2026-04-19T07:57:33.295Z</time></trkpt><trkpt lat="45.7708319" lon="11.4552299"><ele>232.75</ele><time>2026-04-19T07:57:34.294Z</time></trkpt><trkpt lat="45.7708336" lon="11.4550173"><ele>234.0</ele><time>2026-04-19T07:57:35.305Z</time></trkpt><trkpt lat="45.7707959" lon="11.4547958"><ele>235.33333333333331</ele><time>2026-04-19T07:57:36.308Z</time></trkpt><trkpt lat="45.770757" lon="11.4545698"><ele>236.66666666666666</ele><time>2026-04-19T07:57:37.294Z</time></trkpt><trkpt lat="45.7707143" lon="11.4543368"><ele>238.0</ele><time>2026-04-19T07:57:38.309Z</time></trkpt><trkpt lat="45.7706856" lon="11.4541009"><ele>238.0</ele><time>2026-04-19T07:57:39.294Z</time></trkpt><trkpt lat="45.7706721" lon="11.4538645"><ele>238.0</ele><time>2026-04-19T07:57:40.301Z</time></trkpt><trkpt lat="45.7706987" lon="11.4536298"><ele>238.0</ele><time>2026-04-19T07:57:41.297Z</time></trkpt><trkpt lat="45.7707555" lon="11.4534133"><ele>238.66666666666666</ele><time>2026-04-19T07:57:42.287Z</time></trkpt><trkpt lat="45.7708378" lon="11.453224"><ele>239.33333333333331</ele><time>2026-04-19T07:57:43.31Z</time></trkpt><trkpt lat="45.7709475" lon="11.4530674"><ele>240.0</ele><time>2026-04-19T07:57:44.291Z</time></trkpt><trkpt lat="45.7710641" lon="11.4529314"><ele>240.0</ele><time>2026-04-19T07:57:45.298Z</time></trkpt><trkpt lat="45.771199" lon="11.4528289"><ele>240.0</ele><time>2026-04-19T07:57:46.288Z</time></trkpt><trkpt lat="45.7713437" lon="11.4527488"><ele>240.0</ele><time>2026-04-19T07:57:47.296Z</time></trkpt><trkpt lat="45.7714962" lon="11.4526831"><ele>240.0</ele><time>2026-04-19T07:57:48.308Z</time></trkpt><trkpt lat="45.7716573" lon="11.452624"><ele>240.0</ele><time>2026-04-19T07:57:49.309Z</time></trkpt><trkpt lat="45.7718302" lon="11.452555"><ele>240.0</ele><time>2026-04-19T07:57:50.322Z</time></trkpt><trkpt lat="45.7720101" lon="11.4524828"><ele>243.33333333333331</ele><time>2026-04-19T07:57:51.29Z</time></trkpt><trkpt lat="45.7721875" lon="11.4524296"><ele>246.66666666666666</ele><time>2026-04-19T07:57:52.311Z</time></trkpt><trkpt lat="45.7723516" lon="11.4523582"><ele>250.0</ele><time>2026-04-19T07:57:53.293Z</time></trkpt><trkpt lat="45.7725002" lon="11.4522504"><ele>250.0</ele><time>2026-04-19T07:57:54.306Z</time></trkpt><trkpt lat="45.7726393" lon="11.452128"><ele>250.0</ele><time>2026-04-19T07:57:55.292Z</time></trkpt><trkpt lat="45.7727742" lon="11.4519956"><ele>250.0</ele><time>2026-04-19T07:57:56.289Z</time></trkpt><trkpt lat="45.7729041" lon="11.4518474"><ele>253.0</ele><time>2026-04-19T07:57:57.307Z</time></trkpt><trkpt lat="45.7730356" lon="11.451693"><ele>256.0</ele><time>2026-04-19T07:57:58.3Z</time></trkpt><trkpt lat="45.7731687" lon="11.4515328"><ele>259.0</ele><time>2026-04-19T07:57:59.307Z</time></trkpt><trkpt lat="45.773302" lon="11.451367"><ele>259.3333333333333</ele><time>2026-04-19T07:58:00.295Z</time></trkpt><trkpt lat="45.7734372" lon="11.4512011"><ele>259.6666666666667</ele><time>2026-04-19T07:58:01.294Z</time></trkpt><trkpt lat="45.7735692" lon="11.4510331"><ele>260.0</ele><time>2026-04-19T07:58:02.293Z</time></trkpt><trkpt lat="45.7736987" lon="11.4508666"><ele>260.33333333333337</ele><time>2026-04-19T07:58:03.293Z</time></trkpt><trkpt lat="45.7738296" lon="11.4507034"><ele>260.6666666666667</ele><time>2026-04-19T07:58:04.286Z</time></trkpt><trkpt lat="45.7739632" lon="11.4505393"><ele>261.0</ele><time>2026-04-19T07:58:05.296Z</time></trkpt><trkpt lat="45.7741016" lon="11.4503704"><ele>261.3333333333333</ele><time>2026-04-19T07:58:06.305Z</time></trkpt><trkpt lat="45.774242" lon="11.450202"><ele>261.66666666666663</ele><time>2026-04-19T07:58:07.282Z</time></trkpt><trkpt lat="45.7743771" lon="11.4500395"><ele>262.0</ele><time>2026-04-19T07:58:08.31Z</time></trkpt><trkpt lat="45.7745131" lon="11.4499019"><ele>262.75</ele><time>2026-04-19T07:58:09.295Z</time></trkpt><trkpt lat="45.774635" lon="11.4497703"><ele>263.5</ele><time>2026-04-19T07:58:10.288Z</time></trkpt><trkpt lat="45.7747434" lon="11.4496466"><ele>264.25</ele><time>2026-04-19T07:58:11.299Z</time></trkpt><trkpt lat="45.7748621" lon="11.4495845"><ele>265.0</ele><time>2026-04-19T07:58:12.281Z</time></trkpt><trkpt lat="45.7749669" lon="11.4495307"><ele>265.0</ele><time>2026-04-19T07:58:13.284Z</time></trkpt><trkpt lat="45.7750725" lon="11.4495664"><ele>265.0</ele><time>2026-04-19T07:58:14.281Z</time></trkpt><trkpt lat="45.7751581" lon="11.4496271"><ele>265.0</ele><time>2026-04-19T07:58:15.29Z</time></trkpt><trkpt lat="45.7752273" lon="11.4496999"><ele>265.0</ele><time>2026-04-19T07:58:16.281Z</time></trkpt><trkpt lat="45.7753084" lon="11.4497466"><ele>265.0</ele><time>2026-04-19T07:58:17.283Z</time></trkpt><trkpt lat="45.7753985" lon="11.4497665"><ele>266.0</ele><time>2026-04-19T07:58:18.279Z</time></trkpt><trkpt lat="45.775483" lon="11.4497301"><ele>267.0</ele><time>2026-04-19T07:58:19.298Z</time></trkpt><trkpt lat="45.7755495" lon="11.4496383"><ele>268.0</ele><time>2026-04-19T07:58:20.283Z</time></trkpt><trkpt lat="45.7755898" lon="11.449503"><ele>269.0</ele><time>2026-04-19T07:58:21.28Z</time></trkpt><trkpt lat="45.7756296" lon="11.4493454"><ele>270.0</ele><time>2026-04-19T07:58:22.277Z</time></trkpt><trkpt lat="45.7757139" lon="11.4491939"><ele>270.0</ele><time>2026-04-19T07:58:23.276Z</time></trkpt><trkpt lat="45.7758125" lon="11.4490405"><ele>270.0</ele><time>2026-04-19T07:58:24.279Z</time></trkpt><trkpt lat="45.7759048" lon="11.4488726"><ele>270.0</ele><time>2026-04-19T07:58:25.289Z</time></trkpt><trkpt lat="45.7759935" lon="11.4486995"><ele>270.0</ele><time>2026-04-19T07:58:26.295Z</time></trkpt><trkpt lat="45.7760833" lon="11.4485299"><ele>269.25</ele><time>2026-04-19T07:58:27.296Z</time></trkpt><trkpt lat="45.7761744" lon="11.4483667"><ele>268.5</ele><time>2026-04-19T07:58:28.264Z</time></trkpt><trkpt lat="45.7762666" lon="11.4482057"><ele>267.75</ele><time>2026-04-19T07:58:29.281Z</time></trkpt><trkpt lat="45.7763541" lon="11.4480476"><ele>267.0</ele><time>2026-04-19T07:58:30.268Z</time></trkpt><trkpt lat="45.7764353" lon="11.4478939"><ele>266.5</ele><time>2026-04-19T07:58:31.296Z</time></trkpt><trkpt lat="45.7765153" lon="11.4477487"><ele>266.0</ele><time>2026-04-19T07:58:32.284Z</time></trkpt><trkpt lat="45.7765923" lon="11.4476086"><ele>265.5</ele><time>2026-04-19T07:58:33.291Z</time></trkpt><trkpt lat="45.7766754" lon="11.4474759"><ele>265.0</ele><time>2026-04-19T07:58:34.283Z</time></trkpt><trkpt lat="45.7767599" lon="11.4473453"><ele>265.0</ele><time>2026-04-19T07:58:35.289Z</time></trkpt><trkpt lat="45.7768393" lon="11.4472035"><ele>265.0</ele><time>2026-04-19T07:58:36.296Z</time></trkpt><trkpt lat="45.7769142" lon="11.4470444"><ele>265.0</ele><time>2026-04-19T07:58:37.28Z</time></trkpt><trkpt lat="45.7769968" lon="11.4468883"><ele>265.0</ele><time>2026-04-19T07:58:38.287Z</time></trkpt><trkpt lat="45.7770824" lon="11.4467302"><ele>266.0</ele><time>2026-04-19T07:58:39.293Z</time></trkpt><trkpt lat="45.7771704" lon="11.4465713"><ele>267.0</ele><time>2026-04-19T07:58:40.286Z</time></trkpt><trkpt lat="45.7772634" lon="11.4464136"><ele>268.0</ele><time>2026-04-19T07:58:41.278Z</time></trkpt><trkpt lat="45.7773604" lon="11.4462519"><ele>269.0</ele><time>2026-04-19T07:58:42.283Z</time></trkpt><trkpt lat="45.7774506" lon="11.4460791"><ele>269.5</ele><time>2026-04-19T07:58:43.304Z</time></trkpt><trkpt lat="45.777543" lon="11.4459079"><ele>270.0</ele><time>2026-04-19T07:58:44.301Z</time></trkpt><trkpt lat="45.7776313" lon="11.4457354"><ele>270.5</ele><time>2026-04-19T07:58:45.282Z</time></trkpt><trkpt lat="45.7777211" lon="11.4455683"><ele>271.0</ele><time>2026-04-19T07:58:46.282Z</time></trkpt><trkpt lat="45.7778129" lon="11.4454098"><ele>272.25</ele><time>2026-04-19T07:58:47.281Z</time></trkpt><trkpt lat="45.7779001" lon="11.4452511"><ele>273.5</ele><time>2026-04-19T07:58:48.284Z</time></trkpt><trkpt lat="45.7779897" lon="11.4450955"><ele>274.75</ele><time>2026-04-19T07:58:49.29Z</time></trkpt><trkpt lat="45.7780709" lon="11.4449281"><ele>276.0</ele><time>2026-04-19T07:58:50.28Z</time></trkpt><trkpt lat="45.7781682" lon="11.4447817"><ele>275.75</ele><time>2026-04-19T07:58:51.287Z</time></trkpt><trkpt lat="45.7782556" lon="11.4446292"><ele>275.5</ele><time>2026-04-19T07:58:52.281Z</time></trkpt><trkpt lat="45.7783383" lon="11.444475"><ele>275.25</ele><time>2026-04-19T07:58:53.287Z</time></trkpt><trkpt lat="45.7784301" lon="11.4443285"><ele>275.0</ele><time>2026-04-19T07:58:54.286Z</time></trkpt><trkpt lat="45.7785132" lon="11.4441667"><ele>276.5</ele><time>2026-04-19T07:58:55.292Z</time></trkpt><trkpt lat="45.7786064" lon="11.4440087"><ele>278.0</ele><time>2026-04-19T07:58:56.293Z</time></trkpt><trkpt lat="45.7786944" lon="11.4438463"><ele>279.5</ele><time>2026-04-19T07:58:57.289Z</time></trkpt><trkpt lat="45.7787858" lon="11.4436985"><ele>281.0</ele><time>2026-04-19T07:58:58.296Z</time></trkpt><trkpt lat="45.7788717" lon="11.4435557"><ele>281.0</ele><time>2026-04-19T07:58:59.277Z</time></trkpt><trkpt lat="45.7789574" lon="11.4434237"><ele>281.0</ele><time>2026-04-19T07:59:00.293Z</time></trkpt><trkpt lat="45.7790405" lon="11.4432971"><ele>281.0</ele><time>2026-04-19T07:59:01.312Z</time></trkpt><trkpt lat="45.7791167" lon="11.4431594"><ele>281.0</ele><time>2026-04-19T07:59:02.297Z</time></trkpt><trkpt lat="45.7791872" lon="11.4430038"><ele>281.0</ele><time>2026-04-19T07:59:03.296Z</time></trkpt><trkpt lat="45.7792685" lon="11.4428493"><ele>281.0</ele><time>2026-04-19T07:59:04.298Z</time></trkpt><trkpt lat="45.7793606" lon="11.4427036"><ele>281.0</ele><time>2026-04-19T07:59:05.274Z</time></trkpt><trkpt lat="45.7794526" lon="11.4425543"><ele>281.0</ele><time>2026-04-19T07:59:06.28Z</time></trkpt><trkpt lat="45.7795441" lon="11.442402"><ele>283.5</ele><time>2026-04-19T07:59:07.285Z</time></trkpt><trkpt lat="45.7796364" lon="11.4422525"><ele>286.0</ele><time>2026-04-19T07:59:08.285Z</time></trkpt><trkpt lat="45.7797321" lon="11.4421055"><ele>288.5</ele><time>2026-04-19T07:59:09.283Z</time></trkpt><trkpt lat="45.7798217" lon="11.4419581"><ele>291.0</ele><time>2026-04-19T07:59:10.28Z</time></trkpt><trkpt lat="45.7799134" lon="11.4418243"><ele>291.0</ele><time>2026-04-19T07:59:11.279Z</time></trkpt><trkpt lat="45.7800063" lon="11.4416953"><ele>291.0</ele><time>2026-04-19T07:59:12.28Z</time></trkpt><trkpt lat="45.7801007" lon="11.4415701"><ele>291.0</ele><time>2026-04-19T07:59:13.276Z</time></trkpt><trkpt lat="45.780196" lon="11.4414427"><ele>291.0</ele><time>2026-04-19T07:59:14.29Z</time></trkpt><trkpt lat="45.7802852" lon="11.4413012"><ele>292.75</ele><time>2026-04-19T07:59:15.273Z</time></trkpt><trkpt lat="45.7803803" lon="11.4411695"><ele>294.5</ele><time>2026-04-19T07:59:16.277Z</time></trkpt><trkpt lat="45.780469" lon="11.4410382"><ele>296.25</ele><time>2026-04-19T07:59:17.276Z</time></trkpt><trkpt lat="45.7805761" lon="11.4409525"><ele>298.0</ele><time>2026-04-19T07:59:18.277Z</time></trkpt><trkpt lat="45.7806688" lon="11.4408556"><ele>298.0</ele><time>2026-04-19T07:59:19.285Z</time></trkpt><trkpt lat="45.7807603" lon="11.4407685"><ele>298.0</ele><time>2026-04-19T07:59:20.277Z</time></trkpt><trkpt lat="45.780841" lon="11.4406734"><ele>298.0</ele><time>2026-04-19T07:59:21.274Z</time></trkpt><trkpt lat="45.7809127" lon="11.4405752"><ele>298.0</ele><time>2026-04-19T07:59:22.297Z</time></trkpt><trkpt lat="45.7809763" lon="11.4404813"><ele>298.0</ele><time>2026-04-19T07:59:23.281Z</time></trkpt><trkpt lat="45.7810269" lon="11.440389"><ele>298.8333333333333</ele><time>2026-04-19T07:59:24.276Z</time></trkpt><trkpt lat="45.781071" lon="11.440301"><ele>299.66666666666663</ele><time>2026-04-19T07:59:25.292Z</time></trkpt><trkpt lat="45.7811168" lon="11.4402131"><ele>300.5</ele><time>2026-04-19T07:59:26.28Z</time></trkpt><trkpt lat="45.7811705" lon="11.4401159"><ele>301.3333333333333</ele><time>2026-04-19T07:59:27.291Z</time></trkpt><trkpt lat="45.7812306" lon="11.4400102"><ele>302.1666666666667</ele><time>2026-04-19T07:59:28.283Z</time></trkpt><trkpt lat="45.7812949" lon="11.4399002"><ele>303.0</ele><time>2026-04-19T07:59:29.302Z</time></trkpt><trkpt lat="45.7813516" lon="11.4397811"><ele>303.0</ele><time>2026-04-19T07:59:30.286Z</time></trkpt><trkpt lat="45.7813932" lon="11.4396593"><ele>303.0</ele><time>2026-04-19T07:59:31.286Z</time></trkpt><trkpt lat="45.7814136" lon="11.4395353"><ele>303.0</ele><time>2026-04-19T07:59:32.277Z</time></trkpt><trkpt lat="45.7814481" lon="11.4394344"><ele>303.0</ele><time>2026-04-19T07:59:33.286Z</time></trkpt><trkpt lat="45.7814893" lon="11.4393419"><ele>303.0</ele><time>2026-04-19T07:59:34.277Z</time></trkpt><trkpt lat="45.7815229" lon="11.4392441"><ele>303.0</ele><time>2026-04-19T07:59:35.294Z</time></trkpt><trkpt lat="45.7815517" lon="11.4391389"><ele>302.6</ele><time>2026-04-19T07:59:36.3Z</time></trkpt><trkpt lat="45.7815625" lon="11.4390149"><ele>302.20000000000005</ele><time>2026-04-19T07:59:37.297Z</time></trkpt><trkpt lat="45.7815632" lon="11.4388734"><ele>301.8</ele><time>2026-04-19T07:59:38.289Z</time></trkpt><trkpt lat="45.7815399" lon="11.438723"><ele>301.40000000000003</ele><time>2026-04-19T07:59:39.296Z</time></trkpt><trkpt lat="45.7815217" lon="11.438574"><ele>301.0</ele><time>2026-04-19T07:59:40.286Z</time></trkpt><trkpt lat="45.7814999" lon="11.4384292"><ele>301.0</ele><time>2026-04-19T07:59:41.3Z</time></trkpt><trkpt lat="45.7814879" lon="11.4383015"><ele>301.0</ele><time>2026-04-19T07:59:42.293Z</time></trkpt><trkpt lat="45.7814764" lon="11.4381742"><ele>301.0</ele><time>2026-04-19T07:59:43.278Z</time></trkpt><trkpt lat="45.7814666" lon="11.4380498"><ele>301.0</ele><time>2026-04-19T07:59:44.285Z</time></trkpt><trkpt lat="45.7814589" lon="11.4379267"><ele>301.0</ele><time>2026-04-19T07:59:45.29Z</time></trkpt><trkpt lat="45.78146" lon="11.4378074"><ele>301.0</ele><time>2026-04-19T07:59:46.287Z</time></trkpt><trkpt lat="45.781456" lon="11.4376991"><ele>301.0</ele><time>2026-04-19T07:59:47.293Z</time></trkpt><trkpt lat="45.7814619" lon="11.4376076"><ele>301.0</ele><time>2026-04-19T07:59:48.305Z</time></trkpt><trkpt lat="45.7815138" lon="11.4374732"><ele>301.0</ele><time>2026-04-19T07:59:50.287Z</time></trkpt><trkpt lat="45.7815653" lon="11.4374207"><ele>301.0</ele><time>2026-04-19T07:59:51.298Z</time></trkpt><trkpt lat="45.7816319" lon="11.4373956"><ele>301.0</ele><time>2026-04-19T07:59:52.277Z</time></trkpt><trkpt lat="45.7816993" lon="11.4374068"><ele>301.0</ele><time>2026-04-19T07:59:53.286Z</time></trkpt><trkpt lat="45.7818181" lon="11.4374067"><ele>303.40000000000003</ele><time>2026-04-19T07:59:55.275Z</time></trkpt><trkpt lat="45.7819002" lon="11.4372454"><ele>305.8</ele><time>2026-04-19T07:59:57.278Z</time></trkpt><trkpt lat="45.78193" lon="11.4371257"><ele>308.20000000000005</ele><time>2026-04-19T07:59:58.295Z</time></trkpt><trkpt lat="45.7819606" lon="11.436992"><ele>310.6</ele><time>2026-04-19T07:59:59.288Z</time></trkpt><trkpt lat="45.7819867" lon="11.4368512"><ele>313.0</ele><time>2026-04-19T08:00:00.279Z</time></trkpt><trkpt lat="45.7820179" lon="11.4367029"><ele>313.25</ele><time>2026-04-19T08:00:01.29Z</time></trkpt><trkpt lat="45.7820402" lon="11.4365381"><ele>313.5</ele><time>2026-04-19T08:00:02.284Z</time></trkpt><trkpt lat="45.7820595" lon="11.4363637"><ele>313.75</ele><time>2026-04-19T08:00:03.287Z</time></trkpt><trkpt lat="45.782087" lon="11.4361865"><ele>314.0</ele><time>2026-04-19T08:00:04.284Z</time></trkpt><trkpt lat="45.7821119" lon="11.4360103"><ele>313.5</ele><time>2026-04-19T08:00:05.289Z</time></trkpt><trkpt lat="45.7821331" lon="11.435838"><ele>313.0</ele><time>2026-04-19T08:00:06.299Z</time></trkpt><trkpt lat="45.7821563" lon="11.4356642"><ele>312.5</ele><time>2026-04-19T08:00:07.29Z</time></trkpt><trkpt lat="45.7821846" lon="11.4354836"><ele>312.0</ele><time>2026-04-19T08:00:08.278Z</time></trkpt><trkpt lat="45.7822248" lon="11.4353009"><ele>311.75</ele><time>2026-04-19T08:00:09.293Z</time></trkpt><trkpt lat="45.7822769" lon="11.4351126"><ele>311.5</ele><time>2026-04-19T08:00:10.294Z</time></trkpt><trkpt lat="45.782337" lon="11.4349182"><ele>311.25</ele><time>2026-04-19T08:00:11.285Z</time></trkpt><trkpt lat="45.7823949" lon="11.4347158"><ele>311.0</ele><time>2026-04-19T08:00:12.287Z</time></trkpt><trkpt lat="45.7824492" lon="11.4345061"><ele>309.33333333333337</ele><time>2026-04-19T08:00:13.294Z</time></trkpt><trkpt lat="45.7825047" lon="11.4342962"><ele>307.6666666666667</ele><time>2026-04-19T08:00:14.29Z</time></trkpt><trkpt lat="45.7825625" lon="11.4340874"><ele>306.0</ele><time>2026-04-19T08:00:15.288Z</time></trkpt><trkpt lat="45.7826166" lon="11.4338768"><ele>307.0</ele><time>2026-04-19T08:00:16.292Z</time></trkpt><trkpt lat="45.7826702" lon="11.4336645"><ele>308.0</ele><time>2026-04-19T08:00:17.285Z</time></trkpt><trkpt lat="45.7827259" lon="11.433449"><ele>309.0</ele><time>2026-04-19T08:00:18.307Z</time></trkpt><trkpt lat="45.7827887" lon="11.4332328"><ele>309.0</ele><time>2026-04-19T08:00:19.304Z</time></trkpt><trkpt lat="45.7828561" lon="11.433018"><ele>309.0</ele><time>2026-04-19T08:00:20.316Z</time></trkpt><trkpt lat="45.7829184" lon="11.4327983"><ele>309.0</ele><time>2026-04-19T08:00:21.307Z</time></trkpt><trkpt lat="45.7829793" lon="11.4325748"><ele>306.6666666666667</ele><time>2026-04-19T08:00:22.29Z</time></trkpt><trkpt lat="45.7830367" lon="11.4323523"><ele>304.33333333333337</ele><time>2026-04-19T08:00:23.304Z</time></trkpt><trkpt lat="45.7830978" lon="11.4321372"><ele>302.0</ele><time>2026-04-19T08:00:24.299Z</time></trkpt><trkpt lat="45.7831515" lon="11.4319258"><ele>300.6666666666667</ele><time>2026-04-19T08:00:25.29Z</time></trkpt><trkpt lat="45.7832074" lon="11.4317147"><ele>299.3333333333333</ele><time>2026-04-19T08:00:26.292Z</time></trkpt><trkpt lat="45.783258" lon="11.4314973"><ele>298.0</ele><time>2026-04-19T08:00:27.299Z</time></trkpt><trkpt lat="45.7833218" lon="11.4312852"><ele>297.3333333333333</ele><time>2026-04-19T08:00:28.294Z</time></trkpt><trkpt lat="45.7833769" lon="11.4310699"><ele>296.6666666666667</ele><time>2026-04-19T08:00:29.299Z</time></trkpt><trkpt lat="45.7834306" lon="11.4308563"><ele>296.0</ele><time>2026-04-19T08:00:30.281Z</time></trkpt><trkpt lat="45.7834845" lon="11.4306411"><ele>296.33333333333337</ele><time>2026-04-19T08:00:31.301Z</time></trkpt><trkpt lat="45.7835278" lon="11.4304178"><ele>296.6666666666667</ele><time>2026-04-19T08:00:32.293Z</time></trkpt><trkpt lat="45.7835915" lon="11.4302044"><ele>297.0</ele><time>2026-04-19T08:00:33.299Z</time></trkpt><trkpt lat="45.7836504" lon="11.429985"><ele>297.0</ele><time>2026-04-19T08:00:34.298Z</time></trkpt><trkpt lat="45.7836932" lon="11.4297518"><ele>297.0</ele><time>2026-04-19T08:00:35.296Z</time></trkpt><trkpt lat="45.7837539" lon="11.4295259"><ele>297.0</ele><time>2026-04-19T08:00:36.31Z</time></trkpt><trkpt lat="45.7838061" lon="11.4292945"><ele>297.0</ele><time>2026-04-19T08:00:37.307Z</time></trkpt><trkpt lat="45.78386" lon="11.4290643"><ele>297.0</ele><time>2026-04-19T08:00:38.291Z</time></trkpt><trkpt lat="45.7839258" lon="11.4288385"><ele>297.0</ele><time>2026-04-19T08:00:39.286Z</time></trkpt><trkpt lat="45.7839832" lon="11.4286093"><ele>297.0</ele><time>2026-04-19T08:00:40.288Z</time></trkpt><trkpt lat="45.784036" lon="11.4283815"><ele>297.0</ele><time>2026-04-19T08:00:41.321Z</time></trkpt><trkpt lat="45.7840877" lon="11.4281582"><ele>297.0</ele><time>2026-04-19T08:00:42.304Z</time></trkpt><trkpt lat="45.7841335" lon="11.4279409"><ele>297.0</ele><time>2026-04-19T08:00:43.32Z</time></trkpt><trkpt lat="45.7841746" lon="11.4277335"><ele>297.0</ele><time>2026-04-19T08:00:44.291Z</time></trkpt><trkpt lat="45.7841947" lon="11.427531"><ele>297.0</ele><time>2026-04-19T08:00:45.3Z</time></trkpt><trkpt lat="45.7842058" lon="11.4273388"><ele>297.0</ele><time>2026-04-19T08:00:46.295Z</time></trkpt><trkpt lat="45.7842198" lon="11.4271513"><ele>297.75</ele><time>2026-04-19T08:00:47.3Z</time></trkpt><trkpt lat="45.7842331" lon="11.4269634"><ele>298.5</ele><time>2026-04-19T08:00:48.3Z</time></trkpt><trkpt lat="45.7843011" lon="11.4268014"><ele>299.25</ele><time>2026-04-19T08:00:49.295Z</time></trkpt><trkpt lat="45.7843806" lon="11.4266451"><ele>300.0</ele><time>2026-04-19T08:00:50.293Z</time></trkpt><trkpt lat="45.7844712" lon="11.4264883"><ele>301.0</ele><time>2026-04-19T08:00:51.303Z</time></trkpt><trkpt lat="45.784574" lon="11.4263398"><ele>302.0</ele><time>2026-04-19T08:00:52.287Z</time></trkpt><trkpt lat="45.7846668" lon="11.4261796"><ele>303.0</ele><time>2026-04-19T08:00:53.288Z</time></trkpt><trkpt lat="45.7847492" lon="11.4260052"><ele>304.0</ele><time>2026-04-19T08:00:54.283Z</time></trkpt><trkpt lat="45.7848211" lon="11.425814"><ele>304.0</ele><time>2026-04-19T08:00:55.291Z</time></trkpt><trkpt lat="45.784883" lon="11.4256114"><ele>304.0</ele><time>2026-04-19T08:00:56.302Z</time></trkpt><trkpt lat="45.7849475" lon="11.4254137"><ele>304.0</ele><time>2026-04-19T08:00:57.306Z</time></trkpt><trkpt lat="45.7850064" lon="11.4252248"><ele>303.8</ele><time>2026-04-19T08:00:58.298Z</time></trkpt><trkpt lat="45.785061" lon="11.4250508"><ele>303.59999999999997</ele><time>2026-04-19T08:00:59.306Z</time></trkpt><trkpt lat="45.7850995" lon="11.4248928"><ele>303.4</ele><time>2026-04-19T08:01:00.289Z</time></trkpt><trkpt lat="45.7851386" lon="11.4247679"><ele>303.2</ele><time>2026-04-19T08:01:01.289Z</time></trkpt><trkpt lat="45.7851701" lon="11.4246864"><ele>303.0</ele><time>2026-04-19T08:01:02.291Z</time></trkpt><trkpt lat="45.7851996" lon="11.4245958"><ele>303.0</ele><time>2026-04-19T08:01:04.297Z</time></trkpt><trkpt lat="45.7852012" lon="11.4245049"><ele>303.0</ele><time>2026-04-19T08:01:06.312Z</time></trkpt><trkpt lat="45.7851465" lon="11.4244397"><ele>303.0</ele><time>2026-04-19T08:01:07.291Z</time></trkpt><trkpt lat="45.7850358" lon="11.4243825"><ele>303.0</ele><time>2026-04-19T08:01:08.309Z</time></trkpt><trkpt lat="45.7849068" lon="11.424334"><ele>303.0</ele><time>2026-04-19T08:01:09.283Z</time></trkpt><trkpt lat="45.7847783" lon="11.4242706"><ele>303.0</ele><time>2026-04-19T08:01:10.284Z</time></trkpt><trkpt lat="45.7846593" lon="11.4241842"><ele>303.0</ele><time>2026-04-19T08:01:11.29Z</time></trkpt><trkpt lat="45.7845485" lon="11.4240958"><ele>303.0</ele><time>2026-04-19T08:01:12.283Z</time></trkpt><trkpt lat="45.7844409" lon="11.4240332"><ele>303.0</ele><time>2026-04-19T08:01:13.301Z</time></trkpt><trkpt lat="45.7843475" lon="11.4239776"><ele>302.2</ele><time>2026-04-19T08:01:14.284Z</time></trkpt><trkpt lat="45.7842708" lon="11.4239322"><ele>301.4</ele><time>2026-04-19T08:01:15.289Z</time></trkpt><trkpt lat="45.7842152" lon="11.423838"><ele>300.59999999999997</ele><time>2026-04-19T08:01:16.286Z</time></trkpt><trkpt lat="45.7841867" lon="11.4237199"><ele>299.8</ele><time>2026-04-19T08:01:17.293Z</time></trkpt><trkpt lat="45.7841936" lon="11.4235667"><ele>299.0</ele><time>2026-04-19T08:01:18.279Z</time></trkpt><trkpt lat="45.7842325" lon="11.4234111"><ele>298.6666666666667</ele><time>2026-04-19T08:01:19.3Z</time></trkpt><trkpt lat="45.7842956" lon="11.4232362"><ele>298.3333333333333</ele><time>2026-04-19T08:01:20.284Z</time></trkpt><trkpt lat="45.7843789" lon="11.4230517"><ele>298.0</ele><time>2026-04-19T08:01:21.285Z</time></trkpt><trkpt lat="45.7844565" lon="11.4228424"><ele>298.0</ele><time>2026-04-19T08:01:22.309Z</time></trkpt><trkpt lat="45.7845384" lon="11.4226412"><ele>298.0</ele><time>2026-04-19T08:01:23.306Z</time></trkpt><trkpt lat="45.7846046" lon="11.4224367"><ele>298.0</ele><time>2026-04-19T08:01:24.289Z</time></trkpt><trkpt lat="45.7846736" lon="11.4222325"><ele>298.0</ele><time>2026-04-19T08:01:25.289Z</time></trkpt><trkpt lat="45.784753" lon="11.4220316"><ele>298.0</ele><time>2026-04-19T08:01:26.292Z</time></trkpt><trkpt lat="45.7848312" lon="11.4218305"><ele>298.0</ele><time>2026-04-19T08:01:27.302Z</time></trkpt><trkpt lat="45.7848931" lon="11.421624"><ele>298.0</ele><time>2026-04-19T08:01:28.292Z</time></trkpt><trkpt lat="45.7849555" lon="11.4214257"><ele>298.0</ele><time>2026-04-19T08:01:29.319Z</time></trkpt><trkpt lat="45.7850183" lon="11.4212378"><ele>298.0</ele><time>2026-04-19T08:01:30.294Z</time></trkpt><trkpt lat="45.78508" lon="11.4210594"><ele>298.0</ele><time>2026-04-19T08:01:31.284Z</time></trkpt><trkpt lat="45.7851468" lon="11.4208892"><ele>298.5</ele><time>2026-04-19T08:01:32.286Z</time></trkpt><trkpt lat="45.7852138" lon="11.4207182"><ele>299.0</ele><time>2026-04-19T08:01:33.295Z</time></trkpt><trkpt lat="45.7852815" lon="11.4205501"><ele>299.5</ele><time>2026-04-19T08:01:34.293Z</time></trkpt><trkpt lat="45.7853521" lon="11.4203856"><ele>300.0</ele><time>2026-04-19T08:01:35.301Z</time></trkpt><trkpt lat="45.785414" lon="11.4202131"><ele>300.0</ele><time>2026-04-19T08:01:36.287Z</time></trkpt><trkpt lat="45.7854688" lon="11.4200305"><ele>300.0</ele><time>2026-04-19T08:01:37.29Z</time></trkpt><trkpt lat="45.7855331" lon="11.4198485"><ele>300.0</ele><time>2026-04-19T08:01:38.306Z</time></trkpt><trkpt lat="45.7855952" lon="11.419662"><ele>300.0</ele><time>2026-04-19T08:01:39.314Z</time></trkpt><trkpt lat="45.7856757" lon="11.4194882"><ele>300.3333333333333</ele><time>2026-04-19T08:01:40.31Z</time></trkpt><trkpt lat="45.7857404" lon="11.4192971"><ele>300.66666666666663</ele><time>2026-04-19T08:01:41.302Z</time></trkpt><trkpt lat="45.7858104" lon="11.4191011"><ele>301.0</ele><time>2026-04-19T08:01:42.284Z</time></trkpt><trkpt lat="45.7858842" lon="11.4189025"><ele>301.3333333333333</ele><time>2026-04-19T08:01:43.299Z</time></trkpt><trkpt lat="45.7859586" lon="11.4186959"><ele>301.6666666666667</ele><time>2026-04-19T08:01:44.304Z</time></trkpt><trkpt lat="45.7860335" lon="11.4184798"><ele>302.0</ele><time>2026-04-19T08:01:45.307Z</time></trkpt><trkpt lat="45.7861078" lon="11.4182592"><ele>303.6666666666667</ele><time>2026-04-19T08:01:46.302Z</time></trkpt><trkpt lat="45.7861833" lon="11.418029"><ele>305.3333333333333</ele><time>2026-04-19T08:01:47.295Z</time></trkpt><trkpt lat="45.7862715" lon="11.4177906"><ele>307.0</ele><time>2026-04-19T08:01:48.296Z</time></trkpt><trkpt lat="45.7863515" lon="11.4175323"><ele>307.0</ele><time>2026-04-19T08:01:49.299Z</time></trkpt><trkpt lat="45.7864361" lon="11.4172707"><ele>307.0</ele><time>2026-04-19T08:01:50.307Z</time></trkpt><trkpt lat="45.7865333" lon="11.4170159"><ele>307.0</ele><time>2026-04-19T08:01:51.303Z</time></trkpt><trkpt lat="45.7866197" lon="11.4167547"><ele>307.3333333333333</ele><time>2026-04-19T08:01:52.283Z</time></trkpt><trkpt lat="45.7867153" lon="11.4164939"><ele>307.6666666666667</ele><time>2026-04-19T08:01:53.299Z</time></trkpt><trkpt lat="45.7868152" lon="11.4162225"><ele>308.0</ele><time>2026-04-19T08:01:54.278Z</time></trkpt><trkpt lat="45.7869031" lon="11.415937"><ele>308.0</ele><time>2026-04-19T08:01:55.295Z</time></trkpt><trkpt lat="45.787018" lon="11.4156868"><ele>308.0</ele><time>2026-04-19T08:01:56.29Z</time></trkpt><trkpt lat="45.7871204" lon="11.4154439"><ele>308.0</ele><time>2026-04-19T08:01:57.305Z</time></trkpt><trkpt lat="45.7872208" lon="11.415221"><ele>307.33333333333337</ele><time>2026-04-19T08:01:58.296Z</time></trkpt><trkpt lat="45.7873061" lon="11.415007"><ele>306.6666666666667</ele><time>2026-04-19T08:01:59.3Z</time></trkpt><trkpt lat="45.7873762" lon="11.4148002"><ele>306.0</ele><time>2026-04-19T08:02:00.289Z</time></trkpt><trkpt lat="45.7874395" lon="11.4146021"><ele>305.75</ele><time>2026-04-19T08:02:01.282Z</time></trkpt><trkpt lat="45.7875128" lon="11.4144173"><ele>305.5</ele><time>2026-04-19T08:02:02.299Z</time></trkpt><trkpt lat="45.7875799" lon="11.414235"><ele>305.25</ele><time>2026-04-19T08:02:03.287Z</time></trkpt><trkpt lat="45.7876482" lon="11.4140617"><ele>305.0</ele><time>2026-04-19T08:02:04.292Z</time></trkpt><trkpt lat="45.787715" lon="11.4138879"><ele>304.25</ele><time>2026-04-19T08:02:05.298Z</time></trkpt><trkpt lat="45.7877916" lon="11.4137177"><ele>303.5</ele><time>2026-04-19T08:02:06.287Z</time></trkpt><trkpt lat="45.7878628" lon="11.4135356"><ele>302.75</ele><time>2026-04-19T08:02:07.301Z</time></trkpt><trkpt lat="45.7879432" lon="11.4133528"><ele>302.0</ele><time>2026-04-19T08:02:08.298Z</time></trkpt><trkpt lat="45.7880316" lon="11.4131608"><ele>301.0</ele><time>2026-04-19T08:02:09.3Z</time></trkpt><trkpt lat="45.7881336" lon="11.4129531"><ele>300.0</ele><time>2026-04-19T08:02:10.29Z</time></trkpt><trkpt lat="45.7882572" lon="11.4127335"><ele>299.0</ele><time>2026-04-19T08:02:11.312Z</time></trkpt><trkpt lat="45.7883882" lon="11.4124874"><ele>300.0</ele><time>2026-04-19T08:02:12.285Z</time></trkpt><trkpt lat="45.7885268" lon="11.4122393"><ele>301.0</ele><time>2026-04-19T08:02:13.301Z</time></trkpt><trkpt lat="45.7886764" lon="11.4120122"><ele>302.0</ele><time>2026-04-19T08:02:14.306Z</time></trkpt><trkpt lat="45.7888141" lon="11.4117842"><ele>302.0</ele><time>2026-04-19T08:02:15.301Z</time></trkpt><trkpt lat="45.788949" lon="11.4115724"><ele>302.0</ele><time>2026-04-19T08:02:16.281Z</time></trkpt><trkpt lat="45.7890702" lon="11.4113644"><ele>302.0</ele><time>2026-04-19T08:02:17.312Z</time></trkpt><trkpt lat="45.789183" lon="11.4111651"><ele>302.0</ele><time>2026-04-19T08:02:18.287Z</time></trkpt><trkpt lat="45.789279" lon="11.4109728"><ele>302.0</ele><time>2026-04-19T08:02:19.288Z</time></trkpt><trkpt lat="45.7893622" lon="11.410814"><ele>302.0</ele><time>2026-04-19T08:02:20.302Z</time></trkpt><trkpt lat="45.7894334" lon="11.4106945"><ele>302.0</ele><time>2026-04-19T08:02:21.294Z</time></trkpt><trkpt lat="45.7894995" lon="11.4105994"><ele>302.0</ele><time>2026-04-19T08:02:22.289Z</time></trkpt><trkpt lat="45.7895773" lon="11.4105454"><ele>302.0</ele><time>2026-04-19T08:02:23.307Z</time></trkpt><trkpt lat="45.7896566" lon="11.410522"><ele>302.0</ele><time>2026-04-19T08:02:24.29Z</time></trkpt><trkpt lat="45.789723" lon="11.4104847"><ele>302.0</ele><time>2026-04-19T08:02:25.294Z</time></trkpt><trkpt lat="45.7897738" lon="11.4104045"><ele>302.0</ele><time>2026-04-19T08:02:26.293Z</time></trkpt><trkpt lat="45.7898065" lon="11.4102754"><ele>302.0</ele><time>2026-04-19T08:02:27.289Z</time></trkpt><trkpt lat="45.7898269" lon="11.4101115"><ele>302.0</ele><time>2026-04-19T08:02:28.302Z</time></trkpt><trkpt lat="45.7898784" lon="11.4099246"><ele>302.0</ele><time>2026-04-19T08:02:29.318Z</time></trkpt><trkpt lat="45.7899528" lon="11.4097196"><ele>302.0</ele><time>2026-04-19T08:02:30.286Z</time></trkpt><trkpt lat="45.7900468" lon="11.4095104"><ele>302.0</ele><time>2026-04-19T08:02:31.301Z</time></trkpt><trkpt lat="45.7901397" lon="11.4092995"><ele>302.0</ele><time>2026-04-19T08:02:32.304Z</time></trkpt><trkpt lat="45.7902155" lon="11.409089"><ele>302.0</ele><time>2026-04-19T08:02:33.287Z</time></trkpt><trkpt lat="45.7902796" lon="11.4088788"><ele>303.0</ele><time>2026-04-19T08:02:34.29Z</time></trkpt><trkpt lat="45.7903336" lon="11.4086729"><ele>304.0</ele><time>2026-04-19T08:02:35.307Z</time></trkpt><trkpt lat="45.7903841" lon="11.4084722"><ele>305.0</ele><time>2026-04-19T08:02:36.291Z</time></trkpt><trkpt lat="45.7904325" lon="11.4082735"><ele>306.0</ele><time>2026-04-19T08:02:37.295Z</time></trkpt><trkpt lat="45.790482" lon="11.4080754"><ele>306.6666666666667</ele><time>2026-04-19T08:02:38.287Z</time></trkpt><trkpt lat="45.7905317" lon="11.4078741"><ele>307.33333333333337</ele><time>2026-04-19T08:02:39.307Z</time></trkpt><trkpt lat="45.7905823" lon="11.4076686"><ele>308.0</ele><time>2026-04-19T08:02:40.307Z</time></trkpt><trkpt lat="45.7906411" lon="11.40746"><ele>308.0</ele><time>2026-04-19T08:02:41.307Z</time></trkpt><trkpt lat="45.790708" lon="11.4072436"><ele>308.0</ele><time>2026-04-19T08:02:42.29Z</time></trkpt><trkpt lat="45.7907692" lon="11.4070111"><ele>308.0</ele><time>2026-04-19T08:02:43.29Z</time></trkpt><trkpt lat="45.7908292" lon="11.4067664"><ele>309.0</ele><time>2026-04-19T08:02:44.303Z</time></trkpt><trkpt lat="45.7908932" lon="11.4065155"><ele>310.0</ele><time>2026-04-19T08:02:45.297Z</time></trkpt><trkpt lat="45.7909541" lon="11.4062592"><ele>311.0</ele><time>2026-04-19T08:02:46.292Z</time></trkpt><trkpt lat="45.7910327" lon="11.4060118"><ele>311.0</ele><time>2026-04-19T08:02:47.316Z</time></trkpt><trkpt lat="45.7911082" lon="11.4057566"><ele>311.0</ele><time>2026-04-19T08:02:48.287Z</time></trkpt><trkpt lat="45.7911891" lon="11.4054983"><ele>311.0</ele><time>2026-04-19T08:02:49.287Z</time></trkpt><trkpt lat="45.7912699" lon="11.4052386"><ele>311.33333333333337</ele><time>2026-04-19T08:02:50.288Z</time></trkpt><trkpt lat="45.7913476" lon="11.4049746"><ele>311.6666666666667</ele><time>2026-04-19T08:02:51.31Z</time></trkpt><trkpt lat="45.7914125" lon="11.4046996"><ele>312.0</ele><time>2026-04-19T08:02:52.302Z</time></trkpt><trkpt lat="45.7914728" lon="11.4044206"><ele>310.3333333333333</ele><time>2026-04-19T08:02:53.302Z</time></trkpt><trkpt lat="45.7915332" lon="11.4041412"><ele>308.66666666666663</ele><time>2026-04-19T08:02:54.29Z</time></trkpt><trkpt lat="45.7915887" lon="11.4038587"><ele>307.0</ele><time>2026-04-19T08:02:55.31Z</time></trkpt><trkpt lat="45.7916547" lon="11.403579"><ele>306.3333333333333</ele><time>2026-04-19T08:02:56.299Z</time></trkpt><trkpt lat="45.7917204" lon="11.4032931"><ele>305.6666666666667</ele><time>2026-04-19T08:02:57.289Z</time></trkpt><trkpt lat="45.7917922" lon="11.4030042"><ele>305.0</ele><time>2026-04-19T08:02:58.296Z</time></trkpt><trkpt lat="45.7918578" lon="11.402711"><ele>305.0</ele><time>2026-04-19T08:02:59.314Z</time></trkpt><trkpt lat="45.791919" lon="11.4024144"><ele>305.0</ele><time>2026-04-19T08:03:00.296Z</time></trkpt><trkpt lat="45.791984" lon="11.4021212"><ele>305.0</ele><time>2026-04-19T08:03:01.297Z</time></trkpt><trkpt lat="45.7920492" lon="11.4018294"><ele>303.6666666666667</ele><time>2026-04-19T08:03:02.3Z</time></trkpt><trkpt lat="45.7920968" lon="11.4015263"><ele>302.3333333333333</ele><time>2026-04-19T08:03:03.307Z</time></trkpt><trkpt lat="45.7921507" lon="11.401223"><ele>301.0</ele><time>2026-04-19T08:03:04.309Z</time></trkpt><trkpt lat="45.7922072" lon="11.4009182"><ele>299.66666666666663</ele><time>2026-04-19T08:03:05.297Z</time></trkpt><trkpt lat="45.792266" lon="11.4006116"><ele>298.3333333333333</ele><time>2026-04-19T08:03:06.293Z</time></trkpt><trkpt lat="45.7923236" lon="11.4003035"><ele>297.0</ele><time>2026-04-19T08:03:07.296Z</time></trkpt><trkpt lat="45.7923921" lon="11.4000019"><ele>295.6666666666667</ele><time>2026-04-19T08:03:08.291Z</time></trkpt><trkpt lat="45.7924522" lon="11.3997025"><ele>294.33333333333337</ele><time>2026-04-19T08:03:09.294Z</time></trkpt><trkpt lat="45.7925068" lon="11.3994071"><ele>293.0</ele><time>2026-04-19T08:03:10.305Z</time></trkpt><trkpt lat="45.7925492" lon="11.3991138"><ele>292.6666666666667</ele><time>2026-04-19T08:03:11.298Z</time></trkpt><trkpt lat="45.7925972" lon="11.3988329"><ele>292.3333333333333</ele><time>2026-04-19T08:03:12.307Z</time></trkpt><trkpt lat="45.7926409" lon="11.3985628"><ele>292.0</ele><time>2026-04-19T08:03:13.298Z</time></trkpt><trkpt lat="45.7926846" lon="11.3983"><ele>294.0</ele><time>2026-04-19T08:03:14.295Z</time></trkpt><trkpt lat="45.7927012" lon="11.3980274"><ele>296.0</ele><time>2026-04-19T08:03:15.303Z</time></trkpt><trkpt lat="45.7927336" lon="11.3977547"><ele>298.0</ele><time>2026-04-19T08:03:16.292Z</time></trkpt><trkpt lat="45.7927425" lon="11.3974728"><ele>298.0</ele><time>2026-04-19T08:03:17.3Z</time></trkpt><trkpt lat="45.7927477" lon="11.3971883"><ele>298.0</ele><time>2026-04-19T08:03:18.309Z</time></trkpt><trkpt lat="45.7927494" lon="11.3969036"><ele>298.0</ele><time>2026-04-19T08:03:19.299Z</time></trkpt><trkpt lat="45.7927572" lon="11.3966235"><ele>298.0</ele><time>2026-04-19T08:03:20.309Z</time></trkpt><trkpt lat="45.7927641" lon="11.3963523"><ele>298.0</ele><time>2026-04-19T08:03:21.296Z</time></trkpt><trkpt lat="45.7927754" lon="11.3960919"><ele>298.0</ele><time>2026-04-19T08:03:22.281Z</time></trkpt><trkpt lat="45.7928007" lon="11.3958401"><ele>298.66666666666663</ele><time>2026-04-19T08:03:23.312Z</time></trkpt><trkpt lat="45.7928261" lon="11.3955897"><ele>299.3333333333333</ele><time>2026-04-19T08:03:24.304Z</time></trkpt><trkpt lat="45.792838" lon="11.3953381"><ele>300.0</ele><time>2026-04-19T08:03:25.299Z</time></trkpt><trkpt lat="45.7928539" lon="11.3950877"><ele>298.6666666666667</ele><time>2026-04-19T08:03:26.289Z</time></trkpt><trkpt lat="45.7928813" lon="11.3948433"><ele>297.33333333333337</ele><time>2026-04-19T08:03:27.323Z</time></trkpt><trkpt lat="45.7929215" lon="11.3946014"><ele>296.0</ele><time>2026-04-19T08:03:28.288Z</time></trkpt><trkpt lat="45.7929822" lon="11.3943682"><ele>294.0</ele><time>2026-04-19T08:03:29.303Z</time></trkpt><trkpt lat="45.793039" lon="11.3941357"><ele>292.0</ele><time>2026-04-19T08:03:30.289Z</time></trkpt><trkpt lat="45.7931044" lon="11.3939115"><ele>290.0</ele><time>2026-04-19T08:03:31.303Z</time></trkpt><trkpt lat="45.7932146" lon="11.3937131"><ele>287.33333333333337</ele><time>2026-04-19T08:03:32.293Z</time></trkpt><trkpt lat="45.7932869" lon="11.3934869"><ele>284.6666666666667</ele><time>2026-04-19T08:03:33.296Z</time></trkpt><trkpt lat="45.7933795" lon="11.3932727"><ele>282.0</ele><time>2026-04-19T08:03:34.3Z</time></trkpt><trkpt lat="45.7934818" lon="11.3930609"><ele>280.6666666666667</ele><time>2026-04-19T08:03:35.316Z</time></trkpt><trkpt lat="45.7936127" lon="11.3928754"><ele>279.33333333333337</ele><time>2026-04-19T08:03:36.303Z</time></trkpt><trkpt lat="45.7937402" lon="11.3926904"><ele>278.0</ele><time>2026-04-19T08:03:37.298Z</time></trkpt><trkpt lat="45.7938788" lon="11.3925228"><ele>278.0</ele><time>2026-04-19T08:03:38.299Z</time></trkpt><trkpt lat="45.794023" lon="11.39237"><ele>278.0</ele><time>2026-04-19T08:03:39.309Z</time></trkpt><trkpt lat="45.7941577" lon="11.3922046"><ele>278.0</ele><time>2026-04-19T08:03:40.304Z</time></trkpt><trkpt lat="45.7943219" lon="11.392086"><ele>274.6666666666667</ele><time>2026-04-19T08:03:41.31Z</time></trkpt><trkpt lat="45.7944836" lon="11.3919679"><ele>271.3333333333333</ele><time>2026-04-19T08:03:42.298Z</time></trkpt><trkpt lat="45.794651" lon="11.391862"><ele>268.0</ele><time>2026-04-19T08:03:43.298Z</time></trkpt><trkpt lat="45.7948258" lon="11.3917626"><ele>268.0</ele><time>2026-04-19T08:03:44.288Z</time></trkpt><trkpt lat="45.7950102" lon="11.3916894"><ele>268.0</ele><time>2026-04-19T08:03:45.306Z</time></trkpt><trkpt lat="45.7951936" lon="11.3916103"><ele>268.0</ele><time>2026-04-19T08:03:46.312Z</time></trkpt><trkpt lat="45.7953745" lon="11.3915421"><ele>270.66666666666663</ele><time>2026-04-19T08:03:47.297Z</time></trkpt><trkpt lat="45.7955513" lon="11.3914848"><ele>273.3333333333333</ele><time>2026-04-19T08:03:48.307Z</time></trkpt><trkpt lat="45.7957248" lon="11.3914175"><ele>276.0</ele><time>2026-04-19T08:03:49.275Z</time></trkpt><trkpt lat="45.795891" lon="11.3913426"><ele>273.3333333333333</ele><time>2026-04-19T08:03:50.298Z</time></trkpt><trkpt lat="45.7960533" lon="11.3912605"><ele>270.66666666666663</ele><time>2026-04-19T08:03:51.278Z</time></trkpt><trkpt lat="45.796207" lon="11.3911497"><ele>268.0</ele><time>2026-04-19T08:03:52.277Z</time></trkpt><trkpt lat="45.7963501" lon="11.3910163"><ele>268.0</ele><time>2026-04-19T08:03:53.287Z</time></trkpt><trkpt lat="45.7964819" lon="11.3908629"><ele>268.0</ele><time>2026-04-19T08:03:54.285Z</time></trkpt><trkpt lat="45.7965992" lon="11.3906781"><ele>268.0</ele><time>2026-04-19T08:03:55.276Z</time></trkpt><trkpt lat="45.7967052" lon="11.390475"><ele>265.3333333333333</ele><time>2026-04-19T08:03:56.289Z</time></trkpt><trkpt lat="45.7967859" lon="11.3902465"><ele>262.6666666666667</ele><time>2026-04-19T08:03:57.281Z</time></trkpt><trkpt lat="45.7968578" lon="11.3900009"><ele>260.0</ele><time>2026-04-19T08:03:58.284Z</time></trkpt><trkpt lat="45.7969051" lon="11.3897327"><ele>262.6666666666667</ele><time>2026-04-19T08:03:59.286Z</time></trkpt><trkpt lat="45.7969568" lon="11.3894667"><ele>265.3333333333333</ele><time>2026-04-19T08:04:00.276Z</time></trkpt><trkpt lat="45.797012" lon="11.3892032"><ele>268.0</ele><time>2026-04-19T08:04:01.288Z</time></trkpt><trkpt lat="45.7970692" lon="11.3889405"><ele>265.3333333333333</ele><time>2026-04-19T08:04:02.289Z</time></trkpt><trkpt lat="45.7971293" lon="11.3886771"><ele>262.6666666666667</ele><time>2026-04-19T08:04:03.282Z</time></trkpt><trkpt lat="45.7971989" lon="11.3884187"><ele>260.0</ele><time>2026-04-19T08:04:04.287Z</time></trkpt><trkpt lat="45.7972567" lon="11.388154"><ele>258.6666666666667</ele><time>2026-04-19T08:04:05.28Z</time></trkpt><trkpt lat="45.7973144" lon="11.3878878"><ele>257.3333333333333</ele><time>2026-04-19T08:04:06.304Z</time></trkpt><trkpt lat="45.7973779" lon="11.3876236"><ele>256.0</ele><time>2026-04-19T08:04:07.284Z</time></trkpt><trkpt lat="45.797454" lon="11.3873672"><ele>255.66666666666666</ele><time>2026-04-19T08:04:08.284Z</time></trkpt><trkpt lat="45.7975165" lon="11.3871102"><ele>255.33333333333331</ele><time>2026-04-19T08:04:09.273Z</time></trkpt><trkpt lat="45.797568" lon="11.3868579"><ele>255.0</ele><time>2026-04-19T08:04:10.286Z</time></trkpt><trkpt lat="45.7976193" lon="11.3866096"><ele>257.6666666666667</ele><time>2026-04-19T08:04:11.282Z</time></trkpt><trkpt lat="45.7976806" lon="11.3863647"><ele>260.33333333333337</ele><time>2026-04-19T08:04:12.282Z</time></trkpt><trkpt lat="45.7977379" lon="11.3861179"><ele>263.0</ele><time>2026-04-19T08:04:13.285Z</time></trkpt><trkpt lat="45.7977992" lon="11.3858707"><ele>263.0</ele><time>2026-04-19T08:04:14.273Z</time></trkpt><trkpt lat="45.7978502" lon="11.3856154"><ele>263.0</ele><time>2026-04-19T08:04:15.284Z</time></trkpt><trkpt lat="45.7979024" lon="11.3853584"><ele>263.0</ele><time>2026-04-19T08:04:16.288Z</time></trkpt><trkpt lat="45.7979664" lon="11.3850984"><ele>261.0</ele><time>2026-04-19T08:04:17.279Z</time></trkpt><trkpt lat="45.7980253" lon="11.3848276"><ele>259.0</ele><time>2026-04-19T08:04:18.286Z</time></trkpt><trkpt lat="45.7981054" lon="11.3845729"><ele>257.0</ele><time>2026-04-19T08:04:19.278Z</time></trkpt><trkpt lat="45.7981882" lon="11.3843248"><ele>256.6666666666667</ele><time>2026-04-19T08:04:20.303Z</time></trkpt><trkpt lat="45.7982802" lon="11.3840849"><ele>256.3333333333333</ele><time>2026-04-19T08:04:21.297Z</time></trkpt><trkpt lat="45.7983713" lon="11.3838386"><ele>256.0</ele><time>2026-04-19T08:04:22.287Z</time></trkpt><trkpt lat="45.7984766" lon="11.3836007"><ele>256.3333333333333</ele><time>2026-04-19T08:04:23.28Z</time></trkpt><trkpt lat="45.7986022" lon="11.3833766"><ele>256.6666666666667</ele><time>2026-04-19T08:04:24.278Z</time></trkpt><trkpt lat="45.7987046" lon="11.3831272"><ele>257.0</ele><time>2026-04-19T08:04:25.281Z</time></trkpt><trkpt lat="45.7988276" lon="11.3828941"><ele>257.0</ele><time>2026-04-19T08:04:26.298Z</time></trkpt><trkpt lat="45.7989509" lon="11.3826597"><ele>257.0</ele><time>2026-04-19T08:04:27.286Z</time></trkpt><trkpt lat="45.7990719" lon="11.3824221"><ele>257.0</ele><time>2026-04-19T08:04:28.289Z</time></trkpt><trkpt lat="45.7991903" lon="11.3821831"><ele>256.33333333333337</ele><time>2026-04-19T08:04:29.29Z</time></trkpt><trkpt lat="45.7993045" lon="11.3819411"><ele>255.66666666666669</ele><time>2026-04-19T08:04:30.28Z</time></trkpt><trkpt lat="45.7994198" lon="11.3817028"><ele>255.0</ele><time>2026-04-19T08:04:31.285Z</time></trkpt><trkpt lat="45.7995242" lon="11.3814562"><ele>256.0</ele><time>2026-04-19T08:04:32.29Z</time></trkpt><trkpt lat="45.7996301" lon="11.3812112"><ele>257.0</ele><time>2026-04-19T08:04:33.298Z</time></trkpt><trkpt lat="45.7997478" lon="11.3809794"><ele>258.0</ele><time>2026-04-19T08:04:34.283Z</time></trkpt><trkpt lat="45.7998599" lon="11.3807478"><ele>258.0</ele><time>2026-04-19T08:04:35.275Z</time></trkpt><trkpt lat="45.7999725" lon="11.380521"><ele>258.0</ele><time>2026-04-19T08:04:36.272Z</time></trkpt><trkpt lat="45.8000897" lon="11.3802996"><ele>258.0</ele><time>2026-04-19T08:04:37.265Z</time></trkpt><trkpt lat="45.8001977" lon="11.3800706"><ele>258.3333333333333</ele><time>2026-04-19T08:04:38.29Z</time></trkpt><trkpt lat="45.8003083" lon="11.3798423"><ele>258.66666666666663</ele><time>2026-04-19T08:04:39.289Z</time></trkpt><trkpt lat="45.8004209" lon="11.3796178"><ele>259.0</ele><time>2026-04-19T08:04:40.296Z</time></trkpt><trkpt lat="45.8005355" lon="11.3793978"><ele>259.0</ele><time>2026-04-19T08:04:41.288Z</time></trkpt><trkpt lat="45.8006478" lon="11.3791773"><ele>259.0</ele><time>2026-04-19T08:04:42.287Z</time></trkpt><trkpt lat="45.8007596" lon="11.3789579"><ele>259.0</ele><time>2026-04-19T08:04:43.311Z</time></trkpt><trkpt lat="45.8008699" lon="11.3787405"><ele>258.66666666666663</ele><time>2026-04-19T08:04:44.292Z</time></trkpt><trkpt lat="45.8009807" lon="11.3785268"><ele>258.3333333333333</ele><time>2026-04-19T08:04:45.289Z</time></trkpt><trkpt lat="45.8010998" lon="11.3783207"><ele>258.0</ele><time>2026-04-19T08:04:46.288Z</time></trkpt><trkpt lat="45.8012112" lon="11.3781017"><ele>258.0</ele><time>2026-04-19T08:04:47.29Z</time></trkpt><trkpt lat="45.8013221" lon="11.3778754"><ele>258.0</ele><time>2026-04-19T08:04:48.287Z</time></trkpt><trkpt lat="45.8014347" lon="11.3776441"><ele>258.0</ele><time>2026-04-19T08:04:49.296Z</time></trkpt><trkpt lat="45.8015521" lon="11.3774127"><ele>257.6666666666667</ele><time>2026-04-19T08:04:50.299Z</time></trkpt><trkpt lat="45.8016623" lon="11.3771721"><ele>257.33333333333337</ele><time>2026-04-19T08:04:51.288Z</time></trkpt><trkpt lat="45.8017843" lon="11.3769411"><ele>257.0</ele><time>2026-04-19T08:04:52.296Z</time></trkpt><trkpt lat="45.8019129" lon="11.376715"><ele>256.6666666666667</ele><time>2026-04-19T08:04:53.3Z</time></trkpt><trkpt lat="45.8020263" lon="11.3764728"><ele>256.3333333333333</ele><time>2026-04-19T08:04:54.285Z</time></trkpt><trkpt lat="45.8021504" lon="11.3762409"><ele>256.0</ele><time>2026-04-19T08:04:55.284Z</time></trkpt><trkpt lat="45.8022719" lon="11.3760037"><ele>256.0</ele><time>2026-04-19T08:04:56.284Z</time></trkpt><trkpt lat="45.8023919" lon="11.375765"><ele>256.0</ele><time>2026-04-19T08:04:57.277Z</time></trkpt><trkpt lat="45.8024999" lon="11.375511"><ele>256.0</ele><time>2026-04-19T08:04:58.293Z</time></trkpt><trkpt lat="45.8026" lon="11.3752485"><ele>257.66666666666663</ele><time>2026-04-19T08:04:59.316Z</time></trkpt><trkpt lat="45.8027276" lon="11.3750095"><ele>259.3333333333333</ele><time>2026-04-19T08:05:00.301Z</time></trkpt><trkpt lat="45.8028376" lon="11.3747553"><ele>261.0</ele><time>2026-04-19T08:05:01.303Z</time></trkpt><trkpt lat="45.802946" lon="11.3745051"><ele>261.0</ele><time>2026-04-19T08:05:02.29Z</time></trkpt><trkpt lat="45.8030377" lon="11.3742464"><ele>261.0</ele><time>2026-04-19T08:05:03.297Z</time></trkpt><trkpt lat="45.8031192" lon="11.3739835"><ele>261.0</ele><time>2026-04-19T08:05:04.285Z</time></trkpt><trkpt lat="45.8031864" lon="11.373718"><ele>260.6666666666667</ele><time>2026-04-19T08:05:05.288Z</time></trkpt><trkpt lat="45.8032459" lon="11.3734534"><ele>260.33333333333337</ele><time>2026-04-19T08:05:06.297Z</time></trkpt><trkpt lat="45.8033098" lon="11.3731968"><ele>260.0</ele><time>2026-04-19T08:05:07.288Z</time></trkpt><trkpt lat="45.8033564" lon="11.3729345"><ele>260.0</ele><time>2026-04-19T08:05:08.287Z</time></trkpt><trkpt lat="45.8033932" lon="11.3726684"><ele>260.0</ele><time>2026-04-19T08:05:09.302Z</time></trkpt><trkpt lat="45.8034225" lon="11.3723975"><ele>260.0</ele><time>2026-04-19T08:05:10.286Z</time></trkpt><trkpt lat="45.8034412" lon="11.3721219"><ele>260.0</ele><time>2026-04-19T08:05:11.297Z</time></trkpt><trkpt lat="45.8034564" lon="11.3718416"><ele>260.0</ele><time>2026-04-19T08:05:12.293Z</time></trkpt><trkpt lat="45.8034639" lon="11.3715566"><ele>260.0</ele><time>2026-04-19T08:05:13.307Z</time></trkpt><trkpt lat="45.8034717" lon="11.371269"><ele>259.6666666666667</ele><time>2026-04-19T08:05:14.29Z</time></trkpt><trkpt lat="45.8034606" lon="11.3709778"><ele>259.3333333333333</ele><time>2026-04-19T08:05:15.296Z</time></trkpt><trkpt lat="45.8034489" lon="11.3706863"><ele>259.0</ele><time>2026-04-19T08:05:16.297Z</time></trkpt><trkpt lat="45.8034215" lon="11.370396"><ele>260.0</ele><time>2026-04-19T08:05:17.285Z</time></trkpt><trkpt lat="45.8034053" lon="11.3701083"><ele>261.0</ele><time>2026-04-19T08:05:18.291Z</time></trkpt><trkpt lat="45.8033824" lon="11.3698259"><ele>262.0</ele><time>2026-04-19T08:05:19.302Z</time></trkpt><trkpt lat="45.8033774" lon="11.3695479"><ele>262.66666666666663</ele><time>2026-04-19T08:05:20.285Z</time></trkpt><trkpt lat="45.8033581" lon="11.3692757"><ele>263.3333333333333</ele><time>2026-04-19T08:05:21.287Z</time></trkpt><trkpt lat="45.8033439" lon="11.3690063"><ele>264.0</ele><time>2026-04-19T08:05:22.295Z</time></trkpt><trkpt lat="45.8033256" lon="11.3687422"><ele>265.6666666666667</ele><time>2026-04-19T08:05:23.304Z</time></trkpt><trkpt lat="45.8033191" lon="11.3684838"><ele>267.33333333333337</ele><time>2026-04-19T08:05:24.307Z</time></trkpt><trkpt lat="45.8033129" lon="11.368229"><ele>269.0</ele><time>2026-04-19T08:05:25.297Z</time></trkpt><trkpt lat="45.8033" lon="11.3679704"><ele>271.6666666666667</ele><time>2026-04-19T08:05:26.309Z</time></trkpt><trkpt lat="45.8032946" lon="11.3677078"><ele>274.3333333333333</ele><time>2026-04-19T08:05:27.297Z</time></trkpt><trkpt lat="45.8032798" lon="11.3674415"><ele>277.0</ele><time>2026-04-19T08:05:28.291Z</time></trkpt><trkpt lat="45.8032676" lon="11.3671681"><ele>278.0</ele><time>2026-04-19T08:05:29.31Z</time></trkpt><trkpt lat="45.8032609" lon="11.3668865"><ele>279.0</ele><time>2026-04-19T08:05:30.309Z</time></trkpt><trkpt lat="45.80325" lon="11.3665967"><ele>280.0</ele><time>2026-04-19T08:05:31.3Z</time></trkpt><trkpt lat="45.8032202" lon="11.3663039"><ele>280.3333333333333</ele><time>2026-04-19T08:05:32.287Z</time></trkpt><trkpt lat="45.8032064" lon="11.366012"><ele>280.6666666666667</ele><time>2026-04-19T08:05:33.301Z</time></trkpt><trkpt lat="45.8031906" lon="11.3657268"><ele>281.0</ele><time>2026-04-19T08:05:34.285Z</time></trkpt><trkpt lat="45.8031769" lon="11.3654481"><ele>282.6666666666667</ele><time>2026-04-19T08:05:35.284Z</time></trkpt><trkpt lat="45.8031747" lon="11.3651684"><ele>284.3333333333333</ele><time>2026-04-19T08:05:36.288Z</time></trkpt><trkpt lat="45.8031783" lon="11.3648908"><ele>286.0</ele><time>2026-04-19T08:05:37.302Z</time></trkpt><trkpt lat="45.8031896" lon="11.3646157"><ele>287.3333333333333</ele><time>2026-04-19T08:05:38.311Z</time></trkpt><trkpt lat="45.8032261" lon="11.3643437"><ele>288.6666666666667</ele><time>2026-04-19T08:05:39.297Z</time></trkpt><trkpt lat="45.8032777" lon="11.3640789"><ele>290.0</ele><time>2026-04-19T08:05:40.284Z</time></trkpt><trkpt lat="45.803335" lon="11.3638158"><ele>290.0</ele><time>2026-04-19T08:05:41.289Z</time></trkpt><trkpt lat="45.803419" lon="11.3635663"><ele>290.0</ele><time>2026-04-19T08:05:42.298Z</time></trkpt><trkpt lat="45.8035218" lon="11.3633297"><ele>290.0</ele><time>2026-04-19T08:05:43.287Z</time></trkpt><trkpt lat="45.8036285" lon="11.3630883"><ele>293.6666666666667</ele><time>2026-04-19T08:05:44.29Z</time></trkpt><trkpt lat="45.8037322" lon="11.3628391"><ele>297.3333333333333</ele><time>2026-04-19T08:05:45.298Z</time></trkpt><trkpt lat="45.8038378" lon="11.3625909"><ele>301.0</ele><time>2026-04-19T08:05:46.294Z</time></trkpt><trkpt lat="45.8039309" lon="11.3623353"><ele>303.3333333333333</ele><time>2026-04-19T08:05:47.3Z</time></trkpt><trkpt lat="45.8040117" lon="11.36207"><ele>305.6666666666667</ele><time>2026-04-19T08:05:48.286Z</time></trkpt><trkpt lat="45.8041186" lon="11.3618347"><ele>308.0</ele><time>2026-04-19T08:05:49.292Z</time></trkpt><trkpt lat="45.8042203" lon="11.3616042"><ele>308.0</ele><time>2026-04-19T08:05:50.298Z</time></trkpt><trkpt lat="45.8043211" lon="11.3613833"><ele>308.0</ele><time>2026-04-19T08:05:51.288Z</time></trkpt><trkpt lat="45.8044174" lon="11.3611628"><ele>308.0</ele><time>2026-04-19T08:05:52.277Z</time></trkpt><trkpt lat="45.8045075" lon="11.3609485"><ele>308.33333333333337</ele><time>2026-04-19T08:05:53.288Z</time></trkpt><trkpt lat="45.8045906" lon="11.3607406"><ele>308.6666666666667</ele><time>2026-04-19T08:05:54.297Z</time></trkpt><trkpt lat="45.8046725" lon="11.3605533"><ele>309.0</ele><time>2026-04-19T08:05:55.303Z</time></trkpt><trkpt lat="45.8047462" lon="11.3603832"><ele>309.2</ele><time>2026-04-19T08:05:56.279Z</time></trkpt><trkpt lat="45.8048253" lon="11.3602392"><ele>309.4</ele><time>2026-04-19T08:05:57.29Z</time></trkpt><trkpt lat="45.8049" lon="11.3601145"><ele>309.6</ele><time>2026-04-19T08:05:58.293Z</time></trkpt><trkpt lat="45.8049663" lon="11.360004"><ele>309.8</ele><time>2026-04-19T08:05:59.287Z</time></trkpt><trkpt lat="45.805032" lon="11.3599155"><ele>310.0</ele><time>2026-04-19T08:06:00.296Z</time></trkpt><trkpt lat="45.8050846" lon="11.3598279"><ele>310.0</ele><time>2026-04-19T08:06:01.307Z</time></trkpt><trkpt lat="45.8051419" lon="11.359753"><ele>310.0</ele><time>2026-04-19T08:06:02.292Z</time></trkpt><trkpt lat="45.8052102" lon="11.3596887"><ele>310.0</ele><time>2026-04-19T08:06:03.301Z</time></trkpt><trkpt lat="45.8052826" lon="11.3596238"><ele>310.0</ele><time>2026-04-19T08:06:04.281Z</time></trkpt><trkpt lat="45.8053695" lon="11.3595786"><ele>310.0</ele><time>2026-04-19T08:06:05.298Z</time></trkpt><trkpt lat="45.8054524" lon="11.3595152"><ele>310.0</ele><time>2026-04-19T08:06:06.286Z</time></trkpt><trkpt lat="45.8055386" lon="11.3594574"><ele>310.0</ele><time>2026-04-19T08:06:07.281Z</time></trkpt><trkpt lat="45.8056142" lon="11.3593919"><ele>310.0</ele><time>2026-04-19T08:06:08.294Z</time></trkpt><trkpt lat="45.8056905" lon="11.3593517"><ele>310.0</ele><time>2026-04-19T08:06:09.282Z</time></trkpt><trkpt lat="45.8057614" lon="11.3593197"><ele>310.0</ele><time>2026-04-19T08:06:10.289Z</time></trkpt><trkpt lat="45.805827" lon="11.3592925"><ele>310.0</ele><time>2026-04-19T08:06:11.301Z</time></trkpt><trkpt lat="45.8058899" lon="11.3592817"><ele>310.0</ele><time>2026-04-19T08:06:12.294Z</time></trkpt><trkpt lat="45.805983" lon="11.3592778"><ele>310.16666666666663</ele><time>2026-04-19T08:06:14.288Z</time></trkpt><trkpt lat="45.8060585" lon="11.3592584"><ele>310.3333333333333</ele><time>2026-04-19T08:06:16.286Z</time></trkpt><trkpt lat="45.806103" lon="11.3591607"><ele>310.5</ele><time>2026-04-19T08:06:18.3Z</time></trkpt><trkpt lat="45.8061428" lon="11.3590566"><ele>310.6666666666667</ele><time>2026-04-19T08:07:54.283Z</time></trkpt><trkpt lat="45.8060879" lon="11.3589958"><ele>310.83333333333337</ele><time>2026-04-19T08:08:52.286Z</time></trkpt><trkpt lat="45.8061208" lon="11.3588658"><ele>311.0</ele><time>2026-04-19T08:08:55.283Z</time></trkpt><trkpt lat="45.806154" lon="11.3587328"><ele>311.0</ele><time>2026-04-19T08:08:57.273Z</time></trkpt><trkpt lat="45.8061493" lon="11.3586272"><ele>311.0</ele><time>2026-04-19T08:08:59.288Z</time></trkpt><trkpt lat="45.8061898" lon="11.3585204"><ele>311.0</ele><time>2026-04-19T08:09:03.296Z</time></trkpt><trkpt lat="45.8062771" lon="11.3585323"><ele>311.0</ele><time>2026-04-19T08:09:05.281Z</time></trkpt><trkpt lat="45.8063463" lon="11.3585993"><ele>311.0</ele><time>2026-04-19T08:09:06.286Z</time></trkpt><trkpt lat="45.8064344" lon="11.3586902"><ele>311.0</ele><time>2026-04-19T08:09:07.298Z</time></trkpt><trkpt lat="45.8065457" lon="11.3587929"><ele>311.0</ele><time>2026-04-19T08:09:08.288Z</time></trkpt><trkpt lat="45.8066653" lon="11.3588931"><ele>311.0</ele><time>2026-04-19T08:09:09.289Z</time></trkpt><trkpt lat="45.8067725" lon="11.3589871"><ele>311.0</ele><time>2026-04-19T08:09:10.309Z</time></trkpt><trkpt lat="45.8068667" lon="11.3590677"><ele>311.0</ele><time>2026-04-19T08:09:11.318Z</time></trkpt><trkpt lat="45.8069516" lon="11.3591402"><ele>311.0</ele><time>2026-04-19T08:09:12.293Z</time></trkpt><trkpt lat="45.8070141" lon="11.3592148"><ele>311.0</ele><time>2026-04-19T08:09:13.288Z</time></trkpt><trkpt lat="45.807052" lon="11.3592969"><ele>311.0</ele><time>2026-04-19T08:09:14.283Z</time></trkpt><trkpt lat="45.8070582" lon="11.3594249"><ele>311.0</ele><time>2026-04-19T08:09:16.28Z</time></trkpt><trkpt lat="45.8070913" lon="11.3595492"><ele>311.0</ele><time>2026-04-19T08:09:18.285Z</time></trkpt><trkpt lat="45.8071684" lon="11.3596364"><ele>311.0</ele><time>2026-04-19T08:09:19.308Z</time></trkpt><trkpt lat="45.8072798" lon="11.3596948"><ele>310.8</ele><time>2026-04-19T08:09:20.282Z</time></trkpt><trkpt lat="45.8073865" lon="11.3597478"><ele>310.6</ele><time>2026-04-19T08:09:21.282Z</time></trkpt><trkpt lat="45.807487" lon="11.3597968"><ele>310.4</ele><time>2026-04-19T08:09:22.289Z</time></trkpt><trkpt lat="45.8075817" lon="11.3598449"><ele>310.2</ele><time>2026-04-19T08:09:23.297Z</time></trkpt><trkpt lat="45.8076719" lon="11.3598918"><ele>310.0</ele><time>2026-04-19T08:09:24.286Z</time></trkpt><trkpt lat="45.8077579" lon="11.359937"><ele>310.0</ele><time>2026-04-19T08:09:25.287Z</time></trkpt><trkpt lat="45.8078409" lon="11.3599778"><ele>310.0</ele><time>2026-04-19T08:09:26.292Z</time></trkpt><trkpt lat="45.807921" lon="11.3600237"><ele>310.0</ele><time>2026-04-19T08:09:27.306Z</time></trkpt><trkpt lat="45.807999" lon="11.3600686"><ele>310.0</ele><time>2026-04-19T08:09:28.29Z</time></trkpt><trkpt lat="45.8080747" lon="11.3601106"><ele>310.0</ele><time>2026-04-19T08:09:29.295Z</time></trkpt><trkpt lat="45.8081479" lon="11.3601488"><ele>310.0</ele><time>2026-04-19T08:09:30.293Z</time></trkpt><trkpt lat="45.8082188" lon="11.360182"><ele>310.0</ele><time>2026-04-19T08:09:31.31Z</time></trkpt><trkpt lat="45.8082863" lon="11.360218"><ele>310.0</ele><time>2026-04-19T08:09:32.293Z</time></trkpt><trkpt lat="45.8083544" lon="11.3602536"><ele>310.0</ele><time>2026-04-19T08:09:33.303Z</time></trkpt><trkpt lat="45.8084242" lon="11.3602869"><ele>310.0</ele><time>2026-04-19T08:09:34.283Z</time></trkpt><trkpt lat="45.8084941" lon="11.360334"><ele>310.0</ele><time>2026-04-19T08:09:35.289Z</time></trkpt><trkpt lat="45.808568" lon="11.3603742"><ele>310.0</ele><time>2026-04-19T08:09:36.281Z</time></trkpt><trkpt lat="45.8086437" lon="11.3604218"><ele>310.2</ele><time>2026-04-19T08:09:37.302Z</time></trkpt><trkpt lat="45.8087279" lon="11.3604676"><ele>310.4</ele><time>2026-04-19T08:09:38.293Z</time></trkpt><trkpt lat="45.8088212" lon="11.3605179"><ele>310.6</ele><time>2026-04-19T08:09:39.291Z</time></trkpt><trkpt lat="45.8089268" lon="11.3605684"><ele>310.8</ele><time>2026-04-19T08:09:40.291Z</time></trkpt><trkpt lat="45.8090423" lon="11.3606342"><ele>311.0</ele><time>2026-04-19T08:09:41.313Z</time></trkpt><trkpt lat="45.8091679" lon="11.3607186"><ele>311.0</ele><time>2026-04-19T08:09:42.309Z</time></trkpt><trkpt lat="45.8093031" lon="11.360803"><ele>311.0</ele><time>2026-04-19T08:09:43.286Z</time></trkpt><trkpt lat="45.8094435" lon="11.3608871"><ele>311.0</ele><time>2026-04-19T08:09:44.29Z</time></trkpt><trkpt lat="45.8095903" lon="11.3609703"><ele>312.0</ele><time>2026-04-19T08:09:45.308Z</time></trkpt><trkpt lat="45.8097454" lon="11.3610569"><ele>313.0</ele><time>2026-04-19T08:09:46.312Z</time></trkpt><trkpt lat="45.8099016" lon="11.361152"><ele>314.0</ele><time>2026-04-19T08:09:47.294Z</time></trkpt><trkpt lat="45.8100642" lon="11.3612493"><ele>314.0</ele><time>2026-04-19T08:09:48.292Z</time></trkpt><trkpt lat="45.8102274" lon="11.3613364"><ele>314.0</ele><time>2026-04-19T08:09:49.302Z</time></trkpt><trkpt lat="45.8103878" lon="11.3614286"><ele>314.0</ele><time>2026-04-19T08:09:50.3Z</time></trkpt><trkpt lat="45.8105465" lon="11.3615172"><ele>314.0</ele><time>2026-04-19T08:09:51.292Z</time></trkpt><trkpt lat="45.8107061" lon="11.3616118"><ele>314.0</ele><time>2026-04-19T08:09:52.293Z</time></trkpt><trkpt lat="45.8108765" lon="11.3616964"><ele>314.0</ele><time>2026-04-19T08:09:53.293Z</time></trkpt><trkpt lat="45.8110503" lon="11.3617895"><ele>314.6666666666667</ele><time>2026-04-19T08:09:54.286Z</time></trkpt><trkpt lat="45.8112303" lon="11.361891"><ele>315.3333333333333</ele><time>2026-04-19T08:09:55.297Z</time></trkpt><trkpt lat="45.8114141" lon="11.3619893"><ele>316.0</ele><time>2026-04-19T08:09:56.289Z</time></trkpt><trkpt lat="45.8115986" lon="11.362091"><ele>316.0</ele><time>2026-04-19T08:09:57.307Z</time></trkpt><trkpt lat="45.8117804" lon="11.3621964"><ele>316.0</ele><time>2026-04-19T08:09:58.287Z</time></trkpt><trkpt lat="45.8119631" lon="11.362296"><ele>316.0</ele><time>2026-04-19T08:09:59.297Z</time></trkpt><trkpt lat="45.8121413" lon="11.3623843"><ele>315.3333333333333</ele><time>2026-04-19T08:10:00.283Z</time></trkpt><trkpt lat="45.8123048" lon="11.3624832"><ele>314.6666666666667</ele><time>2026-04-19T08:10:01.308Z</time></trkpt><trkpt lat="45.8124532" lon="11.3625783"><ele>314.0</ele><time>2026-04-19T08:10:02.284Z</time></trkpt><trkpt lat="45.8125947" lon="11.3626514"><ele>316.5</ele><time>2026-04-19T08:10:03.293Z</time></trkpt><trkpt lat="45.8127256" lon="11.3627288"><ele>319.0</ele><time>2026-04-19T08:10:04.297Z</time></trkpt><trkpt lat="45.8128537" lon="11.3628036"><ele>321.5</ele><time>2026-04-19T08:10:05.294Z</time></trkpt><trkpt lat="45.8129848" lon="11.3628749"><ele>324.0</ele><time>2026-04-19T08:10:06.309Z</time></trkpt><trkpt lat="45.8131188" lon="11.362953"><ele>323.3333333333333</ele><time>2026-04-19T08:10:07.301Z</time></trkpt><trkpt lat="45.8132571" lon="11.3630321"><ele>322.66666666666663</ele><time>2026-04-19T08:10:08.3Z</time></trkpt><trkpt lat="45.813399" lon="11.3631082"><ele>322.0</ele><time>2026-04-19T08:10:09.304Z</time></trkpt><trkpt lat="45.813542" lon="11.3631864"><ele>322.0</ele><time>2026-04-19T08:10:10.293Z</time></trkpt><trkpt lat="45.8136854" lon="11.3632563"><ele>322.0</ele><time>2026-04-19T08:10:11.285Z</time></trkpt><trkpt lat="45.8138221" lon="11.3633291"><ele>322.0</ele><time>2026-04-19T08:10:12.291Z</time></trkpt><trkpt lat="45.8139594" lon="11.3633809"><ele>322.0</ele><time>2026-04-19T08:10:13.299Z</time></trkpt><trkpt lat="45.8140989" lon="11.363423"><ele>322.0</ele><time>2026-04-19T08:10:14.296Z</time></trkpt><trkpt lat="45.8142434" lon="11.3634505"><ele>322.0</ele><time>2026-04-19T08:10:15.316Z</time></trkpt><trkpt lat="45.8143913" lon="11.3634699"><ele>322.0</ele><time>2026-04-19T08:10:16.292Z</time></trkpt><trkpt lat="45.8145387" lon="11.3634519"><ele>322.0</ele><time>2026-04-19T08:10:17.304Z</time></trkpt><trkpt lat="45.8146854" lon="11.3634173"><ele>323.0</ele><time>2026-04-19T08:10:18.287Z</time></trkpt><trkpt lat="45.8148304" lon="11.3633685"><ele>324.0</ele><time>2026-04-19T08:10:19.284Z</time></trkpt><trkpt lat="45.8149758" lon="11.363313"><ele>325.0</ele><time>2026-04-19T08:10:20.301Z</time></trkpt><trkpt lat="45.815121" lon="11.3632529"><ele>324.66666666666663</ele><time>2026-04-19T08:10:21.301Z</time></trkpt><trkpt lat="45.8152698" lon="11.3632069"><ele>324.3333333333333</ele><time>2026-04-19T08:10:22.281Z</time></trkpt><trkpt lat="45.815418" lon="11.3631555"><ele>324.0</ele><time>2026-04-19T08:10:23.297Z</time></trkpt><trkpt lat="45.8155656" lon="11.3631008"><ele>324.0</ele><time>2026-04-19T08:10:24.283Z</time></trkpt><trkpt lat="45.815716" lon="11.363052"><ele>324.0</ele><time>2026-04-19T08:10:25.288Z</time></trkpt><trkpt lat="45.8158706" lon="11.363028"><ele>324.0</ele><time>2026-04-19T08:10:26.292Z</time></trkpt><trkpt lat="45.8160188" lon="11.3630091"><ele>333.6666666666667</ele><time>2026-04-19T08:10:27.302Z</time></trkpt><trkpt lat="45.8161668" lon="11.3629923"><ele>343.33333333333337</ele><time>2026-04-19T08:10:28.283Z</time></trkpt><trkpt lat="45.8163178" lon="11.3629987"><ele>353.0</ele><time>2026-04-19T08:10:29.291Z</time></trkpt><trkpt lat="45.8164719" lon="11.3630083"><ele>353.0</ele><time>2026-04-19T08:10:30.302Z</time></trkpt><trkpt lat="45.8166309" lon="11.3630293"><ele>353.0</ele><time>2026-04-19T08:10:31.292Z</time></trkpt><trkpt lat="45.8167925" lon="11.3630541"><ele>353.0</ele><time>2026-04-19T08:10:32.303Z</time></trkpt><trkpt lat="45.8169544" lon="11.3630914"><ele>347.0</ele><time>2026-04-19T08:10:33.299Z</time></trkpt><trkpt lat="45.8171133" lon="11.3631562"><ele>341.0</ele><time>2026-04-19T08:10:34.287Z</time></trkpt><trkpt lat="45.8172708" lon="11.3632053"><ele>335.0</ele><time>2026-04-19T08:10:35.309Z</time></trkpt><trkpt lat="45.817425" lon="11.363236"><ele>335.0</ele><time>2026-04-19T08:10:36.284Z</time></trkpt><trkpt lat="45.8175718" lon="11.3632779"><ele>335.0</ele><time>2026-04-19T08:10:37.284Z</time></trkpt><trkpt lat="45.8177217" lon="11.3633022"><ele>335.0</ele><time>2026-04-19T08:10:38.29Z</time></trkpt><trkpt lat="45.8178697" lon="11.363299"><ele>335.0</ele><time>2026-04-19T08:10:39.282Z</time></trkpt><trkpt lat="45.8180174" lon="11.3632969"><ele>337.75</ele><time>2026-04-19T08:10:40.299Z</time></trkpt><trkpt lat="45.8181648" lon="11.3632925"><ele>340.5</ele><time>2026-04-19T08:10:41.285Z</time></trkpt><trkpt lat="45.8183091" lon="11.3633114"><ele>343.25</ele><time>2026-04-19T08:10:42.288Z</time></trkpt><trkpt lat="45.8184579" lon="11.363356"><ele>346.0</ele><time>2026-04-19T08:10:43.289Z</time></trkpt><trkpt lat="45.8186093" lon="11.3634475"><ele>351.0</ele><time>2026-04-19T08:10:44.288Z</time></trkpt><trkpt lat="45.8187562" lon="11.3635677"><ele>356.0</ele><time>2026-04-19T08:10:45.316Z</time></trkpt><trkpt lat="45.8188983" lon="11.3637143"><ele>361.0</ele><time>2026-04-19T08:10:46.29Z</time></trkpt><trkpt lat="45.8190563" lon="11.3638483"><ele>351.3333333333333</ele><time>2026-04-19T08:10:47.299Z</time></trkpt><trkpt lat="45.8192201" lon="11.3639967"><ele>341.6666666666667</ele><time>2026-04-19T08:10:48.288Z</time></trkpt><trkpt lat="45.8194201" lon="11.3640826"><ele>332.0</ele><time>2026-04-19T08:10:49.314Z</time></trkpt><trkpt lat="45.8196388" lon="11.3641508"><ele>332.0</ele><time>2026-04-19T08:10:50.308Z</time></trkpt><trkpt lat="45.8198643" lon="11.3642655"><ele>332.0</ele><time>2026-04-19T08:10:51.314Z</time></trkpt><trkpt lat="45.8200887" lon="11.3644109"><ele>337.5</ele><time>2026-04-19T08:10:52.291Z</time></trkpt><trkpt lat="45.8203189" lon="11.364547"><ele>343.0</ele><time>2026-04-19T08:10:53.287Z</time></trkpt><trkpt lat="45.8205498" lon="11.364681"><ele>340.5</ele><time>2026-04-19T08:10:54.277Z</time></trkpt><trkpt lat="45.8207823" lon="11.3648273"><ele>338.0</ele><time>2026-04-19T08:10:55.292Z</time></trkpt><trkpt lat="45.8210145" lon="11.3649659"><ele>338.0</ele><time>2026-04-19T08:10:56.269Z</time></trkpt><trkpt lat="45.821234" lon="11.3651237"><ele>338.0</ele><time>2026-04-19T08:10:57.28Z</time></trkpt><trkpt lat="45.8214502" lon="11.3652606"><ele>338.0</ele><time>2026-04-19T08:10:58.276Z</time></trkpt><trkpt lat="45.8216597" lon="11.3653923"><ele>338.0</ele><time>2026-04-19T08:10:59.29Z</time></trkpt><trkpt lat="45.8218662" lon="11.3655028"><ele>338.0</ele><time>2026-04-19T08:11:00.282Z</time></trkpt><trkpt lat="45.8220607" lon="11.3656197"><ele>335.33333333333337</ele><time>2026-04-19T08:11:01.279Z</time></trkpt><trkpt lat="45.822246" lon="11.3657311"><ele>332.6666666666667</ele><time>2026-04-19T08:11:02.288Z</time></trkpt><trkpt lat="45.8224229" lon="11.3658457"><ele>330.0</ele><time>2026-04-19T08:11:03.271Z</time></trkpt><trkpt lat="45.8225975" lon="11.3659512"><ele>331.3333333333333</ele><time>2026-04-19T08:11:04.303Z</time></trkpt><trkpt lat="45.8227615" lon="11.3660745"><ele>332.66666666666663</ele><time>2026-04-19T08:11:05.3Z</time></trkpt><trkpt lat="45.8229262" lon="11.3661814"><ele>334.0</ele><time>2026-04-19T08:11:06.271Z</time></trkpt><trkpt lat="45.8230852" lon="11.366294"><ele>332.66666666666663</ele><time>2026-04-19T08:11:07.313Z</time></trkpt><trkpt lat="45.82323" lon="11.3664299"><ele>331.3333333333333</ele><time>2026-04-19T08:11:08.291Z</time></trkpt><trkpt lat="45.8233799" lon="11.3665366"><ele>330.0</ele><time>2026-04-19T08:11:09.276Z</time></trkpt><trkpt lat="45.8235249" lon="11.3666456"><ele>330.0</ele><time>2026-04-19T08:11:10.281Z</time></trkpt><trkpt lat="45.8236722" lon="11.3667481"><ele>330.0</ele><time>2026-04-19T08:11:11.282Z</time></trkpt><trkpt lat="45.823813" lon="11.3668655"><ele>330.0</ele><time>2026-04-19T08:11:12.286Z</time></trkpt><trkpt lat="45.8239566" lon="11.3669831"><ele>330.0</ele><time>2026-04-19T08:11:13.281Z</time></trkpt><trkpt lat="45.824097" lon="11.3671074"><ele>330.0</ele><time>2026-04-19T08:11:14.293Z</time></trkpt><trkpt lat="45.8242395" lon="11.3672154"><ele>330.0</ele><time>2026-04-19T08:11:15.278Z</time></trkpt><trkpt lat="45.8243816" lon="11.367322"><ele>328.0</ele><time>2026-04-19T08:11:16.289Z</time></trkpt><trkpt lat="45.824523" lon="11.3674234"><ele>326.0</ele><time>2026-04-19T08:11:17.29Z</time></trkpt><trkpt lat="45.8246644" lon="11.3675159"><ele>324.0</ele><time>2026-04-19T08:11:18.295Z</time></trkpt><trkpt lat="45.8248055" lon="11.3676068"><ele>324.0</ele><time>2026-04-19T08:11:19.3Z</time></trkpt><trkpt lat="45.8249519" lon="11.3676907"><ele>324.0</ele><time>2026-04-19T08:11:20.29Z</time></trkpt><trkpt lat="45.8251023" lon="11.3677757"><ele>324.0</ele><time>2026-04-19T08:11:21.275Z</time></trkpt><trkpt lat="45.8252528" lon="11.3678759"><ele>321.3333333333333</ele><time>2026-04-19T08:11:22.301Z</time></trkpt><trkpt lat="45.825408" lon="11.3679701"><ele>318.66666666666663</ele><time>2026-04-19T08:11:23.285Z</time></trkpt><trkpt lat="45.8255658" lon="11.3680565"><ele>316.0</ele><time>2026-04-19T08:11:24.291Z</time></trkpt><trkpt lat="45.8257219" lon="11.3681384"><ele>316.0</ele><time>2026-04-19T08:11:25.282Z</time></trkpt><trkpt lat="45.8258732" lon="11.3682205"><ele>316.0</ele><time>2026-04-19T08:11:26.271Z</time></trkpt><trkpt lat="45.8260183" lon="11.3683122"><ele>316.0</ele><time>2026-04-19T08:11:27.29Z</time></trkpt><trkpt lat="45.8261631" lon="11.3683946"><ele>321.3333333333333</ele><time>2026-04-19T08:11:28.273Z</time></trkpt><trkpt lat="45.826302" lon="11.3684836"><ele>326.6666666666667</ele><time>2026-04-19T08:11:29.293Z</time></trkpt><trkpt lat="45.8264454" lon="11.368561"><ele>332.0</ele><time>2026-04-19T08:11:30.283Z</time></trkpt><trkpt lat="45.8265928" lon="11.3686316"><ele>332.0</ele><time>2026-04-19T08:11:31.306Z</time></trkpt><trkpt lat="45.8267439" lon="11.3686995"><ele>332.0</ele><time>2026-04-19T08:11:32.285Z</time></trkpt><trkpt lat="45.8268993" lon="11.3687522"><ele>332.0</ele><time>2026-04-19T08:11:33.284Z</time></trkpt><trkpt lat="45.8270564" lon="11.3687949"><ele>337.33333333333337</ele><time>2026-04-19T08:11:34.291Z</time></trkpt><trkpt lat="45.8272149" lon="11.368818"><ele>342.6666666666667</ele><time>2026-04-19T08:11:35.282Z</time></trkpt><trkpt lat="45.8273796" lon="11.3688378"><ele>348.0</ele><time>2026-04-19T08:11:36.272Z</time></trkpt><trkpt lat="45.8275464" lon="11.3688378"><ele>350.6666666666667</ele><time>2026-04-19T08:11:37.289Z</time></trkpt><trkpt lat="45.8277177" lon="11.3688448"><ele>353.33333333333337</ele><time>2026-04-19T08:11:38.278Z</time></trkpt><trkpt lat="45.8278922" lon="11.3688407"><ele>356.0</ele><time>2026-04-19T08:11:39.278Z</time></trkpt><trkpt lat="45.828067" lon="11.3688279"><ele>356.0</ele><time>2026-04-19T08:11:40.285Z</time></trkpt><trkpt lat="45.8282388" lon="11.3688443"><ele>356.0</ele><time>2026-04-19T08:11:41.287Z</time></trkpt><trkpt lat="45.8284072" lon="11.3688645"><ele>356.0</ele><time>2026-04-19T08:11:42.295Z</time></trkpt><trkpt lat="45.8285726" lon="11.3688761"><ele>337.0</ele><time>2026-04-19T08:11:43.281Z</time></trkpt><trkpt lat="45.8287366" lon="11.3688779"><ele>318.0</ele><time>2026-04-19T08:11:44.287Z</time></trkpt><trkpt lat="45.8289007" lon="11.3688774"><ele>299.0</ele><time>2026-04-19T08:11:45.279Z</time></trkpt><trkpt lat="45.8290656" lon="11.3688602"><ele>318.6666666666667</ele><time>2026-04-19T08:11:46.278Z</time></trkpt><trkpt lat="45.8292283" lon="11.3688303"><ele>338.3333333333333</ele><time>2026-04-19T08:11:47.279Z</time></trkpt><trkpt lat="45.829393" lon="11.3687821"><ele>358.0</ele><time>2026-04-19T08:11:48.281Z</time></trkpt><trkpt lat="45.8295519" lon="11.3687326"><ele>360.66666666666663</ele><time>2026-04-19T08:11:49.287Z</time></trkpt><trkpt lat="45.829696" lon="11.3687031"><ele>363.3333333333333</ele><time>2026-04-19T08:11:50.27Z</time></trkpt><trkpt lat="45.829847" lon="11.368704"><ele>366.0</ele><time>2026-04-19T08:11:51.279Z</time></trkpt><trkpt lat="45.8299999" lon="11.3687345"><ele>369.6666666666667</ele><time>2026-04-19T08:11:52.283Z</time></trkpt><trkpt lat="45.8301531" lon="11.3687806"><ele>373.33333333333337</ele><time>2026-04-19T08:11:53.283Z</time></trkpt><trkpt lat="45.8303126" lon="11.3688379"><ele>377.0</ele><time>2026-04-19T08:11:54.264Z</time></trkpt><trkpt lat="45.8304714" lon="11.3689051"><ele>355.0</ele><time>2026-04-19T08:11:55.289Z</time></trkpt><trkpt lat="45.8306288" lon="11.3689573"><ele>333.0</ele><time>2026-04-19T08:11:56.282Z</time></trkpt><trkpt lat="45.8307833" lon="11.3689959"><ele>311.0</ele><time>2026-04-19T08:11:57.276Z</time></trkpt><trkpt lat="45.8309344" lon="11.3690226"><ele>314.0</ele><time>2026-04-19T08:11:58.282Z</time></trkpt><trkpt lat="45.8310808" lon="11.3690428"><ele>317.0</ele><time>2026-04-19T08:11:59.275Z</time></trkpt><trkpt lat="45.8312171" lon="11.3690766"><ele>320.0</ele><time>2026-04-19T08:12:00.267Z</time></trkpt><trkpt lat="45.8313478" lon="11.3691144"><ele>323.0</ele><time>2026-04-19T08:12:01.288Z</time></trkpt><trkpt lat="45.8314771" lon="11.3691461"><ele>323.0</ele><time>2026-04-19T08:12:02.262Z</time></trkpt><trkpt lat="45.8316031" lon="11.3691997"><ele>323.0</ele><time>2026-04-19T08:12:03.277Z</time></trkpt><trkpt lat="45.8317261" lon="11.369286"><ele>323.0</ele><time>2026-04-19T08:12:04.292Z</time></trkpt><trkpt lat="45.8318495" lon="11.3693814"><ele>323.0</ele><time>2026-04-19T08:12:05.293Z</time></trkpt><trkpt lat="45.8319808" lon="11.3694647"><ele>324.0</ele><time>2026-04-19T08:12:06.274Z</time></trkpt><trkpt lat="45.8321115" lon="11.3695463"><ele>325.0</ele><time>2026-04-19T08:12:07.29Z</time></trkpt><trkpt lat="45.8322445" lon="11.3696085"><ele>326.0</ele><time>2026-04-19T08:12:08.293Z</time></trkpt><trkpt lat="45.8323752" lon="11.3696676"><ele>327.0</ele><time>2026-04-19T08:12:09.288Z</time></trkpt><trkpt lat="45.8325087" lon="11.3697103"><ele>320.25</ele><time>2026-04-19T08:12:10.274Z</time></trkpt><trkpt lat="45.8326436" lon="11.3697483"><ele>313.5</ele><time>2026-04-19T08:12:11.291Z</time></trkpt><trkpt lat="45.8327799" lon="11.3697691"><ele>306.75</ele><time>2026-04-19T08:12:12.285Z</time></trkpt><trkpt lat="45.8329134" lon="11.3697856"><ele>300.0</ele><time>2026-04-19T08:12:13.276Z</time></trkpt><trkpt lat="45.8330427" lon="11.3697977"><ele>300.0</ele><time>2026-04-19T08:12:14.262Z</time></trkpt><trkpt lat="45.8332112" lon="11.369793"><ele>300.0</ele><time>2026-04-19T08:12:15.287Z</time></trkpt><trkpt lat="45.8333389" lon="11.3697673"><ele>300.0</ele><time>2026-04-19T08:12:16.282Z</time></trkpt><trkpt lat="45.8334617" lon="11.3697486"><ele>300.0</ele><time>2026-04-19T08:12:17.286Z</time></trkpt><trkpt lat="45.8335813" lon="11.3697188"><ele>305.25</ele><time>2026-04-19T08:12:18.276Z</time></trkpt><trkpt lat="45.8336979" lon="11.3696527"><ele>310.5</ele><time>2026-04-19T08:12:19.287Z</time></trkpt><trkpt lat="45.8338143" lon="11.3695688"><ele>315.75</ele><time>2026-04-19T08:12:20.287Z</time></trkpt><trkpt lat="45.833937" lon="11.3694879"><ele>321.0</ele><time>2026-04-19T08:12:21.276Z</time></trkpt><trkpt lat="45.8340712" lon="11.3694317"><ele>321.0</ele><time>2026-04-19T08:12:22.278Z</time></trkpt><trkpt lat="45.8342123" lon="11.3693976"><ele>321.0</ele><time>2026-04-19T08:12:23.269Z</time></trkpt><trkpt lat="45.8343638" lon="11.3693995"><ele>321.0</ele><time>2026-04-19T08:12:24.261Z</time></trkpt><trkpt lat="45.8345189" lon="11.3694321"><ele>326.0</ele><time>2026-04-19T08:12:25.275Z</time></trkpt><trkpt lat="45.8346748" lon="11.3694748"><ele>331.0</ele><time>2026-04-19T08:12:26.288Z</time></trkpt><trkpt lat="45.8348329" lon="11.3695147"><ele>336.0</ele><time>2026-04-19T08:12:27.284Z</time></trkpt><trkpt lat="45.8349898" lon="11.3695486"><ele>340.3333333333333</ele><time>2026-04-19T08:12:28.282Z</time></trkpt><trkpt lat="45.8351458" lon="11.3695713"><ele>344.66666666666663</ele><time>2026-04-19T08:12:29.279Z</time></trkpt><trkpt lat="45.8353018" lon="11.369596"><ele>349.0</ele><time>2026-04-19T08:12:30.288Z</time></trkpt><trkpt lat="45.8354559" lon="11.3696287"><ele>349.0</ele><time>2026-04-19T08:12:31.28Z</time></trkpt><trkpt lat="45.8356114" lon="11.3696648"><ele>349.0</ele><time>2026-04-19T08:12:32.29Z</time></trkpt><trkpt lat="45.8357654" lon="11.3697024"><ele>349.0</ele><time>2026-04-19T08:12:33.287Z</time></trkpt><trkpt lat="45.835918" lon="11.3697452"><ele>339.3333333333333</ele><time>2026-04-19T08:12:34.278Z</time></trkpt><trkpt lat="45.8360765" lon="11.3697826"><ele>329.6666666666667</ele><time>2026-04-19T08:12:35.27Z</time></trkpt><trkpt lat="45.8362357" lon="11.3698237"><ele>320.0</ele><time>2026-04-19T08:12:36.291Z</time></trkpt><trkpt lat="45.8363879" lon="11.3699055"><ele>320.0</ele><time>2026-04-19T08:12:37.278Z</time></trkpt><trkpt lat="45.8365439" lon="11.3699619"><ele>320.0</ele><time>2026-04-19T08:12:38.28Z</time></trkpt><trkpt lat="45.8366928" lon="11.3700438"><ele>320.0</ele><time>2026-04-19T08:12:39.3Z</time></trkpt><trkpt lat="45.8368394" lon="11.3701095"><ele>321.75</ele><time>2026-04-19T08:12:40.276Z</time></trkpt><trkpt lat="45.8369891" lon="11.3701423"><ele>323.5</ele><time>2026-04-19T08:12:41.264Z</time></trkpt><trkpt lat="45.8371321" lon="11.3701842"><ele>325.25</ele><time>2026-04-19T08:12:42.291Z</time></trkpt><trkpt lat="45.8372717" lon="11.3702341"><ele>327.0</ele><time>2026-04-19T08:12:43.282Z</time></trkpt><trkpt lat="45.8374128" lon="11.3702663"><ele>327.0</ele><time>2026-04-19T08:12:44.289Z</time></trkpt><trkpt lat="45.8375545" lon="11.3703117"><ele>327.0</ele><time>2026-04-19T08:12:45.27Z</time></trkpt><trkpt lat="45.8376992" lon="11.3703554"><ele>327.0</ele><time>2026-04-19T08:12:46.3Z</time></trkpt><trkpt lat="45.8378411" lon="11.3704015"><ele>327.0</ele><time>2026-04-19T08:12:47.296Z</time></trkpt><trkpt lat="45.8379843" lon="11.3704399"><ele>326.5</ele><time>2026-04-19T08:12:48.283Z</time></trkpt><trkpt lat="45.8381314" lon="11.3704592"><ele>326.0</ele><time>2026-04-19T08:12:49.274Z</time></trkpt><trkpt lat="45.8382797" lon="11.3704733"><ele>325.5</ele><time>2026-04-19T08:12:50.285Z</time></trkpt><trkpt lat="45.8384274" lon="11.3704747"><ele>325.0</ele><time>2026-04-19T08:12:51.277Z</time></trkpt><trkpt lat="45.8385688" lon="11.3704685"><ele>325.0</ele><time>2026-04-19T08:12:52.287Z</time></trkpt><trkpt lat="45.8387107" lon="11.3704738"><ele>325.0</ele><time>2026-04-19T08:12:53.294Z</time></trkpt><trkpt lat="45.8388551" lon="11.3704718"><ele>325.0</ele><time>2026-04-19T08:12:54.291Z</time></trkpt><trkpt lat="45.8389992" lon="11.3704675"><ele>325.0</ele><time>2026-04-19T08:12:55.279Z</time></trkpt><trkpt lat="45.8391414" lon="11.3704528"><ele>325.0</ele><time>2026-04-19T08:12:56.289Z</time></trkpt><trkpt lat="45.8392829" lon="11.3704252"><ele>325.0</ele><time>2026-04-19T08:12:57.285Z</time></trkpt><trkpt lat="45.8394226" lon="11.3703545"><ele>325.0</ele><time>2026-04-19T08:12:58.279Z</time></trkpt><trkpt lat="45.8395611" lon="11.3702749"><ele>325.0</ele><time>2026-04-19T08:12:59.289Z</time></trkpt><trkpt lat="45.839696" lon="11.3701715"><ele>317.3333333333333</ele><time>2026-04-19T08:13:00.285Z</time></trkpt><trkpt lat="45.8398311" lon="11.3700666"><ele>309.6666666666667</ele><time>2026-04-19T08:13:01.283Z</time></trkpt><trkpt lat="45.8399742" lon="11.3699623"><ele>302.0</ele><time>2026-04-19T08:13:02.276Z</time></trkpt><trkpt lat="45.8401173" lon="11.369845"><ele>302.33333333333337</ele><time>2026-04-19T08:13:03.284Z</time></trkpt><trkpt lat="45.8402637" lon="11.3697072"><ele>302.6666666666667</ele><time>2026-04-19T08:13:04.28Z</time></trkpt><trkpt lat="45.8404126" lon="11.3695701"><ele>303.0</ele><time>2026-04-19T08:13:05.272Z</time></trkpt><trkpt lat="45.8405399" lon="11.3693986"><ele>303.0</ele><time>2026-04-19T08:13:06.269Z</time></trkpt><trkpt lat="45.8406686" lon="11.3692337"><ele>303.0</ele><time>2026-04-19T08:13:07.294Z</time></trkpt><trkpt lat="45.8408081" lon="11.369088"><ele>303.0</ele><time>2026-04-19T08:13:08.283Z</time></trkpt><trkpt lat="45.8409494" lon="11.3689413"><ele>304.3333333333333</ele><time>2026-04-19T08:13:09.27Z</time></trkpt><trkpt lat="45.8410941" lon="11.3687924"><ele>305.66666666666663</ele><time>2026-04-19T08:13:10.305Z</time></trkpt><trkpt lat="45.8412435" lon="11.3686424"><ele>307.0</ele><time>2026-04-19T08:13:11.298Z</time></trkpt><trkpt lat="45.8413989" lon="11.3685006"><ele>307.0</ele><time>2026-04-19T08:13:12.288Z</time></trkpt><trkpt lat="45.8415544" lon="11.3683573"><ele>307.0</ele><time>2026-04-19T08:13:13.277Z</time></trkpt><trkpt lat="45.8417067" lon="11.3682131"><ele>307.0</ele><time>2026-04-19T08:13:14.292Z</time></trkpt><trkpt lat="45.8418637" lon="11.3680791"><ele>311.3333333333333</ele><time>2026-04-19T08:13:15.277Z</time></trkpt><trkpt lat="45.8420196" lon="11.3679412"><ele>315.6666666666667</ele><time>2026-04-19T08:13:16.278Z</time></trkpt><trkpt lat="45.8421794" lon="11.3678008"><ele>320.0</ele><time>2026-04-19T08:13:17.303Z</time></trkpt><trkpt lat="45.84234" lon="11.3676599"><ele>320.0</ele><time>2026-04-19T08:13:18.277Z</time></trkpt><trkpt lat="45.8425063" lon="11.3675284"><ele>320.0</ele><time>2026-04-19T08:13:19.286Z</time></trkpt><trkpt lat="45.8426774" lon="11.3674006"><ele>320.0</ele><time>2026-04-19T08:13:20.27Z</time></trkpt><trkpt lat="45.842854" lon="11.3672838"><ele>325.0</ele><time>2026-04-19T08:13:21.292Z</time></trkpt><trkpt lat="45.8430331" lon="11.3671755"><ele>330.0</ele><time>2026-04-19T08:13:22.285Z</time></trkpt><trkpt lat="45.8432219" lon="11.3670948"><ele>335.0</ele><time>2026-04-19T08:13:23.278Z</time></trkpt><trkpt lat="45.843416" lon="11.3670386"><ele>333.6666666666667</ele><time>2026-04-19T08:13:24.272Z</time></trkpt><trkpt lat="45.8436148" lon="11.3670074"><ele>332.3333333333333</ele><time>2026-04-19T08:13:25.283Z</time></trkpt><trkpt lat="45.8438144" lon="11.3669743"><ele>331.0</ele><time>2026-04-19T08:13:26.272Z</time></trkpt><trkpt lat="45.8440158" lon="11.3669484"><ele>331.0</ele><time>2026-04-19T08:13:27.286Z</time></trkpt><trkpt lat="45.8442166" lon="11.3669198"><ele>331.0</ele><time>2026-04-19T08:13:28.282Z</time></trkpt><trkpt lat="45.8444137" lon="11.3668901"><ele>331.0</ele><time>2026-04-19T08:13:29.272Z</time></trkpt><trkpt lat="45.8446103" lon="11.3668695"><ele>328.0</ele><time>2026-04-19T08:13:30.275Z</time></trkpt><trkpt lat="45.8448049" lon="11.3668202"><ele>325.0</ele><time>2026-04-19T08:13:31.283Z</time></trkpt><trkpt lat="45.8449976" lon="11.366779"><ele>322.0</ele><time>2026-04-19T08:13:32.278Z</time></trkpt><trkpt lat="45.8451901" lon="11.3667529"><ele>320.66666666666663</ele><time>2026-04-19T08:13:33.282Z</time></trkpt><trkpt lat="45.8453799" lon="11.3667183"><ele>319.3333333333333</ele><time>2026-04-19T08:13:34.268Z</time></trkpt><trkpt lat="45.8455743" lon="11.3666875"><ele>318.0</ele><time>2026-04-19T08:13:35.293Z</time></trkpt><trkpt lat="45.8457576" lon="11.3666166"><ele>318.0</ele><time>2026-04-19T08:13:36.292Z</time></trkpt><trkpt lat="45.8459383" lon="11.3665346"><ele>318.0</ele><time>2026-04-19T08:13:37.286Z</time></trkpt><trkpt lat="45.8461205" lon="11.3664542"><ele>318.0</ele><time>2026-04-19T08:13:38.269Z</time></trkpt><trkpt lat="45.8463041" lon="11.366383"><ele>321.0</ele><time>2026-04-19T08:13:39.276Z</time></trkpt><trkpt lat="45.8464902" lon="11.3663346"><ele>324.0</ele><time>2026-04-19T08:13:40.279Z</time></trkpt><trkpt lat="45.8466757" lon="11.3662919"><ele>327.0</ele><time>2026-04-19T08:13:41.27Z</time></trkpt><trkpt lat="45.8468625" lon="11.3662604"><ele>327.0</ele><time>2026-04-19T08:13:42.29Z</time></trkpt><trkpt lat="45.8470482" lon="11.366217"><ele>327.0</ele><time>2026-04-19T08:13:43.307Z</time></trkpt><trkpt lat="45.8472348" lon="11.3661869"><ele>327.0</ele><time>2026-04-19T08:13:44.281Z</time></trkpt><trkpt lat="45.8474221" lon="11.3661583"><ele>327.0</ele><time>2026-04-19T08:13:45.299Z</time></trkpt><trkpt lat="45.8476143" lon="11.3661305"><ele>327.0</ele><time>2026-04-19T08:13:46.299Z</time></trkpt><trkpt lat="45.8478088" lon="11.3660935"><ele>327.0</ele><time>2026-04-19T08:13:47.282Z</time></trkpt><trkpt lat="45.8480047" lon="11.3660511"><ele>325.3333333333333</ele><time>2026-04-19T08:13:48.296Z</time></trkpt><trkpt lat="45.8482008" lon="11.3660042"><ele>323.66666666666663</ele><time>2026-04-19T08:13:49.273Z</time></trkpt><trkpt lat="45.848401" lon="11.3659618"><ele>322.0</ele><time>2026-04-19T08:13:50.278Z</time></trkpt><trkpt lat="45.8486015" lon="11.3659005"><ele>318.66666666666663</ele><time>2026-04-19T08:13:51.297Z</time></trkpt><trkpt lat="45.8488017" lon="11.3658194"><ele>315.3333333333333</ele><time>2026-04-19T08:13:52.274Z</time></trkpt><trkpt lat="45.8489995" lon="11.3657241"><ele>312.0</ele><time>2026-04-19T08:13:53.287Z</time></trkpt><trkpt lat="45.8491975" lon="11.3656346"><ele>312.6666666666667</ele><time>2026-04-19T08:13:54.272Z</time></trkpt><trkpt lat="45.8493965" lon="11.3655434"><ele>313.33333333333337</ele><time>2026-04-19T08:13:55.283Z</time></trkpt><trkpt lat="45.8495956" lon="11.3654487"><ele>314.0</ele><time>2026-04-19T08:13:56.284Z</time></trkpt><trkpt lat="45.8497833" lon="11.365322"><ele>314.0</ele><time>2026-04-19T08:13:57.276Z</time></trkpt><trkpt lat="45.8499753" lon="11.3652078"><ele>314.0</ele><time>2026-04-19T08:13:58.279Z</time></trkpt><trkpt lat="45.8501625" lon="11.3650899"><ele>314.0</ele><time>2026-04-19T08:13:59.29Z</time></trkpt><trkpt lat="45.8503447" lon="11.3649716"><ele>314.6666666666667</ele><time>2026-04-19T08:14:00.285Z</time></trkpt><trkpt lat="45.8505265" lon="11.3648482"><ele>315.3333333333333</ele><time>2026-04-19T08:14:01.291Z</time></trkpt><trkpt lat="45.8507059" lon="11.3647223"><ele>316.0</ele><time>2026-04-19T08:14:02.295Z</time></trkpt><trkpt lat="45.850886" lon="11.3645999"><ele>316.0</ele><time>2026-04-19T08:14:03.277Z</time></trkpt><trkpt lat="45.8510671" lon="11.3644813"><ele>316.0</ele><time>2026-04-19T08:14:04.279Z</time></trkpt><trkpt lat="45.8512494" lon="11.3643663"><ele>316.0</ele><time>2026-04-19T08:14:05.27Z</time></trkpt><trkpt lat="45.8514357" lon="11.3642589"><ele>316.0</ele><time>2026-04-19T08:14:06.274Z</time></trkpt><trkpt lat="45.851623" lon="11.3641493"><ele>316.0</ele><time>2026-04-19T08:14:07.281Z</time></trkpt><trkpt lat="45.8518141" lon="11.364053"><ele>316.0</ele><time>2026-04-19T08:14:08.283Z</time></trkpt><trkpt lat="45.8520049" lon="11.3639532"><ele>317.0</ele><time>2026-04-19T08:14:09.286Z</time></trkpt><trkpt lat="45.8521925" lon="11.3638546"><ele>318.0</ele><time>2026-04-19T08:14:10.285Z</time></trkpt><trkpt lat="45.8523794" lon="11.3637641"><ele>319.0</ele><time>2026-04-19T08:14:11.282Z</time></trkpt><trkpt lat="45.8525656" lon="11.3636763"><ele>318.66666666666663</ele><time>2026-04-19T08:14:12.29Z</time></trkpt><trkpt lat="45.8527497" lon="11.3635867"><ele>318.3333333333333</ele><time>2026-04-19T08:14:13.292Z</time></trkpt><trkpt lat="45.8529309" lon="11.3634985"><ele>318.0</ele><time>2026-04-19T08:14:14.293Z</time></trkpt><trkpt lat="45.8531112" lon="11.3634149"><ele>318.0</ele><time>2026-04-19T08:14:15.272Z</time></trkpt><trkpt lat="45.8532934" lon="11.3633514"><ele>318.0</ele><time>2026-04-19T08:14:16.289Z</time></trkpt><trkpt lat="45.8534703" lon="11.3632745"><ele>318.0</ele><time>2026-04-19T08:14:17.283Z</time></trkpt><trkpt lat="45.8536499" lon="11.3632018"><ele>318.0</ele><time>2026-04-19T08:14:18.281Z</time></trkpt><trkpt lat="45.8538295" lon="11.363128"><ele>318.0</ele><time>2026-04-19T08:14:19.273Z</time></trkpt><trkpt lat="45.8540077" lon="11.3630575"><ele>318.0</ele><time>2026-04-19T08:14:20.278Z</time></trkpt><trkpt lat="45.8541825" lon="11.3629824"><ele>317.0</ele><time>2026-04-19T08:14:21.283Z</time></trkpt><trkpt lat="45.8543566" lon="11.3629099"><ele>316.0</ele><time>2026-04-19T08:14:22.279Z</time></trkpt><trkpt lat="45.854529" lon="11.362845"><ele>315.0</ele><time>2026-04-19T08:14:23.278Z</time></trkpt><trkpt lat="45.8546998" lon="11.3627899"><ele>315.0</ele><time>2026-04-19T08:14:24.272Z</time></trkpt><trkpt lat="45.8548631" lon="11.3627169"><ele>315.0</ele><time>2026-04-19T08:14:25.27Z</time></trkpt><trkpt lat="45.855026" lon="11.3626543"><ele>315.0</ele><time>2026-04-19T08:14:26.28Z</time></trkpt><trkpt lat="45.8551833" lon="11.362583"><ele>315.0</ele><time>2026-04-19T08:14:27.294Z</time></trkpt><trkpt lat="45.8553365" lon="11.3625201"><ele>315.0</ele><time>2026-04-19T08:14:28.283Z</time></trkpt><trkpt lat="45.8554864" lon="11.3624687"><ele>315.0</ele><time>2026-04-19T08:14:29.276Z</time></trkpt><trkpt lat="45.8556297" lon="11.3624119"><ele>315.0</ele><time>2026-04-19T08:14:30.287Z</time></trkpt><trkpt lat="45.8557673" lon="11.3623518"><ele>315.0</ele><time>2026-04-19T08:14:31.299Z</time></trkpt><trkpt lat="45.8559005" lon="11.3622871"><ele>315.0</ele><time>2026-04-19T08:14:32.292Z</time></trkpt><trkpt lat="45.856027" lon="11.3622193"><ele>315.0</ele><time>2026-04-19T08:14:33.283Z</time></trkpt><trkpt lat="45.8561465" lon="11.3621569"><ele>315.4</ele><time>2026-04-19T08:14:34.285Z</time></trkpt><trkpt lat="45.8562599" lon="11.3620984"><ele>315.8</ele><time>2026-04-19T08:14:35.286Z</time></trkpt><trkpt lat="45.8563642" lon="11.3620397"><ele>316.2</ele><time>2026-04-19T08:14:36.289Z</time></trkpt><trkpt lat="45.8564584" lon="11.3619746"><ele>316.6</ele><time>2026-04-19T08:14:37.3Z</time></trkpt><trkpt lat="45.8565481" lon="11.3619107"><ele>317.0</ele><time>2026-04-19T08:14:38.274Z</time></trkpt><trkpt lat="45.8566403" lon="11.3618405"><ele>317.0</ele><time>2026-04-19T08:14:39.296Z</time></trkpt><trkpt lat="45.8567328" lon="11.3617732"><ele>317.0</ele><time>2026-04-19T08:14:40.271Z</time></trkpt><trkpt lat="45.8568439" lon="11.361747"><ele>317.0</ele><time>2026-04-19T08:14:41.266Z</time></trkpt><trkpt lat="45.8569634" lon="11.3617229"><ele>317.0</ele><time>2026-04-19T08:14:42.275Z</time></trkpt><trkpt lat="45.8570996" lon="11.3617179"><ele>317.0</ele><time>2026-04-19T08:14:43.284Z</time></trkpt><trkpt lat="45.8572502" lon="11.3617131"><ele>317.0</ele><time>2026-04-19T08:14:44.288Z</time></trkpt><trkpt lat="45.8574073" lon="11.361713"><ele>317.0</ele><time>2026-04-19T08:14:45.291Z</time></trkpt><trkpt lat="45.8575608" lon="11.3617091"><ele>317.33333333333337</ele><time>2026-04-19T08:14:46.298Z</time></trkpt><trkpt lat="45.8577148" lon="11.3617056"><ele>317.6666666666667</ele><time>2026-04-19T08:14:47.283Z</time></trkpt><trkpt lat="45.8578732" lon="11.3616991"><ele>318.0</ele><time>2026-04-19T08:14:48.298Z</time></trkpt><trkpt lat="45.8580391" lon="11.3616871"><ele>318.0</ele><time>2026-04-19T08:14:49.289Z</time></trkpt><trkpt lat="45.8582198" lon="11.3616719"><ele>318.0</ele><time>2026-04-19T08:14:50.276Z</time></trkpt><trkpt lat="45.8584132" lon="11.3616635"><ele>318.0</ele><time>2026-04-19T08:14:51.288Z</time></trkpt><trkpt lat="45.8586144" lon="11.361641"><ele>317.6666666666667</ele><time>2026-04-19T08:14:52.286Z</time></trkpt><trkpt lat="45.858824" lon="11.3616308"><ele>317.33333333333337</ele><time>2026-04-19T08:14:53.3Z</time></trkpt><trkpt lat="45.8590403" lon="11.3616154"><ele>317.0</ele><time>2026-04-19T08:14:54.281Z</time></trkpt><trkpt lat="45.859261" lon="11.3615948"><ele>317.33333333333337</ele><time>2026-04-19T08:14:55.265Z</time></trkpt><trkpt lat="45.8594814" lon="11.3615719"><ele>317.6666666666667</ele><time>2026-04-19T08:14:56.275Z</time></trkpt><trkpt lat="45.8596982" lon="11.3615558"><ele>318.0</ele><time>2026-04-19T08:14:57.294Z</time></trkpt><trkpt lat="45.859911" lon="11.3615414"><ele>318.6666666666667</ele><time>2026-04-19T08:14:58.275Z</time></trkpt><trkpt lat="45.8601215" lon="11.36153"><ele>319.33333333333337</ele><time>2026-04-19T08:14:59.284Z</time></trkpt><trkpt lat="45.8603289" lon="11.3615167"><ele>320.0</ele><time>2026-04-19T08:15:00.279Z</time></trkpt><trkpt lat="45.8605345" lon="11.36151"><ele>320.0</ele><time>2026-04-19T08:15:01.306Z</time></trkpt><trkpt lat="45.8607377" lon="11.3615072"><ele>320.0</ele><time>2026-04-19T08:15:02.281Z</time></trkpt><trkpt lat="45.8609393" lon="11.3614817"><ele>320.0</ele><time>2026-04-19T08:15:03.278Z</time></trkpt><trkpt lat="45.8611411" lon="11.3614774"><ele>320.6666666666667</ele><time>2026-04-19T08:15:04.281Z</time></trkpt><trkpt lat="45.8613419" lon="11.3614543"><ele>321.3333333333333</ele><time>2026-04-19T08:15:05.286Z</time></trkpt><trkpt lat="45.8615432" lon="11.3614391"><ele>322.0</ele><time>2026-04-19T08:15:06.27Z</time></trkpt><trkpt lat="45.861744" lon="11.3614195"><ele>322.0</ele><time>2026-04-19T08:15:07.282Z</time></trkpt><trkpt lat="45.8619458" lon="11.3614021"><ele>322.0</ele><time>2026-04-19T08:15:08.301Z</time></trkpt><trkpt lat="45.8621477" lon="11.3613732"><ele>322.0</ele><time>2026-04-19T08:15:09.272Z</time></trkpt><trkpt lat="45.8623467" lon="11.3613369"><ele>326.66666666666663</ele><time>2026-04-19T08:15:10.292Z</time></trkpt><trkpt lat="45.8625427" lon="11.3613141"><ele>331.3333333333333</ele><time>2026-04-19T08:15:11.292Z</time></trkpt><trkpt lat="45.8627351" lon="11.3612832"><ele>336.0</ele><time>2026-04-19T08:15:12.271Z</time></trkpt><trkpt lat="45.8629279" lon="11.361256"><ele>336.0</ele><time>2026-04-19T08:15:13.299Z</time></trkpt><trkpt lat="45.8631174" lon="11.3612229"><ele>336.0</ele><time>2026-04-19T08:15:14.272Z</time></trkpt><trkpt lat="45.8633065" lon="11.3612039"><ele>336.0</ele><time>2026-04-19T08:15:15.277Z</time></trkpt><trkpt lat="45.8634947" lon="11.3611924"><ele>336.0</ele><time>2026-04-19T08:15:16.289Z</time></trkpt><trkpt lat="45.8636848" lon="11.3611895"><ele>336.0</ele><time>2026-04-19T08:15:17.279Z</time></trkpt><trkpt lat="45.8638701" lon="11.3611903"><ele>336.0</ele><time>2026-04-19T08:15:18.275Z</time></trkpt><trkpt lat="45.8640513" lon="11.361189"><ele>336.0</ele><time>2026-04-19T08:15:19.291Z</time></trkpt><trkpt lat="45.8642349" lon="11.361199"><ele>336.0</ele><time>2026-04-19T08:15:20.283Z</time></trkpt><trkpt lat="45.8644203" lon="11.3612058"><ele>336.0</ele><time>2026-04-19T08:15:21.293Z</time></trkpt><trkpt lat="45.8646078" lon="11.3612024"><ele>335.3333333333333</ele><time>2026-04-19T08:15:22.278Z</time></trkpt><trkpt lat="45.8647959" lon="11.3612126"><ele>334.66666666666663</ele><time>2026-04-19T08:15:23.283Z</time></trkpt><trkpt lat="45.8649847" lon="11.3612236"><ele>334.0</ele><time>2026-04-19T08:15:24.274Z</time></trkpt><trkpt lat="45.8651734" lon="11.361227"><ele>334.0</ele><time>2026-04-19T08:15:25.286Z</time></trkpt><trkpt lat="45.8653613" lon="11.361236"><ele>334.0</ele><time>2026-04-19T08:15:26.279Z</time></trkpt><trkpt lat="45.8655499" lon="11.3612476"><ele>334.0</ele><time>2026-04-19T08:15:27.272Z</time></trkpt><trkpt lat="45.8657404" lon="11.3612652"><ele>334.0</ele><time>2026-04-19T08:15:28.274Z</time></trkpt><trkpt lat="45.8659322" lon="11.3612799"><ele>334.0</ele><time>2026-04-19T08:15:29.282Z</time></trkpt><trkpt lat="45.8661244" lon="11.3612936"><ele>334.0</ele><time>2026-04-19T08:15:30.283Z</time></trkpt><trkpt lat="45.8663199" lon="11.3612989"><ele>334.0</ele><time>2026-04-19T08:15:31.284Z</time></trkpt><trkpt lat="45.8665166" lon="11.3613106"><ele>334.0</ele><time>2026-04-19T08:15:32.289Z</time></trkpt><trkpt lat="45.8667152" lon="11.361337"><ele>334.0</ele><time>2026-04-19T08:15:33.296Z</time></trkpt><trkpt lat="45.8669163" lon="11.3613387"><ele>334.0</ele><time>2026-04-19T08:15:34.279Z</time></trkpt><trkpt lat="45.8671177" lon="11.3613648"><ele>334.0</ele><time>2026-04-19T08:15:35.279Z</time></trkpt><trkpt lat="45.8673192" lon="11.3613911"><ele>334.0</ele><time>2026-04-19T08:15:36.279Z</time></trkpt><trkpt lat="45.8675224" lon="11.3614139"><ele>333.0</ele><time>2026-04-19T08:15:37.278Z</time></trkpt><trkpt lat="45.8677266" lon="11.3614437"><ele>332.0</ele><time>2026-04-19T08:15:38.28Z</time></trkpt><trkpt lat="45.8679311" lon="11.3614598"><ele>331.0</ele><time>2026-04-19T08:15:39.29Z</time></trkpt><trkpt lat="45.8681344" lon="11.3614787"><ele>331.0</ele><time>2026-04-19T08:15:40.282Z</time></trkpt><trkpt lat="45.8683368" lon="11.3614864"><ele>331.0</ele><time>2026-04-19T08:15:41.272Z</time></trkpt><trkpt lat="45.8685392" lon="11.3614948"><ele>331.0</ele><time>2026-04-19T08:15:42.293Z</time></trkpt><trkpt lat="45.8687404" lon="11.3615168"><ele>332.0</ele><time>2026-04-19T08:15:43.298Z</time></trkpt><trkpt lat="45.8689401" lon="11.3615462"><ele>333.0</ele><time>2026-04-19T08:15:44.276Z</time></trkpt><trkpt lat="45.86914" lon="11.3615729"><ele>334.0</ele><time>2026-04-19T08:15:45.285Z</time></trkpt><trkpt lat="45.8693381" lon="11.361606"><ele>335.3333333333333</ele><time>2026-04-19T08:15:46.286Z</time></trkpt><trkpt lat="45.8695361" lon="11.3616277"><ele>336.6666666666667</ele><time>2026-04-19T08:15:47.274Z</time></trkpt><trkpt lat="45.8697275" lon="11.3616857"><ele>338.0</ele><time>2026-04-19T08:15:48.292Z</time></trkpt><trkpt lat="45.8699159" lon="11.3617562"><ele>338.0</ele><time>2026-04-19T08:15:49.299Z</time></trkpt><trkpt lat="45.8701031" lon="11.3618313"><ele>338.0</ele><time>2026-04-19T08:15:50.291Z</time></trkpt><trkpt lat="45.8702916" lon="11.3619008"><ele>338.0</ele><time>2026-04-19T08:15:51.279Z</time></trkpt><trkpt lat="45.8704823" lon="11.361953"><ele>338.0</ele><time>2026-04-19T08:15:52.296Z</time></trkpt><trkpt lat="45.870672" lon="11.3619971"><ele>338.0</ele><time>2026-04-19T08:15:53.273Z</time></trkpt><trkpt lat="45.8708637" lon="11.3620247"><ele>338.0</ele><time>2026-04-19T08:15:54.274Z</time></trkpt><trkpt lat="45.871053" lon="11.3620607"><ele>339.0</ele><time>2026-04-19T08:15:55.275Z</time></trkpt><trkpt lat="45.8712441" lon="11.3620803"><ele>340.0</ele><time>2026-04-19T08:15:56.277Z</time></trkpt><trkpt lat="45.871436" lon="11.3620966"><ele>341.0</ele><time>2026-04-19T08:15:57.278Z</time></trkpt><trkpt lat="45.8716283" lon="11.3621066"><ele>341.6666666666667</ele><time>2026-04-19T08:15:58.286Z</time></trkpt><trkpt lat="45.8718195" lon="11.3621176"><ele>342.3333333333333</ele><time>2026-04-19T08:15:59.314Z</time></trkpt><trkpt lat="45.8720113" lon="11.3621231"><ele>343.0</ele><time>2026-04-19T08:16:00.287Z</time></trkpt><trkpt lat="45.8722018" lon="11.3621164"><ele>343.0</ele><time>2026-04-19T08:16:01.282Z</time></trkpt><trkpt lat="45.8723912" lon="11.3620943"><ele>343.0</ele><time>2026-04-19T08:16:02.268Z</time></trkpt><trkpt lat="45.8725752" lon="11.3620459"><ele>343.0</ele><time>2026-04-19T08:16:03.292Z</time></trkpt><trkpt lat="45.8727498" lon="11.3619586"><ele>340.66666666666663</ele><time>2026-04-19T08:16:04.267Z</time></trkpt><trkpt lat="45.8729175" lon="11.3618425"><ele>338.3333333333333</ele><time>2026-04-19T08:16:05.269Z</time></trkpt><trkpt lat="45.8730768" lon="11.3616883"><ele>336.0</ele><time>2026-04-19T08:16:06.268Z</time></trkpt><trkpt lat="45.8732306" lon="11.361511"><ele>337.0</ele><time>2026-04-19T08:16:07.283Z</time></trkpt><trkpt lat="45.8733885" lon="11.3613178"><ele>338.0</ele><time>2026-04-19T08:16:08.282Z</time></trkpt><trkpt lat="45.8735487" lon="11.3611251"><ele>339.0</ele><time>2026-04-19T08:16:09.265Z</time></trkpt><trkpt lat="45.8737061" lon="11.3609316"><ele>339.0</ele><time>2026-04-19T08:16:10.286Z</time></trkpt><trkpt lat="45.8738571" lon="11.3607291"><ele>339.0</ele><time>2026-04-19T08:16:11.275Z</time></trkpt><trkpt lat="45.874003" lon="11.3605371"><ele>339.0</ele><time>2026-04-19T08:16:12.282Z</time></trkpt><trkpt lat="45.8741387" lon="11.360351"><ele>340.0</ele><time>2026-04-19T08:16:13.28Z</time></trkpt><trkpt lat="45.8742705" lon="11.360177"><ele>341.0</ele><time>2026-04-19T08:16:14.282Z</time></trkpt><trkpt lat="45.8744012" lon="11.3600093"><ele>342.0</ele><time>2026-04-19T08:16:15.293Z</time></trkpt><trkpt lat="45.874548" lon="11.3598763"><ele>342.0</ele><time>2026-04-19T08:16:16.289Z</time></trkpt><trkpt lat="45.8747038" lon="11.3597638"><ele>342.0</ele><time>2026-04-19T08:16:17.278Z</time></trkpt><trkpt lat="45.8748701" lon="11.359689"><ele>342.0</ele><time>2026-04-19T08:16:18.293Z</time></trkpt><trkpt lat="45.8750409" lon="11.3596512"><ele>348.0</ele><time>2026-04-19T08:16:19.287Z</time></trkpt><trkpt lat="45.8752124" lon="11.3596404"><ele>354.0</ele><time>2026-04-19T08:16:20.272Z</time></trkpt><trkpt lat="45.8753863" lon="11.359633"><ele>360.0</ele><time>2026-04-19T08:16:21.26Z</time></trkpt><trkpt lat="45.875562" lon="11.3596212"><ele>360.0</ele><time>2026-04-19T08:16:22.255Z</time></trkpt><trkpt lat="45.8757393" lon="11.3596021"><ele>360.0</ele><time>2026-04-19T08:16:23.267Z</time></trkpt><trkpt lat="45.8759166" lon="11.3595809"><ele>360.0</ele><time>2026-04-19T08:16:24.28Z</time></trkpt><trkpt lat="45.8760997" lon="11.3595666"><ele>358.6666666666667</ele><time>2026-04-19T08:16:25.3Z</time></trkpt><trkpt lat="45.8762832" lon="11.359552"><ele>357.33333333333337</ele><time>2026-04-19T08:16:26.269Z</time></trkpt><trkpt lat="45.8764587" lon="11.3595307"><ele>356.0</ele><time>2026-04-19T08:16:27.306Z</time></trkpt><trkpt lat="45.8766298" lon="11.359524"><ele>354.33333333333337</ele><time>2026-04-19T08:16:28.279Z</time></trkpt><trkpt lat="45.8767953" lon="11.3595028"><ele>352.6666666666667</ele><time>2026-04-19T08:16:29.283Z</time></trkpt><trkpt lat="45.8769638" lon="11.3594813"><ele>351.0</ele><time>2026-04-19T08:16:30.267Z</time></trkpt><trkpt lat="45.8771337" lon="11.3594634"><ele>351.0</ele><time>2026-04-19T08:16:31.279Z</time></trkpt><trkpt lat="45.877306" lon="11.359449"><ele>351.0</ele><time>2026-04-19T08:16:32.263Z</time></trkpt><trkpt lat="45.8774774" lon="11.3594204"><ele>351.0</ele><time>2026-04-19T08:16:33.276Z</time></trkpt><trkpt lat="45.8776503" lon="11.3593738"><ele>350.3333333333333</ele><time>2026-04-19T08:16:34.269Z</time></trkpt><trkpt lat="45.8778276" lon="11.359312"><ele>349.66666666666663</ele><time>2026-04-19T08:16:35.264Z</time></trkpt><trkpt lat="45.8780083" lon="11.3592267"><ele>349.0</ele><time>2026-04-19T08:16:36.285Z</time></trkpt><trkpt lat="45.8781991" lon="11.3591503"><ele>349.0</ele><time>2026-04-19T08:16:37.312Z</time></trkpt><trkpt lat="45.8783903" lon="11.3590727"><ele>349.0</ele><time>2026-04-19T08:16:38.282Z</time></trkpt><trkpt lat="45.8785783" lon="11.3589991"><ele>349.0</ele><time>2026-04-19T08:16:39.274Z</time></trkpt><trkpt lat="45.8787711" lon="11.3589325"><ele>348.0</ele><time>2026-04-19T08:16:40.28Z</time></trkpt><trkpt lat="45.8789634" lon="11.3588554"><ele>347.0</ele><time>2026-04-19T08:16:41.265Z</time></trkpt><trkpt lat="45.8791554" lon="11.3587714"><ele>346.0</ele><time>2026-04-19T08:16:42.279Z</time></trkpt><trkpt lat="45.8793509" lon="11.3586768"><ele>346.0</ele><time>2026-04-19T08:16:43.27Z</time></trkpt><trkpt lat="45.8795437" lon="11.3585691"><ele>346.0</ele><time>2026-04-19T08:16:44.278Z</time></trkpt><trkpt lat="45.8797364" lon="11.3584592"><ele>346.0</ele><time>2026-04-19T08:16:45.289Z</time></trkpt><trkpt lat="45.879921" lon="11.3583284"><ele>346.3333333333333</ele><time>2026-04-19T08:16:46.269Z</time></trkpt><trkpt lat="45.8801064" lon="11.3581953"><ele>346.6666666666667</ele><time>2026-04-19T08:16:47.287Z</time></trkpt><trkpt lat="45.8802771" lon="11.3580248"><ele>347.0</ele><time>2026-04-19T08:16:48.278Z</time></trkpt><trkpt lat="45.8804398" lon="11.3578351"><ele>347.0</ele><time>2026-04-19T08:16:49.287Z</time></trkpt><trkpt lat="45.8806037" lon="11.3576428"><ele>347.0</ele><time>2026-04-19T08:16:50.284Z</time></trkpt><trkpt lat="45.8807646" lon="11.3574576"><ele>347.0</ele><time>2026-04-19T08:16:51.29Z</time></trkpt><trkpt lat="45.8809105" lon="11.3572653"><ele>347.0</ele><time>2026-04-19T08:16:52.269Z</time></trkpt><trkpt lat="45.8810497" lon="11.3570701"><ele>347.0</ele><time>2026-04-19T08:16:53.289Z</time></trkpt><trkpt lat="45.8811877" lon="11.3568859"><ele>347.0</ele><time>2026-04-19T08:16:54.276Z</time></trkpt><trkpt lat="45.8813373" lon="11.3567335"><ele>347.0</ele><time>2026-04-19T08:16:55.282Z</time></trkpt><trkpt lat="45.8814958" lon="11.3565973"><ele>347.0</ele><time>2026-04-19T08:16:56.275Z</time></trkpt><trkpt lat="45.8816608" lon="11.3564685"><ele>347.0</ele><time>2026-04-19T08:16:57.26Z</time></trkpt><trkpt lat="45.8818289" lon="11.3563498"><ele>350.6666666666667</ele><time>2026-04-19T08:16:58.259Z</time></trkpt><trkpt lat="45.8820043" lon="11.3562536"><ele>354.3333333333333</ele><time>2026-04-19T08:16:59.275Z</time></trkpt><trkpt lat="45.882185" lon="11.3561829"><ele>358.0</ele><time>2026-04-19T08:17:00.274Z</time></trkpt><trkpt lat="45.8823619" lon="11.3560966"><ele>358.0</ele><time>2026-04-19T08:17:01.271Z</time></trkpt><trkpt lat="45.8825406" lon="11.3560164"><ele>358.0</ele><time>2026-04-19T08:17:02.278Z</time></trkpt><trkpt lat="45.8827184" lon="11.3559466"><ele>358.0</ele><time>2026-04-19T08:17:03.279Z</time></trkpt><trkpt lat="45.8829004" lon="11.3558907"><ele>357.66666666666663</ele><time>2026-04-19T08:17:04.28Z</time></trkpt><trkpt lat="45.8830855" lon="11.3558445"><ele>357.3333333333333</ele><time>2026-04-19T08:17:05.292Z</time></trkpt><trkpt lat="45.8832734" lon="11.3558078"><ele>357.0</ele><time>2026-04-19T08:17:06.295Z</time></trkpt><trkpt lat="45.883464" lon="11.3557845"><ele>356.0</ele><time>2026-04-19T08:17:07.261Z</time></trkpt><trkpt lat="45.8836551" lon="11.3557607"><ele>355.0</ele><time>2026-04-19T08:17:08.277Z</time></trkpt><trkpt lat="45.8838426" lon="11.355744"><ele>354.0</ele><time>2026-04-19T08:17:09.282Z</time></trkpt><trkpt lat="45.8840274" lon="11.3557266"><ele>354.0</ele><time>2026-04-19T08:17:10.282Z</time></trkpt><trkpt lat="45.8842112" lon="11.3557112"><ele>354.0</ele><time>2026-04-19T08:17:11.301Z</time></trkpt><trkpt lat="45.8843987" lon="11.3557006"><ele>354.0</ele><time>2026-04-19T08:17:12.26Z</time></trkpt><trkpt lat="45.8845859" lon="11.3556861"><ele>354.3333333333333</ele><time>2026-04-19T08:17:13.267Z</time></trkpt><trkpt lat="45.8847695" lon="11.3556653"><ele>354.66666666666663</ele><time>2026-04-19T08:17:14.278Z</time></trkpt><trkpt lat="45.8849484" lon="11.3556238"><ele>355.0</ele><time>2026-04-19T08:17:15.279Z</time></trkpt><trkpt lat="45.8851254" lon="11.3555576"><ele>356.66666666666663</ele><time>2026-04-19T08:17:16.266Z</time></trkpt><trkpt lat="45.8852946" lon="11.3554434"><ele>358.3333333333333</ele><time>2026-04-19T08:17:17.273Z</time></trkpt><trkpt lat="45.8854585" lon="11.3553009"><ele>360.0</ele><time>2026-04-19T08:17:18.267Z</time></trkpt><trkpt lat="45.8856193" lon="11.3551382"><ele>360.0</ele><time>2026-04-19T08:17:19.265Z</time></trkpt><trkpt lat="45.8857696" lon="11.3549518"><ele>360.0</ele><time>2026-04-19T08:17:20.281Z</time></trkpt><trkpt lat="45.8859229" lon="11.354776"><ele>360.0</ele><time>2026-04-19T08:17:21.273Z</time></trkpt><trkpt lat="45.8860728" lon="11.3545955"><ele>358.6666666666667</ele><time>2026-04-19T08:17:22.262Z</time></trkpt><trkpt lat="45.8862222" lon="11.3544175"><ele>357.33333333333337</ele><time>2026-04-19T08:17:23.28Z</time></trkpt><trkpt lat="45.8863667" lon="11.3542446"><ele>356.0</ele><time>2026-04-19T08:17:24.283Z</time></trkpt><trkpt lat="45.8865008" lon="11.3540738"><ele>356.0</ele><time>2026-04-19T08:17:25.299Z</time></trkpt><trkpt lat="45.886632" lon="11.353917"><ele>356.0</ele><time>2026-04-19T08:17:26.278Z</time></trkpt><trkpt lat="45.8867602" lon="11.3537735"><ele>356.0</ele><time>2026-04-19T08:17:27.278Z</time></trkpt><trkpt lat="45.8868879" lon="11.3536536"><ele>356.75</ele><time>2026-04-19T08:17:28.269Z</time></trkpt><trkpt lat="45.8870191" lon="11.3535562"><ele>357.5</ele><time>2026-04-19T08:17:29.292Z</time></trkpt><trkpt lat="45.8871424" lon="11.3534555"><ele>358.25</ele><time>2026-04-19T08:17:30.267Z</time></trkpt><trkpt lat="45.8872661" lon="11.3533645"><ele>359.0</ele><time>2026-04-19T08:17:31.274Z</time></trkpt><trkpt lat="45.8873929" lon="11.3532925"><ele>359.0</ele><time>2026-04-19T08:17:32.273Z</time></trkpt><trkpt lat="45.8875155" lon="11.3532244"><ele>359.0</ele><time>2026-04-19T08:17:33.274Z</time></trkpt><trkpt lat="45.8876527" lon="11.3532018"><ele>359.0</ele><time>2026-04-19T08:17:34.278Z</time></trkpt><trkpt lat="45.8877805" lon="11.3531611"><ele>359.0</ele><time>2026-04-19T08:17:35.285Z</time></trkpt><trkpt lat="45.8879127" lon="11.3531274"><ele>358.5</ele><time>2026-04-19T08:17:36.281Z</time></trkpt><trkpt lat="45.8880486" lon="11.3530869"><ele>358.0</ele><time>2026-04-19T08:17:37.269Z</time></trkpt><trkpt lat="45.8881857" lon="11.353047"><ele>357.5</ele><time>2026-04-19T08:17:38.262Z</time></trkpt><trkpt lat="45.8883199" lon="11.3530167"><ele>357.0</ele><time>2026-04-19T08:17:39.273Z</time></trkpt><trkpt lat="45.8884504" lon="11.3529851"><ele>358.0</ele><time>2026-04-19T08:17:40.284Z</time></trkpt><trkpt lat="45.8885722" lon="11.3529105"><ele>359.0</ele><time>2026-04-19T08:17:41.273Z</time></trkpt><trkpt lat="45.8886916" lon="11.3528187"><ele>360.0</ele><time>2026-04-19T08:17:42.262Z</time></trkpt><trkpt lat="45.8888109" lon="11.3527047"><ele>361.0</ele><time>2026-04-19T08:17:43.27Z</time></trkpt><trkpt lat="45.8889293" lon="11.3525742"><ele>361.0</ele><time>2026-04-19T08:17:44.277Z</time></trkpt><trkpt lat="45.8890541" lon="11.3524529"><ele>361.0</ele><time>2026-04-19T08:17:45.266Z</time></trkpt><trkpt lat="45.8891808" lon="11.3523367"><ele>361.0</ele><time>2026-04-19T08:17:46.279Z</time></trkpt><trkpt lat="45.889307" lon="11.3522217"><ele>364.0</ele><time>2026-04-19T08:17:47.276Z</time></trkpt><trkpt lat="45.8894414" lon="11.3521172"><ele>367.0</ele><time>2026-04-19T08:17:48.272Z</time></trkpt><trkpt lat="45.8895726" lon="11.3520022"><ele>370.0</ele><time>2026-04-19T08:17:49.271Z</time></trkpt><trkpt lat="45.8897042" lon="11.3518786"><ele>370.0</ele><time>2026-04-19T08:17:50.27Z</time></trkpt><trkpt lat="45.8898427" lon="11.3517561"><ele>370.0</ele><time>2026-04-19T08:17:51.282Z</time></trkpt><trkpt lat="45.8899843" lon="11.3516307"><ele>370.0</ele><time>2026-04-19T08:17:52.287Z</time></trkpt><trkpt lat="45.890141" lon="11.3515283"><ele>367.3333333333333</ele><time>2026-04-19T08:17:53.28Z</time></trkpt><trkpt lat="45.8903069" lon="11.3514356"><ele>364.6666666666667</ele><time>2026-04-19T08:17:54.262Z</time></trkpt><trkpt lat="45.8904729" lon="11.3513515"><ele>362.0</ele><time>2026-04-19T08:17:55.271Z</time></trkpt><trkpt lat="45.890632" lon="11.3512825"><ele>362.0</ele><time>2026-04-19T08:17:56.268Z</time></trkpt><trkpt lat="45.8907806" lon="11.3512207"><ele>362.0</ele><time>2026-04-19T08:17:57.298Z</time></trkpt><trkpt lat="45.8909216" lon="11.3511588"><ele>362.0</ele><time>2026-04-19T08:17:58.277Z</time></trkpt><trkpt lat="45.8910588" lon="11.351093"><ele>362.0</ele><time>2026-04-19T08:17:59.264Z</time></trkpt><trkpt lat="45.8911847" lon="11.351005"><ele>362.0</ele><time>2026-04-19T08:18:00.268Z</time></trkpt><trkpt lat="45.8912982" lon="11.3508809"><ele>362.0</ele><time>2026-04-19T08:18:01.264Z</time></trkpt><trkpt lat="45.8913871" lon="11.3507169"><ele>362.0</ele><time>2026-04-19T08:18:02.285Z</time></trkpt><trkpt lat="45.8914697" lon="11.3505495"><ele>362.0</ele><time>2026-04-19T08:18:03.288Z</time></trkpt><trkpt lat="45.8915467" lon="11.3503776"><ele>362.75</ele><time>2026-04-19T08:18:04.286Z</time></trkpt><trkpt lat="45.8916103" lon="11.3501896"><ele>363.5</ele><time>2026-04-19T08:18:05.278Z</time></trkpt><trkpt lat="45.891664" lon="11.3499888"><ele>364.25</ele><time>2026-04-19T08:18:06.27Z</time></trkpt><trkpt lat="45.8917098" lon="11.3497796"><ele>365.0</ele><time>2026-04-19T08:18:07.285Z</time></trkpt><trkpt lat="45.891757" lon="11.3495695"><ele>365.0</ele><time>2026-04-19T08:18:08.285Z</time></trkpt><trkpt lat="45.8918004" lon="11.349353"><ele>365.0</ele><time>2026-04-19T08:18:09.281Z</time></trkpt><trkpt lat="45.8918403" lon="11.3491331"><ele>365.0</ele><time>2026-04-19T08:18:10.282Z</time></trkpt><trkpt lat="45.8918811" lon="11.348909"><ele>365.0</ele><time>2026-04-19T08:18:11.272Z</time></trkpt><trkpt lat="45.8919098" lon="11.348681"><ele>365.0</ele><time>2026-04-19T08:18:12.263Z</time></trkpt><trkpt lat="45.8919242" lon="11.3484617"><ele>365.0</ele><time>2026-04-19T08:18:13.281Z</time></trkpt><trkpt lat="45.8919513" lon="11.3482422"><ele>366.33333333333337</ele><time>2026-04-19T08:18:14.267Z</time></trkpt><trkpt lat="45.8919719" lon="11.3480309"><ele>367.6666666666667</ele><time>2026-04-19T08:18:15.258Z</time></trkpt><trkpt lat="45.8920074" lon="11.347818"><ele>369.0</ele><time>2026-04-19T08:18:16.264Z</time></trkpt><trkpt lat="45.8920552" lon="11.3476072"><ele>369.0</ele><time>2026-04-19T08:18:17.262Z</time></trkpt><trkpt lat="45.8920763" lon="11.3473926"><ele>369.0</ele><time>2026-04-19T08:18:18.277Z</time></trkpt><trkpt lat="45.8921223" lon="11.347175"><ele>369.0</ele><time>2026-04-19T08:18:19.282Z</time></trkpt><trkpt lat="45.8921583" lon="11.3469583"><ele>371.25</ele><time>2026-04-19T08:18:20.267Z</time></trkpt><trkpt lat="45.8922139" lon="11.3467581"><ele>373.5</ele><time>2026-04-19T08:18:21.27Z</time></trkpt><trkpt lat="45.8922762" lon="11.346573"><ele>375.75</ele><time>2026-04-19T08:18:22.273Z</time></trkpt><trkpt lat="45.8923468" lon="11.3464051"><ele>378.0</ele><time>2026-04-19T08:18:23.272Z</time></trkpt><trkpt lat="45.8924288" lon="11.3462519"><ele>379.5</ele><time>2026-04-19T08:18:24.259Z</time></trkpt><trkpt lat="45.8925273" lon="11.3461143"><ele>381.0</ele><time>2026-04-19T08:18:25.268Z</time></trkpt><trkpt lat="45.8926404" lon="11.3460086"><ele>382.5</ele><time>2026-04-19T08:18:26.281Z</time></trkpt><trkpt lat="45.8927683" lon="11.3459467"><ele>384.0</ele><time>2026-04-19T08:18:27.288Z</time></trkpt><trkpt lat="45.8928892" lon="11.3458913"><ele>384.0</ele><time>2026-04-19T08:18:28.274Z</time></trkpt><trkpt lat="45.8930036" lon="11.3458366"><ele>384.0</ele><time>2026-04-19T08:18:29.278Z</time></trkpt><trkpt lat="45.8930984" lon="11.3457451"><ele>384.0</ele><time>2026-04-19T08:18:30.278Z</time></trkpt><trkpt lat="45.8931914" lon="11.345642"><ele>384.0</ele><time>2026-04-19T08:18:31.279Z</time></trkpt><trkpt lat="45.8932902" lon="11.3455384"><ele>384.25</ele><time>2026-04-19T08:18:32.267Z</time></trkpt><trkpt lat="45.8933885" lon="11.3454221"><ele>384.5</ele><time>2026-04-19T08:18:33.286Z</time></trkpt><trkpt lat="45.8934715" lon="11.3452784"><ele>384.75</ele><time>2026-04-19T08:18:34.26Z</time></trkpt><trkpt lat="45.8935626" lon="11.3451444"><ele>385.0</ele><time>2026-04-19T08:18:35.272Z</time></trkpt><trkpt lat="45.8936395" lon="11.3449922"><ele>385.0</ele><time>2026-04-19T08:18:36.28Z</time></trkpt><trkpt lat="45.8937272" lon="11.3448489"><ele>385.0</ele><time>2026-04-19T08:18:37.289Z</time></trkpt><trkpt lat="45.893811" lon="11.3446979"><ele>385.0</ele><time>2026-04-19T08:18:38.278Z</time></trkpt><trkpt lat="45.89389" lon="11.3445422"><ele>385.0</ele><time>2026-04-19T08:18:39.282Z</time></trkpt><trkpt lat="45.8939659" lon="11.3443768"><ele>386.75</ele><time>2026-04-19T08:18:40.271Z</time></trkpt><trkpt lat="45.8940335" lon="11.3441968"><ele>388.5</ele><time>2026-04-19T08:18:41.285Z</time></trkpt><trkpt lat="45.8940939" lon="11.3440053"><ele>390.25</ele><time>2026-04-19T08:18:42.264Z</time></trkpt><trkpt lat="45.8941555" lon="11.3438122"><ele>392.0</ele><time>2026-04-19T08:18:43.282Z</time></trkpt><trkpt lat="45.8942204" lon="11.3436193"><ele>392.3333333333333</ele><time>2026-04-19T08:18:44.271Z</time></trkpt><trkpt lat="45.8942878" lon="11.3434233"><ele>392.66666666666663</ele><time>2026-04-19T08:18:45.28Z</time></trkpt><trkpt lat="45.8943525" lon="11.3432231"><ele>393.0</ele><time>2026-04-19T08:18:46.279Z</time></trkpt><trkpt lat="45.8944156" lon="11.3430274"><ele>394.5</ele><time>2026-04-19T08:18:47.284Z</time></trkpt><trkpt lat="45.8944695" lon="11.3428379"><ele>396.0</ele><time>2026-04-19T08:18:48.27Z</time></trkpt><trkpt lat="45.8945344" lon="11.3426622"><ele>397.5</ele><time>2026-04-19T08:18:49.262Z</time></trkpt><trkpt lat="45.8945911" lon="11.3424821"><ele>399.0</ele><time>2026-04-19T08:18:50.272Z</time></trkpt><trkpt lat="45.8946503" lon="11.3423062"><ele>399.0</ele><time>2026-04-19T08:18:51.28Z</time></trkpt><trkpt lat="45.8946906" lon="11.3421208"><ele>399.0</ele><time>2026-04-19T08:18:52.29Z</time></trkpt><trkpt lat="45.894728" lon="11.3419338"><ele>399.0</ele><time>2026-04-19T08:18:53.285Z</time></trkpt><trkpt lat="45.894756" lon="11.3417393"><ele>399.0</ele><time>2026-04-19T08:18:54.273Z</time></trkpt><trkpt lat="45.8947723" lon="11.3415386"><ele>399.25</ele><time>2026-04-19T08:18:55.284Z</time></trkpt><trkpt lat="45.8947831" lon="11.3413339"><ele>399.5</ele><time>2026-04-19T08:18:56.277Z</time></trkpt><trkpt lat="45.8947951" lon="11.3411287"><ele>399.75</ele><time>2026-04-19T08:18:57.264Z</time></trkpt><trkpt lat="45.8948043" lon="11.340923"><ele>400.0</ele><time>2026-04-19T08:18:58.279Z</time></trkpt><trkpt lat="45.8948104" lon="11.3407151"><ele>400.75</ele><time>2026-04-19T08:18:59.278Z</time></trkpt><trkpt lat="45.8948197" lon="11.3405069"><ele>401.5</ele><time>2026-04-19T08:19:00.276Z</time></trkpt><trkpt lat="45.8948352" lon="11.340299"><ele>402.25</ele><time>2026-04-19T08:19:01.282Z</time></trkpt><trkpt lat="45.8948639" lon="11.34009"><ele>403.0</ele><time>2026-04-19T08:19:02.272Z</time></trkpt><trkpt lat="45.8948681" lon="11.339872"><ele>404.6666666666667</ele><time>2026-04-19T08:19:03.284Z</time></trkpt><trkpt lat="45.8948799" lon="11.3396429"><ele>406.33333333333337</ele><time>2026-04-19T08:19:04.273Z</time></trkpt><trkpt lat="45.8949036" lon="11.3394018"><ele>408.0</ele><time>2026-04-19T08:19:05.286Z</time></trkpt><trkpt lat="45.8949109" lon="11.339151"><ele>408.0</ele><time>2026-04-19T08:19:06.283Z</time></trkpt><trkpt lat="45.8949163" lon="11.3388926"><ele>408.0</ele><time>2026-04-19T08:19:07.277Z</time></trkpt><trkpt lat="45.8949182" lon="11.3386312"><ele>408.0</ele><time>2026-04-19T08:19:08.269Z</time></trkpt><trkpt lat="45.8949137" lon="11.3383704"><ele>409.0</ele><time>2026-04-19T08:19:09.296Z</time></trkpt><trkpt lat="45.8949142" lon="11.338116"><ele>410.0</ele><time>2026-04-19T08:19:10.282Z</time></trkpt><trkpt lat="45.8949134" lon="11.3378736"><ele>411.0</ele><time>2026-04-19T08:19:11.282Z</time></trkpt><trkpt lat="45.8949122" lon="11.3376453"><ele>411.25</ele><time>2026-04-19T08:19:12.265Z</time></trkpt><trkpt lat="45.8949159" lon="11.3374275"><ele>411.5</ele><time>2026-04-19T08:19:13.271Z</time></trkpt><trkpt lat="45.8949294" lon="11.3372201"><ele>411.75</ele><time>2026-04-19T08:19:14.293Z</time></trkpt><trkpt lat="45.8949571" lon="11.3370208"><ele>412.0</ele><time>2026-04-19T08:19:15.29Z</time></trkpt><trkpt lat="45.894987" lon="11.3368223"><ele>412.0</ele><time>2026-04-19T08:19:16.291Z</time></trkpt><trkpt lat="45.8950022" lon="11.3366215"><ele>412.0</ele><time>2026-04-19T08:19:17.272Z</time></trkpt><trkpt lat="45.8950105" lon="11.3364183"><ele>412.0</ele><time>2026-04-19T08:19:18.281Z</time></trkpt><trkpt lat="45.8950269" lon="11.3362203"><ele>412.0</ele><time>2026-04-19T08:19:19.282Z</time></trkpt><trkpt lat="45.8950383" lon="11.3360177"><ele>412.75</ele><time>2026-04-19T08:19:20.274Z</time></trkpt><trkpt lat="45.8950317" lon="11.3358138"><ele>413.5</ele><time>2026-04-19T08:19:21.278Z</time></trkpt><trkpt lat="45.8950495" lon="11.3356112"><ele>414.25</ele><time>2026-04-19T08:19:22.284Z</time></trkpt><trkpt lat="45.8950786" lon="11.3354178"><ele>415.0</ele><time>2026-04-19T08:19:23.287Z</time></trkpt><trkpt lat="45.8951215" lon="11.3352271"><ele>415.0</ele><time>2026-04-19T08:19:24.276Z</time></trkpt><trkpt lat="45.89519" lon="11.3350408"><ele>415.0</ele><time>2026-04-19T08:19:25.271Z</time></trkpt><trkpt lat="45.8952588" lon="11.3348395"><ele>415.0</ele><time>2026-04-19T08:19:26.285Z</time></trkpt><trkpt lat="45.8953452" lon="11.3346559"><ele>415.0</ele><time>2026-04-19T08:19:27.282Z</time></trkpt><trkpt lat="45.8954378" lon="11.3344929"><ele>415.0</ele><time>2026-04-19T08:19:28.27Z</time></trkpt><trkpt lat="45.8955472" lon="11.3343572"><ele>415.0</ele><time>2026-04-19T08:19:29.271Z</time></trkpt><trkpt lat="45.8956607" lon="11.3342281"><ele>415.0</ele><time>2026-04-19T08:19:30.28Z</time></trkpt><trkpt lat="45.8957839" lon="11.3341313"><ele>415.0</ele><time>2026-04-19T08:19:31.288Z</time></trkpt><trkpt lat="45.8959153" lon="11.3340474"><ele>415.0</ele><time>2026-04-19T08:19:32.288Z</time></trkpt><trkpt lat="45.8960507" lon="11.3339764"><ele>415.0</ele><time>2026-04-19T08:19:33.281Z</time></trkpt><trkpt lat="45.8961864" lon="11.3339029"><ele>415.0</ele><time>2026-04-19T08:19:34.282Z</time></trkpt><trkpt lat="45.8963273" lon="11.3338398"><ele>416.0</ele><time>2026-04-19T08:19:35.268Z</time></trkpt><trkpt lat="45.8964629" lon="11.3337688"><ele>417.0</ele><time>2026-04-19T08:19:36.271Z</time></trkpt><trkpt lat="45.896591" lon="11.3336921"><ele>418.0</ele><time>2026-04-19T08:19:37.288Z</time></trkpt><trkpt lat="45.8967179" lon="11.3336206"><ele>419.0</ele><time>2026-04-19T08:19:38.291Z</time></trkpt><trkpt lat="45.8968447" lon="11.3335524"><ele>416.25</ele><time>2026-04-19T08:19:39.264Z</time></trkpt><trkpt lat="45.8969639" lon="11.333457"><ele>413.5</ele><time>2026-04-19T08:19:40.271Z</time></trkpt><trkpt lat="45.8970818" lon="11.3333611"><ele>410.75</ele><time>2026-04-19T08:19:41.282Z</time></trkpt><trkpt lat="45.8971912" lon="11.3332423"><ele>408.0</ele><time>2026-04-19T08:19:42.271Z</time></trkpt><trkpt lat="45.8972906" lon="11.3330983"><ele>410.0</ele><time>2026-04-19T08:19:43.305Z</time></trkpt><trkpt lat="45.8973761" lon="11.332924"><ele>412.0</ele><time>2026-04-19T08:19:44.283Z</time></trkpt><trkpt lat="45.8974587" lon="11.332741"><ele>414.0</ele><time>2026-04-19T08:19:45.287Z</time></trkpt><trkpt lat="45.897542" lon="11.3325524"><ele>413.0</ele><time>2026-04-19T08:19:46.293Z</time></trkpt><trkpt lat="45.8976227" lon="11.3323589"><ele>412.0</ele><time>2026-04-19T08:19:47.286Z</time></trkpt><trkpt lat="45.8977046" lon="11.3321636"><ele>411.0</ele><time>2026-04-19T08:19:48.287Z</time></trkpt><trkpt lat="45.897788" lon="11.3319674"><ele>411.0</ele><time>2026-04-19T08:19:49.284Z</time></trkpt><trkpt lat="45.8978641" lon="11.331763"><ele>411.0</ele><time>2026-04-19T08:19:50.296Z</time></trkpt><trkpt lat="45.8979462" lon="11.3315596"><ele>411.0</ele><time>2026-04-19T08:19:51.28Z</time></trkpt><trkpt lat="45.8980318" lon="11.3313534"><ele>413.33333333333337</ele><time>2026-04-19T08:19:52.315Z</time></trkpt><trkpt lat="45.8981245" lon="11.3311461"><ele>415.6666666666667</ele><time>2026-04-19T08:19:53.302Z</time></trkpt><trkpt lat="45.8982236" lon="11.3309217"><ele>418.0</ele><time>2026-04-19T08:19:54.298Z</time></trkpt><trkpt lat="45.8983457" lon="11.3306797"><ele>417.0</ele><time>2026-04-19T08:19:55.278Z</time></trkpt><trkpt lat="45.8984897" lon="11.330421"><ele>416.0</ele><time>2026-04-19T08:19:56.281Z</time></trkpt><trkpt lat="45.8986462" lon="11.3301371"><ele>416.0</ele><time>2026-04-19T08:19:57.278Z</time></trkpt><trkpt lat="45.8988181" lon="11.329833"><ele>416.0</ele><time>2026-04-19T08:19:58.283Z</time></trkpt><trkpt lat="45.8989964" lon="11.3295264"><ele>414.5</ele><time>2026-04-19T08:19:59.281Z</time></trkpt><trkpt lat="45.8991733" lon="11.3292385"><ele>413.0</ele><time>2026-04-19T08:20:00.285Z</time></trkpt><trkpt lat="45.8993417" lon="11.3289716"><ele>416.0</ele><time>2026-04-19T08:20:01.281Z</time></trkpt><trkpt lat="45.8994966" lon="11.3287198"><ele>419.0</ele><time>2026-04-19T08:20:02.282Z</time></trkpt><trkpt lat="45.8996473" lon="11.3284887"><ele>419.0</ele><time>2026-04-19T08:20:03.276Z</time></trkpt><trkpt lat="45.8997909" lon="11.3282653"><ele>419.0</ele><time>2026-04-19T08:20:04.292Z</time></trkpt><trkpt lat="45.899929" lon="11.3280412"><ele>419.0</ele><time>2026-04-19T08:20:05.286Z</time></trkpt><trkpt lat="45.9000627" lon="11.327816"><ele>418.0</ele><time>2026-04-19T08:20:06.293Z</time></trkpt><trkpt lat="45.9001944" lon="11.3275961"><ele>417.0</ele><time>2026-04-19T08:20:07.288Z</time></trkpt><trkpt lat="45.9003241" lon="11.3273824"><ele>416.0</ele><time>2026-04-19T08:20:08.286Z</time></trkpt><trkpt lat="45.9004493" lon="11.3271773"><ele>419.66666666666663</ele><time>2026-04-19T08:20:09.293Z</time></trkpt><trkpt lat="45.9005626" lon="11.3269706"><ele>423.33333333333337</ele><time>2026-04-19T08:20:10.276Z</time></trkpt><trkpt lat="45.9006581" lon="11.3267446"><ele>427.0</ele><time>2026-04-19T08:20:11.29Z</time></trkpt><trkpt lat="45.9007488" lon="11.326513"><ele>423.6666666666667</ele><time>2026-04-19T08:20:12.288Z</time></trkpt><trkpt lat="45.9008373" lon="11.326274"><ele>420.33333333333337</ele><time>2026-04-19T08:20:13.281Z</time></trkpt><trkpt lat="45.9009335" lon="11.3260369"><ele>417.0</ele><time>2026-04-19T08:20:14.277Z</time></trkpt><trkpt lat="45.9010342" lon="11.3257993"><ele>419.33333333333337</ele><time>2026-04-19T08:20:15.282Z</time></trkpt><trkpt lat="45.9011358" lon="11.3255603"><ele>421.6666666666667</ele><time>2026-04-19T08:20:16.287Z</time></trkpt><trkpt lat="45.9012364" lon="11.3253139"><ele>424.0</ele><time>2026-04-19T08:20:17.289Z</time></trkpt><trkpt lat="45.9013478" lon="11.3250783"><ele>424.0</ele><time>2026-04-19T08:20:18.317Z</time></trkpt><trkpt lat="45.9014456" lon="11.324831"><ele>424.0</ele><time>2026-04-19T08:20:19.3Z</time></trkpt><trkpt lat="45.9015373" lon="11.3245755"><ele>424.0</ele><time>2026-04-19T08:20:20.294Z</time></trkpt><trkpt lat="45.9016361" lon="11.3243236"><ele>423.6666666666667</ele><time>2026-04-19T08:20:21.284Z</time></trkpt><trkpt lat="45.9017191" lon="11.3240605"><ele>423.33333333333337</ele><time>2026-04-19T08:20:22.29Z</time></trkpt><trkpt lat="45.901821" lon="11.3238113"><ele>423.0</ele><time>2026-04-19T08:20:23.299Z</time></trkpt><trkpt lat="45.9019211" lon="11.323563"><ele>423.0</ele><time>2026-04-19T08:20:24.291Z</time></trkpt><trkpt lat="45.9020215" lon="11.3233193"><ele>423.0</ele><time>2026-04-19T08:20:25.284Z</time></trkpt><trkpt lat="45.9021206" lon="11.3230844"><ele>423.0</ele><time>2026-04-19T08:20:26.295Z</time></trkpt><trkpt lat="45.9022037" lon="11.3228533"><ele>426.33333333333337</ele><time>2026-04-19T08:20:27.285Z</time></trkpt><trkpt lat="45.9022808" lon="11.3226278"><ele>429.6666666666667</ele><time>2026-04-19T08:20:28.291Z</time></trkpt><trkpt lat="45.9023657" lon="11.3224104"><ele>433.0</ele><time>2026-04-19T08:20:29.304Z</time></trkpt><trkpt lat="45.9024448" lon="11.3221869"><ele>436.33333333333337</ele><time>2026-04-19T08:20:30.295Z</time></trkpt><trkpt lat="45.9025196" lon="11.3219535"><ele>439.66666666666663</ele><time>2026-04-19T08:20:31.311Z</time></trkpt><trkpt lat="45.9026097" lon="11.3217237"><ele>443.0</ele><time>2026-04-19T08:20:32.276Z</time></trkpt><trkpt lat="45.9026907" lon="11.3214834"><ele>436.66666666666663</ele><time>2026-04-19T08:20:33.293Z</time></trkpt><trkpt lat="45.9027724" lon="11.321238"><ele>430.33333333333337</ele><time>2026-04-19T08:20:34.3Z</time></trkpt><trkpt lat="45.9028456" lon="11.3209824"><ele>424.0</ele><time>2026-04-19T08:20:35.293Z</time></trkpt><trkpt lat="45.9029244" lon="11.3207302"><ele>425.33333333333337</ele><time>2026-04-19T08:20:36.279Z</time></trkpt><trkpt lat="45.9030013" lon="11.3204846"><ele>426.66666666666663</ele><time>2026-04-19T08:20:37.285Z</time></trkpt><trkpt lat="45.9030759" lon="11.3202554"><ele>428.0</ele><time>2026-04-19T08:20:38.283Z</time></trkpt><trkpt lat="45.9031437" lon="11.3200399"><ele>428.0</ele><time>2026-04-19T08:20:39.311Z</time></trkpt><trkpt lat="45.9032034" lon="11.3198407"><ele>428.0</ele><time>2026-04-19T08:20:40.309Z</time></trkpt><trkpt lat="45.9032539" lon="11.3196526"><ele>428.0</ele><time>2026-04-19T08:20:41.293Z</time></trkpt><trkpt lat="45.9033098" lon="11.319472"><ele>428.0</ele><time>2026-04-19T08:20:42.28Z</time></trkpt><trkpt lat="45.9033626" lon="11.3192933"><ele>428.25</ele><time>2026-04-19T08:20:43.29Z</time></trkpt><trkpt lat="45.9034071" lon="11.3191155"><ele>428.5</ele><time>2026-04-19T08:20:44.277Z</time></trkpt><trkpt lat="45.9034408" lon="11.3189368"><ele>428.75</ele><time>2026-04-19T08:20:45.296Z</time></trkpt><trkpt lat="45.9034452" lon="11.3187467"><ele>429.0</ele><time>2026-04-19T08:20:46.278Z</time></trkpt><trkpt lat="45.9034226" lon="11.3185389"><ele>431.33333333333337</ele><time>2026-04-19T08:20:47.282Z</time></trkpt><trkpt lat="45.903351" lon="11.3183323"><ele>433.6666666666667</ele><time>2026-04-19T08:20:48.274Z</time></trkpt><trkpt lat="45.9032977" lon="11.3180927"><ele>436.0</ele><time>2026-04-19T08:20:49.291Z</time></trkpt><trkpt lat="45.9032445" lon="11.3178521"><ele>436.6666666666667</ele><time>2026-04-19T08:20:50.287Z</time></trkpt><trkpt lat="45.9032033" lon="11.317604"><ele>437.33333333333337</ele><time>2026-04-19T08:20:51.288Z</time></trkpt><trkpt lat="45.903178" lon="11.3173551"><ele>438.0</ele><time>2026-04-19T08:20:52.29Z</time></trkpt><trkpt lat="45.9031925" lon="11.3171003"><ele>438.0</ele><time>2026-04-19T08:20:53.292Z</time></trkpt><trkpt lat="45.9031946" lon="11.3168448"><ele>438.0</ele><time>2026-04-19T08:20:54.283Z</time></trkpt><trkpt lat="45.9032036" lon="11.3165885"><ele>438.0</ele><time>2026-04-19T08:20:55.282Z</time></trkpt><trkpt lat="45.9032123" lon="11.3163361"><ele>440.33333333333337</ele><time>2026-04-19T08:20:56.274Z</time></trkpt><trkpt lat="45.9032478" lon="11.316087"><ele>442.6666666666667</ele><time>2026-04-19T08:20:57.27Z</time></trkpt><trkpt lat="45.9032971" lon="11.3158457"><ele>445.0</ele><time>2026-04-19T08:20:58.275Z</time></trkpt><trkpt lat="45.9033804" lon="11.3156262"><ele>443.33333333333337</ele><time>2026-04-19T08:20:59.274Z</time></trkpt><trkpt lat="45.9034875" lon="11.3154229"><ele>441.66666666666663</ele><time>2026-04-19T08:21:00.273Z</time></trkpt><trkpt lat="45.9035943" lon="11.3152143"><ele>440.0</ele><time>2026-04-19T08:21:01.272Z</time></trkpt><trkpt lat="45.9037193" lon="11.3150232"><ele>440.0</ele><time>2026-04-19T08:21:02.279Z</time></trkpt><trkpt lat="45.9038615" lon="11.3148456"><ele>440.0</ele><time>2026-04-19T08:21:03.287Z</time></trkpt><trkpt lat="45.9040227" lon="11.3146938"><ele>440.0</ele><time>2026-04-19T08:21:04.27Z</time></trkpt><trkpt lat="45.9042017" lon="11.3145624"><ele>438.66666666666663</ele><time>2026-04-19T08:21:05.273Z</time></trkpt><trkpt lat="45.9043713" lon="11.3143996"><ele>437.33333333333337</ele><time>2026-04-19T08:21:06.295Z</time></trkpt><trkpt lat="45.9045387" lon="11.3142317"><ele>436.0</ele><time>2026-04-19T08:21:07.268Z</time></trkpt><trkpt lat="45.9047032" lon="11.3140721"><ele>436.0</ele><time>2026-04-19T08:21:08.267Z</time></trkpt><trkpt lat="45.9048639" lon="11.3139206"><ele>436.0</ele><time>2026-04-19T08:21:09.278Z</time></trkpt><trkpt lat="45.9050144" lon="11.3137797"><ele>436.0</ele><time>2026-04-19T08:21:10.28Z</time></trkpt><trkpt lat="45.9051567" lon="11.3136522"><ele>437.33333333333337</ele><time>2026-04-19T08:21:11.277Z</time></trkpt><trkpt lat="45.905288" lon="11.3135271"><ele>438.66666666666663</ele><time>2026-04-19T08:21:12.277Z</time></trkpt><trkpt lat="45.9054144" lon="11.3134137"><ele>440.0</ele><time>2026-04-19T08:21:13.272Z</time></trkpt><trkpt lat="45.9055438" lon="11.3133136"><ele>440.0</ele><time>2026-04-19T08:21:14.257Z</time></trkpt><trkpt lat="45.9056825" lon="11.3132473"><ele>440.0</ele><time>2026-04-19T08:21:15.262Z</time></trkpt><trkpt lat="45.9058246" lon="11.3132113"><ele>440.0</ele><time>2026-04-19T08:21:16.267Z</time></trkpt><trkpt lat="45.9059679" lon="11.3132067"><ele>440.0</ele><time>2026-04-19T08:21:17.299Z</time></trkpt><trkpt lat="45.9061008" lon="11.3132135"><ele>442.25</ele><time>2026-04-19T08:21:18.275Z</time></trkpt><trkpt lat="45.9062279" lon="11.3132538"><ele>444.5</ele><time>2026-04-19T08:21:19.282Z</time></trkpt><trkpt lat="45.9063469" lon="11.3133074"><ele>446.75</ele><time>2026-04-19T08:21:20.277Z</time></trkpt><trkpt lat="45.9064601" lon="11.3133592"><ele>449.0</ele><time>2026-04-19T08:21:21.281Z</time></trkpt><trkpt lat="45.9065699" lon="11.3134118"><ele>449.0</ele><time>2026-04-19T08:21:22.272Z</time></trkpt><trkpt lat="45.9066729" lon="11.31347"><ele>449.0</ele><time>2026-04-19T08:21:23.275Z</time></trkpt><trkpt lat="45.9067717" lon="11.3135277"><ele>449.0</ele><time>2026-04-19T08:21:24.286Z</time></trkpt><trkpt lat="45.9068645" lon="11.3135899"><ele>449.0</ele><time>2026-04-19T08:21:25.298Z</time></trkpt><trkpt lat="45.9069523" lon="11.3136476"><ele>449.0</ele><time>2026-04-19T08:21:26.291Z</time></trkpt><trkpt lat="45.9070378" lon="11.3137022"><ele>448.16666666666663</ele><time>2026-04-19T08:21:27.28Z</time></trkpt><trkpt lat="45.9071264" lon="11.3137427"><ele>447.3333333333333</ele><time>2026-04-19T08:21:28.27Z</time></trkpt><trkpt lat="45.9072151" lon="11.3137691"><ele>446.5</ele><time>2026-04-19T08:21:29.271Z</time></trkpt><trkpt lat="45.9072975" lon="11.3137881"><ele>445.66666666666663</ele><time>2026-04-19T08:21:30.287Z</time></trkpt><trkpt lat="45.9073769" lon="11.3137826"><ele>444.8333333333333</ele><time>2026-04-19T08:21:31.277Z</time></trkpt><trkpt lat="45.907449" lon="11.3137968"><ele>444.0</ele><time>2026-04-19T08:21:32.272Z</time></trkpt><trkpt lat="45.9075394" lon="11.3138641"><ele>449.2</ele><time>2026-04-19T08:21:34.286Z</time></trkpt><trkpt lat="45.9076266" lon="11.3138813"><ele>454.4</ele><time>2026-04-19T08:21:37.289Z</time></trkpt><trkpt lat="45.9076982" lon="11.3139415"><ele>459.6</ele><time>2026-04-19T08:21:39.271Z</time></trkpt><trkpt lat="45.9077645" lon="11.3139282"><ele>464.8</ele><time>2026-04-19T08:21:41.281Z</time></trkpt><trkpt lat="45.9078068" lon="11.31378"><ele>470.0</ele><time>2026-04-19T08:21:43.278Z</time></trkpt><trkpt lat="45.9078356" lon="11.3136387"><ele>470.0</ele><time>2026-04-19T08:21:44.283Z</time></trkpt><trkpt lat="45.9078741" lon="11.3134863"><ele>470.0</ele><time>2026-04-19T08:21:45.287Z</time></trkpt><trkpt lat="45.9079125" lon="11.3133353"><ele>470.0</ele><time>2026-04-19T08:21:46.295Z</time></trkpt><trkpt lat="45.9079643" lon="11.3131808"><ele>470.0</ele><time>2026-04-19T08:21:47.291Z</time></trkpt><trkpt lat="45.908014" lon="11.3130181"><ele>468.5</ele><time>2026-04-19T08:21:48.285Z</time></trkpt><trkpt lat="45.9080585" lon="11.312853"><ele>467.0</ele><time>2026-04-19T08:21:49.306Z</time></trkpt><trkpt lat="45.908088" lon="11.3126766"><ele>465.5</ele><time>2026-04-19T08:21:50.276Z</time></trkpt><trkpt lat="45.9081039" lon="11.3124913"><ele>464.0</ele><time>2026-04-19T08:21:51.303Z</time></trkpt><trkpt lat="45.908109" lon="11.3122996"><ele>463.5</ele><time>2026-04-19T08:21:52.271Z</time></trkpt><trkpt lat="45.9081059" lon="11.3121055"><ele>463.0</ele><time>2026-04-19T08:21:53.293Z</time></trkpt><trkpt lat="45.9081023" lon="11.3119129"><ele>462.5</ele><time>2026-04-19T08:21:54.292Z</time></trkpt><trkpt lat="45.9081116" lon="11.3117194"><ele>462.0</ele><time>2026-04-19T08:21:55.286Z</time></trkpt><trkpt lat="45.9081265" lon="11.311524"><ele>461.25</ele><time>2026-04-19T08:21:56.277Z</time></trkpt><trkpt lat="45.9081472" lon="11.3113261"><ele>460.5</ele><time>2026-04-19T08:21:57.278Z</time></trkpt><trkpt lat="45.9081716" lon="11.3111287"><ele>459.75</ele><time>2026-04-19T08:21:58.288Z</time></trkpt><trkpt lat="45.9081932" lon="11.3109362"><ele>459.0</ele><time>2026-04-19T08:21:59.284Z</time></trkpt><trkpt lat="45.9082307" lon="11.3107421"><ele>456.25</ele><time>2026-04-19T08:22:00.286Z</time></trkpt><trkpt lat="45.9082727" lon="11.3105415"><ele>453.5</ele><time>2026-04-19T08:22:01.305Z</time></trkpt><trkpt lat="45.9083013" lon="11.3103534"><ele>450.75</ele><time>2026-04-19T08:22:02.27Z</time></trkpt><trkpt lat="45.9083558" lon="11.3101941"><ele>448.0</ele><time>2026-04-19T08:22:03.278Z</time></trkpt><trkpt lat="45.9083991" lon="11.3100285"><ele>452.75</ele><time>2026-04-19T08:22:04.269Z</time></trkpt><trkpt lat="45.9084356" lon="11.3098587"><ele>457.5</ele><time>2026-04-19T08:22:05.289Z</time></trkpt><trkpt lat="45.9084713" lon="11.3096962"><ele>462.25</ele><time>2026-04-19T08:22:06.297Z</time></trkpt><trkpt lat="45.9084996" lon="11.3095401"><ele>467.0</ele><time>2026-04-19T08:22:07.304Z</time></trkpt><trkpt lat="45.9085277" lon="11.3094021"><ele>467.0</ele><time>2026-04-19T08:22:08.276Z</time></trkpt><trkpt lat="45.9085728" lon="11.3092775"><ele>467.00000000000006</ele><time>2026-04-19T08:22:09.281Z</time></trkpt><trkpt lat="45.9085839" lon="11.3091301"><ele>467.00000000000006</ele><time>2026-04-19T08:22:10.281Z</time></trkpt><trkpt lat="45.9085692" lon="11.3089725"><ele>467.0</ele><time>2026-04-19T08:22:11.286Z</time></trkpt><trkpt lat="45.9085718" lon="11.308812"><ele>467.0</ele><time>2026-04-19T08:22:12.278Z</time></trkpt><trkpt lat="45.9085713" lon="11.3086489"><ele>465.25</ele><time>2026-04-19T08:22:13.281Z</time></trkpt><trkpt lat="45.9085688" lon="11.3084831"><ele>463.5</ele><time>2026-04-19T08:22:14.283Z</time></trkpt><trkpt lat="45.9085686" lon="11.3083201"><ele>461.75</ele><time>2026-04-19T08:22:15.279Z</time></trkpt><trkpt lat="45.9085673" lon="11.3081591"><ele>460.0</ele><time>2026-04-19T08:22:16.273Z</time></trkpt><trkpt lat="45.9085588" lon="11.3079977"><ele>460.0</ele><time>2026-04-19T08:22:17.288Z</time></trkpt><trkpt lat="45.9085442" lon="11.3078359"><ele>460.0</ele><time>2026-04-19T08:22:18.277Z</time></trkpt><trkpt lat="45.9085246" lon="11.3076697"><ele>460.0</ele><time>2026-04-19T08:22:19.29Z</time></trkpt><trkpt lat="45.9085115" lon="11.3074951"><ele>460.0</ele><time>2026-04-19T08:22:20.281Z</time></trkpt><trkpt lat="45.9084919" lon="11.3073106"><ele>460.25</ele><time>2026-04-19T08:22:21.289Z</time></trkpt><trkpt lat="45.9084782" lon="11.3071172"><ele>460.5</ele><time>2026-04-19T08:22:22.285Z</time></trkpt><trkpt lat="45.9084703" lon="11.3069208"><ele>460.75</ele><time>2026-04-19T08:22:23.286Z</time></trkpt><trkpt lat="45.90846" lon="11.3067248"><ele>461.0</ele><time>2026-04-19T08:22:24.275Z</time></trkpt><trkpt lat="45.9084445" lon="11.3065334"><ele>461.0</ele><time>2026-04-19T08:22:25.301Z</time></trkpt><trkpt lat="45.9084449" lon="11.3063471"><ele>461.0</ele><time>2026-04-19T08:22:26.288Z</time></trkpt><trkpt lat="45.9084655" lon="11.3061707"><ele>461.0</ele><time>2026-04-19T08:22:27.281Z</time></trkpt><trkpt lat="45.908508" lon="11.3060088"><ele>461.0</ele><time>2026-04-19T08:22:28.277Z</time></trkpt><trkpt lat="45.9085526" lon="11.3058391"><ele>461.0</ele><time>2026-04-19T08:22:29.281Z</time></trkpt><trkpt lat="45.9086263" lon="11.3056645"><ele>461.0</ele><time>2026-04-19T08:22:30.286Z</time></trkpt><trkpt lat="45.9087148" lon="11.3054874"><ele>461.0</ele><time>2026-04-19T08:22:31.294Z</time></trkpt><trkpt lat="45.9088199" lon="11.3053258"><ele>461.0</ele><time>2026-04-19T08:22:32.289Z</time></trkpt><trkpt lat="45.9089139" lon="11.3051719"><ele>461.25</ele><time>2026-04-19T08:22:33.293Z</time></trkpt><trkpt lat="45.9090111" lon="11.3050411"><ele>461.5</ele><time>2026-04-19T08:22:34.289Z</time></trkpt><trkpt lat="45.9091019" lon="11.3049157"><ele>461.75</ele><time>2026-04-19T08:22:35.281Z</time></trkpt><trkpt lat="45.9091914" lon="11.3048003"><ele>462.0</ele><time>2026-04-19T08:22:36.283Z</time></trkpt><trkpt lat="45.909268" lon="11.3046766"><ele>463.5</ele><time>2026-04-19T08:22:37.279Z</time></trkpt><trkpt lat="45.9093505" lon="11.3045619"><ele>465.0</ele><time>2026-04-19T08:22:38.272Z</time></trkpt><trkpt lat="45.9094513" lon="11.3044647"><ele>466.5</ele><time>2026-04-19T08:22:39.28Z</time></trkpt><trkpt lat="45.909548" lon="11.3043417"><ele>468.0</ele><time>2026-04-19T08:22:40.282Z</time></trkpt><trkpt lat="45.9096404" lon="11.3041978"><ele>468.0</ele><time>2026-04-19T08:22:41.284Z</time></trkpt><trkpt lat="45.909736" lon="11.3040552"><ele>468.0</ele><time>2026-04-19T08:22:42.277Z</time></trkpt><trkpt lat="45.9098279" lon="11.3038994"><ele>468.0</ele><time>2026-04-19T08:22:43.284Z</time></trkpt><trkpt lat="45.9099186" lon="11.3037331"><ele>468.0</ele><time>2026-04-19T08:22:44.278Z</time></trkpt><trkpt lat="45.9100107" lon="11.3035618"><ele>467.66666666666663</ele><time>2026-04-19T08:22:45.278Z</time></trkpt><trkpt lat="45.910109" lon="11.30339"><ele>467.3333333333333</ele><time>2026-04-19T08:22:46.275Z</time></trkpt><trkpt lat="45.9102073" lon="11.3032138"><ele>467.0</ele><time>2026-04-19T08:22:47.284Z</time></trkpt><trkpt lat="45.9103048" lon="11.3030342"><ele>467.0</ele><time>2026-04-19T08:22:48.284Z</time></trkpt><trkpt lat="45.9103998" lon="11.3028496"><ele>467.0</ele><time>2026-04-19T08:22:49.279Z</time></trkpt><trkpt lat="45.9104972" lon="11.30267"><ele>467.0</ele><time>2026-04-19T08:22:50.283Z</time></trkpt><trkpt lat="45.9105927" lon="11.3024941"><ele>467.0</ele><time>2026-04-19T08:22:51.281Z</time></trkpt><trkpt lat="45.9106964" lon="11.3023334"><ele>467.0</ele><time>2026-04-19T08:22:52.28Z</time></trkpt><trkpt lat="45.9107946" lon="11.302166"><ele>467.0</ele><time>2026-04-19T08:22:53.289Z</time></trkpt><trkpt lat="45.9108901" lon="11.3019874"><ele>471.3333333333333</ele><time>2026-04-19T08:22:54.278Z</time></trkpt><trkpt lat="45.9109831" lon="11.3017979"><ele>475.66666666666663</ele><time>2026-04-19T08:22:55.283Z</time></trkpt><trkpt lat="45.9110756" lon="11.30161"><ele>480.0</ele><time>2026-04-19T08:22:56.29Z</time></trkpt><trkpt lat="45.911165" lon="11.3014289"><ele>477.75</ele><time>2026-04-19T08:22:57.287Z</time></trkpt><trkpt lat="45.9112551" lon="11.3012609"><ele>475.5</ele><time>2026-04-19T08:22:58.291Z</time></trkpt><trkpt lat="45.9113235" lon="11.30108"><ele>473.25</ele><time>2026-04-19T08:22:59.282Z</time></trkpt><trkpt lat="45.9114039" lon="11.3009244"><ele>471.0</ele><time>2026-04-19T08:23:00.277Z</time></trkpt><trkpt lat="45.911484" lon="11.3007793"><ele>471.0</ele><time>2026-04-19T08:23:01.28Z</time></trkpt><trkpt lat="45.911551" lon="11.3006263"><ele>471.0</ele><time>2026-04-19T08:23:02.292Z</time></trkpt><trkpt lat="45.9116311" lon="11.3004865"><ele>471.0</ele><time>2026-04-19T08:23:03.276Z</time></trkpt><trkpt lat="45.9117278" lon="11.3003558"><ele>471.0</ele><time>2026-04-19T08:23:04.283Z</time></trkpt><trkpt lat="45.911832" lon="11.300234"><ele>470.25</ele><time>2026-04-19T08:23:05.291Z</time></trkpt><trkpt lat="45.9119377" lon="11.300115"><ele>469.5</ele><time>2026-04-19T08:23:06.288Z</time></trkpt><trkpt lat="45.9120443" lon="11.2999901"><ele>468.75</ele><time>2026-04-19T08:23:07.289Z</time></trkpt><trkpt lat="45.9121389" lon="11.299844"><ele>468.0</ele><time>2026-04-19T08:23:08.286Z</time></trkpt><trkpt lat="45.9122123" lon="11.2996741"><ele>467.5</ele><time>2026-04-19T08:23:09.294Z</time></trkpt><trkpt lat="45.9122713" lon="11.2994934"><ele>467.0</ele><time>2026-04-19T08:23:10.28Z</time></trkpt><trkpt lat="45.9123175" lon="11.2993035"><ele>466.5</ele><time>2026-04-19T08:23:11.279Z</time></trkpt><trkpt lat="45.9123546" lon="11.2991029"><ele>466.0</ele><time>2026-04-19T08:23:12.276Z</time></trkpt><trkpt lat="45.9124081" lon="11.2989033"><ele>466.0</ele><time>2026-04-19T08:23:13.276Z</time></trkpt><trkpt lat="45.9124594" lon="11.298702"><ele>466.0</ele><time>2026-04-19T08:23:14.28Z</time></trkpt><trkpt lat="45.9125075" lon="11.2985007"><ele>466.0</ele><time>2026-04-19T08:23:15.288Z</time></trkpt><trkpt lat="45.9125594" lon="11.2983004"><ele>466.0</ele><time>2026-04-19T08:23:16.277Z</time></trkpt><trkpt lat="45.9126151" lon="11.2980981"><ele>468.0</ele><time>2026-04-19T08:23:17.279Z</time></trkpt><trkpt lat="45.9126693" lon="11.2978916"><ele>470.0</ele><time>2026-04-19T08:23:18.284Z</time></trkpt><trkpt lat="45.9127251" lon="11.2976827"><ele>472.0</ele><time>2026-04-19T08:23:19.283Z</time></trkpt><trkpt lat="45.91278" lon="11.2974779"><ele>472.0</ele><time>2026-04-19T08:23:20.292Z</time></trkpt><trkpt lat="45.9128412" lon="11.2972864"><ele>472.0</ele><time>2026-04-19T08:23:21.282Z</time></trkpt><trkpt lat="45.9129244" lon="11.2971168"><ele>472.0</ele><time>2026-04-19T08:23:22.27Z</time></trkpt><trkpt lat="45.9130248" lon="11.2969661"><ele>472.0</ele><time>2026-04-19T08:23:23.282Z</time></trkpt><trkpt lat="45.913138" lon="11.2968263"><ele>472.25</ele><time>2026-04-19T08:23:24.276Z</time></trkpt><trkpt lat="45.9132558" lon="11.2966865"><ele>472.5</ele><time>2026-04-19T08:23:25.283Z</time></trkpt><trkpt lat="45.9133664" lon="11.2965371"><ele>472.75</ele><time>2026-04-19T08:23:26.287Z</time></trkpt><trkpt lat="45.9134585" lon="11.2963893"><ele>473.0</ele><time>2026-04-19T08:23:27.285Z</time></trkpt><trkpt lat="45.9135317" lon="11.2962573"><ele>475.8333333333333</ele><time>2026-04-19T08:23:28.287Z</time></trkpt><trkpt lat="45.913588" lon="11.2961504"><ele>478.66666666666663</ele><time>2026-04-19T08:23:29.291Z</time></trkpt><trkpt lat="45.9136248" lon="11.2960655"><ele>481.5</ele><time>2026-04-19T08:23:30.269Z</time></trkpt><trkpt lat="45.9136646" lon="11.2959586"><ele>484.33333333333337</ele><time>2026-04-19T08:23:32.283Z</time></trkpt><trkpt lat="45.9137483" lon="11.2959496"><ele>487.1666666666667</ele><time>2026-04-19T08:23:35.272Z</time></trkpt><trkpt lat="45.9137927" lon="11.2960688"><ele>490.0</ele><time>2026-04-19T08:23:37.276Z</time></trkpt><trkpt lat="45.9137672" lon="11.2962317"><ele>490.00000000000006</ele><time>2026-04-19T08:23:39.291Z</time></trkpt><trkpt lat="45.9137626" lon="11.2963318"><ele>490.0</ele><time>2026-04-19T08:23:40.278Z</time></trkpt><trkpt lat="45.9137661" lon="11.2964424"><ele>490.0</ele><time>2026-04-19T08:23:41.271Z</time></trkpt><trkpt lat="45.9137787" lon="11.2965621"><ele>490.0</ele><time>2026-04-19T08:23:42.278Z</time></trkpt><trkpt lat="45.9138061" lon="11.2966882"><ele>490.00000000000006</ele><time>2026-04-19T08:23:43.273Z</time></trkpt><trkpt lat="45.913817" lon="11.2968257"><ele>490.0</ele><time>2026-04-19T08:23:44.275Z</time></trkpt><trkpt lat="45.9138355" lon="11.2969677"><ele>488.5</ele><time>2026-04-19T08:23:45.267Z</time></trkpt><trkpt lat="45.9138655" lon="11.2971139"><ele>487.0</ele><time>2026-04-19T08:23:46.276Z</time></trkpt><trkpt lat="45.9139048" lon="11.297272"><ele>485.5</ele><time>2026-04-19T08:23:47.271Z</time></trkpt><trkpt lat="45.9139575" lon="11.29744"><ele>484.0</ele><time>2026-04-19T08:23:48.286Z</time></trkpt><trkpt lat="45.9140034" lon="11.2976267"><ele>482.0</ele><time>2026-04-19T08:23:49.273Z</time></trkpt><trkpt lat="45.9140535" lon="11.2978171"><ele>480.0</ele><time>2026-04-19T08:23:50.263Z</time></trkpt><trkpt lat="45.9141049" lon="11.2980097"><ele>478.0</ele><time>2026-04-19T08:23:51.271Z</time></trkpt><trkpt lat="45.9141348" lon="11.2982233"><ele>476.0</ele><time>2026-04-19T08:23:52.263Z</time></trkpt><trkpt lat="45.9141382" lon="11.2984634"><ele>476.0</ele><time>2026-04-19T08:23:53.274Z</time></trkpt><trkpt lat="45.91413" lon="11.2987088"><ele>476.0</ele><time>2026-04-19T08:23:54.28Z</time></trkpt><trkpt lat="45.914091" lon="11.2989442"><ele>476.0</ele><time>2026-04-19T08:23:55.291Z</time></trkpt><trkpt lat="45.9140277" lon="11.2991662"><ele>478.25</ele><time>2026-04-19T08:23:56.262Z</time></trkpt><trkpt lat="45.9139579" lon="11.2993721"><ele>480.5</ele><time>2026-04-19T08:23:57.276Z</time></trkpt><trkpt lat="45.9138994" lon="11.2995636"><ele>482.75</ele><time>2026-04-19T08:23:58.259Z</time></trkpt><trkpt lat="45.9138522" lon="11.2997485"><ele>485.0</ele><time>2026-04-19T08:23:59.281Z</time></trkpt><trkpt lat="45.913822" lon="11.2999342"><ele>488.75</ele><time>2026-04-19T08:24:00.27Z</time></trkpt><trkpt lat="45.9138091" lon="11.3001188"><ele>492.5</ele><time>2026-04-19T08:24:01.266Z</time></trkpt><trkpt lat="45.9138036" lon="11.3003111"><ele>496.25</ele><time>2026-04-19T08:24:02.265Z</time></trkpt><trkpt lat="45.9138084" lon="11.3005146"><ele>500.0</ele><time>2026-04-19T08:24:03.28Z</time></trkpt><trkpt lat="45.9138206" lon="11.3007321"><ele>502.3333333333333</ele><time>2026-04-19T08:24:04.277Z</time></trkpt><trkpt lat="45.9138368" lon="11.3009675"><ele>504.66666666666663</ele><time>2026-04-19T08:24:05.267Z</time></trkpt><trkpt lat="45.9138527" lon="11.3012199"><ele>507.0</ele><time>2026-04-19T08:24:06.272Z</time></trkpt><trkpt lat="45.9138765" lon="11.3014603"><ele>508.5</ele><time>2026-04-19T08:24:07.295Z</time></trkpt><trkpt lat="45.9139072" lon="11.3016852"><ele>510.0</ele><time>2026-04-19T08:24:08.276Z</time></trkpt><trkpt lat="45.9139359" lon="11.301896"><ele>511.5</ele><time>2026-04-19T08:24:09.283Z</time></trkpt><trkpt lat="45.9139526" lon="11.3020966"><ele>513.0</ele><time>2026-04-19T08:24:10.274Z</time></trkpt><trkpt lat="45.9139555" lon="11.3022851"><ele>514.5</ele><time>2026-04-19T08:24:11.273Z</time></trkpt><trkpt lat="45.9139485" lon="11.3024552"><ele>516.0</ele><time>2026-04-19T08:24:12.281Z</time></trkpt><trkpt lat="45.913933" lon="11.3026001"><ele>517.5</ele><time>2026-04-19T08:24:13.277Z</time></trkpt><trkpt lat="45.9139239" lon="11.3027206"><ele>519.0</ele><time>2026-04-19T08:24:14.287Z</time></trkpt><trkpt lat="45.9139304" lon="11.3028248"><ele>520.5</ele><time>2026-04-19T08:24:15.268Z</time></trkpt><trkpt lat="45.9139515" lon="11.302912"><ele>522.0</ele><time>2026-04-19T08:24:16.261Z</time></trkpt><trkpt lat="45.9139845" lon="11.3030352"><ele>522.3333333333334</ele><time>2026-04-19T08:24:18.282Z</time></trkpt><trkpt lat="45.9140182" lon="11.3031345"><ele>522.6666666666666</ele><time>2026-04-19T08:24:21.284Z</time></trkpt><trkpt lat="45.9141005" lon="11.3032116"><ele>523.0</ele><time>2026-04-19T08:24:26.289Z</time></trkpt><trkpt lat="45.9141356" lon="11.3033521"><ele>523.3333333333333</ele><time>2026-04-19T08:24:54.278Z</time></trkpt><trkpt lat="45.9141863" lon="11.3034317"><ele>523.6666666666666</ele><time>2026-04-19T08:29:21.263Z</time></trkpt><trkpt lat="45.9141174" lon="11.3033822"><ele>524.0</ele><time>2026-04-19T08:29:30.265Z</time></trkpt><trkpt lat="45.9140503" lon="11.3033677"><ele>524.0</ele><time>2026-04-19T08:29:36.249Z</time></trkpt><trkpt lat="45.9140528" lon="11.303259"><ele>524.0</ele><time>2026-04-19T08:35:55.278Z</time></trkpt><trkpt lat="45.9140936" lon="11.3033754"><ele>524.0</ele><time>2026-04-19T08:36:03.273Z</time></trkpt><trkpt lat="45.9140813" lon="11.3034697"><ele>524.0</ele><time>2026-04-19T08:36:06.281Z</time></trkpt><trkpt lat="45.9140915" lon="11.3035629"><ele>524.0</ele><time>2026-04-19T08:36:13.267Z</time></trkpt><trkpt lat="45.9141318" lon="11.3036428"><ele>524.0</ele><time>2026-04-19T08:36:18.281Z</time></trkpt><trkpt lat="45.9140972" lon="11.3037187"><ele>524.0</ele><time>2026-04-19T08:36:52.298Z</time></trkpt><trkpt lat="45.9140426" lon="11.3037668"><ele>524.0</ele><time>2026-04-19T08:38:00.298Z</time></trkpt></trkseg><trkseg><trkpt lat="45.9138876" lon="11.303509"><ele>524.0</ele><time>2026-04-19T08:55:44.029Z</time></trkpt><trkpt lat="45.9137016" lon="11.303675"><ele>524.0</ele><time>2026-04-19T08:55:45.038Z</time></trkpt><trkpt lat="45.9136227" lon="11.3037542"><ele>524.0</ele><time>2026-04-19T08:55:46.051Z</time></trkpt><trkpt lat="45.9135387" lon="11.30384"><ele>524.0</ele><time>2026-04-19T08:55:47.024Z</time></trkpt><trkpt lat="45.9134481" lon="11.303931"><ele>519.75</ele><time>2026-04-19T08:55:48.027Z</time></trkpt><trkpt lat="45.913353" lon="11.3040267"><ele>515.5</ele><time>2026-04-19T08:55:49.048Z</time></trkpt><trkpt lat="45.9132455" lon="11.3041174"><ele>511.25</ele><time>2026-04-19T08:55:50.028Z</time></trkpt><trkpt lat="45.9131356" lon="11.3041913"><ele>507.0</ele><time>2026-04-19T08:55:51.03Z</time></trkpt><trkpt lat="45.9130259" lon="11.3042537"><ele>507.0</ele><time>2026-04-19T08:55:52.036Z</time></trkpt><trkpt lat="45.9129164" lon="11.3043136"><ele>507.0</ele><time>2026-04-19T08:55:53.027Z</time></trkpt><trkpt lat="45.9128112" lon="11.3043684"><ele>507.0</ele><time>2026-04-19T08:55:54.043Z</time></trkpt><trkpt lat="45.9127016" lon="11.3043784"><ele>507.0</ele><time>2026-04-19T08:55:55.032Z</time></trkpt><trkpt lat="45.9125893" lon="11.3043265"><ele>505.0</ele><time>2026-04-19T08:55:56.029Z</time></trkpt><trkpt lat="45.9124818" lon="11.3042595"><ele>503.0</ele><time>2026-04-19T08:55:57.047Z</time></trkpt><trkpt lat="45.9123728" lon="11.304201"><ele>501.0</ele><time>2026-04-19T08:55:58.04Z</time></trkpt><trkpt lat="45.9122622" lon="11.3041569"><ele>499.0</ele><time>2026-04-19T08:55:59.026Z</time></trkpt><trkpt lat="45.9121435" lon="11.3041446"><ele>499.0</ele><time>2026-04-19T08:56:00.053Z</time></trkpt><trkpt lat="45.9120245" lon="11.3041677"><ele>499.0</ele><time>2026-04-19T08:56:01.048Z</time></trkpt><trkpt lat="45.9119133" lon="11.3042247"><ele>499.0</ele><time>2026-04-19T08:56:02.057Z</time></trkpt><trkpt lat="45.9118077" lon="11.3042981"><ele>499.0</ele><time>2026-04-19T08:56:03.047Z</time></trkpt><trkpt lat="45.9117113" lon="11.3043718"><ele>497.79999999999995</ele><time>2026-04-19T08:56:04.027Z</time></trkpt><trkpt lat="45.9116159" lon="11.3044338"><ele>496.59999999999997</ele><time>2026-04-19T08:56:05.028Z</time></trkpt><trkpt lat="45.9115211" lon="11.304478"><ele>495.4</ele><time>2026-04-19T08:56:06.029Z</time></trkpt><trkpt lat="45.9114235" lon="11.3044914"><ele>494.2</ele><time>2026-04-19T08:56:07.049Z</time></trkpt><trkpt lat="45.9113232" lon="11.3044772"><ele>493.0</ele><time>2026-04-19T08:56:08.031Z</time></trkpt><trkpt lat="45.9112264" lon="11.3044292"><ele>493.0</ele><time>2026-04-19T08:56:09.029Z</time></trkpt><trkpt lat="45.911138" lon="11.3043477"><ele>492.99999999999994</ele><time>2026-04-19T08:56:10.028Z</time></trkpt><trkpt lat="45.9110625" lon="11.304232"><ele>492.99999999999994</ele><time>2026-04-19T08:56:11.031Z</time></trkpt><trkpt lat="45.911002" lon="11.3041039"><ele>493.0</ele><time>2026-04-19T08:56:12.025Z</time></trkpt><trkpt lat="45.910956" lon="11.3039796"><ele>493.0</ele><time>2026-04-19T08:56:13.033Z</time></trkpt><trkpt lat="45.9109149" lon="11.3038594"><ele>491.50000000000006</ele><time>2026-04-19T08:56:14.041Z</time></trkpt><trkpt lat="45.9108681" lon="11.3037454"><ele>490.0</ele><time>2026-04-19T08:56:15.041Z</time></trkpt><trkpt lat="45.9108102" lon="11.303641"><ele>488.5</ele><time>2026-04-19T08:56:16.037Z</time></trkpt><trkpt lat="45.9107392" lon="11.3035594"><ele>487.0</ele><time>2026-04-19T08:56:17.029Z</time></trkpt><trkpt lat="45.9106623" lon="11.3035074"><ele>485.50000000000006</ele><time>2026-04-19T08:56:18.026Z</time></trkpt><trkpt lat="45.9105807" lon="11.303487"><ele>484.0</ele><time>2026-04-19T08:56:19.042Z</time></trkpt><trkpt lat="45.9105053" lon="11.3034994"><ele>484.0</ele><time>2026-04-19T08:56:20.031Z</time></trkpt><trkpt lat="45.9104379" lon="11.3035803"><ele>484.0</ele><time>2026-04-19T08:56:21.037Z</time></trkpt><trkpt lat="45.9103586" lon="11.3036927"><ele>484.0</ele><time>2026-04-19T08:56:22.031Z</time></trkpt><trkpt lat="45.9102683" lon="11.3038167"><ele>484.0</ele><time>2026-04-19T08:56:23.032Z</time></trkpt><trkpt lat="45.9102027" lon="11.3039744"><ele>484.75</ele><time>2026-04-19T08:56:24.042Z</time></trkpt><trkpt lat="45.9101475" lon="11.3041257"><ele>485.5</ele><time>2026-04-19T08:56:25.039Z</time></trkpt><trkpt lat="45.9100894" lon="11.304271"><ele>486.25</ele><time>2026-04-19T08:56:26.044Z</time></trkpt><trkpt lat="45.9100139" lon="11.304394"><ele>487.0</ele><time>2026-04-19T08:56:27.034Z</time></trkpt><trkpt lat="45.9099045" lon="11.3044783"><ele>483.20000000000005</ele><time>2026-04-19T08:56:28.023Z</time></trkpt><trkpt lat="45.9097825" lon="11.30454"><ele>479.40000000000003</ele><time>2026-04-19T08:56:29.029Z</time></trkpt><trkpt lat="45.9096789" lon="11.3046043"><ele>475.59999999999997</ele><time>2026-04-19T08:56:30.027Z</time></trkpt><trkpt lat="45.9095922" lon="11.304667"><ele>471.79999999999995</ele><time>2026-04-19T08:56:31.036Z</time></trkpt><trkpt lat="45.9095187" lon="11.3047086"><ele>468.0</ele><time>2026-04-19T08:56:32.031Z</time></trkpt><trkpt lat="45.9094096" lon="11.3047369"><ele>468.0</ele><time>2026-04-19T08:56:34.035Z</time></trkpt><trkpt lat="45.9093089" lon="11.3047928"><ele>467.99999999999994</ele><time>2026-04-19T08:56:36.031Z</time></trkpt><trkpt lat="45.909241" lon="11.3048317"><ele>467.99999999999994</ele><time>2026-04-19T08:56:37.029Z</time></trkpt><trkpt lat="45.9091656" lon="11.3049133"><ele>468.0</ele><time>2026-04-19T08:56:38.027Z</time></trkpt><trkpt lat="45.9090844" lon="11.3050029"><ele>468.0</ele><time>2026-04-19T08:56:39.033Z</time></trkpt><trkpt lat="45.9090107" lon="11.3050965"><ele>466.79999999999995</ele><time>2026-04-19T08:56:40.034Z</time></trkpt><trkpt lat="45.9089382" lon="11.3051968"><ele>465.59999999999997</ele><time>2026-04-19T08:56:41.035Z</time></trkpt><trkpt lat="45.9088648" lon="11.3053079"><ele>464.40000000000003</ele><time>2026-04-19T08:56:42.062Z</time></trkpt><trkpt lat="45.9087911" lon="11.3054248"><ele>463.20000000000005</ele><time>2026-04-19T08:56:43.043Z</time></trkpt><trkpt lat="45.9087179" lon="11.3055417"><ele>462.0</ele><time>2026-04-19T08:56:44.031Z</time></trkpt><trkpt lat="45.9086475" lon="11.3056601"><ele>461.8</ele><time>2026-04-19T08:56:45.028Z</time></trkpt><trkpt lat="45.9085817" lon="11.3057855"><ele>461.6</ele><time>2026-04-19T08:56:46.034Z</time></trkpt><trkpt lat="45.9085233" lon="11.3059199"><ele>461.40000000000003</ele><time>2026-04-19T08:56:47.043Z</time></trkpt><trkpt lat="45.9084821" lon="11.3060702"><ele>461.20000000000005</ele><time>2026-04-19T08:56:48.038Z</time></trkpt><trkpt lat="45.908457" lon="11.3062281"><ele>461.0</ele><time>2026-04-19T08:56:49.04Z</time></trkpt><trkpt lat="45.9084426" lon="11.3063902"><ele>461.0</ele><time>2026-04-19T08:56:50.039Z</time></trkpt><trkpt lat="45.9084382" lon="11.3065543"><ele>461.0</ele><time>2026-04-19T08:56:51.027Z</time></trkpt><trkpt lat="45.908451" lon="11.306719"><ele>461.0</ele><time>2026-04-19T08:56:52.033Z</time></trkpt><trkpt lat="45.9084613" lon="11.3068853"><ele>461.0</ele><time>2026-04-19T08:56:53.029Z</time></trkpt><trkpt lat="45.9084717" lon="11.3070505"><ele>461.0</ele><time>2026-04-19T08:56:54.036Z</time></trkpt><trkpt lat="45.9084852" lon="11.3072121"><ele>461.0</ele><time>2026-04-19T08:56:55.041Z</time></trkpt><trkpt lat="45.9085018" lon="11.3073772"><ele>461.0</ele><time>2026-04-19T08:56:56.026Z</time></trkpt><trkpt lat="45.908522" lon="11.3075435"><ele>461.0</ele><time>2026-04-19T08:56:57.033Z</time></trkpt><trkpt lat="45.9085376" lon="11.3077083"><ele>460.75</ele><time>2026-04-19T08:56:58.023Z</time></trkpt><trkpt lat="45.9085496" lon="11.3078721"><ele>460.5</ele><time>2026-04-19T08:56:59.037Z</time></trkpt><trkpt lat="45.9085541" lon="11.3080354"><ele>460.25</ele><time>2026-04-19T08:57:00.061Z</time></trkpt><trkpt lat="45.908558" lon="11.308196"><ele>460.0</ele><time>2026-04-19T08:57:01.035Z</time></trkpt><trkpt lat="45.9085602" lon="11.3083542"><ele>460.0</ele><time>2026-04-19T08:57:02.046Z</time></trkpt><trkpt lat="45.9085555" lon="11.3085101"><ele>460.0</ele><time>2026-04-19T08:57:03.029Z</time></trkpt><trkpt lat="45.9085516" lon="11.3086626"><ele>460.0</ele><time>2026-04-19T08:57:04.031Z</time></trkpt><trkpt lat="45.9085571" lon="11.3088123"><ele>460.0</ele><time>2026-04-19T08:57:05.029Z</time></trkpt><trkpt lat="45.9085652" lon="11.3089523"><ele>460.0</ele><time>2026-04-19T08:57:06.033Z</time></trkpt><trkpt lat="45.9085706" lon="11.3090805"><ele>461.1666666666667</ele><time>2026-04-19T08:57:07.052Z</time></trkpt><trkpt lat="45.90857" lon="11.3092034"><ele>462.33333333333337</ele><time>2026-04-19T08:57:08.028Z</time></trkpt><trkpt lat="45.9085687" lon="11.3093225"><ele>463.5</ele><time>2026-04-19T08:57:09.044Z</time></trkpt><trkpt lat="45.9085488" lon="11.3094335"><ele>464.66666666666663</ele><time>2026-04-19T08:57:10.028Z</time></trkpt><trkpt lat="45.9085227" lon="11.3095456"><ele>465.8333333333333</ele><time>2026-04-19T08:57:11.022Z</time></trkpt><trkpt lat="45.9084957" lon="11.3096594"><ele>467.0</ele><time>2026-04-19T08:57:12.03Z</time></trkpt><trkpt lat="45.9084804" lon="11.3097774"><ele>463.20000000000005</ele><time>2026-04-19T08:57:13.035Z</time></trkpt><trkpt lat="45.9084561" lon="11.3098887"><ele>459.40000000000003</ele><time>2026-04-19T08:57:14.041Z</time></trkpt><trkpt lat="45.9084183" lon="11.310008"><ele>455.59999999999997</ele><time>2026-04-19T08:57:15.033Z</time></trkpt><trkpt lat="45.9083794" lon="11.3101371"><ele>451.79999999999995</ele><time>2026-04-19T08:57:16.037Z</time></trkpt><trkpt lat="45.9083215" lon="11.3102579"><ele>448.0</ele><time>2026-04-19T08:57:17.043Z</time></trkpt><trkpt lat="45.9082887" lon="11.3104005"><ele>448.0</ele><time>2026-04-19T08:57:18.034Z</time></trkpt><trkpt lat="45.9082581" lon="11.3105525"><ele>448.0</ele><time>2026-04-19T08:57:19.036Z</time></trkpt><trkpt lat="45.9082407" lon="11.3107093"><ele>448.0</ele><time>2026-04-19T08:57:20.058Z</time></trkpt><trkpt lat="45.9082116" lon="11.3108753"><ele>448.0</ele><time>2026-04-19T08:57:21.045Z</time></trkpt><trkpt lat="45.9081823" lon="11.3110462"><ele>450.75</ele><time>2026-04-19T08:57:22.053Z</time></trkpt><trkpt lat="45.9081425" lon="11.3112097"><ele>453.5</ele><time>2026-04-19T08:57:23.069Z</time></trkpt><trkpt lat="45.9081212" lon="11.3113839"><ele>456.25</ele><time>2026-04-19T08:57:24.032Z</time></trkpt><trkpt lat="45.9081197" lon="11.311578"><ele>459.0</ele><time>2026-04-19T08:57:25.055Z</time></trkpt><trkpt lat="45.9081111" lon="11.3117798"><ele>459.75</ele><time>2026-04-19T08:57:26.064Z</time></trkpt><trkpt lat="45.9081057" lon="11.3119791"><ele>460.5</ele><time>2026-04-19T08:57:27.046Z</time></trkpt><trkpt lat="45.9081068" lon="11.3121758"><ele>461.25</ele><time>2026-04-19T08:57:28.024Z</time></trkpt><trkpt lat="45.908096" lon="11.312365"><ele>462.0</ele><time>2026-04-19T08:57:29.034Z</time></trkpt><trkpt lat="45.9080785" lon="11.312557"><ele>462.5</ele><time>2026-04-19T08:57:30.033Z</time></trkpt><trkpt lat="45.9080482" lon="11.312743"><ele>463.0</ele><time>2026-04-19T08:57:31.04Z</time></trkpt><trkpt lat="45.9080184" lon="11.3129196"><ele>463.5</ele><time>2026-04-19T08:57:32.028Z</time></trkpt><trkpt lat="45.907979" lon="11.3131006"><ele>464.0</ele><time>2026-04-19T08:57:33.032Z</time></trkpt><trkpt lat="45.9079286" lon="11.3132812"><ele>465.2</ele><time>2026-04-19T08:57:34.03Z</time></trkpt><trkpt lat="45.907874" lon="11.3134535"><ele>466.4</ele><time>2026-04-19T08:57:35.047Z</time></trkpt><trkpt lat="45.9078262" lon="11.3136108"><ele>467.6</ele><time>2026-04-19T08:57:36.026Z</time></trkpt><trkpt lat="45.9077779" lon="11.3137304"><ele>468.8</ele><time>2026-04-19T08:57:37.035Z</time></trkpt><trkpt lat="45.9077447" lon="11.3138209"><ele>470.0</ele><time>2026-04-19T08:57:38.043Z</time></trkpt><trkpt lat="45.9076952" lon="11.3139582"><ele>472.6</ele><time>2026-04-19T08:57:40.034Z</time></trkpt><trkpt lat="45.9076388" lon="11.3141413"><ele>475.2</ele><time>2026-04-19T08:57:42.026Z</time></trkpt><trkpt lat="45.907583" lon="11.3142327"><ele>477.79999999999995</ele><time>2026-04-19T08:57:43.047Z</time></trkpt><trkpt lat="45.9075243" lon="11.3143227"><ele>480.4</ele><time>2026-04-19T08:57:44.045Z</time></trkpt><trkpt lat="45.9074654" lon="11.3144203"><ele>483.0</ele><time>2026-04-19T08:57:45.033Z</time></trkpt><trkpt lat="45.9073835" lon="11.3144913"><ele>477.4</ele><time>2026-04-19T08:57:46.047Z</time></trkpt><trkpt lat="45.9073141" lon="11.3145958"><ele>471.79999999999995</ele><time>2026-04-19T08:57:47.025Z</time></trkpt><trkpt lat="45.9072563" lon="11.3147227"><ele>466.2</ele><time>2026-04-19T08:57:48.038Z</time></trkpt><trkpt lat="45.9071761" lon="11.3147993"><ele>460.6</ele><time>2026-04-19T08:57:49.041Z</time></trkpt><trkpt lat="45.907103" lon="11.3148676"><ele>455.0</ele><time>2026-04-19T08:57:50.025Z</time></trkpt><trkpt lat="45.9070451" lon="11.3149556"><ele>454.99999999999994</ele><time>2026-04-19T08:57:51.028Z</time></trkpt><trkpt lat="45.9070029" lon="11.3150548"><ele>455.0</ele><time>2026-04-19T08:57:52.027Z</time></trkpt><trkpt lat="45.9069487" lon="11.3151269"><ele>455.0</ele><time>2026-04-19T08:57:53.035Z</time></trkpt><trkpt lat="45.9068694" lon="11.3152437"><ele>455.0</ele><time>2026-04-19T08:57:55.026Z</time></trkpt><trkpt lat="45.9067977" lon="11.3153311"><ele>454.99999999999994</ele><time>2026-04-19T08:57:57.027Z</time></trkpt><trkpt lat="45.9067649" lon="11.3154201"><ele>455.0</ele><time>2026-04-19T08:57:59.035Z</time></trkpt><trkpt lat="45.9067095" lon="11.3154987"><ele>455.8333333333333</ele><time>2026-04-19T08:58:02.024Z</time></trkpt><trkpt lat="45.9066374" lon="11.3155627"><ele>456.66666666666663</ele><time>2026-04-19T08:58:05.035Z</time></trkpt><trkpt lat="45.906552" lon="11.3155997"><ele>457.5</ele><time>2026-04-19T08:58:07.041Z</time></trkpt><trkpt lat="45.9064588" lon="11.3155987"><ele>458.33333333333337</ele><time>2026-04-19T08:58:09.022Z</time></trkpt><trkpt lat="45.9063738" lon="11.3155771"><ele>459.1666666666667</ele><time>2026-04-19T08:58:11.018Z</time></trkpt><trkpt lat="45.9062825" lon="11.3155561"><ele>460.0</ele><time>2026-04-19T08:58:13.026Z</time></trkpt><trkpt lat="45.9062086" lon="11.3155242"><ele>460.00000000000006</ele><time>2026-04-19T08:58:14.029Z</time></trkpt><trkpt lat="45.9061018" lon="11.3155526"><ele>460.0</ele><time>2026-04-19T08:58:16.027Z</time></trkpt><trkpt lat="45.9060391" lon="11.3156472"><ele>460.0</ele><time>2026-04-19T08:58:18.033Z</time></trkpt><trkpt lat="45.905992" lon="11.3157278"><ele>460.0</ele><time>2026-04-19T08:58:21.026Z</time></trkpt><trkpt lat="45.9059352" lon="11.3158169"><ele>460.00000000000006</ele><time>2026-04-19T08:58:25.036Z</time></trkpt><trkpt lat="45.9058814" lon="11.3158847"><ele>460.0</ele><time>2026-04-19T08:58:27.03Z</time></trkpt><trkpt lat="45.9057952" lon="11.3159802"><ele>459.8571428571428</ele><time>2026-04-19T08:58:29.031Z</time></trkpt><trkpt lat="45.905748" lon="11.3160493"><ele>459.71428571428567</ele><time>2026-04-19T08:58:30.038Z</time></trkpt><trkpt lat="45.9057004" lon="11.3161163"><ele>459.57142857142856</ele><time>2026-04-19T08:58:31.026Z</time></trkpt><trkpt lat="45.9056524" lon="11.3161859"><ele>459.4285714285714</ele><time>2026-04-19T08:58:32.045Z</time></trkpt><trkpt lat="45.9056066" lon="11.3162651"><ele>459.2857142857142</ele><time>2026-04-19T08:58:33.034Z</time></trkpt><trkpt lat="45.9055651" lon="11.3163459"><ele>459.14285714285717</ele><time>2026-04-19T08:58:34.025Z</time></trkpt><trkpt lat="45.9055163" lon="11.3164037"><ele>459.0</ele><time>2026-04-19T08:58:35.027Z</time></trkpt><trkpt lat="45.9054343" lon="11.3165131"><ele>459.0</ele><time>2026-04-19T08:58:37.036Z</time></trkpt><trkpt lat="45.9053702" lon="11.3165993"><ele>459.0</ele><time>2026-04-19T08:58:39.027Z</time></trkpt><trkpt lat="45.9053021" lon="11.316666"><ele>459.0</ele><time>2026-04-19T08:58:41.037Z</time></trkpt><trkpt lat="45.9052323" lon="11.3167361"><ele>459.0</ele><time>2026-04-19T08:58:43.046Z</time></trkpt><trkpt lat="45.90519" lon="11.3168138"><ele>459.0</ele><time>2026-04-19T08:58:45.035Z</time></trkpt><trkpt lat="45.9052484" lon="11.3167232"><ele>459.0</ele><time>2026-04-19T08:58:53.033Z</time></trkpt><trkpt lat="45.905316" lon="11.3166151"><ele>459.0</ele><time>2026-04-19T08:58:55.025Z</time></trkpt><trkpt lat="45.9053858" lon="11.3165052"><ele>459.0</ele><time>2026-04-19T08:58:57.026Z</time></trkpt><trkpt lat="45.9054666" lon="11.3164124"><ele>459.0</ele><time>2026-04-19T08:58:59.032Z</time></trkpt><trkpt lat="45.9055446" lon="11.316319"><ele>459.0</ele><time>2026-04-19T08:59:01.03Z</time></trkpt><trkpt lat="45.905618" lon="11.3162218"><ele>459.0</ele><time>2026-04-19T08:59:03.03Z</time></trkpt><trkpt lat="45.9056795" lon="11.3161161"><ele>459.1666666666667</ele><time>2026-04-19T08:59:05.041Z</time></trkpt><trkpt lat="45.9057354" lon="11.31603"><ele>459.33333333333337</ele><time>2026-04-19T08:59:07.046Z</time></trkpt><trkpt lat="45.9057792" lon="11.3159571"><ele>459.5</ele><time>2026-04-19T08:59:09.036Z</time></trkpt><trkpt lat="45.9058272" lon="11.3158926"><ele>459.6666666666667</ele><time>2026-04-19T08:59:11.047Z</time></trkpt><trkpt lat="45.9058782" lon="11.3158221"><ele>459.83333333333337</ele><time>2026-04-19T08:59:13.03Z</time></trkpt><trkpt lat="45.90593" lon="11.3157334"><ele>460.0</ele><time>2026-04-19T08:59:15.026Z</time></trkpt><trkpt lat="45.9060073" lon="11.3156697"><ele>460.00000000000006</ele><time>2026-04-19T08:59:17.037Z</time></trkpt><trkpt lat="45.9060654" lon="11.3155855"><ele>460.0</ele><time>2026-04-19T08:59:19.029Z</time></trkpt><trkpt lat="45.9061307" lon="11.3155345"><ele>460.0</ele><time>2026-04-19T08:59:21.057Z</time></trkpt><trkpt lat="45.9062094" lon="11.3155082"><ele>460.0</ele><time>2026-04-19T08:59:23.052Z</time></trkpt><trkpt lat="45.9062843" lon="11.3154901"><ele>460.00000000000006</ele><time>2026-04-19T08:59:25.027Z</time></trkpt><trkpt lat="45.9063527" lon="11.3154316"><ele>460.0</ele><time>2026-04-19T08:59:28.038Z</time></trkpt><trkpt lat="45.9064393" lon="11.315471"><ele>459.1666666666667</ele><time>2026-04-19T08:59:31.027Z</time></trkpt><trkpt lat="45.9065034" lon="11.3154618"><ele>458.33333333333337</ele><time>2026-04-19T08:59:33.035Z</time></trkpt><trkpt lat="45.9065892" lon="11.3154432"><ele>457.5</ele><time>2026-04-19T08:59:35.028Z</time></trkpt><trkpt lat="45.9066751" lon="11.3154017"><ele>456.66666666666663</ele><time>2026-04-19T08:59:37.032Z</time></trkpt><trkpt lat="45.9067313" lon="11.3153605"><ele>455.8333333333333</ele><time>2026-04-19T08:59:39.034Z</time></trkpt><trkpt lat="45.9067916" lon="11.3152844"><ele>455.0</ele><time>2026-04-19T08:59:41.032Z</time></trkpt><trkpt lat="45.9068669" lon="11.3151933"><ele>455.0</ele><time>2026-04-19T08:59:43.026Z</time></trkpt><trkpt lat="45.9069525" lon="11.3151127"><ele>455.0</ele><time>2026-04-19T08:59:45.04Z</time></trkpt><trkpt lat="45.9070447" lon="11.3150525"><ele>455.0</ele><time>2026-04-19T08:59:47.025Z</time></trkpt><trkpt lat="45.9071102" lon="11.3149179"><ele>455.0</ele><time>2026-04-19T08:59:49.037Z</time></trkpt><trkpt lat="45.9071877" lon="11.3147877"><ele>455.0</ele><time>2026-04-19T08:59:51.019Z</time></trkpt><trkpt lat="45.9072414" lon="11.3147351"><ele>452.5</ele><time>2026-04-19T08:59:52.033Z</time></trkpt><trkpt lat="45.9073186" lon="11.3146244"><ele>450.0</ele><time>2026-04-19T08:59:54.024Z</time></trkpt><trkpt lat="45.9073931" lon="11.3145101"><ele>447.5</ele><time>2026-04-19T08:59:56.033Z</time></trkpt><trkpt lat="45.9074955" lon="11.3144234"><ele>445.0</ele><time>2026-04-19T08:59:58.019Z</time></trkpt><trkpt lat="45.907574" lon="11.3143059"><ele>445.00000000000006</ele><time>2026-04-19T09:00:00.022Z</time></trkpt><trkpt lat="45.9076265" lon="11.3142033"><ele>445.0</ele><time>2026-04-19T09:00:02.027Z</time></trkpt><trkpt lat="45.9076574" lon="11.314096"><ele>445.0</ele><time>2026-04-19T09:00:10.038Z</time></trkpt><trkpt lat="45.9076155" lon="11.3139955"><ele>445.0</ele><time>2026-04-19T09:00:13.033Z</time></trkpt><trkpt lat="45.9075715" lon="11.3139191"><ele>445.00000000000006</ele><time>2026-04-19T09:00:15.029Z</time></trkpt><trkpt lat="45.9075037" lon="11.3138509"><ele>445.0</ele><time>2026-04-19T09:00:18.022Z</time></trkpt><trkpt lat="45.9074487" lon="11.3137782"><ele>444.83333333333337</ele><time>2026-04-19T09:00:37.029Z</time></trkpt><trkpt lat="45.9073522" lon="11.3137639"><ele>444.6666666666667</ele><time>2026-04-19T09:00:39.029Z</time></trkpt><trkpt lat="45.907283" lon="11.3137527"><ele>444.5</ele><time>2026-04-19T09:00:40.03Z</time></trkpt><trkpt lat="45.9072023" lon="11.3137404"><ele>444.33333333333337</ele><time>2026-04-19T09:00:41.028Z</time></trkpt><trkpt lat="45.9071137" lon="11.3137127"><ele>444.1666666666667</ele><time>2026-04-19T09:00:42.025Z</time></trkpt><trkpt lat="45.9070233" lon="11.3136662"><ele>444.0</ele><time>2026-04-19T09:00:43.038Z</time></trkpt><trkpt lat="45.9069349" lon="11.3136123"><ele>444.0</ele><time>2026-04-19T09:00:44.029Z</time></trkpt><trkpt lat="45.9068487" lon="11.3135583"><ele>444.0</ele><time>2026-04-19T09:00:45.033Z</time></trkpt><trkpt lat="45.9067603" lon="11.3135129"><ele>444.0</ele><time>2026-04-19T09:00:46.038Z</time></trkpt><trkpt lat="45.906671" lon="11.3134653"><ele>444.0</ele><time>2026-04-19T09:00:47.04Z</time></trkpt><trkpt lat="45.9065789" lon="11.3134199"><ele>444.0</ele><time>2026-04-19T09:00:48.038Z</time></trkpt><trkpt lat="45.9064841" lon="11.3133713"><ele>445.0</ele><time>2026-04-19T09:00:49.04Z</time></trkpt><trkpt lat="45.9063858" lon="11.3133152"><ele>446.0</ele><time>2026-04-19T09:00:50.03Z</time></trkpt><trkpt lat="45.9062823" lon="11.313264"><ele>447.0</ele><time>2026-04-19T09:00:51.037Z</time></trkpt><trkpt lat="45.9061747" lon="11.3132201"><ele>448.0</ele><time>2026-04-19T09:00:52.04Z</time></trkpt><trkpt lat="45.9060623" lon="11.3131882"><ele>449.0</ele><time>2026-04-19T09:00:53.049Z</time></trkpt><trkpt lat="45.905947" lon="11.3131734"><ele>446.75</ele><time>2026-04-19T09:00:54.026Z</time></trkpt><trkpt lat="45.9058282" lon="11.31319"><ele>444.5</ele><time>2026-04-19T09:00:55.042Z</time></trkpt><trkpt lat="45.9057084" lon="11.3132283"><ele>442.25</ele><time>2026-04-19T09:00:56.026Z</time></trkpt><trkpt lat="45.90559" lon="11.3132829"><ele>440.0</ele><time>2026-04-19T09:00:57.033Z</time></trkpt><trkpt lat="45.9054734" lon="11.3133518"><ele>440.0</ele><time>2026-04-19T09:00:58.038Z</time></trkpt><trkpt lat="45.9053598" lon="11.3134399"><ele>440.0</ele><time>2026-04-19T09:00:59.041Z</time></trkpt><trkpt lat="45.9052492" lon="11.3135483"><ele>440.0</ele><time>2026-04-19T09:01:00.028Z</time></trkpt><trkpt lat="45.9051373" lon="11.3136625"><ele>440.0</ele><time>2026-04-19T09:01:01.028Z</time></trkpt><trkpt lat="45.9050256" lon="11.3137813"><ele>439.0</ele><time>2026-04-19T09:01:02.026Z</time></trkpt><trkpt lat="45.9049129" lon="11.3138973"><ele>438.0</ele><time>2026-04-19T09:01:03.028Z</time></trkpt><trkpt lat="45.9047942" lon="11.3140044"><ele>437.0</ele><time>2026-04-19T09:01:04.026Z</time></trkpt><trkpt lat="45.9046738" lon="11.3141128"><ele>436.0</ele><time>2026-04-19T09:01:05.041Z</time></trkpt><trkpt lat="45.9045535" lon="11.3142272"><ele>436.0</ele><time>2026-04-19T09:01:06.029Z</time></trkpt><trkpt lat="45.9044356" lon="11.3143386"><ele>436.0</ele><time>2026-04-19T09:01:07.032Z</time></trkpt><trkpt lat="45.9043174" lon="11.3144537"><ele>436.0</ele><time>2026-04-19T09:01:08.037Z</time></trkpt><trkpt lat="45.9042003" lon="11.3145657"><ele>436.0</ele><time>2026-04-19T09:01:09.023Z</time></trkpt><trkpt lat="45.9040816" lon="11.3146735"><ele>437.0</ele><time>2026-04-19T09:01:10.036Z</time></trkpt><trkpt lat="45.9039635" lon="11.3147892"><ele>438.0</ele><time>2026-04-19T09:01:11.038Z</time></trkpt><trkpt lat="45.9038464" lon="11.3149166"><ele>439.0</ele><time>2026-04-19T09:01:12.039Z</time></trkpt><trkpt lat="45.9037339" lon="11.3150521"><ele>440.0</ele><time>2026-04-19T09:01:13.045Z</time></trkpt><trkpt lat="45.9036258" lon="11.3152002"><ele>440.0</ele><time>2026-04-19T09:01:14.028Z</time></trkpt><trkpt lat="45.9035173" lon="11.3153428"><ele>440.0</ele><time>2026-04-19T09:01:15.054Z</time></trkpt><trkpt lat="45.9034231" lon="11.3155015"><ele>440.0</ele><time>2026-04-19T09:01:16.028Z</time></trkpt><trkpt lat="45.9033404" lon="11.3156792"><ele>440.0</ele><time>2026-04-19T09:01:17.027Z</time></trkpt><trkpt lat="45.9032856" lon="11.315881"><ele>439.3333333333333</ele><time>2026-04-19T09:01:18.04Z</time></trkpt><trkpt lat="45.9032426" lon="11.3160897"><ele>438.66666666666663</ele><time>2026-04-19T09:01:19.03Z</time></trkpt><trkpt lat="45.9032036" lon="11.3162987"><ele>438.0</ele><time>2026-04-19T09:01:20.038Z</time></trkpt><trkpt lat="45.9031767" lon="11.3165114"><ele>438.0</ele><time>2026-04-19T09:01:21.037Z</time></trkpt><trkpt lat="45.9031747" lon="11.3167319"><ele>438.0</ele><time>2026-04-19T09:01:22.028Z</time></trkpt><trkpt lat="45.9031876" lon="11.3169617"><ele>438.0</ele><time>2026-04-19T09:01:23.029Z</time></trkpt><trkpt lat="45.9031963" lon="11.3171999"><ele>438.0</ele><time>2026-04-19T09:01:24.039Z</time></trkpt><trkpt lat="45.9032015" lon="11.3174282"><ele>438.0</ele><time>2026-04-19T09:01:25.028Z</time></trkpt><trkpt lat="45.9032162" lon="11.3176482"><ele>438.0</ele><time>2026-04-19T09:01:26.024Z</time></trkpt><trkpt lat="45.9032499" lon="11.3178769"><ele>437.5</ele><time>2026-04-19T09:01:27.035Z</time></trkpt><trkpt lat="45.9032954" lon="11.3180931"><ele>437.0</ele><time>2026-04-19T09:01:28.029Z</time></trkpt><trkpt lat="45.9033486" lon="11.3182913"><ele>436.5</ele><time>2026-04-19T09:01:29.047Z</time></trkpt><trkpt lat="45.9034008" lon="11.3184834"><ele>436.0</ele><time>2026-04-19T09:01:30.033Z</time></trkpt><trkpt lat="45.9034427" lon="11.3186806"><ele>435.75</ele><time>2026-04-19T09:01:31.045Z</time></trkpt><trkpt lat="45.9034612" lon="11.3188682"><ele>435.5</ele><time>2026-04-19T09:01:32.045Z</time></trkpt><trkpt lat="45.9034407" lon="11.3190613"><ele>435.25</ele><time>2026-04-19T09:01:33.031Z</time></trkpt><trkpt lat="45.9033923" lon="11.3192547"><ele>435.0</ele><time>2026-04-19T09:01:34.024Z</time></trkpt><trkpt lat="45.90332" lon="11.3194446"><ele>435.0</ele><time>2026-04-19T09:01:35.023Z</time></trkpt><trkpt lat="45.9032587" lon="11.3196484"><ele>435.0</ele><time>2026-04-19T09:01:36.034Z</time></trkpt><trkpt lat="45.9032019" lon="11.3198585"><ele>435.0</ele><time>2026-04-19T09:01:37.054Z</time></trkpt><trkpt lat="45.9031409" lon="11.3200692"><ele>432.66666666666663</ele><time>2026-04-19T09:01:38.043Z</time></trkpt><trkpt lat="45.9030724" lon="11.3202813"><ele>430.3333333333333</ele><time>2026-04-19T09:01:39.052Z</time></trkpt><trkpt lat="45.9030047" lon="11.3205"><ele>428.0</ele><time>2026-04-19T09:01:40.035Z</time></trkpt><trkpt lat="45.9029373" lon="11.3207202"><ele>426.66666666666663</ele><time>2026-04-19T09:01:41.055Z</time></trkpt><trkpt lat="45.9028719" lon="11.3209409"><ele>425.33333333333337</ele><time>2026-04-19T09:01:42.03Z</time></trkpt><trkpt lat="45.9028062" lon="11.3211619"><ele>424.0</ele><time>2026-04-19T09:01:43.042Z</time></trkpt><trkpt lat="45.9027372" lon="11.3213837"><ele>423.6666666666667</ele><time>2026-04-19T09:01:44.039Z</time></trkpt><trkpt lat="45.9026572" lon="11.3216008"><ele>423.33333333333337</ele><time>2026-04-19T09:01:45.039Z</time></trkpt><trkpt lat="45.9025841" lon="11.3218248"><ele>423.0</ele><time>2026-04-19T09:01:46.038Z</time></trkpt><trkpt lat="45.9025127" lon="11.3220526"><ele>426.33333333333337</ele><time>2026-04-19T09:01:47.053Z</time></trkpt><trkpt lat="45.9024371" lon="11.322279"><ele>429.6666666666667</ele><time>2026-04-19T09:01:48.057Z</time></trkpt><trkpt lat="45.9023602" lon="11.3225035"><ele>433.0</ele><time>2026-04-19T09:01:49.046Z</time></trkpt><trkpt lat="45.9022842" lon="11.3227255"><ele>433.0</ele><time>2026-04-19T09:01:50.036Z</time></trkpt><trkpt lat="45.9021984" lon="11.3229388"><ele>433.0</ele><time>2026-04-19T09:01:51.047Z</time></trkpt><trkpt lat="45.9021088" lon="11.3231483"><ele>433.0</ele><time>2026-04-19T09:01:52.043Z</time></trkpt><trkpt lat="45.9020213" lon="11.3233629"><ele>429.6666666666667</ele><time>2026-04-19T09:01:53.049Z</time></trkpt><trkpt lat="45.9019326" lon="11.3235784"><ele>426.33333333333337</ele><time>2026-04-19T09:01:54.033Z</time></trkpt><trkpt lat="45.9018429" lon="11.3237912"><ele>423.0</ele><time>2026-04-19T09:01:55.035Z</time></trkpt><trkpt lat="45.9017579" lon="11.3239998"><ele>427.66666666666663</ele><time>2026-04-19T09:01:56.038Z</time></trkpt><trkpt lat="45.90166" lon="11.3241897"><ele>432.3333333333333</ele><time>2026-04-19T09:01:57.035Z</time></trkpt><trkpt lat="45.9015718" lon="11.3243864"><ele>437.0</ele><time>2026-04-19T09:01:58.031Z</time></trkpt><trkpt lat="45.9014874" lon="11.3245865"><ele>432.66666666666663</ele><time>2026-04-19T09:01:59.057Z</time></trkpt><trkpt lat="45.9014052" lon="11.3247879"><ele>428.33333333333337</ele><time>2026-04-19T09:02:00.042Z</time></trkpt><trkpt lat="45.901323" lon="11.3249895"><ele>424.0</ele><time>2026-04-19T09:02:01.034Z</time></trkpt><trkpt lat="45.9012388" lon="11.3251928"><ele>424.0</ele><time>2026-04-19T09:02:02.038Z</time></trkpt><trkpt lat="45.9011466" lon="11.3253947"><ele>424.0</ele><time>2026-04-19T09:02:03.048Z</time></trkpt><trkpt lat="45.9010495" lon="11.3255915"><ele>424.0</ele><time>2026-04-19T09:02:04.032Z</time></trkpt><trkpt lat="45.9009697" lon="11.3258083"><ele>425.0</ele><time>2026-04-19T09:02:05.038Z</time></trkpt><trkpt lat="45.900896" lon="11.3260327"><ele>426.0</ele><time>2026-04-19T09:02:06.054Z</time></trkpt><trkpt lat="45.9008255" lon="11.3262598"><ele>427.0</ele><time>2026-04-19T09:02:07.069Z</time></trkpt><trkpt lat="45.9007477" lon="11.32648"><ele>427.0</ele><time>2026-04-19T09:02:08.049Z</time></trkpt><trkpt lat="45.9006652" lon="11.3266944"><ele>427.0</ele><time>2026-04-19T09:02:09.051Z</time></trkpt><trkpt lat="45.900577" lon="11.3269005"><ele>427.0</ele><time>2026-04-19T09:02:10.033Z</time></trkpt><trkpt lat="45.9004884" lon="11.327104"><ele>423.33333333333337</ele><time>2026-04-19T09:02:11.04Z</time></trkpt><trkpt lat="45.9003803" lon="11.3272999"><ele>419.66666666666663</ele><time>2026-04-19T09:02:12.04Z</time></trkpt><trkpt lat="45.9002652" lon="11.3274913"><ele>416.0</ele><time>2026-04-19T09:02:13.068Z</time></trkpt><trkpt lat="45.9001514" lon="11.3276827"><ele>417.0</ele><time>2026-04-19T09:02:14.049Z</time></trkpt><trkpt lat="45.9000405" lon="11.3278777"><ele>418.0</ele><time>2026-04-19T09:02:15.048Z</time></trkpt><trkpt lat="45.8999357" lon="11.3280747"><ele>419.0</ele><time>2026-04-19T09:02:16.047Z</time></trkpt><trkpt lat="45.8998238" lon="11.3282617"><ele>419.0</ele><time>2026-04-19T09:02:17.035Z</time></trkpt><trkpt lat="45.8997129" lon="11.3284496"><ele>419.0</ele><time>2026-04-19T09:02:18.037Z</time></trkpt><trkpt lat="45.8996008" lon="11.3286379"><ele>419.0</ele><time>2026-04-19T09:02:19.042Z</time></trkpt><trkpt lat="45.8994861" lon="11.3288304"><ele>420.0</ele><time>2026-04-19T09:02:20.034Z</time></trkpt><trkpt lat="45.8993743" lon="11.3290263"><ele>421.0</ele><time>2026-04-19T09:02:21.052Z</time></trkpt><trkpt lat="45.899262" lon="11.3292203"><ele>422.0</ele><time>2026-04-19T09:02:22.042Z</time></trkpt><trkpt lat="45.8991469" lon="11.3294126"><ele>422.0</ele><time>2026-04-19T09:02:23.038Z</time></trkpt><trkpt lat="45.8990295" lon="11.3296057"><ele>422.0</ele><time>2026-04-19T09:02:24.047Z</time></trkpt><trkpt lat="45.8989134" lon="11.3298007"><ele>422.0</ele><time>2026-04-19T09:02:25.036Z</time></trkpt><trkpt lat="45.898791" lon="11.3299815"><ele>420.0</ele><time>2026-04-19T09:02:26.026Z</time></trkpt><trkpt lat="45.8986776" lon="11.3301673"><ele>418.0</ele><time>2026-04-19T09:02:27.046Z</time></trkpt><trkpt lat="45.8985678" lon="11.3303539"><ele>416.0</ele><time>2026-04-19T09:02:28.048Z</time></trkpt><trkpt lat="45.8984592" lon="11.3305388"><ele>416.66666666666663</ele><time>2026-04-19T09:02:29.037Z</time></trkpt><trkpt lat="45.8983538" lon="11.3307254"><ele>417.33333333333337</ele><time>2026-04-19T09:02:30.03Z</time></trkpt><trkpt lat="45.8982524" lon="11.3309156"><ele>418.0</ele><time>2026-04-19T09:02:31.046Z</time></trkpt><trkpt lat="45.8981539" lon="11.3311069"><ele>418.0</ele><time>2026-04-19T09:02:32.034Z</time></trkpt><trkpt lat="45.8980671" lon="11.3313077"><ele>418.0</ele><time>2026-04-19T09:02:33.043Z</time></trkpt><trkpt lat="45.897984" lon="11.3315124"><ele>418.0</ele><time>2026-04-19T09:02:34.03Z</time></trkpt><trkpt lat="45.8979042" lon="11.3317202"><ele>415.6666666666667</ele><time>2026-04-19T09:02:35.043Z</time></trkpt><trkpt lat="45.8978246" lon="11.331929"><ele>413.33333333333337</ele><time>2026-04-19T09:02:36.035Z</time></trkpt><trkpt lat="45.8977432" lon="11.3321346"><ele>411.0</ele><time>2026-04-19T09:02:37.038Z</time></trkpt><trkpt lat="45.8976607" lon="11.3323355"><ele>412.0</ele><time>2026-04-19T09:02:38.034Z</time></trkpt><trkpt lat="45.8975806" lon="11.3325346"><ele>413.0</ele><time>2026-04-19T09:02:39.048Z</time></trkpt><trkpt lat="45.8975036" lon="11.3327322"><ele>414.0</ele><time>2026-04-19T09:02:40.034Z</time></trkpt><trkpt lat="45.8974213" lon="11.3329241"><ele>412.0</ele><time>2026-04-19T09:02:41.053Z</time></trkpt><trkpt lat="45.8973318" lon="11.3331095"><ele>410.0</ele><time>2026-04-19T09:02:42.048Z</time></trkpt><trkpt lat="45.897227" lon="11.3332735"><ele>408.0</ele><time>2026-04-19T09:02:43.036Z</time></trkpt><trkpt lat="45.8971028" lon="11.333403"><ele>408.0</ele><time>2026-04-19T09:02:44.037Z</time></trkpt><trkpt lat="45.8969684" lon="11.3335074"><ele>408.0</ele><time>2026-04-19T09:02:45.044Z</time></trkpt><trkpt lat="45.8968298" lon="11.3336008"><ele>408.0</ele><time>2026-04-19T09:02:46.043Z</time></trkpt><trkpt lat="45.8966838" lon="11.3336793"><ele>407.66666666666663</ele><time>2026-04-19T09:02:47.036Z</time></trkpt><trkpt lat="45.8965374" lon="11.333761"><ele>407.3333333333333</ele><time>2026-04-19T09:02:48.047Z</time></trkpt><trkpt lat="45.8963915" lon="11.3338386"><ele>407.0</ele><time>2026-04-19T09:02:49.041Z</time></trkpt><trkpt lat="45.8962474" lon="11.3339181"><ele>407.0</ele><time>2026-04-19T09:02:50.029Z</time></trkpt><trkpt lat="45.8961032" lon="11.3339958"><ele>407.0</ele><time>2026-04-19T09:02:51.029Z</time></trkpt><trkpt lat="45.8959579" lon="11.3340711"><ele>407.0</ele><time>2026-04-19T09:02:52.033Z</time></trkpt><trkpt lat="45.8958138" lon="11.3341552"><ele>409.66666666666663</ele><time>2026-04-19T09:02:53.044Z</time></trkpt><trkpt lat="45.8956729" lon="11.3342499"><ele>412.33333333333337</ele><time>2026-04-19T09:02:54.041Z</time></trkpt><trkpt lat="45.8955413" lon="11.3343777"><ele>415.0</ele><time>2026-04-19T09:02:55.047Z</time></trkpt><trkpt lat="45.8954237" lon="11.3345358"><ele>415.0</ele><time>2026-04-19T09:02:56.034Z</time></trkpt><trkpt lat="45.8953087" lon="11.3346992"><ele>415.0</ele><time>2026-04-19T09:02:57.039Z</time></trkpt><trkpt lat="45.8952116" lon="11.3348845"><ele>415.0</ele><time>2026-04-19T09:02:58.058Z</time></trkpt><trkpt lat="45.8951292" lon="11.3350879"><ele>415.0</ele><time>2026-04-19T09:02:59.033Z</time></trkpt><trkpt lat="45.8950628" lon="11.3353049"><ele>415.0</ele><time>2026-04-19T09:03:00.044Z</time></trkpt><trkpt lat="45.8950347" lon="11.3355442"><ele>415.0</ele><time>2026-04-19T09:03:01.04Z</time></trkpt><trkpt lat="45.8950128" lon="11.3357746"><ele>415.0</ele><time>2026-04-19T09:03:02.037Z</time></trkpt><trkpt lat="45.8950255" lon="11.3360053"><ele>415.0</ele><time>2026-04-19T09:03:03.051Z</time></trkpt><trkpt lat="45.8950561" lon="11.3362275"><ele>415.0</ele><time>2026-04-19T09:03:04.039Z</time></trkpt><trkpt lat="45.8950614" lon="11.3364435"><ele>414.0</ele><time>2026-04-19T09:03:05.064Z</time></trkpt><trkpt lat="45.8950383" lon="11.3366561"><ele>413.0</ele><time>2026-04-19T09:03:06.039Z</time></trkpt><trkpt lat="45.8949799" lon="11.3368633"><ele>412.0</ele><time>2026-04-19T09:03:07.036Z</time></trkpt><trkpt lat="45.8949342" lon="11.3370805"><ele>412.6666666666667</ele><time>2026-04-19T09:03:08.051Z</time></trkpt><trkpt lat="45.8949116" lon="11.3373113"><ele>413.33333333333337</ele><time>2026-04-19T09:03:09.069Z</time></trkpt><trkpt lat="45.8948945" lon="11.3375501"><ele>414.0</ele><time>2026-04-19T09:03:10.053Z</time></trkpt><trkpt lat="45.8948893" lon="11.3377945"><ele>414.0</ele><time>2026-04-19T09:03:11.051Z</time></trkpt><trkpt lat="45.8948903" lon="11.338041"><ele>414.0</ele><time>2026-04-19T09:03:12.032Z</time></trkpt><trkpt lat="45.894896" lon="11.3382862"><ele>414.0</ele><time>2026-04-19T09:03:13.049Z</time></trkpt><trkpt lat="45.8949018" lon="11.3385252"><ele>413.0</ele><time>2026-04-19T09:03:14.039Z</time></trkpt><trkpt lat="45.8949029" lon="11.3387594"><ele>412.0</ele><time>2026-04-19T09:03:15.037Z</time></trkpt><trkpt lat="45.8949047" lon="11.3389938"><ele>411.0</ele><time>2026-04-19T09:03:16.038Z</time></trkpt><trkpt lat="45.894902" lon="11.3392299"><ele>410.0</ele><time>2026-04-19T09:03:17.045Z</time></trkpt><trkpt lat="45.8949061" lon="11.3394679"><ele>409.0</ele><time>2026-04-19T09:03:18.043Z</time></trkpt><trkpt lat="45.8949016" lon="11.3397074"><ele>408.0</ele><time>2026-04-19T09:03:19.032Z</time></trkpt><trkpt lat="45.8948833" lon="11.339947"><ele>406.33333333333337</ele><time>2026-04-19T09:03:20.036Z</time></trkpt><trkpt lat="45.8948657" lon="11.3401848"><ele>404.6666666666667</ele><time>2026-04-19T09:03:21.051Z</time></trkpt><trkpt lat="45.8948483" lon="11.3404214"><ele>403.0</ele><time>2026-04-19T09:03:22.038Z</time></trkpt><trkpt lat="45.8948262" lon="11.3406538"><ele>402.0</ele><time>2026-04-19T09:03:23.032Z</time></trkpt><trkpt lat="45.8948056" lon="11.3408864"><ele>401.0</ele><time>2026-04-19T09:03:24.031Z</time></trkpt><trkpt lat="45.894791" lon="11.3411205"><ele>400.0</ele><time>2026-04-19T09:03:25.031Z</time></trkpt><trkpt lat="45.8947737" lon="11.3413545"><ele>399.6666666666667</ele><time>2026-04-19T09:03:26.039Z</time></trkpt><trkpt lat="45.8947597" lon="11.3415911"><ele>399.33333333333337</ele><time>2026-04-19T09:03:27.047Z</time></trkpt><trkpt lat="45.8947336" lon="11.3418275"><ele>399.0</ele><time>2026-04-19T09:03:28.031Z</time></trkpt><trkpt lat="45.8946979" lon="11.3420663"><ele>399.0</ele><time>2026-04-19T09:03:29.05Z</time></trkpt><trkpt lat="45.8946516" lon="11.3423056"><ele>399.0</ele><time>2026-04-19T09:03:30.036Z</time></trkpt><trkpt lat="45.894592" lon="11.3425448"><ele>399.0</ele><time>2026-04-19T09:03:31.066Z</time></trkpt><trkpt lat="45.8945198" lon="11.3427788"><ele>399.0</ele><time>2026-04-19T09:03:32.031Z</time></trkpt><trkpt lat="45.8944454" lon="11.3430134"><ele>399.0</ele><time>2026-04-19T09:03:33.032Z</time></trkpt><trkpt lat="45.8943728" lon="11.3432492"><ele>399.0</ele><time>2026-04-19T09:03:34.04Z</time></trkpt><trkpt lat="45.894313" lon="11.3434927"><ele>398.0</ele><time>2026-04-19T09:03:35.029Z</time></trkpt><trkpt lat="45.8942263" lon="11.3437184"><ele>397.0</ele><time>2026-04-19T09:03:36.04Z</time></trkpt><trkpt lat="45.8941489" lon="11.3439479"><ele>396.0</ele><time>2026-04-19T09:03:37.052Z</time></trkpt><trkpt lat="45.8940733" lon="11.3441757"><ele>394.66666666666663</ele><time>2026-04-19T09:03:38.043Z</time></trkpt><trkpt lat="45.8939894" lon="11.3443958"><ele>393.3333333333333</ele><time>2026-04-19T09:03:39.041Z</time></trkpt><trkpt lat="45.8938903" lon="11.3446009"><ele>392.0</ele><time>2026-04-19T09:03:40.046Z</time></trkpt><trkpt lat="45.8937811" lon="11.3447933"><ele>389.66666666666663</ele><time>2026-04-19T09:03:41.046Z</time></trkpt><trkpt lat="45.8936764" lon="11.3449865"><ele>387.33333333333337</ele><time>2026-04-19T09:03:42.045Z</time></trkpt><trkpt lat="45.8935808" lon="11.3451856"><ele>385.0</ele><time>2026-04-19T09:03:43.043Z</time></trkpt><trkpt lat="45.8934717" lon="11.3453667"><ele>384.6666666666667</ele><time>2026-04-19T09:03:44.039Z</time></trkpt><trkpt lat="45.8933572" lon="11.345537"><ele>384.33333333333337</ele><time>2026-04-19T09:03:45.05Z</time></trkpt><trkpt lat="45.8932333" lon="11.3456898"><ele>384.0</ele><time>2026-04-19T09:03:46.034Z</time></trkpt><trkpt lat="45.8930953" lon="11.3458159"><ele>384.0</ele><time>2026-04-19T09:03:47.048Z</time></trkpt><trkpt lat="45.8929529" lon="11.3459154"><ele>384.0</ele><time>2026-04-19T09:03:48.03Z</time></trkpt><trkpt lat="45.8928059" lon="11.3459789"><ele>384.0</ele><time>2026-04-19T09:03:49.034Z</time></trkpt><trkpt lat="45.8926633" lon="11.3460327"><ele>385.5</ele><time>2026-04-19T09:03:50.03Z</time></trkpt><trkpt lat="45.8925319" lon="11.3461176"><ele>387.0</ele><time>2026-04-19T09:03:51.036Z</time></trkpt><trkpt lat="45.8924109" lon="11.3462418"><ele>388.5</ele><time>2026-04-19T09:03:52.033Z</time></trkpt><trkpt lat="45.8923135" lon="11.346417"><ele>390.0</ele><time>2026-04-19T09:03:53.029Z</time></trkpt><trkpt lat="45.8922357" lon="11.3466208"><ele>386.0</ele><time>2026-04-19T09:03:54.038Z</time></trkpt><trkpt lat="45.892167" lon="11.3468368"><ele>382.0</ele><time>2026-04-19T09:03:55.033Z</time></trkpt><trkpt lat="45.8921164" lon="11.3470652"><ele>378.0</ele><time>2026-04-19T09:03:56.04Z</time></trkpt><trkpt lat="45.8920843" lon="11.3473063"><ele>375.0</ele><time>2026-04-19T09:03:57.034Z</time></trkpt><trkpt lat="45.89205" lon="11.347551"><ele>372.0</ele><time>2026-04-19T09:03:58.038Z</time></trkpt><trkpt lat="45.8920194" lon="11.347794"><ele>369.0</ele><time>2026-04-19T09:03:59.055Z</time></trkpt><trkpt lat="45.8919948" lon="11.3480307"><ele>367.6666666666667</ele><time>2026-04-19T09:04:00.056Z</time></trkpt><trkpt lat="45.891968" lon="11.3482623"><ele>366.33333333333337</ele><time>2026-04-19T09:04:01.042Z</time></trkpt><trkpt lat="45.8919445" lon="11.3484982"><ele>365.0</ele><time>2026-04-19T09:04:02.046Z</time></trkpt><trkpt lat="45.8919172" lon="11.3487346"><ele>365.0</ele><time>2026-04-19T09:04:03.023Z</time></trkpt><trkpt lat="45.8918909" lon="11.3489661"><ele>365.0</ele><time>2026-04-19T09:04:04.025Z</time></trkpt><trkpt lat="45.8918576" lon="11.3491952"><ele>365.0</ele><time>2026-04-19T09:04:05.056Z</time></trkpt><trkpt lat="45.8918105" lon="11.3494244"><ele>365.0</ele><time>2026-04-19T09:04:06.042Z</time></trkpt><trkpt lat="45.8917646" lon="11.3496514"><ele>365.0</ele><time>2026-04-19T09:04:07.037Z</time></trkpt><trkpt lat="45.8917118" lon="11.3498774"><ele>365.0</ele><time>2026-04-19T09:04:08.032Z</time></trkpt><trkpt lat="45.8916472" lon="11.3500994"><ele>364.0</ele><time>2026-04-19T09:04:09.059Z</time></trkpt><trkpt lat="45.8915626" lon="11.3503098"><ele>363.0</ele><time>2026-04-19T09:04:10.037Z</time></trkpt><trkpt lat="45.8914704" lon="11.3505165"><ele>362.0</ele><time>2026-04-19T09:04:11.038Z</time></trkpt><trkpt lat="45.8913629" lon="11.3507133"><ele>362.0</ele><time>2026-04-19T09:04:12.041Z</time></trkpt><trkpt lat="45.8912424" lon="11.3508919"><ele>362.0</ele><time>2026-04-19T09:04:13.047Z</time></trkpt><trkpt lat="45.8911127" lon="11.3510465"><ele>362.0</ele><time>2026-04-19T09:04:14.039Z</time></trkpt><trkpt lat="45.8909646" lon="11.351146"><ele>362.0</ele><time>2026-04-19T09:04:15.03Z</time></trkpt><trkpt lat="45.8908018" lon="11.351214"><ele>362.0</ele><time>2026-04-19T09:04:16.039Z</time></trkpt><trkpt lat="45.8906405" lon="11.351294"><ele>362.0</ele><time>2026-04-19T09:04:17.043Z</time></trkpt><trkpt lat="45.8904782" lon="11.3513765"><ele>362.0</ele><time>2026-04-19T09:04:18.037Z</time></trkpt><trkpt lat="45.8903141" lon="11.3514601"><ele>362.0</ele><time>2026-04-19T09:04:19.046Z</time></trkpt><trkpt lat="45.8901517" lon="11.3515522"><ele>362.0</ele><time>2026-04-19T09:04:20.025Z</time></trkpt><trkpt lat="45.889996" lon="11.3516623"><ele>364.6666666666667</ele><time>2026-04-19T09:04:21.044Z</time></trkpt><trkpt lat="45.8898442" lon="11.351783"><ele>367.3333333333333</ele><time>2026-04-19T09:04:22.045Z</time></trkpt><trkpt lat="45.8897077" lon="11.3518702"><ele>370.0</ele><time>2026-04-19T09:04:23.049Z</time></trkpt><trkpt lat="45.8895527" lon="11.3520176"><ele>370.0</ele><time>2026-04-19T09:04:24.031Z</time></trkpt><trkpt lat="45.8894091" lon="11.3521582"><ele>370.0</ele><time>2026-04-19T09:04:25.035Z</time></trkpt><trkpt lat="45.8892699" lon="11.3522915"><ele>370.0</ele><time>2026-04-19T09:04:26.044Z</time></trkpt><trkpt lat="45.8891358" lon="11.3524158"><ele>367.75</ele><time>2026-04-19T09:04:27.041Z</time></trkpt><trkpt lat="45.8890057" lon="11.3525369"><ele>365.5</ele><time>2026-04-19T09:04:28.027Z</time></trkpt><trkpt lat="45.8888809" lon="11.3526602"><ele>363.25</ele><time>2026-04-19T09:04:29.047Z</time></trkpt><trkpt lat="45.8887652" lon="11.3527734"><ele>361.0</ele><time>2026-04-19T09:04:30.033Z</time></trkpt><trkpt lat="45.8886525" lon="11.3528709"><ele>361.0</ele><time>2026-04-19T09:04:31.046Z</time></trkpt><trkpt lat="45.8884598" lon="11.3529296"><ele>361.0</ele><time>2026-04-19T09:04:33.036Z</time></trkpt><trkpt lat="45.8882972" lon="11.352989"><ele>361.0</ele><time>2026-04-19T09:04:34.026Z</time></trkpt><trkpt lat="45.8881585" lon="11.3530281"><ele>360.5</ele><time>2026-04-19T09:04:35.044Z</time></trkpt><trkpt lat="45.8880193" lon="11.3530653"><ele>360.0</ele><time>2026-04-19T09:04:36.034Z</time></trkpt><trkpt lat="45.8878791" lon="11.3530992"><ele>359.5</ele><time>2026-04-19T09:04:37.035Z</time></trkpt><trkpt lat="45.8877322" lon="11.3531441"><ele>359.0</ele><time>2026-04-19T09:04:38.028Z</time></trkpt><trkpt lat="45.8875794" lon="11.3532021"><ele>359.0</ele><time>2026-04-19T09:04:39.027Z</time></trkpt><trkpt lat="45.8874245" lon="11.3532676"><ele>359.0</ele><time>2026-04-19T09:04:40.019Z</time></trkpt><trkpt lat="45.8872721" lon="11.3533499"><ele>359.0</ele><time>2026-04-19T09:04:41.035Z</time></trkpt><trkpt lat="45.8871235" lon="11.3534595"><ele>359.0</ele><time>2026-04-19T09:04:42.061Z</time></trkpt><trkpt lat="45.8869722" lon="11.353591"><ele>359.0</ele><time>2026-04-19T09:04:43.045Z</time></trkpt><trkpt lat="45.8868182" lon="11.3537351"><ele>359.0</ele><time>2026-04-19T09:04:44.032Z</time></trkpt><trkpt lat="45.8866679" lon="11.3538827"><ele>358.0</ele><time>2026-04-19T09:04:45.027Z</time></trkpt><trkpt lat="45.8865221" lon="11.3540331"><ele>357.0</ele><time>2026-04-19T09:04:46.022Z</time></trkpt><trkpt lat="45.8863734" lon="11.354204"><ele>356.0</ele><time>2026-04-19T09:04:47.039Z</time></trkpt><trkpt lat="45.8862412" lon="11.3543564"><ele>356.0</ele><time>2026-04-19T09:04:48.04Z</time></trkpt><trkpt lat="45.8861135" lon="11.3545068"><ele>356.0</ele><time>2026-04-19T09:04:49.033Z</time></trkpt><trkpt lat="45.8859884" lon="11.3546593"><ele>356.0</ele><time>2026-04-19T09:04:50.046Z</time></trkpt><trkpt lat="45.8858651" lon="11.354812"><ele>357.33333333333337</ele><time>2026-04-19T09:04:51.027Z</time></trkpt><trkpt lat="45.8857381" lon="11.354968"><ele>358.6666666666667</ele><time>2026-04-19T09:04:52.031Z</time></trkpt><trkpt lat="45.8856098" lon="11.3551135"><ele>360.0</ele><time>2026-04-19T09:04:53.056Z</time></trkpt><trkpt lat="45.8854724" lon="11.3552562"><ele>360.0</ele><time>2026-04-19T09:04:54.024Z</time></trkpt><trkpt lat="45.8853149" lon="11.3553975"><ele>360.0</ele><time>2026-04-19T09:04:55.046Z</time></trkpt><trkpt lat="45.8851656" lon="11.3554999"><ele>360.0</ele><time>2026-04-19T09:04:56.036Z</time></trkpt><trkpt lat="45.8850032" lon="11.3555808"><ele>358.3333333333333</ele><time>2026-04-19T09:04:57.03Z</time></trkpt><trkpt lat="45.8848396" lon="11.3556207"><ele>356.66666666666663</ele><time>2026-04-19T09:04:58.027Z</time></trkpt><trkpt lat="45.8846616" lon="11.3556437"><ele>355.0</ele><time>2026-04-19T09:04:59.05Z</time></trkpt><trkpt lat="45.8844716" lon="11.3556645"><ele>355.0</ele><time>2026-04-19T09:05:00.049Z</time></trkpt><trkpt lat="45.8842786" lon="11.3556877"><ele>355.0</ele><time>2026-04-19T09:05:01.042Z</time></trkpt><trkpt lat="45.8840908" lon="11.3557062"><ele>355.0</ele><time>2026-04-19T09:05:02.046Z</time></trkpt><trkpt lat="45.8839099" lon="11.3557247"><ele>354.66666666666663</ele><time>2026-04-19T09:05:03.033Z</time></trkpt><trkpt lat="45.8837326" lon="11.3557426"><ele>354.3333333333333</ele><time>2026-04-19T09:05:04.032Z</time></trkpt><trkpt lat="45.8835549" lon="11.3557617"><ele>354.0</ele><time>2026-04-19T09:05:05.035Z</time></trkpt><trkpt lat="45.8833759" lon="11.3557836"><ele>355.0</ele><time>2026-04-19T09:05:06.037Z</time></trkpt><trkpt lat="45.8831983" lon="11.3558103"><ele>356.0</ele><time>2026-04-19T09:05:07.033Z</time></trkpt><trkpt lat="45.8830191" lon="11.355853"><ele>357.0</ele><time>2026-04-19T09:05:08.026Z</time></trkpt><trkpt lat="45.8828389" lon="11.3559111"><ele>357.0</ele><time>2026-04-19T09:05:09.031Z</time></trkpt><trkpt lat="45.8826595" lon="11.3559799"><ele>357.0</ele><time>2026-04-19T09:05:10.034Z</time></trkpt><trkpt lat="45.8824802" lon="11.3560572"><ele>357.0</ele><time>2026-04-19T09:05:11.041Z</time></trkpt><trkpt lat="45.8823075" lon="11.3561366"><ele>357.3333333333333</ele><time>2026-04-19T09:05:12.029Z</time></trkpt><trkpt lat="45.8821331" lon="11.3562238"><ele>357.66666666666663</ele><time>2026-04-19T09:05:13.032Z</time></trkpt><trkpt lat="45.881961" lon="11.35632"><ele>358.0</ele><time>2026-04-19T09:05:14.051Z</time></trkpt><trkpt lat="45.8817973" lon="11.356421"><ele>354.3333333333333</ele><time>2026-04-19T09:05:15.047Z</time></trkpt><trkpt lat="45.8816393" lon="11.356533"><ele>350.6666666666667</ele><time>2026-04-19T09:05:16.026Z</time></trkpt><trkpt lat="45.8814817" lon="11.3566573"><ele>347.0</ele><time>2026-04-19T09:05:17.036Z</time></trkpt><trkpt lat="45.8813316" lon="11.3567933"><ele>347.0</ele><time>2026-04-19T09:05:18.032Z</time></trkpt><trkpt lat="45.8811948" lon="11.3569469"><ele>347.0</ele><time>2026-04-19T09:05:19.037Z</time></trkpt><trkpt lat="45.8810401" lon="11.3571144"><ele>347.0</ele><time>2026-04-19T09:05:20.042Z</time></trkpt><trkpt lat="45.8809118" lon="11.3572846"><ele>347.0</ele><time>2026-04-19T09:05:21.025Z</time></trkpt><trkpt lat="45.8807917" lon="11.3574512"><ele>347.0</ele><time>2026-04-19T09:05:22.03Z</time></trkpt><trkpt lat="45.8806707" lon="11.3576082"><ele>347.0</ele><time>2026-04-19T09:05:23.03Z</time></trkpt><trkpt lat="45.8805436" lon="11.3577647"><ele>347.0</ele><time>2026-04-19T09:05:24.038Z</time></trkpt><trkpt lat="45.8804073" lon="11.3579257"><ele>347.0</ele><time>2026-04-19T09:05:25.038Z</time></trkpt><trkpt lat="45.8802584" lon="11.3580859"><ele>347.0</ele><time>2026-04-19T09:05:26.035Z</time></trkpt><trkpt lat="45.8801023" lon="11.358228"><ele>346.6666666666667</ele><time>2026-04-19T09:05:27.056Z</time></trkpt><trkpt lat="45.8799572" lon="11.3583276"><ele>346.3333333333333</ele><time>2026-04-19T09:05:28.044Z</time></trkpt><trkpt lat="45.8797903" lon="11.3584349"><ele>346.0</ele><time>2026-04-19T09:05:29.05Z</time></trkpt><trkpt lat="45.8796208" lon="11.3585388"><ele>346.0</ele><time>2026-04-19T09:05:30.036Z</time></trkpt><trkpt lat="45.8794457" lon="11.3586397"><ele>346.0</ele><time>2026-04-19T09:05:31.029Z</time></trkpt><trkpt lat="45.8792743" lon="11.3587285"><ele>346.0</ele><time>2026-04-19T09:05:32.027Z</time></trkpt><trkpt lat="45.879099" lon="11.3588098"><ele>345.0</ele><time>2026-04-19T09:05:33.04Z</time></trkpt><trkpt lat="45.878928" lon="11.3588872"><ele>344.0</ele><time>2026-04-19T09:05:34.038Z</time></trkpt><trkpt lat="45.8787544" lon="11.3589628"><ele>343.0</ele><time>2026-04-19T09:05:35.053Z</time></trkpt><trkpt lat="45.8785886" lon="11.3590376"><ele>345.0</ele><time>2026-04-19T09:05:36.04Z</time></trkpt><trkpt lat="45.8784247" lon="11.3591105"><ele>347.0</ele><time>2026-04-19T09:05:37.035Z</time></trkpt><trkpt lat="45.878247" lon="11.359168"><ele>349.0</ele><time>2026-04-19T09:05:38.026Z</time></trkpt><trkpt lat="45.8780853" lon="11.359223"><ele>349.0</ele><time>2026-04-19T09:05:39.054Z</time></trkpt><trkpt lat="45.8779327" lon="11.3592781"><ele>349.0</ele><time>2026-04-19T09:05:40.033Z</time></trkpt><trkpt lat="45.8777761" lon="11.3593366"><ele>349.0</ele><time>2026-04-19T09:05:41.039Z</time></trkpt><trkpt lat="45.8776175" lon="11.3593895"><ele>349.66666666666663</ele><time>2026-04-19T09:05:42.033Z</time></trkpt><trkpt lat="45.877458" lon="11.3594277"><ele>350.3333333333333</ele><time>2026-04-19T09:05:43.041Z</time></trkpt><trkpt lat="45.8772936" lon="11.3594484"><ele>351.0</ele><time>2026-04-19T09:05:44.032Z</time></trkpt><trkpt lat="45.8771249" lon="11.3594614"><ele>351.0</ele><time>2026-04-19T09:05:45.032Z</time></trkpt><trkpt lat="45.8769533" lon="11.3594731"><ele>351.0</ele><time>2026-04-19T09:05:46.028Z</time></trkpt><trkpt lat="45.8767744" lon="11.3594851"><ele>351.0</ele><time>2026-04-19T09:05:47.029Z</time></trkpt><trkpt lat="45.8765914" lon="11.3595006"><ele>352.6666666666667</ele><time>2026-04-19T09:05:48.037Z</time></trkpt><trkpt lat="45.8764058" lon="11.3595161"><ele>354.33333333333337</ele><time>2026-04-19T09:05:49.053Z</time></trkpt><trkpt lat="45.8762209" lon="11.359526"><ele>356.0</ele><time>2026-04-19T09:05:50.033Z</time></trkpt><trkpt lat="45.876028" lon="11.3595372"><ele>357.33333333333337</ele><time>2026-04-19T09:05:51.039Z</time></trkpt><trkpt lat="45.8758397" lon="11.3595519"><ele>358.6666666666667</ele><time>2026-04-19T09:05:52.023Z</time></trkpt><trkpt lat="45.875645" lon="11.3595755"><ele>360.0</ele><time>2026-04-19T09:05:53.035Z</time></trkpt><trkpt lat="45.8754468" lon="11.3596003"><ele>360.0</ele><time>2026-04-19T09:05:54.035Z</time></trkpt><trkpt lat="45.8752555" lon="11.3596237"><ele>360.0</ele><time>2026-04-19T09:05:55.037Z</time></trkpt><trkpt lat="45.8750657" lon="11.3596506"><ele>360.0</ele><time>2026-04-19T09:05:56.031Z</time></trkpt><trkpt lat="45.8748947" lon="11.3596926"><ele>354.0</ele><time>2026-04-19T09:05:57.051Z</time></trkpt><trkpt lat="45.87473" lon="11.359768"><ele>348.0</ele><time>2026-04-19T09:05:58.019Z</time></trkpt><trkpt lat="45.8745904" lon="11.3598884"><ele>342.0</ele><time>2026-04-19T09:05:59.028Z</time></trkpt><trkpt lat="45.87446" lon="11.360051"><ele>342.0</ele><time>2026-04-19T09:06:00.019Z</time></trkpt><trkpt lat="45.8743104" lon="11.3602333"><ele>342.0</ele><time>2026-04-19T09:06:01.033Z</time></trkpt><trkpt lat="45.8741414" lon="11.360426"><ele>342.0</ele><time>2026-04-19T09:06:02.027Z</time></trkpt><trkpt lat="45.8739968" lon="11.3606054"><ele>341.0</ele><time>2026-04-19T09:06:03.05Z</time></trkpt><trkpt lat="45.8738536" lon="11.3607775"><ele>340.0</ele><time>2026-04-19T09:06:04.041Z</time></trkpt><trkpt lat="45.8737181" lon="11.3609434"><ele>339.0</ele><time>2026-04-19T09:06:05.054Z</time></trkpt><trkpt lat="45.873583" lon="11.3611131"><ele>339.0</ele><time>2026-04-19T09:06:06.028Z</time></trkpt><trkpt lat="45.8734527" lon="11.3612745"><ele>339.0</ele><time>2026-04-19T09:06:07.057Z</time></trkpt><trkpt lat="45.8733322" lon="11.3614225"><ele>339.0</ele><time>2026-04-19T09:06:08.031Z</time></trkpt><trkpt lat="45.8731969" lon="11.3615806"><ele>338.0</ele><time>2026-04-19T09:06:09.039Z</time></trkpt><trkpt lat="45.8730613" lon="11.3617114"><ele>337.0</ele><time>2026-04-19T09:06:10.032Z</time></trkpt><trkpt lat="45.8729107" lon="11.3618326"><ele>336.0</ele><time>2026-04-19T09:06:11.052Z</time></trkpt><trkpt lat="45.8727551" lon="11.3619252"><ele>338.3333333333333</ele><time>2026-04-19T09:06:12.032Z</time></trkpt><trkpt lat="45.8725839" lon="11.3619909"><ele>340.66666666666663</ele><time>2026-04-19T09:06:13.044Z</time></trkpt><trkpt lat="45.8724403" lon="11.3619849"><ele>343.0</ele><time>2026-04-19T09:06:14.029Z</time></trkpt><trkpt lat="45.8722764" lon="11.3619751"><ele>343.0</ele><time>2026-04-19T09:06:15.036Z</time></trkpt><trkpt lat="45.872082" lon="11.3619749"><ele>343.0</ele><time>2026-04-19T09:06:16.027Z</time></trkpt><trkpt lat="45.8718428" lon="11.362014"><ele>343.0</ele><time>2026-04-19T09:06:17.038Z</time></trkpt><trkpt lat="45.8716727" lon="11.3620191"><ele>342.3333333333333</ele><time>2026-04-19T09:06:18.024Z</time></trkpt><trkpt lat="45.8715066" lon="11.3620143"><ele>341.6666666666667</ele><time>2026-04-19T09:06:19.032Z</time></trkpt><trkpt lat="45.8713394" lon="11.3619992"><ele>341.0</ele><time>2026-04-19T09:06:20.025Z</time></trkpt><trkpt lat="45.8711713" lon="11.3619784"><ele>341.0</ele><time>2026-04-19T09:06:21.044Z</time></trkpt><trkpt lat="45.8710063" lon="11.361957"><ele>341.0</ele><time>2026-04-19T09:06:22.031Z</time></trkpt><trkpt lat="45.8708383" lon="11.361933"><ele>341.0</ele><time>2026-04-19T09:06:23.032Z</time></trkpt><trkpt lat="45.8706674" lon="11.3619067"><ele>340.0</ele><time>2026-04-19T09:06:24.041Z</time></trkpt><trkpt lat="45.8704981" lon="11.3618776"><ele>339.0</ele><time>2026-04-19T09:06:25.052Z</time></trkpt><trkpt lat="45.8703332" lon="11.361836"><ele>338.0</ele><time>2026-04-19T09:06:26.024Z</time></trkpt><trkpt lat="45.8701625" lon="11.3617868"><ele>338.0</ele><time>2026-04-19T09:06:27.045Z</time></trkpt><trkpt lat="45.8699946" lon="11.3617341"><ele>338.0</ele><time>2026-04-19T09:06:28.035Z</time></trkpt><trkpt lat="45.8698259" lon="11.3616766"><ele>338.0</ele><time>2026-04-19T09:06:29.032Z</time></trkpt><trkpt lat="45.869652" lon="11.3616203"><ele>338.0</ele><time>2026-04-19T09:06:30.023Z</time></trkpt><trkpt lat="45.8694717" lon="11.3615795"><ele>338.0</ele><time>2026-04-19T09:06:31.04Z</time></trkpt><trkpt lat="45.8692859" lon="11.3615483"><ele>338.0</ele><time>2026-04-19T09:06:32.028Z</time></trkpt><trkpt lat="45.8690963" lon="11.3615194"><ele>336.6666666666667</ele><time>2026-04-19T09:06:33.024Z</time></trkpt><trkpt lat="45.8689033" lon="11.3614966"><ele>335.3333333333333</ele><time>2026-04-19T09:06:34.036Z</time></trkpt><trkpt lat="45.8687111" lon="11.3614758"><ele>334.0</ele><time>2026-04-19T09:06:35.034Z</time></trkpt><trkpt lat="45.8685165" lon="11.361455"><ele>333.0</ele><time>2026-04-19T09:06:36.031Z</time></trkpt><trkpt lat="45.8683192" lon="11.3614454"><ele>332.0</ele><time>2026-04-19T09:06:37.032Z</time></trkpt><trkpt lat="45.8681278" lon="11.3614323"><ele>331.0</ele><time>2026-04-19T09:06:38.026Z</time></trkpt><trkpt lat="45.8679346" lon="11.3614154"><ele>331.0</ele><time>2026-04-19T09:06:39.048Z</time></trkpt><trkpt lat="45.8677451" lon="11.3613928"><ele>331.0</ele><time>2026-04-19T09:06:40.039Z</time></trkpt><trkpt lat="45.8675536" lon="11.3613702"><ele>331.0</ele><time>2026-04-19T09:06:41.03Z</time></trkpt><trkpt lat="45.867359" lon="11.3613489"><ele>331.66666666666663</ele><time>2026-04-19T09:06:42.038Z</time></trkpt><trkpt lat="45.8671638" lon="11.3613277"><ele>332.3333333333333</ele><time>2026-04-19T09:06:43.031Z</time></trkpt><trkpt lat="45.8669628" lon="11.361311"><ele>333.0</ele><time>2026-04-19T09:06:44.032Z</time></trkpt><trkpt lat="45.8667627" lon="11.3612969"><ele>333.0</ele><time>2026-04-19T09:06:45.033Z</time></trkpt><trkpt lat="45.8665587" lon="11.3612836"><ele>333.0</ele><time>2026-04-19T09:06:46.026Z</time></trkpt><trkpt lat="45.8663525" lon="11.3612717"><ele>333.0</ele><time>2026-04-19T09:06:47.043Z</time></trkpt><trkpt lat="45.8661496" lon="11.3612597"><ele>333.0</ele><time>2026-04-19T09:06:48.047Z</time></trkpt><trkpt lat="45.8659462" lon="11.3612511"><ele>333.0</ele><time>2026-04-19T09:06:49.04Z</time></trkpt><trkpt lat="45.8657443" lon="11.3612408"><ele>333.0</ele><time>2026-04-19T09:06:50.024Z</time></trkpt><trkpt lat="45.8655411" lon="11.3612288"><ele>333.3333333333333</ele><time>2026-04-19T09:06:51.031Z</time></trkpt><trkpt lat="45.8653405" lon="11.361218"><ele>333.66666666666663</ele><time>2026-04-19T09:06:52.027Z</time></trkpt><trkpt lat="45.8651421" lon="11.3612046"><ele>334.0</ele><time>2026-04-19T09:06:53.038Z</time></trkpt><trkpt lat="45.8649464" lon="11.3611915"><ele>333.3333333333333</ele><time>2026-04-19T09:06:54.053Z</time></trkpt><trkpt lat="45.8647559" lon="11.3611812"><ele>332.6666666666667</ele><time>2026-04-19T09:06:55.032Z</time></trkpt><trkpt lat="45.864556" lon="11.3611698"><ele>332.0</ele><time>2026-04-19T09:06:56.033Z</time></trkpt><trkpt lat="45.864355" lon="11.3611584"><ele>333.33333333333337</ele><time>2026-04-19T09:06:57.045Z</time></trkpt><trkpt lat="45.8641518" lon="11.3611486"><ele>334.6666666666667</ele><time>2026-04-19T09:06:58.046Z</time></trkpt><trkpt lat="45.8639461" lon="11.3611393"><ele>336.0</ele><time>2026-04-19T09:06:59.029Z</time></trkpt><trkpt lat="45.8637362" lon="11.3611365"><ele>336.0</ele><time>2026-04-19T09:07:00.05Z</time></trkpt><trkpt lat="45.8635325" lon="11.3611609"><ele>336.0</ele><time>2026-04-19T09:07:01.026Z</time></trkpt><trkpt lat="45.8633463" lon="11.3612129"><ele>336.0</ele><time>2026-04-19T09:07:02.026Z</time></trkpt><trkpt lat="45.8631104" lon="11.3612467"><ele>336.0</ele><time>2026-04-19T09:07:03.028Z</time></trkpt><trkpt lat="45.8628924" lon="11.3612839"><ele>336.0</ele><time>2026-04-19T09:07:04.031Z</time></trkpt><trkpt lat="45.862688" lon="11.3613297"><ele>336.0</ele><time>2026-04-19T09:07:05.033Z</time></trkpt><trkpt lat="45.8624774" lon="11.3613719"><ele>331.3333333333333</ele><time>2026-04-19T09:07:06.032Z</time></trkpt><trkpt lat="45.8622893" lon="11.3614248"><ele>326.66666666666663</ele><time>2026-04-19T09:07:07.031Z</time></trkpt><trkpt lat="45.8620988" lon="11.3614759"><ele>322.0</ele><time>2026-04-19T09:07:08.039Z</time></trkpt><trkpt lat="45.8619179" lon="11.3615244"><ele>322.0</ele><time>2026-04-19T09:07:09.054Z</time></trkpt><trkpt lat="45.8617378" lon="11.361566"><ele>322.0</ele><time>2026-04-19T09:07:10.023Z</time></trkpt><trkpt lat="45.8615386" lon="11.3615498"><ele>322.0</ele><time>2026-04-19T09:07:11.046Z</time></trkpt><trkpt lat="45.861353" lon="11.3615435"><ele>322.0</ele><time>2026-04-19T09:07:12.04Z</time></trkpt><trkpt lat="45.8611686" lon="11.3615434"><ele>322.0</ele><time>2026-04-19T09:07:13.055Z</time></trkpt><trkpt lat="45.8609887" lon="11.3615452"><ele>322.0</ele><time>2026-04-19T09:07:14.032Z</time></trkpt><trkpt lat="45.8608061" lon="11.3615672"><ele>321.3333333333333</ele><time>2026-04-19T09:07:15.033Z</time></trkpt><trkpt lat="45.8606212" lon="11.3615861"><ele>320.6666666666667</ele><time>2026-04-19T09:07:16.031Z</time></trkpt><trkpt lat="45.8604351" lon="11.3616015"><ele>320.0</ele><time>2026-04-19T09:07:17.031Z</time></trkpt><trkpt lat="45.8602492" lon="11.3616173"><ele>319.33333333333337</ele><time>2026-04-19T09:07:18.04Z</time></trkpt><trkpt lat="45.8600662" lon="11.3616342"><ele>318.6666666666667</ele><time>2026-04-19T09:07:19.054Z</time></trkpt><trkpt lat="45.8598851" lon="11.3616499"><ele>318.0</ele><time>2026-04-19T09:07:20.032Z</time></trkpt><trkpt lat="45.8597028" lon="11.3616625"><ele>318.0</ele><time>2026-04-19T09:07:21.038Z</time></trkpt><trkpt lat="45.8595246" lon="11.3616745"><ele>318.0</ele><time>2026-04-19T09:07:22.027Z</time></trkpt><trkpt lat="45.8593449" lon="11.3616873"><ele>318.0</ele><time>2026-04-19T09:07:23.052Z</time></trkpt><trkpt lat="45.8591717" lon="11.3616983"><ele>317.6666666666667</ele><time>2026-04-19T09:07:24.037Z</time></trkpt><trkpt lat="45.8589986" lon="11.3617074"><ele>317.33333333333337</ele><time>2026-04-19T09:07:25.046Z</time></trkpt><trkpt lat="45.8588312" lon="11.361714"><ele>317.0</ele><time>2026-04-19T09:07:26.048Z</time></trkpt><trkpt lat="45.8586686" lon="11.3617196"><ele>317.0</ele><time>2026-04-19T09:07:27.034Z</time></trkpt><trkpt lat="45.8585088" lon="11.3617229"><ele>317.0</ele><time>2026-04-19T09:07:28.038Z</time></trkpt><trkpt lat="45.858355" lon="11.3617231"><ele>317.0</ele><time>2026-04-19T09:07:29.024Z</time></trkpt><trkpt lat="45.8582037" lon="11.3617238"><ele>317.25</ele><time>2026-04-19T09:07:30.042Z</time></trkpt><trkpt lat="45.8580591" lon="11.3617259"><ele>317.5</ele><time>2026-04-19T09:07:31.038Z</time></trkpt><trkpt lat="45.8579175" lon="11.361728"><ele>317.75</ele><time>2026-04-19T09:07:32.024Z</time></trkpt><trkpt lat="45.8577788" lon="11.3617325"><ele>318.0</ele><time>2026-04-19T09:07:33.029Z</time></trkpt><trkpt lat="45.8576453" lon="11.3617372"><ele>317.75</ele><time>2026-04-19T09:07:34.028Z</time></trkpt><trkpt lat="45.8575131" lon="11.36174"><ele>317.5</ele><time>2026-04-19T09:07:35.051Z</time></trkpt><trkpt lat="45.8573872" lon="11.3617415"><ele>317.25</ele><time>2026-04-19T09:07:36.037Z</time></trkpt><trkpt lat="45.857264" lon="11.361743"><ele>317.0</ele><time>2026-04-19T09:07:37.046Z</time></trkpt><trkpt lat="45.8571494" lon="11.3617413"><ele>317.0</ele><time>2026-04-19T09:07:38.038Z</time></trkpt><trkpt lat="45.8570389" lon="11.3617242"><ele>317.0</ele><time>2026-04-19T09:07:39.037Z</time></trkpt><trkpt lat="45.856934" lon="11.3617364"><ele>317.0</ele><time>2026-04-19T09:07:40.025Z</time></trkpt><trkpt lat="45.8568524" lon="11.3617716"><ele>317.0</ele><time>2026-04-19T09:07:41.031Z</time></trkpt><trkpt lat="45.8567315" lon="11.3618612"><ele>317.0</ele><time>2026-04-19T09:07:42.035Z</time></trkpt><trkpt lat="45.8565906" lon="11.3619509"><ele>317.0</ele><time>2026-04-19T09:07:43.037Z</time></trkpt><trkpt lat="45.8564478" lon="11.3620231"><ele>317.0</ele><time>2026-04-19T09:07:44.025Z</time></trkpt><trkpt lat="45.8562921" lon="11.3620972"><ele>317.0</ele><time>2026-04-19T09:07:45.029Z</time></trkpt><trkpt lat="45.8561375" lon="11.3621711"><ele>316.33333333333337</ele><time>2026-04-19T09:07:46.026Z</time></trkpt><trkpt lat="45.8559764" lon="11.3622465"><ele>315.6666666666667</ele><time>2026-04-19T09:07:47.053Z</time></trkpt><trkpt lat="45.8558216" lon="11.3623089"><ele>315.0</ele><time>2026-04-19T09:07:48.051Z</time></trkpt><trkpt lat="45.8556562" lon="11.3623731"><ele>315.0</ele><time>2026-04-19T09:07:49.045Z</time></trkpt><trkpt lat="45.8554953" lon="11.3624363"><ele>315.0</ele><time>2026-04-19T09:07:50.045Z</time></trkpt><trkpt lat="45.8553389" lon="11.3624964"><ele>315.0</ele><time>2026-04-19T09:07:51.034Z</time></trkpt><trkpt lat="45.8551818" lon="11.3625583"><ele>315.0</ele><time>2026-04-19T09:07:52.048Z</time></trkpt><trkpt lat="45.8550267" lon="11.3626205"><ele>315.0</ele><time>2026-04-19T09:07:53.04Z</time></trkpt><trkpt lat="45.8548722" lon="11.3626834"><ele>315.0</ele><time>2026-04-19T09:07:54.033Z</time></trkpt><trkpt lat="45.8547136" lon="11.3627482"><ele>315.0</ele><time>2026-04-19T09:07:55.038Z</time></trkpt><trkpt lat="45.8545547" lon="11.3628113"><ele>315.0</ele><time>2026-04-19T09:07:56.033Z</time></trkpt><trkpt lat="45.8543908" lon="11.362875"><ele>315.0</ele><time>2026-04-19T09:07:57.038Z</time></trkpt><trkpt lat="45.8542254" lon="11.3629391"><ele>314.6666666666667</ele><time>2026-04-19T09:07:58.053Z</time></trkpt><trkpt lat="45.8540594" lon="11.3630031"><ele>314.33333333333337</ele><time>2026-04-19T09:07:59.038Z</time></trkpt><trkpt lat="45.8538915" lon="11.3630712"><ele>314.0</ele><time>2026-04-19T09:08:00.04Z</time></trkpt><trkpt lat="45.8537245" lon="11.3631385"><ele>314.0</ele><time>2026-04-19T09:08:01.033Z</time></trkpt><trkpt lat="45.8535518" lon="11.3632108"><ele>314.0</ele><time>2026-04-19T09:08:02.046Z</time></trkpt><trkpt lat="45.8533844" lon="11.3632838"><ele>314.0</ele><time>2026-04-19T09:08:03.035Z</time></trkpt><trkpt lat="45.8532189" lon="11.3633555"><ele>315.33333333333337</ele><time>2026-04-19T09:08:04.031Z</time></trkpt><trkpt lat="45.8530531" lon="11.3634288"><ele>316.6666666666667</ele><time>2026-04-19T09:08:05.036Z</time></trkpt><trkpt lat="45.8528891" lon="11.3635017"><ele>318.0</ele><time>2026-04-19T09:08:06.034Z</time></trkpt><trkpt lat="45.8527232" lon="11.3635774"><ele>318.3333333333333</ele><time>2026-04-19T09:08:07.045Z</time></trkpt><trkpt lat="45.8525596" lon="11.3636549"><ele>318.66666666666663</ele><time>2026-04-19T09:08:08.056Z</time></trkpt><trkpt lat="45.8523975" lon="11.3637332"><ele>319.0</ele><time>2026-04-19T09:08:09.046Z</time></trkpt><trkpt lat="45.8522353" lon="11.3638115"><ele>318.0</ele><time>2026-04-19T09:08:10.029Z</time></trkpt><trkpt lat="45.8520668" lon="11.3638934"><ele>317.0</ele><time>2026-04-19T09:08:11.06Z</time></trkpt><trkpt lat="45.851901" lon="11.363978"><ele>316.0</ele><time>2026-04-19T09:08:12.021Z</time></trkpt><trkpt lat="45.8517297" lon="11.3640697"><ele>316.0</ele><time>2026-04-19T09:08:13.041Z</time></trkpt><trkpt lat="45.8515627" lon="11.3641611"><ele>316.0</ele><time>2026-04-19T09:08:14.036Z</time></trkpt><trkpt lat="45.851395" lon="11.3642565"><ele>316.0</ele><time>2026-04-19T09:08:15.028Z</time></trkpt><trkpt lat="45.8512242" lon="11.3643598"><ele>316.0</ele><time>2026-04-19T09:08:16.049Z</time></trkpt><trkpt lat="45.851057" lon="11.3644662"><ele>316.0</ele><time>2026-04-19T09:08:17.036Z</time></trkpt><trkpt lat="45.8508934" lon="11.3645768"><ele>316.0</ele><time>2026-04-19T09:08:18.037Z</time></trkpt><trkpt lat="45.8507294" lon="11.3646877"><ele>313.3333333333333</ele><time>2026-04-19T09:08:19.062Z</time></trkpt><trkpt lat="45.8505701" lon="11.3647935"><ele>310.6666666666667</ele><time>2026-04-19T09:08:20.04Z</time></trkpt><trkpt lat="45.8504037" lon="11.3649041"><ele>308.0</ele><time>2026-04-19T09:08:21.046Z</time></trkpt><trkpt lat="45.8502321" lon="11.3650194"><ele>310.0</ele><time>2026-04-19T09:08:22.041Z</time></trkpt><trkpt lat="45.8500544" lon="11.365132"><ele>312.0</ele><time>2026-04-19T09:08:23.032Z</time></trkpt><trkpt lat="45.8498717" lon="11.3652443"><ele>314.0</ele><time>2026-04-19T09:08:24.031Z</time></trkpt><trkpt lat="45.8496881" lon="11.3653561"><ele>314.0</ele><time>2026-04-19T09:08:25.038Z</time></trkpt><trkpt lat="45.8495044" lon="11.3654577"><ele>314.0</ele><time>2026-04-19T09:08:26.046Z</time></trkpt><trkpt lat="45.8493197" lon="11.3655555"><ele>314.0</ele><time>2026-04-19T09:08:27.025Z</time></trkpt><trkpt lat="45.8491293" lon="11.3656488"><ele>313.33333333333337</ele><time>2026-04-19T09:08:28.041Z</time></trkpt><trkpt lat="45.8489446" lon="11.3657342"><ele>312.6666666666667</ele><time>2026-04-19T09:08:29.048Z</time></trkpt><trkpt lat="45.8487658" lon="11.3658126"><ele>312.0</ele><time>2026-04-19T09:08:30.039Z</time></trkpt><trkpt lat="45.8485932" lon="11.3658732"><ele>315.3333333333333</ele><time>2026-04-19T09:08:31.045Z</time></trkpt><trkpt lat="45.8484219" lon="11.3659191"><ele>318.66666666666663</ele><time>2026-04-19T09:08:32.033Z</time></trkpt><trkpt lat="45.8482407" lon="11.3659665"><ele>322.0</ele><time>2026-04-19T09:08:33.05Z</time></trkpt><trkpt lat="45.8480606" lon="11.3660066"><ele>322.0</ele><time>2026-04-19T09:08:34.038Z</time></trkpt><trkpt lat="45.8478761" lon="11.3660446"><ele>322.0</ele><time>2026-04-19T09:08:35.028Z</time></trkpt><trkpt lat="45.8476861" lon="11.3660809"><ele>322.0</ele><time>2026-04-19T09:08:36.036Z</time></trkpt><trkpt lat="45.8474907" lon="11.3661148"><ele>323.66666666666663</ele><time>2026-04-19T09:08:37.039Z</time></trkpt><trkpt lat="45.8472991" lon="11.3661492"><ele>325.3333333333333</ele><time>2026-04-19T09:08:38.037Z</time></trkpt><trkpt lat="45.8471075" lon="11.366179"><ele>327.0</ele><time>2026-04-19T09:08:39.058Z</time></trkpt><trkpt lat="45.8469198" lon="11.3662064"><ele>330.3333333333333</ele><time>2026-04-19T09:08:40.043Z</time></trkpt><trkpt lat="45.8467341" lon="11.3662323"><ele>333.66666666666663</ele><time>2026-04-19T09:08:41.022Z</time></trkpt><trkpt lat="45.8465485" lon="11.3662653"><ele>337.0</ele><time>2026-04-19T09:08:42.029Z</time></trkpt><trkpt lat="45.8463603" lon="11.3663147"><ele>330.66666666666663</ele><time>2026-04-19T09:08:43.044Z</time></trkpt><trkpt lat="45.8461799" lon="11.3663839"><ele>324.3333333333333</ele><time>2026-04-19T09:08:44.03Z</time></trkpt><trkpt lat="45.8459987" lon="11.3664688"><ele>318.0</ele><time>2026-04-19T09:08:45.026Z</time></trkpt><trkpt lat="45.8458167" lon="11.3665619"><ele>318.0</ele><time>2026-04-19T09:08:46.047Z</time></trkpt><trkpt lat="45.8456423" lon="11.3666365"><ele>318.0</ele><time>2026-04-19T09:08:47.03Z</time></trkpt><trkpt lat="45.8454776" lon="11.3666828"><ele>318.0</ele><time>2026-04-19T09:08:48.035Z</time></trkpt><trkpt lat="45.8453058" lon="11.3667207"><ele>318.0</ele><time>2026-04-19T09:08:49.04Z</time></trkpt><trkpt lat="45.8451359" lon="11.3667587"><ele>318.0</ele><time>2026-04-19T09:08:50.028Z</time></trkpt><trkpt lat="45.8449671" lon="11.3667995"><ele>318.0</ele><time>2026-04-19T09:08:51.039Z</time></trkpt><trkpt lat="45.8447986" lon="11.3668414"><ele>319.3333333333333</ele><time>2026-04-19T09:08:52.05Z</time></trkpt><trkpt lat="45.8446393" lon="11.3668791"><ele>320.66666666666663</ele><time>2026-04-19T09:08:53.038Z</time></trkpt><trkpt lat="45.8444821" lon="11.3669122"><ele>322.0</ele><time>2026-04-19T09:08:54.031Z</time></trkpt><trkpt lat="45.8443291" lon="11.3669524"><ele>325.0</ele><time>2026-04-19T09:08:55.04Z</time></trkpt><trkpt lat="45.8441777" lon="11.3669902"><ele>328.0</ele><time>2026-04-19T09:08:56.026Z</time></trkpt><trkpt lat="45.8440191" lon="11.3670249"><ele>331.0</ele><time>2026-04-19T09:08:57.045Z</time></trkpt><trkpt lat="45.8438604" lon="11.3670529"><ele>331.0</ele><time>2026-04-19T09:08:58.033Z</time></trkpt><trkpt lat="45.8436992" lon="11.367084"><ele>331.0</ele><time>2026-04-19T09:08:59.03Z</time></trkpt><trkpt lat="45.843537" lon="11.3671223"><ele>331.0</ele><time>2026-04-19T09:09:00.045Z</time></trkpt><trkpt lat="45.8433675" lon="11.3671685"><ele>323.0</ele><time>2026-04-19T09:09:01.041Z</time></trkpt><trkpt lat="45.843198" lon="11.3672347"><ele>315.0</ele><time>2026-04-19T09:09:02.045Z</time></trkpt><trkpt lat="45.8430369" lon="11.3673274"><ele>307.0</ele><time>2026-04-19T09:09:03.034Z</time></trkpt><trkpt lat="45.8428733" lon="11.3674417"><ele>307.0</ele><time>2026-04-19T09:09:04.034Z</time></trkpt><trkpt lat="45.8426952" lon="11.3675641"><ele>307.0</ele><time>2026-04-19T09:09:05.049Z</time></trkpt><trkpt lat="45.8425205" lon="11.3676829"><ele>307.0</ele><time>2026-04-19T09:09:06.03Z</time></trkpt><trkpt lat="45.8423526" lon="11.367802"><ele>305.3333333333333</ele><time>2026-04-19T09:09:07.042Z</time></trkpt><trkpt lat="45.8421953" lon="11.3679262"><ele>303.6666666666667</ele><time>2026-04-19T09:09:08.036Z</time></trkpt><trkpt lat="45.8420415" lon="11.3680548"><ele>302.0</ele><time>2026-04-19T09:09:09.037Z</time></trkpt><trkpt lat="45.8418921" lon="11.3681844"><ele>303.6666666666667</ele><time>2026-04-19T09:09:10.042Z</time></trkpt><trkpt lat="45.84175" lon="11.3683086"><ele>305.3333333333333</ele><time>2026-04-19T09:09:11.065Z</time></trkpt><trkpt lat="45.8416183" lon="11.3684291"><ele>307.0</ele><time>2026-04-19T09:09:12.05Z</time></trkpt><trkpt lat="45.8414699" lon="11.368531"><ele>307.0</ele><time>2026-04-19T09:09:13.038Z</time></trkpt><trkpt lat="45.8413365" lon="11.3686431"><ele>307.0</ele><time>2026-04-19T09:09:14.039Z</time></trkpt><trkpt lat="45.8412068" lon="11.3687555"><ele>307.0</ele><time>2026-04-19T09:09:15.032Z</time></trkpt><trkpt lat="45.8410802" lon="11.3688656"><ele>306.0</ele><time>2026-04-19T09:09:16.033Z</time></trkpt><trkpt lat="45.8409614" lon="11.3689793"><ele>305.0</ele><time>2026-04-19T09:09:17.036Z</time></trkpt><trkpt lat="45.8408506" lon="11.3691042"><ele>304.0</ele><time>2026-04-19T09:09:18.053Z</time></trkpt><trkpt lat="45.8407431" lon="11.3692344"><ele>303.0</ele><time>2026-04-19T09:09:19.045Z</time></trkpt><trkpt lat="45.8406403" lon="11.3693581"><ele>303.0</ele><time>2026-04-19T09:09:20.048Z</time></trkpt><trkpt lat="45.8405387" lon="11.3694759"><ele>303.0</ele><time>2026-04-19T09:09:21.048Z</time></trkpt><trkpt lat="45.8404371" lon="11.3695912"><ele>303.0</ele><time>2026-04-19T09:09:22.034Z</time></trkpt><trkpt lat="45.8403325" lon="11.3696996"><ele>303.0</ele><time>2026-04-19T09:09:23.029Z</time></trkpt><trkpt lat="45.8402191" lon="11.369807"><ele>302.75</ele><time>2026-04-19T09:09:24.02Z</time></trkpt><trkpt lat="45.8400999" lon="11.3699061"><ele>302.5</ele><time>2026-04-19T09:09:25.044Z</time></trkpt><trkpt lat="45.8399815" lon="11.3699977"><ele>302.25</ele><time>2026-04-19T09:09:26.049Z</time></trkpt><trkpt lat="45.8398615" lon="11.3700851"><ele>302.0</ele><time>2026-04-19T09:09:27.044Z</time></trkpt><trkpt lat="45.8397377" lon="11.3701683"><ele>302.0</ele><time>2026-04-19T09:09:28.043Z</time></trkpt><trkpt lat="45.8396093" lon="11.3702427"><ele>302.0</ele><time>2026-04-19T09:09:29.023Z</time></trkpt><trkpt lat="45.8394756" lon="11.3703066"><ele>302.0</ele><time>2026-04-19T09:09:30.036Z</time></trkpt><trkpt lat="45.8393382" lon="11.370357"><ele>302.0</ele><time>2026-04-19T09:09:31.037Z</time></trkpt><trkpt lat="45.8391968" lon="11.3703933"><ele>307.75</ele><time>2026-04-19T09:09:32.024Z</time></trkpt><trkpt lat="45.8390504" lon="11.3704183"><ele>313.5</ele><time>2026-04-19T09:09:33.035Z</time></trkpt><trkpt lat="45.8389074" lon="11.3704365"><ele>319.25</ele><time>2026-04-19T09:09:34.037Z</time></trkpt><trkpt lat="45.8387584" lon="11.3704504"><ele>325.0</ele><time>2026-04-19T09:09:35.056Z</time></trkpt><trkpt lat="45.8386162" lon="11.3704616"><ele>325.0</ele><time>2026-04-19T09:09:36.031Z</time></trkpt><trkpt lat="45.8384691" lon="11.3704715"><ele>325.0</ele><time>2026-04-19T09:09:37.037Z</time></trkpt><trkpt lat="45.8383159" lon="11.3704717"><ele>325.0</ele><time>2026-04-19T09:09:38.036Z</time></trkpt><trkpt lat="45.8381658" lon="11.3704639"><ele>329.3333333333333</ele><time>2026-04-19T09:09:39.04Z</time></trkpt><trkpt lat="45.8380079" lon="11.3704364"><ele>333.6666666666667</ele><time>2026-04-19T09:09:40.04Z</time></trkpt><trkpt lat="45.8378503" lon="11.3703901"><ele>338.0</ele><time>2026-04-19T09:09:41.038Z</time></trkpt><trkpt lat="45.8376871" lon="11.3703314"><ele>334.33333333333337</ele><time>2026-04-19T09:09:42.037Z</time></trkpt><trkpt lat="45.8375234" lon="11.3702671"><ele>330.6666666666667</ele><time>2026-04-19T09:09:43.031Z</time></trkpt><trkpt lat="45.8373646" lon="11.3702045"><ele>327.0</ele><time>2026-04-19T09:09:44.031Z</time></trkpt><trkpt lat="45.8371985" lon="11.3701491"><ele>327.0</ele><time>2026-04-19T09:09:45.037Z</time></trkpt><trkpt lat="45.837031" lon="11.3701001"><ele>327.0</ele><time>2026-04-19T09:09:46.022Z</time></trkpt><trkpt lat="45.8368598" lon="11.3700575"><ele>327.0</ele><time>2026-04-19T09:09:47.025Z</time></trkpt><trkpt lat="45.8366997" lon="11.3700169"><ele>324.6666666666667</ele><time>2026-04-19T09:09:48.032Z</time></trkpt><trkpt lat="45.8365431" lon="11.3699702"><ele>322.33333333333337</ele><time>2026-04-19T09:09:49.035Z</time></trkpt><trkpt lat="45.8363862" lon="11.3699172"><ele>320.0</ele><time>2026-04-19T09:09:50.03Z</time></trkpt><trkpt lat="45.8362263" lon="11.3698631"><ele>320.0</ele><time>2026-04-19T09:09:51.029Z</time></trkpt><trkpt lat="45.8360581" lon="11.3698142"><ele>320.0</ele><time>2026-04-19T09:09:52.029Z</time></trkpt><trkpt lat="45.8358858" lon="11.3697754"><ele>320.0</ele><time>2026-04-19T09:09:53.027Z</time></trkpt><trkpt lat="45.8357172" lon="11.369743"><ele>315.0</ele><time>2026-04-19T09:09:54.023Z</time></trkpt><trkpt lat="45.8355555" lon="11.3697142"><ele>310.0</ele><time>2026-04-19T09:09:55.032Z</time></trkpt><trkpt lat="45.835394" lon="11.3696836"><ele>305.0</ele><time>2026-04-19T09:09:56.029Z</time></trkpt><trkpt lat="45.8352304" lon="11.3696538"><ele>315.33333333333337</ele><time>2026-04-19T09:09:57.049Z</time></trkpt><trkpt lat="45.8350721" lon="11.3696267"><ele>325.6666666666667</ele><time>2026-04-19T09:09:58.044Z</time></trkpt><trkpt lat="45.8349274" lon="11.3695983"><ele>336.0</ele><time>2026-04-19T09:09:59.045Z</time></trkpt><trkpt lat="45.8347801" lon="11.3695651"><ele>336.0</ele><time>2026-04-19T09:10:00.04Z</time></trkpt><trkpt lat="45.8346407" lon="11.3695315"><ele>336.0</ele><time>2026-04-19T09:10:01.023Z</time></trkpt><trkpt lat="45.834505" lon="11.3694964"><ele>336.0</ele><time>2026-04-19T09:10:02.038Z</time></trkpt><trkpt lat="45.8343755" lon="11.3694728"><ele>336.0</ele><time>2026-04-19T09:10:03.06Z</time></trkpt><trkpt lat="45.8342578" lon="11.3694669"><ele>333.0</ele><time>2026-04-19T09:10:04.048Z</time></trkpt><trkpt lat="45.8341417" lon="11.3694812"><ele>330.0</ele><time>2026-04-19T09:10:05.038Z</time></trkpt><trkpt lat="45.8340326" lon="11.3695157"><ele>327.0</ele><time>2026-04-19T09:10:06.041Z</time></trkpt><trkpt lat="45.8339428" lon="11.3695716"><ele>324.0</ele><time>2026-04-19T09:10:07.031Z</time></trkpt><trkpt lat="45.8338415" lon="11.36964"><ele>321.0</ele><time>2026-04-19T09:10:08.039Z</time></trkpt><trkpt lat="45.8337442" lon="11.3697095"><ele>316.8</ele><time>2026-04-19T09:10:09.026Z</time></trkpt><trkpt lat="45.833645" lon="11.3697751"><ele>312.6</ele><time>2026-04-19T09:10:10.065Z</time></trkpt><trkpt lat="45.8335431" lon="11.3698296"><ele>308.4</ele><time>2026-04-19T09:10:11.037Z</time></trkpt><trkpt lat="45.8334424" lon="11.3698632"><ele>304.2</ele><time>2026-04-19T09:10:12.029Z</time></trkpt><trkpt lat="45.8333283" lon="11.369891"><ele>300.0</ele><time>2026-04-19T09:10:13.049Z</time></trkpt><trkpt lat="45.8332182" lon="11.3698996"><ele>300.0</ele><time>2026-04-19T09:10:14.038Z</time></trkpt><trkpt lat="45.833106" lon="11.3698961"><ele>300.0</ele><time>2026-04-19T09:10:15.045Z</time></trkpt><trkpt lat="45.8329965" lon="11.3698444"><ele>300.0</ele><time>2026-04-19T09:10:16.034Z</time></trkpt><trkpt lat="45.8328741" lon="11.3698192"><ele>300.0</ele><time>2026-04-19T09:10:17.041Z</time></trkpt><trkpt lat="45.8327472" lon="11.3697953"><ele>300.75</ele><time>2026-04-19T09:10:18.038Z</time></trkpt><trkpt lat="45.8326135" lon="11.3697652"><ele>301.5</ele><time>2026-04-19T09:10:19.031Z</time></trkpt><trkpt lat="45.8324737" lon="11.369725"><ele>302.25</ele><time>2026-04-19T09:10:20.044Z</time></trkpt><trkpt lat="45.8323317" lon="11.3696723"><ele>303.0</ele><time>2026-04-19T09:10:21.034Z</time></trkpt><trkpt lat="45.8321863" lon="11.369605"><ele>309.6666666666667</ele><time>2026-04-19T09:10:22.042Z</time></trkpt><trkpt lat="45.8320374" lon="11.3695197"><ele>316.33333333333337</ele><time>2026-04-19T09:10:23.057Z</time></trkpt><trkpt lat="45.8318903" lon="11.3694297"><ele>323.0</ele><time>2026-04-19T09:10:24.039Z</time></trkpt><trkpt lat="45.8317419" lon="11.3693387"><ele>323.0</ele><time>2026-04-19T09:10:25.04Z</time></trkpt><trkpt lat="45.8315963" lon="11.3692549"><ele>323.0</ele><time>2026-04-19T09:10:26.037Z</time></trkpt><trkpt lat="45.831453" lon="11.3691864"><ele>323.0</ele><time>2026-04-19T09:10:27.028Z</time></trkpt><trkpt lat="45.8313102" lon="11.3691402"><ele>323.0</ele><time>2026-04-19T09:10:28.036Z</time></trkpt><trkpt lat="45.8311586" lon="11.3691029"><ele>323.0</ele><time>2026-04-19T09:10:29.046Z</time></trkpt><trkpt lat="45.8310177" lon="11.3690734"><ele>323.0</ele><time>2026-04-19T09:10:30.022Z</time></trkpt><trkpt lat="45.8308789" lon="11.3690452"><ele>323.0</ele><time>2026-04-19T09:10:31.04Z</time></trkpt><trkpt lat="45.8307411" lon="11.3690121"><ele>320.0</ele><time>2026-04-19T09:10:32.038Z</time></trkpt><trkpt lat="45.8306014" lon="11.3689766"><ele>317.0</ele><time>2026-04-19T09:10:33.039Z</time></trkpt><trkpt lat="45.8304624" lon="11.3689321"><ele>314.0</ele><time>2026-04-19T09:10:34.025Z</time></trkpt><trkpt lat="45.8303252" lon="11.3688796"><ele>311.0</ele><time>2026-04-19T09:10:35.027Z</time></trkpt><trkpt lat="45.83019" lon="11.3688254"><ele>324.75</ele><time>2026-04-19T09:10:36.023Z</time></trkpt><trkpt lat="45.8300631" lon="11.3687844"><ele>338.5</ele><time>2026-04-19T09:10:37.037Z</time></trkpt><trkpt lat="45.8299308" lon="11.3687596"><ele>352.25</ele><time>2026-04-19T09:10:38.026Z</time></trkpt><trkpt lat="45.8298243" lon="11.3687721"><ele>366.0</ele><time>2026-04-19T09:10:39.027Z</time></trkpt><trkpt lat="45.8296979" lon="11.3688003"><ele>366.0</ele><time>2026-04-19T09:10:40.039Z</time></trkpt><trkpt lat="45.8295748" lon="11.36884"><ele>366.0</ele><time>2026-04-19T09:10:41.046Z</time></trkpt><trkpt lat="45.8294579" lon="11.3688784"><ele>366.0</ele><time>2026-04-19T09:10:42.041Z</time></trkpt><trkpt lat="45.8293429" lon="11.3689097"><ele>366.0</ele><time>2026-04-19T09:10:43.037Z</time></trkpt><trkpt lat="45.8292262" lon="11.3689349"><ele>349.25</ele><time>2026-04-19T09:10:44.038Z</time></trkpt><trkpt lat="45.8291075" lon="11.3689552"><ele>332.5</ele><time>2026-04-19T09:10:45.041Z</time></trkpt><trkpt lat="45.828996" lon="11.3689679"><ele>315.75</ele><time>2026-04-19T09:10:46.033Z</time></trkpt><trkpt lat="45.8288786" lon="11.3689751"><ele>299.0</ele><time>2026-04-19T09:10:47.039Z</time></trkpt><trkpt lat="45.828756" lon="11.3689741"><ele>299.0</ele><time>2026-04-19T09:10:48.037Z</time></trkpt><trkpt lat="45.8286281" lon="11.3689728"><ele>299.0</ele><time>2026-04-19T09:10:49.039Z</time></trkpt><trkpt lat="45.8284922" lon="11.3689726"><ele>299.0</ele><time>2026-04-19T09:10:50.029Z</time></trkpt><trkpt lat="45.8283461" lon="11.3689705"><ele>299.0</ele><time>2026-04-19T09:10:51.034Z</time></trkpt><trkpt lat="45.8281964" lon="11.3689668"><ele>299.33333333333337</ele><time>2026-04-19T09:10:52.028Z</time></trkpt><trkpt lat="45.8280447" lon="11.3689618"><ele>299.6666666666667</ele><time>2026-04-19T09:10:53.033Z</time></trkpt><trkpt lat="45.8278903" lon="11.3689615"><ele>300.0</ele><time>2026-04-19T09:10:54.032Z</time></trkpt><trkpt lat="45.8277401" lon="11.3689627"><ele>299.5</ele><time>2026-04-19T09:10:55.033Z</time></trkpt><trkpt lat="45.8275971" lon="11.3689654"><ele>299.0</ele><time>2026-04-19T09:10:56.036Z</time></trkpt><trkpt lat="45.8274555" lon="11.3689688"><ele>298.5</ele><time>2026-04-19T09:10:57.053Z</time></trkpt><trkpt lat="45.8273206" lon="11.3689682"><ele>298.0</ele><time>2026-04-19T09:10:58.029Z</time></trkpt><trkpt lat="45.8271848" lon="11.3689601"><ele>298.0</ele><time>2026-04-19T09:10:59.032Z</time></trkpt><trkpt lat="45.8270461" lon="11.36894"><ele>298.0</ele><time>2026-04-19T09:11:00.031Z</time></trkpt><trkpt lat="45.8269067" lon="11.3689093"><ele>298.0</ele><time>2026-04-19T09:11:01.041Z</time></trkpt><trkpt lat="45.8267695" lon="11.368868"><ele>298.0</ele><time>2026-04-19T09:11:02.027Z</time></trkpt><trkpt lat="45.826635" lon="11.3688109"><ele>306.5</ele><time>2026-04-19T09:11:03.048Z</time></trkpt><trkpt lat="45.8265091" lon="11.3687458"><ele>315.0</ele><time>2026-04-19T09:11:04.046Z</time></trkpt><trkpt lat="45.8263906" lon="11.3686736"><ele>323.5</ele><time>2026-04-19T09:11:05.048Z</time></trkpt><trkpt lat="45.8262807" lon="11.3685995"><ele>332.0</ele><time>2026-04-19T09:11:06.033Z</time></trkpt><trkpt lat="45.8261728" lon="11.3685297"><ele>332.0</ele><time>2026-04-19T09:11:07.033Z</time></trkpt><trkpt lat="45.826064" lon="11.3684597"><ele>332.0</ele><time>2026-04-19T09:11:08.033Z</time></trkpt><trkpt lat="45.8259554" lon="11.3683885"><ele>332.0</ele><time>2026-04-19T09:11:09.033Z</time></trkpt><trkpt lat="45.8258476" lon="11.368317"><ele>332.0</ele><time>2026-04-19T09:11:10.035Z</time></trkpt><trkpt lat="45.8257542" lon="11.3682068"><ele>334.6</ele><time>2026-04-19T09:11:11.031Z</time></trkpt><trkpt lat="45.825656" lon="11.3681304"><ele>337.20000000000005</ele><time>2026-04-19T09:11:12.042Z</time></trkpt><trkpt lat="45.8255585" lon="11.3680617"><ele>339.8</ele><time>2026-04-19T09:11:13.04Z</time></trkpt><trkpt lat="45.8254618" lon="11.3679956"><ele>342.4</ele><time>2026-04-19T09:11:14.038Z</time></trkpt><trkpt lat="45.8253618" lon="11.3679321"><ele>345.0</ele><time>2026-04-19T09:11:15.043Z</time></trkpt><trkpt lat="45.82526" lon="11.3678692"><ele>345.0</ele><time>2026-04-19T09:11:16.037Z</time></trkpt><trkpt lat="45.8251559" lon="11.3678053"><ele>345.0</ele><time>2026-04-19T09:11:17.041Z</time></trkpt><trkpt lat="45.8250532" lon="11.3677411"><ele>345.0</ele><time>2026-04-19T09:11:18.043Z</time></trkpt><trkpt lat="45.8249492" lon="11.3676762"><ele>345.0</ele><time>2026-04-19T09:11:19.032Z</time></trkpt><trkpt lat="45.8248428" lon="11.36761"><ele>339.75</ele><time>2026-04-19T09:11:20.03Z</time></trkpt><trkpt lat="45.8247325" lon="11.3675394"><ele>334.5</ele><time>2026-04-19T09:11:21.035Z</time></trkpt><trkpt lat="45.8246222" lon="11.3674648"><ele>329.25</ele><time>2026-04-19T09:11:22.03Z</time></trkpt><trkpt lat="45.8245053" lon="11.3673999"><ele>324.0</ele><time>2026-04-19T09:11:23.037Z</time></trkpt><trkpt lat="45.8243892" lon="11.3673286"><ele>323.25</ele><time>2026-04-19T09:11:24.045Z</time></trkpt><trkpt lat="45.8242712" lon="11.3672473"><ele>322.5</ele><time>2026-04-19T09:11:25.04Z</time></trkpt><trkpt lat="45.8241515" lon="11.3671575"><ele>321.75</ele><time>2026-04-19T09:11:26.028Z</time></trkpt><trkpt lat="45.8240307" lon="11.3670587"><ele>321.0</ele><time>2026-04-19T09:11:27.043Z</time></trkpt><trkpt lat="45.8239121" lon="11.3669556"><ele>322.75</ele><time>2026-04-19T09:11:28.023Z</time></trkpt><trkpt lat="45.8237911" lon="11.3668519"><ele>324.5</ele><time>2026-04-19T09:11:29.038Z</time></trkpt><trkpt lat="45.823672" lon="11.3667493"><ele>326.25</ele><time>2026-04-19T09:11:30.037Z</time></trkpt><trkpt lat="45.8235564" lon="11.3666492"><ele>328.0</ele><time>2026-04-19T09:11:31.03Z</time></trkpt><trkpt lat="45.8234416" lon="11.3665551"><ele>328.0</ele><time>2026-04-19T09:11:32.048Z</time></trkpt><trkpt lat="45.8233313" lon="11.3664681"><ele>328.0</ele><time>2026-04-19T09:11:33.018Z</time></trkpt><trkpt lat="45.8232196" lon="11.3663832"><ele>328.0</ele><time>2026-04-19T09:11:34.039Z</time></trkpt><trkpt lat="45.8231082" lon="11.3662998"><ele>328.0</ele><time>2026-04-19T09:11:35.042Z</time></trkpt><trkpt lat="45.8229991" lon="11.3662193"><ele>328.5</ele><time>2026-04-19T09:11:36.039Z</time></trkpt><trkpt lat="45.8228888" lon="11.3661402"><ele>329.0</ele><time>2026-04-19T09:11:37.037Z</time></trkpt><trkpt lat="45.8227728" lon="11.3660567"><ele>329.5</ele><time>2026-04-19T09:11:38.033Z</time></trkpt><trkpt lat="45.8226439" lon="11.3659687"><ele>330.0</ele><time>2026-04-19T09:11:39.042Z</time></trkpt><trkpt lat="45.8225003" lon="11.365871"><ele>330.0</ele><time>2026-04-19T09:11:40.034Z</time></trkpt><trkpt lat="45.8223498" lon="11.3657667"><ele>330.0</ele><time>2026-04-19T09:11:41.039Z</time></trkpt><trkpt lat="45.8221981" lon="11.3656677"><ele>330.0</ele><time>2026-04-19T09:11:42.043Z</time></trkpt><trkpt lat="45.8220441" lon="11.3655623"><ele>332.6666666666667</ele><time>2026-04-19T09:11:43.046Z</time></trkpt><trkpt lat="45.8218868" lon="11.3654576"><ele>335.33333333333337</ele><time>2026-04-19T09:11:44.041Z</time></trkpt><trkpt lat="45.821723" lon="11.3653463"><ele>338.0</ele><time>2026-04-19T09:11:45.049Z</time></trkpt><trkpt lat="45.8215429" lon="11.3652297"><ele>338.0</ele><time>2026-04-19T09:11:46.035Z</time></trkpt><trkpt lat="45.821358" lon="11.3651167"><ele>338.0</ele><time>2026-04-19T09:11:47.031Z</time></trkpt><trkpt lat="45.8211651" lon="11.3650316"><ele>338.0</ele><time>2026-04-19T09:11:48.026Z</time></trkpt><trkpt lat="45.820994" lon="11.3649284"><ele>339.6666666666667</ele><time>2026-04-19T09:11:49.032Z</time></trkpt><trkpt lat="45.8208282" lon="11.3648279"><ele>341.3333333333333</ele><time>2026-04-19T09:11:50.024Z</time></trkpt><trkpt lat="45.820665" lon="11.3647269"><ele>343.0</ele><time>2026-04-19T09:11:51.031Z</time></trkpt><trkpt lat="45.8205118" lon="11.3646325"><ele>343.0</ele><time>2026-04-19T09:11:52.022Z</time></trkpt><trkpt lat="45.8203617" lon="11.3645406"><ele>343.0</ele><time>2026-04-19T09:11:53.037Z</time></trkpt><trkpt lat="45.8202214" lon="11.3644516"><ele>343.0</ele><time>2026-04-19T09:11:54.033Z</time></trkpt><trkpt lat="45.8200825" lon="11.3643608"><ele>340.25</ele><time>2026-04-19T09:11:55.037Z</time></trkpt><trkpt lat="45.8199466" lon="11.3642753"><ele>337.5</ele><time>2026-04-19T09:11:56.04Z</time></trkpt><trkpt lat="45.81981" lon="11.3641964"><ele>334.75</ele><time>2026-04-19T09:11:57.028Z</time></trkpt><trkpt lat="45.8196786" lon="11.3641254"><ele>332.0</ele><time>2026-04-19T09:11:58.035Z</time></trkpt><trkpt lat="45.8195543" lon="11.36406"><ele>332.0</ele><time>2026-04-19T09:11:59.04Z</time></trkpt><trkpt lat="45.8194376" lon="11.3639988"><ele>332.0</ele><time>2026-04-19T09:12:00.046Z</time></trkpt><trkpt lat="45.8193237" lon="11.3639387"><ele>332.0</ele><time>2026-04-19T09:12:01.026Z</time></trkpt><trkpt lat="45.8192073" lon="11.3638745"><ele>332.0</ele><time>2026-04-19T09:12:02.037Z</time></trkpt><trkpt lat="45.8190945" lon="11.3638063"><ele>339.25</ele><time>2026-04-19T09:12:03.054Z</time></trkpt><trkpt lat="45.8189833" lon="11.3637329"><ele>346.5</ele><time>2026-04-19T09:12:04.05Z</time></trkpt><trkpt lat="45.8188785" lon="11.363656"><ele>353.75</ele><time>2026-04-19T09:12:05.042Z</time></trkpt><trkpt lat="45.8187752" lon="11.3635771"><ele>361.0</ele><time>2026-04-19T09:12:06.055Z</time></trkpt><trkpt lat="45.8186687" lon="11.3634994"><ele>361.0</ele><time>2026-04-19T09:12:07.041Z</time></trkpt><trkpt lat="45.8185575" lon="11.3634324"><ele>361.0</ele><time>2026-04-19T09:12:08.038Z</time></trkpt><trkpt lat="45.8184297" lon="11.3633695"><ele>361.0</ele><time>2026-04-19T09:12:09.045Z</time></trkpt><trkpt lat="45.8182919" lon="11.3633285"><ele>361.0</ele><time>2026-04-19T09:12:10.038Z</time></trkpt><trkpt lat="45.8181528" lon="11.3633079"><ele>357.25</ele><time>2026-04-19T09:12:11.044Z</time></trkpt><trkpt lat="45.8180145" lon="11.3633018"><ele>353.5</ele><time>2026-04-19T09:12:12.037Z</time></trkpt><trkpt lat="45.8178811" lon="11.36331"><ele>349.75</ele><time>2026-04-19T09:12:13.037Z</time></trkpt><trkpt lat="45.8177498" lon="11.3633065"><ele>346.0</ele><time>2026-04-19T09:12:14.023Z</time></trkpt><trkpt lat="45.8176174" lon="11.3632792"><ele>343.25</ele><time>2026-04-19T09:12:15.032Z</time></trkpt><trkpt lat="45.8174833" lon="11.3632382"><ele>340.5</ele><time>2026-04-19T09:12:16.038Z</time></trkpt><trkpt lat="45.8173479" lon="11.363198"><ele>337.75</ele><time>2026-04-19T09:12:17.041Z</time></trkpt><trkpt lat="45.8172069" lon="11.3631597"><ele>335.0</ele><time>2026-04-19T09:12:18.032Z</time></trkpt><trkpt lat="45.8170575" lon="11.3631227"><ele>335.0</ele><time>2026-04-19T09:12:19.043Z</time></trkpt><trkpt lat="45.8169263" lon="11.3630887"><ele>335.0</ele><time>2026-04-19T09:12:20.035Z</time></trkpt><trkpt lat="45.8167928" lon="11.3630554"><ele>335.0</ele><time>2026-04-19T09:12:21.047Z</time></trkpt><trkpt lat="45.8166561" lon="11.3630304"><ele>335.0</ele><time>2026-04-19T09:12:22.032Z</time></trkpt><trkpt lat="45.8165169" lon="11.3630154"><ele>333.0</ele><time>2026-04-19T09:12:23.063Z</time></trkpt><trkpt lat="45.8163887" lon="11.3630123"><ele>331.0</ele><time>2026-04-19T09:12:24.044Z</time></trkpt><trkpt lat="45.8162619" lon="11.3630213"><ele>329.0</ele><time>2026-04-19T09:12:25.038Z</time></trkpt><trkpt lat="45.8161266" lon="11.3630458"><ele>327.0</ele><time>2026-04-19T09:12:26.031Z</time></trkpt><trkpt lat="45.8159793" lon="11.3630904"><ele>325.5</ele><time>2026-04-19T09:12:27.028Z</time></trkpt><trkpt lat="45.8157719" lon="11.3631493"><ele>324.0</ele><time>2026-04-19T09:12:28.034Z</time></trkpt><trkpt lat="45.8155077" lon="11.3631687"><ele>324.0</ele><time>2026-04-19T09:12:29.033Z</time></trkpt><trkpt lat="45.8152811" lon="11.3632482"><ele>324.0</ele><time>2026-04-19T09:12:30.029Z</time></trkpt><trkpt lat="45.8150652" lon="11.3633145"><ele>324.3333333333333</ele><time>2026-04-19T09:12:31.035Z</time></trkpt><trkpt lat="45.8148578" lon="11.3633608"><ele>324.66666666666663</ele><time>2026-04-19T09:12:32.025Z</time></trkpt><trkpt lat="45.8146653" lon="11.3634175"><ele>325.0</ele><time>2026-04-19T09:12:33.029Z</time></trkpt><trkpt lat="45.8144726" lon="11.3634361"><ele>324.0</ele><time>2026-04-19T09:12:34.038Z</time></trkpt><trkpt lat="45.8142803" lon="11.3634253"><ele>323.0</ele><time>2026-04-19T09:12:35.031Z</time></trkpt><trkpt lat="45.8140921" lon="11.3633946"><ele>322.0</ele><time>2026-04-19T09:12:36.025Z</time></trkpt><trkpt lat="45.8139061" lon="11.3633383"><ele>322.0</ele><time>2026-04-19T09:12:37.032Z</time></trkpt><trkpt lat="45.8137237" lon="11.3632609"><ele>322.0</ele><time>2026-04-19T09:12:38.022Z</time></trkpt><trkpt lat="45.8135451" lon="11.3631652"><ele>322.0</ele><time>2026-04-19T09:12:39.029Z</time></trkpt><trkpt lat="45.8133688" lon="11.3630537"><ele>322.66666666666663</ele><time>2026-04-19T09:12:40.022Z</time></trkpt><trkpt lat="45.8131904" lon="11.3629527"><ele>323.3333333333333</ele><time>2026-04-19T09:12:41.023Z</time></trkpt><trkpt lat="45.8130154" lon="11.362854"><ele>324.0</ele><time>2026-04-19T09:12:42.019Z</time></trkpt><trkpt lat="45.812847" lon="11.3627578"><ele>324.0</ele><time>2026-04-19T09:12:43.049Z</time></trkpt><trkpt lat="45.8126847" lon="11.3626632"><ele>324.0</ele><time>2026-04-19T09:12:44.044Z</time></trkpt><trkpt lat="45.8125268" lon="11.3625719"><ele>324.0</ele><time>2026-04-19T09:12:45.045Z</time></trkpt><trkpt lat="45.8123705" lon="11.3624817"><ele>320.6666666666667</ele><time>2026-04-19T09:12:46.051Z</time></trkpt><trkpt lat="45.8122112" lon="11.3623943"><ele>317.33333333333337</ele><time>2026-04-19T09:12:47.043Z</time></trkpt><trkpt lat="45.8120476" lon="11.3623064"><ele>314.0</ele><time>2026-04-19T09:12:48.02Z</time></trkpt><trkpt lat="45.8118806" lon="11.362215"><ele>314.6666666666667</ele><time>2026-04-19T09:12:49.035Z</time></trkpt><trkpt lat="45.8117129" lon="11.3621217"><ele>315.3333333333333</ele><time>2026-04-19T09:12:50.05Z</time></trkpt><trkpt lat="45.8115463" lon="11.3620298"><ele>316.0</ele><time>2026-04-19T09:12:51.046Z</time></trkpt><trkpt lat="45.811381" lon="11.3619364"><ele>316.0</ele><time>2026-04-19T09:12:52.037Z</time></trkpt><trkpt lat="45.8112158" lon="11.3618424"><ele>316.0</ele><time>2026-04-19T09:12:53.04Z</time></trkpt><trkpt lat="45.811048" lon="11.3617629"><ele>316.0</ele><time>2026-04-19T09:12:54.042Z</time></trkpt><trkpt lat="45.8108823" lon="11.361681"><ele>315.3333333333333</ele><time>2026-04-19T09:12:55.049Z</time></trkpt><trkpt lat="45.8107192" lon="11.3615952"><ele>314.6666666666667</ele><time>2026-04-19T09:12:56.042Z</time></trkpt><trkpt lat="45.8105594" lon="11.361501"><ele>314.0</ele><time>2026-04-19T09:12:57.047Z</time></trkpt><trkpt lat="45.8103962" lon="11.3614224"><ele>314.0</ele><time>2026-04-19T09:12:58.058Z</time></trkpt><trkpt lat="45.8102363" lon="11.3613358"><ele>314.0</ele><time>2026-04-19T09:12:59.04Z</time></trkpt><trkpt lat="45.8100778" lon="11.3612494"><ele>314.0</ele><time>2026-04-19T09:13:00.038Z</time></trkpt><trkpt lat="45.8099213" lon="11.3611609"><ele>314.0</ele><time>2026-04-19T09:13:01.038Z</time></trkpt><trkpt lat="45.8097666" lon="11.3610722"><ele>314.0</ele><time>2026-04-19T09:13:02.039Z</time></trkpt><trkpt lat="45.8096152" lon="11.3609764"><ele>314.0</ele><time>2026-04-19T09:13:03.059Z</time></trkpt><trkpt lat="45.8094644" lon="11.3608884"><ele>313.0</ele><time>2026-04-19T09:13:04.041Z</time></trkpt><trkpt lat="45.8093128" lon="11.3608134"><ele>312.0</ele><time>2026-04-19T09:13:05.038Z</time></trkpt><trkpt lat="45.8091621" lon="11.3607377"><ele>311.0</ele><time>2026-04-19T09:13:06.029Z</time></trkpt><trkpt lat="45.8090125" lon="11.3606537"><ele>311.0</ele><time>2026-04-19T09:13:07.05Z</time></trkpt><trkpt lat="45.8088645" lon="11.3605673"><ele>311.0</ele><time>2026-04-19T09:13:08.037Z</time></trkpt><trkpt lat="45.808721" lon="11.3604789"><ele>311.0</ele><time>2026-04-19T09:13:09.037Z</time></trkpt><trkpt lat="45.8085814" lon="11.3603955"><ele>310.75</ele><time>2026-04-19T09:13:10.047Z</time></trkpt><trkpt lat="45.8084463" lon="11.3603132"><ele>310.5</ele><time>2026-04-19T09:13:11.046Z</time></trkpt><trkpt lat="45.8083127" lon="11.3602351"><ele>310.25</ele><time>2026-04-19T09:13:12.037Z</time></trkpt><trkpt lat="45.8081816" lon="11.3601568"><ele>310.0</ele><time>2026-04-19T09:13:13.048Z</time></trkpt><trkpt lat="45.8080557" lon="11.360078"><ele>310.0</ele><time>2026-04-19T09:13:14.048Z</time></trkpt><trkpt lat="45.8079332" lon="11.3599981"><ele>310.0</ele><time>2026-04-19T09:13:15.036Z</time></trkpt><trkpt lat="45.8078154" lon="11.3599214"><ele>310.0</ele><time>2026-04-19T09:13:16.032Z</time></trkpt><trkpt lat="45.8077036" lon="11.3598575"><ele>310.0</ele><time>2026-04-19T09:13:17.03Z</time></trkpt><trkpt lat="45.8075982" lon="11.3598137"><ele>309.8333333333333</ele><time>2026-04-19T09:13:18.046Z</time></trkpt><trkpt lat="45.80751" lon="11.3597745"><ele>309.66666666666663</ele><time>2026-04-19T09:13:19.036Z</time></trkpt><trkpt lat="45.807442" lon="11.3597469"><ele>309.5</ele><time>2026-04-19T09:13:20.027Z</time></trkpt><trkpt lat="45.8073764" lon="11.359654"><ele>309.3333333333333</ele><time>2026-04-19T09:13:22.034Z</time></trkpt><trkpt lat="45.8073544" lon="11.3595575"><ele>309.1666666666667</ele><time>2026-04-19T09:13:24.029Z</time></trkpt><trkpt lat="45.807312" lon="11.3594715"><ele>309.0</ele><time>2026-04-19T09:13:26.045Z</time></trkpt><trkpt lat="45.8072263" lon="11.3593834"><ele>309.3333333333333</ele><time>2026-04-19T09:13:28.031Z</time></trkpt><trkpt lat="45.8071735" lon="11.3593259"><ele>309.6666666666667</ele><time>2026-04-19T09:13:29.027Z</time></trkpt><trkpt lat="45.8071159" lon="11.3592476"><ele>310.0</ele><time>2026-04-19T09:13:30.031Z</time></trkpt><trkpt lat="45.8070396" lon="11.359178"><ele>310.33333333333337</ele><time>2026-04-19T09:13:31.034Z</time></trkpt><trkpt lat="45.8069551" lon="11.3591072"><ele>310.6666666666667</ele><time>2026-04-19T09:13:32.027Z</time></trkpt><trkpt lat="45.8068704" lon="11.3590251"><ele>311.0</ele><time>2026-04-19T09:13:33.035Z</time></trkpt><trkpt lat="45.8067793" lon="11.3589393"><ele>311.0</ele><time>2026-04-19T09:13:34.029Z</time></trkpt><trkpt lat="45.8066832" lon="11.3588601"><ele>311.0</ele><time>2026-04-19T09:13:35.044Z</time></trkpt><trkpt lat="45.8065843" lon="11.3587798"><ele>311.0</ele><time>2026-04-19T09:13:36.04Z</time></trkpt><trkpt lat="45.8064871" lon="11.3586903"><ele>311.0</ele><time>2026-04-19T09:13:37.057Z</time></trkpt><trkpt lat="45.8063831" lon="11.3586056"><ele>311.0</ele><time>2026-04-19T09:13:38.057Z</time></trkpt><trkpt lat="45.8062809" lon="11.3585137"><ele>311.0</ele><time>2026-04-19T09:13:39.018Z</time></trkpt><trkpt lat="45.8061786" lon="11.3584278"><ele>311.0</ele><time>2026-04-19T09:13:40.029Z</time></trkpt><trkpt lat="45.8060869" lon="11.3583391"><ele>311.0</ele><time>2026-04-19T09:13:41.034Z</time></trkpt><trkpt lat="45.8060103" lon="11.3582679"><ele>311.0</ele><time>2026-04-19T09:13:42.059Z</time></trkpt><trkpt lat="45.8059539" lon="11.3582112"><ele>310.8</ele><time>2026-04-19T09:13:43.044Z</time></trkpt><trkpt lat="45.8058715" lon="11.3581298"><ele>310.6</ele><time>2026-04-19T09:13:45.038Z</time></trkpt><trkpt lat="45.8058115" lon="11.3580672"><ele>310.4</ele><time>2026-04-19T09:13:47.031Z</time></trkpt><trkpt lat="45.805718" lon="11.3579781"><ele>310.2</ele><time>2026-04-19T09:13:49.029Z</time></trkpt><trkpt lat="45.8056472" lon="11.3579114"><ele>310.0</ele><time>2026-04-19T09:13:50.041Z</time></trkpt><trkpt lat="45.8055674" lon="11.3578412"><ele>309.5</ele><time>2026-04-19T09:13:51.03Z</time></trkpt><trkpt lat="45.805481" lon="11.3577542"><ele>309.0</ele><time>2026-04-19T09:13:52.032Z</time></trkpt><trkpt lat="45.8053851" lon="11.3576632"><ele>308.5</ele><time>2026-04-19T09:13:53.035Z</time></trkpt><trkpt lat="45.8052861" lon="11.3575606"><ele>308.0</ele><time>2026-04-19T09:13:54.036Z</time></trkpt><trkpt lat="45.805182" lon="11.3574631"><ele>308.25</ele><time>2026-04-19T09:13:55.036Z</time></trkpt><trkpt lat="45.8050777" lon="11.3573607"><ele>308.5</ele><time>2026-04-19T09:13:56.053Z</time></trkpt><trkpt lat="45.8049743" lon="11.3572538"><ele>308.75</ele><time>2026-04-19T09:13:57.046Z</time></trkpt><trkpt lat="45.8048685" lon="11.357146"><ele>309.0</ele><time>2026-04-19T09:13:58.031Z</time></trkpt><trkpt lat="45.8047613" lon="11.3570394"><ele>309.5</ele><time>2026-04-19T09:13:59.044Z</time></trkpt><trkpt lat="45.8046505" lon="11.3569363"><ele>310.0</ele><time>2026-04-19T09:14:00.034Z</time></trkpt><trkpt lat="45.8045411" lon="11.3568261"><ele>310.5</ele><time>2026-04-19T09:14:01.05Z</time></trkpt><trkpt lat="45.8044269" lon="11.3567255"><ele>311.0</ele><time>2026-04-19T09:14:02.03Z</time></trkpt><trkpt lat="45.8043135" lon="11.356627"><ele>311.5</ele><time>2026-04-19T09:14:03.038Z</time></trkpt><trkpt lat="45.8042033" lon="11.3565287"><ele>312.0</ele><time>2026-04-19T09:14:04.037Z</time></trkpt><trkpt lat="45.8040986" lon="11.3564277"><ele>312.5</ele><time>2026-04-19T09:14:05.024Z</time></trkpt><trkpt lat="45.804001" lon="11.3563314"><ele>313.0</ele><time>2026-04-19T09:14:06.026Z</time></trkpt><trkpt lat="45.8039066" lon="11.3562414"><ele>313.2</ele><time>2026-04-19T09:14:07.047Z</time></trkpt><trkpt lat="45.8038161" lon="11.3561527"><ele>313.4</ele><time>2026-04-19T09:14:08.034Z</time></trkpt><trkpt lat="45.8037268" lon="11.356067"><ele>313.59999999999997</ele><time>2026-04-19T09:14:09.041Z</time></trkpt><trkpt lat="45.8036381" lon="11.35599"><ele>313.8</ele><time>2026-04-19T09:14:10.041Z</time></trkpt><trkpt lat="45.8035572" lon="11.355907"><ele>314.0</ele><time>2026-04-19T09:14:11.038Z</time></trkpt><trkpt lat="45.8034706" lon="11.3558327"><ele>314.2</ele><time>2026-04-19T09:14:12.031Z</time></trkpt><trkpt lat="45.8033915" lon="11.3557427"><ele>314.4</ele><time>2026-04-19T09:14:13.028Z</time></trkpt><trkpt lat="45.8033255" lon="11.355628"><ele>314.6</ele><time>2026-04-19T09:14:14.018Z</time></trkpt><trkpt lat="45.8032949" lon="11.3554784"><ele>314.8</ele><time>2026-04-19T09:14:15.023Z</time></trkpt><trkpt lat="45.8032821" lon="11.3553207"><ele>315.0</ele><time>2026-04-19T09:14:16.023Z</time></trkpt><trkpt lat="45.8032833" lon="11.3551564"><ele>315.0</ele><time>2026-04-19T09:14:17.031Z</time></trkpt><trkpt lat="45.803319" lon="11.3549904"><ele>315.0</ele><time>2026-04-19T09:14:18.037Z</time></trkpt><trkpt lat="45.8033738" lon="11.3548191"><ele>315.0</ele><time>2026-04-19T09:14:19.042Z</time></trkpt><trkpt lat="45.8034477" lon="11.3546372"><ele>315.0</ele><time>2026-04-19T09:14:20.035Z</time></trkpt><trkpt lat="45.8035168" lon="11.354438"><ele>315.0</ele><time>2026-04-19T09:14:21.038Z</time></trkpt><trkpt lat="45.8036077" lon="11.3542301"><ele>315.0</ele><time>2026-04-19T09:14:22.044Z</time></trkpt><trkpt lat="45.803682" lon="11.3540211"><ele>315.0</ele><time>2026-04-19T09:14:23.027Z</time></trkpt><trkpt lat="45.8037404" lon="11.3538225"><ele>317.75</ele><time>2026-04-19T09:14:24.025Z</time></trkpt><trkpt lat="45.8037984" lon="11.3536273"><ele>320.5</ele><time>2026-04-19T09:14:25.031Z</time></trkpt><trkpt lat="45.8038171" lon="11.3534186"><ele>323.25</ele><time>2026-04-19T09:14:26.024Z</time></trkpt><trkpt lat="45.8038064" lon="11.3532064"><ele>326.0</ele><time>2026-04-19T09:14:27.031Z</time></trkpt><trkpt lat="45.8037562" lon="11.3530062"><ele>326.25</ele><time>2026-04-19T09:14:28.029Z</time></trkpt><trkpt lat="45.8036888" lon="11.3528292"><ele>326.5</ele><time>2026-04-19T09:14:29.055Z</time></trkpt><trkpt lat="45.8036174" lon="11.3526729"><ele>326.75</ele><time>2026-04-19T09:14:30.03Z</time></trkpt><trkpt lat="45.8035359" lon="11.3525425"><ele>327.0</ele><time>2026-04-19T09:14:31.028Z</time></trkpt><trkpt lat="45.8034514" lon="11.3524271"><ele>327.0</ele><time>2026-04-19T09:14:32.036Z</time></trkpt><trkpt lat="45.8033763" lon="11.3523015"><ele>327.0</ele><time>2026-04-19T09:14:33.031Z</time></trkpt><trkpt lat="45.803294" lon="11.352184"><ele>327.0</ele><time>2026-04-19T09:14:34.037Z</time></trkpt><trkpt lat="45.8032264" lon="11.3520525"><ele>327.0</ele><time>2026-04-19T09:14:35.03Z</time></trkpt><trkpt lat="45.8031875" lon="11.3518988"><ele>329.0</ele><time>2026-04-19T09:14:36.045Z</time></trkpt><trkpt lat="45.8031393" lon="11.3517582"><ele>331.0</ele><time>2026-04-19T09:14:37.028Z</time></trkpt><trkpt lat="45.8031112" lon="11.3516133"><ele>333.0</ele><time>2026-04-19T09:14:38.029Z</time></trkpt><trkpt lat="45.8030928" lon="11.3514744"><ele>335.0</ele><time>2026-04-19T09:14:39.029Z</time></trkpt><trkpt lat="45.8031454" lon="11.3513365"><ele>337.0</ele><time>2026-04-19T09:14:40.027Z</time></trkpt><trkpt lat="45.8031838" lon="11.3512252"><ele>338.0</ele><time>2026-04-19T09:14:41.038Z</time></trkpt><trkpt lat="45.8032252" lon="11.3511226"><ele>339.0</ele><time>2026-04-19T09:14:42.032Z</time></trkpt><trkpt lat="45.8032538" lon="11.3510106"><ele>340.0</ele><time>2026-04-19T09:14:43.048Z</time></trkpt><trkpt lat="45.803305" lon="11.3509227"><ele>341.0</ele><time>2026-04-19T09:14:44.03Z</time></trkpt><trkpt lat="45.8033644" lon="11.3508415"><ele>342.0</ele><time>2026-04-19T09:14:45.022Z</time></trkpt><trkpt lat="45.8034164" lon="11.3507594"><ele>343.0</ele><time>2026-04-19T09:14:46.017Z</time></trkpt><trkpt lat="45.8034631" lon="11.3506778"><ele>343.0</ele><time>2026-04-19T09:14:47.054Z</time></trkpt><trkpt lat="45.803497" lon="11.3505858"><ele>343.0</ele><time>2026-04-19T09:14:48.02Z</time></trkpt><trkpt lat="45.8035495" lon="11.350522"><ele>343.0</ele><time>2026-04-19T09:14:49.038Z</time></trkpt><trkpt lat="45.8036117" lon="11.3503962"><ele>343.0</ele><time>2026-04-19T09:14:51.035Z</time></trkpt><trkpt lat="45.8036733" lon="11.350289"><ele>343.0</ele><time>2026-04-19T09:14:54.037Z</time></trkpt><trkpt lat="45.8037828" lon="11.3503326"><ele>343.5</ele><time>2026-04-19T09:14:56.018Z</time></trkpt><trkpt lat="45.8038817" lon="11.3504097"><ele>344.0</ele><time>2026-04-19T09:14:58.013Z</time></trkpt><trkpt lat="45.8039999" lon="11.3504453"><ele>344.5</ele><time>2026-04-19T09:15:00.018Z</time></trkpt><trkpt lat="45.8040611" lon="11.3504725"><ele>345.0</ele><time>2026-04-19T09:15:01.032Z</time></trkpt><trkpt lat="45.8041229" lon="11.3505141"><ele>345.5</ele><time>2026-04-19T09:15:02.037Z</time></trkpt><trkpt lat="45.8041881" lon="11.3505632"><ele>346.0</ele><time>2026-04-19T09:15:03.019Z</time></trkpt><trkpt lat="45.8042557" lon="11.3506258"><ele>346.0</ele><time>2026-04-19T09:15:04.038Z</time></trkpt><trkpt lat="45.8043217" lon="11.3507132"><ele>346.0</ele><time>2026-04-19T09:15:05.024Z</time></trkpt><trkpt lat="45.8043912" lon="11.3508026"><ele>346.0</ele><time>2026-04-19T09:15:06.034Z</time></trkpt><trkpt lat="45.8044996" lon="11.350879"><ele>346.0</ele><time>2026-04-19T09:15:07.036Z</time></trkpt><trkpt lat="45.8045658" lon="11.3509721"><ele>346.0</ele><time>2026-04-19T09:15:08.025Z</time></trkpt><trkpt lat="45.804651" lon="11.3510661"><ele>347.5</ele><time>2026-04-19T09:15:09.025Z</time></trkpt><trkpt lat="45.8047501" lon="11.351146"><ele>349.0</ele><time>2026-04-19T09:15:10.027Z</time></trkpt><trkpt lat="45.8048576" lon="11.3512045"><ele>350.5</ele><time>2026-04-19T09:15:11.023Z</time></trkpt><trkpt lat="45.804954" lon="11.3512952"><ele>352.0</ele><time>2026-04-19T09:15:12.024Z</time></trkpt><trkpt lat="45.8050563" lon="11.3513697"><ele>352.25</ele><time>2026-04-19T09:15:13.038Z</time></trkpt><trkpt lat="45.8051624" lon="11.351443"><ele>352.5</ele><time>2026-04-19T09:15:14.021Z</time></trkpt><trkpt lat="45.8052706" lon="11.3515224"><ele>352.75</ele><time>2026-04-19T09:15:15.025Z</time></trkpt><trkpt lat="45.8053841" lon="11.3516062"><ele>353.0</ele><time>2026-04-19T09:15:16.025Z</time></trkpt><trkpt lat="45.805499" lon="11.3517014"><ele>353.0</ele><time>2026-04-19T09:15:17.032Z</time></trkpt><trkpt lat="45.8056156" lon="11.3517968"><ele>353.0</ele><time>2026-04-19T09:15:18.045Z</time></trkpt><trkpt lat="45.8057322" lon="11.3518986"><ele>353.0</ele><time>2026-04-19T09:15:19.042Z</time></trkpt><trkpt lat="45.8058418" lon="11.3520248"><ele>353.0</ele><time>2026-04-19T09:15:20.03Z</time></trkpt><trkpt lat="45.8059456" lon="11.3521861"><ele>359.0</ele><time>2026-04-19T09:15:21.018Z</time></trkpt><trkpt lat="45.8060498" lon="11.3523622"><ele>365.0</ele><time>2026-04-19T09:15:22.019Z</time></trkpt><trkpt lat="45.8061537" lon="11.3525413"><ele>371.0</ele><time>2026-04-19T09:15:23.041Z</time></trkpt><trkpt lat="45.8062423" lon="11.3527409"><ele>371.0</ele><time>2026-04-19T09:15:24.044Z</time></trkpt><trkpt lat="45.8063292" lon="11.3529326"><ele>371.0</ele><time>2026-04-19T09:15:25.021Z</time></trkpt><trkpt lat="45.8064145" lon="11.3531121"><ele>371.0</ele><time>2026-04-19T09:15:26.026Z</time></trkpt><trkpt lat="45.8064906" lon="11.3532831"><ele>369.5</ele><time>2026-04-19T09:15:27.032Z</time></trkpt><trkpt lat="45.8065603" lon="11.3534463"><ele>368.0</ele><time>2026-04-19T09:15:28.014Z</time></trkpt><trkpt lat="45.8066314" lon="11.3535937"><ele>366.5</ele><time>2026-04-19T09:15:29.031Z</time></trkpt><trkpt lat="45.8067035" lon="11.3537209"><ele>365.0</ele><time>2026-04-19T09:15:30.019Z</time></trkpt><trkpt lat="45.806764" lon="11.3538422"><ele>363.33333333333337</ele><time>2026-04-19T09:15:31.033Z</time></trkpt><trkpt lat="45.8068231" lon="11.3539522"><ele>361.6666666666667</ele><time>2026-04-19T09:15:32.019Z</time></trkpt><trkpt lat="45.8068771" lon="11.3540539"><ele>360.0</ele><time>2026-04-19T09:15:33.03Z</time></trkpt><trkpt lat="45.8069234" lon="11.3541505"><ele>358.3333333333333</ele><time>2026-04-19T09:15:34.021Z</time></trkpt><trkpt lat="45.8069661" lon="11.3542352"><ele>356.66666666666663</ele><time>2026-04-19T09:15:35.023Z</time></trkpt><trkpt lat="45.8070016" lon="11.3543103"><ele>355.0</ele><time>2026-04-19T09:15:36.027Z</time></trkpt><trkpt lat="45.8070576" lon="11.3544203"><ele>361.66666666666663</ele><time>2026-04-19T09:15:38.024Z</time></trkpt><trkpt lat="45.8071318" lon="11.3543881"><ele>368.3333333333333</ele><time>2026-04-19T09:15:40.017Z</time></trkpt><trkpt lat="45.8072006" lon="11.3542969"><ele>375.0</ele><time>2026-04-19T09:15:42.023Z</time></trkpt><trkpt lat="45.8072006" lon="11.3542002"><ele>381.66666666666663</ele><time>2026-04-19T09:15:43.045Z</time></trkpt><trkpt lat="45.8071673" lon="11.3540965"><ele>388.3333333333333</ele><time>2026-04-19T09:15:44.025Z</time></trkpt><trkpt lat="45.807123" lon="11.353981"><ele>395.0</ele><time>2026-04-19T09:15:45.039Z</time></trkpt><trkpt lat="45.8070762" lon="11.3538558"><ele>397.75</ele><time>2026-04-19T09:15:46.036Z</time></trkpt><trkpt lat="45.8070286" lon="11.3537179"><ele>400.5</ele><time>2026-04-19T09:15:47.035Z</time></trkpt><trkpt lat="45.806966" lon="11.3535764"><ele>403.25</ele><time>2026-04-19T09:15:48.019Z</time></trkpt><trkpt lat="45.8068962" lon="11.353417"><ele>406.0</ele><time>2026-04-19T09:15:49.043Z</time></trkpt><trkpt lat="45.8068172" lon="11.3532413"><ele>394.33333333333337</ele><time>2026-04-19T09:15:50.023Z</time></trkpt><trkpt lat="45.8067657" lon="11.3530295"><ele>382.6666666666667</ele><time>2026-04-19T09:15:51.021Z</time></trkpt><trkpt lat="45.8067386" lon="11.3527931"><ele>371.0</ele><time>2026-04-19T09:15:52.013Z</time></trkpt><trkpt lat="45.8067311" lon="11.3525477"><ele>371.0</ele><time>2026-04-19T09:15:53.015Z</time></trkpt><trkpt lat="45.8067123" lon="11.3523114"><ele>371.0</ele><time>2026-04-19T09:15:54.024Z</time></trkpt><trkpt lat="45.8066718" lon="11.3520833"><ele>371.0</ele><time>2026-04-19T09:15:55.03Z</time></trkpt><trkpt lat="45.8066357" lon="11.3518575"><ele>376.0</ele><time>2026-04-19T09:15:56.023Z</time></trkpt><trkpt lat="45.8065859" lon="11.3516421"><ele>381.0</ele><time>2026-04-19T09:15:57.025Z</time></trkpt><trkpt lat="45.806532" lon="11.3514324"><ele>386.0</ele><time>2026-04-19T09:15:58.028Z</time></trkpt><trkpt lat="45.8064746" lon="11.3512309"><ele>390.75</ele><time>2026-04-19T09:15:59.047Z</time></trkpt><trkpt lat="45.8064237" lon="11.3510355"><ele>395.5</ele><time>2026-04-19T09:16:00.029Z</time></trkpt><trkpt lat="45.8063784" lon="11.3508476"><ele>400.25</ele><time>2026-04-19T09:16:01.03Z</time></trkpt><trkpt lat="45.806339" lon="11.3506626"><ele>405.0</ele><time>2026-04-19T09:16:02.036Z</time></trkpt><trkpt lat="45.8062969" lon="11.3504848"><ele>408.25</ele><time>2026-04-19T09:16:03.043Z</time></trkpt><trkpt lat="45.8062613" lon="11.3502941"><ele>411.5</ele><time>2026-04-19T09:16:04.023Z</time></trkpt><trkpt lat="45.8062318" lon="11.350091"><ele>414.75</ele><time>2026-04-19T09:16:05.028Z</time></trkpt><trkpt lat="45.8061895" lon="11.3498778"><ele>418.0</ele><time>2026-04-19T09:16:06.042Z</time></trkpt><trkpt lat="45.8061554" lon="11.3496497"><ele>419.33333333333337</ele><time>2026-04-19T09:16:07.033Z</time></trkpt><trkpt lat="45.8061288" lon="11.3494223"><ele>420.66666666666663</ele><time>2026-04-19T09:16:08.04Z</time></trkpt><trkpt lat="45.806098" lon="11.349206"><ele>422.0</ele><time>2026-04-19T09:16:09.054Z</time></trkpt><trkpt lat="45.806076" lon="11.3489945"><ele>422.0</ele><time>2026-04-19T09:16:10.033Z</time></trkpt><trkpt lat="45.8060652" lon="11.3487822"><ele>422.0</ele><time>2026-04-19T09:16:11.042Z</time></trkpt><trkpt lat="45.8060504" lon="11.3485686"><ele>422.0</ele><time>2026-04-19T09:16:12.029Z</time></trkpt><trkpt lat="45.8060554" lon="11.3483407"><ele>422.0</ele><time>2026-04-19T09:16:13.029Z</time></trkpt><trkpt lat="45.8060646" lon="11.3481001"><ele>422.0</ele><time>2026-04-19T09:16:14.034Z</time></trkpt><trkpt lat="45.8060759" lon="11.3478541"><ele>422.0</ele><time>2026-04-19T09:16:15.037Z</time></trkpt><trkpt lat="45.8060967" lon="11.3476096"><ele>421.66666666666663</ele><time>2026-04-19T09:16:16.024Z</time></trkpt><trkpt lat="45.8061023" lon="11.3473732"><ele>421.33333333333337</ele><time>2026-04-19T09:16:17.031Z</time></trkpt><trkpt lat="45.8061157" lon="11.3471454"><ele>421.0</ele><time>2026-04-19T09:16:18.028Z</time></trkpt><trkpt lat="45.80613" lon="11.3469258"><ele>422.5</ele><time>2026-04-19T09:16:19.028Z</time></trkpt><trkpt lat="45.8061389" lon="11.3467117"><ele>424.0</ele><time>2026-04-19T09:16:20.03Z</time></trkpt><trkpt lat="45.8061427" lon="11.3465022"><ele>425.5</ele><time>2026-04-19T09:16:21.055Z</time></trkpt><trkpt lat="45.8061509" lon="11.3463036"><ele>427.0</ele><time>2026-04-19T09:16:22.024Z</time></trkpt><trkpt lat="45.8061435" lon="11.3461056"><ele>428.33333333333337</ele><time>2026-04-19T09:16:23.043Z</time></trkpt><trkpt lat="45.8061145" lon="11.3459058"><ele>429.66666666666663</ele><time>2026-04-19T09:16:24.035Z</time></trkpt><trkpt lat="45.8060746" lon="11.3456974"><ele>431.0</ele><time>2026-04-19T09:16:25.038Z</time></trkpt><trkpt lat="45.8060127" lon="11.3454899"><ele>428.0</ele><time>2026-04-19T09:16:26.04Z</time></trkpt><trkpt lat="45.8059539" lon="11.3452692"><ele>425.0</ele><time>2026-04-19T09:16:27.026Z</time></trkpt><trkpt lat="45.8058895" lon="11.3450341"><ele>422.0</ele><time>2026-04-19T09:16:28.036Z</time></trkpt><trkpt lat="45.8058226" lon="11.3447941"><ele>424.3333333333333</ele><time>2026-04-19T09:16:29.058Z</time></trkpt><trkpt lat="45.8057519" lon="11.3445603"><ele>426.66666666666663</ele><time>2026-04-19T09:16:30.048Z</time></trkpt><trkpt lat="45.8056778" lon="11.3443365"><ele>429.0</ele><time>2026-04-19T09:16:31.027Z</time></trkpt><trkpt lat="45.8056068" lon="11.3441211"><ele>429.0</ele><time>2026-04-19T09:16:32.038Z</time></trkpt><trkpt lat="45.8055268" lon="11.3439184"><ele>429.0</ele><time>2026-04-19T09:16:33.042Z</time></trkpt><trkpt lat="45.8054389" lon="11.3437217"><ele>429.0</ele><time>2026-04-19T09:16:34.04Z</time></trkpt><trkpt lat="45.8053436" lon="11.3435283"><ele>427.66666666666663</ele><time>2026-04-19T09:16:35.036Z</time></trkpt><trkpt lat="45.8052351" lon="11.3433396"><ele>426.3333333333333</ele><time>2026-04-19T09:16:36.03Z</time></trkpt><trkpt lat="45.8051199" lon="11.3431564"><ele>425.0</ele><time>2026-04-19T09:16:37.045Z</time></trkpt><trkpt lat="45.8049913" lon="11.3429982"><ele>428.0</ele><time>2026-04-19T09:16:38.03Z</time></trkpt><trkpt lat="45.8048665" lon="11.3428514"><ele>431.0</ele><time>2026-04-19T09:16:39.025Z</time></trkpt><trkpt lat="45.8047655" lon="11.342698"><ele>434.0</ele><time>2026-04-19T09:16:40.032Z</time></trkpt><trkpt lat="45.8046948" lon="11.3425341"><ele>437.0</ele><time>2026-04-19T09:16:41.028Z</time></trkpt><trkpt lat="45.8046407" lon="11.3423605"><ele>438.0</ele><time>2026-04-19T09:16:42.035Z</time></trkpt><trkpt lat="45.8046204" lon="11.3421637"><ele>439.0</ele><time>2026-04-19T09:16:43.037Z</time></trkpt><trkpt lat="45.8046332" lon="11.3419422"><ele>440.0</ele><time>2026-04-19T09:16:44.028Z</time></trkpt><trkpt lat="45.804687" lon="11.3417071"><ele>440.0</ele><time>2026-04-19T09:16:45.027Z</time></trkpt><trkpt lat="45.8047628" lon="11.3414655"><ele>440.0</ele><time>2026-04-19T09:16:46.036Z</time></trkpt><trkpt lat="45.8048595" lon="11.3412103"><ele>440.0</ele><time>2026-04-19T09:16:47.037Z</time></trkpt><trkpt lat="45.8049407" lon="11.3409297"><ele>442.3333333333333</ele><time>2026-04-19T09:16:48.024Z</time></trkpt><trkpt lat="45.8050033" lon="11.3406417"><ele>444.66666666666663</ele><time>2026-04-19T09:16:49.035Z</time></trkpt><trkpt lat="45.8050687" lon="11.3403487"><ele>447.0</ele><time>2026-04-19T09:16:50.041Z</time></trkpt><trkpt lat="45.8051347" lon="11.3400642"><ele>451.0</ele><time>2026-04-19T09:16:51.026Z</time></trkpt><trkpt lat="45.8052089" lon="11.3397825"><ele>455.0</ele><time>2026-04-19T09:16:52.02Z</time></trkpt><trkpt lat="45.8052734" lon="11.3395171"><ele>459.0</ele><time>2026-04-19T09:16:53.029Z</time></trkpt><trkpt lat="45.8055799" lon="11.338094"><ele>453.0</ele><time>2026-04-19T09:16:59.068Z</time></trkpt><trkpt lat="45.8056458" lon="11.3378727"><ele>447.0</ele><time>2026-04-19T09:17:00.031Z</time></trkpt><trkpt lat="45.8057305" lon="11.3376436"><ele>441.0</ele><time>2026-04-19T09:17:01.016Z</time></trkpt><trkpt lat="45.8058366" lon="11.3375369"><ele>441.0</ele><time>2026-04-19T09:17:02.013Z</time></trkpt><trkpt lat="45.8059828" lon="11.3375077"><ele>441.0</ele><time>2026-04-19T09:17:03.016Z</time></trkpt><trkpt lat="45.8061032" lon="11.3374225"><ele>441.0</ele><time>2026-04-19T09:17:04.046Z</time></trkpt><trkpt lat="45.8062387" lon="11.3373908"><ele>441.0</ele><time>2026-04-19T09:17:05.034Z</time></trkpt><trkpt lat="45.8063684" lon="11.3373655"><ele>439.0</ele><time>2026-04-19T09:17:06.029Z</time></trkpt><trkpt lat="45.8065282" lon="11.3374132"><ele>437.0</ele><time>2026-04-19T09:17:07.017Z</time></trkpt><trkpt lat="45.8066542" lon="11.3375052"><ele>435.0</ele><time>2026-04-19T09:17:08.033Z</time></trkpt><trkpt lat="45.8067699" lon="11.3375875"><ele>433.0</ele><time>2026-04-19T09:17:09.027Z</time></trkpt><trkpt lat="45.806911" lon="11.3376414"><ele>433.0</ele><time>2026-04-19T09:17:10.021Z</time></trkpt><trkpt lat="45.8070385" lon="11.3376049"><ele>433.0</ele><time>2026-04-19T09:17:11.039Z</time></trkpt><trkpt lat="45.8071474" lon="11.3375222"><ele>433.0</ele><time>2026-04-19T09:17:12.033Z</time></trkpt><trkpt lat="45.8072689" lon="11.3373835"><ele>433.0</ele><time>2026-04-19T09:17:13.023Z</time></trkpt><trkpt lat="45.8073877" lon="11.337218"><ele>427.6666666666667</ele><time>2026-04-19T09:17:14.035Z</time></trkpt><trkpt lat="45.8075089" lon="11.3370778"><ele>422.33333333333337</ele><time>2026-04-19T09:17:15.033Z</time></trkpt><trkpt lat="45.8076469" lon="11.3369246"><ele>417.0</ele><time>2026-04-19T09:17:16.028Z</time></trkpt><trkpt lat="45.8078094" lon="11.3368305"><ele>417.0</ele><time>2026-04-19T09:17:17.028Z</time></trkpt><trkpt lat="45.8079727" lon="11.3367538"><ele>417.0</ele><time>2026-04-19T09:17:18.048Z</time></trkpt><trkpt lat="45.8081343" lon="11.3366957"><ele>417.0</ele><time>2026-04-19T09:17:19.02Z</time></trkpt><trkpt lat="45.8082937" lon="11.336638"><ele>417.0</ele><time>2026-04-19T09:17:20.025Z</time></trkpt><trkpt lat="45.8084259" lon="11.3365265"><ele>417.0</ele><time>2026-04-19T09:17:21.032Z</time></trkpt><trkpt lat="45.8085481" lon="11.336389"><ele>417.0</ele><time>2026-04-19T09:17:22.022Z</time></trkpt><trkpt lat="45.8086302" lon="11.336201"><ele>416.75</ele><time>2026-04-19T09:17:23.052Z</time></trkpt><trkpt lat="45.8086969" lon="11.3360057"><ele>416.5</ele><time>2026-04-19T09:17:24.046Z</time></trkpt><trkpt lat="45.8087601" lon="11.335813"><ele>416.25</ele><time>2026-04-19T09:17:25.024Z</time></trkpt><trkpt lat="45.8088427" lon="11.3356438"><ele>416.0</ele><time>2026-04-19T09:17:26.037Z</time></trkpt><trkpt lat="45.8089588" lon="11.3355183"><ele>417.25</ele><time>2026-04-19T09:17:27.022Z</time></trkpt><trkpt lat="45.8090848" lon="11.3354298"><ele>418.5</ele><time>2026-04-19T09:17:28.03Z</time></trkpt><trkpt lat="45.8092054" lon="11.3353747"><ele>419.75</ele><time>2026-04-19T09:17:29.027Z</time></trkpt><trkpt lat="45.8093082" lon="11.3353318"><ele>421.0</ele><time>2026-04-19T09:17:30.036Z</time></trkpt><trkpt lat="45.8093893" lon="11.3352791"><ele>421.0</ele><time>2026-04-19T09:17:31.034Z</time></trkpt><trkpt lat="45.8094448" lon="11.3352096"><ele>421.0</ele><time>2026-04-19T09:17:32.02Z</time></trkpt><trkpt lat="45.8094635" lon="11.3351037"><ele>421.0</ele><time>2026-04-19T09:17:33.036Z</time></trkpt><trkpt lat="45.8094229" lon="11.3349952"><ele>421.0</ele><time>2026-04-19T09:17:34.038Z</time></trkpt><trkpt lat="45.8093206" lon="11.3349244"><ele>421.0</ele><time>2026-04-19T09:17:35.038Z</time></trkpt><trkpt lat="45.8092044" lon="11.334931"><ele>417.25</ele><time>2026-04-19T09:17:36.022Z</time></trkpt><trkpt lat="45.809086" lon="11.334985"><ele>413.5</ele><time>2026-04-19T09:17:37.039Z</time></trkpt><trkpt lat="45.8089651" lon="11.3350074"><ele>409.75</ele><time>2026-04-19T09:17:38.025Z</time></trkpt><trkpt lat="45.8088375" lon="11.3349748"><ele>406.0</ele><time>2026-04-19T09:17:39.026Z</time></trkpt><trkpt lat="45.8087076" lon="11.3348861"><ele>406.0</ele><time>2026-04-19T09:17:40.03Z</time></trkpt><trkpt lat="45.8085987" lon="11.3347409"><ele>406.0</ele><time>2026-04-19T09:17:41.026Z</time></trkpt><trkpt lat="45.8085277" lon="11.3345254"><ele>406.0</ele><time>2026-04-19T09:17:42.017Z</time></trkpt><trkpt lat="45.8084519" lon="11.3342858"><ele>402.33333333333337</ele><time>2026-04-19T09:17:43.028Z</time></trkpt><trkpt lat="45.8083783" lon="11.3340386"><ele>398.66666666666663</ele><time>2026-04-19T09:17:44.024Z</time></trkpt><trkpt lat="45.8082946" lon="11.3337951"><ele>395.0</ele><time>2026-04-19T09:17:45.029Z</time></trkpt><trkpt lat="45.8082057" lon="11.3335575"><ele>394.66666666666663</ele><time>2026-04-19T09:17:46.026Z</time></trkpt><trkpt lat="45.8081205" lon="11.3333297"><ele>394.33333333333337</ele><time>2026-04-19T09:17:47.028Z</time></trkpt><trkpt lat="45.8080401" lon="11.333105"><ele>394.0</ele><time>2026-04-19T09:17:48.023Z</time></trkpt><trkpt lat="45.8079578" lon="11.3328872"><ele>395.33333333333337</ele><time>2026-04-19T09:17:49.023Z</time></trkpt><trkpt lat="45.8078677" lon="11.3326847"><ele>396.66666666666663</ele><time>2026-04-19T09:17:50.034Z</time></trkpt><trkpt lat="45.8077813" lon="11.3324781"><ele>398.0</ele><time>2026-04-19T09:17:51.042Z</time></trkpt><trkpt lat="45.8076584" lon="11.3323132"><ele>401.0</ele><time>2026-04-19T09:17:52.031Z</time></trkpt><trkpt lat="45.8075594" lon="11.3321328"><ele>404.0</ele><time>2026-04-19T09:17:53.025Z</time></trkpt><trkpt lat="45.8074734" lon="11.331947"><ele>407.0</ele><time>2026-04-19T09:17:54.031Z</time></trkpt><trkpt lat="45.8073833" lon="11.3317687"><ele>407.0</ele><time>2026-04-19T09:17:55.029Z</time></trkpt><trkpt lat="45.8073353" lon="11.3315597"><ele>407.0</ele><time>2026-04-19T09:17:56.029Z</time></trkpt><trkpt lat="45.8073226" lon="11.3313347"><ele>407.0</ele><time>2026-04-19T09:17:57.031Z</time></trkpt><trkpt lat="45.8073388" lon="11.3311065"><ele>409.0</ele><time>2026-04-19T09:17:58.03Z</time></trkpt><trkpt lat="45.8073789" lon="11.3308812"><ele>411.0</ele><time>2026-04-19T09:17:59.028Z</time></trkpt><trkpt lat="45.8074208" lon="11.3306717"><ele>413.0</ele><time>2026-04-19T09:18:00.044Z</time></trkpt><trkpt lat="45.8074832" lon="11.3304844"><ele>414.5</ele><time>2026-04-19T09:18:01.034Z</time></trkpt><trkpt lat="45.8075701" lon="11.3303253"><ele>416.0</ele><time>2026-04-19T09:18:02.041Z</time></trkpt><trkpt lat="45.8076379" lon="11.3301547"><ele>417.5</ele><time>2026-04-19T09:18:03.035Z</time></trkpt><trkpt lat="45.8076799" lon="11.329989"><ele>419.0</ele><time>2026-04-19T09:18:04.033Z</time></trkpt><trkpt lat="45.8077177" lon="11.3297995"><ele>435.0</ele><time>2026-04-19T09:18:05.038Z</time></trkpt><trkpt lat="45.8076804" lon="11.3295661"><ele>451.0</ele><time>2026-04-19T09:18:06.045Z</time></trkpt><trkpt lat="45.8076691" lon="11.3292656"><ele>467.0</ele><time>2026-04-19T09:18:07.04Z</time></trkpt><trkpt lat="45.8076609" lon="11.3289715"><ele>450.3333333333333</ele><time>2026-04-19T09:18:08.044Z</time></trkpt><trkpt lat="45.8076374" lon="11.3286963"><ele>433.66666666666663</ele><time>2026-04-19T09:18:09.03Z</time></trkpt><trkpt lat="45.8076035" lon="11.3284265"><ele>417.0</ele><time>2026-04-19T09:18:10.032Z</time></trkpt><trkpt lat="45.8075643" lon="11.3281539"><ele>419.33333333333337</ele><time>2026-04-19T09:18:11.035Z</time></trkpt><trkpt lat="45.8075626" lon="11.3278835"><ele>421.6666666666667</ele><time>2026-04-19T09:18:12.049Z</time></trkpt><trkpt lat="45.8075376" lon="11.3276123"><ele>424.0</ele><time>2026-04-19T09:18:13.018Z</time></trkpt><trkpt lat="45.8075179" lon="11.3273393"><ele>428.6666666666667</ele><time>2026-04-19T09:18:14.028Z</time></trkpt><trkpt lat="45.8074835" lon="11.3270791"><ele>433.33333333333337</ele><time>2026-04-19T09:18:15.03Z</time></trkpt><trkpt lat="45.8074457" lon="11.3268207"><ele>438.0</ele><time>2026-04-19T09:18:16.041Z</time></trkpt><trkpt lat="45.8073854" lon="11.3265752"><ele>444.66666666666663</ele><time>2026-04-19T09:18:17.03Z</time></trkpt><trkpt lat="45.8072911" lon="11.3263494"><ele>451.3333333333333</ele><time>2026-04-19T09:18:18.027Z</time></trkpt><trkpt lat="45.8071807" lon="11.3261444"><ele>458.0</ele><time>2026-04-19T09:18:19.028Z</time></trkpt><trkpt lat="45.8070613" lon="11.3259639"><ele>458.0</ele><time>2026-04-19T09:18:20.028Z</time></trkpt><trkpt lat="45.8069534" lon="11.3257861"><ele>458.0</ele><time>2026-04-19T09:18:21.023Z</time></trkpt><trkpt lat="45.8068595" lon="11.3256062"><ele>458.0</ele><time>2026-04-19T09:18:22.021Z</time></trkpt><trkpt lat="45.8067863" lon="11.3254118"><ele>456.0</ele><time>2026-04-19T09:18:23.025Z</time></trkpt><trkpt lat="45.8067574" lon="11.3251939"><ele>454.0</ele><time>2026-04-19T09:18:24.027Z</time></trkpt><trkpt lat="45.806731" lon="11.3249969"><ele>452.0</ele><time>2026-04-19T09:18:25.031Z</time></trkpt><trkpt lat="45.8067172" lon="11.3248011"><ele>450.0</ele><time>2026-04-19T09:18:26.033Z</time></trkpt><trkpt lat="45.8067057" lon="11.3246044"><ele>448.5</ele><time>2026-04-19T09:18:27.042Z</time></trkpt><trkpt lat="45.8067124" lon="11.3244116"><ele>447.0</ele><time>2026-04-19T09:18:28.037Z</time></trkpt><trkpt lat="45.8067107" lon="11.3242466"><ele>445.5</ele><time>2026-04-19T09:18:29.058Z</time></trkpt><trkpt lat="45.8066905" lon="11.3240981"><ele>444.0</ele><time>2026-04-19T09:18:30.059Z</time></trkpt><trkpt lat="45.8066571" lon="11.323966"><ele>444.0</ele><time>2026-04-19T09:18:31.023Z</time></trkpt><trkpt lat="45.806627" lon="11.3238537"><ele>444.0</ele><time>2026-04-19T09:18:32.03Z</time></trkpt><trkpt lat="45.8066401" lon="11.3237465"><ele>444.0</ele><time>2026-04-19T09:18:33.04Z</time></trkpt><trkpt lat="45.8066932" lon="11.3236146"><ele>444.0</ele><time>2026-04-19T09:18:34.026Z</time></trkpt><trkpt lat="45.8067958" lon="11.3234431"><ele>444.0</ele><time>2026-04-19T09:18:35.036Z</time></trkpt><trkpt lat="45.8069124" lon="11.3233255"><ele>444.0</ele><time>2026-04-19T09:18:36.042Z</time></trkpt><trkpt lat="45.8070693" lon="11.3232113"><ele>444.0</ele><time>2026-04-19T09:18:37.026Z</time></trkpt><trkpt lat="45.8072288" lon="11.3230942"><ele>444.0</ele><time>2026-04-19T09:18:38.037Z</time></trkpt><trkpt lat="45.8073751" lon="11.3230031"><ele>433.33333333333337</ele><time>2026-04-19T09:18:39.025Z</time></trkpt><trkpt lat="45.8075387" lon="11.32293"><ele>422.6666666666667</ele><time>2026-04-19T09:18:40.029Z</time></trkpt><trkpt lat="45.8077208" lon="11.3228713"><ele>412.0</ele><time>2026-04-19T09:18:41.03Z</time></trkpt><trkpt lat="45.8079309" lon="11.3228409"><ele>412.0</ele><time>2026-04-19T09:18:42.024Z</time></trkpt><trkpt lat="45.8081469" lon="11.3228137"><ele>412.0</ele><time>2026-04-19T09:18:43.029Z</time></trkpt><trkpt lat="45.8083555" lon="11.3227696"><ele>412.0</ele><time>2026-04-19T09:18:44.018Z</time></trkpt><trkpt lat="45.8085616" lon="11.3227212"><ele>410.6666666666667</ele><time>2026-04-19T09:18:45.027Z</time></trkpt><trkpt lat="45.8087674" lon="11.3226884"><ele>409.33333333333337</ele><time>2026-04-19T09:18:46.039Z</time></trkpt><trkpt lat="45.8089857" lon="11.3226841"><ele>408.0</ele><time>2026-04-19T09:18:47.037Z</time></trkpt><trkpt lat="45.8092227" lon="11.3226848"><ele>408.0</ele><time>2026-04-19T09:18:48.026Z</time></trkpt><trkpt lat="45.8094548" lon="11.3227075"><ele>408.0</ele><time>2026-04-19T09:18:49.035Z</time></trkpt><trkpt lat="45.8096776" lon="11.3227119"><ele>408.0</ele><time>2026-04-19T09:18:50.042Z</time></trkpt><trkpt lat="45.8098803" lon="11.3226732"><ele>408.0</ele><time>2026-04-19T09:18:51.041Z</time></trkpt><trkpt lat="45.8100778" lon="11.3226529"><ele>408.0</ele><time>2026-04-19T09:18:52.045Z</time></trkpt><trkpt lat="45.8102724" lon="11.3225796"><ele>409.0</ele><time>2026-04-19T09:18:53.035Z</time></trkpt><trkpt lat="45.8104727" lon="11.3224718"><ele>410.0</ele><time>2026-04-19T09:18:54.035Z</time></trkpt><trkpt lat="45.8106439" lon="11.3223395"><ele>411.0</ele><time>2026-04-19T09:18:55.029Z</time></trkpt><trkpt lat="45.8108111" lon="11.3221782"><ele>409.0</ele><time>2026-04-19T09:18:56.034Z</time></trkpt><trkpt lat="45.8109831" lon="11.3220498"><ele>407.0</ele><time>2026-04-19T09:18:57.024Z</time></trkpt><trkpt lat="45.8111533" lon="11.3219186"><ele>405.0</ele><time>2026-04-19T09:18:58.039Z</time></trkpt><trkpt lat="45.8113034" lon="11.3217569"><ele>407.66666666666663</ele><time>2026-04-19T09:18:59.024Z</time></trkpt><trkpt lat="45.8114474" lon="11.3215868"><ele>410.3333333333333</ele><time>2026-04-19T09:19:00.036Z</time></trkpt><trkpt lat="45.8115708" lon="11.3213994"><ele>413.0</ele><time>2026-04-19T09:19:01.048Z</time></trkpt><trkpt lat="45.8116731" lon="11.3211683"><ele>413.0</ele><time>2026-04-19T09:19:02.028Z</time></trkpt><trkpt lat="45.8117686" lon="11.3209195"><ele>413.0</ele><time>2026-04-19T09:19:03.04Z</time></trkpt><trkpt lat="45.8118633" lon="11.3206666"><ele>413.0</ele><time>2026-04-19T09:19:04.023Z</time></trkpt><trkpt lat="45.8119514" lon="11.3204248"><ele>413.0</ele><time>2026-04-19T09:19:05.038Z</time></trkpt><trkpt lat="45.812019" lon="11.3201843"><ele>413.0</ele><time>2026-04-19T09:19:06.024Z</time></trkpt><trkpt lat="45.8120711" lon="11.3199481"><ele>413.0</ele><time>2026-04-19T09:19:07.029Z</time></trkpt><trkpt lat="45.8121186" lon="11.3197335"><ele>413.0</ele><time>2026-04-19T09:19:08.031Z</time></trkpt><trkpt lat="45.8121757" lon="11.3195544"><ele>413.0</ele><time>2026-04-19T09:19:09.04Z</time></trkpt><trkpt lat="45.8122469" lon="11.3194202"><ele>413.0</ele><time>2026-04-19T09:19:10.04Z</time></trkpt><trkpt lat="45.8123508" lon="11.3193468"><ele>413.0</ele><time>2026-04-19T09:19:11.035Z</time></trkpt><trkpt lat="45.8124765" lon="11.3193046"><ele>413.0</ele><time>2026-04-19T09:19:12.017Z</time></trkpt><trkpt lat="45.8126336" lon="11.3192877"><ele>413.0</ele><time>2026-04-19T09:19:13.038Z</time></trkpt><trkpt lat="45.8128099" lon="11.3192527"><ele>413.0</ele><time>2026-04-19T09:19:14.032Z</time></trkpt><trkpt lat="45.8130033" lon="11.3191892"><ele>418.0</ele><time>2026-04-19T09:19:15.051Z</time></trkpt><trkpt lat="45.8132007" lon="11.3190699"><ele>423.0</ele><time>2026-04-19T09:19:16.03Z</time></trkpt><trkpt lat="45.8133957" lon="11.3189372"><ele>428.0</ele><time>2026-04-19T09:19:17.022Z</time></trkpt><trkpt lat="45.8135797" lon="11.3187872"><ele>412.0</ele><time>2026-04-19T09:19:18.015Z</time></trkpt><trkpt lat="45.8083555" lon="11.3227696"><ele>410.6666666666667</ele><time>2026-04-19T09:18:44.018Z</time></trkpt><trkpt lat="45.8085616" lon="11.3227212"><ele>409.33333333333337</ele><time>2026-04-19T09:18:45.027Z</time></trkpt><trkpt lat="45.8087674" lon="11.3226884"><ele>408.0</ele><time>2026-04-19T09:18:46.039Z</time></trkpt><trkpt lat="45.8089857" lon="11.3226841"><ele>408.0</ele><time>2026-04-19T09:18:47.037Z</time></trkpt><trkpt lat="45.8092227" lon="11.3226848"><ele>408.0</ele><time>2026-04-19T09:18:48.026Z</time></trkpt><trkpt lat="45.8094548" lon="11.3227075"><ele>408.0</ele><time>2026-04-19T09:18:49.035Z</time></trkpt><trkpt lat="45.8096776" lon="11.3227119"><ele>408.0</ele><time>2026-04-19T09:18:50.042Z</time></trkpt><trkpt lat="45.8098803" lon="11.3226732"><ele>408.0</ele><time>2026-04-19T09:18:51.041Z</time></trkpt><trkpt lat="45.8100778" lon="11.3226529"><ele>409.0</ele><time>2026-04-19T09:18:52.045Z</time></trkpt><trkpt lat="45.8102724" lon="11.3225796"><ele>410.0</ele><time>2026-04-19T09:18:53.035Z</time></trkpt><trkpt lat="45.8104727" lon="11.3224718"><ele>411.0</ele><time>2026-04-19T09:18:54.035Z</time></trkpt><trkpt lat="45.8106439" lon="11.3223395"><ele>409.0</ele><time>2026-04-19T09:18:55.029Z</time></trkpt><trkpt lat="45.8108111" lon="11.3221782"><ele>407.0</ele><time>2026-04-19T09:18:56.034Z</time></trkpt><trkpt lat="45.8109831" lon="11.3220498"><ele>405.0</ele><time>2026-04-19T09:18:57.024Z</time></trkpt><trkpt lat="45.8111533" lon="11.3219186"><ele>409.33333333333337</ele><time>2026-04-19T09:18:58.039Z</time></trkpt><trkpt lat="45.8113034" lon="11.3217569"><ele>413.6666666666667</ele><time>2026-04-19T09:18:59.024Z</time></trkpt><trkpt lat="45.8114474" lon="11.3215868"><ele>418.0</ele><time>2026-04-19T09:19:00.036Z</time></trkpt><trkpt lat="45.8115708" lon="11.3213994"><ele>416.33333333333337</ele><time>2026-04-19T09:19:01.048Z</time></trkpt><trkpt lat="45.8116731" lon="11.3211683"><ele>414.66666666666663</ele><time>2026-04-19T09:19:02.028Z</time></trkpt><trkpt lat="45.8117686" lon="11.3209195"><ele>413.0</ele><time>2026-04-19T09:19:03.04Z</time></trkpt><trkpt lat="45.8118633" lon="11.3206666"><ele>421.0</ele><time>2026-04-19T09:19:04.023Z</time></trkpt><trkpt lat="45.8119514" lon="11.3204248"><ele>429.0</ele><time>2026-04-19T09:19:05.038Z</time></trkpt><trkpt lat="45.812019" lon="11.3201843"><ele>437.0</ele><time>2026-04-19T09:19:06.024Z</time></trkpt><trkpt lat="45.8120711" lon="11.3199481"><ele>431.0</ele><time>2026-04-19T09:19:07.029Z</time></trkpt><trkpt lat="45.8121186" lon="11.3197335"><ele>425.0</ele><time>2026-04-19T09:19:08.031Z</time></trkpt><trkpt lat="45.8121757" lon="11.3195544"><ele>419.0</ele><time>2026-04-19T09:19:09.04Z</time></trkpt><trkpt lat="45.8122469" lon="11.3194202"><ele>413.0</ele><time>2026-04-19T09:19:10.04Z</time></trkpt><trkpt lat="45.8123508" lon="11.3193468"><ele>413.0</ele><time>2026-04-19T09:19:11.035Z</time></trkpt><trkpt lat="45.8124765" lon="11.3193046"><ele>413.0</ele><time>2026-04-19T09:19:12.017Z</time></trkpt><trkpt lat="45.8126336" lon="11.3192877"><ele>413.0</ele><time>2026-04-19T09:19:13.038Z</time></trkpt><trkpt lat="45.8128099" lon="11.3192527"><ele>418.0</ele><time>2026-04-19T09:19:14.032Z</time></trkpt><trkpt lat="45.8130033" lon="11.3191892"><ele>423.0</ele><time>2026-04-19T09:19:15.051Z</time></trkpt><trkpt lat="45.8132007" lon="11.3190699"><ele>428.0</ele><time>2026-04-19T09:19:16.03Z</time></trkpt><trkpt lat="45.8133957" lon="11.3189372"><ele>429.0</ele><time>2026-04-19T09:19:17.022Z</time></trkpt><trkpt lat="45.8135797" lon="11.3187872"><ele>430.0</ele><time>2026-04-19T09:19:18.015Z</time></trkpt><trkpt lat="45.8137556" lon="11.3186301"><ele>431.0</ele><time>2026-04-19T09:19:19.026Z</time></trkpt><trkpt lat="45.8139283" lon="11.3184746"><ele>431.0</ele><time>2026-04-19T09:19:20.032Z</time></trkpt><trkpt lat="45.8141015" lon="11.3183267"><ele>431.0</ele><time>2026-04-19T09:19:21.027Z</time></trkpt><trkpt lat="45.8142704" lon="11.3181775"><ele>431.0</ele><time>2026-04-19T09:19:22.031Z</time></trkpt><trkpt lat="45.8144333" lon="11.3180224"><ele>432.0</ele><time>2026-04-19T09:19:23.028Z</time></trkpt><trkpt lat="45.8145897" lon="11.3178643"><ele>433.0</ele><time>2026-04-19T09:19:24.027Z</time></trkpt><trkpt lat="45.8147349" lon="11.317694"><ele>434.0</ele><time>2026-04-19T09:19:25.035Z</time></trkpt><trkpt lat="45.8148887" lon="11.3175404"><ele>434.0</ele><time>2026-04-19T09:19:26.023Z</time></trkpt><trkpt lat="45.8150102" lon="11.3173383"><ele>434.0</ele><time>2026-04-19T09:19:27.026Z</time></trkpt><trkpt lat="45.8151263" lon="11.3171296"><ele>434.0</ele><time>2026-04-19T09:19:28.029Z</time></trkpt><trkpt lat="45.8152119" lon="11.3168973"><ele>435.66666666666663</ele><time>2026-04-19T09:19:29.034Z</time></trkpt><trkpt lat="45.8152893" lon="11.3166715"><ele>437.33333333333337</ele><time>2026-04-19T09:19:30.023Z</time></trkpt><trkpt lat="45.8153629" lon="11.3164538"><ele>439.0</ele><time>2026-04-19T09:19:31.032Z</time></trkpt><trkpt lat="45.8154304" lon="11.3162471"><ele>439.0</ele><time>2026-04-19T09:19:32.033Z</time></trkpt><trkpt lat="45.8154998" lon="11.3160594"><ele>439.0</ele><time>2026-04-19T09:19:33.055Z</time></trkpt><trkpt lat="45.8155833" lon="11.3158948"><ele>439.0</ele><time>2026-04-19T09:19:34.034Z</time></trkpt><trkpt lat="45.815694" lon="11.31576"><ele>439.0</ele><time>2026-04-19T09:19:35.046Z</time></trkpt><trkpt lat="45.815842" lon="11.3156736"><ele>446.0</ele><time>2026-04-19T09:19:36.032Z</time></trkpt><trkpt lat="45.8159893" lon="11.3155746"><ele>453.0</ele><time>2026-04-19T09:19:37.03Z</time></trkpt><trkpt lat="45.8161111" lon="11.3154159"><ele>460.0</ele><time>2026-04-19T09:19:38.03Z</time></trkpt><trkpt lat="45.8162098" lon="11.315216"><ele>460.0</ele><time>2026-04-19T09:19:39.029Z</time></trkpt><trkpt lat="45.8162919" lon="11.3149949"><ele>460.0</ele><time>2026-04-19T09:19:40.019Z</time></trkpt><trkpt lat="45.8163615" lon="11.3147724"><ele>460.0</ele><time>2026-04-19T09:19:41.035Z</time></trkpt><trkpt lat="45.8164184" lon="11.3145466"><ele>456.33333333333337</ele><time>2026-04-19T09:19:42.016Z</time></trkpt><trkpt lat="45.81642" lon="11.3142861"><ele>452.66666666666663</ele><time>2026-04-19T09:19:43.032Z</time></trkpt><trkpt lat="45.8164405" lon="11.3140511"><ele>449.0</ele><time>2026-04-19T09:19:44.025Z</time></trkpt><trkpt lat="45.8164646" lon="11.3138225"><ele>446.25</ele><time>2026-04-19T09:19:45.049Z</time></trkpt><trkpt lat="45.8164927" lon="11.3136063"><ele>443.5</ele><time>2026-04-19T09:19:46.025Z</time></trkpt><trkpt lat="45.8165204" lon="11.3134118"><ele>440.75</ele><time>2026-04-19T09:19:47.035Z</time></trkpt><trkpt lat="45.8165593" lon="11.3132412"><ele>438.0</ele><time>2026-04-19T09:19:48.057Z</time></trkpt><trkpt lat="45.8166288" lon="11.3131007"><ele>435.79999999999995</ele><time>2026-04-19T09:19:49.036Z</time></trkpt><trkpt lat="45.8167011" lon="11.3129852"><ele>433.59999999999997</ele><time>2026-04-19T09:19:50.035Z</time></trkpt><trkpt lat="45.8167601" lon="11.3128567"><ele>431.40000000000003</ele><time>2026-04-19T09:19:51.038Z</time></trkpt><trkpt lat="45.8167772" lon="11.3127125"><ele>429.20000000000005</ele><time>2026-04-19T09:19:52.037Z</time></trkpt><trkpt lat="45.8167738" lon="11.3125721"><ele>427.0</ele><time>2026-04-19T09:19:53.02Z</time></trkpt><trkpt lat="45.8167434" lon="11.3124348"><ele>427.0</ele><time>2026-04-19T09:19:54.038Z</time></trkpt><trkpt lat="45.8166868" lon="11.3123058"><ele>427.00000000000006</ele><time>2026-04-19T09:19:55.037Z</time></trkpt><trkpt lat="45.8166334" lon="11.3121842"><ele>427.00000000000006</ele><time>2026-04-19T09:19:56.024Z</time></trkpt><trkpt lat="45.8165986" lon="11.3120634"><ele>427.0</ele><time>2026-04-19T09:19:57.037Z</time></trkpt><trkpt lat="45.8165924" lon="11.3119326"><ele>427.0</ele><time>2026-04-19T09:19:58.035Z</time></trkpt><trkpt lat="45.8165806" lon="11.3118018"><ele>426.75</ele><time>2026-04-19T09:19:59.024Z</time></trkpt><trkpt lat="45.816572" lon="11.3116622"><ele>426.5</ele><time>2026-04-19T09:20:00.043Z</time></trkpt><trkpt lat="45.8165641" lon="11.3115136"><ele>426.25</ele><time>2026-04-19T09:20:01.045Z</time></trkpt><trkpt lat="45.8166382" lon="11.31122"><ele>426.0</ele><time>2026-04-19T09:20:03.036Z</time></trkpt><trkpt lat="45.8166934" lon="11.3110789"><ele>426.4</ele><time>2026-04-19T09:20:04.05Z</time></trkpt><trkpt lat="45.8167352" lon="11.3109421"><ele>426.8</ele><time>2026-04-19T09:20:05.028Z</time></trkpt><trkpt lat="45.8167864" lon="11.310807"><ele>427.19999999999993</ele><time>2026-04-19T09:20:06.028Z</time></trkpt><trkpt lat="45.8168197" lon="11.3106657"><ele>427.59999999999997</ele><time>2026-04-19T09:20:07.033Z</time></trkpt><trkpt lat="45.816817" lon="11.3105215"><ele>428.0</ele><time>2026-04-19T09:20:08.021Z</time></trkpt><trkpt lat="45.8168151" lon="11.3103962"><ele>428.00000000000006</ele><time>2026-04-19T09:20:09.036Z</time></trkpt><trkpt lat="45.8167988" lon="11.3102718"><ele>428.0</ele><time>2026-04-19T09:20:10.031Z</time></trkpt><trkpt lat="45.8167869" lon="11.3101584"><ele>428.0</ele><time>2026-04-19T09:20:11.039Z</time></trkpt><trkpt lat="45.8167772" lon="11.3100514"><ele>428.0</ele><time>2026-04-19T09:20:12.025Z</time></trkpt><trkpt lat="45.8167706" lon="11.3099516"><ele>428.0</ele><time>2026-04-19T09:20:13.047Z</time></trkpt><trkpt lat="45.8167599" lon="11.3098607"><ele>428.00000000000006</ele><time>2026-04-19T09:20:14.035Z</time></trkpt><trkpt lat="45.8167448" lon="11.3097719"><ele>428.0</ele><time>2026-04-19T09:20:15.023Z</time></trkpt><trkpt lat="45.8167087" lon="11.3096854"><ele>428.0</ele><time>2026-04-19T09:20:16.027Z</time></trkpt><trkpt lat="45.8166359" lon="11.3096093"><ele>427.99999999999994</ele><time>2026-04-19T09:20:17.032Z</time></trkpt><trkpt lat="45.8165494" lon="11.3095323"><ele>427.99999999999994</ele><time>2026-04-19T09:20:18.027Z</time></trkpt><trkpt lat="45.8164622" lon="11.3094318"><ele>428.0</ele><time>2026-04-19T09:20:19.028Z</time></trkpt><trkpt lat="45.8163898" lon="11.3092926"><ele>428.0</ele><time>2026-04-19T09:20:20.022Z</time></trkpt><trkpt lat="45.8163236" lon="11.309131"><ele>428.0</ele><time>2026-04-19T09:20:21.041Z</time></trkpt><trkpt lat="45.8162492" lon="11.308959"><ele>428.0</ele><time>2026-04-19T09:20:22.026Z</time></trkpt><trkpt lat="45.8161602" lon="11.3087723"><ele>428.0</ele><time>2026-04-19T09:20:23.048Z</time></trkpt><trkpt lat="45.8160609" lon="11.3085704"><ele>426.0</ele><time>2026-04-19T09:20:24.024Z</time></trkpt><trkpt lat="45.8159511" lon="11.3083568"><ele>424.0</ele><time>2026-04-19T09:20:25.021Z</time></trkpt><trkpt lat="45.815832" lon="11.3081365"><ele>422.0</ele><time>2026-04-19T09:20:26.026Z</time></trkpt><trkpt lat="45.8157041" lon="11.3079102"><ele>422.0</ele><time>2026-04-19T09:20:27.024Z</time></trkpt><trkpt lat="45.8155589" lon="11.307688"><ele>422.0</ele><time>2026-04-19T09:20:28.024Z</time></trkpt><trkpt lat="45.8154037" lon="11.3074652"><ele>422.0</ele><time>2026-04-19T09:20:29.049Z</time></trkpt><trkpt lat="45.8152526" lon="11.307232"><ele>425.0</ele><time>2026-04-19T09:20:30.028Z</time></trkpt><trkpt lat="45.8151026" lon="11.306994"><ele>428.0</ele><time>2026-04-19T09:20:31.038Z</time></trkpt><trkpt lat="45.8149537" lon="11.3067513"><ele>431.0</ele><time>2026-04-19T09:20:32.037Z</time></trkpt><trkpt lat="45.8148056" lon="11.306503"><ele>438.5</ele><time>2026-04-19T09:20:33.043Z</time></trkpt><trkpt lat="45.8146615" lon="11.3062486"><ele>446.0</ele><time>2026-04-19T09:20:34.045Z</time></trkpt><trkpt lat="45.8145142" lon="11.3059953"><ele>446.0</ele><time>2026-04-19T09:20:35.042Z</time></trkpt><trkpt lat="45.814362" lon="11.3057432"><ele>446.0</ele><time>2026-04-19T09:20:36.05Z</time></trkpt><trkpt lat="45.8142048" lon="11.3055006"><ele>442.0</ele><time>2026-04-19T09:20:37.033Z</time></trkpt><trkpt lat="45.8140434" lon="11.3052682"><ele>438.0</ele><time>2026-04-19T09:20:38.035Z</time></trkpt><trkpt lat="45.8138792" lon="11.3050457"><ele>438.0</ele><time>2026-04-19T09:20:39.032Z</time></trkpt><trkpt lat="45.8137083" lon="11.3048396"><ele>438.0</ele><time>2026-04-19T09:20:40.04Z</time></trkpt><trkpt lat="45.8135391" lon="11.304641"><ele>438.0</ele><time>2026-04-19T09:20:41.031Z</time></trkpt><trkpt lat="45.813378" lon="11.3044374"><ele>437.66666666666663</ele><time>2026-04-19T09:20:42.026Z</time></trkpt><trkpt lat="45.8132251" lon="11.3042195"><ele>437.3333333333333</ele><time>2026-04-19T09:20:43.042Z</time></trkpt><trkpt lat="45.813069" lon="11.3040146"><ele>437.0</ele><time>2026-04-19T09:20:44.027Z</time></trkpt><trkpt lat="45.8129075" lon="11.3038223"><ele>439.3333333333333</ele><time>2026-04-19T09:20:45.023Z</time></trkpt><trkpt lat="45.8127434" lon="11.3036304"><ele>441.66666666666663</ele><time>2026-04-19T09:20:46.035Z</time></trkpt><trkpt lat="45.8125768" lon="11.3034347"><ele>444.0</ele><time>2026-04-19T09:20:47.033Z</time></trkpt><trkpt lat="45.8124087" lon="11.3032355"><ele>455.33333333333337</ele><time>2026-04-19T09:20:48.033Z</time></trkpt><trkpt lat="45.8122397" lon="11.3030382"><ele>466.6666666666667</ele><time>2026-04-19T09:20:49.026Z</time></trkpt><trkpt lat="45.8120718" lon="11.3028337"><ele>478.0</ele><time>2026-04-19T09:20:50.035Z</time></trkpt><trkpt lat="45.811901" lon="11.3026372"><ele>472.6666666666667</ele><time>2026-04-19T09:20:51.039Z</time></trkpt><trkpt lat="45.8117277" lon="11.3024422"><ele>467.33333333333337</ele><time>2026-04-19T09:20:52.036Z</time></trkpt><trkpt lat="45.811546" lon="11.3022587"><ele>462.0</ele><time>2026-04-19T09:20:53.032Z</time></trkpt><trkpt lat="45.8113468" lon="11.302111"><ele>462.0</ele><time>2026-04-19T09:20:54.049Z</time></trkpt><trkpt lat="45.811133" lon="11.3020038"><ele>462.0</ele><time>2026-04-19T09:20:55.065Z</time></trkpt><trkpt lat="45.8109152" lon="11.3019326"><ele>454.33333333333337</ele><time>2026-04-19T09:20:56.059Z</time></trkpt><trkpt lat="45.8107035" lon="11.3018852"><ele>446.6666666666667</ele><time>2026-04-19T09:20:57.033Z</time></trkpt><trkpt lat="45.8104997" lon="11.3018519"><ele>439.0</ele><time>2026-04-19T09:20:58.027Z</time></trkpt><trkpt lat="45.8103001" lon="11.3018058"><ele>437.6666666666667</ele><time>2026-04-19T09:20:59.032Z</time></trkpt><trkpt lat="45.8101009" lon="11.3017544"><ele>436.33333333333337</ele><time>2026-04-19T09:21:00.036Z</time></trkpt><trkpt lat="45.8099001" lon="11.3017047"><ele>435.0</ele><time>2026-04-19T09:21:01.039Z</time></trkpt><trkpt lat="45.8096967" lon="11.3016289"><ele>435.0</ele><time>2026-04-19T09:21:02.05Z</time></trkpt><trkpt lat="45.8094863" lon="11.3015516"><ele>435.0</ele><time>2026-04-19T09:21:03.058Z</time></trkpt><trkpt lat="45.8092752" lon="11.3014485"><ele>435.0</ele><time>2026-04-19T09:21:04.066Z</time></trkpt><trkpt lat="45.8090696" lon="11.3013078"><ele>436.0</ele><time>2026-04-19T09:21:05.037Z</time></trkpt><trkpt lat="45.8088667" lon="11.3011508"><ele>437.0</ele><time>2026-04-19T09:21:06.039Z</time></trkpt><trkpt lat="45.8086595" lon="11.3009984"><ele>438.5</ele><time>2026-04-19T09:21:07.059Z</time></trkpt><trkpt lat="45.8084466" lon="11.3008661"><ele>440.0</ele><time>2026-04-19T09:21:08.03Z</time></trkpt><trkpt lat="45.808236" lon="11.3007286"><ele>440.0</ele><time>2026-04-19T09:21:09.035Z</time></trkpt><trkpt lat="45.8080327" lon="11.3005874"><ele>440.0</ele><time>2026-04-19T09:21:10.04Z</time></trkpt><trkpt lat="45.8078371" lon="11.3004598"><ele>440.0</ele><time>2026-04-19T09:21:11.035Z</time></trkpt><trkpt lat="45.8076591" lon="11.3003144"><ele>439.66666666666663</ele><time>2026-04-19T09:21:12.03Z</time></trkpt><trkpt lat="45.8074969" lon="11.3001522"><ele>439.33333333333337</ele><time>2026-04-19T09:21:13.029Z</time></trkpt><trkpt lat="45.8073525" lon="11.2999551"><ele>439.0</ele><time>2026-04-19T09:21:14.027Z</time></trkpt><trkpt lat="45.807213" lon="11.2997304"><ele>449.0</ele><time>2026-04-19T09:21:15.033Z</time></trkpt><trkpt lat="45.8070758" lon="11.299483"><ele>459.0</ele><time>2026-04-19T09:21:16.025Z</time></trkpt><trkpt lat="45.8069414" lon="11.2992073"><ele>461.5</ele><time>2026-04-19T09:21:17.028Z</time></trkpt><trkpt lat="45.8067974" lon="11.2989243"><ele>464.0</ele><time>2026-04-19T09:21:18.031Z</time></trkpt><trkpt lat="45.8066416" lon="11.2986383"><ele>464.0</ele><time>2026-04-19T09:21:19.026Z</time></trkpt><trkpt lat="45.8064677" lon="11.2983565"><ele>464.0</ele><time>2026-04-19T09:21:20.026Z</time></trkpt><trkpt lat="45.8062718" lon="11.2980815"><ele>463.0</ele><time>2026-04-19T09:21:21.038Z</time></trkpt><trkpt lat="45.8060634" lon="11.297809"><ele>462.0</ele><time>2026-04-19T09:21:22.031Z</time></trkpt><trkpt lat="45.8058606" lon="11.2975358"><ele>462.0</ele><time>2026-04-19T09:21:23.042Z</time></trkpt><trkpt lat="45.8056684" lon="11.2972741"><ele>462.0</ele><time>2026-04-19T09:21:24.026Z</time></trkpt><trkpt lat="45.8054854" lon="11.2970238"><ele>458.5</ele><time>2026-04-19T09:21:25.033Z</time></trkpt><trkpt lat="45.8052974" lon="11.2967929"><ele>455.0</ele><time>2026-04-19T09:21:26.037Z</time></trkpt><trkpt lat="45.8051148" lon="11.2965623"><ele>466.0</ele><time>2026-04-19T09:21:27.035Z</time></trkpt><trkpt lat="45.8049355" lon="11.2963334"><ele>477.0</ele><time>2026-04-19T09:21:28.03Z</time></trkpt><trkpt lat="45.8047667" lon="11.2960918"><ele>477.0</ele><time>2026-04-19T09:21:29.031Z</time></trkpt><trkpt lat="45.8046002" lon="11.2958469"><ele>477.0</ele><time>2026-04-19T09:21:30.027Z</time></trkpt><trkpt lat="45.8044499" lon="11.2955811"><ele>472.5</ele><time>2026-04-19T09:21:31.033Z</time></trkpt><trkpt lat="45.8042766" lon="11.2953472"><ele>468.0</ele><time>2026-04-19T09:21:32.031Z</time></trkpt><trkpt lat="45.8041399" lon="11.2950746"><ele>468.0</ele><time>2026-04-19T09:21:33.026Z</time></trkpt><trkpt lat="45.8040033" lon="11.2948224"><ele>468.0</ele><time>2026-04-19T09:21:34.035Z</time></trkpt><trkpt lat="45.8038683" lon="11.2945914"><ele>468.0</ele><time>2026-04-19T09:21:35.035Z</time></trkpt><trkpt lat="45.8037427" lon="11.2943703"><ele>465.0</ele><time>2026-04-19T09:21:36.019Z</time></trkpt><trkpt lat="45.8036181" lon="11.294169"><ele>462.0</ele><time>2026-04-19T09:21:37.045Z</time></trkpt><trkpt lat="45.8034941" lon="11.2939926"><ele>459.0</ele><time>2026-04-19T09:21:38.034Z</time></trkpt><trkpt lat="45.8033817" lon="11.293825"><ele>468.33333333333337</ele><time>2026-04-19T09:21:39.035Z</time></trkpt><trkpt lat="45.8032503" lon="11.2936893"><ele>477.6666666666667</ele><time>2026-04-19T09:21:40.032Z</time></trkpt><trkpt lat="45.8031218" lon="11.2935361"><ele>487.0</ele><time>2026-04-19T09:21:41.029Z</time></trkpt><trkpt lat="45.8029547" lon="11.2934322"><ele>487.0</ele><time>2026-04-19T09:21:42.028Z</time></trkpt><trkpt lat="45.8027951" lon="11.2933124"><ele>487.0</ele><time>2026-04-19T09:21:43.031Z</time></trkpt><trkpt lat="45.8026366" lon="11.293195"><ele>487.0</ele><time>2026-04-19T09:21:44.03Z</time></trkpt><trkpt lat="45.802494" lon="11.2930715"><ele>484.25</ele><time>2026-04-19T09:21:45.028Z</time></trkpt><trkpt lat="45.8023601" lon="11.2929613"><ele>481.5</ele><time>2026-04-19T09:21:46.02Z</time></trkpt><trkpt lat="45.8022374" lon="11.2928535"><ele>478.75</ele><time>2026-04-19T09:21:47.034Z</time></trkpt><trkpt lat="45.8021309" lon="11.2927384"><ele>476.0</ele><time>2026-04-19T09:21:48.028Z</time></trkpt><trkpt lat="45.8020407" lon="11.2926081"><ele>476.0</ele><time>2026-04-19T09:21:49.03Z</time></trkpt><trkpt lat="45.8019747" lon="11.2924513"><ele>476.0</ele><time>2026-04-19T09:21:50.024Z</time></trkpt><trkpt lat="45.8019158" lon="11.2922847"><ele>476.0</ele><time>2026-04-19T09:21:51.03Z</time></trkpt><trkpt lat="45.8018863" lon="11.2920936"><ele>476.0</ele><time>2026-04-19T09:21:52.03Z</time></trkpt><trkpt lat="45.8018533" lon="11.2918897"><ele>476.75</ele><time>2026-04-19T09:21:53.031Z</time></trkpt><trkpt lat="45.8018247" lon="11.2916892"><ele>477.5</ele><time>2026-04-19T09:21:54.023Z</time></trkpt><trkpt lat="45.8017658" lon="11.2915093"><ele>478.25</ele><time>2026-04-19T09:21:55.022Z</time></trkpt><trkpt lat="45.8017083" lon="11.291346"><ele>479.0</ele><time>2026-04-19T09:21:56.033Z</time></trkpt><trkpt lat="45.8016017" lon="11.2912012"><ele>479.0</ele><time>2026-04-19T09:21:57.03Z</time></trkpt><trkpt lat="45.8014705" lon="11.2910981"><ele>479.0</ele><time>2026-04-19T09:21:58.024Z</time></trkpt><trkpt lat="45.8013319" lon="11.2910068"><ele>479.0</ele><time>2026-04-19T09:21:59.029Z</time></trkpt><trkpt lat="45.8011814" lon="11.2909272"><ele>479.0</ele><time>2026-04-19T09:22:00.027Z</time></trkpt><trkpt lat="45.8010272" lon="11.2908427"><ele>479.0</ele><time>2026-04-19T09:22:01.046Z</time></trkpt><trkpt lat="45.8008672" lon="11.2907703"><ele>479.0</ele><time>2026-04-19T09:22:02.038Z</time></trkpt><trkpt lat="45.8007136" lon="11.290681"><ele>478.3333333333333</ele><time>2026-04-19T09:22:03.024Z</time></trkpt><trkpt lat="45.8005601" lon="11.2906022"><ele>477.66666666666663</ele><time>2026-04-19T09:22:04.043Z</time></trkpt><trkpt lat="45.8004274" lon="11.2904982"><ele>477.0</ele><time>2026-04-19T09:22:05.034Z</time></trkpt><trkpt lat="45.8003034" lon="11.2904036"><ele>477.0</ele><time>2026-04-19T09:22:06.025Z</time></trkpt><trkpt lat="45.8001746" lon="11.2903282"><ele>477.0</ele><time>2026-04-19T09:22:07.026Z</time></trkpt><trkpt lat="45.8000551" lon="11.2902612"><ele>477.0</ele><time>2026-04-19T09:22:08.019Z</time></trkpt><trkpt lat="45.799948" lon="11.290178"><ele>477.0</ele><time>2026-04-19T09:22:09.033Z</time></trkpt><trkpt lat="45.7998375" lon="11.2901168"><ele>475.25</ele><time>2026-04-19T09:22:10.038Z</time></trkpt><trkpt lat="45.7997348" lon="11.2900305"><ele>473.5</ele><time>2026-04-19T09:22:11.029Z</time></trkpt><trkpt lat="45.7996489" lon="11.2899101"><ele>471.75</ele><time>2026-04-19T09:22:12.026Z</time></trkpt><trkpt lat="45.7995618" lon="11.2897609"><ele>470.0</ele><time>2026-04-19T09:22:13.029Z</time></trkpt><trkpt lat="45.7994588" lon="11.2896109"><ele>472.25</ele><time>2026-04-19T09:22:14.027Z</time></trkpt><trkpt lat="45.7993529" lon="11.2894553"><ele>474.5</ele><time>2026-04-19T09:22:15.019Z</time></trkpt><trkpt lat="45.799248" lon="11.289307"><ele>476.75</ele><time>2026-04-19T09:22:16.024Z</time></trkpt><trkpt lat="45.7991338" lon="11.2891938"><ele>479.0</ele><time>2026-04-19T09:22:17.03Z</time></trkpt><trkpt lat="45.7990351" lon="11.289081"><ele>479.0</ele><time>2026-04-19T09:22:18.045Z</time></trkpt><trkpt lat="45.7989419" lon="11.288976"><ele>479.0</ele><time>2026-04-19T09:22:19.027Z</time></trkpt><trkpt lat="45.7988301" lon="11.2889004"><ele>479.0</ele><time>2026-04-19T09:22:20.03Z</time></trkpt><trkpt lat="45.7987176" lon="11.2888094"><ele>479.0</ele><time>2026-04-19T09:22:21.025Z</time></trkpt><trkpt lat="45.7986065" lon="11.2887004"><ele>479.25</ele><time>2026-04-19T09:22:22.021Z</time></trkpt><trkpt lat="45.7984902" lon="11.2886143"><ele>479.5</ele><time>2026-04-19T09:22:23.063Z</time></trkpt><trkpt lat="45.7983723" lon="11.2885269"><ele>479.75</ele><time>2026-04-19T09:22:24.024Z</time></trkpt><trkpt lat="45.7982617" lon="11.2884391"><ele>480.0</ele><time>2026-04-19T09:22:25.039Z</time></trkpt><trkpt lat="45.7981649" lon="11.2883366"><ele>480.0</ele><time>2026-04-19T09:22:26.028Z</time></trkpt><trkpt lat="45.7980839" lon="11.2881955"><ele>480.0</ele><time>2026-04-19T09:22:27.025Z</time></trkpt><trkpt lat="45.7980318" lon="11.2880208"><ele>480.0</ele><time>2026-04-19T09:22:28.032Z</time></trkpt><trkpt lat="45.7980138" lon="11.2878114"><ele>480.0</ele><time>2026-04-19T09:22:29.03Z</time></trkpt><trkpt lat="45.797998" lon="11.2875879"><ele>485.0</ele><time>2026-04-19T09:22:30.027Z</time></trkpt><trkpt lat="45.7979907" lon="11.2873485"><ele>490.0</ele><time>2026-04-19T09:22:31.026Z</time></trkpt><trkpt lat="45.7979768" lon="11.2871256"><ele>495.0</ele><time>2026-04-19T09:22:32.032Z</time></trkpt><trkpt lat="45.7979834" lon="11.2869163"><ele>500.0</ele><time>2026-04-19T09:22:33.027Z</time></trkpt><trkpt lat="45.7979498" lon="11.2867237"><ele>505.0</ele><time>2026-04-19T09:22:34.04Z</time></trkpt><trkpt lat="45.7978831" lon="11.2865146"><ele>510.0</ele><time>2026-04-19T09:22:35.045Z</time></trkpt><trkpt lat="45.7977941" lon="11.2863049"><ele>515.6666666666666</ele><time>2026-04-19T09:22:36.03Z</time></trkpt><trkpt lat="45.797675" lon="11.2860842"><ele>521.3333333333333</ele><time>2026-04-19T09:22:37.046Z</time></trkpt><trkpt lat="45.7975251" lon="11.285884"><ele>527.0</ele><time>2026-04-19T09:22:38.04Z</time></trkpt><trkpt lat="45.7973782" lon="11.2856846"><ele>521.6666666666666</ele><time>2026-04-19T09:22:39.042Z</time></trkpt><trkpt lat="45.7972389" lon="11.2854768"><ele>516.3333333333334</ele><time>2026-04-19T09:22:40.05Z</time></trkpt><trkpt lat="45.7971069" lon="11.2852571"><ele>511.0</ele><time>2026-04-19T09:22:41.036Z</time></trkpt><trkpt lat="45.7969831" lon="11.2850489"><ele>511.0</ele><time>2026-04-19T09:22:42.033Z</time></trkpt><trkpt lat="45.7968669" lon="11.2848575"><ele>511.0</ele><time>2026-04-19T09:22:43.03Z</time></trkpt><trkpt lat="45.7967954" lon="11.2846452"><ele>511.0</ele><time>2026-04-19T09:22:44.027Z</time></trkpt><trkpt lat="45.7967182" lon="11.2844628"><ele>508.5</ele><time>2026-04-19T09:22:45.046Z</time></trkpt><trkpt lat="45.7966709" lon="11.2842782"><ele>506.0</ele><time>2026-04-19T09:22:46.029Z</time></trkpt><trkpt lat="45.7966411" lon="11.284079"><ele>503.5</ele><time>2026-04-19T09:22:47.032Z</time></trkpt><trkpt lat="45.7966239" lon="11.2838581"><ele>501.0</ele><time>2026-04-19T09:22:48.035Z</time></trkpt><trkpt lat="45.7966131" lon="11.283604"><ele>501.0</ele><time>2026-04-19T09:22:49.038Z</time></trkpt><trkpt lat="45.7965412" lon="11.2833569"><ele>501.0</ele><time>2026-04-19T09:22:50.047Z</time></trkpt><trkpt lat="45.7964933" lon="11.2830807"><ele>501.0</ele><time>2026-04-19T09:22:51.031Z</time></trkpt><trkpt lat="45.7964283" lon="11.2827897"><ele>504.33333333333337</ele><time>2026-04-19T09:22:52.034Z</time></trkpt><trkpt lat="45.7963661" lon="11.2824957"><ele>507.6666666666667</ele><time>2026-04-19T09:22:53.048Z</time></trkpt><trkpt lat="45.7963043" lon="11.2821984"><ele>511.0</ele><time>2026-04-19T09:22:54.037Z</time></trkpt><trkpt lat="45.796229" lon="11.2818981"><ele>515.6666666666667</ele><time>2026-04-19T09:22:55.043Z</time></trkpt><trkpt lat="45.7961766" lon="11.2816032"><ele>520.3333333333334</ele><time>2026-04-19T09:22:56.041Z</time></trkpt><trkpt lat="45.7960927" lon="11.2813415"><ele>525.0</ele><time>2026-04-19T09:22:57.033Z</time></trkpt><trkpt lat="45.7960242" lon="11.2810811"><ele>514.3333333333334</ele><time>2026-04-19T09:22:58.042Z</time></trkpt><trkpt lat="45.795964" lon="11.2808262"><ele>503.6666666666667</ele><time>2026-04-19T09:22:59.036Z</time></trkpt><trkpt lat="45.7959097" lon="11.2805795"><ele>493.0</ele><time>2026-04-19T09:23:00.041Z</time></trkpt><trkpt lat="45.795896" lon="11.2803164"><ele>493.0</ele><time>2026-04-19T09:23:01.034Z</time></trkpt><trkpt lat="45.7958662" lon="11.2800628"><ele>493.0</ele><time>2026-04-19T09:23:02.05Z</time></trkpt><trkpt lat="45.7958498" lon="11.2798177"><ele>493.0</ele><time>2026-04-19T09:23:03.065Z</time></trkpt><trkpt lat="45.7958723" lon="11.2795726"><ele>491.6666666666667</ele><time>2026-04-19T09:23:04.027Z</time></trkpt><trkpt lat="45.7959149" lon="11.2793342"><ele>490.33333333333337</ele><time>2026-04-19T09:23:05.046Z</time></trkpt><trkpt lat="45.7959541" lon="11.2790894"><ele>489.0</ele><time>2026-04-19T09:23:06.03Z</time></trkpt><trkpt lat="45.7960063" lon="11.2788445"><ele>499.33333333333337</ele><time>2026-04-19T09:23:07.036Z</time></trkpt><trkpt lat="45.7960741" lon="11.2786116"><ele>509.6666666666667</ele><time>2026-04-19T09:23:08.034Z</time></trkpt><trkpt lat="45.7961356" lon="11.27838"><ele>520.0</ele><time>2026-04-19T09:23:09.039Z</time></trkpt><trkpt lat="45.7962037" lon="11.278146"><ele>516.6666666666667</ele><time>2026-04-19T09:23:10.028Z</time></trkpt><trkpt lat="45.7962872" lon="11.2779056"><ele>513.3333333333334</ele><time>2026-04-19T09:23:11.048Z</time></trkpt><trkpt lat="45.7963867" lon="11.2776553"><ele>510.0</ele><time>2026-04-19T09:23:12.023Z</time></trkpt><trkpt lat="45.7964977" lon="11.2773874"><ele>506.0</ele><time>2026-04-19T09:23:13.049Z</time></trkpt><trkpt lat="45.7966139" lon="11.2771058"><ele>502.0</ele><time>2026-04-19T09:23:14.042Z</time></trkpt><trkpt lat="45.7967283" lon="11.2768196"><ele>518.5</ele><time>2026-04-19T09:23:15.046Z</time></trkpt><trkpt lat="45.7968452" lon="11.2765321"><ele>535.0</ele><time>2026-04-19T09:23:16.03Z</time></trkpt><trkpt lat="45.7969493" lon="11.2762547"><ele>535.0</ele><time>2026-04-19T09:23:17.041Z</time></trkpt><trkpt lat="45.7970453" lon="11.275995"><ele>535.0</ele><time>2026-04-19T09:23:18.034Z</time></trkpt><trkpt lat="45.7971359" lon="11.2757503"><ele>535.0</ele><time>2026-04-19T09:23:19.039Z</time></trkpt><trkpt lat="45.7972236" lon="11.2755205"><ele>529.6666666666667</ele><time>2026-04-19T09:23:20.055Z</time></trkpt><trkpt lat="45.7973012" lon="11.275296"><ele>524.3333333333334</ele><time>2026-04-19T09:23:21.059Z</time></trkpt><trkpt lat="45.7973635" lon="11.2750653"><ele>519.0</ele><time>2026-04-19T09:23:22.047Z</time></trkpt><trkpt lat="45.7973958" lon="11.2748286"><ele>515.6666666666666</ele><time>2026-04-19T09:23:23.036Z</time></trkpt><trkpt lat="45.7973891" lon="11.2745944"><ele>512.3333333333333</ele><time>2026-04-19T09:23:24.039Z</time></trkpt><trkpt lat="45.797332" lon="11.2743632"><ele>509.0</ele><time>2026-04-19T09:23:25.04Z</time></trkpt><trkpt lat="45.7972346" lon="11.2741493"><ele>515.3333333333333</ele><time>2026-04-19T09:23:26.07Z</time></trkpt><trkpt lat="45.7971212" lon="11.2739355"><ele>521.6666666666666</ele><time>2026-04-19T09:23:27.046Z</time></trkpt><trkpt lat="45.7969924" lon="11.2737203"><ele>528.0</ele><time>2026-04-19T09:23:28.045Z</time></trkpt><trkpt lat="45.7968613" lon="11.273497"><ele>530.3333333333334</ele><time>2026-04-19T09:23:29.051Z</time></trkpt><trkpt lat="45.7967227" lon="11.2732747"><ele>532.6666666666667</ele><time>2026-04-19T09:23:30.043Z</time></trkpt><trkpt lat="45.7965667" lon="11.2730652"><ele>535.0</ele><time>2026-04-19T09:23:31.054Z</time></trkpt><trkpt lat="45.796394" lon="11.2728724"><ele>535.0</ele><time>2026-04-19T09:23:32.033Z</time></trkpt><trkpt lat="45.7962102" lon="11.272696"><ele>535.0</ele><time>2026-04-19T09:23:33.033Z</time></trkpt><trkpt lat="45.7960253" lon="11.2725379"><ele>535.0</ele><time>2026-04-19T09:23:34.03Z</time></trkpt><trkpt lat="45.7958464" lon="11.2724038"><ele>530.0</ele><time>2026-04-19T09:23:35.032Z</time></trkpt><trkpt lat="45.7956793" lon="11.2722655"><ele>525.0</ele><time>2026-04-19T09:23:36.053Z</time></trkpt><trkpt lat="45.7955142" lon="11.2721359"><ele>520.0</ele><time>2026-04-19T09:23:37.027Z</time></trkpt><trkpt lat="45.7953527" lon="11.2720037"><ele>520.0</ele><time>2026-04-19T09:23:38.055Z</time></trkpt><trkpt lat="45.7951943" lon="11.2718725"><ele>520.0</ele><time>2026-04-19T09:23:39.047Z</time></trkpt><trkpt lat="45.7950407" lon="11.271743"><ele>520.0</ele><time>2026-04-19T09:23:40.051Z</time></trkpt><trkpt lat="45.7948908" lon="11.2716198"><ele>519.6666666666667</ele><time>2026-04-19T09:23:41.072Z</time></trkpt><trkpt lat="45.794745" lon="11.2715016"><ele>519.3333333333334</ele><time>2026-04-19T09:23:42.031Z</time></trkpt><trkpt lat="45.7946045" lon="11.2713826"><ele>519.0</ele><time>2026-04-19T09:23:43.042Z</time></trkpt><trkpt lat="45.7944701" lon="11.2712542"><ele>519.0</ele><time>2026-04-19T09:23:44.043Z</time></trkpt><trkpt lat="45.7943425" lon="11.2711194"><ele>519.0</ele><time>2026-04-19T09:23:45.039Z</time></trkpt><trkpt lat="45.7942307" lon="11.2709629"><ele>519.0</ele><time>2026-04-19T09:23:46.036Z</time></trkpt><trkpt lat="45.7941346" lon="11.2707875"><ele>521.3333333333334</ele><time>2026-04-19T09:23:47.023Z</time></trkpt><trkpt lat="45.794055" lon="11.2705987"><ele>523.6666666666667</ele><time>2026-04-19T09:23:48.038Z</time></trkpt><trkpt lat="45.7939913" lon="11.2703974"><ele>526.0</ele><time>2026-04-19T09:23:49.029Z</time></trkpt><trkpt lat="45.7939241" lon="11.2702016"><ele>526.0</ele><time>2026-04-19T09:23:50.038Z</time></trkpt><trkpt lat="45.7938725" lon="11.2700004"><ele>526.0</ele><time>2026-04-19T09:23:51.058Z</time></trkpt><trkpt lat="45.7938453" lon="11.2697893"><ele>526.0</ele><time>2026-04-19T09:23:52.024Z</time></trkpt><trkpt lat="45.7937899" lon="11.2695955"><ele>526.0</ele><time>2026-04-19T09:23:53.04Z</time></trkpt><trkpt lat="45.7937138" lon="11.2694102"><ele>525.0</ele><time>2026-04-19T09:23:54.035Z</time></trkpt><trkpt lat="45.7936207" lon="11.2692359"><ele>524.0</ele><time>2026-04-19T09:23:55.03Z</time></trkpt><trkpt lat="45.7935272" lon="11.2690643"><ele>523.0</ele><time>2026-04-19T09:23:56.026Z</time></trkpt><trkpt lat="45.7934376" lon="11.2688918"><ele>523.0</ele><time>2026-04-19T09:23:57.034Z</time></trkpt><trkpt lat="45.7933452" lon="11.2687359"><ele>523.0</ele><time>2026-04-19T09:23:58.02Z</time></trkpt><trkpt lat="45.793252" lon="11.268601"><ele>523.0</ele><time>2026-04-19T09:23:59.032Z</time></trkpt><trkpt lat="45.7931542" lon="11.2685071"><ele>523.0</ele><time>2026-04-19T09:24:00.033Z</time></trkpt><trkpt lat="45.7930586" lon="11.2684507"><ele>523.0</ele><time>2026-04-19T09:24:01.035Z</time></trkpt><trkpt lat="45.7929754" lon="11.2684094"><ele>523.0</ele><time>2026-04-19T09:24:02.038Z</time></trkpt><trkpt lat="45.7929103" lon="11.268379"><ele>523.0</ele><time>2026-04-19T09:24:03.033Z</time></trkpt><trkpt lat="45.7928143" lon="11.2683463"><ele>523.0</ele><time>2026-04-19T09:24:05.034Z</time></trkpt><trkpt lat="45.7927495" lon="11.2682988"><ele>523.0</ele><time>2026-04-19T09:24:07.04Z</time></trkpt><trkpt lat="45.7926965" lon="11.268249"><ele>523.0</ele><time>2026-04-19T09:24:09.029Z</time></trkpt><trkpt lat="45.7926295" lon="11.2682129"><ele>521.4</ele><time>2026-04-19T09:24:11.05Z</time></trkpt><trkpt lat="45.792543" lon="11.2682189"><ele>519.8</ele><time>2026-04-19T09:24:13.026Z</time></trkpt><trkpt lat="45.7924361" lon="11.2682671"><ele>518.2</ele><time>2026-04-19T09:24:15.042Z</time></trkpt><trkpt lat="45.7923752" lon="11.2683073"><ele>516.6</ele><time>2026-04-19T09:24:16.035Z</time></trkpt><trkpt lat="45.7922528" lon="11.2683567"><ele>515.0</ele><time>2026-04-19T09:24:18.038Z</time></trkpt><trkpt lat="45.7921319" lon="11.2683647"><ele>515.0</ele><time>2026-04-19T09:24:20.038Z</time></trkpt><trkpt lat="45.7920137" lon="11.2683823"><ele>515.0</ele><time>2026-04-19T09:24:22.037Z</time></trkpt><trkpt lat="45.7919465" lon="11.2683597"><ele>515.0</ele><time>2026-04-19T09:24:23.031Z</time></trkpt><trkpt lat="45.7918845" lon="11.268338"><ele>515.0</ele><time>2026-04-19T09:24:24.026Z</time></trkpt><trkpt lat="45.7917781" lon="11.2683617"><ele>515.0</ele><time>2026-04-19T09:24:26.042Z</time></trkpt><trkpt lat="45.7917002" lon="11.2683364"><ele>515.0</ele><time>2026-04-19T09:24:28.036Z</time></trkpt><trkpt lat="45.7916153" lon="11.2682998"><ele>514.8333333333333</ele><time>2026-04-19T09:24:30.043Z</time></trkpt><trkpt lat="45.7915345" lon="11.2682149"><ele>514.6666666666666</ele><time>2026-04-19T09:24:32.041Z</time></trkpt><trkpt lat="45.7915418" lon="11.2681182"><ele>514.5</ele><time>2026-04-19T09:24:33.045Z</time></trkpt><trkpt lat="45.7915949" lon="11.2679447"><ele>514.3333333333334</ele><time>2026-04-19T09:24:35.061Z</time></trkpt><trkpt lat="45.7916245" lon="11.2678495"><ele>514.1666666666667</ele><time>2026-04-19T09:24:36.039Z</time></trkpt><trkpt lat="45.7916539" lon="11.2677508"><ele>514.0</ele><time>2026-04-19T09:24:37.057Z</time></trkpt><trkpt lat="45.7916719" lon="11.2676553"><ele>515.3333333333334</ele><time>2026-04-19T09:24:38.036Z</time></trkpt><trkpt lat="45.7916646" lon="11.2675586"><ele>516.6666666666667</ele><time>2026-04-19T09:24:39.033Z</time></trkpt><trkpt lat="45.7916335" lon="11.2674642"><ele>518.0</ele><time>2026-04-19T09:24:40.04Z</time></trkpt><trkpt lat="45.7916055" lon="11.267365"><ele>519.3333333333334</ele><time>2026-04-19T09:24:41.039Z</time></trkpt><trkpt lat="45.7916005" lon="11.2672501"><ele>520.6666666666666</ele><time>2026-04-19T09:24:42.036Z</time></trkpt><trkpt lat="45.791564" lon="11.2671532"><ele>522.0</ele><time>2026-04-19T09:24:43.045Z</time></trkpt><trkpt lat="45.7915052" lon="11.2670779"><ele>522.2857142857143</ele><time>2026-04-19T09:24:44.026Z</time></trkpt><trkpt lat="45.7914575" lon="11.2669931"><ele>522.5714285714286</ele><time>2026-04-19T09:24:45.038Z</time></trkpt><trkpt lat="45.7914142" lon="11.2669042"><ele>522.8571428571429</ele><time>2026-04-19T09:24:46.032Z</time></trkpt><trkpt lat="45.7913778" lon="11.2668125"><ele>523.1428571428571</ele><time>2026-04-19T09:24:47.036Z</time></trkpt><trkpt lat="45.7913433" lon="11.2667235"><ele>523.4285714285714</ele><time>2026-04-19T09:24:48.025Z</time></trkpt><trkpt lat="45.7913145" lon="11.2666318"><ele>523.7142857142858</ele><time>2026-04-19T09:24:49.036Z</time></trkpt><trkpt lat="45.7912925" lon="11.2665368"><ele>524.0</ele><time>2026-04-19T09:24:50.026Z</time></trkpt><trkpt lat="45.7912584" lon="11.2664488"><ele>525.0</ele><time>2026-04-19T09:24:51.041Z</time></trkpt><trkpt lat="45.7912284" lon="11.2663578"><ele>526.0</ele><time>2026-04-19T09:24:52.03Z</time></trkpt><trkpt lat="45.7912064" lon="11.2662626"><ele>527.0</ele><time>2026-04-19T09:24:53.029Z</time></trkpt><trkpt lat="45.7911838" lon="11.2661688"><ele>528.0</ele><time>2026-04-19T09:24:54.048Z</time></trkpt><trkpt lat="45.7911539" lon="11.266078"><ele>529.0</ele><time>2026-04-19T09:24:55.028Z</time></trkpt><trkpt lat="45.7911182" lon="11.2659897"><ele>530.0</ele><time>2026-04-19T09:24:56.053Z</time></trkpt><trkpt lat="45.7910702" lon="11.2659144"><ele>531.0</ele><time>2026-04-19T09:24:57.031Z</time></trkpt><trkpt lat="45.7910311" lon="11.2658399"><ele>529.8333333333334</ele><time>2026-04-19T09:24:58.04Z</time></trkpt><trkpt lat="45.7909793" lon="11.2656678"><ele>528.6666666666666</ele><time>2026-04-19T09:25:00.043Z</time></trkpt><trkpt lat="45.7909388" lon="11.2655939"><ele>527.5</ele><time>2026-04-19T09:25:01.051Z</time></trkpt><trkpt lat="45.7908904" lon="11.2655291"><ele>526.3333333333333</ele><time>2026-04-19T09:25:02.042Z</time></trkpt><trkpt lat="45.7908438" lon="11.2654633"><ele>525.1666666666666</ele><time>2026-04-19T09:25:03.06Z</time></trkpt><trkpt lat="45.7907899" lon="11.2654078"><ele>524.0</ele><time>2026-04-19T09:25:04.04Z</time></trkpt><trkpt lat="45.790735" lon="11.2653474"><ele>524.0</ele><time>2026-04-19T09:25:05.033Z</time></trkpt><trkpt lat="45.7906818" lon="11.2652777"><ele>524.0</ele><time>2026-04-19T09:25:06.034Z</time></trkpt><trkpt lat="45.7906275" lon="11.2652031"><ele>524.0</ele><time>2026-04-19T09:25:07.031Z</time></trkpt><trkpt lat="45.7905618" lon="11.2651354"><ele>524.0</ele><time>2026-04-19T09:25:08.031Z</time></trkpt><trkpt lat="45.7905355" lon="11.2650115"><ele>524.0</ele><time>2026-04-19T09:25:09.034Z</time></trkpt><trkpt lat="45.7904962" lon="11.2648958"><ele>524.0</ele><time>2026-04-19T09:25:10.037Z</time></trkpt><trkpt lat="45.7904415" lon="11.2647886"><ele>524.0</ele><time>2026-04-19T09:25:11.041Z</time></trkpt><trkpt lat="45.7903833" lon="11.2646809"><ele>524.0</ele><time>2026-04-19T09:25:12.031Z</time></trkpt><trkpt lat="45.790324" lon="11.2645701"><ele>524.0</ele><time>2026-04-19T09:25:13.038Z</time></trkpt><trkpt lat="45.7902675" lon="11.2644538"><ele>524.0</ele><time>2026-04-19T09:25:14.03Z</time></trkpt><trkpt lat="45.7902116" lon="11.2643324"><ele>524.0</ele><time>2026-04-19T09:25:15.038Z</time></trkpt><trkpt lat="45.7901588" lon="11.264206"><ele>524.0</ele><time>2026-04-19T09:25:16.037Z</time></trkpt><trkpt lat="45.7901124" lon="11.264083"><ele>524.0</ele><time>2026-04-19T09:25:17.04Z</time></trkpt><trkpt lat="45.7900555" lon="11.2639807"><ele>524.0</ele><time>2026-04-19T09:25:18.039Z</time></trkpt><trkpt lat="45.7900112" lon="11.2638783"><ele>524.0</ele><time>2026-04-19T09:25:19.045Z</time></trkpt><trkpt lat="45.7899745" lon="11.2637705"><ele>524.0</ele><time>2026-04-19T09:25:20.035Z</time></trkpt><trkpt lat="45.7899367" lon="11.2636571"><ele>524.0</ele><time>2026-04-19T09:25:21.048Z</time></trkpt><trkpt lat="45.7899356" lon="11.2635176"><ele>523.8333333333333</ele><time>2026-04-19T09:25:22.036Z</time></trkpt><trkpt lat="45.7899127" lon="11.2633964"><ele>523.6666666666666</ele><time>2026-04-19T09:25:23.044Z</time></trkpt><trkpt lat="45.7898665" lon="11.2632849"><ele>523.5</ele><time>2026-04-19T09:25:24.048Z</time></trkpt><trkpt lat="45.7898608" lon="11.263158"><ele>523.3333333333334</ele><time>2026-04-19T09:25:25.054Z</time></trkpt><trkpt lat="45.7898422" lon="11.263043"><ele>523.1666666666667</ele><time>2026-04-19T09:25:26.046Z</time></trkpt><trkpt lat="45.7898129" lon="11.2629373"><ele>523.0</ele><time>2026-04-19T09:25:27.038Z</time></trkpt><trkpt lat="45.7897897" lon="11.2628363"><ele>523.8571428571428</ele><time>2026-04-19T09:25:28.045Z</time></trkpt><trkpt lat="45.7897658" lon="11.2627396"><ele>524.7142857142857</ele><time>2026-04-19T09:25:29.045Z</time></trkpt><trkpt lat="45.7897495" lon="11.2626419"><ele>525.5714285714286</ele><time>2026-04-19T09:25:30.053Z</time></trkpt><trkpt lat="45.7897363" lon="11.2625458"><ele>526.4285714285713</ele><time>2026-04-19T09:25:31.047Z</time></trkpt><trkpt lat="45.7897277" lon="11.2624491"><ele>527.2857142857142</ele><time>2026-04-19T09:25:32.049Z</time></trkpt><trkpt lat="45.7897099" lon="11.262354"><ele>528.1428571428571</ele><time>2026-04-19T09:25:33.049Z</time></trkpt><trkpt lat="45.7896888" lon="11.262258"><ele>529.0</ele><time>2026-04-19T09:25:34.056Z</time></trkpt><trkpt lat="45.7896743" lon="11.262162"><ele>530.0</ele><time>2026-04-19T09:25:35.058Z</time></trkpt><trkpt lat="45.7896546" lon="11.262073"><ele>531.0</ele><time>2026-04-19T09:25:36.048Z</time></trkpt><trkpt lat="45.7896245" lon="11.2619059"><ele>532.0</ele><time>2026-04-19T09:25:38.038Z</time></trkpt><trkpt lat="45.7896161" lon="11.2617531"><ele>533.0</ele><time>2026-04-19T09:25:40.059Z</time></trkpt><trkpt lat="45.7896525" lon="11.261652"><ele>534.0</ele><time>2026-04-19T09:25:42.044Z</time></trkpt><trkpt lat="45.7896991" lon="11.2615871"><ele>535.0</ele><time>2026-04-19T09:25:44.051Z</time></trkpt><trkpt lat="45.7896808" lon="11.261468"><ele>535.0</ele><time>2026-04-19T09:25:47.046Z</time></trkpt><trkpt lat="45.7896151" lon="11.2614504"><ele>535.0</ele><time>2026-04-19T09:25:49.059Z</time></trkpt><trkpt lat="45.7895098" lon="11.261482"><ele>535.0</ele><time>2026-04-19T09:25:51.047Z</time></trkpt><trkpt lat="45.7894455" lon="11.2614973"><ele>535.0</ele><time>2026-04-19T09:25:52.051Z</time></trkpt><trkpt lat="45.7893765" lon="11.261531"><ele>535.0</ele><time>2026-04-19T09:25:53.048Z</time></trkpt><trkpt lat="45.7893047" lon="11.2615644"><ele>535.0</ele><time>2026-04-19T09:25:54.049Z</time></trkpt><trkpt lat="45.7892385" lon="11.2616123"><ele>535.0</ele><time>2026-04-19T09:25:55.054Z</time></trkpt><trkpt lat="45.7891834" lon="11.2616726"><ele>535.0</ele><time>2026-04-19T09:25:56.048Z</time></trkpt><trkpt lat="45.7891376" lon="11.2617367"><ele>535.0</ele><time>2026-04-19T09:25:57.041Z</time></trkpt><trkpt lat="45.7890614" lon="11.2618514"><ele>535.0</ele><time>2026-04-19T09:25:59.05Z</time></trkpt><trkpt lat="45.7890096" lon="11.2619521"><ele>535.0</ele><time>2026-04-19T09:26:01.045Z</time></trkpt><trkpt lat="45.7889746" lon="11.2620303"><ele>535.0</ele><time>2026-04-19T09:26:03.065Z</time></trkpt><trkpt lat="45.7889435" lon="11.2621093"><ele>535.0</ele><time>2026-04-19T09:26:06.052Z</time></trkpt><trkpt lat="45.7889149" lon="11.2622016"><ele>535.0</ele><time>2026-04-19T09:26:15.066Z</time></trkpt><trkpt lat="45.7888957" lon="11.262334"><ele>535.0</ele><time>2026-04-19T09:26:17.06Z</time></trkpt><trkpt lat="45.7888678" lon="11.2625147"><ele>535.0</ele><time>2026-04-19T09:26:19.054Z</time></trkpt><trkpt lat="45.7888512" lon="11.2626085"><ele>535.0</ele><time>2026-04-19T09:26:20.058Z</time></trkpt><trkpt lat="45.7888301" lon="11.2627107"><ele>535.0</ele><time>2026-04-19T09:26:21.064Z</time></trkpt><trkpt lat="45.7888151" lon="11.262819"><ele>534.6</ele><time>2026-04-19T09:26:22.055Z</time></trkpt><trkpt lat="45.7888039" lon="11.2629328"><ele>534.2</ele><time>2026-04-19T09:26:23.053Z</time></trkpt><trkpt lat="45.788797" lon="11.2630519"><ele>533.8</ele><time>2026-04-19T09:26:24.048Z</time></trkpt><trkpt lat="45.7887933" lon="11.263184"><ele>533.4</ele><time>2026-04-19T09:26:25.047Z</time></trkpt><trkpt lat="45.788795" lon="11.2633204"><ele>533.0</ele><time>2026-04-19T09:26:26.045Z</time></trkpt><trkpt lat="45.7887956" lon="11.2634671"><ele>532.8</ele><time>2026-04-19T09:26:27.065Z</time></trkpt><trkpt lat="45.7887997" lon="11.2636131"><ele>532.5999999999999</ele><time>2026-04-19T09:26:28.061Z</time></trkpt><trkpt lat="45.7888065" lon="11.2637479"><ele>532.4000000000001</ele><time>2026-04-19T09:26:29.055Z</time></trkpt><trkpt lat="45.7888177" lon="11.2638673"><ele>532.2</ele><time>2026-04-19T09:26:30.055Z</time></trkpt><trkpt lat="45.7888298" lon="11.2639685"><ele>532.0</ele><time>2026-04-19T09:26:31.057Z</time></trkpt><trkpt lat="45.7888606" lon="11.2641282"><ele>532.8333333333334</ele><time>2026-04-19T09:26:33.062Z</time></trkpt><trkpt lat="45.7888987" lon="11.2642305"><ele>533.6666666666667</ele><time>2026-04-19T09:26:35.059Z</time></trkpt><trkpt lat="45.7889634" lon="11.2642892"><ele>534.5</ele><time>2026-04-19T09:26:38.056Z</time></trkpt><trkpt lat="45.7890326" lon="11.2643071"><ele>535.3333333333334</ele><time>2026-04-19T09:27:22.052Z</time></trkpt><trkpt lat="45.7889807" lon="11.2642259"><ele>536.1666666666666</ele><time>2026-04-19T09:27:26.059Z</time></trkpt><trkpt lat="45.7889116" lon="11.2641828"><ele>537.0</ele><time>2026-04-19T09:27:28.059Z</time></trkpt><trkpt lat="45.7888795" lon="11.2640881"><ele>537.0</ele><time>2026-04-19T09:27:30.044Z</time></trkpt><trkpt lat="45.7888662" lon="11.2639654"><ele>537.0</ele><time>2026-04-19T09:27:32.04Z</time></trkpt><trkpt lat="45.7888567" lon="11.2638231"><ele>537.0</ele><time>2026-04-19T09:27:34.045Z</time></trkpt><trkpt lat="45.7888331" lon="11.2636774"><ele>537.0</ele><time>2026-04-19T09:27:36.055Z</time></trkpt><trkpt lat="45.7888085" lon="11.2635284"><ele>537.0</ele><time>2026-04-19T09:27:38.065Z</time></trkpt><trkpt lat="45.7887695" lon="11.2634054"><ele>536.3333333333334</ele><time>2026-04-19T09:27:40.074Z</time></trkpt><trkpt lat="45.7887441" lon="11.2632989"><ele>535.6666666666666</ele><time>2026-04-19T09:27:42.038Z</time></trkpt><trkpt lat="45.7887879" lon="11.2631856"><ele>535.0</ele><time>2026-04-19T09:27:44.054Z</time></trkpt><trkpt lat="45.7888069" lon="11.2630756"><ele>534.3333333333333</ele><time>2026-04-19T09:27:46.064Z</time></trkpt><trkpt lat="45.7887943" lon="11.2629576"><ele>533.6666666666666</ele><time>2026-04-19T09:27:48.047Z</time></trkpt><trkpt lat="45.7887902" lon="11.2628256"><ele>533.0</ele><time>2026-04-19T09:27:50.054Z</time></trkpt><trkpt lat="45.7888133" lon="11.2626999"><ele>533.0</ele><time>2026-04-19T09:27:52.047Z</time></trkpt><trkpt lat="45.7888363" lon="11.2626018"><ele>533.0</ele><time>2026-04-19T09:27:54.048Z</time></trkpt><trkpt lat="45.788856" lon="11.2625081"><ele>533.0</ele><time>2026-04-19T09:27:56.062Z</time></trkpt><trkpt lat="45.7888875" lon="11.2624101"><ele>533.0</ele><time>2026-04-19T09:27:58.061Z</time></trkpt><trkpt lat="45.788927" lon="11.2622506"><ele>533.0</ele><time>2026-04-19T09:28:00.065Z</time></trkpt><trkpt lat="45.7889355" lon="11.2621603"><ele>533.0</ele><time>2026-04-19T09:28:01.064Z</time></trkpt><trkpt lat="45.7889459" lon="11.2620652"><ele>533.3333333333333</ele><time>2026-04-19T09:28:02.056Z</time></trkpt><trkpt lat="45.7889927" lon="11.2618981"><ele>533.6666666666666</ele><time>2026-04-19T09:28:04.045Z</time></trkpt><trkpt lat="45.7890258" lon="11.2618112"><ele>534.0</ele><time>2026-04-19T09:28:05.047Z</time></trkpt><trkpt lat="45.7890691" lon="11.2617328"><ele>534.3333333333334</ele><time>2026-04-19T09:28:06.049Z</time></trkpt><trkpt lat="45.7891207" lon="11.2616618"><ele>534.6666666666667</ele><time>2026-04-19T09:28:07.048Z</time></trkpt><trkpt lat="45.7891768" lon="11.2616038"><ele>535.0</ele><time>2026-04-19T09:28:08.057Z</time></trkpt><trkpt lat="45.789235" lon="11.2615509"><ele>535.0</ele><time>2026-04-19T09:28:09.05Z</time></trkpt><trkpt lat="45.7893093" lon="11.2615269"><ele>535.0</ele><time>2026-04-19T09:28:10.04Z</time></trkpt><trkpt lat="45.7893785" lon="11.2615198"><ele>535.0</ele><time>2026-04-19T09:28:11.057Z</time></trkpt><trkpt lat="45.7894417" lon="11.2615144"><ele>535.0</ele><time>2026-04-19T09:28:12.038Z</time></trkpt><trkpt lat="45.7895054" lon="11.2615003"><ele>535.0</ele><time>2026-04-19T09:28:13.06Z</time></trkpt><trkpt lat="45.789627" lon="11.2614824"><ele>535.0</ele><time>2026-04-19T09:28:15.054Z</time></trkpt><trkpt lat="45.7897347" lon="11.2614797"><ele>535.0</ele><time>2026-04-19T09:28:17.049Z</time></trkpt><trkpt lat="45.7898177" lon="11.261486"><ele>535.0</ele><time>2026-04-19T09:28:19.055Z</time></trkpt><trkpt lat="45.7898994" lon="11.2614976"><ele>535.0</ele><time>2026-04-19T09:28:21.062Z</time></trkpt><trkpt lat="45.7899861" lon="11.2615236"><ele>535.0</ele><time>2026-04-19T09:28:23.055Z</time></trkpt><trkpt lat="45.7900621" lon="11.2615873"><ele>535.0</ele><time>2026-04-19T09:28:25.048Z</time></trkpt><trkpt lat="45.7901296" lon="11.2617059"><ele>535.0</ele><time>2026-04-19T09:28:27.046Z</time></trkpt><trkpt lat="45.7902326" lon="11.2617971"><ele>539.2</ele><time>2026-04-19T09:28:29.056Z</time></trkpt><trkpt lat="45.7902946" lon="11.261913"><ele>543.4</ele><time>2026-04-19T09:28:31.045Z</time></trkpt><trkpt lat="45.7903565" lon="11.2620562"><ele>547.6</ele><time>2026-04-19T09:28:33.053Z</time></trkpt><trkpt lat="45.7904131" lon="11.2621826"><ele>551.8</ele><time>2026-04-19T09:28:35.059Z</time></trkpt><trkpt lat="45.7904717" lon="11.262229"><ele>556.0</ele><time>2026-04-19T09:28:38.049Z</time></trkpt><trkpt lat="45.7905645" lon="11.2621488"><ele>556.0</ele><time>2026-04-19T09:28:41.049Z</time></trkpt><trkpt lat="45.7906223" lon="11.2620835"><ele>556.0</ele><time>2026-04-19T09:28:43.035Z</time></trkpt><trkpt lat="45.7906341" lon="11.2619737"><ele>556.0</ele><time>2026-04-19T09:28:46.042Z</time></trkpt><trkpt lat="45.7906576" lon="11.2618481"><ele>556.0</ele><time>2026-04-19T09:29:45.047Z</time></trkpt><trkpt lat="45.7906139" lon="11.2617689"><ele>556.0</ele><time>2026-04-19T09:30:03.048Z</time></trkpt><trkpt lat="45.790549" lon="11.2617097"><ele>556.0</ele><time>2026-04-19T09:30:05.054Z</time></trkpt><trkpt lat="45.7904839" lon="11.2616627"><ele>556.0</ele><time>2026-04-19T09:30:07.048Z</time></trkpt><trkpt lat="45.7904397" lon="11.2615783"><ele>556.0</ele><time>2026-04-19T09:30:09.057Z</time></trkpt><trkpt lat="45.7904554" lon="11.2614351"><ele>556.0</ele><time>2026-04-19T09:30:11.049Z</time></trkpt><trkpt lat="45.7904248" lon="11.2613156"><ele>556.0</ele><time>2026-04-19T09:30:13.061Z</time></trkpt><trkpt lat="45.7903536" lon="11.2611647"><ele>556.0</ele><time>2026-04-19T09:30:15.051Z</time></trkpt><trkpt lat="45.7903106" lon="11.2610011"><ele>557.5</ele><time>2026-04-19T09:30:17.058Z</time></trkpt><trkpt lat="45.7902956" lon="11.2609121"><ele>559.0</ele><time>2026-04-19T09:30:18.041Z</time></trkpt><trkpt lat="45.7902499" lon="11.260838"><ele>560.5</ele><time>2026-04-19T09:30:19.061Z</time></trkpt><trkpt lat="45.7902119" lon="11.2607653"><ele>562.0</ele><time>2026-04-19T09:30:20.061Z</time></trkpt><trkpt lat="45.7902147" lon="11.2606137"><ele>563.5</ele><time>2026-04-19T09:30:22.056Z</time></trkpt><trkpt lat="45.7902314" lon="11.2604886"><ele>565.0</ele><time>2026-04-19T09:30:24.047Z</time></trkpt><trkpt lat="45.790236" lon="11.2603908"><ele>566.2</ele><time>2026-04-19T09:30:26.038Z</time></trkpt><trkpt lat="45.7902406" lon="11.2602513"><ele>567.4</ele><time>2026-04-19T09:30:29.047Z</time></trkpt><trkpt lat="45.7902337" lon="11.2601437"><ele>568.6</ele><time>2026-04-19T09:30:31.044Z</time></trkpt><trkpt lat="45.7902084" lon="11.2600438"><ele>569.8</ele><time>2026-04-19T09:30:33.05Z</time></trkpt><trkpt lat="45.7901551" lon="11.2599326"><ele>571.0</ele><time>2026-04-19T09:30:35.056Z</time></trkpt><trkpt lat="45.7900975" lon="11.2597911"><ele>566.8571428571429</ele><time>2026-04-19T09:30:37.063Z</time></trkpt><trkpt lat="45.7900803" lon="11.2596999"><ele>562.7142857142857</ele><time>2026-04-19T09:30:38.047Z</time></trkpt><trkpt lat="45.7900849" lon="11.2595941"><ele>558.5714285714286</ele><time>2026-04-19T09:30:39.047Z</time></trkpt><trkpt lat="45.790081" lon="11.2594879"><ele>554.4285714285714</ele><time>2026-04-19T09:30:40.05Z</time></trkpt><trkpt lat="45.7900724" lon="11.2593833"><ele>550.2857142857143</ele><time>2026-04-19T09:30:41.039Z</time></trkpt><trkpt lat="45.790051" lon="11.2592824"><ele>546.1428571428571</ele><time>2026-04-19T09:30:42.052Z</time></trkpt><trkpt lat="45.790017" lon="11.2591868"><ele>542.0</ele><time>2026-04-19T09:30:43.055Z</time></trkpt><trkpt lat="45.7899713" lon="11.2590999"><ele>542.0</ele><time>2026-04-19T09:30:44.057Z</time></trkpt><trkpt lat="45.7899334" lon="11.2590084"><ele>542.0</ele><time>2026-04-19T09:30:45.049Z</time></trkpt><trkpt lat="45.7899128" lon="11.2589106"><ele>542.0</ele><time>2026-04-19T09:30:46.038Z</time></trkpt><trkpt lat="45.7899017" lon="11.2588104"><ele>542.0</ele><time>2026-04-19T09:30:47.059Z</time></trkpt><trkpt lat="45.78991" lon="11.2587033"><ele>542.0</ele><time>2026-04-19T09:30:48.053Z</time></trkpt><trkpt lat="45.7899148" lon="11.2585912"><ele>542.0</ele><time>2026-04-19T09:30:49.047Z</time></trkpt><trkpt lat="45.7899181" lon="11.2584737"><ele>542.5</ele><time>2026-04-19T09:30:50.055Z</time></trkpt><trkpt lat="45.7899225" lon="11.2583564"><ele>543.0</ele><time>2026-04-19T09:30:51.044Z</time></trkpt><trkpt lat="45.7899274" lon="11.258243"><ele>543.5</ele><time>2026-04-19T09:30:52.057Z</time></trkpt><trkpt lat="45.7899401" lon="11.2581377"><ele>544.0</ele><time>2026-04-19T09:30:53.04Z</time></trkpt><trkpt lat="45.789949" lon="11.2580378"><ele>544.5</ele><time>2026-04-19T09:30:54.044Z</time></trkpt><trkpt lat="45.7899484" lon="11.2579473"><ele>545.0</ele><time>2026-04-19T09:30:55.048Z</time></trkpt><trkpt lat="45.789897" lon="11.2577885"><ele>545.1666666666666</ele><time>2026-04-19T09:30:57.069Z</time></trkpt><trkpt lat="45.7898458" lon="11.2577301"><ele>545.3333333333333</ele><time>2026-04-19T09:30:58.044Z</time></trkpt><trkpt lat="45.7897828" lon="11.2577054"><ele>545.5</ele><time>2026-04-19T09:30:59.056Z</time></trkpt><trkpt lat="45.7897132" lon="11.2576989"><ele>545.6666666666666</ele><time>2026-04-19T09:31:00.059Z</time></trkpt><trkpt lat="45.7896041" lon="11.2576492"><ele>545.8333333333334</ele><time>2026-04-19T09:31:02.051Z</time></trkpt><trkpt lat="45.7895052" lon="11.2575968"><ele>546.0</ele><time>2026-04-19T09:31:04.061Z</time></trkpt><trkpt lat="45.7894258" lon="11.257528"><ele>546.0</ele><time>2026-04-19T09:31:06.066Z</time></trkpt><trkpt lat="45.7893551" lon="11.2574128"><ele>546.0</ele><time>2026-04-19T09:31:08.056Z</time></trkpt><trkpt lat="45.7893215" lon="11.2573318"><ele>546.0</ele><time>2026-04-19T09:31:09.059Z</time></trkpt><trkpt lat="45.7892926" lon="11.2572419"><ele>546.0</ele><time>2026-04-19T09:31:10.054Z</time></trkpt><trkpt lat="45.7892603" lon="11.2571529"><ele>546.0</ele><time>2026-04-19T09:31:11.061Z</time></trkpt><trkpt lat="45.7892302" lon="11.2570568"><ele>546.0</ele><time>2026-04-19T09:31:12.038Z</time></trkpt><trkpt lat="45.7892066" lon="11.2569558"><ele>545.5</ele><time>2026-04-19T09:31:13.062Z</time></trkpt><trkpt lat="45.7891803" lon="11.256851"><ele>545.0</ele><time>2026-04-19T09:31:14.053Z</time></trkpt><trkpt lat="45.7891624" lon="11.2567381"><ele>544.5</ele><time>2026-04-19T09:31:15.043Z</time></trkpt><trkpt lat="45.7891406" lon="11.2566188"><ele>544.0</ele><time>2026-04-19T09:31:16.061Z</time></trkpt><trkpt lat="45.7891204" lon="11.2564924"><ele>543.5</ele><time>2026-04-19T09:31:17.059Z</time></trkpt><trkpt lat="45.789103" lon="11.2563615"><ele>543.0</ele><time>2026-04-19T09:31:18.061Z</time></trkpt><trkpt lat="45.7890896" lon="11.256225"><ele>544.4</ele><time>2026-04-19T09:31:19.07Z</time></trkpt><trkpt lat="45.7890839" lon="11.2560784"><ele>545.8</ele><time>2026-04-19T09:31:20.061Z</time></trkpt><trkpt lat="45.7890662" lon="11.2559284"><ele>547.2</ele><time>2026-04-19T09:31:21.057Z</time></trkpt><trkpt lat="45.7890534" lon="11.2557764"><ele>548.6</ele><time>2026-04-19T09:31:22.049Z</time></trkpt><trkpt lat="45.7890338" lon="11.2556319"><ele>550.0</ele><time>2026-04-19T09:31:23.08Z</time></trkpt><trkpt lat="45.7890117" lon="11.2554908"><ele>551.2</ele><time>2026-04-19T09:31:24.063Z</time></trkpt><trkpt lat="45.7889876" lon="11.2553519"><ele>552.4</ele><time>2026-04-19T09:31:25.052Z</time></trkpt><trkpt lat="45.7889725" lon="11.2552189"><ele>553.6</ele><time>2026-04-19T09:31:26.056Z</time></trkpt><trkpt lat="45.7889556" lon="11.2550879"><ele>554.8</ele><time>2026-04-19T09:31:27.052Z</time></trkpt><trkpt lat="45.7889341" lon="11.2549569"><ele>556.0</ele><time>2026-04-19T09:31:28.063Z</time></trkpt><trkpt lat="45.7889132" lon="11.2548318"><ele>559.2</ele><time>2026-04-19T09:31:29.062Z</time></trkpt><trkpt lat="45.788892" lon="11.254716"><ele>562.4000000000001</ele><time>2026-04-19T09:31:30.045Z</time></trkpt><trkpt lat="45.7889092" lon="11.2545942"><ele>565.6</ele><time>2026-04-19T09:31:31.068Z</time></trkpt><trkpt lat="45.7889653" lon="11.2544616"><ele>568.8000000000001</ele><time>2026-04-19T09:31:32.047Z</time></trkpt><trkpt lat="45.7890232" lon="11.2543131"><ele>572.0</ele><time>2026-04-19T09:31:33.062Z</time></trkpt><trkpt lat="45.7890634" lon="11.2541568"><ele>572.0</ele><time>2026-04-19T09:31:34.052Z</time></trkpt><trkpt lat="45.7890845" lon="11.2539881"><ele>572.0</ele><time>2026-04-19T09:31:35.061Z</time></trkpt><trkpt lat="45.7891009" lon="11.2538154"><ele>572.0</ele><time>2026-04-19T09:31:36.041Z</time></trkpt><trkpt lat="45.7891216" lon="11.2536453"><ele>572.0</ele><time>2026-04-19T09:31:37.071Z</time></trkpt><trkpt lat="45.7891263" lon="11.2534728"><ele>574.25</ele><time>2026-04-19T09:31:38.045Z</time></trkpt><trkpt lat="45.7891092" lon="11.2532973"><ele>576.5</ele><time>2026-04-19T09:31:39.061Z</time></trkpt><trkpt lat="45.7890986" lon="11.2531208"><ele>578.75</ele><time>2026-04-19T09:31:40.057Z</time></trkpt><trkpt lat="45.7890635" lon="11.2529376"><ele>581.0</ele><time>2026-04-19T09:31:41.059Z</time></trkpt><trkpt lat="45.789016" lon="11.2527443"><ele>583.25</ele><time>2026-04-19T09:31:42.058Z</time></trkpt><trkpt lat="45.7889973" lon="11.2525419"><ele>585.5</ele><time>2026-04-19T09:31:43.066Z</time></trkpt><trkpt lat="45.7889773" lon="11.2523405"><ele>587.75</ele><time>2026-04-19T09:31:44.044Z</time></trkpt><trkpt lat="45.7889551" lon="11.2521542"><ele>590.0</ele><time>2026-04-19T09:31:45.048Z</time></trkpt><trkpt lat="45.7889345" lon="11.2519699"><ele>591.5</ele><time>2026-04-19T09:31:46.051Z</time></trkpt><trkpt lat="45.7889293" lon="11.2517822"><ele>593.0</ele><time>2026-04-19T09:31:47.059Z</time></trkpt><trkpt lat="45.7889363" lon="11.2516018"><ele>594.5</ele><time>2026-04-19T09:31:48.052Z</time></trkpt><trkpt lat="45.7889373" lon="11.2514263"><ele>596.0</ele><time>2026-04-19T09:31:49.049Z</time></trkpt><trkpt lat="45.7889499" lon="11.2512531"><ele>598.0</ele><time>2026-04-19T09:31:50.047Z</time></trkpt><trkpt lat="45.7889846" lon="11.2510906"><ele>600.0</ele><time>2026-04-19T09:31:51.04Z</time></trkpt><trkpt lat="45.7890057" lon="11.2509268"><ele>602.0</ele><time>2026-04-19T09:31:52.043Z</time></trkpt><trkpt lat="45.7890407" lon="11.2507711"><ele>604.0</ele><time>2026-04-19T09:31:53.06Z</time></trkpt><trkpt lat="45.7890737" lon="11.2506388"><ele>606.0</ele><time>2026-04-19T09:31:54.049Z</time></trkpt><trkpt lat="45.7891054" lon="11.2505306"><ele>606.0</ele><time>2026-04-19T09:31:55.065Z</time></trkpt><trkpt lat="45.789153" lon="11.2503923"><ele>606.0</ele><time>2026-04-19T09:31:57.047Z</time></trkpt><trkpt lat="45.7891217" lon="11.2502994"><ele>606.0</ele><time>2026-04-19T09:31:58.07Z</time></trkpt><trkpt lat="45.7891005" lon="11.2502103"><ele>606.0</ele><time>2026-04-19T09:31:59.061Z</time></trkpt><trkpt lat="45.7890181" lon="11.2501472"><ele>606.0</ele><time>2026-04-19T09:32:00.079Z</time></trkpt><trkpt lat="45.7889465" lon="11.2500927"><ele>606.0</ele><time>2026-04-19T09:32:01.05Z</time></trkpt><trkpt lat="45.7888527" lon="11.2500508"><ele>606.0</ele><time>2026-04-19T09:32:02.045Z</time></trkpt><trkpt lat="45.788762" lon="11.2500307"><ele>606.0</ele><time>2026-04-19T09:32:03.061Z</time></trkpt><trkpt lat="45.7886807" lon="11.2500031"><ele>606.0</ele><time>2026-04-19T09:32:04.04Z</time></trkpt><trkpt lat="45.7886236" lon="11.2499307"><ele>606.0</ele><time>2026-04-19T09:32:05.06Z</time></trkpt><trkpt lat="45.788599" lon="11.2498332"><ele>606.0</ele><time>2026-04-19T09:32:06.063Z</time></trkpt><trkpt lat="45.788583" lon="11.249718"><ele>606.0</ele><time>2026-04-19T09:32:07.053Z</time></trkpt><trkpt lat="45.7886136" lon="11.2496033"><ele>607.3333333333334</ele><time>2026-04-19T09:32:08.045Z</time></trkpt><trkpt lat="45.7886112" lon="11.2494871"><ele>608.6666666666666</ele><time>2026-04-19T09:32:09.05Z</time></trkpt><trkpt lat="45.7885614" lon="11.2493806"><ele>610.0</ele><time>2026-04-19T09:32:10.041Z</time></trkpt><trkpt lat="45.788499" lon="11.2492764"><ele>611.3333333333333</ele><time>2026-04-19T09:32:11.062Z</time></trkpt><trkpt lat="45.7884126" lon="11.2492134"><ele>612.6666666666666</ele><time>2026-04-19T09:32:12.063Z</time></trkpt><trkpt lat="45.7883449" lon="11.249144"><ele>614.0</ele><time>2026-04-19T09:32:13.057Z</time></trkpt><trkpt lat="45.7883012" lon="11.2490666"><ele>616.3333333333333</ele><time>2026-04-19T09:32:14.047Z</time></trkpt><trkpt lat="45.7882677" lon="11.2489626"><ele>618.6666666666666</ele><time>2026-04-19T09:32:16.046Z</time></trkpt><trkpt lat="45.7883296" lon="11.2488763"><ele>621.0</ele><time>2026-04-19T09:32:18.054Z</time></trkpt><trkpt lat="45.7884038" lon="11.2488614"><ele>623.3333333333334</ele><time>2026-04-19T09:32:19.048Z</time></trkpt><trkpt lat="45.7885006" lon="11.2488728"><ele>625.6666666666667</ele><time>2026-04-19T09:32:20.038Z</time></trkpt><trkpt lat="45.7886035" lon="11.2488973"><ele>628.0</ele><time>2026-04-19T09:32:21.058Z</time></trkpt><trkpt lat="45.7887208" lon="11.2489286"><ele>629.5</ele><time>2026-04-19T09:32:22.047Z</time></trkpt><trkpt lat="45.7888792" lon="11.2489415"><ele>631.0</ele><time>2026-04-19T09:32:23.05Z</time></trkpt><trkpt lat="45.7890272" lon="11.248949"><ele>632.5</ele><time>2026-04-19T09:32:24.048Z</time></trkpt><trkpt lat="45.7891586" lon="11.2489517"><ele>634.0</ele><time>2026-04-19T09:32:25.047Z</time></trkpt><trkpt lat="45.7892551" lon="11.2489479"><ele>630.2</ele><time>2026-04-19T09:32:26.038Z</time></trkpt><trkpt lat="45.7893433" lon="11.2489678"><ele>626.4</ele><time>2026-04-19T09:32:27.046Z</time></trkpt><trkpt lat="45.7894346" lon="11.2489927"><ele>622.6</ele><time>2026-04-19T09:32:28.049Z</time></trkpt><trkpt lat="45.789522" lon="11.2489588"><ele>618.8</ele><time>2026-04-19T09:32:29.042Z</time></trkpt><trkpt lat="45.7895885" lon="11.2488653"><ele>615.0</ele><time>2026-04-19T09:32:31.047Z</time></trkpt><trkpt lat="45.7896338" lon="11.2486737"><ele>615.0</ele><time>2026-04-19T09:32:33.066Z</time></trkpt><trkpt lat="45.7896152" lon="11.2485358"><ele>615.0</ele><time>2026-04-19T09:32:34.037Z</time></trkpt><trkpt lat="45.7895976" lon="11.2483713"><ele>615.0</ele><time>2026-04-19T09:32:35.039Z</time></trkpt><trkpt lat="45.7895814" lon="11.2481976"><ele>615.0</ele><time>2026-04-19T09:32:36.059Z</time></trkpt><trkpt lat="45.7895497" lon="11.2480183"><ele>616.25</ele><time>2026-04-19T09:32:37.044Z</time></trkpt><trkpt lat="45.7895236" lon="11.2478417"><ele>617.5</ele><time>2026-04-19T09:32:38.037Z</time></trkpt><trkpt lat="45.7895067" lon="11.2476796"><ele>618.75</ele><time>2026-04-19T09:32:39.07Z</time></trkpt><trkpt lat="45.7895101" lon="11.2475057"><ele>620.0</ele><time>2026-04-19T09:32:40.043Z</time></trkpt><trkpt lat="45.7895014" lon="11.247322"><ele>623.25</ele><time>2026-04-19T09:32:41.064Z</time></trkpt><trkpt lat="45.789487" lon="11.2471488"><ele>626.5</ele><time>2026-04-19T09:32:42.044Z</time></trkpt><trkpt lat="45.7894661" lon="11.2469848"><ele>629.75</ele><time>2026-04-19T09:32:43.054Z</time></trkpt><trkpt lat="45.789436" lon="11.2468307"><ele>633.0</ele><time>2026-04-19T09:32:44.048Z</time></trkpt><trkpt lat="45.7894279" lon="11.2466847"><ele>633.0</ele><time>2026-04-19T09:32:45.078Z</time></trkpt><trkpt lat="45.7894367" lon="11.2465498"><ele>633.0</ele><time>2026-04-19T09:32:46.059Z</time></trkpt><trkpt lat="45.7894242" lon="11.246425"><ele>633.0</ele><time>2026-04-19T09:32:47.045Z</time></trkpt><trkpt lat="45.7894204" lon="11.2463176"><ele>633.0</ele><time>2026-04-19T09:32:48.035Z</time></trkpt><trkpt lat="45.7894276" lon="11.2461497"><ele>633.0</ele><time>2026-04-19T09:32:50.038Z</time></trkpt><trkpt lat="45.7895025" lon="11.2459829"><ele>637.5999999999999</ele><time>2026-04-19T09:32:52.046Z</time></trkpt><trkpt lat="45.789572" lon="11.2458932"><ele>642.1999999999999</ele><time>2026-04-19T09:32:53.045Z</time></trkpt><trkpt lat="45.789628" lon="11.2458072"><ele>646.8</ele><time>2026-04-19T09:32:54.042Z</time></trkpt><trkpt lat="45.7897547" lon="11.2458047"><ele>651.4</ele><time>2026-04-19T09:32:56.049Z</time></trkpt><trkpt lat="45.7898539" lon="11.2458349"><ele>656.0</ele><time>2026-04-19T09:32:57.057Z</time></trkpt><trkpt lat="45.7899225" lon="11.2459172"><ele>656.0</ele><time>2026-04-19T09:32:58.053Z</time></trkpt><trkpt lat="45.7899804" lon="11.2459848"><ele>656.0</ele><time>2026-04-19T09:32:59.049Z</time></trkpt><trkpt lat="45.7900427" lon="11.2460289"><ele>656.0</ele><time>2026-04-19T09:33:00.037Z</time></trkpt><trkpt lat="45.7901182" lon="11.2459961"><ele>656.0</ele><time>2026-04-19T09:33:01.054Z</time></trkpt><trkpt lat="45.7901798" lon="11.2459225"><ele>656.0</ele><time>2026-04-19T09:33:02.047Z</time></trkpt><trkpt lat="45.7902439" lon="11.2458116"><ele>656.0</ele><time>2026-04-19T09:33:04.059Z</time></trkpt><trkpt lat="45.7901489" lon="11.2458482"><ele>656.0</ele><time>2026-04-19T09:33:16.048Z</time></trkpt><trkpt lat="45.7900873" lon="11.2458218"><ele>656.0</ele><time>2026-04-19T09:33:17.061Z</time></trkpt><trkpt lat="45.7900324" lon="11.2457557"><ele>656.0</ele><time>2026-04-19T09:33:18.028Z</time></trkpt><trkpt lat="45.7899814" lon="11.2456573"><ele>656.0</ele><time>2026-04-19T09:33:19.041Z</time></trkpt><trkpt lat="45.78993" lon="11.2455571"><ele>656.0</ele><time>2026-04-19T09:33:20.047Z</time></trkpt><trkpt lat="45.7898549" lon="11.2455028"><ele>656.0</ele><time>2026-04-19T09:33:21.046Z</time></trkpt><trkpt lat="45.7897732" lon="11.2454829"><ele>660.8</ele><time>2026-04-19T09:33:22.049Z</time></trkpt><trkpt lat="45.7896757" lon="11.2455031"><ele>665.5999999999999</ele><time>2026-04-19T09:33:23.039Z</time></trkpt><trkpt lat="45.7895703" lon="11.2455267"><ele>670.4</ele><time>2026-04-19T09:33:24.069Z</time></trkpt><trkpt lat="45.789473" lon="11.2455549"><ele>675.2</ele><time>2026-04-19T09:33:25.054Z</time></trkpt><trkpt lat="45.7893837" lon="11.2455841"><ele>680.0</ele><time>2026-04-19T09:33:26.043Z</time></trkpt><trkpt lat="45.7893039" lon="11.2456192"><ele>677.8</ele><time>2026-04-19T09:33:27.052Z</time></trkpt><trkpt lat="45.789238" lon="11.2456946"><ele>675.6</ele><time>2026-04-19T09:33:28.051Z</time></trkpt><trkpt lat="45.7892096" lon="11.2458286"><ele>673.4000000000001</ele><time>2026-04-19T09:33:29.042Z</time></trkpt><trkpt lat="45.7891827" lon="11.2459738"><ele>671.2</ele><time>2026-04-19T09:33:30.051Z</time></trkpt><trkpt lat="45.7891565" lon="11.2461045"><ele>669.0</ele><time>2026-04-19T09:33:31.052Z</time></trkpt><trkpt lat="45.7891288" lon="11.246213"><ele>669.0</ele><time>2026-04-19T09:33:32.044Z</time></trkpt><trkpt lat="45.7890828" lon="11.2462808"><ele>669.0</ele><time>2026-04-19T09:33:33.048Z</time></trkpt><trkpt lat="45.7889477" lon="11.246359"><ele>669.0</ele><time>2026-04-19T09:33:35.051Z</time></trkpt><trkpt lat="45.7888483" lon="11.246408"><ele>669.0</ele><time>2026-04-19T09:33:36.041Z</time></trkpt><trkpt lat="45.7887366" lon="11.2464661"><ele>669.0</ele><time>2026-04-19T09:33:37.051Z</time></trkpt><trkpt lat="45.7886161" lon="11.2464856"><ele>669.25</ele><time>2026-04-19T09:33:38.042Z</time></trkpt><trkpt lat="45.788497" lon="11.246522"><ele>669.5</ele><time>2026-04-19T09:33:39.059Z</time></trkpt><trkpt lat="45.7883647" lon="11.2465168"><ele>669.75</ele><time>2026-04-19T09:33:40.057Z</time></trkpt><trkpt lat="45.7882462" lon="11.2465042"><ele>670.0</ele><time>2026-04-19T09:33:41.051Z</time></trkpt><trkpt lat="45.7881331" lon="11.2465143"><ele>670.0</ele><time>2026-04-19T09:33:42.048Z</time></trkpt><trkpt lat="45.7880212" lon="11.2465322"><ele>670.0</ele><time>2026-04-19T09:33:43.052Z</time></trkpt><trkpt lat="45.7879137" lon="11.2465697"><ele>670.0</ele><time>2026-04-19T09:33:44.053Z</time></trkpt><trkpt lat="45.7878105" lon="11.2465707"><ele>670.0</ele><time>2026-04-19T09:33:45.064Z</time></trkpt><trkpt lat="45.7877122" lon="11.2465724"><ele>670.0</ele><time>2026-04-19T09:33:46.049Z</time></trkpt><trkpt lat="45.7876285" lon="11.2465708"><ele>673.6</ele><time>2026-04-19T09:33:47.047Z</time></trkpt><trkpt lat="45.7875535" lon="11.2466054"><ele>677.2</ele><time>2026-04-19T09:33:48.046Z</time></trkpt><trkpt lat="45.7874844" lon="11.2466791"><ele>680.8</ele><time>2026-04-19T09:33:49.059Z</time></trkpt><trkpt lat="45.7874223" lon="11.2467723"><ele>684.4</ele><time>2026-04-19T09:33:50.057Z</time></trkpt><trkpt lat="45.7873846" lon="11.2469045"><ele>688.0</ele><time>2026-04-19T09:33:51.075Z</time></trkpt><trkpt lat="45.7873316" lon="11.2470217"><ele>688.0</ele><time>2026-04-19T09:33:52.054Z</time></trkpt><trkpt lat="45.7872672" lon="11.2471073"><ele>688.0</ele><time>2026-04-19T09:33:53.055Z</time></trkpt><trkpt lat="45.7872057" lon="11.2471865"><ele>688.0</ele><time>2026-04-19T09:33:54.063Z</time></trkpt><trkpt lat="45.7871061" lon="11.2472416"><ele>688.0</ele><time>2026-04-19T09:33:55.043Z</time></trkpt><trkpt lat="45.7869817" lon="11.2472919"><ele>688.0</ele><time>2026-04-19T09:33:56.06Z</time></trkpt><trkpt lat="45.7868609" lon="11.2473521"><ele>688.4</ele><time>2026-04-19T09:33:57.054Z</time></trkpt><trkpt lat="45.7867657" lon="11.2474273"><ele>688.8</ele><time>2026-04-19T09:33:58.071Z</time></trkpt><trkpt lat="45.7866627" lon="11.2474251"><ele>689.2</ele><time>2026-04-19T09:33:59.047Z</time></trkpt><trkpt lat="45.7865612" lon="11.247425"><ele>689.6</ele><time>2026-04-19T09:34:00.052Z</time></trkpt><trkpt lat="45.786457" lon="11.247423"><ele>690.0</ele><time>2026-04-19T09:34:01.053Z</time></trkpt><trkpt lat="45.7863543" lon="11.2474278"><ele>690.0</ele><time>2026-04-19T09:34:02.036Z</time></trkpt><trkpt lat="45.7862696" lon="11.2474785"><ele>690.0</ele><time>2026-04-19T09:34:03.047Z</time></trkpt><trkpt lat="45.7862179" lon="11.2475692"><ele>690.0</ele><time>2026-04-19T09:34:04.047Z</time></trkpt><trkpt lat="45.7861971" lon="11.2476946"><ele>690.0</ele><time>2026-04-19T09:34:05.059Z</time></trkpt><trkpt lat="45.7861777" lon="11.2478072"><ele>690.0</ele><time>2026-04-19T09:34:06.049Z</time></trkpt><trkpt lat="45.7861757" lon="11.2479175"><ele>690.0</ele><time>2026-04-19T09:34:07.049Z</time></trkpt><trkpt lat="45.7861087" lon="11.2480534"><ele>693.25</ele><time>2026-04-19T09:34:09.047Z</time></trkpt><trkpt lat="45.785946" lon="11.2480165"><ele>696.5</ele><time>2026-04-19T09:34:11.038Z</time></trkpt><trkpt lat="45.7858108" lon="11.2479642"><ele>699.75</ele><time>2026-04-19T09:34:12.044Z</time></trkpt><trkpt lat="45.7856745" lon="11.247898"><ele>703.0</ele><time>2026-04-19T09:34:13.057Z</time></trkpt><trkpt lat="45.7855449" lon="11.2478466"><ele>703.0</ele><time>2026-04-19T09:34:14.032Z</time></trkpt><trkpt lat="45.7854254" lon="11.2478122"><ele>703.0</ele><time>2026-04-19T09:34:15.054Z</time></trkpt><trkpt lat="45.7853227" lon="11.247795"><ele>703.0</ele><time>2026-04-19T09:34:16.052Z</time></trkpt><trkpt lat="45.7852326" lon="11.2477863"><ele>703.0</ele><time>2026-04-19T09:34:17.056Z</time></trkpt><trkpt lat="45.785145" lon="11.247795"><ele>703.0</ele><time>2026-04-19T09:34:18.048Z</time></trkpt><trkpt lat="45.7850621" lon="11.2477752"><ele>704.5999999999999</ele><time>2026-04-19T09:34:19.046Z</time></trkpt><trkpt lat="45.7849845" lon="11.2477112"><ele>706.1999999999999</ele><time>2026-04-19T09:34:20.06Z</time></trkpt><trkpt lat="45.7849127" lon="11.2476216"><ele>707.8</ele><time>2026-04-19T09:34:21.04Z</time></trkpt><trkpt lat="45.7848329" lon="11.2475321"><ele>709.4</ele><time>2026-04-19T09:34:22.046Z</time></trkpt><trkpt lat="45.7847442" lon="11.2474385"><ele>711.0</ele><time>2026-04-19T09:34:23.043Z</time></trkpt><trkpt lat="45.7846448" lon="11.2473646"><ele>711.0</ele><time>2026-04-19T09:34:24.036Z</time></trkpt><trkpt lat="45.7845457" lon="11.2473149"><ele>711.0</ele><time>2026-04-19T09:34:25.061Z</time></trkpt><trkpt lat="45.7844555" lon="11.2472871"><ele>711.0</ele><time>2026-04-19T09:34:26.049Z</time></trkpt><trkpt lat="45.7843745" lon="11.2472767"><ele>711.0</ele><time>2026-04-19T09:34:27.054Z</time></trkpt><trkpt lat="45.7843091" lon="11.247269"><ele>711.0</ele><time>2026-04-19T09:34:28.066Z</time></trkpt><trkpt lat="45.7842397" lon="11.2472299"><ele>711.0</ele><time>2026-04-19T09:34:30.059Z</time></trkpt><trkpt lat="45.7843204" lon="11.2471433"><ele>714.5999999999999</ele><time>2026-04-19T09:34:34.054Z</time></trkpt><trkpt lat="45.7844235" lon="11.2471305"><ele>718.2</ele><time>2026-04-19T09:34:35.05Z</time></trkpt><trkpt lat="45.7845295" lon="11.2470923"><ele>721.8</ele><time>2026-04-19T09:34:36.047Z</time></trkpt><trkpt lat="45.7846324" lon="11.2470198"><ele>725.4000000000001</ele><time>2026-04-19T09:34:37.055Z</time></trkpt><trkpt lat="45.7847342" lon="11.2469752"><ele>729.0</ele><time>2026-04-19T09:34:38.059Z</time></trkpt><trkpt lat="45.7848326" lon="11.246967"><ele>729.0</ele><time>2026-04-19T09:34:39.062Z</time></trkpt><trkpt lat="45.7849239" lon="11.2470124"><ele>729.0</ele><time>2026-04-19T09:34:40.045Z</time></trkpt><trkpt lat="45.7849984" lon="11.247092"><ele>729.0</ele><time>2026-04-19T09:34:41.051Z</time></trkpt><trkpt lat="45.7850751" lon="11.2471444"><ele>729.0</ele><time>2026-04-19T09:34:42.047Z</time></trkpt><trkpt lat="45.7851581" lon="11.2471604"><ele>729.0</ele><time>2026-04-19T09:34:43.054Z</time></trkpt><trkpt lat="45.7852418" lon="11.2471438"><ele>729.0</ele><time>2026-04-19T09:34:44.057Z</time></trkpt><trkpt lat="45.7853199" lon="11.2471013"><ele>727.0</ele><time>2026-04-19T09:34:45.048Z</time></trkpt><trkpt lat="45.7853982" lon="11.2470158"><ele>725.0</ele><time>2026-04-19T09:34:46.04Z</time></trkpt><trkpt lat="45.7854833" lon="11.2468768"><ele>723.0</ele><time>2026-04-19T09:34:47.038Z</time></trkpt><trkpt lat="45.785571" lon="11.2467351"><ele>721.0</ele><time>2026-04-19T09:34:48.037Z</time></trkpt><trkpt lat="45.7857069" lon="11.2466208"><ele>721.0</ele><time>2026-04-19T09:34:49.036Z</time></trkpt><trkpt lat="45.785805" lon="11.2464889"><ele>721.0</ele><time>2026-04-19T09:34:50.069Z</time></trkpt><trkpt lat="45.7858991" lon="11.2463696"><ele>721.0</ele><time>2026-04-19T09:34:51.05Z</time></trkpt><trkpt lat="45.7859875" lon="11.2462641"><ele>721.0</ele><time>2026-04-19T09:34:52.059Z</time></trkpt><trkpt lat="45.7860773" lon="11.2461756"><ele>724.1999999999999</ele><time>2026-04-19T09:34:53.046Z</time></trkpt><trkpt lat="45.786168" lon="11.2460872"><ele>727.4</ele><time>2026-04-19T09:34:54.044Z</time></trkpt><trkpt lat="45.7862591" lon="11.2459826"><ele>730.6</ele><time>2026-04-19T09:34:55.044Z</time></trkpt><trkpt lat="45.7863583" lon="11.2459006"><ele>733.8</ele><time>2026-04-19T09:34:56.043Z</time></trkpt><trkpt lat="45.7864357" lon="11.2458166"><ele>737.0</ele><time>2026-04-19T09:34:57.053Z</time></trkpt><trkpt lat="45.7864943" lon="11.2457425"><ele>737.0</ele><time>2026-04-19T09:34:58.06Z</time></trkpt><trkpt lat="45.7865488" lon="11.2456795"><ele>737.0</ele><time>2026-04-19T09:34:59.056Z</time></trkpt><trkpt lat="45.7865966" lon="11.2455923"><ele>737.0</ele><time>2026-04-19T09:35:00.059Z</time></trkpt><trkpt lat="45.7866574" lon="11.2454932"><ele>737.0</ele><time>2026-04-19T09:35:01.055Z</time></trkpt><trkpt lat="45.7867092" lon="11.2453663"><ele>737.0</ele><time>2026-04-19T09:35:02.057Z</time></trkpt><trkpt lat="45.7867509" lon="11.2452274"><ele>737.0</ele><time>2026-04-19T09:35:03.044Z</time></trkpt><trkpt lat="45.7867801" lon="11.2451114"><ele>739.1428571428572</ele><time>2026-04-19T09:35:04.04Z</time></trkpt><trkpt lat="45.7868" lon="11.245006"><ele>741.2857142857143</ele><time>2026-04-19T09:35:05.047Z</time></trkpt><trkpt lat="45.7868218" lon="11.2449184"><ele>743.4285714285714</ele><time>2026-04-19T09:35:06.047Z</time></trkpt><trkpt lat="45.7868397" lon="11.2448272"><ele>745.5714285714287</ele><time>2026-04-19T09:35:07.041Z</time></trkpt><trkpt lat="45.7868455" lon="11.2447267"><ele>747.7142857142857</ele><time>2026-04-19T09:35:08.052Z</time></trkpt><trkpt lat="45.7868579" lon="11.2446317"><ele>749.8571428571429</ele><time>2026-04-19T09:35:09.048Z</time></trkpt><trkpt lat="45.7868867" lon="11.2445414"><ele>752.0</ele><time>2026-04-19T09:35:10.039Z</time></trkpt><trkpt lat="45.7869378" lon="11.2444721"><ele>752.0</ele><time>2026-04-19T09:35:11.045Z</time></trkpt><trkpt lat="45.7870094" lon="11.2444292"><ele>752.0</ele><time>2026-04-19T09:35:12.053Z</time></trkpt><trkpt lat="45.7870897" lon="11.2443896"><ele>752.0</ele><time>2026-04-19T09:35:13.04Z</time></trkpt><trkpt lat="45.7871468" lon="11.2443179"><ele>752.0</ele><time>2026-04-19T09:35:14.055Z</time></trkpt><trkpt lat="45.7872184" lon="11.2442195"><ele>752.0</ele><time>2026-04-19T09:35:15.036Z</time></trkpt><trkpt lat="45.7872898" lon="11.2440992"><ele>752.0</ele><time>2026-04-19T09:35:16.037Z</time></trkpt><trkpt lat="45.7873554" lon="11.2439579"><ele>754.5</ele><time>2026-04-19T09:35:17.046Z</time></trkpt><trkpt lat="45.7874286" lon="11.2437935"><ele>757.0</ele><time>2026-04-19T09:35:18.053Z</time></trkpt><trkpt lat="45.7875293" lon="11.2436557"><ele>759.5</ele><time>2026-04-19T09:35:19.04Z</time></trkpt><trkpt lat="45.787669" lon="11.2435955"><ele>762.0</ele><time>2026-04-19T09:35:20.065Z</time></trkpt><trkpt lat="45.787784" lon="11.2434893"><ele>762.0</ele><time>2026-04-19T09:35:21.054Z</time></trkpt><trkpt lat="45.7878819" lon="11.2433607"><ele>762.0</ele><time>2026-04-19T09:35:22.037Z</time></trkpt><trkpt lat="45.7879675" lon="11.2432482"><ele>762.0</ele><time>2026-04-19T09:35:23.04Z</time></trkpt><trkpt lat="45.7880544" lon="11.243129"><ele>762.0</ele><time>2026-04-19T09:35:24.044Z</time></trkpt><trkpt lat="45.788111" lon="11.2429997"><ele>767.0</ele><time>2026-04-19T09:35:25.038Z</time></trkpt><trkpt lat="45.7881823" lon="11.2429008"><ele>772.0</ele><time>2026-04-19T09:35:26.044Z</time></trkpt><trkpt lat="45.788252" lon="11.2428365"><ele>777.0</ele><time>2026-04-19T09:35:27.054Z</time></trkpt><trkpt lat="45.7883296" lon="11.2428127"><ele>782.0</ele><time>2026-04-19T09:35:28.05Z</time></trkpt><trkpt lat="45.7884363" lon="11.2427996"><ele>787.0</ele><time>2026-04-19T09:35:29.049Z</time></trkpt><trkpt lat="45.7885512" lon="11.2427578"><ele>787.0</ele><time>2026-04-19T09:35:30.05Z</time></trkpt><trkpt lat="45.7886579" lon="11.2426993"><ele>787.0</ele><time>2026-04-19T09:35:31.046Z</time></trkpt><trkpt lat="45.7887747" lon="11.2426646"><ele>787.0</ele><time>2026-04-19T09:35:32.05Z</time></trkpt><trkpt lat="45.7888986" lon="11.2426753"><ele>787.0</ele><time>2026-04-19T09:35:33.059Z</time></trkpt><trkpt lat="45.7890165" lon="11.2427447"><ele>787.0</ele><time>2026-04-19T09:35:34.052Z</time></trkpt><trkpt lat="45.7891299" lon="11.2427958"><ele>787.0</ele><time>2026-04-19T09:35:35.053Z</time></trkpt><trkpt lat="45.7892419" lon="11.2427962"><ele>787.0</ele><time>2026-04-19T09:35:36.046Z</time></trkpt><trkpt lat="45.7893683" lon="11.2427919"><ele>787.0</ele><time>2026-04-19T09:35:37.047Z</time></trkpt><trkpt lat="45.7894835" lon="11.242745"><ele>784.9999999999999</ele><time>2026-04-19T09:35:38.04Z</time></trkpt><trkpt lat="45.7895742" lon="11.2427086"><ele>783.0</ele><time>2026-04-19T09:35:39.045Z</time></trkpt><trkpt lat="45.7896461" lon="11.2426846"><ele>781.0</ele><time>2026-04-19T09:35:40.072Z</time></trkpt><trkpt lat="45.7897171" lon="11.2425825"><ele>779.0</ele><time>2026-04-19T09:35:41.055Z</time></trkpt><trkpt lat="45.7897821" lon="11.242485"><ele>776.9999999999999</ele><time>2026-04-19T09:35:42.038Z</time></trkpt><trkpt lat="45.7898" lon="11.2423893"><ele>775.0</ele><time>2026-04-19T09:35:43.09Z</time></trkpt><trkpt lat="45.7897109" lon="11.2420705"><ele>775.0</ele><time>2026-04-19T09:35:45.046Z</time></trkpt><trkpt lat="45.7896861" lon="11.2419176"><ele>775.0</ele><time>2026-04-19T09:35:46.054Z</time></trkpt><trkpt lat="45.7896545" lon="11.2417511"><ele>775.0</ele><time>2026-04-19T09:35:47.045Z</time></trkpt><trkpt lat="45.7896124" lon="11.2415896"><ele>775.0</ele><time>2026-04-19T09:35:48.042Z</time></trkpt><trkpt lat="45.7895868" lon="11.2414283"><ele>774.0</ele><time>2026-04-19T09:35:49.082Z</time></trkpt><trkpt lat="45.7895578" lon="11.2412482"><ele>773.0</ele><time>2026-04-19T09:35:50.057Z</time></trkpt><trkpt lat="45.7895257" lon="11.2410591"><ele>772.0</ele><time>2026-04-19T09:35:51.049Z</time></trkpt><trkpt lat="45.7895057" lon="11.2408728"><ele>771.0</ele><time>2026-04-19T09:35:52.056Z</time></trkpt><trkpt lat="45.7895072" lon="11.2406927"><ele>771.1999999999999</ele><time>2026-04-19T09:35:53.048Z</time></trkpt><trkpt lat="45.7894951" lon="11.2405275"><ele>771.4</ele><time>2026-04-19T09:35:54.035Z</time></trkpt><trkpt lat="45.7894602" lon="11.2403845"><ele>771.6</ele><time>2026-04-19T09:35:55.058Z</time></trkpt><trkpt lat="45.7893995" lon="11.2402582"><ele>771.8</ele><time>2026-04-19T09:35:56.063Z</time></trkpt><trkpt lat="45.7892996" lon="11.2401915"><ele>772.0</ele><time>2026-04-19T09:35:57.044Z</time></trkpt><trkpt lat="45.789215" lon="11.2401037"><ele>779.2</ele><time>2026-04-19T09:35:58.033Z</time></trkpt><trkpt lat="45.7891442" lon="11.2399941"><ele>786.4000000000001</ele><time>2026-04-19T09:35:59.043Z</time></trkpt><trkpt lat="45.7890847" lon="11.2398995"><ele>793.5999999999999</ele><time>2026-04-19T09:36:00.042Z</time></trkpt><trkpt lat="45.7890681" lon="11.2397586"><ele>800.8</ele><time>2026-04-19T09:36:01.043Z</time></trkpt><trkpt lat="45.7890481" lon="11.2395918"><ele>808.0</ele><time>2026-04-19T09:36:02.039Z</time></trkpt><trkpt lat="45.7890312" lon="11.2394367"><ele>808.0</ele><time>2026-04-19T09:36:03.071Z</time></trkpt><trkpt lat="45.788995" lon="11.2392792"><ele>808.0</ele><time>2026-04-19T09:36:04.061Z</time></trkpt><trkpt lat="45.7889511" lon="11.2391794"><ele>808.0</ele><time>2026-04-19T09:36:05.055Z</time></trkpt><trkpt lat="45.7889666" lon="11.23904"><ele>808.0</ele><time>2026-04-19T09:36:06.032Z</time></trkpt><trkpt lat="45.788992" lon="11.2388942"><ele>808.0</ele><time>2026-04-19T09:36:07.038Z</time></trkpt><trkpt lat="45.7890162" lon="11.2387763"><ele>807.0</ele><time>2026-04-19T09:36:08.04Z</time></trkpt><trkpt lat="45.788989" lon="11.2386184"><ele>806.0</ele><time>2026-04-19T09:36:09.043Z</time></trkpt><trkpt lat="45.7889167" lon="11.2384444"><ele>805.0</ele><time>2026-04-19T09:36:10.054Z</time></trkpt><trkpt lat="45.7888147" lon="11.2383157"><ele>804.0</ele><time>2026-04-19T09:36:11.058Z</time></trkpt><trkpt lat="45.7887407" lon="11.2381869"><ele>803.5</ele><time>2026-04-19T09:36:12.05Z</time></trkpt><trkpt lat="45.7886869" lon="11.2380768"><ele>803.0</ele><time>2026-04-19T09:36:13.05Z</time></trkpt><trkpt lat="45.7886444" lon="11.2379709"><ele>802.5</ele><time>2026-04-19T09:36:14.05Z</time></trkpt><trkpt lat="45.7886174" lon="11.2378567"><ele>802.0</ele><time>2026-04-19T09:36:15.054Z</time></trkpt><trkpt lat="45.7886038" lon="11.2377423"><ele>801.5</ele><time>2026-04-19T09:36:16.062Z</time></trkpt><trkpt lat="45.7885845" lon="11.2376097"><ele>801.0</ele><time>2026-04-19T09:36:17.044Z</time></trkpt><trkpt lat="45.7885976" lon="11.2374558"><ele>803.75</ele><time>2026-04-19T09:36:18.049Z</time></trkpt><trkpt lat="45.7886541" lon="11.2372882"><ele>806.5</ele><time>2026-04-19T09:36:19.059Z</time></trkpt><trkpt lat="45.7887404" lon="11.2371276"><ele>809.25</ele><time>2026-04-19T09:36:20.05Z</time></trkpt><trkpt lat="45.7888065" lon="11.2369798"><ele>812.0</ele><time>2026-04-19T09:36:21.061Z</time></trkpt><trkpt lat="45.7888355" lon="11.2368252"><ele>812.0</ele><time>2026-04-19T09:36:22.06Z</time></trkpt><trkpt lat="45.7888425" lon="11.236656"><ele>812.0</ele><time>2026-04-19T09:36:23.04Z</time></trkpt><trkpt lat="45.788849" lon="11.2364944"><ele>812.0</ele><time>2026-04-19T09:36:24.068Z</time></trkpt><trkpt lat="45.7888603" lon="11.2363546"><ele>812.0</ele><time>2026-04-19T09:36:25.052Z</time></trkpt><trkpt lat="45.7888822" lon="11.2362361"><ele>812.0</ele><time>2026-04-19T09:36:26.065Z</time></trkpt><trkpt lat="45.7888953" lon="11.2361329"><ele>814.0</ele><time>2026-04-19T09:36:27.06Z</time></trkpt><trkpt lat="45.7889018" lon="11.2360303"><ele>816.0</ele><time>2026-04-19T09:36:29.075Z</time></trkpt><trkpt lat="45.7888186" lon="11.2360475"><ele>818.0</ele><time>2026-04-19T09:36:32.046Z</time></trkpt><trkpt lat="45.7887644" lon="11.2361295"><ele>820.0</ele><time>2026-04-19T09:36:33.05Z</time></trkpt><trkpt lat="45.7887862" lon="11.2363145"><ele>822.0</ele><time>2026-04-19T09:36:36.05Z</time></trkpt><trkpt lat="45.7887579" lon="11.2364319"><ele>820.0</ele><time>2026-04-19T09:36:37.047Z</time></trkpt><trkpt lat="45.7887278" lon="11.2365562"><ele>818.0</ele><time>2026-04-19T09:36:38.062Z</time></trkpt><trkpt lat="45.7887035" lon="11.2367064"><ele>816.0</ele><time>2026-04-19T09:36:39.055Z</time></trkpt><trkpt lat="45.7886456" lon="11.2368517"><ele>814.0</ele><time>2026-04-19T09:36:40.042Z</time></trkpt><trkpt lat="45.7886222" lon="11.2370178"><ele>812.0</ele><time>2026-04-19T09:36:41.07Z</time></trkpt><trkpt lat="45.7885679" lon="11.2371732"><ele>822.5</ele><time>2026-04-19T09:36:42.052Z</time></trkpt><trkpt lat="45.7885017" lon="11.237306"><ele>833.0</ele><time>2026-04-19T09:36:43.048Z</time></trkpt><trkpt lat="45.7884591" lon="11.2374782"><ele>843.5</ele><time>2026-04-19T09:36:44.059Z</time></trkpt><trkpt lat="45.7884184" lon="11.2376636"><ele>854.0</ele><time>2026-04-19T09:36:45.042Z</time></trkpt><trkpt lat="45.788406" lon="11.2378628"><ele>854.0</ele><time>2026-04-19T09:36:46.055Z</time></trkpt><trkpt lat="45.7884126" lon="11.2380604"><ele>854.0</ele><time>2026-04-19T09:36:47.056Z</time></trkpt><trkpt lat="45.7884187" lon="11.2382355"><ele>854.0</ele><time>2026-04-19T09:36:48.055Z</time></trkpt><trkpt lat="45.7884073" lon="11.2383962"><ele>854.0</ele><time>2026-04-19T09:36:49.055Z</time></trkpt><trkpt lat="45.7884115" lon="11.2385367"><ele>853.6</ele><time>2026-04-19T09:36:50.058Z</time></trkpt><trkpt lat="45.7884244" lon="11.2386602"><ele>853.2</ele><time>2026-04-19T09:36:51.061Z</time></trkpt><trkpt lat="45.7884182" lon="11.2387813"><ele>852.8000000000001</ele><time>2026-04-19T09:36:52.058Z</time></trkpt><trkpt lat="45.7883909" lon="11.2389138"><ele>852.4000000000001</ele><time>2026-04-19T09:36:53.046Z</time></trkpt><trkpt lat="45.7884295" lon="11.2390428"><ele>852.0</ele><time>2026-04-19T09:36:54.039Z</time></trkpt><trkpt lat="45.7884116" lon="11.2391803"><ele>852.0</ele><time>2026-04-19T09:36:55.054Z</time></trkpt><trkpt lat="45.7883641" lon="11.2393411"><ele>852.0</ele><time>2026-04-19T09:36:56.042Z</time></trkpt><trkpt lat="45.7883133" lon="11.2394955"><ele>852.0</ele><time>2026-04-19T09:36:57.056Z</time></trkpt><trkpt lat="45.7882819" lon="11.2396476"><ele>852.0</ele><time>2026-04-19T09:36:58.048Z</time></trkpt><trkpt lat="45.7882628" lon="11.2397884"><ele>851.4000000000001</ele><time>2026-04-19T09:36:59.055Z</time></trkpt><trkpt lat="45.7882127" lon="11.2398892"><ele>850.8000000000001</ele><time>2026-04-19T09:37:00.04Z</time></trkpt><trkpt lat="45.7881726" lon="11.239995"><ele>850.2</ele><time>2026-04-19T09:37:01.059Z</time></trkpt><trkpt lat="45.7881631" lon="11.2401384"><ele>849.6</ele><time>2026-04-19T09:37:02.051Z</time></trkpt><trkpt lat="45.7881346" lon="11.240282"><ele>849.0</ele><time>2026-04-19T09:37:03.088Z</time></trkpt><trkpt lat="45.7880765" lon="11.2404013"><ele>849.0</ele><time>2026-04-19T09:37:04.06Z</time></trkpt><trkpt lat="45.7880324" lon="11.2405029"><ele>849.0</ele><time>2026-04-19T09:37:05.052Z</time></trkpt><trkpt lat="45.7880028" lon="11.2406014"><ele>849.0</ele><time>2026-04-19T09:37:06.056Z</time></trkpt><trkpt lat="45.7879571" lon="11.2406986"><ele>849.0</ele><time>2026-04-19T09:37:07.055Z</time></trkpt><trkpt lat="45.7879179" lon="11.2407821"><ele>849.0</ele><time>2026-04-19T09:37:08.07Z</time></trkpt><trkpt lat="45.7878605" lon="11.2408794"><ele>849.0</ele><time>2026-04-19T09:37:09.07Z</time></trkpt><trkpt lat="45.7877558" lon="11.2409501"><ele>853.0</ele><time>2026-04-19T09:37:10.048Z</time></trkpt><trkpt lat="45.7876417" lon="11.2410302"><ele>857.0</ele><time>2026-04-19T09:37:11.056Z</time></trkpt><trkpt lat="45.7875631" lon="11.2410837"><ele>861.0000000000001</ele><time>2026-04-19T09:37:12.038Z</time></trkpt><trkpt lat="45.7874833" lon="11.241135"><ele>865.0</ele><time>2026-04-19T09:37:13.046Z</time></trkpt><trkpt lat="45.787389" lon="11.2411714"><ele>869.0</ele><time>2026-04-19T09:37:14.039Z</time></trkpt><trkpt lat="45.7872897" lon="11.2411947"><ele>869.0</ele><time>2026-04-19T09:37:15.081Z</time></trkpt><trkpt lat="45.7871817" lon="11.2411806"><ele>869.0000000000001</ele><time>2026-04-19T09:37:16.046Z</time></trkpt><trkpt lat="45.7870827" lon="11.2411475"><ele>869.0000000000001</ele><time>2026-04-19T09:37:17.036Z</time></trkpt><trkpt lat="45.7869966" lon="11.2411198"><ele>869.0</ele><time>2026-04-19T09:37:18.047Z</time></trkpt><trkpt lat="45.7869085" lon="11.2411238"><ele>869.0</ele><time>2026-04-19T09:37:19.04Z</time></trkpt><trkpt lat="45.786826" lon="11.2411433"><ele>873.1666666666667</ele><time>2026-04-19T09:37:20.047Z</time></trkpt><trkpt lat="45.7867601" lon="11.2411833"><ele>877.3333333333334</ele><time>2026-04-19T09:37:21.061Z</time></trkpt><trkpt lat="45.7867147" lon="11.241287"><ele>881.5</ele><time>2026-04-19T09:37:22.05Z</time></trkpt><trkpt lat="45.7866507" lon="11.2413582"><ele>885.6666666666667</ele><time>2026-04-19T09:37:23.052Z</time></trkpt><trkpt lat="45.7865927" lon="11.2414124"><ele>889.8333333333334</ele><time>2026-04-19T09:37:24.053Z</time></trkpt><trkpt lat="45.7865223" lon="11.2414376"><ele>894.0</ele><time>2026-04-19T09:37:25.056Z</time></trkpt><trkpt lat="45.7864283" lon="11.2414339"><ele>894.0</ele><time>2026-04-19T09:37:26.054Z</time></trkpt><trkpt lat="45.786331" lon="11.2414235"><ele>894.0</ele><time>2026-04-19T09:37:27.045Z</time></trkpt><trkpt lat="45.7862496" lon="11.2414132"><ele>894.0</ele><time>2026-04-19T09:37:28.041Z</time></trkpt><trkpt lat="45.7861671" lon="11.2414403"><ele>894.0</ele><time>2026-04-19T09:37:29.05Z</time></trkpt><trkpt lat="45.7860787" lon="11.2414272"><ele>894.0</ele><time>2026-04-19T09:37:30.063Z</time></trkpt><trkpt lat="45.7860143" lon="11.2413996"><ele>894.0</ele><time>2026-04-19T09:37:31.064Z</time></trkpt><trkpt lat="45.7859426" lon="11.2414628"><ele>893.1666666666666</ele><time>2026-04-19T09:37:33.05Z</time></trkpt><trkpt lat="45.785899" lon="11.2415572"><ele>892.3333333333333</ele><time>2026-04-19T09:37:34.035Z</time></trkpt><trkpt lat="45.7858306" lon="11.2416728"><ele>891.5</ele><time>2026-04-19T09:37:35.053Z</time></trkpt><trkpt lat="45.7857587" lon="11.2417629"><ele>890.6666666666666</ele><time>2026-04-19T09:37:36.054Z</time></trkpt><trkpt lat="45.7857083" lon="11.2418599"><ele>889.8333333333333</ele><time>2026-04-19T09:37:37.039Z</time></trkpt><trkpt lat="45.7856556" lon="11.2419287"><ele>889.0</ele><time>2026-04-19T09:37:38.038Z</time></trkpt><trkpt lat="45.7855971" lon="11.2420106"><ele>889.0</ele><time>2026-04-19T09:37:39.071Z</time></trkpt><trkpt lat="45.7854935" lon="11.242054"><ele>889.0000000000001</ele><time>2026-04-19T09:37:40.05Z</time></trkpt><trkpt lat="45.785407" lon="11.2421047"><ele>889.0000000000001</ele><time>2026-04-19T09:37:41.055Z</time></trkpt><trkpt lat="45.7853053" lon="11.2421297"><ele>889.0</ele><time>2026-04-19T09:37:42.055Z</time></trkpt><trkpt lat="45.7851925" lon="11.2421477"><ele>889.0</ele><time>2026-04-19T09:37:43.047Z</time></trkpt><trkpt lat="45.7850955" lon="11.2421219"><ele>891.8000000000001</ele><time>2026-04-19T09:37:44.058Z</time></trkpt><trkpt lat="45.7850065" lon="11.2420861"><ele>894.6000000000001</ele><time>2026-04-19T09:37:46.047Z</time></trkpt><trkpt lat="45.7849931" lon="11.2419876"><ele>897.4</ele><time>2026-04-19T09:37:51.056Z</time></trkpt><trkpt lat="45.785043" lon="11.2418819"><ele>900.2</ele><time>2026-04-19T09:37:53.055Z</time></trkpt><trkpt lat="45.785089" lon="11.2417326"><ele>903.0</ele><time>2026-04-19T09:37:55.06Z</time></trkpt><trkpt lat="45.7851225" lon="11.2415749"><ele>904.5</ele><time>2026-04-19T09:37:57.056Z</time></trkpt><trkpt lat="45.7851661" lon="11.2414587"><ele>906.0</ele><time>2026-04-19T09:37:59.038Z</time></trkpt><trkpt lat="45.7852256" lon="11.24138"><ele>907.5</ele><time>2026-04-19T09:38:01.052Z</time></trkpt><trkpt lat="45.7852551" lon="11.2412673"><ele>909.0</ele><time>2026-04-19T09:38:03.063Z</time></trkpt><trkpt lat="45.7852755" lon="11.2411428"><ele>910.5</ele><time>2026-04-19T09:38:05.049Z</time></trkpt><trkpt lat="45.7853017" lon="11.2410353"><ele>912.0</ele><time>2026-04-19T09:38:08.031Z</time></trkpt><trkpt lat="45.7853875" lon="11.2410069"><ele>912.0</ele><time>2026-04-19T09:38:11.047Z</time></trkpt><trkpt lat="45.785479" lon="11.2409997"><ele>912.0</ele><time>2026-04-19T09:38:13.051Z</time></trkpt><trkpt lat="45.7855926" lon="11.2409631"><ele>912.0</ele><time>2026-04-19T09:38:15.044Z</time></trkpt><trkpt lat="45.7856603" lon="11.2409024"><ele>912.0</ele><time>2026-04-19T09:38:16.046Z</time></trkpt><trkpt lat="45.7857138" lon="11.2408057"><ele>912.0</ele><time>2026-04-19T09:38:17.048Z</time></trkpt><trkpt lat="45.7857645" lon="11.2407194"><ele>912.0</ele><time>2026-04-19T09:38:18.047Z</time></trkpt><trkpt lat="45.7858235" lon="11.2406606"><ele>912.0</ele><time>2026-04-19T09:38:19.045Z</time></trkpt><trkpt lat="45.7858833" lon="11.2405907"><ele>912.0</ele><time>2026-04-19T09:38:20.06Z</time></trkpt><trkpt lat="45.7859676" lon="11.2405506"><ele>912.0</ele><time>2026-04-19T09:38:21.051Z</time></trkpt><trkpt lat="45.7860763" lon="11.2405695"><ele>912.0</ele><time>2026-04-19T09:38:22.049Z</time></trkpt><trkpt lat="45.786185" lon="11.2405655"><ele>914.4000000000001</ele><time>2026-04-19T09:38:23.045Z</time></trkpt><trkpt lat="45.7862774" lon="11.2405379"><ele>916.8000000000001</ele><time>2026-04-19T09:38:24.044Z</time></trkpt><trkpt lat="45.7863526" lon="11.240472"><ele>919.2</ele><time>2026-04-19T09:38:25.039Z</time></trkpt><trkpt lat="45.7864364" lon="11.2403371"><ele>921.6</ele><time>2026-04-19T09:38:26.037Z</time></trkpt><trkpt lat="45.7865188" lon="11.2401934"><ele>924.0</ele><time>2026-04-19T09:38:27.042Z</time></trkpt><trkpt lat="45.7866586" lon="11.2399725"><ele>927.0</ele><time>2026-04-19T09:38:28.042Z</time></trkpt><trkpt lat="45.7867785" lon="11.239779"><ele>930.0</ele><time>2026-04-19T09:38:29.063Z</time></trkpt><trkpt lat="45.7868645" lon="11.2396124"><ele>933.0</ele><time>2026-04-19T09:38:30.054Z</time></trkpt><trkpt lat="45.7869449" lon="11.2394913"><ele>936.0</ele><time>2026-04-19T09:38:31.042Z</time></trkpt><trkpt lat="45.787002" lon="11.2394166"><ele>938.1999999999999</ele><time>2026-04-19T09:38:32.042Z</time></trkpt><trkpt lat="45.7870454" lon="11.2392933"><ele>940.3999999999999</ele><time>2026-04-19T09:38:34.046Z</time></trkpt><trkpt lat="45.7870334" lon="11.239158"><ele>942.6</ele><time>2026-04-19T09:38:36.049Z</time></trkpt><trkpt lat="45.7869476" lon="11.2391307"><ele>944.8</ele><time>2026-04-19T09:38:38.048Z</time></trkpt><trkpt lat="45.786868" lon="11.2389761"><ele>947.0</ele><time>2026-04-19T09:38:40.053Z</time></trkpt><trkpt lat="45.7868332" lon="11.2388387"><ele>947.0</ele><time>2026-04-19T09:38:41.049Z</time></trkpt><trkpt lat="45.7868358" lon="11.2386681"><ele>947.0</ele><time>2026-04-19T09:38:42.05Z</time></trkpt><trkpt lat="45.7868688" lon="11.2384985"><ele>947.0</ele><time>2026-04-19T09:38:43.064Z</time></trkpt><trkpt lat="45.7868994" lon="11.2383237"><ele>947.0</ele><time>2026-04-19T09:38:44.049Z</time></trkpt><trkpt lat="45.7869039" lon="11.2381663"><ele>940.8333333333334</ele><time>2026-04-19T09:38:45.054Z</time></trkpt><trkpt lat="45.7869236" lon="11.2380542"><ele>934.6666666666667</ele><time>2026-04-19T09:38:46.052Z</time></trkpt><trkpt lat="45.7869267" lon="11.2379447"><ele>928.5</ele><time>2026-04-19T09:38:47.055Z</time></trkpt><trkpt lat="45.7869398" lon="11.2378433"><ele>922.3333333333333</ele><time>2026-04-19T09:38:48.056Z</time></trkpt><trkpt lat="45.7869234" lon="11.237732"><ele>916.1666666666666</ele><time>2026-04-19T09:38:49.059Z</time></trkpt><trkpt lat="45.7869119" lon="11.2376329"><ele>910.0</ele><time>2026-04-19T09:38:50.05Z</time></trkpt><trkpt lat="45.7869435" lon="11.2375007"><ele>910.0</ele><time>2026-04-19T09:38:51.047Z</time></trkpt><trkpt lat="45.7869522" lon="11.2373248"><ele>910.0</ele><time>2026-04-19T09:38:52.039Z</time></trkpt><trkpt lat="45.786999" lon="11.2371312"><ele>910.0</ele><time>2026-04-19T09:38:53.05Z</time></trkpt><trkpt lat="45.7870135" lon="11.2369403"><ele>910.0</ele><time>2026-04-19T09:38:54.052Z</time></trkpt><trkpt lat="45.7870471" lon="11.2367734"><ele>913.25</ele><time>2026-04-19T09:38:55.07Z</time></trkpt><trkpt lat="45.7870778" lon="11.2365942"><ele>916.5</ele><time>2026-04-19T09:38:56.054Z</time></trkpt><trkpt lat="45.787181" lon="11.2364047"><ele>919.75</ele><time>2026-04-19T09:38:57.043Z</time></trkpt><trkpt lat="45.7872083" lon="11.2362266"><ele>923.0</ele><time>2026-04-19T09:38:58.061Z</time></trkpt><trkpt lat="45.78725" lon="11.2360629"><ele>927.2</ele><time>2026-04-19T09:38:59.064Z</time></trkpt><trkpt lat="45.7873299" lon="11.2359365"><ele>931.4</ele><time>2026-04-19T09:39:00.06Z</time></trkpt><trkpt lat="45.7873897" lon="11.2357906"><ele>935.6000000000001</ele><time>2026-04-19T09:39:01.057Z</time></trkpt><trkpt lat="45.7874527" lon="11.2357015"><ele>939.8000000000001</ele><time>2026-04-19T09:39:02.036Z</time></trkpt><trkpt lat="45.7875141" lon="11.235646"><ele>944.0</ele><time>2026-04-19T09:39:03.063Z</time></trkpt><trkpt lat="45.7876138" lon="11.2356129"><ele>944.0</ele><time>2026-04-19T09:39:04.045Z</time></trkpt><trkpt lat="45.7875808" lon="11.2357064"><ele>944.0</ele><time>2026-04-19T09:39:08.049Z</time></trkpt><trkpt lat="45.7874798" lon="11.2358522"><ele>944.0</ele><time>2026-04-19T09:39:09.048Z</time></trkpt><trkpt lat="45.7873735" lon="11.2359749"><ele>944.0</ele><time>2026-04-19T09:39:10.045Z</time></trkpt><trkpt lat="45.7872619" lon="11.2360994"><ele>944.0</ele><time>2026-04-19T09:39:11.045Z</time></trkpt><trkpt lat="45.7871729" lon="11.2362262"><ele>944.0</ele><time>2026-04-19T09:39:12.048Z</time></trkpt><trkpt lat="45.7871014" lon="11.2363519"><ele>944.0</ele><time>2026-04-19T09:39:13.045Z</time></trkpt><trkpt lat="45.7870307" lon="11.2364906"><ele>944.0</ele><time>2026-04-19T09:39:14.039Z</time></trkpt><trkpt lat="45.7869854" lon="11.2366238"><ele>939.8000000000001</ele><time>2026-04-19T09:39:15.076Z</time></trkpt><trkpt lat="45.7869392" lon="11.2367596"><ele>935.6000000000001</ele><time>2026-04-19T09:39:16.062Z</time></trkpt><trkpt lat="45.7868526" lon="11.2368629"><ele>931.4</ele><time>2026-04-19T09:39:17.072Z</time></trkpt><trkpt lat="45.7867677" lon="11.2369535"><ele>927.2</ele><time>2026-04-19T09:39:18.055Z</time></trkpt><trkpt lat="45.7866849" lon="11.2370543"><ele>923.0</ele><time>2026-04-19T09:39:19.046Z</time></trkpt><trkpt lat="45.7866256" lon="11.237186"><ele>930.75</ele><time>2026-04-19T09:39:20.051Z</time></trkpt><trkpt lat="45.7865933" lon="11.2373728"><ele>938.5</ele><time>2026-04-19T09:39:21.042Z</time></trkpt><trkpt lat="45.7865859" lon="11.2375494"><ele>946.25</ele><time>2026-04-19T09:39:22.044Z</time></trkpt><trkpt lat="45.7865538" lon="11.2376994"><ele>954.0</ele><time>2026-04-19T09:39:23.047Z</time></trkpt><trkpt lat="45.7864913" lon="11.2378308"><ele>954.0</ele><time>2026-04-19T09:39:24.034Z</time></trkpt><trkpt lat="45.7864361" lon="11.2379479"><ele>954.0000000000001</ele><time>2026-04-19T09:39:25.065Z</time></trkpt><trkpt lat="45.7863685" lon="11.238027"><ele>954.0000000000001</ele><time>2026-04-19T09:39:26.058Z</time></trkpt><trkpt lat="45.7862511" lon="11.2380172"><ele>954.0</ele><time>2026-04-19T09:39:27.05Z</time></trkpt><trkpt lat="45.7861404" lon="11.2380122"><ele>954.0</ele><time>2026-04-19T09:39:28.068Z</time></trkpt><trkpt lat="45.7860061" lon="11.2379937"><ele>962.6666666666667</ele><time>2026-04-19T09:39:29.042Z</time></trkpt><trkpt lat="45.7858475" lon="11.2379697"><ele>971.3333333333334</ele><time>2026-04-19T09:39:30.039Z</time></trkpt><trkpt lat="45.7856709" lon="11.2379186"><ele>980.0</ele><time>2026-04-19T09:39:31.059Z</time></trkpt><trkpt lat="45.7854936" lon="11.2378777"><ele>980.0</ele><time>2026-04-19T09:39:32.056Z</time></trkpt><trkpt lat="45.7853226" lon="11.2378787"><ele>980.0</ele><time>2026-04-19T09:39:33.062Z</time></trkpt><trkpt lat="45.7851581" lon="11.2379072"><ele>980.0</ele><time>2026-04-19T09:39:34.051Z</time></trkpt><trkpt lat="45.7849853" lon="11.2379788"><ele>985.0</ele><time>2026-04-19T09:39:35.052Z</time></trkpt><trkpt lat="45.7848099" lon="11.2380533"><ele>990.0</ele><time>2026-04-19T09:39:36.05Z</time></trkpt><trkpt lat="45.7846544" lon="11.2381459"><ele>995.0</ele><time>2026-04-19T09:39:37.046Z</time></trkpt><trkpt lat="45.7845242" lon="11.2382261"><ele>991.25</ele><time>2026-04-19T09:39:38.051Z</time></trkpt><trkpt lat="45.7844076" lon="11.2382809"><ele>987.5</ele><time>2026-04-19T09:39:39.057Z</time></trkpt><trkpt lat="45.7842957" lon="11.2382972"><ele>983.75</ele><time>2026-04-19T09:39:40.046Z</time></trkpt><trkpt lat="45.7841884" lon="11.2382868"><ele>980.0</ele><time>2026-04-19T09:39:41.057Z</time></trkpt><trkpt lat="45.784079" lon="11.2382592"><ele>980.0</ele><time>2026-04-19T09:39:42.057Z</time></trkpt><trkpt lat="45.7839511" lon="11.2382175"><ele>980.0</ele><time>2026-04-19T09:39:43.076Z</time></trkpt><trkpt lat="45.7838146" lon="11.2381518"><ele>980.0</ele><time>2026-04-19T09:39:44.044Z</time></trkpt><trkpt lat="45.7837016" lon="11.2381074"><ele>980.0</ele><time>2026-04-19T09:39:45.046Z</time></trkpt><trkpt lat="45.7836035" lon="11.2380612"><ele>981.8</ele><time>2026-04-19T09:39:46.051Z</time></trkpt><trkpt lat="45.7835115" lon="11.2379787"><ele>983.6</ele><time>2026-04-19T09:39:47.044Z</time></trkpt><trkpt lat="45.7834354" lon="11.237865"><ele>985.4000000000001</ele><time>2026-04-19T09:39:48.059Z</time></trkpt><trkpt lat="45.7833899" lon="11.2377404"><ele>987.2</ele><time>2026-04-19T09:39:49.049Z</time></trkpt><trkpt lat="45.7833906" lon="11.2376205"><ele>989.0</ele><time>2026-04-19T09:39:50.042Z</time></trkpt><trkpt lat="45.783373" lon="11.2374097"><ele>994.6</ele><time>2026-04-19T09:39:52.036Z</time></trkpt><trkpt lat="45.7833472" lon="11.2372745"><ele>1000.2</ele><time>2026-04-19T09:39:53.058Z</time></trkpt><trkpt lat="45.7833148" lon="11.2371212"><ele>1005.8000000000001</ele><time>2026-04-19T09:39:54.053Z</time></trkpt><trkpt lat="45.7833035" lon="11.2370019"><ele>1011.4000000000001</ele><time>2026-04-19T09:39:55.044Z</time></trkpt><trkpt lat="45.7832445" lon="11.2368768"><ele>1017.0</ele><time>2026-04-19T09:39:56.054Z</time></trkpt><trkpt lat="45.7831366" lon="11.2367555"><ele>1017.0</ele><time>2026-04-19T09:39:57.057Z</time></trkpt><trkpt lat="45.7829976" lon="11.2366603"><ele>1017.0</ele><time>2026-04-19T09:39:58.056Z</time></trkpt><trkpt lat="45.7828673" lon="11.2365568"><ele>1017.0</ele><time>2026-04-19T09:39:59.059Z</time></trkpt><trkpt lat="45.7827205" lon="11.2364753"><ele>1027.0</ele><time>2026-04-19T09:40:00.078Z</time></trkpt><trkpt lat="45.7825793" lon="11.2363918"><ele>1037.0</ele><time>2026-04-19T09:40:01.058Z</time></trkpt><trkpt lat="45.782446" lon="11.2362909"><ele>1047.0</ele><time>2026-04-19T09:40:02.045Z</time></trkpt><trkpt lat="45.7823158" lon="11.2361905"><ele>1047.0</ele><time>2026-04-19T09:40:03.039Z</time></trkpt><trkpt lat="45.7821721" lon="11.2361258"><ele>1047.0</ele><time>2026-04-19T09:40:04.041Z</time></trkpt><trkpt lat="45.7820309" lon="11.2360739"><ele>1047.0</ele><time>2026-04-19T09:40:05.042Z</time></trkpt><trkpt lat="45.7819033" lon="11.2360398"><ele>1047.0</ele><time>2026-04-19T09:40:06.039Z</time></trkpt><trkpt lat="45.7817957" lon="11.2360053"><ele>1040.5</ele><time>2026-04-19T09:40:07.043Z</time></trkpt><trkpt lat="45.7816932" lon="11.2359374"><ele>1034.0</ele><time>2026-04-19T09:40:08.05Z</time></trkpt><trkpt lat="45.7815855" lon="11.2358459"><ele>1027.5</ele><time>2026-04-19T09:40:09.065Z</time></trkpt><trkpt lat="45.7814794" lon="11.23576"><ele>1021.0</ele><time>2026-04-19T09:40:10.035Z</time></trkpt><trkpt lat="45.7813799" lon="11.235702"><ele>1020.9999999999999</ele><time>2026-04-19T09:40:11.061Z</time></trkpt><trkpt lat="45.7812872" lon="11.2356732"><ele>1021.0</ele><time>2026-04-19T09:40:12.057Z</time></trkpt><trkpt lat="45.7812117" lon="11.2356493"><ele>1021.0</ele><time>2026-04-19T09:40:13.084Z</time></trkpt><trkpt lat="45.7811447" lon="11.2356543"><ele>1021.0</ele><time>2026-04-19T09:40:14.055Z</time></trkpt><trkpt lat="45.7810731" lon="11.2356691"><ele>1020.9999999999999</ele><time>2026-04-19T09:40:15.063Z</time></trkpt><trkpt lat="45.7809793" lon="11.2357448"><ele>1021.0</ele><time>2026-04-19T09:40:16.044Z</time></trkpt><trkpt lat="45.7808667" lon="11.2358483"><ele>1024.0</ele><time>2026-04-19T09:40:17.047Z</time></trkpt><trkpt lat="45.7807465" lon="11.2359662"><ele>1027.0</ele><time>2026-04-19T09:40:18.044Z</time></trkpt><trkpt lat="45.7806551" lon="11.236098"><ele>1030.0</ele><time>2026-04-19T09:40:19.062Z</time></trkpt><trkpt lat="45.7805874" lon="11.236255"><ele>1033.0</ele><time>2026-04-19T09:40:20.052Z</time></trkpt><trkpt lat="45.780522" lon="11.2363899"><ele>1033.0</ele><time>2026-04-19T09:40:21.06Z</time></trkpt><trkpt lat="45.7804362" lon="11.2364654"><ele>1033.0</ele><time>2026-04-19T09:40:22.055Z</time></trkpt><trkpt lat="45.7803296" lon="11.2364897"><ele>1033.0</ele><time>2026-04-19T09:40:23.055Z</time></trkpt><trkpt lat="45.7802308" lon="11.2365422"><ele>1033.0</ele><time>2026-04-19T09:40:24.065Z</time></trkpt><trkpt lat="45.7801255" lon="11.2366017"><ele>1033.0</ele><time>2026-04-19T09:40:25.053Z</time></trkpt><trkpt lat="45.7800179" lon="11.236658"><ele>1033.75</ele><time>2026-04-19T09:40:26.046Z</time></trkpt><trkpt lat="45.7798932" lon="11.2366594"><ele>1034.5</ele><time>2026-04-19T09:40:27.041Z</time></trkpt><trkpt lat="45.779784" lon="11.2367312"><ele>1035.25</ele><time>2026-04-19T09:40:28.053Z</time></trkpt><trkpt lat="45.7796922" lon="11.2368618"><ele>1036.0</ele><time>2026-04-19T09:40:29.06Z</time></trkpt><trkpt lat="45.7796015" lon="11.2370034"><ele>1036.0</ele><time>2026-04-19T09:40:30.055Z</time></trkpt><trkpt lat="45.7794936" lon="11.2371189"><ele>1036.0</ele><time>2026-04-19T09:40:31.053Z</time></trkpt><trkpt lat="45.7793817" lon="11.2372166"><ele>1036.0</ele><time>2026-04-19T09:40:32.052Z</time></trkpt><trkpt lat="45.7792589" lon="11.2372929"><ele>1036.0</ele><time>2026-04-19T09:40:33.051Z</time></trkpt><trkpt lat="45.7791286" lon="11.2373702"><ele>1035.5</ele><time>2026-04-19T09:40:34.063Z</time></trkpt><trkpt lat="45.7789904" lon="11.2374109"><ele>1035.0</ele><time>2026-04-19T09:40:35.056Z</time></trkpt><trkpt lat="45.7788611" lon="11.2374249"><ele>1034.5</ele><time>2026-04-19T09:40:36.058Z</time></trkpt><trkpt lat="45.7787496" lon="11.2374261"><ele>1034.0</ele><time>2026-04-19T09:40:37.047Z</time></trkpt><trkpt lat="45.7786494" lon="11.2374041"><ele>1034.0</ele><time>2026-04-19T09:40:38.034Z</time></trkpt><trkpt lat="45.7785529" lon="11.2373257"><ele>1034.0</ele><time>2026-04-19T09:40:39.053Z</time></trkpt><trkpt lat="45.7784478" lon="11.2371923"><ele>1034.0</ele><time>2026-04-19T09:40:40.064Z</time></trkpt><trkpt lat="45.7783215" lon="11.2370538"><ele>1034.0</ele><time>2026-04-19T09:40:41.067Z</time></trkpt><trkpt lat="45.7781982" lon="11.2369404"><ele>1038.0</ele><time>2026-04-19T09:40:42.043Z</time></trkpt><trkpt lat="45.7781059" lon="11.236838"><ele>1042.0</ele><time>2026-04-19T09:40:43.047Z</time></trkpt><trkpt lat="45.7780023" lon="11.2368026"><ele>1046.0</ele><time>2026-04-19T09:40:44.048Z</time></trkpt><trkpt lat="45.7779065" lon="11.2368232"><ele>1050.0</ele><time>2026-04-19T09:40:45.047Z</time></trkpt><trkpt lat="45.7778245" lon="11.2368768"><ele>1054.0</ele><time>2026-04-19T09:40:46.053Z</time></trkpt><trkpt lat="45.7777531" lon="11.2369275"><ele>1054.0000000000002</ele><time>2026-04-19T09:40:47.047Z</time></trkpt><trkpt lat="45.7776963" lon="11.2369878"><ele>1054.0</ele><time>2026-04-19T09:40:48.046Z</time></trkpt><trkpt lat="45.7776672" lon="11.2370845"><ele>1054.0</ele><time>2026-04-19T09:40:49.057Z</time></trkpt><trkpt lat="45.7776719" lon="11.237195"><ele>1054.0</ele><time>2026-04-19T09:40:50.056Z</time></trkpt><trkpt lat="45.7776905" lon="11.2373001"><ele>1054.0</ele><time>2026-04-19T09:40:51.049Z</time></trkpt><trkpt lat="45.7777132" lon="11.2373968"><ele>1054.0000000000002</ele><time>2026-04-19T09:40:52.044Z</time></trkpt><trkpt lat="45.7777332" lon="11.2374903"><ele>1054.0</ele><time>2026-04-19T09:40:53.049Z</time></trkpt><trkpt lat="45.7776957" lon="11.2375984"><ele>1054.3333333333333</ele><time>2026-04-19T09:40:54.041Z</time></trkpt><trkpt lat="45.777635" lon="11.2377094"><ele>1054.6666666666665</ele><time>2026-04-19T09:40:55.044Z</time></trkpt><trkpt lat="45.7775466" lon="11.2377799"><ele>1055.0</ele><time>2026-04-19T09:40:56.046Z</time></trkpt><trkpt lat="45.7774712" lon="11.2378325"><ele>1055.3333333333333</ele><time>2026-04-19T09:40:57.041Z</time></trkpt><trkpt lat="45.7773936" lon="11.2378102"><ele>1055.6666666666667</ele><time>2026-04-19T09:40:58.037Z</time></trkpt><trkpt lat="45.7773177" lon="11.2377496"><ele>1056.0</ele><time>2026-04-19T09:40:59.042Z</time></trkpt><trkpt lat="45.777255" lon="11.2376515"><ele>1056.0</ele><time>2026-04-19T09:41:00.056Z</time></trkpt><trkpt lat="45.7771936" lon="11.2375942"><ele>1056.0</ele><time>2026-04-19T09:41:01.054Z</time></trkpt><trkpt lat="45.7771102" lon="11.2375313"><ele>1056.0</ele><time>2026-04-19T09:41:03.061Z</time></trkpt><trkpt lat="45.7767657" lon="11.2377924"><ele>1056.2</ele><time>2026-04-19T09:43:32.049Z</time></trkpt><trkpt lat="45.7766952" lon="11.2378676"><ele>1056.3999999999999</ele><time>2026-04-19T09:43:33.054Z</time></trkpt><trkpt lat="45.7766256" lon="11.2379652"><ele>1056.6</ele><time>2026-04-19T09:43:34.042Z</time></trkpt><trkpt lat="45.7765672" lon="11.2380746"><ele>1056.8</ele><time>2026-04-19T09:43:35.049Z</time></trkpt><trkpt lat="45.7765053" lon="11.2382019"><ele>1057.0</ele><time>2026-04-19T09:43:36.043Z</time></trkpt><trkpt lat="45.7764321" lon="11.2383319"><ele>1058.5</ele><time>2026-04-19T09:43:37.04Z</time></trkpt><trkpt lat="45.7763407" lon="11.2384485"><ele>1060.0</ele><time>2026-04-19T09:43:38.035Z</time></trkpt><trkpt lat="45.7762522" lon="11.2385512"><ele>1061.5</ele><time>2026-04-19T09:43:39.064Z</time></trkpt><trkpt lat="45.776149" lon="11.2386267"><ele>1063.0</ele><time>2026-04-19T09:43:40.061Z</time></trkpt><trkpt lat="45.7760455" lon="11.2386981"><ele>1059.25</ele><time>2026-04-19T09:43:41.049Z</time></trkpt><trkpt lat="45.7759315" lon="11.2387542"><ele>1055.5</ele><time>2026-04-19T09:43:42.049Z</time></trkpt><trkpt lat="45.775818" lon="11.2388123"><ele>1051.75</ele><time>2026-04-19T09:43:43.044Z</time></trkpt><trkpt lat="45.7757027" lon="11.2388537"><ele>1048.0</ele><time>2026-04-19T09:43:44.05Z</time></trkpt><trkpt lat="45.7755826" lon="11.2388886"><ele>1048.0</ele><time>2026-04-19T09:43:45.058Z</time></trkpt><trkpt lat="45.7754622" lon="11.2389009"><ele>1048.0</ele><time>2026-04-19T09:43:46.054Z</time></trkpt><trkpt lat="45.7753462" lon="11.2388824"><ele>1048.0</ele><time>2026-04-19T09:43:47.065Z</time></trkpt><trkpt lat="45.7752355" lon="11.2388691"><ele>1048.0</ele><time>2026-04-19T09:43:48.05Z</time></trkpt><trkpt lat="45.775123" lon="11.2388424"><ele>1045.8</ele><time>2026-04-19T09:43:49.044Z</time></trkpt><trkpt lat="45.7750088" lon="11.2388053"><ele>1043.6</ele><time>2026-04-19T09:43:50.06Z</time></trkpt><trkpt lat="45.7748991" lon="11.2387634"><ele>1041.4</ele><time>2026-04-19T09:43:51.067Z</time></trkpt><trkpt lat="45.7747961" lon="11.2387477"><ele>1039.2</ele><time>2026-04-19T09:43:52.058Z</time></trkpt><trkpt lat="45.7747065" lon="11.2387555"><ele>1037.0</ele><time>2026-04-19T09:43:53.047Z</time></trkpt><trkpt lat="45.7746244" lon="11.2387811"><ele>1037.0</ele><time>2026-04-19T09:43:54.051Z</time></trkpt><trkpt lat="45.7745479" lon="11.2388059"><ele>1037.0</ele><time>2026-04-19T09:43:55.057Z</time></trkpt><trkpt lat="45.7744891" lon="11.2388825"><ele>1037.0</ele><time>2026-04-19T09:43:56.049Z</time></trkpt><trkpt lat="45.7744282" lon="11.2389704"><ele>1037.0</ele><time>2026-04-19T09:43:57.048Z</time></trkpt><trkpt lat="45.7743647" lon="11.2390691"><ele>1037.0</ele><time>2026-04-19T09:43:58.039Z</time></trkpt><trkpt lat="45.774308" lon="11.2391716"><ele>1037.0</ele><time>2026-04-19T09:43:59.058Z</time></trkpt><trkpt lat="45.7742758" lon="11.2392783"><ele>1039.5</ele><time>2026-04-19T09:44:00.069Z</time></trkpt><trkpt lat="45.774268" lon="11.239386"><ele>1042.0</ele><time>2026-04-19T09:44:01.054Z</time></trkpt><trkpt lat="45.7742472" lon="11.2394814"><ele>1044.5</ele><time>2026-04-19T09:44:02.056Z</time></trkpt><trkpt lat="45.7741797" lon="11.2396245"><ele>1047.0</ele><time>2026-04-19T09:44:04.049Z</time></trkpt><trkpt lat="45.774127" lon="11.2396864"><ele>1049.5</ele><time>2026-04-19T09:44:05.048Z</time></trkpt><trkpt lat="45.7740676" lon="11.2397454"><ele>1052.0</ele><time>2026-04-19T09:44:06.038Z</time></trkpt><trkpt lat="45.7740005" lon="11.239805"><ele>1059.6</ele><time>2026-04-19T09:44:07.072Z</time></trkpt><trkpt lat="45.7739382" lon="11.2398837"><ele>1067.2</ele><time>2026-04-19T09:44:08.057Z</time></trkpt><trkpt lat="45.7738694" lon="11.2399467"><ele>1074.8</ele><time>2026-04-19T09:44:09.063Z</time></trkpt><trkpt lat="45.7737955" lon="11.2400021"><ele>1082.4</ele><time>2026-04-19T09:44:10.055Z</time></trkpt><trkpt lat="45.7737039" lon="11.2400555"><ele>1090.0</ele><time>2026-04-19T09:44:11.058Z</time></trkpt><trkpt lat="45.7736134" lon="11.2401308"><ele>1084.6</ele><time>2026-04-19T09:44:12.058Z</time></trkpt><trkpt lat="45.7735187" lon="11.2401717"><ele>1079.2</ele><time>2026-04-19T09:44:13.05Z</time></trkpt><trkpt lat="45.7734265" lon="11.2401427"><ele>1073.8</ele><time>2026-04-19T09:44:14.051Z</time></trkpt><trkpt lat="45.7733289" lon="11.2401341"><ele>1068.4</ele><time>2026-04-19T09:44:15.055Z</time></trkpt><trkpt lat="45.7732449" lon="11.2401335"><ele>1063.0</ele><time>2026-04-19T09:44:16.064Z</time></trkpt><trkpt lat="45.7731524" lon="11.2401899"><ele>1063.0</ele><time>2026-04-19T09:44:17.074Z</time></trkpt><trkpt lat="45.7730588" lon="11.2402458"><ele>1063.0</ele><time>2026-04-19T09:44:18.053Z</time></trkpt><trkpt lat="45.7729655" lon="11.2403071"><ele>1063.0</ele><time>2026-04-19T09:44:19.06Z</time></trkpt><trkpt lat="45.7728558" lon="11.2403264"><ele>1063.0</ele><time>2026-04-19T09:44:20.06Z</time></trkpt><trkpt lat="45.7727341" lon="11.2403452"><ele>1063.0</ele><time>2026-04-19T09:44:21.044Z</time></trkpt><trkpt lat="45.7726039" lon="11.2403325"><ele>1060.2</ele><time>2026-04-19T09:44:22.04Z</time></trkpt><trkpt lat="45.7724815" lon="11.2403007"><ele>1057.4</ele><time>2026-04-19T09:44:23.063Z</time></trkpt><trkpt lat="45.7723734" lon="11.2402931"><ele>1054.6000000000001</ele><time>2026-04-19T09:44:24.048Z</time></trkpt><trkpt lat="45.7722724" lon="11.2402681"><ele>1051.8</ele><time>2026-04-19T09:44:25.052Z</time></trkpt><trkpt lat="45.7721879" lon="11.240287"><ele>1049.0</ele><time>2026-04-19T09:44:26.051Z</time></trkpt><trkpt lat="45.7721156" lon="11.2403375"><ele>1049.0</ele><time>2026-04-19T09:44:27.045Z</time></trkpt><trkpt lat="45.7720487" lon="11.2404197"><ele>1049.0</ele><time>2026-04-19T09:44:28.046Z</time></trkpt><trkpt lat="45.7719743" lon="11.2404939"><ele>1049.0</ele><time>2026-04-19T09:44:29.05Z</time></trkpt><trkpt lat="45.7718944" lon="11.2405408"><ele>1049.0</ele><time>2026-04-19T09:44:30.046Z</time></trkpt><trkpt lat="45.7717991" lon="11.2405508"><ele>1049.0</ele><time>2026-04-19T09:44:31.046Z</time></trkpt><trkpt lat="45.7717018" lon="11.2405276"><ele>1047.1666666666667</ele><time>2026-04-19T09:44:32.05Z</time></trkpt><trkpt lat="45.7716111" lon="11.2405152"><ele>1045.3333333333335</ele><time>2026-04-19T09:44:33.056Z</time></trkpt><trkpt lat="45.7715353" lon="11.2405284"><ele>1043.5</ele><time>2026-04-19T09:44:34.05Z</time></trkpt><trkpt lat="45.7714737" lon="11.2405691"><ele>1041.6666666666667</ele><time>2026-04-19T09:44:35.061Z</time></trkpt><trkpt lat="45.7714143" lon="11.2406544"><ele>1039.8333333333333</ele><time>2026-04-19T09:44:36.05Z</time></trkpt><trkpt lat="45.7713509" lon="11.2407578"><ele>1038.0</ele><time>2026-04-19T09:44:37.046Z</time></trkpt><trkpt lat="45.7712788" lon="11.2408729"><ele>1046.2</ele><time>2026-04-19T09:44:38.047Z</time></trkpt><trkpt lat="45.7712147" lon="11.2409984"><ele>1054.4</ele><time>2026-04-19T09:44:39.054Z</time></trkpt><trkpt lat="45.771179" lon="11.2411508"><ele>1062.6000000000001</ele><time>2026-04-19T09:44:40.056Z</time></trkpt><trkpt lat="45.7711373" lon="11.2412906"><ele>1070.8</ele><time>2026-04-19T09:44:41.042Z</time></trkpt><trkpt lat="45.7710871" lon="11.2413969"><ele>1079.0</ele><time>2026-04-19T09:44:42.069Z</time></trkpt><trkpt lat="45.7710288" lon="11.2414733"><ele>1079.2</ele><time>2026-04-19T09:44:43.054Z</time></trkpt><trkpt lat="45.7709554" lon="11.2415253"><ele>1079.4</ele><time>2026-04-19T09:44:44.064Z</time></trkpt><trkpt lat="45.7708607" lon="11.2415459"><ele>1079.6</ele><time>2026-04-19T09:44:45.062Z</time></trkpt><trkpt lat="45.7707643" lon="11.2415664"><ele>1079.8</ele><time>2026-04-19T09:44:46.055Z</time></trkpt><trkpt lat="45.7706649" lon="11.2415758"><ele>1080.0</ele><time>2026-04-19T09:44:47.06Z</time></trkpt><trkpt lat="45.7705708" lon="11.2416113"><ele>1080.0</ele><time>2026-04-19T09:44:48.05Z</time></trkpt><trkpt lat="45.7704767" lon="11.2416484"><ele>1080.0</ele><time>2026-04-19T09:44:49.049Z</time></trkpt><trkpt lat="45.7703906" lon="11.2416919"><ele>1080.0</ele><time>2026-04-19T09:44:50.054Z</time></trkpt><trkpt lat="45.7703266" lon="11.2417643"><ele>1080.0</ele><time>2026-04-19T09:44:51.051Z</time></trkpt><trkpt lat="45.770268" lon="11.2418347"><ele>1080.0</ele><time>2026-04-19T09:44:52.053Z</time></trkpt><trkpt lat="45.7702188" lon="11.2419603"><ele>1080.0</ele><time>2026-04-19T09:44:53.042Z</time></trkpt><trkpt lat="45.770143" lon="11.2421265"><ele>1077.6666666666667</ele><time>2026-04-19T09:44:54.05Z</time></trkpt><trkpt lat="45.7700403" lon="11.2422975"><ele>1075.3333333333335</ele><time>2026-04-19T09:44:55.049Z</time></trkpt><trkpt lat="45.7699518" lon="11.2424759"><ele>1073.0</ele><time>2026-04-19T09:44:56.045Z</time></trkpt><trkpt lat="45.7698646" lon="11.2426523"><ele>1073.0</ele><time>2026-04-19T09:44:57.064Z</time></trkpt><trkpt lat="45.7697979" lon="11.2428329"><ele>1073.0</ele><time>2026-04-19T09:44:58.058Z</time></trkpt><trkpt lat="45.7697252" lon="11.2430061"><ele>1073.0</ele><time>2026-04-19T09:44:59.056Z</time></trkpt><trkpt lat="45.7696636" lon="11.2431757"><ele>1073.0</ele><time>2026-04-19T09:45:00.037Z</time></trkpt><trkpt lat="45.7695938" lon="11.2433265"><ele>1078.0</ele><time>2026-04-19T09:45:01.054Z</time></trkpt><trkpt lat="45.7695403" lon="11.2434666"><ele>1083.0</ele><time>2026-04-19T09:45:02.042Z</time></trkpt><trkpt lat="45.7694951" lon="11.2435874"><ele>1088.0</ele><time>2026-04-19T09:45:03.061Z</time></trkpt><trkpt lat="45.7694601" lon="11.2437053"><ele>1093.0</ele><time>2026-04-19T09:45:04.054Z</time></trkpt><trkpt lat="45.7694458" lon="11.2438409"><ele>1098.0</ele><time>2026-04-19T09:45:05.041Z</time></trkpt><trkpt lat="45.7694578" lon="11.2439799"><ele>1100.8</ele><time>2026-04-19T09:45:06.046Z</time></trkpt><trkpt lat="45.769471" lon="11.244103"><ele>1103.6</ele><time>2026-04-19T09:45:07.051Z</time></trkpt><trkpt lat="45.7694907" lon="11.2442168"><ele>1106.4</ele><time>2026-04-19T09:45:08.054Z</time></trkpt><trkpt lat="45.7695249" lon="11.2443406"><ele>1109.2</ele><time>2026-04-19T09:45:09.048Z</time></trkpt><trkpt lat="45.7695791" lon="11.2444632"><ele>1112.0</ele><time>2026-04-19T09:45:10.051Z</time></trkpt><trkpt lat="45.7696333" lon="11.2445846"><ele>1112.0</ele><time>2026-04-19T09:45:11.057Z</time></trkpt><trkpt lat="45.7696855" lon="11.2447031"><ele>1112.0</ele><time>2026-04-19T09:45:12.046Z</time></trkpt><trkpt lat="45.7697256" lon="11.2448261"><ele>1112.0</ele><time>2026-04-19T09:45:13.079Z</time></trkpt><trkpt lat="45.7697875" lon="11.2449238"><ele>1112.0</ele><time>2026-04-19T09:45:14.058Z</time></trkpt><trkpt lat="45.7698235" lon="11.2450121"><ele>1112.0</ele><time>2026-04-19T09:45:15.05Z</time></trkpt><trkpt lat="45.7698112" lon="11.2452048"><ele>1109.6666666666667</ele><time>2026-04-19T09:45:17.076Z</time></trkpt><trkpt lat="45.7697749" lon="11.2453219"><ele>1107.3333333333335</ele><time>2026-04-19T09:45:18.048Z</time></trkpt><trkpt lat="45.7697656" lon="11.2454372"><ele>1105.0</ele><time>2026-04-19T09:45:19.045Z</time></trkpt><trkpt lat="45.7697732" lon="11.2455633"><ele>1102.6666666666667</ele><time>2026-04-19T09:45:20.04Z</time></trkpt><trkpt lat="45.7697903" lon="11.2457017"><ele>1100.3333333333333</ele><time>2026-04-19T09:45:21.049Z</time></trkpt><trkpt lat="45.769793" lon="11.2458307"><ele>1098.0</ele><time>2026-04-19T09:45:22.05Z</time></trkpt><trkpt lat="45.7697896" lon="11.2459254"><ele>1097.2</ele><time>2026-04-19T09:45:23.046Z</time></trkpt><trkpt lat="45.7697648" lon="11.2460179"><ele>1096.4</ele><time>2026-04-19T09:45:24.061Z</time></trkpt><trkpt lat="45.7697103" lon="11.2461316"><ele>1095.6000000000001</ele><time>2026-04-19T09:45:25.047Z</time></trkpt><trkpt lat="45.7696215" lon="11.2462568"><ele>1094.8</ele><time>2026-04-19T09:45:26.043Z</time></trkpt><trkpt lat="45.7695564" lon="11.2464167"><ele>1094.0</ele><time>2026-04-19T09:45:27.054Z</time></trkpt><trkpt lat="45.769497" lon="11.2465686"><ele>1097.4</ele><time>2026-04-19T09:45:28.034Z</time></trkpt><trkpt lat="45.7694378" lon="11.2466757"><ele>1100.8000000000002</ele><time>2026-04-19T09:45:29.048Z</time></trkpt><trkpt lat="45.7693455" lon="11.2467264"><ele>1104.1999999999998</ele><time>2026-04-19T09:45:30.032Z</time></trkpt><trkpt lat="45.7692393" lon="11.246728"><ele>1107.6</ele><time>2026-04-19T09:45:31.049Z</time></trkpt><trkpt lat="45.769144" lon="11.2467435"><ele>1111.0</ele><time>2026-04-19T09:45:32.032Z</time></trkpt><trkpt lat="45.7690624" lon="11.2467711"><ele>1108.5</ele><time>2026-04-19T09:45:33.053Z</time></trkpt><trkpt lat="45.7690044" lon="11.2468279"><ele>1106.0</ele><time>2026-04-19T09:45:34.06Z</time></trkpt><trkpt lat="45.7689517" lon="11.2469706"><ele>1103.5</ele><time>2026-04-19T09:45:36.048Z</time></trkpt><trkpt lat="45.7689376" lon="11.2470758"><ele>1101.0</ele><time>2026-04-19T09:45:37.049Z</time></trkpt><trkpt lat="45.7689338" lon="11.247193"><ele>1098.5</ele><time>2026-04-19T09:45:38.038Z</time></trkpt><trkpt lat="45.7689331" lon="11.247306"><ele>1096.0</ele><time>2026-04-19T09:45:39.07Z</time></trkpt><trkpt lat="45.7689306" lon="11.2473977"><ele>1096.0</ele><time>2026-04-19T09:45:40.046Z</time></trkpt><trkpt lat="45.7689034" lon="11.2474817"><ele>1096.0</ele><time>2026-04-19T09:45:41.048Z</time></trkpt><trkpt lat="45.7688295" lon="11.2475465"><ele>1096.0</ele><time>2026-04-19T09:45:42.039Z</time></trkpt><trkpt lat="45.7687414" lon="11.2475964"><ele>1096.0</ele><time>2026-04-19T09:45:43.041Z</time></trkpt><trkpt lat="45.7686475" lon="11.247622"><ele>1096.0</ele><time>2026-04-19T09:45:44.039Z</time></trkpt><trkpt lat="45.7685478" lon="11.2476237"><ele>1096.0</ele><time>2026-04-19T09:45:45.077Z</time></trkpt><trkpt lat="45.7684674" lon="11.2476488"><ele>1090.7142857142858</ele><time>2026-04-19T09:45:46.057Z</time></trkpt><trkpt lat="45.7684067" lon="11.2477097"><ele>1085.4285714285716</ele><time>2026-04-19T09:45:47.073Z</time></trkpt><trkpt lat="45.7683386" lon="11.2477612"><ele>1080.142857142857</ele><time>2026-04-19T09:45:48.033Z</time></trkpt><trkpt lat="45.7682812" lon="11.2478193"><ele>1074.857142857143</ele><time>2026-04-19T09:45:49.047Z</time></trkpt><trkpt lat="45.7682064" lon="11.2478134"><ele>1069.5714285714284</ele><time>2026-04-19T09:45:50.054Z</time></trkpt><trkpt lat="45.7681403" lon="11.247785"><ele>1064.2857142857142</ele><time>2026-04-19T09:45:51.036Z</time></trkpt><trkpt lat="45.7680754" lon="11.2477549"><ele>1059.0</ele><time>2026-04-19T09:45:52.044Z</time></trkpt><trkpt lat="45.7679343" lon="11.2478007"><ele>1059.0</ele><time>2026-04-19T09:45:54.041Z</time></trkpt><trkpt lat="45.7678622" lon="11.2479049"><ele>1059.0</ele><time>2026-04-19T09:45:55.058Z</time></trkpt><trkpt lat="45.7678045" lon="11.248046"><ele>1059.0</ele><time>2026-04-19T09:45:56.045Z</time></trkpt><trkpt lat="45.7677322" lon="11.2481579"><ele>1059.0</ele><time>2026-04-19T09:45:57.069Z</time></trkpt><trkpt lat="45.7676582" lon="11.2482554"><ele>1059.0</ele><time>2026-04-19T09:45:58.04Z</time></trkpt><trkpt lat="45.7676035" lon="11.2483722"><ele>1060.1666666666667</ele><time>2026-04-19T09:45:59.09Z</time></trkpt><trkpt lat="45.7675646" lon="11.2484937"><ele>1061.3333333333333</ele><time>2026-04-19T09:46:00.051Z</time></trkpt><trkpt lat="45.7675372" lon="11.2486072"><ele>1062.5</ele><time>2026-04-19T09:46:01.055Z</time></trkpt><trkpt lat="45.767528" lon="11.248721"><ele>1063.6666666666665</ele><time>2026-04-19T09:46:02.049Z</time></trkpt><trkpt lat="45.7674999" lon="11.2488099"><ele>1064.8333333333333</ele><time>2026-04-19T09:46:03.06Z</time></trkpt><trkpt lat="45.7674358" lon="11.2488619"><ele>1066.0</ele><time>2026-04-19T09:46:04.046Z</time></trkpt><trkpt lat="45.7673562" lon="11.2488817"><ele>1066.0</ele><time>2026-04-19T09:46:05.058Z</time></trkpt><trkpt lat="45.7672676" lon="11.2488754"><ele>1066.0</ele><time>2026-04-19T09:46:06.049Z</time></trkpt><trkpt lat="45.7671691" lon="11.2488695"><ele>1066.0</ele><time>2026-04-19T09:46:07.054Z</time></trkpt><trkpt lat="45.7670755" lon="11.2488543"><ele>1066.0</ele><time>2026-04-19T09:46:08.05Z</time></trkpt><trkpt lat="45.7669862" lon="11.2488535"><ele>1066.0</ele><time>2026-04-19T09:46:09.064Z</time></trkpt><trkpt lat="45.7668987" lon="11.2488732"><ele>1065.8</ele><time>2026-04-19T09:46:10.044Z</time></trkpt><trkpt lat="45.7668156" lon="11.2489315"><ele>1065.6</ele><time>2026-04-19T09:46:11.045Z</time></trkpt><trkpt lat="45.7667419" lon="11.2490027"><ele>1065.4</ele><time>2026-04-19T09:46:12.047Z</time></trkpt><trkpt lat="45.7666763" lon="11.2491"><ele>1065.2</ele><time>2026-04-19T09:46:13.068Z</time></trkpt><trkpt lat="45.7666278" lon="11.2492298"><ele>1065.0</ele><time>2026-04-19T09:46:14.04Z</time></trkpt><trkpt lat="45.7665875" lon="11.2493686"><ele>1065.0</ele><time>2026-04-19T09:46:15.046Z</time></trkpt><trkpt lat="45.7665462" lon="11.2494954"><ele>1065.0</ele><time>2026-04-19T09:46:16.056Z</time></trkpt><trkpt lat="45.766543" lon="11.2496288"><ele>1065.0</ele><time>2026-04-19T09:46:17.058Z</time></trkpt><trkpt lat="45.7665621" lon="11.2497714"><ele>1065.0</ele><time>2026-04-19T09:46:18.045Z</time></trkpt><trkpt lat="45.7665961" lon="11.2498885"><ele>1065.0</ele><time>2026-04-19T09:46:19.046Z</time></trkpt><trkpt lat="45.7666659" lon="11.2500008"><ele>1066.4</ele><time>2026-04-19T09:46:20.041Z</time></trkpt><trkpt lat="45.7667528" lon="11.2500839"><ele>1067.8</ele><time>2026-04-19T09:46:21.049Z</time></trkpt><trkpt lat="45.7668353" lon="11.2501516"><ele>1069.2</ele><time>2026-04-19T09:46:22.038Z</time></trkpt><trkpt lat="45.7669069" lon="11.2502066"><ele>1070.6</ele><time>2026-04-19T09:46:23.049Z</time></trkpt><trkpt lat="45.7669849" lon="11.2502991"><ele>1072.0</ele><time>2026-04-19T09:46:25.056Z</time></trkpt><trkpt lat="45.7669766" lon="11.2503965"><ele>1072.5</ele><time>2026-04-19T09:46:27.048Z</time></trkpt><trkpt lat="45.766874" lon="11.2505535"><ele>1073.0</ele><time>2026-04-19T09:46:29.08Z</time></trkpt><trkpt lat="45.7667811" lon="11.2506561"><ele>1073.5</ele><time>2026-04-19T09:46:30.045Z</time></trkpt><trkpt lat="45.7666744" lon="11.2507481"><ele>1074.0</ele><time>2026-04-19T09:46:31.045Z</time></trkpt><trkpt lat="45.7665707" lon="11.250838"><ele>1074.0</ele><time>2026-04-19T09:46:32.045Z</time></trkpt><trkpt lat="45.766493" lon="11.2509267"><ele>1074.0</ele><time>2026-04-19T09:46:33.045Z</time></trkpt><trkpt lat="45.7664474" lon="11.2510201"><ele>1074.0</ele><time>2026-04-19T09:46:34.046Z</time></trkpt><trkpt lat="45.7664141" lon="11.2511346"><ele>1074.0</ele><time>2026-04-19T09:46:35.043Z</time></trkpt><trkpt lat="45.766378" lon="11.2512705"><ele>1074.0</ele><time>2026-04-19T09:46:36.054Z</time></trkpt><trkpt lat="45.7663605" lon="11.2514234"><ele>1074.8333333333333</ele><time>2026-04-19T09:46:37.048Z</time></trkpt><trkpt lat="45.7663381" lon="11.2515596"><ele>1075.6666666666667</ele><time>2026-04-19T09:46:38.05Z</time></trkpt><trkpt lat="45.7663471" lon="11.2516774"><ele>1076.5</ele><time>2026-04-19T09:46:39.037Z</time></trkpt><trkpt lat="45.7663757" lon="11.2517824"><ele>1077.3333333333335</ele><time>2026-04-19T09:46:40.048Z</time></trkpt><trkpt lat="45.7664201" lon="11.2518646"><ele>1078.1666666666667</ele><time>2026-04-19T09:46:41.063Z</time></trkpt><trkpt lat="45.7664584" lon="11.2519449"><ele>1079.0</ele><time>2026-04-19T09:46:42.047Z</time></trkpt><trkpt lat="45.7664787" lon="11.2520409"><ele>1079.0</ele><time>2026-04-19T09:46:43.039Z</time></trkpt><trkpt lat="45.7664874" lon="11.2521579"><ele>1079.0</ele><time>2026-04-19T09:46:44.047Z</time></trkpt><trkpt lat="45.7664753" lon="11.2523068"><ele>1079.0</ele><time>2026-04-19T09:46:45.051Z</time></trkpt><trkpt lat="45.7664734" lon="11.2524696"><ele>1079.0</ele><time>2026-04-19T09:46:46.057Z</time></trkpt><trkpt lat="45.7664252" lon="11.25262"><ele>1079.0</ele><time>2026-04-19T09:46:47.047Z</time></trkpt><trkpt lat="45.7663932" lon="11.252783"><ele>1079.0</ele><time>2026-04-19T09:46:48.038Z</time></trkpt><trkpt lat="45.7663682" lon="11.2529612"><ele>1079.0</ele><time>2026-04-19T09:46:49.046Z</time></trkpt><trkpt lat="45.7663328" lon="11.2531466"><ele>1079.0</ele><time>2026-04-19T09:46:50.063Z</time></trkpt><trkpt lat="45.7662881" lon="11.2533332"><ele>1079.0</ele><time>2026-04-19T09:46:51.057Z</time></trkpt><trkpt lat="45.7662477" lon="11.2535178"><ele>1079.0</ele><time>2026-04-19T09:46:52.045Z</time></trkpt><trkpt lat="45.7662056" lon="11.2537075"><ele>1079.0</ele><time>2026-04-19T09:46:53.048Z</time></trkpt><trkpt lat="45.7661453" lon="11.2538868"><ele>1079.0</ele><time>2026-04-19T09:46:54.057Z</time></trkpt><trkpt lat="45.766094" lon="11.2540312"><ele>1079.0</ele><time>2026-04-19T09:46:55.055Z</time></trkpt><trkpt lat="45.7660625" lon="11.2541546"><ele>1079.0</ele><time>2026-04-19T09:46:56.039Z</time></trkpt><trkpt lat="45.7660317" lon="11.2542645"><ele>1079.0</ele><time>2026-04-19T09:46:57.057Z</time></trkpt><trkpt lat="45.76605" lon="11.2543891"><ele>1079.0</ele><time>2026-04-19T09:46:58.047Z</time></trkpt><trkpt lat="45.766077" lon="11.2544968"><ele>1079.0</ele><time>2026-04-19T09:46:59.041Z</time></trkpt><trkpt lat="45.7661137" lon="11.2546207"><ele>1079.0</ele><time>2026-04-19T09:47:00.044Z</time></trkpt><trkpt lat="45.7661664" lon="11.2547473"><ele>1079.0</ele><time>2026-04-19T09:47:01.051Z</time></trkpt><trkpt lat="45.7662286" lon="11.2548672"><ele>1076.5</ele><time>2026-04-19T09:47:02.055Z</time></trkpt><trkpt lat="45.7662896" lon="11.2549505"><ele>1074.0</ele><time>2026-04-19T09:47:03.038Z</time></trkpt><trkpt lat="45.7663429" lon="11.2550212"><ele>1071.5</ele><time>2026-04-19T09:47:04.058Z</time></trkpt><trkpt lat="45.7664037" lon="11.255094"><ele>1069.0</ele><time>2026-04-19T09:47:05.045Z</time></trkpt><trkpt lat="45.7664389" lon="11.2551714"><ele>1066.5</ele><time>2026-04-19T09:47:06.053Z</time></trkpt><trkpt lat="45.7664553" lon="11.2553395"><ele>1064.0</ele><time>2026-04-19T09:47:08.037Z</time></trkpt><trkpt lat="45.7664617" lon="11.2554492"><ele>1064.0</ele><time>2026-04-19T09:47:09.051Z</time></trkpt><trkpt lat="45.7665038" lon="11.2555901"><ele>1064.0</ele><time>2026-04-19T09:47:11.049Z</time></trkpt><trkpt lat="45.7665615" lon="11.2556902"><ele>1064.0</ele><time>2026-04-19T09:47:13.053Z</time></trkpt><trkpt lat="45.7666273" lon="11.2557113"><ele>1064.0</ele><time>2026-04-19T09:47:14.04Z</time></trkpt><trkpt lat="45.7667028" lon="11.2557284"><ele>1064.0</ele><time>2026-04-19T09:47:15.04Z</time></trkpt><trkpt lat="45.7668073" lon="11.2557441"><ele>1064.0</ele><time>2026-04-19T09:47:16.064Z</time></trkpt><trkpt lat="45.7669264" lon="11.2558142"><ele>1057.5</ele><time>2026-04-19T09:47:17.061Z</time></trkpt><trkpt lat="45.7670491" lon="11.2558625"><ele>1051.0</ele><time>2026-04-19T09:47:18.041Z</time></trkpt><trkpt lat="45.7671623" lon="11.2558942"><ele>1044.5</ele><time>2026-04-19T09:47:19.041Z</time></trkpt><trkpt lat="45.7672684" lon="11.2559473"><ele>1038.0</ele><time>2026-04-19T09:47:20.039Z</time></trkpt><trkpt lat="45.7673718" lon="11.2560205"><ele>1038.0</ele><time>2026-04-19T09:47:21.05Z</time></trkpt><trkpt lat="45.7674772" lon="11.2560978"><ele>1038.0</ele><time>2026-04-19T09:47:22.048Z</time></trkpt><trkpt lat="45.7675743" lon="11.2561975"><ele>1038.0</ele><time>2026-04-19T09:47:23.052Z</time></trkpt><trkpt lat="45.7676793" lon="11.2562666"><ele>1038.0</ele><time>2026-04-19T09:47:24.041Z</time></trkpt><trkpt lat="45.7677689" lon="11.256359"><ele>1035.0</ele><time>2026-04-19T09:47:25.049Z</time></trkpt><trkpt lat="45.7678673" lon="11.2564568"><ele>1032.0</ele><time>2026-04-19T09:47:26.048Z</time></trkpt><trkpt lat="45.7679679" lon="11.2565689"><ele>1029.0</ele><time>2026-04-19T09:47:27.039Z</time></trkpt><trkpt lat="45.7680735" lon="11.2566679"><ele>1026.0</ele><time>2026-04-19T09:47:28.057Z</time></trkpt><trkpt lat="45.7681768" lon="11.2567656"><ele>1026.0</ele><time>2026-04-19T09:47:29.037Z</time></trkpt><trkpt lat="45.7682677" lon="11.2568536"><ele>1026.0</ele><time>2026-04-19T09:47:30.04Z</time></trkpt><trkpt lat="45.768336" lon="11.2569201"><ele>1026.0</ele><time>2026-04-19T09:47:31.048Z</time></trkpt><trkpt lat="45.7684056" lon="11.2569484"><ele>1026.0</ele><time>2026-04-19T09:47:32.046Z</time></trkpt><trkpt lat="45.768489" lon="11.2569506"><ele>1026.0</ele><time>2026-04-19T09:47:33.052Z</time></trkpt><trkpt lat="45.7685776" lon="11.2569886"><ele>1026.0</ele><time>2026-04-19T09:47:34.046Z</time></trkpt><trkpt lat="45.7686723" lon="11.2570367"><ele>1028.3999999999999</ele><time>2026-04-19T09:47:35.043Z</time></trkpt><trkpt lat="45.7687688" lon="11.2570844"><ele>1030.8</ele><time>2026-04-19T09:47:36.048Z</time></trkpt><trkpt lat="45.768846" lon="11.2571669"><ele>1033.1999999999998</ele><time>2026-04-19T09:47:37.044Z</time></trkpt><trkpt lat="45.7689213" lon="11.2572467"><ele>1035.6</ele><time>2026-04-19T09:47:38.04Z</time></trkpt><trkpt lat="45.7689745" lon="11.2573687"><ele>1038.0</ele><time>2026-04-19T09:47:39.048Z</time></trkpt><trkpt lat="45.7690038" lon="11.2575284"><ele>1038.0</ele><time>2026-04-19T09:47:40.043Z</time></trkpt><trkpt lat="45.7690566" lon="11.2576595"><ele>1038.0</ele><time>2026-04-19T09:47:41.036Z</time></trkpt><trkpt lat="45.7690821" lon="11.2578189"><ele>1038.0</ele><time>2026-04-19T09:47:42.06Z</time></trkpt><trkpt lat="45.7690948" lon="11.2579671"><ele>1038.0</ele><time>2026-04-19T09:47:43.074Z</time></trkpt><trkpt lat="45.7690649" lon="11.2581128"><ele>1038.0</ele><time>2026-04-19T09:47:44.061Z</time></trkpt><trkpt lat="45.7690608" lon="11.2582571"><ele>1034.0</ele><time>2026-04-19T09:47:45.07Z</time></trkpt><trkpt lat="45.7690413" lon="11.258411"><ele>1030.0</ele><time>2026-04-19T09:47:46.069Z</time></trkpt><trkpt lat="45.7690284" lon="11.2585953"><ele>1026.0</ele><time>2026-04-19T09:47:47.06Z</time></trkpt><trkpt lat="45.7690288" lon="11.2588025"><ele>1022.0</ele><time>2026-04-19T09:47:48.056Z</time></trkpt><trkpt lat="45.7690584" lon="11.2589765"><ele>1019.0</ele><time>2026-04-19T09:47:49.04Z</time></trkpt><trkpt lat="45.7691178" lon="11.2591266"><ele>1016.0</ele><time>2026-04-19T09:47:50.04Z</time></trkpt><trkpt lat="45.7691745" lon="11.2592614"><ele>1013.0</ele><time>2026-04-19T09:47:51.057Z</time></trkpt><trkpt lat="45.7692113" lon="11.2594168"><ele>1010.0</ele><time>2026-04-19T09:47:52.053Z</time></trkpt><trkpt lat="45.7692461" lon="11.259592"><ele>1005.3333333333334</ele><time>2026-04-19T09:47:53.057Z</time></trkpt><trkpt lat="45.7692635" lon="11.25979"><ele>1000.6666666666667</ele><time>2026-04-19T09:47:54.048Z</time></trkpt><trkpt lat="45.7692823" lon="11.2600101"><ele>996.0</ele><time>2026-04-19T09:47:55.048Z</time></trkpt><trkpt lat="45.7692758" lon="11.2602401"><ele>996.0</ele><time>2026-04-19T09:47:56.038Z</time></trkpt><trkpt lat="45.7692554" lon="11.2604787"><ele>996.0</ele><time>2026-04-19T09:47:57.064Z</time></trkpt><trkpt lat="45.7692444" lon="11.2607294"><ele>996.0</ele><time>2026-04-19T09:47:58.046Z</time></trkpt><trkpt lat="45.7692527" lon="11.2609892"><ele>993.6666666666667</ele><time>2026-04-19T09:47:59.06Z</time></trkpt><trkpt lat="45.769263" lon="11.2612504"><ele>991.3333333333334</ele><time>2026-04-19T09:48:00.054Z</time></trkpt><trkpt lat="45.7692934" lon="11.2614917"><ele>989.0</ele><time>2026-04-19T09:48:01.055Z</time></trkpt><trkpt lat="45.7693092" lon="11.2617272"><ele>984.6666666666667</ele><time>2026-04-19T09:48:02.043Z</time></trkpt><trkpt lat="45.7692882" lon="11.2619913"><ele>980.3333333333333</ele><time>2026-04-19T09:48:03.058Z</time></trkpt><trkpt lat="45.7692701" lon="11.2622796"><ele>976.0</ele><time>2026-04-19T09:48:04.06Z</time></trkpt><trkpt lat="45.7692556" lon="11.2625376"><ele>976.0</ele><time>2026-04-19T09:48:05.066Z</time></trkpt><trkpt lat="45.7692441" lon="11.262787"><ele>976.0</ele><time>2026-04-19T09:48:06.044Z</time></trkpt><trkpt lat="45.7692191" lon="11.2630261"><ele>976.0</ele><time>2026-04-19T09:48:07.057Z</time></trkpt><trkpt lat="45.7691807" lon="11.2632546"><ele>974.6666666666666</ele><time>2026-04-19T09:48:08.053Z</time></trkpt><trkpt lat="45.7691463" lon="11.2634744"><ele>973.3333333333333</ele><time>2026-04-19T09:48:09.055Z</time></trkpt><trkpt lat="45.7691312" lon="11.2636943"><ele>972.0</ele><time>2026-04-19T09:48:10.044Z</time></trkpt><trkpt lat="45.7691083" lon="11.2639081"><ele>975.25</ele><time>2026-04-19T09:48:11.072Z</time></trkpt><trkpt lat="45.7690687" lon="11.2641107"><ele>978.5</ele><time>2026-04-19T09:48:12.07Z</time></trkpt><trkpt lat="45.7690321" lon="11.2642906"><ele>981.75</ele><time>2026-04-19T09:48:13.063Z</time></trkpt><trkpt lat="45.7690108" lon="11.2644762"><ele>985.0</ele><time>2026-04-19T09:48:14.069Z</time></trkpt><trkpt lat="45.7689629" lon="11.264646"><ele>990.75</ele><time>2026-04-19T09:48:15.05Z</time></trkpt><trkpt lat="45.7689083" lon="11.2647952"><ele>996.5</ele><time>2026-04-19T09:48:16.053Z</time></trkpt><trkpt lat="45.7688313" lon="11.264902"><ele>1002.25</ele><time>2026-04-19T09:48:17.056Z</time></trkpt><trkpt lat="45.7687424" lon="11.2650264"><ele>1008.0</ele><time>2026-04-19T09:48:18.064Z</time></trkpt><trkpt lat="45.7686314" lon="11.2651484"><ele>996.3333333333333</ele><time>2026-04-19T09:48:19.049Z</time></trkpt><trkpt lat="45.7685025" lon="11.26528"><ele>984.6666666666666</ele><time>2026-04-19T09:48:20.06Z</time></trkpt><trkpt lat="45.7683713" lon="11.2654506"><ele>973.0</ele><time>2026-04-19T09:48:21.053Z</time></trkpt><trkpt lat="45.7682537" lon="11.2656123"><ele>973.0</ele><time>2026-04-19T09:48:22.036Z</time></trkpt><trkpt lat="45.768141" lon="11.2657546"><ele>973.0</ele><time>2026-04-19T09:48:23.059Z</time></trkpt><trkpt lat="45.7680523" lon="11.2658779"><ele>973.0</ele><time>2026-04-19T09:48:24.068Z</time></trkpt><trkpt lat="45.7679711" lon="11.2659886"><ele>973.0</ele><time>2026-04-19T09:48:25.059Z</time></trkpt><trkpt lat="45.7679034" lon="11.2660927"><ele>973.0</ele><time>2026-04-19T09:48:26.041Z</time></trkpt><trkpt lat="45.7678374" lon="11.2661751"><ele>973.0</ele><time>2026-04-19T09:48:27.051Z</time></trkpt><trkpt lat="45.7678254" lon="11.2663347"><ele>973.0</ele><time>2026-04-19T09:48:28.05Z</time></trkpt><trkpt lat="45.7678087" lon="11.2664974"><ele>973.0</ele><time>2026-04-19T09:48:29.05Z</time></trkpt><trkpt lat="45.7678191" lon="11.2666735"><ele>973.0</ele><time>2026-04-19T09:48:30.06Z</time></trkpt><trkpt lat="45.7678451" lon="11.2668433"><ele>975.8</ele><time>2026-04-19T09:48:31.056Z</time></trkpt><trkpt lat="45.7678791" lon="11.2670193"><ele>978.5999999999999</ele><time>2026-04-19T09:48:32.084Z</time></trkpt><trkpt lat="45.7679319" lon="11.2671785"><ele>981.4000000000001</ele><time>2026-04-19T09:48:33.038Z</time></trkpt><trkpt lat="45.767964" lon="11.2673146"><ele>984.2</ele><time>2026-04-19T09:48:34.044Z</time></trkpt><trkpt lat="45.7679895" lon="11.2674371"><ele>987.0</ele><time>2026-04-19T09:48:35.041Z</time></trkpt><trkpt lat="45.767989" lon="11.2675504"><ele>987.0</ele><time>2026-04-19T09:48:36.057Z</time></trkpt><trkpt lat="45.7679664" lon="11.2676618"><ele>987.0</ele><time>2026-04-19T09:48:37.046Z</time></trkpt><trkpt lat="45.7679351" lon="11.2677771"><ele>987.0</ele><time>2026-04-19T09:48:38.037Z</time></trkpt><trkpt lat="45.7678869" lon="11.2679229"><ele>987.0</ele><time>2026-04-19T09:48:39.047Z</time></trkpt><trkpt lat="45.7678687" lon="11.2680729"><ele>987.0</ele><time>2026-04-19T09:48:40.037Z</time></trkpt><trkpt lat="45.7678529" lon="11.2682031"><ele>987.0</ele><time>2026-04-19T09:48:41.046Z</time></trkpt><trkpt lat="45.7678726" lon="11.2683426"><ele>987.0</ele><time>2026-04-19T09:48:42.047Z</time></trkpt><trkpt lat="45.7678477" lon="11.2684774"><ele>987.0</ele><time>2026-04-19T09:48:43.047Z</time></trkpt><trkpt lat="45.7678487" lon="11.2686855"><ele>987.0</ele><time>2026-04-19T09:48:44.039Z</time></trkpt><trkpt lat="45.7678715" lon="11.2688929"><ele>987.0</ele><time>2026-04-19T09:48:45.061Z</time></trkpt><trkpt lat="45.7678899" lon="11.269052"><ele>987.0</ele><time>2026-04-19T09:48:46.052Z</time></trkpt><trkpt lat="45.7678954" lon="11.2692041"><ele>987.0</ele><time>2026-04-19T09:48:47.049Z</time></trkpt><trkpt lat="45.7679196" lon="11.2693498"><ele>987.0</ele><time>2026-04-19T09:48:48.052Z</time></trkpt><trkpt lat="45.7679169" lon="11.2695028"><ele>987.0</ele><time>2026-04-19T09:48:49.058Z</time></trkpt><trkpt lat="45.7679091" lon="11.2696485"><ele>987.0</ele><time>2026-04-19T09:48:50.048Z</time></trkpt><trkpt lat="45.7678961" lon="11.2697686"><ele>987.0</ele><time>2026-04-19T09:48:51.038Z</time></trkpt><trkpt lat="45.7679014" lon="11.269885"><ele>987.0</ele><time>2026-04-19T09:48:52.052Z</time></trkpt><trkpt lat="45.7679279" lon="11.2700763"><ele>987.0</ele><time>2026-04-19T09:48:53.051Z</time></trkpt><trkpt lat="45.7679694" lon="11.2701953"><ele>987.0</ele><time>2026-04-19T09:48:54.044Z</time></trkpt><trkpt lat="45.7680418" lon="11.2703493"><ele>983.0</ele><time>2026-04-19T09:48:55.07Z</time></trkpt><trkpt lat="45.7680934" lon="11.2704959"><ele>979.0</ele><time>2026-04-19T09:48:56.047Z</time></trkpt><trkpt lat="45.7681252" lon="11.2706465"><ele>975.0</ele><time>2026-04-19T09:48:57.049Z</time></trkpt><trkpt lat="45.7681386" lon="11.2708468"><ele>971.0</ele><time>2026-04-19T09:48:58.056Z</time></trkpt><trkpt lat="45.7681157" lon="11.271021"><ele>967.0</ele><time>2026-04-19T09:48:59.038Z</time></trkpt><trkpt lat="45.7681107" lon="11.2711571"><ele>962.9999999999999</ele><time>2026-04-19T09:49:00.043Z</time></trkpt><trkpt lat="45.7680913" lon="11.271261"><ele>958.9999999999999</ele><time>2026-04-19T09:49:01.048Z</time></trkpt><trkpt lat="45.7680281" lon="11.2713827"><ele>955.0</ele><time>2026-04-19T09:49:03.039Z</time></trkpt><trkpt lat="45.7679405" lon="11.2715069"><ele>951.0</ele><time>2026-04-19T09:49:04.052Z</time></trkpt><trkpt lat="45.7678563" lon="11.271606"><ele>949.5999999999999</ele><time>2026-04-19T09:49:05.049Z</time></trkpt><trkpt lat="45.7678021" lon="11.2716674"><ele>948.1999999999999</ele><time>2026-04-19T09:49:06.049Z</time></trkpt><trkpt lat="45.7677468" lon="11.2717424"><ele>946.8000000000001</ele><time>2026-04-19T09:49:07.04Z</time></trkpt><trkpt lat="45.767704" lon="11.271851"><ele>945.4000000000001</ele><time>2026-04-19T09:49:08.043Z</time></trkpt><trkpt lat="45.7676667" lon="11.2719775"><ele>944.0</ele><time>2026-04-19T09:49:09.058Z</time></trkpt><trkpt lat="45.7676319" lon="11.2721742"><ele>933.3333333333334</ele><time>2026-04-19T09:49:10.048Z</time></trkpt><trkpt lat="45.7675511" lon="11.2724407"><ele>922.6666666666667</ele><time>2026-04-19T09:49:11.055Z</time></trkpt><trkpt lat="45.7674838" lon="11.2725979"><ele>912.0</ele><time>2026-04-19T09:49:12.042Z</time></trkpt><trkpt lat="45.7674146" lon="11.272771"><ele>912.0</ele><time>2026-04-19T09:49:13.053Z</time></trkpt><trkpt lat="45.7673179" lon="11.2729007"><ele>912.0</ele><time>2026-04-19T09:49:14.058Z</time></trkpt><trkpt lat="45.7672026" lon="11.2730116"><ele>912.0</ele><time>2026-04-19T09:49:15.049Z</time></trkpt><trkpt lat="45.7670783" lon="11.2731194"><ele>912.0</ele><time>2026-04-19T09:49:16.063Z</time></trkpt><trkpt lat="45.7669633" lon="11.2732038"><ele>909.2</ele><time>2026-04-19T09:49:17.049Z</time></trkpt><trkpt lat="45.7668559" lon="11.2732867"><ele>906.4000000000001</ele><time>2026-04-19T09:49:18.049Z</time></trkpt><trkpt lat="45.7667644" lon="11.2733667"><ele>903.5999999999999</ele><time>2026-04-19T09:49:19.052Z</time></trkpt><trkpt lat="45.7666886" lon="11.2734382"><ele>900.8</ele><time>2026-04-19T09:49:20.045Z</time></trkpt><trkpt lat="45.7666291" lon="11.2734891"><ele>898.0</ele><time>2026-04-19T09:49:21.043Z</time></trkpt><trkpt lat="45.7665566" lon="11.2735575"><ele>898.0</ele><time>2026-04-19T09:49:23.052Z</time></trkpt><trkpt lat="45.7663972" lon="11.2736953"><ele>898.0</ele><time>2026-04-19T09:49:55.059Z</time></trkpt><trkpt lat="45.7663604" lon="11.2738254"><ele>898.0</ele><time>2026-04-19T09:49:58.038Z</time></trkpt><trkpt lat="45.7663136" lon="11.2739724"><ele>898.0</ele><time>2026-04-19T09:50:00.039Z</time></trkpt><trkpt lat="45.7662602" lon="11.2741276"><ele>893.8</ele><time>2026-04-19T09:50:01.054Z</time></trkpt><trkpt lat="45.7662014" lon="11.274222"><ele>889.5999999999999</ele><time>2026-04-19T09:50:02.047Z</time></trkpt><trkpt lat="45.7661398" lon="11.2743185"><ele>885.4000000000001</ele><time>2026-04-19T09:50:03.055Z</time></trkpt><trkpt lat="45.7660655" lon="11.2744349"><ele>881.2</ele><time>2026-04-19T09:50:04.05Z</time></trkpt><trkpt lat="45.7659864" lon="11.2745355"><ele>877.0</ele><time>2026-04-19T09:50:05.07Z</time></trkpt><trkpt lat="45.7658798" lon="11.2746753"><ele>881.4999999999999</ele><time>2026-04-19T09:50:06.058Z</time></trkpt><trkpt lat="45.7658389" lon="11.2747792"><ele>886.0</ele><time>2026-04-19T09:50:07.053Z</time></trkpt><trkpt lat="45.7657911" lon="11.2748954"><ele>890.5</ele><time>2026-04-19T09:50:08.046Z</time></trkpt><trkpt lat="45.7657713" lon="11.2750049"><ele>895.0</ele><time>2026-04-19T09:50:09.049Z</time></trkpt><trkpt lat="45.7657496" lon="11.2751183"><ele>899.4999999999999</ele><time>2026-04-19T09:50:10.041Z</time></trkpt><trkpt lat="45.7657247" lon="11.2752099"><ele>904.0</ele><time>2026-04-19T09:50:11.05Z</time></trkpt><trkpt lat="45.7656698" lon="11.2752659"><ele>904.0</ele><time>2026-04-19T09:50:12.04Z</time></trkpt><trkpt lat="45.7655793" lon="11.2752903"><ele>904.0000000000001</ele><time>2026-04-19T09:50:13.042Z</time></trkpt><trkpt lat="45.7654761" lon="11.2752866"><ele>904.0000000000001</ele><time>2026-04-19T09:50:14.051Z</time></trkpt><trkpt lat="45.7653726" lon="11.2752703"><ele>904.0</ele><time>2026-04-19T09:50:15.04Z</time></trkpt><trkpt lat="45.7652727" lon="11.2752672"><ele>904.0</ele><time>2026-04-19T09:50:16.052Z</time></trkpt><trkpt lat="45.7651838" lon="11.2752536"><ele>901.4000000000001</ele><time>2026-04-19T09:50:17.05Z</time></trkpt><trkpt lat="45.7651068" lon="11.2752087"><ele>898.8000000000001</ele><time>2026-04-19T09:50:18.04Z</time></trkpt><trkpt lat="45.765036" lon="11.2751342"><ele>896.1999999999999</ele><time>2026-04-19T09:50:19.055Z</time></trkpt><trkpt lat="45.7649473" lon="11.2750333"><ele>893.5999999999999</ele><time>2026-04-19T09:50:20.045Z</time></trkpt><trkpt lat="45.7648706" lon="11.2749424"><ele>891.0</ele><time>2026-04-19T09:50:21.053Z</time></trkpt><trkpt lat="45.7648225" lon="11.2748211"><ele>885.8</ele><time>2026-04-19T09:50:22.046Z</time></trkpt><trkpt lat="45.7647634" lon="11.2747119"><ele>880.5999999999999</ele><time>2026-04-19T09:50:23.043Z</time></trkpt><trkpt lat="45.7646702" lon="11.2746721"><ele>875.4</ele><time>2026-04-19T09:50:24.05Z</time></trkpt><trkpt lat="45.7645734" lon="11.2746402"><ele>870.2</ele><time>2026-04-19T09:50:25.056Z</time></trkpt><trkpt lat="45.7644837" lon="11.2745916"><ele>865.0</ele><time>2026-04-19T09:50:26.042Z</time></trkpt><trkpt lat="45.7643939" lon="11.274562"><ele>867.2</ele><time>2026-04-19T09:50:27.059Z</time></trkpt><trkpt lat="45.7642989" lon="11.2745372"><ele>869.4</ele><time>2026-04-19T09:50:28.048Z</time></trkpt><trkpt lat="45.7641962" lon="11.2745176"><ele>871.5999999999999</ele><time>2026-04-19T09:50:29.046Z</time></trkpt><trkpt lat="45.7641085" lon="11.274501"><ele>873.8</ele><time>2026-04-19T09:50:30.043Z</time></trkpt><trkpt lat="45.7640198" lon="11.2744829"><ele>876.0</ele><time>2026-04-19T09:50:31.054Z</time></trkpt><trkpt lat="45.7639401" lon="11.274495"><ele>876.0</ele><time>2026-04-19T09:50:32.049Z</time></trkpt><trkpt lat="45.7638768" lon="11.2745087"><ele>875.9999999999999</ele><time>2026-04-19T09:50:33.039Z</time></trkpt><trkpt lat="45.7637824" lon="11.2746573"><ele>875.9999999999999</ele><time>2026-04-19T09:50:35.06Z</time></trkpt><trkpt lat="45.7637315" lon="11.2747958"><ele>876.0</ele><time>2026-04-19T09:50:36.062Z</time></trkpt><trkpt lat="45.7636656" lon="11.2749578"><ele>876.0</ele><time>2026-04-19T09:50:37.049Z</time></trkpt><trkpt lat="45.7636057" lon="11.2751382"><ele>877.25</ele><time>2026-04-19T09:50:38.042Z</time></trkpt><trkpt lat="45.7635525" lon="11.2753284"><ele>878.5</ele><time>2026-04-19T09:50:39.078Z</time></trkpt><trkpt lat="45.7635079" lon="11.2755359"><ele>879.75</ele><time>2026-04-19T09:50:40.045Z</time></trkpt><trkpt lat="45.7634739" lon="11.2757515"><ele>881.0</ele><time>2026-04-19T09:50:41.063Z</time></trkpt><trkpt lat="45.7634221" lon="11.2759587"><ele>883.75</ele><time>2026-04-19T09:50:42.055Z</time></trkpt><trkpt lat="45.7633853" lon="11.2761606"><ele>886.5</ele><time>2026-04-19T09:50:43.05Z</time></trkpt><trkpt lat="45.7633498" lon="11.2763478"><ele>889.25</ele><time>2026-04-19T09:50:44.068Z</time></trkpt><trkpt lat="45.7632961" lon="11.2765114"><ele>892.0</ele><time>2026-04-19T09:50:45.056Z</time></trkpt><trkpt lat="45.7632318" lon="11.276637"><ele>891.4000000000001</ele><time>2026-04-19T09:50:46.065Z</time></trkpt><trkpt lat="45.7631508" lon="11.2767488"><ele>890.8000000000001</ele><time>2026-04-19T09:50:47.059Z</time></trkpt><trkpt lat="45.7630416" lon="11.2768206"><ele>890.2</ele><time>2026-04-19T09:50:48.058Z</time></trkpt><trkpt lat="45.7629439" lon="11.2768672"><ele>889.6</ele><time>2026-04-19T09:50:49.072Z</time></trkpt><trkpt lat="45.762831" lon="11.2768649"><ele>889.0</ele><time>2026-04-19T09:50:50.042Z</time></trkpt><trkpt lat="45.7626947" lon="11.2768121"><ele>889.0</ele><time>2026-04-19T09:50:51.052Z</time></trkpt><trkpt lat="45.7625402" lon="11.2767427"><ele>889.0</ele><time>2026-04-19T09:50:52.049Z</time></trkpt><trkpt lat="45.7623789" lon="11.2767152"><ele>889.0</ele><time>2026-04-19T09:50:53.059Z</time></trkpt><trkpt lat="45.7622358" lon="11.276687"><ele>889.0</ele><time>2026-04-19T09:50:54.051Z</time></trkpt><trkpt lat="45.7620969" lon="11.2766428"><ele>889.0</ele><time>2026-04-19T09:50:55.058Z</time></trkpt><trkpt lat="45.7619574" lon="11.2765907"><ele>889.0</ele><time>2026-04-19T09:50:56.056Z</time></trkpt><trkpt lat="45.76182" lon="11.2765219"><ele>889.0</ele><time>2026-04-19T09:50:57.063Z</time></trkpt><trkpt lat="45.7617015" lon="11.2764453"><ele>891.2</ele><time>2026-04-19T09:50:58.061Z</time></trkpt><trkpt lat="45.7615984" lon="11.2763765"><ele>893.4000000000001</ele><time>2026-04-19T09:50:59.055Z</time></trkpt><trkpt lat="45.7614884" lon="11.2763528"><ele>895.6</ele><time>2026-04-19T09:51:00.048Z</time></trkpt><trkpt lat="45.7613829" lon="11.2763506"><ele>897.8</ele><time>2026-04-19T09:51:01.083Z</time></trkpt><trkpt lat="45.7612708" lon="11.2763954"><ele>900.0</ele><time>2026-04-19T09:51:02.06Z</time></trkpt><trkpt lat="45.7611613" lon="11.2764766"><ele>900.0</ele><time>2026-04-19T09:51:03.063Z</time></trkpt><trkpt lat="45.7610598" lon="11.2765627"><ele>900.0</ele><time>2026-04-19T09:51:04.051Z</time></trkpt><trkpt lat="45.7609646" lon="11.2766281"><ele>900.0</ele><time>2026-04-19T09:51:05.051Z</time></trkpt><trkpt lat="45.7608696" lon="11.2766872"><ele>900.0</ele><time>2026-04-19T09:51:06.04Z</time></trkpt><trkpt lat="45.7607637" lon="11.2767175"><ele>900.0</ele><time>2026-04-19T09:51:07.057Z</time></trkpt><trkpt lat="45.760667" lon="11.2767482"><ele>898.5</ele><time>2026-04-19T09:51:08.056Z</time></trkpt><trkpt lat="45.7605744" lon="11.2767858"><ele>897.0</ele><time>2026-04-19T09:51:09.042Z</time></trkpt><trkpt lat="45.7604779" lon="11.2768691"><ele>895.5</ele><time>2026-04-19T09:51:10.064Z</time></trkpt><trkpt lat="45.760381" lon="11.2769992"><ele>894.0</ele><time>2026-04-19T09:51:11.056Z</time></trkpt><trkpt lat="45.7602595" lon="11.277122"><ele>895.25</ele><time>2026-04-19T09:51:12.061Z</time></trkpt><trkpt lat="45.7601373" lon="11.277246"><ele>896.5</ele><time>2026-04-19T09:51:13.05Z</time></trkpt><trkpt lat="45.7600171" lon="11.2773678"><ele>897.75</ele><time>2026-04-19T09:51:14.059Z</time></trkpt><trkpt lat="45.759883" lon="11.2774596"><ele>899.0</ele><time>2026-04-19T09:51:15.052Z</time></trkpt><trkpt lat="45.7597455" lon="11.2775408"><ele>899.0</ele><time>2026-04-19T09:51:16.041Z</time></trkpt><trkpt lat="45.7596188" lon="11.2776151"><ele>899.0</ele><time>2026-04-19T09:51:17.06Z</time></trkpt><trkpt lat="45.7595016" lon="11.2776849"><ele>899.0</ele><time>2026-04-19T09:51:18.041Z</time></trkpt><trkpt lat="45.7593988" lon="11.2777605"><ele>899.0</ele><time>2026-04-19T09:51:19.065Z</time></trkpt><trkpt lat="45.7593276" lon="11.2778892"><ele>897.75</ele><time>2026-04-19T09:51:20.043Z</time></trkpt><trkpt lat="45.7592861" lon="11.2780485"><ele>896.5</ele><time>2026-04-19T09:51:21.052Z</time></trkpt><trkpt lat="45.7592278" lon="11.2782103"><ele>895.25</ele><time>2026-04-19T09:51:22.052Z</time></trkpt><trkpt lat="45.759148" lon="11.2783676"><ele>894.0</ele><time>2026-04-19T09:51:23.049Z</time></trkpt><trkpt lat="45.7590565" lon="11.2785181"><ele>894.0</ele><time>2026-04-19T09:51:24.041Z</time></trkpt><trkpt lat="45.7589471" lon="11.278671"><ele>894.0</ele><time>2026-04-19T09:51:25.052Z</time></trkpt><trkpt lat="45.7588013" lon="11.278822"><ele>894.0</ele><time>2026-04-19T09:51:26.044Z</time></trkpt><trkpt lat="45.7586612" lon="11.2789993"><ele>893.6666666666667</ele><time>2026-04-19T09:51:27.057Z</time></trkpt><trkpt lat="45.7585115" lon="11.2792013"><ele>893.3333333333334</ele><time>2026-04-19T09:51:28.056Z</time></trkpt><trkpt lat="45.7583889" lon="11.2793939"><ele>893.0</ele><time>2026-04-19T09:51:29.041Z</time></trkpt><trkpt lat="45.7582392" lon="11.2795206"><ele>893.0</ele><time>2026-04-19T09:51:30.044Z</time></trkpt><trkpt lat="45.7581073" lon="11.2796436"><ele>893.0</ele><time>2026-04-19T09:51:31.068Z</time></trkpt><trkpt lat="45.7579867" lon="11.2797612"><ele>893.0</ele><time>2026-04-19T09:51:32.037Z</time></trkpt><trkpt lat="45.7578607" lon="11.2798518"><ele>893.0</ele><time>2026-04-19T09:51:33.057Z</time></trkpt><trkpt lat="45.7577309" lon="11.2799108"><ele>892.5</ele><time>2026-04-19T09:51:34.056Z</time></trkpt><trkpt lat="45.7576086" lon="11.2799539"><ele>892.0</ele><time>2026-04-19T09:51:35.056Z</time></trkpt><trkpt lat="45.757493" lon="11.2800115"><ele>891.5</ele><time>2026-04-19T09:51:36.055Z</time></trkpt><trkpt lat="45.7573864" lon="11.2800874"><ele>891.0</ele><time>2026-04-19T09:51:37.069Z</time></trkpt><trkpt lat="45.7573006" lon="11.2802583"><ele>891.0</ele><time>2026-04-19T09:51:38.038Z</time></trkpt><trkpt lat="45.7572039" lon="11.2804332"><ele>891.0</ele><time>2026-04-19T09:51:39.051Z</time></trkpt><trkpt lat="45.7571092" lon="11.2805991"><ele>891.0</ele><time>2026-04-19T09:51:40.039Z</time></trkpt><trkpt lat="45.7570292" lon="11.280754"><ele>891.0</ele><time>2026-04-19T09:51:41.052Z</time></trkpt><trkpt lat="45.7569753" lon="11.2809148"><ele>891.0</ele><time>2026-04-19T09:51:42.042Z</time></trkpt><trkpt lat="45.7569255" lon="11.2810698"><ele>890.9999999999999</ele><time>2026-04-19T09:51:43.062Z</time></trkpt><trkpt lat="45.7568673" lon="11.2812088"><ele>890.9999999999999</ele><time>2026-04-19T09:51:44.05Z</time></trkpt><trkpt lat="45.7567998" lon="11.2813286"><ele>891.0</ele><time>2026-04-19T09:51:45.058Z</time></trkpt><trkpt lat="45.7567196" lon="11.2814051"><ele>891.0</ele><time>2026-04-19T09:51:46.057Z</time></trkpt><trkpt lat="45.7566563" lon="11.2814834"><ele>891.0</ele><time>2026-04-19T09:51:47.04Z</time></trkpt><trkpt lat="45.7565434" lon="11.2816406"><ele>890.9999999999999</ele><time>2026-04-19T09:51:48.067Z</time></trkpt><trkpt lat="45.756484" lon="11.2817361"><ele>890.9999999999999</ele><time>2026-04-19T09:51:49.067Z</time></trkpt><trkpt lat="45.7564281" lon="11.2818474"><ele>891.0</ele><time>2026-04-19T09:51:50.047Z</time></trkpt><trkpt lat="45.7564285" lon="11.281995"><ele>891.0</ele><time>2026-04-19T09:51:51.049Z</time></trkpt><trkpt lat="45.7564482" lon="11.2821956"><ele>891.75</ele><time>2026-04-19T09:51:52.061Z</time></trkpt><trkpt lat="45.7564323" lon="11.2823984"><ele>892.5</ele><time>2026-04-19T09:51:53.054Z</time></trkpt><trkpt lat="45.7563884" lon="11.2825844"><ele>893.25</ele><time>2026-04-19T09:51:54.051Z</time></trkpt><trkpt lat="45.7563422" lon="11.2827378"><ele>894.0</ele><time>2026-04-19T09:51:55.065Z</time></trkpt><trkpt lat="45.7563086" lon="11.2828582"><ele>894.0</ele><time>2026-04-19T09:51:56.04Z</time></trkpt><trkpt lat="45.756301" lon="11.2829887"><ele>894.0</ele><time>2026-04-19T09:51:57.058Z</time></trkpt><trkpt lat="45.7563474" lon="11.283138"><ele>894.0</ele><time>2026-04-19T09:51:58.033Z</time></trkpt><trkpt lat="45.7563875" lon="11.2833336"><ele>894.0</ele><time>2026-04-19T09:51:59.038Z</time></trkpt><trkpt lat="45.756429" lon="11.2835744"><ele>893.3333333333333</ele><time>2026-04-19T09:52:00.062Z</time></trkpt><trkpt lat="45.7564566" lon="11.2838375"><ele>892.6666666666666</ele><time>2026-04-19T09:52:01.051Z</time></trkpt><trkpt lat="45.7564844" lon="11.2840814"><ele>892.0</ele><time>2026-04-19T09:52:02.05Z</time></trkpt><trkpt lat="45.7565072" lon="11.2843046"><ele>890.25</ele><time>2026-04-19T09:52:03.049Z</time></trkpt><trkpt lat="45.7565159" lon="11.2845212"><ele>888.5</ele><time>2026-04-19T09:52:04.042Z</time></trkpt><trkpt lat="45.7565383" lon="11.2847304"><ele>886.75</ele><time>2026-04-19T09:52:05.049Z</time></trkpt><trkpt lat="45.7565619" lon="11.2849303"><ele>885.0</ele><time>2026-04-19T09:52:06.035Z</time></trkpt><trkpt lat="45.7565925" lon="11.2851189"><ele>881.0</ele><time>2026-04-19T09:52:07.056Z</time></trkpt><trkpt lat="45.7566291" lon="11.2852874"><ele>877.0</ele><time>2026-04-19T09:52:08.062Z</time></trkpt><trkpt lat="45.7566848" lon="11.2854359"><ele>873.0</ele><time>2026-04-19T09:52:09.048Z</time></trkpt><trkpt lat="45.7567322" lon="11.2855782"><ele>869.0</ele><time>2026-04-19T09:52:10.051Z</time></trkpt><trkpt lat="45.7567711" lon="11.2857203"><ele>865.6</ele><time>2026-04-19T09:52:11.043Z</time></trkpt><trkpt lat="45.7568086" lon="11.2858547"><ele>862.2</ele><time>2026-04-19T09:52:12.037Z</time></trkpt><trkpt lat="45.7568198" lon="11.285998"><ele>858.8000000000001</ele><time>2026-04-19T09:52:13.06Z</time></trkpt><trkpt lat="45.7568275" lon="11.2861507"><ele>855.4000000000001</ele><time>2026-04-19T09:52:14.068Z</time></trkpt><trkpt lat="45.756833" lon="11.2863064"><ele>852.0</ele><time>2026-04-19T09:52:15.05Z</time></trkpt><trkpt lat="45.7568377" lon="11.2864732"><ele>849.75</ele><time>2026-04-19T09:52:16.05Z</time></trkpt><trkpt lat="45.7568365" lon="11.2866465"><ele>847.5</ele><time>2026-04-19T09:52:17.049Z</time></trkpt><trkpt lat="45.7568389" lon="11.2868234"><ele>845.25</ele><time>2026-04-19T09:52:18.044Z</time></trkpt><trkpt lat="45.7568449" lon="11.2870022"><ele>843.0</ele><time>2026-04-19T09:52:19.053Z</time></trkpt><trkpt lat="45.756852" lon="11.2871808"><ele>840.75</ele><time>2026-04-19T09:52:20.053Z</time></trkpt><trkpt lat="45.7568481" lon="11.2873636"><ele>838.5</ele><time>2026-04-19T09:52:21.063Z</time></trkpt><trkpt lat="45.7568543" lon="11.287549"><ele>836.25</ele><time>2026-04-19T09:52:22.062Z</time></trkpt><trkpt lat="45.756844" lon="11.2877332"><ele>834.0</ele><time>2026-04-19T09:52:23.048Z</time></trkpt><trkpt lat="45.7568305" lon="11.2879034"><ele>834.0</ele><time>2026-04-19T09:52:24.048Z</time></trkpt><trkpt lat="45.7568174" lon="11.2880594"><ele>834.0</ele><time>2026-04-19T09:52:25.047Z</time></trkpt><trkpt lat="45.7568348" lon="11.2882181"><ele>834.0</ele><time>2026-04-19T09:52:26.041Z</time></trkpt><trkpt lat="45.7568694" lon="11.2883728"><ele>834.0</ele><time>2026-04-19T09:52:27.051Z</time></trkpt><trkpt lat="45.7568998" lon="11.2885374"><ele>839.5</ele><time>2026-04-19T09:52:28.076Z</time></trkpt><trkpt lat="45.7569525" lon="11.2887045"><ele>845.0</ele><time>2026-04-19T09:52:29.041Z</time></trkpt><trkpt lat="45.7570057" lon="11.2888622"><ele>850.5</ele><time>2026-04-19T09:52:30.071Z</time></trkpt><trkpt lat="45.7570376" lon="11.2890245"><ele>856.0</ele><time>2026-04-19T09:52:31.053Z</time></trkpt><trkpt lat="45.7570419" lon="11.28918"><ele>855.9999999999999</ele><time>2026-04-19T09:52:32.038Z</time></trkpt><trkpt lat="45.7570391" lon="11.2893245"><ele>856.0</ele><time>2026-04-19T09:52:33.073Z</time></trkpt><trkpt lat="45.7570195" lon="11.2894609"><ele>856.0</ele><time>2026-04-19T09:52:34.051Z</time></trkpt><trkpt lat="45.7569859" lon="11.289555"><ele>856.0</ele><time>2026-04-19T09:52:35.063Z</time></trkpt><trkpt lat="45.7569219" lon="11.2896175"><ele>855.9999999999999</ele><time>2026-04-19T09:52:36.058Z</time></trkpt><trkpt lat="45.7568221" lon="11.2896306"><ele>856.0</ele><time>2026-04-19T09:52:37.061Z</time></trkpt><trkpt lat="45.7567214" lon="11.2896085"><ele>849.0</ele><time>2026-04-19T09:52:38.056Z</time></trkpt><trkpt lat="45.7566235" lon="11.2895851"><ele>841.9999999999999</ele><time>2026-04-19T09:52:39.047Z</time></trkpt><trkpt lat="45.756534" lon="11.2895613"><ele>835.0</ele><time>2026-04-19T09:52:40.058Z</time></trkpt><trkpt lat="45.7564484" lon="11.2894905"><ele>828.0</ele><time>2026-04-19T09:52:41.035Z</time></trkpt><trkpt lat="45.7563498" lon="11.2894162"><ele>821.0</ele><time>2026-04-19T09:52:42.069Z</time></trkpt><trkpt lat="45.756266" lon="11.2893034"><ele>821.0</ele><time>2026-04-19T09:52:43.058Z</time></trkpt><trkpt lat="45.7561922" lon="11.2891822"><ele>821.0</ele><time>2026-04-19T09:52:44.06Z</time></trkpt><trkpt lat="45.7561464" lon="11.2890443"><ele>821.0</ele><time>2026-04-19T09:52:45.068Z</time></trkpt><trkpt lat="45.756093" lon="11.2889091"><ele>821.0</ele><time>2026-04-19T09:52:46.041Z</time></trkpt><trkpt lat="45.7560335" lon="11.2887783"><ele>821.0</ele><time>2026-04-19T09:52:47.047Z</time></trkpt><trkpt lat="45.7559622" lon="11.2886606"><ele>817.3333333333334</ele><time>2026-04-19T09:52:48.062Z</time></trkpt><trkpt lat="45.7558978" lon="11.2885643"><ele>813.6666666666667</ele><time>2026-04-19T09:52:49.037Z</time></trkpt><trkpt lat="45.7558187" lon="11.2885133"><ele>810.0</ele><time>2026-04-19T09:52:50.051Z</time></trkpt><trkpt lat="45.7557383" lon="11.2885134"><ele>806.3333333333333</ele><time>2026-04-19T09:52:51.042Z</time></trkpt><trkpt lat="45.7556801" lon="11.288553"><ele>802.6666666666666</ele><time>2026-04-19T09:52:52.058Z</time></trkpt><trkpt lat="45.7556408" lon="11.2886458"><ele>799.0</ele><time>2026-04-19T09:52:53.056Z</time></trkpt><trkpt lat="45.7556322" lon="11.2888028"><ele>803.25</ele><time>2026-04-19T09:52:54.06Z</time></trkpt><trkpt lat="45.7556045" lon="11.2889662"><ele>807.5</ele><time>2026-04-19T09:52:55.058Z</time></trkpt><trkpt lat="45.7555603" lon="11.2891214"><ele>811.75</ele><time>2026-04-19T09:52:56.062Z</time></trkpt><trkpt lat="45.7554725" lon="11.2892435"><ele>816.0</ele><time>2026-04-19T09:52:57.053Z</time></trkpt><trkpt lat="45.755352" lon="11.28933"><ele>816.0</ele><time>2026-04-19T09:52:58.057Z</time></trkpt><trkpt lat="45.7552365" lon="11.2894241"><ele>816.0</ele><time>2026-04-19T09:52:59.049Z</time></trkpt><trkpt lat="45.7551252" lon="11.2895134"><ele>816.0</ele><time>2026-04-19T09:53:00.041Z</time></trkpt><trkpt lat="45.7550195" lon="11.2896049"><ele>816.0</ele><time>2026-04-19T09:53:01.065Z</time></trkpt><trkpt lat="45.7549265" lon="11.2897225"><ele>816.0</ele><time>2026-04-19T09:53:02.066Z</time></trkpt><trkpt lat="45.7548212" lon="11.2898397"><ele>816.0</ele><time>2026-04-19T09:53:03.04Z</time></trkpt><trkpt lat="45.7547197" lon="11.289981"><ele>816.0</ele><time>2026-04-19T09:53:04.058Z</time></trkpt><trkpt lat="45.7546095" lon="11.2901176"><ele>816.0</ele><time>2026-04-19T09:53:05.059Z</time></trkpt><trkpt lat="45.7544992" lon="11.290243"><ele>816.0</ele><time>2026-04-19T09:53:06.041Z</time></trkpt><trkpt lat="45.7543916" lon="11.2903741"><ele>816.0</ele><time>2026-04-19T09:53:07.048Z</time></trkpt><trkpt lat="45.7542839" lon="11.2905028"><ele>816.0</ele><time>2026-04-19T09:53:08.046Z</time></trkpt><trkpt lat="45.7541605" lon="11.2905859"><ele>816.0</ele><time>2026-04-19T09:53:09.036Z</time></trkpt><trkpt lat="45.7540408" lon="11.2906473"><ele>814.5</ele><time>2026-04-19T09:53:10.047Z</time></trkpt><trkpt lat="45.7539251" lon="11.290712"><ele>813.0</ele><time>2026-04-19T09:53:11.042Z</time></trkpt><trkpt lat="45.7538318" lon="11.2908353"><ele>811.5</ele><time>2026-04-19T09:53:12.046Z</time></trkpt><trkpt lat="45.7537605" lon="11.2909826"><ele>810.0</ele><time>2026-04-19T09:53:13.051Z</time></trkpt><trkpt lat="45.7536753" lon="11.2910929"><ele>810.0</ele><time>2026-04-19T09:53:14.044Z</time></trkpt><trkpt lat="45.7535859" lon="11.2912056"><ele>810.0</ele><time>2026-04-19T09:53:15.049Z</time></trkpt><trkpt lat="45.7534575" lon="11.29129"><ele>810.0</ele><time>2026-04-19T09:53:16.052Z</time></trkpt><trkpt lat="45.7532959" lon="11.2913608"><ele>810.0</ele><time>2026-04-19T09:53:17.056Z</time></trkpt><trkpt lat="45.7531646" lon="11.2915231"><ele>807.6666666666667</ele><time>2026-04-19T09:53:18.052Z</time></trkpt><trkpt lat="45.7530188" lon="11.2916392"><ele>805.3333333333334</ele><time>2026-04-19T09:53:19.057Z</time></trkpt><trkpt lat="45.7528631" lon="11.2917341"><ele>803.0</ele><time>2026-04-19T09:53:20.047Z</time></trkpt><trkpt lat="45.7527096" lon="11.2918244"><ele>793.3333333333334</ele><time>2026-04-19T09:53:21.059Z</time></trkpt><trkpt lat="45.7525541" lon="11.2919146"><ele>783.6666666666667</ele><time>2026-04-19T09:53:22.052Z</time></trkpt><trkpt lat="45.7524024" lon="11.2920002"><ele>774.0</ele><time>2026-04-19T09:53:23.053Z</time></trkpt><trkpt lat="45.7522751" lon="11.2921123"><ele>774.0</ele><time>2026-04-19T09:53:24.063Z</time></trkpt><trkpt lat="45.7521555" lon="11.2922239"><ele>774.0</ele><time>2026-04-19T09:53:25.044Z</time></trkpt><trkpt lat="45.7520432" lon="11.292341"><ele>774.0</ele><time>2026-04-19T09:53:26.057Z</time></trkpt><trkpt lat="45.7519171" lon="11.2924359"><ele>774.0</ele><time>2026-04-19T09:53:27.07Z</time></trkpt><trkpt lat="45.7517783" lon="11.2924884"><ele>773.5</ele><time>2026-04-19T09:53:28.048Z</time></trkpt><trkpt lat="45.7516358" lon="11.2925141"><ele>773.0</ele><time>2026-04-19T09:53:29.063Z</time></trkpt><trkpt lat="45.7514973" lon="11.2925431"><ele>772.5</ele><time>2026-04-19T09:53:30.039Z</time></trkpt><trkpt lat="45.7513668" lon="11.292599"><ele>772.0</ele><time>2026-04-19T09:53:31.041Z</time></trkpt><trkpt lat="45.7512395" lon="11.2927018"><ele>772.0</ele><time>2026-04-19T09:53:32.051Z</time></trkpt><trkpt lat="45.7511183" lon="11.2928392"><ele>772.0</ele><time>2026-04-19T09:53:33.058Z</time></trkpt><trkpt lat="45.7509708" lon="11.2929399"><ele>772.0</ele><time>2026-04-19T09:53:34.047Z</time></trkpt><trkpt lat="45.7508343" lon="11.2930925"><ele>772.3333333333333</ele><time>2026-04-19T09:53:35.074Z</time></trkpt><trkpt lat="45.7506709" lon="11.2931936"><ele>772.6666666666667</ele><time>2026-04-19T09:53:36.046Z</time></trkpt><trkpt lat="45.7504958" lon="11.293275"><ele>773.0</ele><time>2026-04-19T09:53:37.046Z</time></trkpt><trkpt lat="45.750325" lon="11.2933372"><ele>768.75</ele><time>2026-04-19T09:53:38.04Z</time></trkpt><trkpt lat="45.7501838" lon="11.2933931"><ele>764.5</ele><time>2026-04-19T09:53:39.058Z</time></trkpt><trkpt lat="45.7500588" lon="11.2934506"><ele>760.25</ele><time>2026-04-19T09:53:40.045Z</time></trkpt><trkpt lat="45.7499436" lon="11.2935645"><ele>756.0</ele><time>2026-04-19T09:53:41.045Z</time></trkpt><trkpt lat="45.7498084" lon="11.2936749"><ele>756.0</ele><time>2026-04-19T09:53:42.04Z</time></trkpt><trkpt lat="45.7497172" lon="11.2938707"><ele>756.0</ele><time>2026-04-19T09:53:43.058Z</time></trkpt><trkpt lat="45.7495946" lon="11.2940193"><ele>756.0</ele><time>2026-04-19T09:53:44.045Z</time></trkpt><trkpt lat="45.7494628" lon="11.2941399"><ele>755.25</ele><time>2026-04-19T09:53:45.057Z</time></trkpt><trkpt lat="45.7493518" lon="11.2942515"><ele>754.5</ele><time>2026-04-19T09:53:46.037Z</time></trkpt><trkpt lat="45.7492304" lon="11.2942722"><ele>753.75</ele><time>2026-04-19T09:53:47.048Z</time></trkpt><trkpt lat="45.7491326" lon="11.2943013"><ele>753.0</ele><time>2026-04-19T09:53:48.046Z</time></trkpt><trkpt lat="45.7490499" lon="11.2943891"><ele>753.0</ele><time>2026-04-19T09:53:49.047Z</time></trkpt><trkpt lat="45.7489906" lon="11.2945051"><ele>753.0</ele><time>2026-04-19T09:53:50.06Z</time></trkpt><trkpt lat="45.7489618" lon="11.2946534"><ele>753.0</ele><time>2026-04-19T09:53:51.069Z</time></trkpt><trkpt lat="45.7489474" lon="11.294822"><ele>753.0</ele><time>2026-04-19T09:53:52.045Z</time></trkpt><trkpt lat="45.7489535" lon="11.2949941"><ele>753.0</ele><time>2026-04-19T09:53:53.048Z</time></trkpt><trkpt lat="45.7489518" lon="11.2951436"><ele>753.8333333333334</ele><time>2026-04-19T09:53:54.048Z</time></trkpt><trkpt lat="45.74895" lon="11.2952693"><ele>754.6666666666666</ele><time>2026-04-19T09:53:55.052Z</time></trkpt><trkpt lat="45.7489546" lon="11.2953646"><ele>755.5</ele><time>2026-04-19T09:53:56.044Z</time></trkpt><trkpt lat="45.7489055" lon="11.2954461"><ele>756.3333333333333</ele><time>2026-04-19T09:53:57.057Z</time></trkpt><trkpt lat="45.7488401" lon="11.295498"><ele>757.1666666666666</ele><time>2026-04-19T09:53:58.05Z</time></trkpt><trkpt lat="45.7487608" lon="11.2954973"><ele>758.0</ele><time>2026-04-19T09:53:59.045Z</time></trkpt><trkpt lat="45.7486697" lon="11.295483"><ele>758.0</ele><time>2026-04-19T09:54:00.047Z</time></trkpt><trkpt lat="45.7485762" lon="11.2954866"><ele>758.0</ele><time>2026-04-19T09:54:01.036Z</time></trkpt><trkpt lat="45.7484847" lon="11.2955275"><ele>758.0</ele><time>2026-04-19T09:54:02.04Z</time></trkpt><trkpt lat="45.7483955" lon="11.2956319"><ele>758.0</ele><time>2026-04-19T09:54:03.048Z</time></trkpt><trkpt lat="45.7482957" lon="11.2957791"><ele>758.0</ele><time>2026-04-19T09:54:04.042Z</time></trkpt><trkpt lat="45.7482186" lon="11.2959255"><ele>758.5999999999999</ele><time>2026-04-19T09:54:05.072Z</time></trkpt><trkpt lat="45.7481657" lon="11.2960807"><ele>759.1999999999999</ele><time>2026-04-19T09:54:06.062Z</time></trkpt><trkpt lat="45.7481176" lon="11.2962249"><ele>759.8</ele><time>2026-04-19T09:54:07.042Z</time></trkpt><trkpt lat="45.7480655" lon="11.2963301"><ele>760.4</ele><time>2026-04-19T09:54:08.04Z</time></trkpt><trkpt lat="45.747959" lon="11.2964146"><ele>761.0</ele><time>2026-04-19T09:54:09.051Z</time></trkpt><trkpt lat="45.7478419" lon="11.296493"><ele>761.0</ele><time>2026-04-19T09:54:10.032Z</time></trkpt><trkpt lat="45.7477322" lon="11.2965961"><ele>761.0</ele><time>2026-04-19T09:54:11.044Z</time></trkpt><trkpt lat="45.7476304" lon="11.2966735"><ele>761.0</ele><time>2026-04-19T09:54:12.035Z</time></trkpt><trkpt lat="45.7475166" lon="11.2966777"><ele>761.0</ele><time>2026-04-19T09:54:13.057Z</time></trkpt><trkpt lat="45.7474079" lon="11.2966458"><ele>756.25</ele><time>2026-04-19T09:54:14.037Z</time></trkpt><trkpt lat="45.7473033" lon="11.2966214"><ele>751.5</ele><time>2026-04-19T09:54:15.045Z</time></trkpt><trkpt lat="45.7472039" lon="11.2966258"><ele>746.75</ele><time>2026-04-19T09:54:16.041Z</time></trkpt><trkpt lat="45.7470946" lon="11.2967243"><ele>742.0</ele><time>2026-04-19T09:54:17.057Z</time></trkpt><trkpt lat="45.7469906" lon="11.2968347"><ele>742.0</ele><time>2026-04-19T09:54:18.059Z</time></trkpt><trkpt lat="45.7468932" lon="11.296934"><ele>742.0</ele><time>2026-04-19T09:54:19.071Z</time></trkpt><trkpt lat="45.746808" lon="11.2970545"><ele>742.0</ele><time>2026-04-19T09:54:20.043Z</time></trkpt><trkpt lat="45.7467216" lon="11.2971687"><ele>742.0</ele><time>2026-04-19T09:54:21.066Z</time></trkpt><trkpt lat="45.7466403" lon="11.2972883"><ele>741.4000000000001</ele><time>2026-04-19T09:54:22.062Z</time></trkpt><trkpt lat="45.7465576" lon="11.2974039"><ele>740.8000000000001</ele><time>2026-04-19T09:54:23.062Z</time></trkpt><trkpt lat="45.7464749" lon="11.2975119"><ele>740.2</ele><time>2026-04-19T09:54:24.036Z</time></trkpt><trkpt lat="45.7463913" lon="11.2976051"><ele>739.6</ele><time>2026-04-19T09:54:25.054Z</time></trkpt><trkpt lat="45.7462949" lon="11.297676"><ele>739.0</ele><time>2026-04-19T09:54:26.054Z</time></trkpt><trkpt lat="45.7461938" lon="11.2977425"><ele>739.0</ele><time>2026-04-19T09:54:27.049Z</time></trkpt><trkpt lat="45.7460982" lon="11.2978117"><ele>739.0</ele><time>2026-04-19T09:54:28.039Z</time></trkpt><trkpt lat="45.7460061" lon="11.297872"><ele>739.0</ele><time>2026-04-19T09:54:29.043Z</time></trkpt><trkpt lat="45.7459204" lon="11.2979181"><ele>739.0</ele><time>2026-04-19T09:54:30.058Z</time></trkpt><trkpt lat="45.7458628" lon="11.2979961"><ele>739.0</ele><time>2026-04-19T09:54:31.056Z</time></trkpt><trkpt lat="45.7458102" lon="11.2980683"><ele>736.2</ele><time>2026-04-19T09:54:32.06Z</time></trkpt><trkpt lat="45.7457632" lon="11.2981339"><ele>733.4000000000001</ele><time>2026-04-19T09:54:33.048Z</time></trkpt><trkpt lat="45.7456689" lon="11.2982256"><ele>730.6</ele><time>2026-04-19T09:54:35.05Z</time></trkpt><trkpt lat="45.7455942" lon="11.2983261"><ele>727.8</ele><time>2026-04-19T09:54:37.045Z</time></trkpt><trkpt lat="45.7455493" lon="11.2984243"><ele>725.0</ele><time>2026-04-19T09:54:39.054Z</time></trkpt><trkpt lat="45.7454883" lon="11.2985116"><ele>725.0</ele><time>2026-04-19T09:54:42.05Z</time></trkpt><trkpt lat="45.7454618" lon="11.2986063"><ele>725.0</ele><time>2026-04-19T09:54:45.042Z</time></trkpt><trkpt lat="45.7454479" lon="11.2987134"><ele>725.0</ele><time>2026-04-19T09:54:51.037Z</time></trkpt><trkpt lat="45.745382" lon="11.2988001"><ele>725.0</ele><time>2026-04-19T09:54:53.054Z</time></trkpt><trkpt lat="45.7453409" lon="11.2989276"><ele>725.0</ele><time>2026-04-19T09:54:55.056Z</time></trkpt><trkpt lat="45.7452761" lon="11.2990777"><ele>723.2</ele><time>2026-04-19T09:54:57.059Z</time></trkpt><trkpt lat="45.7452337" lon="11.2991768"><ele>721.4</ele><time>2026-04-19T09:54:58.041Z</time></trkpt><trkpt lat="45.7451805" lon="11.2992844"><ele>719.5999999999999</ele><time>2026-04-19T09:54:59.055Z</time></trkpt><trkpt lat="45.7451291" lon="11.29941"><ele>717.8</ele><time>2026-04-19T09:55:00.039Z</time></trkpt><trkpt lat="45.7450709" lon="11.2995422"><ele>716.0</ele><time>2026-04-19T09:55:01.062Z</time></trkpt><trkpt lat="45.7449911" lon="11.2996606"><ele>718.0</ele><time>2026-04-19T09:55:02.057Z</time></trkpt><trkpt lat="45.7449197" lon="11.2997864"><ele>720.0</ele><time>2026-04-19T09:55:03.055Z</time></trkpt><trkpt lat="45.7448566" lon="11.2999165"><ele>722.0</ele><time>2026-04-19T09:55:04.054Z</time></trkpt><trkpt lat="45.7447914" lon="11.3000493"><ele>724.0</ele><time>2026-04-19T09:55:05.047Z</time></trkpt><trkpt lat="45.7447427" lon="11.3001927"><ele>726.0</ele><time>2026-04-19T09:55:06.043Z</time></trkpt><trkpt lat="45.7446868" lon="11.3003272"><ele>726.0</ele><time>2026-04-19T09:55:07.047Z</time></trkpt><trkpt lat="45.7446464" lon="11.300469"><ele>726.0</ele><time>2026-04-19T09:55:08.039Z</time></trkpt><trkpt lat="45.7445867" lon="11.3005903"><ele>726.0</ele><time>2026-04-19T09:55:09.056Z</time></trkpt><trkpt lat="45.7445186" lon="11.3007055"><ele>726.0</ele><time>2026-04-19T09:55:10.046Z</time></trkpt><trkpt lat="45.7444475" lon="11.3008162"><ele>726.0</ele><time>2026-04-19T09:55:11.041Z</time></trkpt><trkpt lat="45.744379" lon="11.3009289"><ele>723.25</ele><time>2026-04-19T09:55:12.04Z</time></trkpt><trkpt lat="45.7443032" lon="11.3010289"><ele>720.5</ele><time>2026-04-19T09:55:13.058Z</time></trkpt><trkpt lat="45.7442154" lon="11.3011204"><ele>717.75</ele><time>2026-04-19T09:55:14.039Z</time></trkpt><trkpt lat="45.7441068" lon="11.3011999"><ele>715.0</ele><time>2026-04-19T09:55:15.054Z</time></trkpt><trkpt lat="45.7439956" lon="11.3012919"><ele>715.0</ele><time>2026-04-19T09:55:16.056Z</time></trkpt><trkpt lat="45.743884" lon="11.3013802"><ele>715.0</ele><time>2026-04-19T09:55:17.048Z</time></trkpt><trkpt lat="45.7437764" lon="11.3014657"><ele>715.0</ele><time>2026-04-19T09:55:18.06Z</time></trkpt><trkpt lat="45.7436659" lon="11.3015383"><ele>715.0</ele><time>2026-04-19T09:55:19.048Z</time></trkpt><trkpt lat="45.7435683" lon="11.3016268"><ele>712.8</ele><time>2026-04-19T09:55:20.047Z</time></trkpt><trkpt lat="45.7434837" lon="11.3017292"><ele>710.6</ele><time>2026-04-19T09:55:21.058Z</time></trkpt><trkpt lat="45.7434208" lon="11.3018617"><ele>708.4000000000001</ele><time>2026-04-19T09:55:22.053Z</time></trkpt><trkpt lat="45.7433869" lon="11.3020181"><ele>706.2</ele><time>2026-04-19T09:55:23.051Z</time></trkpt><trkpt lat="45.7433654" lon="11.3021715"><ele>704.0</ele><time>2026-04-19T09:55:24.036Z</time></trkpt><trkpt lat="45.7433452" lon="11.3023209"><ele>703.6666666666666</ele><time>2026-04-19T09:55:25.059Z</time></trkpt><trkpt lat="45.7433448" lon="11.3024639"><ele>703.3333333333333</ele><time>2026-04-19T09:55:26.046Z</time></trkpt><trkpt lat="45.743354" lon="11.3025928"><ele>703.0</ele><time>2026-04-19T09:55:27.04Z</time></trkpt><trkpt lat="45.7433838" lon="11.302695"><ele>702.6666666666666</ele><time>2026-04-19T09:55:28.04Z</time></trkpt><trkpt lat="45.743422" lon="11.3027832"><ele>702.3333333333334</ele><time>2026-04-19T09:55:29.077Z</time></trkpt><trkpt lat="45.7434884" lon="11.3028246"><ele>702.0</ele><time>2026-04-19T09:55:30.051Z</time></trkpt><trkpt lat="45.7435798" lon="11.30281"><ele>705.2</ele><time>2026-04-19T09:55:31.042Z</time></trkpt><trkpt lat="45.7436597" lon="11.3028038"><ele>708.4000000000001</ele><time>2026-04-19T09:55:32.041Z</time></trkpt><trkpt lat="45.7437225" lon="11.3028314"><ele>711.5999999999999</ele><time>2026-04-19T09:55:33.046Z</time></trkpt><trkpt lat="45.7438011" lon="11.3029296"><ele>714.8</ele><time>2026-04-19T09:55:35.049Z</time></trkpt><trkpt lat="45.7437514" lon="11.3031582"><ele>718.0</ele><time>2026-04-19T09:55:37.053Z</time></trkpt><trkpt lat="45.7436891" lon="11.3032798"><ele>718.0</ele><time>2026-04-19T09:55:38.033Z</time></trkpt><trkpt lat="45.7436357" lon="11.3034164"><ele>718.0</ele><time>2026-04-19T09:55:39.056Z</time></trkpt><trkpt lat="45.7435756" lon="11.3034896"><ele>718.0</ele><time>2026-04-19T09:55:40.034Z</time></trkpt><trkpt lat="45.7434976" lon="11.3036174"><ele>718.0</ele><time>2026-04-19T09:55:42.045Z</time></trkpt><trkpt lat="45.7434692" lon="11.3036984"><ele>718.0</ele><time>2026-04-19T09:55:43.037Z</time></trkpt><trkpt lat="45.7434502" lon="11.3037973"><ele>718.0</ele><time>2026-04-19T09:55:44.041Z</time></trkpt><trkpt lat="45.7434316" lon="11.3038987"><ele>714.0</ele><time>2026-04-19T09:55:45.053Z</time></trkpt><trkpt lat="45.7434066" lon="11.3039967"><ele>710.0</ele><time>2026-04-19T09:55:46.041Z</time></trkpt><trkpt lat="45.7433386" lon="11.3040451"><ele>706.0</ele><time>2026-04-19T09:55:47.047Z</time></trkpt><trkpt lat="45.7432531" lon="11.3040636"><ele>702.0</ele><time>2026-04-19T09:55:48.074Z</time></trkpt><trkpt lat="45.7431622" lon="11.3040958"><ele>698.0</ele><time>2026-04-19T09:55:49.063Z</time></trkpt><trkpt lat="45.7430669" lon="11.3041618"><ele>694.0</ele><time>2026-04-19T09:55:50.064Z</time></trkpt><trkpt lat="45.7429754" lon="11.3042353"><ele>694.0</ele><time>2026-04-19T09:55:51.049Z</time></trkpt><trkpt lat="45.7429078" lon="11.3043615"><ele>694.0</ele><time>2026-04-19T09:55:52.036Z</time></trkpt><trkpt lat="45.7428685" lon="11.3045258"><ele>694.0</ele><time>2026-04-19T09:55:53.082Z</time></trkpt><trkpt lat="45.742828" lon="11.3047102"><ele>694.0</ele><time>2026-04-19T09:55:54.041Z</time></trkpt><trkpt lat="45.742798" lon="11.3049296"><ele>696.6666666666667</ele><time>2026-04-19T09:55:55.06Z</time></trkpt><trkpt lat="45.7427679" lon="11.3051633"><ele>699.3333333333334</ele><time>2026-04-19T09:55:56.036Z</time></trkpt><trkpt lat="45.7427312" lon="11.3053951"><ele>702.0</ele><time>2026-04-19T09:55:57.08Z</time></trkpt><trkpt lat="45.7427015" lon="11.3056283"><ele>692.3333333333334</ele><time>2026-04-19T09:55:58.058Z</time></trkpt><trkpt lat="45.742684" lon="11.3058688"><ele>682.6666666666667</ele><time>2026-04-19T09:55:59.053Z</time></trkpt><trkpt lat="45.7426584" lon="11.3060875"><ele>673.0</ele><time>2026-04-19T09:56:00.056Z</time></trkpt><trkpt lat="45.7426112" lon="11.3062897"><ele>673.75</ele><time>2026-04-19T09:56:01.043Z</time></trkpt><trkpt lat="45.7425385" lon="11.3064767"><ele>674.5</ele><time>2026-04-19T09:56:02.059Z</time></trkpt><trkpt lat="45.7424446" lon="11.3066448"><ele>675.25</ele><time>2026-04-19T09:56:03.068Z</time></trkpt><trkpt lat="45.7423599" lon="11.306795"><ele>676.0</ele><time>2026-04-19T09:56:04.051Z</time></trkpt><trkpt lat="45.7422422" lon="11.3068816"><ele>676.0</ele><time>2026-04-19T09:56:05.067Z</time></trkpt><trkpt lat="45.7421416" lon="11.3069546"><ele>676.0</ele><time>2026-04-19T09:56:06.061Z</time></trkpt><trkpt lat="45.7420676" lon="11.3070262"><ele>676.0</ele><time>2026-04-19T09:56:07.059Z</time></trkpt><trkpt lat="45.7419989" lon="11.3070825"><ele>676.0</ele><time>2026-04-19T09:56:08.062Z</time></trkpt><trkpt lat="45.7419632" lon="11.3071837"><ele>676.0</ele><time>2026-04-19T09:56:09.076Z</time></trkpt><trkpt lat="45.7419933" lon="11.3073138"><ele>675.5999999999999</ele><time>2026-04-19T09:56:10.056Z</time></trkpt><trkpt lat="45.7420714" lon="11.307437"><ele>675.2</ele><time>2026-04-19T09:56:11.071Z</time></trkpt><trkpt lat="45.7421328" lon="11.3075449"><ele>674.8</ele><time>2026-04-19T09:56:12.048Z</time></trkpt><trkpt lat="45.7421905" lon="11.307635"><ele>674.4000000000001</ele><time>2026-04-19T09:56:13.048Z</time></trkpt><trkpt lat="45.7422234" lon="11.3077165"><ele>674.0</ele><time>2026-04-19T09:56:14.054Z</time></trkpt><trkpt lat="45.7421784" lon="11.3078283"><ele>674.0</ele><time>2026-04-19T09:56:16.044Z</time></trkpt><trkpt lat="45.7420596" lon="11.3077168"><ele>674.0</ele><time>2026-04-19T09:56:18.055Z</time></trkpt><trkpt lat="45.7419729" lon="11.3075946"><ele>674.0</ele><time>2026-04-19T09:56:19.055Z</time></trkpt><trkpt lat="45.7418673" lon="11.3074707"><ele>674.0</ele><time>2026-04-19T09:56:20.061Z</time></trkpt><trkpt lat="45.7417725" lon="11.3073527"><ele>670.0</ele><time>2026-04-19T09:56:21.041Z</time></trkpt><trkpt lat="45.7416809" lon="11.3072315"><ele>666.0</ele><time>2026-04-19T09:56:22.036Z</time></trkpt><trkpt lat="45.7416036" lon="11.3071023"><ele>662.0</ele><time>2026-04-19T09:56:23.053Z</time></trkpt><trkpt lat="45.7415546" lon="11.3069907"><ele>658.0</ele><time>2026-04-19T09:56:24.055Z</time></trkpt><trkpt lat="45.7415471" lon="11.3068911"><ele>654.0</ele><time>2026-04-19T09:56:25.057Z</time></trkpt><trkpt lat="45.7415647" lon="11.3067705"><ele>654.0</ele><time>2026-04-19T09:56:26.051Z</time></trkpt><trkpt lat="45.7416461" lon="11.3066276"><ele>654.0</ele><time>2026-04-19T09:56:27.063Z</time></trkpt><trkpt lat="45.7417555" lon="11.3064921"><ele>654.0</ele><time>2026-04-19T09:56:28.061Z</time></trkpt><trkpt lat="45.7418371" lon="11.3063425"><ele>654.0</ele><time>2026-04-19T09:56:29.071Z</time></trkpt><trkpt lat="45.7419047" lon="11.3061959"><ele>652.5</ele><time>2026-04-19T09:56:30.062Z</time></trkpt><trkpt lat="45.7419542" lon="11.3060696"><ele>651.0</ele><time>2026-04-19T09:56:31.049Z</time></trkpt><trkpt lat="45.7419898" lon="11.3059722"><ele>649.5</ele><time>2026-04-19T09:56:32.049Z</time></trkpt><trkpt lat="45.7419923" lon="11.3058812"><ele>648.0</ele><time>2026-04-19T09:56:33.048Z</time></trkpt><trkpt lat="45.7419096" lon="11.3058156"><ele>646.5</ele><time>2026-04-19T09:56:35.04Z</time></trkpt><trkpt lat="45.7418497" lon="11.3058707"><ele>645.0</ele><time>2026-04-19T09:56:36.059Z</time></trkpt><trkpt lat="45.7417908" lon="11.3060164"><ele>645.0</ele><time>2026-04-19T09:56:37.043Z</time></trkpt><trkpt lat="45.7417358" lon="11.3062012"><ele>645.0</ele><time>2026-04-19T09:56:38.044Z</time></trkpt><trkpt lat="45.741659" lon="11.3063717"><ele>645.0</ele><time>2026-04-19T09:56:39.05Z</time></trkpt><trkpt lat="45.7415659" lon="11.3065077"><ele>645.0</ele><time>2026-04-19T09:56:40.058Z</time></trkpt><trkpt lat="45.7414315" lon="11.3065759"><ele>647.25</ele><time>2026-04-19T09:56:41.071Z</time></trkpt><trkpt lat="45.7412849" lon="11.3066079"><ele>649.5</ele><time>2026-04-19T09:56:42.073Z</time></trkpt><trkpt lat="45.7411375" lon="11.3066151"><ele>651.75</ele><time>2026-04-19T09:56:43.05Z</time></trkpt><trkpt lat="45.7410077" lon="11.3066375"><ele>654.0</ele><time>2026-04-19T09:56:44.035Z</time></trkpt><trkpt lat="45.7409103" lon="11.3066979"><ele>650.0</ele><time>2026-04-19T09:56:45.041Z</time></trkpt><trkpt lat="45.7408254" lon="11.3067866"><ele>646.0</ele><time>2026-04-19T09:56:46.064Z</time></trkpt><trkpt lat="45.7407624" lon="11.3069385"><ele>642.0</ele><time>2026-04-19T09:56:47.07Z</time></trkpt><trkpt lat="45.7407275" lon="11.3071226"><ele>638.0</ele><time>2026-04-19T09:56:48.044Z</time></trkpt><trkpt lat="45.7407112" lon="11.3073047"><ele>638.0</ele><time>2026-04-19T09:56:49.051Z</time></trkpt><trkpt lat="45.740698" lon="11.3074646"><ele>638.0</ele><time>2026-04-19T09:56:50.041Z</time></trkpt><trkpt lat="45.7407039" lon="11.3076023"><ele>638.0</ele><time>2026-04-19T09:56:51.047Z</time></trkpt><trkpt lat="45.7407263" lon="11.3077057"><ele>638.0</ele><time>2026-04-19T09:56:52.04Z</time></trkpt><trkpt lat="45.740713" lon="11.3078351"><ele>638.0</ele><time>2026-04-19T09:56:54.048Z</time></trkpt><trkpt lat="45.7406278" lon="11.3078047"><ele>638.0</ele><time>2026-04-19T09:56:56.061Z</time></trkpt><trkpt lat="45.740592" lon="11.3076896"><ele>638.0</ele><time>2026-04-19T09:56:57.042Z</time></trkpt><trkpt lat="45.7405594" lon="11.3075434"><ele>638.0</ele><time>2026-04-19T09:56:58.049Z</time></trkpt><trkpt lat="45.7405111" lon="11.3073923"><ele>638.0</ele><time>2026-04-19T09:56:59.044Z</time></trkpt><trkpt lat="45.7404502" lon="11.3072457"><ele>638.0</ele><time>2026-04-19T09:57:00.041Z</time></trkpt><trkpt lat="45.7403994" lon="11.3071002"><ele>637.4</ele><time>2026-04-19T09:57:01.048Z</time></trkpt><trkpt lat="45.7403675" lon="11.3069535"><ele>636.8</ele><time>2026-04-19T09:57:02.056Z</time></trkpt><trkpt lat="45.740336" lon="11.3068327"><ele>636.2</ele><time>2026-04-19T09:57:03.063Z</time></trkpt><trkpt lat="45.7403589" lon="11.3067227"><ele>635.6</ele><time>2026-04-19T09:57:04.049Z</time></trkpt><trkpt lat="45.7404106" lon="11.3066277"><ele>635.0</ele><time>2026-04-19T09:57:05.044Z</time></trkpt><trkpt lat="45.7404874" lon="11.3065458"><ele>635.0</ele><time>2026-04-19T09:57:06.061Z</time></trkpt><trkpt lat="45.740574" lon="11.3064317"><ele>635.0</ele><time>2026-04-19T09:57:07.059Z</time></trkpt><trkpt lat="45.7406724" lon="11.3062229"><ele>635.0</ele><time>2026-04-19T09:57:08.045Z</time></trkpt><trkpt lat="45.7407514" lon="11.3060068"><ele>632.3333333333333</ele><time>2026-04-19T09:57:09.042Z</time></trkpt><trkpt lat="45.7407944" lon="11.3057758"><ele>629.6666666666666</ele><time>2026-04-19T09:57:10.051Z</time></trkpt><trkpt lat="45.7408291" lon="11.3055554"><ele>627.0</ele><time>2026-04-19T09:57:11.047Z</time></trkpt><trkpt lat="45.7408621" lon="11.3053454"><ele>625.5</ele><time>2026-04-19T09:57:12.059Z</time></trkpt><trkpt lat="45.7408772" lon="11.305133"><ele>624.0</ele><time>2026-04-19T09:57:13.048Z</time></trkpt><trkpt lat="45.7408816" lon="11.3049287"><ele>622.5</ele><time>2026-04-19T09:57:14.053Z</time></trkpt><trkpt lat="45.7408625" lon="11.304734"><ele>621.0</ele><time>2026-04-19T09:57:15.062Z</time></trkpt><trkpt lat="45.7408423" lon="11.3045648"><ele>621.0</ele><time>2026-04-19T09:57:16.046Z</time></trkpt><trkpt lat="45.740795" lon="11.3044341"><ele>621.0</ele><time>2026-04-19T09:57:17.048Z</time></trkpt><trkpt lat="45.7407057" lon="11.3043583"><ele>621.0</ele><time>2026-04-19T09:57:18.058Z</time></trkpt><trkpt lat="45.7406145" lon="11.3043133"><ele>621.0</ele><time>2026-04-19T09:57:19.038Z</time></trkpt><trkpt lat="45.7405311" lon="11.3042487"><ele>621.0</ele><time>2026-04-19T09:57:20.051Z</time></trkpt><trkpt lat="45.7404498" lon="11.304174"><ele>621.0</ele><time>2026-04-19T09:57:21.044Z</time></trkpt><trkpt lat="45.7403942" lon="11.3040574"><ele>621.0</ele><time>2026-04-19T09:57:22.037Z</time></trkpt><trkpt lat="45.7403315" lon="11.3039605"><ele>621.0</ele><time>2026-04-19T09:57:23.042Z</time></trkpt><trkpt lat="45.7402709" lon="11.3038813"><ele>621.0</ele><time>2026-04-19T09:57:24.051Z</time></trkpt><trkpt lat="45.7401964" lon="11.3038696"><ele>621.0</ele><time>2026-04-19T09:57:25.065Z</time></trkpt><trkpt lat="45.7401262" lon="11.3038809"><ele>621.0</ele><time>2026-04-19T09:57:26.041Z</time></trkpt><trkpt lat="45.7400719" lon="11.3039769"><ele>621.0</ele><time>2026-04-19T09:57:27.051Z</time></trkpt><trkpt lat="45.7400335" lon="11.304094"><ele>621.0</ele><time>2026-04-19T09:57:28.026Z</time></trkpt><trkpt lat="45.7399966" lon="11.3042382"><ele>621.0</ele><time>2026-04-19T09:57:29.047Z</time></trkpt><trkpt lat="45.7399641" lon="11.3043784"><ele>621.0</ele><time>2026-04-19T09:57:30.045Z</time></trkpt><trkpt lat="45.7399265" lon="11.3045117"><ele>621.0</ele><time>2026-04-19T09:57:31.05Z</time></trkpt><trkpt lat="45.7398713" lon="11.3046538"><ele>617.6666666666666</ele><time>2026-04-19T09:57:32.057Z</time></trkpt><trkpt lat="45.7397548" lon="11.3047887"><ele>614.3333333333333</ele><time>2026-04-19T09:57:33.07Z</time></trkpt><trkpt lat="45.739624" lon="11.304941"><ele>611.0</ele><time>2026-04-19T09:57:34.043Z</time></trkpt><trkpt lat="45.7395062" lon="11.305124"><ele>611.0</ele><time>2026-04-19T09:57:35.053Z</time></trkpt><trkpt lat="45.7394081" lon="11.3053262"><ele>611.0</ele><time>2026-04-19T09:57:36.061Z</time></trkpt><trkpt lat="45.7393312" lon="11.3055375"><ele>611.0</ele><time>2026-04-19T09:57:37.057Z</time></trkpt><trkpt lat="45.7392558" lon="11.3057353"><ele>610.75</ele><time>2026-04-19T09:57:38.068Z</time></trkpt><trkpt lat="45.739176" lon="11.3059126"><ele>610.5</ele><time>2026-04-19T09:57:39.084Z</time></trkpt><trkpt lat="45.7390996" lon="11.3060622"><ele>610.25</ele><time>2026-04-19T09:57:40.056Z</time></trkpt><trkpt lat="45.7390308" lon="11.3061798"><ele>610.0</ele><time>2026-04-19T09:57:41.062Z</time></trkpt><trkpt lat="45.7389506" lon="11.3062507"><ele>610.0</ele><time>2026-04-19T09:57:42.067Z</time></trkpt><trkpt lat="45.7388514" lon="11.3062788"><ele>610.0</ele><time>2026-04-19T09:57:43.068Z</time></trkpt><trkpt lat="45.7387181" lon="11.3062762"><ele>610.0</ele><time>2026-04-19T09:57:44.076Z</time></trkpt><trkpt lat="45.7385685" lon="11.3062914"><ele>610.0</ele><time>2026-04-19T09:57:45.063Z</time></trkpt><trkpt lat="45.738424" lon="11.3063222"><ele>611.5</ele><time>2026-04-19T09:57:46.044Z</time></trkpt><trkpt lat="45.7382931" lon="11.306374"><ele>613.0</ele><time>2026-04-19T09:57:47.053Z</time></trkpt><trkpt lat="45.7381814" lon="11.3064415"><ele>614.5</ele><time>2026-04-19T09:57:48.053Z</time></trkpt><trkpt lat="45.7380826" lon="11.3065314"><ele>616.0</ele><time>2026-04-19T09:57:49.038Z</time></trkpt><trkpt lat="45.7380201" lon="11.3066742"><ele>613.0</ele><time>2026-04-19T09:57:50.074Z</time></trkpt><trkpt lat="45.7380111" lon="11.3068622"><ele>610.0</ele><time>2026-04-19T09:57:51.079Z</time></trkpt><trkpt lat="45.7379835" lon="11.3070689"><ele>607.0</ele><time>2026-04-19T09:57:52.051Z</time></trkpt><trkpt lat="45.7379481" lon="11.3072836"><ele>604.0</ele><time>2026-04-19T09:57:53.055Z</time></trkpt><trkpt lat="45.737922" lon="11.3074915"><ele>601.4</ele><time>2026-04-19T09:57:54.055Z</time></trkpt><trkpt lat="45.737894" lon="11.3076746"><ele>598.8</ele><time>2026-04-19T09:57:55.051Z</time></trkpt><trkpt lat="45.7378657" lon="11.307821"><ele>596.2</ele><time>2026-04-19T09:57:56.063Z</time></trkpt><trkpt lat="45.7378402" lon="11.3079357"><ele>593.6</ele><time>2026-04-19T09:57:57.057Z</time></trkpt><trkpt lat="45.7378065" lon="11.3080174"><ele>591.0</ele><time>2026-04-19T09:57:58.056Z</time></trkpt><trkpt lat="45.7377369" lon="11.3080547"><ele>593.6</ele><time>2026-04-19T09:57:59.052Z</time></trkpt><trkpt lat="45.7376587" lon="11.3080552"><ele>596.2</ele><time>2026-04-19T09:58:00.057Z</time></trkpt><trkpt lat="45.7375616" lon="11.3080135"><ele>598.8</ele><time>2026-04-19T09:58:01.05Z</time></trkpt><trkpt lat="45.737447" lon="11.3079434"><ele>601.4</ele><time>2026-04-19T09:58:02.055Z</time></trkpt><trkpt lat="45.7373429" lon="11.3078823"><ele>604.0</ele><time>2026-04-19T09:58:03.064Z</time></trkpt><trkpt lat="45.7372561" lon="11.3078033"><ele>604.0</ele><time>2026-04-19T09:58:04.061Z</time></trkpt><trkpt lat="45.7371779" lon="11.307683"><ele>604.0</ele><time>2026-04-19T09:58:05.055Z</time></trkpt><trkpt lat="45.7371134" lon="11.3075399"><ele>604.0</ele><time>2026-04-19T09:58:06.053Z</time></trkpt><trkpt lat="45.7370467" lon="11.3073886"><ele>604.0</ele><time>2026-04-19T09:58:07.041Z</time></trkpt><trkpt lat="45.7369716" lon="11.307255"><ele>605.2</ele><time>2026-04-19T09:58:08.048Z</time></trkpt><trkpt lat="45.7368901" lon="11.307149"><ele>606.4</ele><time>2026-04-19T09:58:09.063Z</time></trkpt><trkpt lat="45.7368145" lon="11.3070624"><ele>607.6</ele><time>2026-04-19T09:58:10.05Z</time></trkpt><trkpt lat="45.7367658" lon="11.3069619"><ele>608.8</ele><time>2026-04-19T09:58:11.064Z</time></trkpt><trkpt lat="45.7367239" lon="11.3068299"><ele>610.0</ele><time>2026-04-19T09:58:12.041Z</time></trkpt><trkpt lat="45.736719" lon="11.306654"><ele>608.0</ele><time>2026-04-19T09:58:13.048Z</time></trkpt><trkpt lat="45.7367068" lon="11.3064778"><ele>606.0</ele><time>2026-04-19T09:58:14.049Z</time></trkpt><trkpt lat="45.7366891" lon="11.3063178"><ele>604.0</ele><time>2026-04-19T09:58:15.041Z</time></trkpt><trkpt lat="45.7366733" lon="11.3061814"><ele>602.0</ele><time>2026-04-19T09:58:16.048Z</time></trkpt><trkpt lat="45.7366404" lon="11.3060797"><ele>600.0</ele><time>2026-04-19T09:58:17.048Z</time></trkpt><trkpt lat="45.7365892" lon="11.3060128"><ele>600.0</ele><time>2026-04-19T09:58:18.055Z</time></trkpt><trkpt lat="45.7365218" lon="11.3059974"><ele>600.0</ele><time>2026-04-19T09:58:19.049Z</time></trkpt><trkpt lat="45.736461" lon="11.3060314"><ele>600.0</ele><time>2026-04-19T09:58:20.048Z</time></trkpt><trkpt lat="45.7364155" lon="11.3061028"><ele>600.0</ele><time>2026-04-19T09:58:21.048Z</time></trkpt><trkpt lat="45.7363753" lon="11.3062244"><ele>600.0</ele><time>2026-04-19T09:58:22.05Z</time></trkpt><trkpt lat="45.736345" lon="11.3063684"><ele>600.0</ele><time>2026-04-19T09:58:23.038Z</time></trkpt><trkpt lat="45.7363156" lon="11.3065044"><ele>598.0</ele><time>2026-04-19T09:58:24.057Z</time></trkpt><trkpt lat="45.7362685" lon="11.306622"><ele>596.0</ele><time>2026-04-19T09:58:25.063Z</time></trkpt><trkpt lat="45.7362082" lon="11.3067455"><ele>594.0</ele><time>2026-04-19T09:58:26.06Z</time></trkpt><trkpt lat="45.7361141" lon="11.306836"><ele>592.0</ele><time>2026-04-19T09:58:27.058Z</time></trkpt><trkpt lat="45.7360132" lon="11.3069094"><ele>590.0</ele><time>2026-04-19T09:58:28.049Z</time></trkpt><trkpt lat="45.7358836" lon="11.3069153"><ele>587.75</ele><time>2026-04-19T09:58:29.054Z</time></trkpt><trkpt lat="45.7357343" lon="11.3069027"><ele>585.5</ele><time>2026-04-19T09:58:30.06Z</time></trkpt><trkpt lat="45.7355875" lon="11.3069109"><ele>583.25</ele><time>2026-04-19T09:58:31.07Z</time></trkpt><trkpt lat="45.7354504" lon="11.3069292"><ele>581.0</ele><time>2026-04-19T09:58:32.062Z</time></trkpt><trkpt lat="45.7353227" lon="11.3069419"><ele>584.0</ele><time>2026-04-19T09:58:33.078Z</time></trkpt><trkpt lat="45.7351993" lon="11.3069585"><ele>587.0</ele><time>2026-04-19T09:58:34.049Z</time></trkpt><trkpt lat="45.7350858" lon="11.3069626"><ele>590.0</ele><time>2026-04-19T09:58:35.053Z</time></trkpt><trkpt lat="45.7349938" lon="11.3069638"><ele>593.0</ele><time>2026-04-19T09:58:36.044Z</time></trkpt><trkpt lat="45.7349121" lon="11.3069745"><ele>596.0</ele><time>2026-04-19T09:58:37.041Z</time></trkpt><trkpt lat="45.7348267" lon="11.3070514"><ele>596.0</ele><time>2026-04-19T09:58:39.047Z</time></trkpt><trkpt lat="45.7348505" lon="11.3071493"><ele>596.0</ele><time>2026-04-19T09:58:41.041Z</time></trkpt><trkpt lat="45.734954" lon="11.3071403"><ele>596.0</ele><time>2026-04-19T09:58:43.056Z</time></trkpt><trkpt lat="45.7350364" lon="11.3071408"><ele>596.0</ele><time>2026-04-19T09:58:44.039Z</time></trkpt><trkpt lat="45.7351587" lon="11.3071568"><ele>596.0</ele><time>2026-04-19T09:58:45.045Z</time></trkpt><trkpt lat="45.7353012" lon="11.3072143"><ele>586.6666666666666</ele><time>2026-04-19T09:58:46.046Z</time></trkpt><trkpt lat="45.7354328" lon="11.3073143"><ele>577.3333333333334</ele><time>2026-04-19T09:58:47.05Z</time></trkpt><trkpt lat="45.7355741" lon="11.3074494"><ele>568.0</ele><time>2026-04-19T09:58:48.048Z</time></trkpt><trkpt lat="45.7356867" lon="11.3075529"><ele>568.0</ele><time>2026-04-19T09:58:49.063Z</time></trkpt><trkpt lat="45.7357836" lon="11.3076058"><ele>568.0</ele><time>2026-04-19T09:58:50.047Z</time></trkpt><trkpt lat="45.7358862" lon="11.3076275"><ele>568.0</ele><time>2026-04-19T09:58:51.039Z</time></trkpt><trkpt lat="45.7359684" lon="11.3076339"><ele>568.0</ele><time>2026-04-19T09:58:52.046Z</time></trkpt><trkpt lat="45.7360735" lon="11.3076787"><ele>568.0</ele><time>2026-04-19T09:58:54.05Z</time></trkpt><trkpt lat="45.73607" lon="11.3078449"><ele>568.0</ele><time>2026-04-19T09:58:56.054Z</time></trkpt><trkpt lat="45.7360135" lon="11.3079419"><ele>568.0</ele><time>2026-04-19T09:58:57.046Z</time></trkpt><trkpt lat="45.7359594" lon="11.3080987"><ele>568.0</ele><time>2026-04-19T09:58:58.061Z</time></trkpt><trkpt lat="45.735896" lon="11.3083382"><ele>568.0</ele><time>2026-04-19T09:58:59.06Z</time></trkpt><trkpt lat="45.7358274" lon="11.308544"><ele>566.0</ele><time>2026-04-19T09:59:00.068Z</time></trkpt><trkpt lat="45.7357773" lon="11.3087375"><ele>564.0</ele><time>2026-04-19T09:59:01.046Z</time></trkpt><trkpt lat="45.7357224" lon="11.3089226"><ele>562.0</ele><time>2026-04-19T09:59:02.047Z</time></trkpt><trkpt lat="45.7357034" lon="11.3091203"><ele>560.0</ele><time>2026-04-19T09:59:03.041Z</time></trkpt><trkpt lat="45.7357019" lon="11.309298"><ele>557.75</ele><time>2026-04-19T09:59:04.048Z</time></trkpt><trkpt lat="45.7357467" lon="11.3094583"><ele>555.5</ele><time>2026-04-19T09:59:05.06Z</time></trkpt><trkpt lat="45.7358238" lon="11.3095788"><ele>553.25</ele><time>2026-04-19T09:59:06.045Z</time></trkpt><trkpt lat="45.7359166" lon="11.3096812"><ele>551.0</ele><time>2026-04-19T09:59:07.069Z</time></trkpt><trkpt lat="45.7360456" lon="11.3097296"><ele>551.0</ele><time>2026-04-19T09:59:08.058Z</time></trkpt><trkpt lat="45.7361717" lon="11.3097934"><ele>551.0</ele><time>2026-04-19T09:59:09.065Z</time></trkpt><trkpt lat="45.7362833" lon="11.3098469"><ele>551.0</ele><time>2026-04-19T09:59:10.048Z</time></trkpt><trkpt lat="45.7363877" lon="11.3099178"><ele>551.0</ele><time>2026-04-19T09:59:11.041Z</time></trkpt><trkpt lat="45.736477" lon="11.3100217"><ele>551.0</ele><time>2026-04-19T09:59:12.039Z</time></trkpt><trkpt lat="45.7365554" lon="11.3101492"><ele>551.0</ele><time>2026-04-19T09:59:13.045Z</time></trkpt><trkpt lat="45.7366411" lon="11.3102574"><ele>551.0</ele><time>2026-04-19T09:59:14.056Z</time></trkpt><trkpt lat="45.736737" lon="11.3103367"><ele>551.0</ele><time>2026-04-19T09:59:15.066Z</time></trkpt><trkpt lat="45.7368358" lon="11.310381"><ele>551.0</ele><time>2026-04-19T09:59:16.044Z</time></trkpt><trkpt lat="45.736932" lon="11.310406"><ele>552.8333333333333</ele><time>2026-04-19T09:59:17.056Z</time></trkpt><trkpt lat="45.7370186" lon="11.310448"><ele>554.6666666666666</ele><time>2026-04-19T09:59:18.058Z</time></trkpt><trkpt lat="45.7371004" lon="11.3105012"><ele>556.5</ele><time>2026-04-19T09:59:19.06Z</time></trkpt><trkpt lat="45.737183" lon="11.3105436"><ele>558.3333333333334</ele><time>2026-04-19T09:59:20.075Z</time></trkpt><trkpt lat="45.7372656" lon="11.310582"><ele>560.1666666666667</ele><time>2026-04-19T09:59:21.058Z</time></trkpt><trkpt lat="45.7373424" lon="11.310618"><ele>562.0</ele><time>2026-04-19T09:59:22.085Z</time></trkpt><trkpt lat="45.7374026" lon="11.3106485"><ele>557.0</ele><time>2026-04-19T09:59:23.059Z</time></trkpt><trkpt lat="45.7374902" lon="11.3107002"><ele>552.0</ele><time>2026-04-19T09:59:25.052Z</time></trkpt><trkpt lat="45.7375123" lon="11.3107969"><ele>547.0</ele><time>2026-04-19T09:59:27.052Z</time></trkpt><trkpt lat="45.7374057" lon="11.3108401"><ele>542.0</ele><time>2026-04-19T09:59:29.047Z</time></trkpt><trkpt lat="45.7373094" lon="11.3107953"><ele>537.0</ele><time>2026-04-19T09:59:30.055Z</time></trkpt><trkpt lat="45.7371955" lon="11.3107643"><ele>537.0</ele><time>2026-04-19T09:59:31.052Z</time></trkpt><trkpt lat="45.737088" lon="11.3107394"><ele>537.0</ele><time>2026-04-19T09:59:32.046Z</time></trkpt><trkpt lat="45.7369763" lon="11.3107243"><ele>537.0</ele><time>2026-04-19T09:59:33.058Z</time></trkpt><trkpt lat="45.7368641" lon="11.3107011"><ele>537.0</ele><time>2026-04-19T09:59:34.056Z</time></trkpt><trkpt lat="45.7367502" lon="11.3106822"><ele>537.0</ele><time>2026-04-19T09:59:35.082Z</time></trkpt><trkpt lat="45.7366321" lon="11.3106427"><ele>534.5</ele><time>2026-04-19T09:59:36.064Z</time></trkpt><trkpt lat="45.7365212" lon="11.3105757"><ele>532.0</ele><time>2026-04-19T09:59:37.048Z</time></trkpt><trkpt lat="45.7364168" lon="11.3104927"><ele>529.5</ele><time>2026-04-19T09:59:38.041Z</time></trkpt><trkpt lat="45.7363108" lon="11.3104293"><ele>527.0</ele><time>2026-04-19T09:59:39.041Z</time></trkpt><trkpt lat="45.7362056" lon="11.310381"><ele>529.2</ele><time>2026-04-19T09:59:40.064Z</time></trkpt><trkpt lat="45.7361007" lon="11.3103596"><ele>531.4000000000001</ele><time>2026-04-19T09:59:41.051Z</time></trkpt><trkpt lat="45.7359953" lon="11.3103558"><ele>533.5999999999999</ele><time>2026-04-19T09:59:42.057Z</time></trkpt><trkpt lat="45.7358914" lon="11.3103627"><ele>535.8</ele><time>2026-04-19T09:59:43.065Z</time></trkpt><trkpt lat="45.7357902" lon="11.3103814"><ele>538.0</ele><time>2026-04-19T09:59:44.057Z</time></trkpt><trkpt lat="45.735695" lon="11.3103846"><ele>538.0</ele><time>2026-04-19T09:59:45.053Z</time></trkpt><trkpt lat="45.7356026" lon="11.3103889"><ele>538.0</ele><time>2026-04-19T09:59:46.064Z</time></trkpt><trkpt lat="45.7355133" lon="11.3103869"><ele>538.0</ele><time>2026-04-19T09:59:47.053Z</time></trkpt><trkpt lat="45.7354307" lon="11.3103584"><ele>538.0</ele><time>2026-04-19T09:59:48.057Z</time></trkpt><trkpt lat="45.735355" lon="11.3103175"><ele>538.0</ele><time>2026-04-19T09:59:49.076Z</time></trkpt><trkpt lat="45.735293" lon="11.3102516"><ele>538.0</ele><time>2026-04-19T09:59:50.055Z</time></trkpt><trkpt lat="45.735248" lon="11.3101716"><ele>538.0</ele><time>2026-04-19T09:59:51.044Z</time></trkpt><trkpt lat="45.7352262" lon="11.3100707"><ele>538.0</ele><time>2026-04-19T09:59:52.049Z</time></trkpt><trkpt lat="45.7352156" lon="11.3099653"><ele>538.0</ele><time>2026-04-19T09:59:53.046Z</time></trkpt><trkpt lat="45.7351985" lon="11.3098644"><ele>538.0</ele><time>2026-04-19T09:59:54.046Z</time></trkpt><trkpt lat="45.7351685" lon="11.3097777"><ele>538.0</ele><time>2026-04-19T09:59:55.051Z</time></trkpt><trkpt lat="45.7351252" lon="11.3096926"><ele>538.0</ele><time>2026-04-19T09:59:56.056Z</time></trkpt><trkpt lat="45.7350594" lon="11.3096419"><ele>538.0</ele><time>2026-04-19T09:59:57.047Z</time></trkpt><trkpt lat="45.7349828" lon="11.3096388"><ele>538.0</ele><time>2026-04-19T09:59:58.041Z</time></trkpt><trkpt lat="45.7349183" lon="11.3096627"><ele>538.0</ele><time>2026-04-19T09:59:59.051Z</time></trkpt><trkpt lat="45.7348729" lon="11.3097299"><ele>538.0</ele><time>2026-04-19T10:00:00.066Z</time></trkpt><trkpt lat="45.7348346" lon="11.309836"><ele>538.0</ele><time>2026-04-19T10:00:01.039Z</time></trkpt><trkpt lat="45.7347933" lon="11.3099327"><ele>538.0</ele><time>2026-04-19T10:00:02.044Z</time></trkpt><trkpt lat="45.73476" lon="11.3100382"><ele>538.0</ele><time>2026-04-19T10:00:03.041Z</time></trkpt><trkpt lat="45.7347336" lon="11.3101779"><ele>534.5</ele><time>2026-04-19T10:00:04.047Z</time></trkpt><trkpt lat="45.7346979" lon="11.3103195"><ele>531.0</ele><time>2026-04-19T10:00:05.049Z</time></trkpt><trkpt lat="45.7346594" lon="11.3104674"><ele>527.5</ele><time>2026-04-19T10:00:06.05Z</time></trkpt><trkpt lat="45.7346048" lon="11.3106159"><ele>524.0</ele><time>2026-04-19T10:00:07.055Z</time></trkpt><trkpt lat="45.7345317" lon="11.3107535"><ele>524.5</ele><time>2026-04-19T10:00:08.053Z</time></trkpt><trkpt lat="45.7344583" lon="11.3108891"><ele>525.0</ele><time>2026-04-19T10:00:09.06Z</time></trkpt><trkpt lat="45.7344182" lon="11.3110503"><ele>525.5</ele><time>2026-04-19T10:00:10.056Z</time></trkpt><trkpt lat="45.7343665" lon="11.3111998"><ele>526.0</ele><time>2026-04-19T10:00:11.053Z</time></trkpt><trkpt lat="45.7343258" lon="11.3113563"><ele>522.6</ele><time>2026-04-19T10:00:12.041Z</time></trkpt><trkpt lat="45.7342856" lon="11.3115068"><ele>519.2</ele><time>2026-04-19T10:00:13.056Z</time></trkpt><trkpt lat="45.7342376" lon="11.3116404"><ele>515.8</ele><time>2026-04-19T10:00:14.051Z</time></trkpt><trkpt lat="45.7341917" lon="11.3117614"><ele>512.4</ele><time>2026-04-19T10:00:15.049Z</time></trkpt><trkpt lat="45.7341647" lon="11.311885"><ele>509.0</ele><time>2026-04-19T10:00:16.05Z</time></trkpt><trkpt lat="45.7341237" lon="11.3119939"><ele>509.0</ele><time>2026-04-19T10:00:17.037Z</time></trkpt><trkpt lat="45.7340728" lon="11.3121029"><ele>509.0</ele><time>2026-04-19T10:00:18.049Z</time></trkpt><trkpt lat="45.7340001" lon="11.312203"><ele>509.0</ele><time>2026-04-19T10:00:19.036Z</time></trkpt><trkpt lat="45.7339075" lon="11.3123022"><ele>509.0</ele><time>2026-04-19T10:00:20.043Z</time></trkpt><trkpt lat="45.7338121" lon="11.3124115"><ele>509.0</ele><time>2026-04-19T10:00:21.039Z</time></trkpt><trkpt lat="45.7337066" lon="11.3124924"><ele>510.0</ele><time>2026-04-19T10:00:22.053Z</time></trkpt><trkpt lat="45.7335964" lon="11.3125596"><ele>511.0</ele><time>2026-04-19T10:00:23.056Z</time></trkpt><trkpt lat="45.7334815" lon="11.3126166"><ele>512.0</ele><time>2026-04-19T10:00:24.047Z</time></trkpt><trkpt lat="45.7333668" lon="11.3126725"><ele>513.0</ele><time>2026-04-19T10:00:25.065Z</time></trkpt><trkpt lat="45.7332542" lon="11.312716"><ele>513.0</ele><time>2026-04-19T10:00:26.053Z</time></trkpt><trkpt lat="45.7331347" lon="11.3127319"><ele>513.0</ele><time>2026-04-19T10:00:27.051Z</time></trkpt><trkpt lat="45.7330169" lon="11.3127529"><ele>513.0</ele><time>2026-04-19T10:00:28.07Z</time></trkpt><trkpt lat="45.7329214" lon="11.3127813"><ele>513.0</ele><time>2026-04-19T10:00:29.05Z</time></trkpt><trkpt lat="45.7328519" lon="11.3127915"><ele>513.0</ele><time>2026-04-19T10:00:30.048Z</time></trkpt><trkpt lat="45.7328078" lon="11.3128694"><ele>513.0</ele><time>2026-04-19T10:00:31.04Z</time></trkpt><trkpt lat="45.7327834" lon="11.3129794"><ele>513.0</ele><time>2026-04-19T10:00:32.04Z</time></trkpt><trkpt lat="45.7327715" lon="11.3130986"><ele>513.0</ele><time>2026-04-19T10:00:33.034Z</time></trkpt><trkpt lat="45.7328027" lon="11.3132173"><ele>513.0</ele><time>2026-04-19T10:00:34.037Z</time></trkpt><trkpt lat="45.7328497" lon="11.3133253"><ele>513.0</ele><time>2026-04-19T10:00:35.056Z</time></trkpt><trkpt lat="45.7328837" lon="11.3134304"><ele>513.0</ele><time>2026-04-19T10:00:36.06Z</time></trkpt><trkpt lat="45.7329122" lon="11.3135399"><ele>513.3333333333334</ele><time>2026-04-19T10:00:37.032Z</time></trkpt><trkpt lat="45.7329155" lon="11.3136483"><ele>513.6666666666666</ele><time>2026-04-19T10:00:38.048Z</time></trkpt><trkpt lat="45.7328802" lon="11.31374"><ele>514.0</ele><time>2026-04-19T10:00:39.036Z</time></trkpt><trkpt lat="45.7327973" lon="11.3137968"><ele>514.3333333333333</ele><time>2026-04-19T10:00:40.034Z</time></trkpt><trkpt lat="45.7327111" lon="11.313848"><ele>514.6666666666666</ele><time>2026-04-19T10:00:41.03Z</time></trkpt><trkpt lat="45.7326256" lon="11.3138997"><ele>515.0</ele><time>2026-04-19T10:00:42.035Z</time></trkpt><trkpt lat="45.7325376" lon="11.3139366"><ele>509.99999999999994</ele><time>2026-04-19T10:00:43.036Z</time></trkpt><trkpt lat="45.7324645" lon="11.3139556"><ele>505.0</ele><time>2026-04-19T10:00:44.041Z</time></trkpt><trkpt lat="45.7323915" lon="11.3139757"><ele>500.0</ele><time>2026-04-19T10:00:45.044Z</time></trkpt><trkpt lat="45.7322993" lon="11.3140192"><ele>495.0</ele><time>2026-04-19T10:00:46.034Z</time></trkpt><trkpt lat="45.7322228" lon="11.3140811"><ele>489.99999999999994</ele><time>2026-04-19T10:00:47.051Z</time></trkpt><trkpt lat="45.7321595" lon="11.3141301"><ele>485.0</ele><time>2026-04-19T10:00:48.039Z</time></trkpt><trkpt lat="45.732107" lon="11.3142239"><ele>485.0</ele><time>2026-04-19T10:00:49.046Z</time></trkpt><trkpt lat="45.7320532" lon="11.3143267"><ele>485.0</ele><time>2026-04-19T10:00:50.043Z</time></trkpt><trkpt lat="45.7320301" lon="11.3144554"><ele>485.0</ele><time>2026-04-19T10:00:51.029Z</time></trkpt><trkpt lat="45.7320323" lon="11.3145972"><ele>485.0</ele><time>2026-04-19T10:00:52.048Z</time></trkpt><trkpt lat="45.7320155" lon="11.3147116"><ele>485.0</ele><time>2026-04-19T10:00:53.046Z</time></trkpt><trkpt lat="45.7319849" lon="11.3148278"><ele>486.2</ele><time>2026-04-19T10:00:54.037Z</time></trkpt><trkpt lat="45.7319727" lon="11.3149689"><ele>487.4</ele><time>2026-04-19T10:00:55.049Z</time></trkpt><trkpt lat="45.7319618" lon="11.3151138"><ele>488.6</ele><time>2026-04-19T10:00:56.057Z</time></trkpt><trkpt lat="45.731927" lon="11.3152436"><ele>489.8</ele><time>2026-04-19T10:00:57.029Z</time></trkpt><trkpt lat="45.7318824" lon="11.3153512"><ele>491.0</ele><time>2026-04-19T10:00:58.044Z</time></trkpt><trkpt lat="45.7318313" lon="11.3154468"><ele>490.99999999999994</ele><time>2026-04-19T10:00:59.037Z</time></trkpt><trkpt lat="45.7317697" lon="11.3155067"><ele>491.0</ele><time>2026-04-19T10:01:00.053Z</time></trkpt><trkpt lat="45.731668" lon="11.3155589"><ele>491.0</ele><time>2026-04-19T10:01:01.044Z</time></trkpt><trkpt lat="45.7315755" lon="11.3155979"><ele>491.0</ele><time>2026-04-19T10:01:02.044Z</time></trkpt><trkpt lat="45.7314901" lon="11.3156304"><ele>490.99999999999994</ele><time>2026-04-19T10:01:03.047Z</time></trkpt><trkpt lat="45.7314175" lon="11.3156562"><ele>491.0</ele><time>2026-04-19T10:01:04.047Z</time></trkpt><trkpt lat="45.7313331" lon="11.3156959"><ele>485.8</ele><time>2026-04-19T10:01:06.043Z</time></trkpt><trkpt lat="45.7313113" lon="11.3157821"><ele>480.6</ele><time>2026-04-19T10:01:08.057Z</time></trkpt><trkpt lat="45.7313923" lon="11.3158117"><ele>475.4</ele><time>2026-04-19T10:01:10.055Z</time></trkpt><trkpt lat="45.7314804" lon="11.3157538"><ele>470.2</ele><time>2026-04-19T10:01:11.058Z</time></trkpt><trkpt lat="45.7315978" lon="11.3157018"><ele>465.0</ele><time>2026-04-19T10:01:12.037Z</time></trkpt><trkpt lat="45.7317095" lon="11.3156688"><ele>465.0</ele><time>2026-04-19T10:01:13.063Z</time></trkpt><trkpt lat="45.731807" lon="11.3156779"><ele>465.0</ele><time>2026-04-19T10:01:14.047Z</time></trkpt><trkpt lat="45.7318992" lon="11.315674"><ele>465.0</ele><time>2026-04-19T10:01:15.044Z</time></trkpt><trkpt lat="45.7319736" lon="11.3156272"><ele>465.0</ele><time>2026-04-19T10:01:16.057Z</time></trkpt><trkpt lat="45.7320269" lon="11.3154985"><ele>465.0</ele><time>2026-04-19T10:01:17.038Z</time></trkpt><trkpt lat="45.7320603" lon="11.3153504"><ele>464.0</ele><time>2026-04-19T10:01:18.044Z</time></trkpt><trkpt lat="45.732106" lon="11.3151976"><ele>463.0</ele><time>2026-04-19T10:01:19.041Z</time></trkpt><trkpt lat="45.7321636" lon="11.3150708"><ele>462.0</ele><time>2026-04-19T10:01:20.039Z</time></trkpt><trkpt lat="45.7322199" lon="11.3149408"><ele>461.0</ele><time>2026-04-19T10:01:21.044Z</time></trkpt><trkpt lat="45.7322878" lon="11.3148061"><ele>460.0</ele><time>2026-04-19T10:01:22.047Z</time></trkpt><trkpt lat="45.7323625" lon="11.3146955"><ele>460.8</ele><time>2026-04-19T10:01:23.037Z</time></trkpt><trkpt lat="45.7324619" lon="11.3146192"><ele>461.6</ele><time>2026-04-19T10:01:24.037Z</time></trkpt><trkpt lat="45.7325765" lon="11.3145824"><ele>462.4</ele><time>2026-04-19T10:01:25.037Z</time></trkpt><trkpt lat="45.7326734" lon="11.3145398"><ele>463.2</ele><time>2026-04-19T10:01:26.04Z</time></trkpt><trkpt lat="45.7327471" lon="11.3144983"><ele>464.0</ele><time>2026-04-19T10:01:27.044Z</time></trkpt><trkpt lat="45.7328405" lon="11.3144461"><ele>464.0</ele><time>2026-04-19T10:01:29.056Z</time></trkpt><trkpt lat="45.7329095" lon="11.3144768"><ele>464.0</ele><time>2026-04-19T10:01:31.06Z</time></trkpt><trkpt lat="45.732874" lon="11.3146125"><ele>464.0</ele><time>2026-04-19T10:01:34.057Z</time></trkpt><trkpt lat="45.7327663" lon="11.3147349"><ele>464.0</ele><time>2026-04-19T10:01:35.038Z</time></trkpt><trkpt lat="45.7326555" lon="11.314844"><ele>464.0</ele><time>2026-04-19T10:01:36.048Z</time></trkpt><trkpt lat="45.7325632" lon="11.3149633"><ele>463.0</ele><time>2026-04-19T10:01:37.04Z</time></trkpt><trkpt lat="45.7324834" lon="11.3151048"><ele>462.0</ele><time>2026-04-19T10:01:38.039Z</time></trkpt><trkpt lat="45.7324113" lon="11.3152749"><ele>461.0</ele><time>2026-04-19T10:01:39.037Z</time></trkpt><trkpt lat="45.7323612" lon="11.3154752"><ele>460.0</ele><time>2026-04-19T10:01:40.047Z</time></trkpt><trkpt lat="45.7323205" lon="11.3156522"><ele>456.0</ele><time>2026-04-19T10:01:41.039Z</time></trkpt><trkpt lat="45.7323032" lon="11.3158395"><ele>452.0</ele><time>2026-04-19T10:01:42.035Z</time></trkpt><trkpt lat="45.7322747" lon="11.3159995"><ele>448.0</ele><time>2026-04-19T10:01:43.049Z</time></trkpt><trkpt lat="45.7322181" lon="11.3161298"><ele>444.0</ele><time>2026-04-19T10:01:44.042Z</time></trkpt><trkpt lat="45.7321299" lon="11.3162312"><ele>444.0</ele><time>2026-04-19T10:01:45.04Z</time></trkpt><trkpt lat="45.7320219" lon="11.3163118"><ele>444.0</ele><time>2026-04-19T10:01:46.025Z</time></trkpt><trkpt lat="45.7319167" lon="11.3164036"><ele>444.0</ele><time>2026-04-19T10:01:47.031Z</time></trkpt><trkpt lat="45.7318341" lon="11.3165443"><ele>444.0</ele><time>2026-04-19T10:01:48.037Z</time></trkpt><trkpt lat="45.7317683" lon="11.3166829"><ele>445.25</ele><time>2026-04-19T10:01:49.059Z</time></trkpt><trkpt lat="45.7317561" lon="11.3168516"><ele>446.5</ele><time>2026-04-19T10:01:50.073Z</time></trkpt><trkpt lat="45.7317705" lon="11.3170156"><ele>447.75</ele><time>2026-04-19T10:01:51.044Z</time></trkpt><trkpt lat="45.7318019" lon="11.3171748"><ele>449.0</ele><time>2026-04-19T10:01:52.047Z</time></trkpt><trkpt lat="45.7317994" lon="11.3173361"><ele>446.0</ele><time>2026-04-19T10:01:53.059Z</time></trkpt><trkpt lat="45.7317693" lon="11.3174948"><ele>443.0</ele><time>2026-04-19T10:01:54.042Z</time></trkpt><trkpt lat="45.7317352" lon="11.3176549"><ele>440.0</ele><time>2026-04-19T10:01:55.051Z</time></trkpt><trkpt lat="45.7317074" lon="11.3178183"><ele>437.0</ele><time>2026-04-19T10:01:56.039Z</time></trkpt><trkpt lat="45.7316864" lon="11.3179827"><ele>435.40000000000003</ele><time>2026-04-19T10:01:57.057Z</time></trkpt><trkpt lat="45.7316833" lon="11.3181485"><ele>433.80000000000007</ele><time>2026-04-19T10:01:58.06Z</time></trkpt><trkpt lat="45.7317062" lon="11.3183074"><ele>432.2</ele><time>2026-04-19T10:01:59.042Z</time></trkpt><trkpt lat="45.7317451" lon="11.3184529"><ele>430.6</ele><time>2026-04-19T10:02:00.056Z</time></trkpt><trkpt lat="45.7317806" lon="11.3185789"><ele>429.0</ele><time>2026-04-19T10:02:01.039Z</time></trkpt><trkpt lat="45.7318008" lon="11.3186833"><ele>429.0</ele><time>2026-04-19T10:02:02.046Z</time></trkpt><trkpt lat="45.7317934" lon="11.318776"><ele>429.0</ele><time>2026-04-19T10:02:03.049Z</time></trkpt><trkpt lat="45.7317415" lon="11.3188411"><ele>429.0</ele><time>2026-04-19T10:02:04.028Z</time></trkpt><trkpt lat="45.7316673" lon="11.3188589"><ele>429.0</ele><time>2026-04-19T10:02:05.049Z</time></trkpt><trkpt lat="45.7315783" lon="11.3188109"><ele>429.0</ele><time>2026-04-19T10:02:06.039Z</time></trkpt><trkpt lat="45.7314779" lon="11.3187461"><ele>429.0</ele><time>2026-04-19T10:02:07.047Z</time></trkpt><trkpt lat="45.7313706" lon="11.3187022"><ele>429.0</ele><time>2026-04-19T10:02:08.038Z</time></trkpt><trkpt lat="45.7312525" lon="11.3186513"><ele>429.0</ele><time>2026-04-19T10:02:09.062Z</time></trkpt><trkpt lat="45.7311119" lon="11.3186199"><ele>429.0</ele><time>2026-04-19T10:02:10.048Z</time></trkpt><trkpt lat="45.7309595" lon="11.3186107"><ele>429.0</ele><time>2026-04-19T10:02:11.04Z</time></trkpt><trkpt lat="45.7308077" lon="11.3186122"><ele>428.25</ele><time>2026-04-19T10:02:12.05Z</time></trkpt><trkpt lat="45.7306602" lon="11.3186225"><ele>427.5</ele><time>2026-04-19T10:02:13.044Z</time></trkpt><trkpt lat="45.7305178" lon="11.3186265"><ele>426.75</ele><time>2026-04-19T10:02:14.044Z</time></trkpt><trkpt lat="45.7303767" lon="11.3185942"><ele>426.0</ele><time>2026-04-19T10:02:15.057Z</time></trkpt><trkpt lat="45.7302371" lon="11.3185526"><ele>423.75</ele><time>2026-04-19T10:02:16.044Z</time></trkpt><trkpt lat="45.7300979" lon="11.3185035"><ele>421.5</ele><time>2026-04-19T10:02:17.05Z</time></trkpt><trkpt lat="45.729962" lon="11.3184554"><ele>419.25</ele><time>2026-04-19T10:02:18.045Z</time></trkpt><trkpt lat="45.7298392" lon="11.3184177"><ele>417.0</ele><time>2026-04-19T10:02:19.049Z</time></trkpt><trkpt lat="45.7297317" lon="11.3183836"><ele>417.0</ele><time>2026-04-19T10:02:20.059Z</time></trkpt><trkpt lat="45.7296452" lon="11.3183319"><ele>417.0</ele><time>2026-04-19T10:02:21.05Z</time></trkpt><trkpt lat="45.729574" lon="11.3182531"><ele>417.0</ele><time>2026-04-19T10:02:22.05Z</time></trkpt><trkpt lat="45.7295291" lon="11.3181546"><ele>417.0</ele><time>2026-04-19T10:02:23.07Z</time></trkpt><trkpt lat="45.7295392" lon="11.3180296"><ele>417.0</ele><time>2026-04-19T10:02:24.031Z</time></trkpt><trkpt lat="45.7295487" lon="11.3179134"><ele>417.0</ele><time>2026-04-19T10:02:25.037Z</time></trkpt><trkpt lat="45.7295282" lon="11.3178147"><ele>415.8333333333333</ele><time>2026-04-19T10:02:26.043Z</time></trkpt><trkpt lat="45.7294723" lon="11.3177573"><ele>414.66666666666663</ele><time>2026-04-19T10:02:27.054Z</time></trkpt><trkpt lat="45.7293943" lon="11.3177697"><ele>413.5</ele><time>2026-04-19T10:02:28.058Z</time></trkpt><trkpt lat="45.7293263" lon="11.3178657"><ele>412.3333333333333</ele><time>2026-04-19T10:02:29.057Z</time></trkpt><trkpt lat="45.7292768" lon="11.3179809"><ele>411.16666666666663</ele><time>2026-04-19T10:02:30.045Z</time></trkpt><trkpt lat="45.7291863" lon="11.3180538"><ele>410.0</ele><time>2026-04-19T10:02:31.033Z</time></trkpt><trkpt lat="45.7290922" lon="11.3181007"><ele>410.0</ele><time>2026-04-19T10:02:32.04Z</time></trkpt><trkpt lat="45.7289954" lon="11.3181652"><ele>410.0</ele><time>2026-04-19T10:02:34.03Z</time></trkpt><trkpt lat="45.7290098" lon="11.3182972"><ele>410.0</ele><time>2026-04-19T10:02:36.031Z</time></trkpt><trkpt lat="45.7291167" lon="11.3182509"><ele>410.0</ele><time>2026-04-19T10:02:38.055Z</time></trkpt><trkpt lat="45.7291893" lon="11.3182177"><ele>410.0</ele><time>2026-04-19T10:02:39.049Z</time></trkpt><trkpt lat="45.7292625" lon="11.3182635"><ele>410.0</ele><time>2026-04-19T10:02:40.052Z</time></trkpt><trkpt lat="45.7293477" lon="11.3183454"><ele>410.0</ele><time>2026-04-19T10:02:41.06Z</time></trkpt><trkpt lat="45.7294393" lon="11.3184953"><ele>410.0</ele><time>2026-04-19T10:02:42.046Z</time></trkpt><trkpt lat="45.7295481" lon="11.3186628"><ele>410.0</ele><time>2026-04-19T10:02:43.048Z</time></trkpt><trkpt lat="45.7296636" lon="11.3188178"><ele>405.66666666666663</ele><time>2026-04-19T10:02:44.041Z</time></trkpt><trkpt lat="45.7297792" lon="11.3189635"><ele>401.33333333333337</ele><time>2026-04-19T10:02:45.05Z</time></trkpt><trkpt lat="45.7298902" lon="11.3191102"><ele>397.0</ele><time>2026-04-19T10:02:46.053Z</time></trkpt><trkpt lat="45.7300123" lon="11.3192515"><ele>397.0</ele><time>2026-04-19T10:02:47.04Z</time></trkpt><trkpt lat="45.7301544" lon="11.3193782"><ele>397.0</ele><time>2026-04-19T10:02:48.047Z</time></trkpt><trkpt lat="45.7302945" lon="11.3194856"><ele>397.0</ele><time>2026-04-19T10:02:49.052Z</time></trkpt><trkpt lat="45.7304192" lon="11.3195811"><ele>395.25</ele><time>2026-04-19T10:02:50.042Z</time></trkpt><trkpt lat="45.7305444" lon="11.3196995"><ele>393.5</ele><time>2026-04-19T10:02:51.073Z</time></trkpt><trkpt lat="45.7306541" lon="11.3198245"><ele>391.75</ele><time>2026-04-19T10:02:52.032Z</time></trkpt><trkpt lat="45.7307309" lon="11.319968"><ele>390.0</ele><time>2026-04-19T10:02:53.05Z</time></trkpt><trkpt lat="45.7307779" lon="11.3200938"><ele>390.0</ele><time>2026-04-19T10:02:54.035Z</time></trkpt><trkpt lat="45.7308384" lon="11.3201639"><ele>390.0</ele><time>2026-04-19T10:02:55.04Z</time></trkpt><trkpt lat="45.7308355" lon="11.3203145"><ele>390.0</ele><time>2026-04-19T10:02:57.034Z</time></trkpt><trkpt lat="45.7307664" lon="11.3203481"><ele>390.0</ele><time>2026-04-19T10:02:58.055Z</time></trkpt><trkpt lat="45.7306752" lon="11.3203342"><ele>390.0</ele><time>2026-04-19T10:02:59.049Z</time></trkpt><trkpt lat="45.7305706" lon="11.3203002"><ele>390.0</ele><time>2026-04-19T10:03:00.035Z</time></trkpt><trkpt lat="45.730437" lon="11.3203175"><ele>390.0</ele><time>2026-04-19T10:03:01.04Z</time></trkpt><trkpt lat="45.7303085" lon="11.3203696"><ele>390.0</ele><time>2026-04-19T10:03:02.054Z</time></trkpt><trkpt lat="45.7301907" lon="11.3204248"><ele>390.0</ele><time>2026-04-19T10:03:03.07Z</time></trkpt><trkpt lat="45.7300845" lon="11.3204473"><ele>388.5</ele><time>2026-04-19T10:03:04.056Z</time></trkpt><trkpt lat="45.7299878" lon="11.3204301"><ele>387.0</ele><time>2026-04-19T10:03:05.046Z</time></trkpt><trkpt lat="45.7299099" lon="11.3203628"><ele>385.5</ele><time>2026-04-19T10:03:06.038Z</time></trkpt><trkpt lat="45.7298398" lon="11.3202528"><ele>384.0</ele><time>2026-04-19T10:03:07.034Z</time></trkpt><trkpt lat="45.7297666" lon="11.3202177"><ele>382.5</ele><time>2026-04-19T10:03:08.034Z</time></trkpt><trkpt lat="45.7297029" lon="11.3202391"><ele>381.0</ele><time>2026-04-19T10:03:09.051Z</time></trkpt><trkpt lat="45.7296631" lon="11.3204256"><ele>377.0</ele><time>2026-04-19T10:03:11.041Z</time></trkpt><trkpt lat="45.7297143" lon="11.3205719"><ele>373.0</ele><time>2026-04-19T10:03:12.024Z</time></trkpt><trkpt lat="45.7298074" lon="11.3207652"><ele>369.0</ele><time>2026-04-19T10:03:13.038Z</time></trkpt><trkpt lat="45.7298893" lon="11.3209996"><ele>369.0</ele><time>2026-04-19T10:03:14.042Z</time></trkpt><trkpt lat="45.7299606" lon="11.3212451"><ele>369.0</ele><time>2026-04-19T10:03:15.048Z</time></trkpt><trkpt lat="45.7300333" lon="11.3214734"><ele>369.0</ele><time>2026-04-19T10:03:16.032Z</time></trkpt><trkpt lat="45.7300801" lon="11.3216794"><ele>367.6</ele><time>2026-04-19T10:03:17.047Z</time></trkpt><trkpt lat="45.7301149" lon="11.3218448"><ele>366.2</ele><time>2026-04-19T10:03:18.054Z</time></trkpt><trkpt lat="45.7301493" lon="11.3219743"><ele>364.8</ele><time>2026-04-19T10:03:19.033Z</time></trkpt><trkpt lat="45.7301582" lon="11.3220844"><ele>363.40000000000003</ele><time>2026-04-19T10:03:20.035Z</time></trkpt><trkpt lat="45.7301327" lon="11.3221952"><ele>362.0</ele><time>2026-04-19T10:03:21.05Z</time></trkpt><trkpt lat="45.7300601" lon="11.3223041"><ele>360.6</ele><time>2026-04-19T10:03:22.05Z</time></trkpt><trkpt lat="45.7299545" lon="11.3224013"><ele>359.20000000000005</ele><time>2026-04-19T10:03:23.04Z</time></trkpt><trkpt lat="45.7298649" lon="11.3224989"><ele>357.8</ele><time>2026-04-19T10:03:24.056Z</time></trkpt><trkpt lat="45.729792" lon="11.3226003"><ele>356.4</ele><time>2026-04-19T10:03:25.062Z</time></trkpt><trkpt lat="45.7297261" lon="11.3226743"><ele>355.0</ele><time>2026-04-19T10:03:26.031Z</time></trkpt><trkpt lat="45.7296261" lon="11.3226495"><ele>355.0</ele><time>2026-04-19T10:03:27.051Z</time></trkpt><trkpt lat="45.7295287" lon="11.322589"><ele>355.0</ele><time>2026-04-19T10:03:28.045Z</time></trkpt><trkpt lat="45.7294386" lon="11.32254"><ele>355.0</ele><time>2026-04-19T10:03:29.043Z</time></trkpt><trkpt lat="45.729369" lon="11.3224716"><ele>355.0</ele><time>2026-04-19T10:03:30.049Z</time></trkpt><trkpt lat="45.7293193" lon="11.3224103"><ele>355.0</ele><time>2026-04-19T10:03:31.057Z</time></trkpt><trkpt lat="45.7292865" lon="11.3223031"><ele>355.0</ele><time>2026-04-19T10:03:32.058Z</time></trkpt><trkpt lat="45.7292954" lon="11.3221406"><ele>355.0</ele><time>2026-04-19T10:03:33.046Z</time></trkpt><trkpt lat="45.7293139" lon="11.3219892"><ele>355.0</ele><time>2026-04-19T10:03:34.035Z</time></trkpt><trkpt lat="45.7293278" lon="11.3218661"><ele>355.0</ele><time>2026-04-19T10:03:35.049Z</time></trkpt><trkpt lat="45.7293163" lon="11.3217696"><ele>355.0</ele><time>2026-04-19T10:03:36.056Z</time></trkpt><trkpt lat="45.7292415" lon="11.3216983"><ele>355.0</ele><time>2026-04-19T10:03:38.033Z</time></trkpt><trkpt lat="45.7291869" lon="11.3218457"><ele>355.0</ele><time>2026-04-19T10:03:40.034Z</time></trkpt><trkpt lat="45.7292108" lon="11.3219537"><ele>355.0</ele><time>2026-04-19T10:03:41.049Z</time></trkpt><trkpt lat="45.7292582" lon="11.3220535"><ele>355.0</ele><time>2026-04-19T10:03:42.035Z</time></trkpt><trkpt lat="45.7292507" lon="11.3221746"><ele>355.0</ele><time>2026-04-19T10:03:43.053Z</time></trkpt><trkpt lat="45.7292329" lon="11.3222852"><ele>355.0</ele><time>2026-04-19T10:03:44.035Z</time></trkpt><trkpt lat="45.7292202" lon="11.322399"><ele>355.0</ele><time>2026-04-19T10:03:45.03Z</time></trkpt><trkpt lat="45.7292486" lon="11.3225203"><ele>355.0</ele><time>2026-04-19T10:03:46.04Z</time></trkpt><trkpt lat="45.7293103" lon="11.3226211"><ele>355.0</ele><time>2026-04-19T10:03:47.031Z</time></trkpt><trkpt lat="45.7294021" lon="11.3227168"><ele>355.0</ele><time>2026-04-19T10:03:48.038Z</time></trkpt><trkpt lat="45.7294991" lon="11.3227992"><ele>355.0</ele><time>2026-04-19T10:03:49.056Z</time></trkpt><trkpt lat="45.7295804" lon="11.3228789"><ele>355.0</ele><time>2026-04-19T10:03:50.03Z</time></trkpt><trkpt lat="45.7296492" lon="11.3229433"><ele>355.0</ele><time>2026-04-19T10:03:51.048Z</time></trkpt><trkpt lat="45.7296871" lon="11.3230322"><ele>355.0</ele><time>2026-04-19T10:03:52.044Z</time></trkpt><trkpt lat="45.7296842" lon="11.3231303"><ele>355.0</ele><time>2026-04-19T10:03:53.044Z</time></trkpt><trkpt lat="45.7296172" lon="11.3232049"><ele>355.0</ele><time>2026-04-19T10:03:54.032Z</time></trkpt><trkpt lat="45.729527" lon="11.3232372"><ele>355.0</ele><time>2026-04-19T10:03:55.044Z</time></trkpt><trkpt lat="45.7294024" lon="11.3232175"><ele>355.0</ele><time>2026-04-19T10:03:56.039Z</time></trkpt><trkpt lat="45.7292521" lon="11.3232251"><ele>352.25</ele><time>2026-04-19T10:03:57.043Z</time></trkpt><trkpt lat="45.7291001" lon="11.323225"><ele>349.5</ele><time>2026-04-19T10:03:58.034Z</time></trkpt><trkpt lat="45.7289628" lon="11.3232233"><ele>346.75</ele><time>2026-04-19T10:03:59.055Z</time></trkpt><trkpt lat="45.7288422" lon="11.3232096"><ele>344.0</ele><time>2026-04-19T10:04:00.064Z</time></trkpt><trkpt lat="45.7287329" lon="11.3232344"><ele>344.0</ele><time>2026-04-19T10:04:01.04Z</time></trkpt><trkpt lat="45.7286405" lon="11.323311"><ele>344.0</ele><time>2026-04-19T10:04:02.055Z</time></trkpt><trkpt lat="45.7285771" lon="11.3234"><ele>344.0</ele><time>2026-04-19T10:04:03.049Z</time></trkpt><trkpt lat="45.7285398" lon="11.3234931"><ele>344.0</ele><time>2026-04-19T10:04:04.032Z</time></trkpt><trkpt lat="45.7284922" lon="11.323687"><ele>344.0</ele><time>2026-04-19T10:04:05.036Z</time></trkpt><trkpt lat="45.7284473" lon="11.3238861"><ele>339.25</ele><time>2026-04-19T10:04:06.033Z</time></trkpt><trkpt lat="45.7284113" lon="11.3240999"><ele>334.5</ele><time>2026-04-19T10:04:07.046Z</time></trkpt><trkpt lat="45.7284034" lon="11.3243097"><ele>329.75</ele><time>2026-04-19T10:04:08.042Z</time></trkpt><trkpt lat="45.7284082" lon="11.324516"><ele>325.0</ele><time>2026-04-19T10:04:09.064Z</time></trkpt><trkpt lat="45.7284167" lon="11.324716"><ele>323.25</ele><time>2026-04-19T10:04:10.053Z</time></trkpt><trkpt lat="45.7284527" lon="11.3249157"><ele>321.5</ele><time>2026-04-19T10:04:11.056Z</time></trkpt><trkpt lat="45.7284913" lon="11.3251189"><ele>319.75</ele><time>2026-04-19T10:04:12.032Z</time></trkpt><trkpt lat="45.7285155" lon="11.3253087"><ele>318.0</ele><time>2026-04-19T10:04:13.041Z</time></trkpt><trkpt lat="45.7285339" lon="11.3254822"><ele>318.4</ele><time>2026-04-19T10:04:14.034Z</time></trkpt><trkpt lat="45.7285491" lon="11.3256318"><ele>318.8</ele><time>2026-04-19T10:04:15.041Z</time></trkpt><trkpt lat="45.7285836" lon="11.3257548"><ele>319.2</ele><time>2026-04-19T10:04:16.039Z</time></trkpt><trkpt lat="45.7286382" lon="11.3258515"><ele>319.6</ele><time>2026-04-19T10:04:17.044Z</time></trkpt><trkpt lat="45.7287176" lon="11.3259153"><ele>320.0</ele><time>2026-04-19T10:04:18.041Z</time></trkpt><trkpt lat="45.728805" lon="11.3259353"><ele>320.0</ele><time>2026-04-19T10:04:19.048Z</time></trkpt><trkpt lat="45.7288899" lon="11.3259324"><ele>320.0</ele><time>2026-04-19T10:04:20.034Z</time></trkpt><trkpt lat="45.7289753" lon="11.325923"><ele>320.0</ele><time>2026-04-19T10:04:21.042Z</time></trkpt><trkpt lat="45.7290666" lon="11.3258946"><ele>320.0</ele><time>2026-04-19T10:04:22.039Z</time></trkpt><trkpt lat="45.7291485" lon="11.3258612"><ele>320.0</ele><time>2026-04-19T10:04:23.047Z</time></trkpt><trkpt lat="45.7292149" lon="11.3258265"><ele>320.0</ele><time>2026-04-19T10:04:24.052Z</time></trkpt><trkpt lat="45.7292962" lon="11.3257536"><ele>320.0</ele><time>2026-04-19T10:04:26.061Z</time></trkpt><trkpt lat="45.7293653" lon="11.3257704"><ele>320.0</ele><time>2026-04-19T10:04:28.055Z</time></trkpt><trkpt lat="45.7293589" lon="11.3259096"><ele>320.0</ele><time>2026-04-19T10:04:30.049Z</time></trkpt><trkpt lat="45.7293103" lon="11.3259885"><ele>320.0</ele><time>2026-04-19T10:04:31.035Z</time></trkpt><trkpt lat="45.7291561" lon="11.3260461"><ele>320.0</ele><time>2026-04-19T10:04:32.053Z</time></trkpt><trkpt lat="45.7289422" lon="11.3260362"><ele>320.0</ele><time>2026-04-19T10:04:33.065Z</time></trkpt><trkpt lat="45.7287532" lon="11.3260534"><ele>320.0</ele><time>2026-04-19T10:04:34.053Z</time></trkpt><trkpt lat="45.7285851" lon="11.3260944"><ele>320.0</ele><time>2026-04-19T10:04:35.051Z</time></trkpt><trkpt lat="45.7284302" lon="11.3261448"><ele>317.5</ele><time>2026-04-19T10:04:36.041Z</time></trkpt><trkpt lat="45.7282874" lon="11.3262183"><ele>315.0</ele><time>2026-04-19T10:04:37.044Z</time></trkpt><trkpt lat="45.7281491" lon="11.3262862"><ele>312.5</ele><time>2026-04-19T10:04:38.047Z</time></trkpt><trkpt lat="45.7280217" lon="11.3263547"><ele>310.0</ele><time>2026-04-19T10:04:39.055Z</time></trkpt><trkpt lat="45.727911" lon="11.3264329"><ele>308.8</ele><time>2026-04-19T10:04:40.056Z</time></trkpt><trkpt lat="45.7278095" lon="11.3264977"><ele>307.6</ele><time>2026-04-19T10:04:41.044Z</time></trkpt><trkpt lat="45.7277013" lon="11.3265165"><ele>306.4</ele><time>2026-04-19T10:04:42.058Z</time></trkpt><trkpt lat="45.7275996" lon="11.3265024"><ele>305.2</ele><time>2026-04-19T10:04:43.034Z</time></trkpt><trkpt lat="45.7275148" lon="11.3264494"><ele>304.0</ele><time>2026-04-19T10:04:44.051Z</time></trkpt><trkpt lat="45.7274298" lon="11.326411"><ele>301.75</ele><time>2026-04-19T10:04:45.06Z</time></trkpt><trkpt lat="45.7273399" lon="11.3263978"><ele>299.5</ele><time>2026-04-19T10:04:46.041Z</time></trkpt><trkpt lat="45.727234" lon="11.3264599"><ele>297.25</ele><time>2026-04-19T10:04:47.065Z</time></trkpt><trkpt lat="45.7271201" lon="11.3265915"><ele>295.0</ele><time>2026-04-19T10:04:48.036Z</time></trkpt><trkpt lat="45.7270055" lon="11.3267327"><ele>295.0</ele><time>2026-04-19T10:04:49.052Z</time></trkpt><trkpt lat="45.726905" lon="11.3268823"><ele>295.0</ele><time>2026-04-19T10:04:50.058Z</time></trkpt><trkpt lat="45.7267968" lon="11.3269967"><ele>295.0</ele><time>2026-04-19T10:04:51.033Z</time></trkpt><trkpt lat="45.726696" lon="11.3271121"><ele>295.0</ele><time>2026-04-19T10:04:52.041Z</time></trkpt><trkpt lat="45.7266069" lon="11.3272254"><ele>293.4</ele><time>2026-04-19T10:04:53.046Z</time></trkpt><trkpt lat="45.7265268" lon="11.3273291"><ele>291.8</ele><time>2026-04-19T10:04:54.034Z</time></trkpt><trkpt lat="45.7264463" lon="11.3274215"><ele>290.2</ele><time>2026-04-19T10:04:55.068Z</time></trkpt><trkpt lat="45.7263684" lon="11.3275047"><ele>288.6</ele><time>2026-04-19T10:04:56.034Z</time></trkpt><trkpt lat="45.726297" lon="11.3275903"><ele>287.0</ele><time>2026-04-19T10:04:57.082Z</time></trkpt><trkpt lat="45.7262275" lon="11.3276735"><ele>287.0</ele><time>2026-04-19T10:04:58.048Z</time></trkpt><trkpt lat="45.72615" lon="11.3277325"><ele>287.0</ele><time>2026-04-19T10:04:59.026Z</time></trkpt><trkpt lat="45.7260664" lon="11.3277692"><ele>287.0</ele><time>2026-04-19T10:05:00.035Z</time></trkpt><trkpt lat="45.7259835" lon="11.3277997"><ele>287.0</ele><time>2026-04-19T10:05:01.06Z</time></trkpt><trkpt lat="45.7259008" lon="11.3278222"><ele>287.0</ele><time>2026-04-19T10:05:02.052Z</time></trkpt><trkpt lat="45.7258113" lon="11.3278122"><ele>287.0</ele><time>2026-04-19T10:05:03.056Z</time></trkpt><trkpt lat="45.7257177" lon="11.3277883"><ele>286.33333333333337</ele><time>2026-04-19T10:05:04.041Z</time></trkpt><trkpt lat="45.7256319" lon="11.3278057"><ele>285.6666666666667</ele><time>2026-04-19T10:05:05.038Z</time></trkpt><trkpt lat="45.7255452" lon="11.3278027"><ele>285.0</ele><time>2026-04-19T10:05:06.037Z</time></trkpt><trkpt lat="45.7254728" lon="11.3278286"><ele>284.3333333333333</ele><time>2026-04-19T10:05:07.054Z</time></trkpt><trkpt lat="45.7254264" lon="11.327899"><ele>283.66666666666663</ele><time>2026-04-19T10:05:08.028Z</time></trkpt><trkpt lat="45.7253521" lon="11.3279852"><ele>283.0</ele><time>2026-04-19T10:05:10.043Z</time></trkpt><trkpt lat="45.7253033" lon="11.3280679"><ele>282.4</ele><time>2026-04-19T10:05:12.088Z</time></trkpt><trkpt lat="45.7252329" lon="11.3280938"><ele>281.8</ele><time>2026-04-19T10:05:14.056Z</time></trkpt><trkpt lat="45.7251387" lon="11.3281471"><ele>281.2</ele><time>2026-04-19T10:05:16.046Z</time></trkpt><trkpt lat="45.7251083" lon="11.3282284"><ele>280.6</ele><time>2026-04-19T10:05:17.032Z</time></trkpt><trkpt lat="45.7250309" lon="11.328343"><ele>280.0</ele><time>2026-04-19T10:05:19.032Z</time></trkpt><trkpt lat="45.7249277" lon="11.3283906"><ele>279.3333333333333</ele><time>2026-04-19T10:05:21.039Z</time></trkpt><trkpt lat="45.7248113" lon="11.3284334"><ele>278.66666666666663</ele><time>2026-04-19T10:05:23.051Z</time></trkpt><trkpt lat="45.7247489" lon="11.3284479"><ele>278.0</ele><time>2026-04-19T10:05:24.033Z</time></trkpt><trkpt lat="45.7246749" lon="11.3284649"><ele>277.3333333333333</ele><time>2026-04-19T10:05:25.049Z</time></trkpt><trkpt lat="45.7245935" lon="11.3284793"><ele>276.6666666666667</ele><time>2026-04-19T10:05:26.052Z</time></trkpt><trkpt lat="45.7245036" lon="11.3285085"><ele>276.0</ele><time>2026-04-19T10:05:27.034Z</time></trkpt><trkpt lat="45.7244081" lon="11.3285472"><ele>274.0</ele><time>2026-04-19T10:05:28.031Z</time></trkpt><trkpt lat="45.7242993" lon="11.3285846"><ele>272.0</ele><time>2026-04-19T10:05:29.04Z</time></trkpt><trkpt lat="45.7241816" lon="11.3286392"><ele>270.0</ele><time>2026-04-19T10:05:30.033Z</time></trkpt><trkpt lat="45.7240565" lon="11.3287158"><ele>268.0</ele><time>2026-04-19T10:05:31.043Z</time></trkpt><trkpt lat="45.7239265" lon="11.3288134"><ele>267.66666666666663</ele><time>2026-04-19T10:05:32.054Z</time></trkpt><trkpt lat="45.7237948" lon="11.3289301"><ele>267.3333333333333</ele><time>2026-04-19T10:05:33.052Z</time></trkpt><trkpt lat="45.723674" lon="11.3290766"><ele>267.0</ele><time>2026-04-19T10:05:34.031Z</time></trkpt><trkpt lat="45.7235522" lon="11.3292171"><ele>265.0</ele><time>2026-04-19T10:05:35.054Z</time></trkpt><trkpt lat="45.7234364" lon="11.3293619"><ele>263.0</ele><time>2026-04-19T10:05:36.031Z</time></trkpt><trkpt lat="45.7233224" lon="11.3295083"><ele>261.0</ele><time>2026-04-19T10:05:37.052Z</time></trkpt><trkpt lat="45.7232055" lon="11.3296462"><ele>261.0</ele><time>2026-04-19T10:05:38.038Z</time></trkpt><trkpt lat="45.7230873" lon="11.3297769"><ele>261.0</ele><time>2026-04-19T10:05:39.039Z</time></trkpt><trkpt lat="45.7229598" lon="11.3298846"><ele>261.0</ele><time>2026-04-19T10:05:40.048Z</time></trkpt><trkpt lat="45.7228276" lon="11.3299758"><ele>261.0</ele><time>2026-04-19T10:05:41.032Z</time></trkpt><trkpt lat="45.7226964" lon="11.330065"><ele>260.0</ele><time>2026-04-19T10:05:42.056Z</time></trkpt><trkpt lat="45.7225685" lon="11.3301594"><ele>259.0</ele><time>2026-04-19T10:05:43.059Z</time></trkpt><trkpt lat="45.7224408" lon="11.3302531"><ele>258.0</ele><time>2026-04-19T10:05:44.055Z</time></trkpt><trkpt lat="45.7223115" lon="11.3303456"><ele>257.0</ele><time>2026-04-19T10:05:45.055Z</time></trkpt><trkpt lat="45.7221792" lon="11.330439"><ele>257.0</ele><time>2026-04-19T10:05:46.041Z</time></trkpt><trkpt lat="45.7220468" lon="11.3305306"><ele>257.0</ele><time>2026-04-19T10:05:47.034Z</time></trkpt><trkpt lat="45.7219088" lon="11.3306106"><ele>257.0</ele><time>2026-04-19T10:05:48.054Z</time></trkpt><trkpt lat="45.7217695" lon="11.3306997"><ele>257.0</ele><time>2026-04-19T10:05:49.043Z</time></trkpt><trkpt lat="45.7216278" lon="11.3307938"><ele>255.66666666666669</ele><time>2026-04-19T10:05:50.05Z</time></trkpt><trkpt lat="45.7214865" lon="11.3308949"><ele>254.33333333333331</ele><time>2026-04-19T10:05:51.035Z</time></trkpt><trkpt lat="45.7213437" lon="11.3310148"><ele>253.0</ele><time>2026-04-19T10:05:52.032Z</time></trkpt><trkpt lat="45.7212005" lon="11.3311505"><ele>251.33333333333331</ele><time>2026-04-19T10:05:53.034Z</time></trkpt><trkpt lat="45.721056" lon="11.3312865"><ele>249.66666666666669</ele><time>2026-04-19T10:05:54.029Z</time></trkpt><trkpt lat="45.7209122" lon="11.3314218"><ele>248.0</ele><time>2026-04-19T10:05:55.055Z</time></trkpt><trkpt lat="45.7207658" lon="11.3315515"><ele>247.66666666666669</ele><time>2026-04-19T10:05:56.037Z</time></trkpt><trkpt lat="45.7206233" lon="11.3316835"><ele>247.33333333333331</ele><time>2026-04-19T10:05:57.04Z</time></trkpt><trkpt lat="45.7204809" lon="11.3318094"><ele>247.0</ele><time>2026-04-19T10:05:58.041Z</time></trkpt><trkpt lat="45.7203372" lon="11.3319255"><ele>245.66666666666666</ele><time>2026-04-19T10:05:59.062Z</time></trkpt><trkpt lat="45.7201993" lon="11.3320468"><ele>244.33333333333331</ele><time>2026-04-19T10:06:00.045Z</time></trkpt><trkpt lat="45.7200551" lon="11.3321434"><ele>243.0</ele><time>2026-04-19T10:06:01.055Z</time></trkpt><trkpt lat="45.7199168" lon="11.3322465"><ele>242.25</ele><time>2026-04-19T10:06:02.033Z</time></trkpt><trkpt lat="45.7197867" lon="11.3323543"><ele>241.5</ele><time>2026-04-19T10:06:03.039Z</time></trkpt><trkpt lat="45.7196719" lon="11.3324836"><ele>240.75</ele><time>2026-04-19T10:06:04.039Z</time></trkpt><trkpt lat="45.7195624" lon="11.332613"><ele>240.0</ele><time>2026-04-19T10:06:05.029Z</time></trkpt><trkpt lat="45.7194524" lon="11.3327339"><ele>239.5</ele><time>2026-04-19T10:06:06.045Z</time></trkpt><trkpt lat="45.7193421" lon="11.3328488"><ele>239.0</ele><time>2026-04-19T10:06:07.058Z</time></trkpt><trkpt lat="45.7192259" lon="11.3329483"><ele>238.5</ele><time>2026-04-19T10:06:08.036Z</time></trkpt><trkpt lat="45.7191113" lon="11.3330427"><ele>238.0</ele><time>2026-04-19T10:06:09.053Z</time></trkpt><trkpt lat="45.7190021" lon="11.3331458"><ele>238.0</ele><time>2026-04-19T10:06:10.048Z</time></trkpt><trkpt lat="45.7188853" lon="11.3332271"><ele>238.0</ele><time>2026-04-19T10:06:11.063Z</time></trkpt><trkpt lat="45.7187748" lon="11.3333228"><ele>238.0</ele><time>2026-04-19T10:06:12.043Z</time></trkpt><trkpt lat="45.7186487" lon="11.3333866"><ele>238.0</ele><time>2026-04-19T10:06:13.032Z</time></trkpt><trkpt lat="45.7185253" lon="11.3334655"><ele>237.0</ele><time>2026-04-19T10:06:14.055Z</time></trkpt><trkpt lat="45.7184007" lon="11.3335431"><ele>236.0</ele><time>2026-04-19T10:06:15.049Z</time></trkpt><trkpt lat="45.7182866" lon="11.3336382"><ele>235.0</ele><time>2026-04-19T10:06:16.046Z</time></trkpt><trkpt lat="45.7181797" lon="11.3337489"><ele>234.0</ele><time>2026-04-19T10:06:17.045Z</time></trkpt><trkpt lat="45.7180731" lon="11.3338573"><ele>233.5</ele><time>2026-04-19T10:06:18.025Z</time></trkpt><trkpt lat="45.7179702" lon="11.3339626"><ele>233.0</ele><time>2026-04-19T10:06:19.055Z</time></trkpt><trkpt lat="45.7178711" lon="11.3340611"><ele>232.5</ele><time>2026-04-19T10:06:20.043Z</time></trkpt><trkpt lat="45.7177823" lon="11.3341733"><ele>232.0</ele><time>2026-04-19T10:06:21.044Z</time></trkpt><trkpt lat="45.7176892" lon="11.3342837"><ele>231.75</ele><time>2026-04-19T10:06:22.031Z</time></trkpt><trkpt lat="45.71759" lon="11.3343941"><ele>231.5</ele><time>2026-04-19T10:06:23.034Z</time></trkpt><trkpt lat="45.717483" lon="11.3345069"><ele>231.25</ele><time>2026-04-19T10:06:24.031Z</time></trkpt><trkpt lat="45.7173675" lon="11.3346124"><ele>231.0</ele><time>2026-04-19T10:06:25.032Z</time></trkpt><trkpt lat="45.7172517" lon="11.3347089"><ele>231.0</ele><time>2026-04-19T10:06:26.026Z</time></trkpt><trkpt lat="45.7171393" lon="11.3347912"><ele>231.00000000000003</ele><time>2026-04-19T10:06:27.038Z</time></trkpt><trkpt lat="45.7170264" lon="11.334832"><ele>231.00000000000003</ele><time>2026-04-19T10:06:28.036Z</time></trkpt><trkpt lat="45.7169256" lon="11.3348746"><ele>231.0</ele><time>2026-04-19T10:06:29.04Z</time></trkpt><trkpt lat="45.7168323" lon="11.3349142"><ele>231.0</ele><time>2026-04-19T10:06:30.03Z</time></trkpt><trkpt lat="45.7167438" lon="11.3349511"><ele>230.0</ele><time>2026-04-19T10:06:31.043Z</time></trkpt><trkpt lat="45.7166529" lon="11.3349867"><ele>229.00000000000003</ele><time>2026-04-19T10:06:32.04Z</time></trkpt><trkpt lat="45.7165568" lon="11.3350338"><ele>228.00000000000003</ele><time>2026-04-19T10:06:33.039Z</time></trkpt><trkpt lat="45.7164526" lon="11.3350776"><ele>227.0</ele><time>2026-04-19T10:06:34.037Z</time></trkpt><trkpt lat="45.7163468" lon="11.3351135"><ele>226.0</ele><time>2026-04-19T10:06:35.05Z</time></trkpt><trkpt lat="45.7162417" lon="11.3351464"><ele>226.0</ele><time>2026-04-19T10:06:36.033Z</time></trkpt><trkpt lat="45.7161372" lon="11.335181"><ele>226.00000000000003</ele><time>2026-04-19T10:06:37.035Z</time></trkpt><trkpt lat="45.7160346" lon="11.3352105"><ele>226.00000000000003</ele><time>2026-04-19T10:06:38.038Z</time></trkpt><trkpt lat="45.7159408" lon="11.3352385"><ele>226.0</ele><time>2026-04-19T10:06:39.062Z</time></trkpt><trkpt lat="45.7158603" lon="11.3352657"><ele>226.0</ele><time>2026-04-19T10:06:40.038Z</time></trkpt><trkpt lat="45.7157912" lon="11.3352863"><ele>225.4</ele><time>2026-04-19T10:06:41.057Z</time></trkpt><trkpt lat="45.7156765" lon="11.3353122"><ele>224.8</ele><time>2026-04-19T10:06:43.032Z</time></trkpt><trkpt lat="45.7155808" lon="11.3353343"><ele>224.20000000000002</ele><time>2026-04-19T10:06:45.057Z</time></trkpt><trkpt lat="45.7154854" lon="11.3353355"><ele>223.60000000000002</ele><time>2026-04-19T10:06:47.048Z</time></trkpt><trkpt lat="45.7153688" lon="11.3353353"><ele>223.0</ele><time>2026-04-19T10:06:49.041Z</time></trkpt><trkpt lat="45.7152551" lon="11.3353436"><ele>222.8</ele><time>2026-04-19T10:06:51.053Z</time></trkpt><trkpt lat="45.7151907" lon="11.3354676"><ele>222.60000000000002</ele><time>2026-04-19T10:06:53.039Z</time></trkpt><trkpt lat="45.7151719" lon="11.3356278"><ele>222.39999999999998</ele><time>2026-04-19T10:06:55.033Z</time></trkpt><trkpt lat="45.7151904" lon="11.3357315"><ele>222.2</ele><time>2026-04-19T10:06:56.05Z</time></trkpt><trkpt lat="45.7152081" lon="11.3358631"><ele>222.0</ele><time>2026-04-19T10:06:57.035Z</time></trkpt><trkpt lat="45.7152061" lon="11.3360194"><ele>221.8</ele><time>2026-04-19T10:06:58.048Z</time></trkpt><trkpt lat="45.7152076" lon="11.336167"><ele>221.6</ele><time>2026-04-19T10:06:59.063Z</time></trkpt><trkpt lat="45.7152068" lon="11.3363082"><ele>221.40000000000003</ele><time>2026-04-19T10:07:00.049Z</time></trkpt><trkpt lat="45.7152129" lon="11.3364566"><ele>221.20000000000002</ele><time>2026-04-19T10:07:01.047Z</time></trkpt><trkpt lat="45.7152163" lon="11.3366222"><ele>221.0</ele><time>2026-04-19T10:07:02.05Z</time></trkpt><trkpt lat="45.7152311" lon="11.3367939"><ele>221.25</ele><time>2026-04-19T10:07:03.032Z</time></trkpt><trkpt lat="45.7152416" lon="11.336971"><ele>221.5</ele><time>2026-04-19T10:07:04.056Z</time></trkpt><trkpt lat="45.7152671" lon="11.3371527"><ele>221.75</ele><time>2026-04-19T10:07:05.031Z</time></trkpt><trkpt lat="45.7152867" lon="11.3373399"><ele>222.0</ele><time>2026-04-19T10:07:06.032Z</time></trkpt><trkpt lat="45.715304" lon="11.3375263"><ele>221.5</ele><time>2026-04-19T10:07:07.032Z</time></trkpt><trkpt lat="45.7153243" lon="11.3377126"><ele>221.0</ele><time>2026-04-19T10:07:08.035Z</time></trkpt><trkpt lat="45.7153363" lon="11.3378982"><ele>220.5</ele><time>2026-04-19T10:07:09.039Z</time></trkpt><trkpt lat="45.7153522" lon="11.338085"><ele>220.0</ele><time>2026-04-19T10:07:10.059Z</time></trkpt><trkpt lat="45.715365" lon="11.3382696"><ele>219.75</ele><time>2026-04-19T10:07:11.065Z</time></trkpt><trkpt lat="45.7153741" lon="11.3384506"><ele>219.5</ele><time>2026-04-19T10:07:12.047Z</time></trkpt><trkpt lat="45.7153873" lon="11.3386221"><ele>219.25</ele><time>2026-04-19T10:07:13.052Z</time></trkpt><trkpt lat="45.715402" lon="11.3387926"><ele>219.0</ele><time>2026-04-19T10:07:14.038Z</time></trkpt><trkpt lat="45.7154182" lon="11.338962"><ele>218.25</ele><time>2026-04-19T10:07:15.055Z</time></trkpt><trkpt lat="45.7154291" lon="11.3391305"><ele>217.5</ele><time>2026-04-19T10:07:16.038Z</time></trkpt><trkpt lat="45.7154412" lon="11.3392948"><ele>216.75</ele><time>2026-04-19T10:07:17.039Z</time></trkpt><trkpt lat="45.7154425" lon="11.3394601"><ele>216.0</ele><time>2026-04-19T10:07:18.06Z</time></trkpt><trkpt lat="45.7154584" lon="11.3396203"><ele>215.4</ele><time>2026-04-19T10:07:19.031Z</time></trkpt><trkpt lat="45.7154695" lon="11.3397793"><ele>214.8</ele><time>2026-04-19T10:07:20.053Z</time></trkpt><trkpt lat="45.7154788" lon="11.3399341"><ele>214.20000000000002</ele><time>2026-04-19T10:07:21.032Z</time></trkpt><trkpt lat="45.715479" lon="11.3400885"><ele>213.60000000000002</ele><time>2026-04-19T10:07:22.059Z</time></trkpt><trkpt lat="45.715481" lon="11.3402404"><ele>213.0</ele><time>2026-04-19T10:07:23.047Z</time></trkpt><trkpt lat="45.7154876" lon="11.3403872"><ele>213.0</ele><time>2026-04-19T10:07:24.04Z</time></trkpt><trkpt lat="45.7155022" lon="11.3405306"><ele>213.0</ele><time>2026-04-19T10:07:25.051Z</time></trkpt><trkpt lat="45.7155178" lon="11.3406727"><ele>213.0</ele><time>2026-04-19T10:07:26.056Z</time></trkpt><trkpt lat="45.7155307" lon="11.3408144"><ele>213.0</ele><time>2026-04-19T10:07:27.059Z</time></trkpt><trkpt lat="45.7155431" lon="11.3409586"><ele>213.0</ele><time>2026-04-19T10:07:28.04Z</time></trkpt><trkpt lat="45.7155551" lon="11.3411067"><ele>213.25</ele><time>2026-04-19T10:07:29.04Z</time></trkpt><trkpt lat="45.7155635" lon="11.3412606"><ele>213.5</ele><time>2026-04-19T10:07:30.044Z</time></trkpt><trkpt lat="45.7155767" lon="11.3414206"><ele>213.75</ele><time>2026-04-19T10:07:31.046Z</time></trkpt><trkpt lat="45.7155911" lon="11.3415868"><ele>214.0</ele><time>2026-04-19T10:07:32.031Z</time></trkpt><trkpt lat="45.7155923" lon="11.3417619"><ele>213.25</ele><time>2026-04-19T10:07:33.04Z</time></trkpt><trkpt lat="45.7155788" lon="11.3419419"><ele>212.5</ele><time>2026-04-19T10:07:34.038Z</time></trkpt><trkpt lat="45.7155605" lon="11.3421226"><ele>211.75</ele><time>2026-04-19T10:07:35.038Z</time></trkpt><trkpt lat="45.7155358" lon="11.3423028"><ele>211.0</ele><time>2026-04-19T10:07:36.047Z</time></trkpt><trkpt lat="45.7155146" lon="11.3424833"><ele>211.0</ele><time>2026-04-19T10:07:37.041Z</time></trkpt><trkpt lat="45.7154696" lon="11.3426534"><ele>211.0</ele><time>2026-04-19T10:07:38.055Z</time></trkpt><trkpt lat="45.7154422" lon="11.3428252"><ele>211.0</ele><time>2026-04-19T10:07:39.046Z</time></trkpt><trkpt lat="45.7153996" lon="11.3429874"><ele>211.0</ele><time>2026-04-19T10:07:40.044Z</time></trkpt><trkpt lat="45.7153612" lon="11.3431445"><ele>211.0</ele><time>2026-04-19T10:07:41.036Z</time></trkpt><trkpt lat="45.7153194" lon="11.3432932"><ele>211.0</ele><time>2026-04-19T10:07:42.056Z</time></trkpt><trkpt lat="45.7152759" lon="11.3434341"><ele>211.0</ele><time>2026-04-19T10:07:43.035Z</time></trkpt><trkpt lat="45.7152244" lon="11.3435615"><ele>211.0</ele><time>2026-04-19T10:07:44.035Z</time></trkpt><trkpt lat="45.7151697" lon="11.3436818"><ele>211.0</ele><time>2026-04-19T10:07:45.036Z</time></trkpt><trkpt lat="45.7151096" lon="11.3437989"><ele>210.60000000000002</ele><time>2026-04-19T10:07:46.041Z</time></trkpt><trkpt lat="45.7150562" lon="11.3439208"><ele>210.2</ele><time>2026-04-19T10:07:47.054Z</time></trkpt><trkpt lat="45.7150173" lon="11.3440531"><ele>209.8</ele><time>2026-04-19T10:07:48.05Z</time></trkpt><trkpt lat="45.7149726" lon="11.3441834"><ele>209.39999999999998</ele><time>2026-04-19T10:07:49.043Z</time></trkpt><trkpt lat="45.7149306" lon="11.3443183"><ele>209.0</ele><time>2026-04-19T10:07:50.041Z</time></trkpt><trkpt lat="45.7148923" lon="11.3444534"><ele>209.00000000000003</ele><time>2026-04-19T10:07:51.068Z</time></trkpt><trkpt lat="45.7148546" lon="11.3445802"><ele>209.0</ele><time>2026-04-19T10:07:52.035Z</time></trkpt><trkpt lat="45.7148169" lon="11.344698"><ele>209.0</ele><time>2026-04-19T10:07:53.036Z</time></trkpt><trkpt lat="45.7147868" lon="11.3448038"><ele>209.0</ele><time>2026-04-19T10:07:54.044Z</time></trkpt><trkpt lat="45.7147597" lon="11.3448978"><ele>209.00000000000003</ele><time>2026-04-19T10:07:55.032Z</time></trkpt><trkpt lat="45.7147317" lon="11.3449794"><ele>209.0</ele><time>2026-04-19T10:07:56.036Z</time></trkpt><trkpt lat="45.7146733" lon="11.3450961"><ele>208.66666666666669</ele><time>2026-04-19T10:07:58.043Z</time></trkpt><trkpt lat="45.7146426" lon="11.3452087"><ele>208.33333333333334</ele><time>2026-04-19T10:08:00.056Z</time></trkpt><trkpt lat="45.7145939" lon="11.3453051"><ele>208.0</ele><time>2026-04-19T10:08:02.039Z</time></trkpt><trkpt lat="45.7145607" lon="11.3453906"><ele>207.66666666666669</ele><time>2026-04-19T10:08:04.034Z</time></trkpt><trkpt lat="45.7145283" lon="11.3455074"><ele>207.33333333333334</ele><time>2026-04-19T10:08:07.035Z</time></trkpt><trkpt lat="45.7144791" lon="11.3455977"><ele>207.0</ele><time>2026-04-19T10:08:33.025Z</time></trkpt><trkpt lat="45.7144539" lon="11.3456914"><ele>207.0</ele><time>2026-04-19T10:08:35.024Z</time></trkpt><trkpt lat="45.714394" lon="11.3458621"><ele>207.0</ele><time>2026-04-19T10:08:37.037Z</time></trkpt><trkpt lat="45.7143585" lon="11.3459882"><ele>207.0</ele><time>2026-04-19T10:08:38.04Z</time></trkpt><trkpt lat="45.714321" lon="11.3461166"><ele>207.0</ele><time>2026-04-19T10:08:39.046Z</time></trkpt><trkpt lat="45.7142808" lon="11.3462525"><ele>207.0</ele><time>2026-04-19T10:08:40.024Z</time></trkpt><trkpt lat="45.7142376" lon="11.3463798"><ele>207.0</ele><time>2026-04-19T10:08:41.051Z</time></trkpt><trkpt lat="45.7141974" lon="11.3465132"><ele>207.0</ele><time>2026-04-19T10:08:42.03Z</time></trkpt><trkpt lat="45.7141567" lon="11.3466459"><ele>207.0</ele><time>2026-04-19T10:08:43.04Z</time></trkpt><trkpt lat="45.7141161" lon="11.3467617"><ele>207.0</ele><time>2026-04-19T10:08:44.03Z</time></trkpt><trkpt lat="45.7140801" lon="11.346873"><ele>207.0</ele><time>2026-04-19T10:08:45.037Z</time></trkpt><trkpt lat="45.7140473" lon="11.346982"><ele>207.0</ele><time>2026-04-19T10:08:46.035Z</time></trkpt><trkpt lat="45.714015" lon="11.3470921"><ele>207.0</ele><time>2026-04-19T10:08:47.038Z</time></trkpt><trkpt lat="45.7139813" lon="11.3472005"><ele>207.0</ele><time>2026-04-19T10:08:48.04Z</time></trkpt><trkpt lat="45.7139502" lon="11.3473108"><ele>207.0</ele><time>2026-04-19T10:08:49.065Z</time></trkpt><trkpt lat="45.7139188" lon="11.3474357"><ele>207.0</ele><time>2026-04-19T10:08:50.035Z</time></trkpt><trkpt lat="45.713873" lon="11.3475739"><ele>207.0</ele><time>2026-04-19T10:08:51.04Z</time></trkpt><trkpt lat="45.7138264" lon="11.3477233"><ele>206.75</ele><time>2026-04-19T10:08:52.043Z</time></trkpt><trkpt lat="45.7137769" lon="11.3478782"><ele>206.5</ele><time>2026-04-19T10:08:53.049Z</time></trkpt><trkpt lat="45.7137264" lon="11.3480406"><ele>206.25</ele><time>2026-04-19T10:08:54.064Z</time></trkpt><trkpt lat="45.7136735" lon="11.3482081"><ele>206.0</ele><time>2026-04-19T10:08:55.031Z</time></trkpt><trkpt lat="45.7136109" lon="11.3483747"><ele>205.75</ele><time>2026-04-19T10:08:56.039Z</time></trkpt><trkpt lat="45.7135531" lon="11.3485425"><ele>205.5</ele><time>2026-04-19T10:08:57.031Z</time></trkpt><trkpt lat="45.7135001" lon="11.3487047"><ele>205.25</ele><time>2026-04-19T10:08:58.041Z</time></trkpt><trkpt lat="45.7134559" lon="11.348866"><ele>205.0</ele><time>2026-04-19T10:08:59.041Z</time></trkpt><trkpt lat="45.7134098" lon="11.3490228"><ele>204.75</ele><time>2026-04-19T10:09:00.033Z</time></trkpt><trkpt lat="45.7133645" lon="11.349176"><ele>204.5</ele><time>2026-04-19T10:09:01.035Z</time></trkpt><trkpt lat="45.7133193" lon="11.349328"><ele>204.25</ele><time>2026-04-19T10:09:02.029Z</time></trkpt><trkpt lat="45.7132728" lon="11.3494794"><ele>204.0</ele><time>2026-04-19T10:09:03.031Z</time></trkpt><trkpt lat="45.7132222" lon="11.3496367"><ele>203.75</ele><time>2026-04-19T10:09:04.035Z</time></trkpt><trkpt lat="45.7131718" lon="11.3497943"><ele>203.5</ele><time>2026-04-19T10:09:05.043Z</time></trkpt><trkpt lat="45.7131226" lon="11.3499563"><ele>203.25</ele><time>2026-04-19T10:09:06.057Z</time></trkpt><trkpt lat="45.7130737" lon="11.3501188"><ele>203.0</ele><time>2026-04-19T10:09:07.039Z</time></trkpt><trkpt lat="45.7130221" lon="11.3502767"><ele>203.0</ele><time>2026-04-19T10:09:08.059Z</time></trkpt><trkpt lat="45.7129653" lon="11.3504317"><ele>203.0</ele><time>2026-04-19T10:09:09.038Z</time></trkpt><trkpt lat="45.7129087" lon="11.3505907"><ele>203.0</ele><time>2026-04-19T10:09:10.048Z</time></trkpt><trkpt lat="45.7128458" lon="11.3507517"><ele>203.0</ele><time>2026-04-19T10:09:11.039Z</time></trkpt><trkpt lat="45.7127792" lon="11.3509109"><ele>203.0</ele><time>2026-04-19T10:09:12.037Z</time></trkpt><trkpt lat="45.7127238" lon="11.3510772"><ele>203.0</ele><time>2026-04-19T10:09:13.047Z</time></trkpt><trkpt lat="45.7126651" lon="11.3512458"><ele>203.0</ele><time>2026-04-19T10:09:14.043Z</time></trkpt><trkpt lat="45.712603" lon="11.3514188"><ele>203.0</ele><time>2026-04-19T10:09:15.037Z</time></trkpt><trkpt lat="45.7125418" lon="11.3515919"><ele>202.5</ele><time>2026-04-19T10:09:16.033Z</time></trkpt><trkpt lat="45.712492" lon="11.3517738"><ele>202.0</ele><time>2026-04-19T10:09:17.033Z</time></trkpt><trkpt lat="45.7124287" lon="11.3519469"><ele>201.5</ele><time>2026-04-19T10:09:18.04Z</time></trkpt><trkpt lat="45.7123686" lon="11.3521202"><ele>201.0</ele><time>2026-04-19T10:09:19.053Z</time></trkpt><trkpt lat="45.7123156" lon="11.3522952"><ele>200.5</ele><time>2026-04-19T10:09:20.041Z</time></trkpt><trkpt lat="45.7122601" lon="11.3524591"><ele>200.0</ele><time>2026-04-19T10:09:21.044Z</time></trkpt><trkpt lat="45.7122065" lon="11.3526166"><ele>199.5</ele><time>2026-04-19T10:09:22.037Z</time></trkpt><trkpt lat="45.712155" lon="11.3527637"><ele>199.0</ele><time>2026-04-19T10:09:23.052Z</time></trkpt><trkpt lat="45.7121093" lon="11.3528968"><ele>198.99999999999997</ele><time>2026-04-19T10:09:24.045Z</time></trkpt><trkpt lat="45.7120725" lon="11.3530122"><ele>199.0</ele><time>2026-04-19T10:09:25.042Z</time></trkpt><trkpt lat="45.7120488" lon="11.3531132"><ele>199.0</ele><time>2026-04-19T10:09:26.05Z</time></trkpt><trkpt lat="45.7120055" lon="11.353256"><ele>199.0</ele><time>2026-04-19T10:09:28.036Z</time></trkpt><trkpt lat="45.7119624" lon="11.3533365"><ele>198.99999999999997</ele><time>2026-04-19T10:09:29.036Z</time></trkpt><trkpt lat="45.7119173" lon="11.3534497"><ele>199.0</ele><time>2026-04-19T10:09:30.072Z</time></trkpt><trkpt lat="45.7118913" lon="11.3536014"><ele>198.99999999999997</ele><time>2026-04-19T10:09:31.037Z</time></trkpt><trkpt lat="45.7118581" lon="11.3537488"><ele>199.0</ele><time>2026-04-19T10:09:32.035Z</time></trkpt><trkpt lat="45.7118271" lon="11.3538739"><ele>199.0</ele><time>2026-04-19T10:09:33.028Z</time></trkpt><trkpt lat="45.7117955" lon="11.3539824"><ele>199.0</ele><time>2026-04-19T10:09:34.034Z</time></trkpt><trkpt lat="45.7117565" lon="11.3540761"><ele>198.99999999999997</ele><time>2026-04-19T10:09:35.035Z</time></trkpt><trkpt lat="45.7117332" lon="11.3541658"><ele>199.0</ele><time>2026-04-19T10:09:36.031Z</time></trkpt><trkpt lat="45.7117119" lon="11.3542509"><ele>199.0</ele><time>2026-04-19T10:09:37.044Z</time></trkpt><trkpt lat="45.7116757" lon="11.3544112"><ele>199.0</ele><time>2026-04-19T10:09:39.033Z</time></trkpt><trkpt lat="45.7116496" lon="11.3545508"><ele>199.0</ele><time>2026-04-19T10:09:41.027Z</time></trkpt><trkpt lat="45.7116205" lon="11.3546704"><ele>199.0</ele><time>2026-04-19T10:09:43.062Z</time></trkpt><trkpt lat="45.7115765" lon="11.3547422"><ele>199.0</ele><time>2026-04-19T10:09:45.047Z</time></trkpt><trkpt lat="45.7115174" lon="11.3548432"><ele>199.2</ele><time>2026-04-19T10:09:48.039Z</time></trkpt><trkpt lat="45.7114904" lon="11.3549473"><ele>199.39999999999998</ele><time>2026-04-19T10:09:56.032Z</time></trkpt><trkpt lat="45.711504" lon="11.3550851"><ele>199.6</ele><time>2026-04-19T10:09:58.045Z</time></trkpt><trkpt lat="45.7114464" lon="11.3551727"><ele>199.8</ele><time>2026-04-19T10:10:00.055Z</time></trkpt><trkpt lat="45.7113624" lon="11.3552871"><ele>200.0</ele><time>2026-04-19T10:10:15.028Z</time></trkpt><trkpt lat="45.7112854" lon="11.3553829"><ele>200.00000000000003</ele><time>2026-04-19T10:10:17.048Z</time></trkpt><trkpt lat="45.7112442" lon="11.3554583"><ele>200.0</ele><time>2026-04-19T10:10:18.035Z</time></trkpt><trkpt lat="45.7112138" lon="11.3555535"><ele>200.0</ele><time>2026-04-19T10:10:19.029Z</time></trkpt><trkpt lat="45.7111882" lon="11.355667"><ele>200.0</ele><time>2026-04-19T10:10:20.033Z</time></trkpt><trkpt lat="45.7111839" lon="11.355816"><ele>200.00000000000003</ele><time>2026-04-19T10:10:21.026Z</time></trkpt><trkpt lat="45.7111831" lon="11.3559688"><ele>200.0</ele><time>2026-04-19T10:10:22.029Z</time></trkpt><trkpt lat="45.711158" lon="11.356101"><ele>200.0</ele><time>2026-04-19T10:10:23.031Z</time></trkpt><trkpt lat="45.7111246" lon="11.3562363"><ele>200.0</ele><time>2026-04-19T10:10:24.034Z</time></trkpt><trkpt lat="45.711098" lon="11.3563841"><ele>200.0</ele><time>2026-04-19T10:10:25.054Z</time></trkpt><trkpt lat="45.7110687" lon="11.3565374"><ele>200.0</ele><time>2026-04-19T10:10:26.04Z</time></trkpt><trkpt lat="45.7110435" lon="11.3566905"><ele>200.0</ele><time>2026-04-19T10:10:27.048Z</time></trkpt><trkpt lat="45.7110298" lon="11.3568622"><ele>200.0</ele><time>2026-04-19T10:10:28.022Z</time></trkpt><trkpt lat="45.711016" lon="11.3570392"><ele>200.0</ele><time>2026-04-19T10:10:29.037Z</time></trkpt><trkpt lat="45.7109919" lon="11.3572155"><ele>200.0</ele><time>2026-04-19T10:10:30.031Z</time></trkpt><trkpt lat="45.7109644" lon="11.3573865"><ele>200.0</ele><time>2026-04-19T10:10:31.033Z</time></trkpt><trkpt lat="45.710934" lon="11.3575511"><ele>199.2</ele><time>2026-04-19T10:10:32.036Z</time></trkpt><trkpt lat="45.7109026" lon="11.3577037"><ele>198.4</ele><time>2026-04-19T10:10:33.036Z</time></trkpt><trkpt lat="45.7108632" lon="11.3578444"><ele>197.60000000000002</ele><time>2026-04-19T10:10:34.04Z</time></trkpt><trkpt lat="45.7108402" lon="11.3579858"><ele>196.8</ele><time>2026-04-19T10:10:35.049Z</time></trkpt><trkpt lat="45.7108179" lon="11.3581288"><ele>196.0</ele><time>2026-04-19T10:10:36.033Z</time></trkpt><trkpt lat="45.7107797" lon="11.3582724"><ele>195.4</ele><time>2026-04-19T10:10:37.039Z</time></trkpt><trkpt lat="45.7107297" lon="11.3584062"><ele>194.8</ele><time>2026-04-19T10:10:38.046Z</time></trkpt><trkpt lat="45.7107053" lon="11.3585366"><ele>194.20000000000002</ele><time>2026-04-19T10:10:39.044Z</time></trkpt><trkpt lat="45.7106927" lon="11.3586587"><ele>193.60000000000002</ele><time>2026-04-19T10:10:40.029Z</time></trkpt><trkpt lat="45.7106798" lon="11.3587796"><ele>193.0</ele><time>2026-04-19T10:10:41.056Z</time></trkpt><trkpt lat="45.7106397" lon="11.358906"><ele>192.8</ele><time>2026-04-19T10:10:42.041Z</time></trkpt><trkpt lat="45.7105929" lon="11.3590404"><ele>192.60000000000002</ele><time>2026-04-19T10:10:43.031Z</time></trkpt><trkpt lat="45.7105592" lon="11.3591838"><ele>192.39999999999998</ele><time>2026-04-19T10:10:44.055Z</time></trkpt><trkpt lat="45.7105283" lon="11.3593252"><ele>192.2</ele><time>2026-04-19T10:10:45.051Z</time></trkpt><trkpt lat="45.7104972" lon="11.3594615"><ele>192.0</ele><time>2026-04-19T10:10:46.06Z</time></trkpt><trkpt lat="45.7104449" lon="11.3595775"><ele>192.0</ele><time>2026-04-19T10:10:47.04Z</time></trkpt><trkpt lat="45.7103721" lon="11.3596733"><ele>192.0</ele><time>2026-04-19T10:10:48.04Z</time></trkpt><trkpt lat="45.7102899" lon="11.359784"><ele>192.0</ele><time>2026-04-19T10:10:49.04Z</time></trkpt><trkpt lat="45.7102124" lon="11.3599377"><ele>192.0</ele><time>2026-04-19T10:10:50.034Z</time></trkpt><trkpt lat="45.7101506" lon="11.3601273"><ele>191.5</ele><time>2026-04-19T10:10:51.047Z</time></trkpt><trkpt lat="45.7101001" lon="11.3603243"><ele>191.0</ele><time>2026-04-19T10:10:52.043Z</time></trkpt><trkpt lat="45.7100567" lon="11.360512"><ele>190.5</ele><time>2026-04-19T10:10:53.039Z</time></trkpt><trkpt lat="45.7100046" lon="11.3606941"><ele>190.0</ele><time>2026-04-19T10:10:54.035Z</time></trkpt><trkpt lat="45.7099544" lon="11.3608854"><ele>190.0</ele><time>2026-04-19T10:10:55.045Z</time></trkpt><trkpt lat="45.7099014" lon="11.3610774"><ele>190.0</ele><time>2026-04-19T10:10:56.026Z</time></trkpt><trkpt lat="45.7098512" lon="11.3612611"><ele>190.0</ele><time>2026-04-19T10:10:57.038Z</time></trkpt><trkpt lat="45.7098197" lon="11.3614238"><ele>190.0</ele><time>2026-04-19T10:10:58.053Z</time></trkpt><trkpt lat="45.7097981" lon="11.3615379"><ele>189.8</ele><time>2026-04-19T10:10:59.037Z</time></trkpt><trkpt lat="45.7097916" lon="11.3617016"><ele>189.6</ele><time>2026-04-19T10:11:01.04Z</time></trkpt><trkpt lat="45.7097827" lon="11.3618239"><ele>189.39999999999998</ele><time>2026-04-19T10:11:03.045Z</time></trkpt><trkpt lat="45.7097658" lon="11.3619444"><ele>189.2</ele><time>2026-04-19T10:11:05.045Z</time></trkpt><trkpt lat="45.7096957" lon="11.3620585"><ele>189.0</ele><time>2026-04-19T10:11:07.029Z</time></trkpt><trkpt lat="45.7096312" lon="11.3620857"><ele>189.0</ele><time>2026-04-19T10:11:08.025Z</time></trkpt><trkpt lat="45.7095627" lon="11.3621263"><ele>189.0</ele><time>2026-04-19T10:11:09.031Z</time></trkpt><trkpt lat="45.7094729" lon="11.3621396"><ele>189.0</ele><time>2026-04-19T10:11:10.037Z</time></trkpt><trkpt lat="45.7093672" lon="11.3621928"><ele>189.0</ele><time>2026-04-19T10:11:11.032Z</time></trkpt><trkpt lat="45.709254" lon="11.3622866"><ele>189.0</ele><time>2026-04-19T10:11:12.033Z</time></trkpt><trkpt lat="45.7091605" lon="11.3624401"><ele>189.0</ele><time>2026-04-19T10:11:13.04Z</time></trkpt><trkpt lat="45.7090769" lon="11.3626308"><ele>189.0</ele><time>2026-04-19T10:11:14.034Z</time></trkpt><trkpt lat="45.7089957" lon="11.3628254"><ele>189.0</ele><time>2026-04-19T10:11:15.061Z</time></trkpt><trkpt lat="45.7089187" lon="11.3630329"><ele>188.66666666666666</ele><time>2026-04-19T10:11:16.029Z</time></trkpt><trkpt lat="45.7088418" lon="11.3632369"><ele>188.33333333333331</ele><time>2026-04-19T10:11:17.034Z</time></trkpt><trkpt lat="45.708754" lon="11.363432"><ele>188.0</ele><time>2026-04-19T10:11:18.031Z</time></trkpt><trkpt lat="45.7086627" lon="11.3636231"><ele>188.0</ele><time>2026-04-19T10:11:19.036Z</time></trkpt><trkpt lat="45.7085997" lon="11.3638379"><ele>188.0</ele><time>2026-04-19T10:11:20.034Z</time></trkpt><trkpt lat="45.7085473" lon="11.3640485"><ele>188.0</ele><time>2026-04-19T10:11:21.033Z</time></trkpt><trkpt lat="45.7084893" lon="11.3642437"><ele>187.8</ele><time>2026-04-19T10:11:22.035Z</time></trkpt><trkpt lat="45.7084466" lon="11.3644259"><ele>187.60000000000002</ele><time>2026-04-19T10:11:23.034Z</time></trkpt><trkpt lat="45.7084145" lon="11.3645735"><ele>187.39999999999998</ele><time>2026-04-19T10:11:24.037Z</time></trkpt><trkpt lat="45.7083892" lon="11.364687"><ele>187.2</ele><time>2026-04-19T10:11:25.042Z</time></trkpt><trkpt lat="45.7083647" lon="11.3648379"><ele>187.0</ele><time>2026-04-19T10:11:27.038Z</time></trkpt><trkpt lat="45.7082974" lon="11.3649398"><ele>187.0</ele><time>2026-04-19T10:11:29.037Z</time></trkpt><trkpt lat="45.7082543" lon="11.3650226"><ele>187.0</ele><time>2026-04-19T10:11:30.042Z</time></trkpt><trkpt lat="45.7082038" lon="11.3651342"><ele>187.0</ele><time>2026-04-19T10:11:31.041Z</time></trkpt><trkpt lat="45.7081595" lon="11.3652858"><ele>187.0</ele><time>2026-04-19T10:11:32.031Z</time></trkpt><trkpt lat="45.7081139" lon="11.3654685"><ele>187.0</ele><time>2026-04-19T10:11:33.044Z</time></trkpt><trkpt lat="45.7080392" lon="11.3656462"><ele>186.75</ele><time>2026-04-19T10:11:34.049Z</time></trkpt><trkpt lat="45.7079569" lon="11.3658233"><ele>186.5</ele><time>2026-04-19T10:11:35.031Z</time></trkpt><trkpt lat="45.7078741" lon="11.3660042"><ele>186.25</ele><time>2026-04-19T10:11:36.053Z</time></trkpt><trkpt lat="45.7077932" lon="11.3661828"><ele>186.0</ele><time>2026-04-19T10:11:37.036Z</time></trkpt><trkpt lat="45.7077226" lon="11.3663573"><ele>185.5</ele><time>2026-04-19T10:11:38.022Z</time></trkpt><trkpt lat="45.7076512" lon="11.3665225"><ele>185.0</ele><time>2026-04-19T10:11:39.039Z</time></trkpt><trkpt lat="45.7075892" lon="11.3666901"><ele>184.5</ele><time>2026-04-19T10:11:40.054Z</time></trkpt><trkpt lat="45.7075246" lon="11.3668492"><ele>184.0</ele><time>2026-04-19T10:11:41.059Z</time></trkpt><trkpt lat="45.707456" lon="11.3669946"><ele>184.0</ele><time>2026-04-19T10:11:42.03Z</time></trkpt><trkpt lat="45.7073958" lon="11.3671352"><ele>184.0</ele><time>2026-04-19T10:11:43.034Z</time></trkpt><trkpt lat="45.707349" lon="11.3672694"><ele>184.0</ele><time>2026-04-19T10:11:44.043Z</time></trkpt><trkpt lat="45.7073001" lon="11.3673951"><ele>184.0</ele><time>2026-04-19T10:11:45.044Z</time></trkpt><trkpt lat="45.7072484" lon="11.3675242"><ele>184.0</ele><time>2026-04-19T10:11:46.028Z</time></trkpt><trkpt lat="45.7071916" lon="11.3676468"><ele>183.79999999999998</ele><time>2026-04-19T10:11:47.052Z</time></trkpt><trkpt lat="45.7071402" lon="11.3677581"><ele>183.6</ele><time>2026-04-19T10:11:48.04Z</time></trkpt><trkpt lat="45.7070932" lon="11.3678658"><ele>183.4</ele><time>2026-04-19T10:11:49.041Z</time></trkpt><trkpt lat="45.7070407" lon="11.3679706"><ele>183.2</ele><time>2026-04-19T10:11:50.033Z</time></trkpt><trkpt lat="45.7069866" lon="11.3680822"><ele>183.0</ele><time>2026-04-19T10:11:51.034Z</time></trkpt><trkpt lat="45.7069374" lon="11.3682068"><ele>182.8</ele><time>2026-04-19T10:11:52.034Z</time></trkpt><trkpt lat="45.706894" lon="11.3683385"><ele>182.60000000000002</ele><time>2026-04-19T10:11:53.039Z</time></trkpt><trkpt lat="45.7068459" lon="11.3684656"><ele>182.39999999999998</ele><time>2026-04-19T10:11:54.053Z</time></trkpt><trkpt lat="45.7067958" lon="11.3685897"><ele>182.2</ele><time>2026-04-19T10:11:55.054Z</time></trkpt><trkpt lat="45.7067513" lon="11.3687155"><ele>182.0</ele><time>2026-04-19T10:11:56.044Z</time></trkpt><trkpt lat="45.7067001" lon="11.3688296"><ele>182.0</ele><time>2026-04-19T10:11:57.032Z</time></trkpt><trkpt lat="45.7066497" lon="11.3689328"><ele>182.0</ele><time>2026-04-19T10:11:58.032Z</time></trkpt><trkpt lat="45.7066082" lon="11.3690289"><ele>182.0</ele><time>2026-04-19T10:11:59.043Z</time></trkpt><trkpt lat="45.7065721" lon="11.3691134"><ele>182.0</ele><time>2026-04-19T10:12:00.031Z</time></trkpt><trkpt lat="45.7065332" lon="11.3691883"><ele>182.0</ele><time>2026-04-19T10:12:01.04Z</time></trkpt><trkpt lat="45.7064669" lon="11.3693283"><ele>182.0</ele><time>2026-04-19T10:12:03.045Z</time></trkpt><trkpt lat="45.7064154" lon="11.3694434"><ele>182.0</ele><time>2026-04-19T10:12:05.07Z</time></trkpt><trkpt lat="45.7063701" lon="11.3695401"><ele>182.0</ele><time>2026-04-19T10:12:07.056Z</time></trkpt><trkpt lat="45.7063053" lon="11.3696301"><ele>182.0</ele><time>2026-04-19T10:12:09.044Z</time></trkpt><trkpt lat="45.7062239" lon="11.3697508"><ele>182.0</ele><time>2026-04-19T10:12:11.047Z</time></trkpt><trkpt lat="45.7061773" lon="11.3698299"><ele>182.0</ele><time>2026-04-19T10:12:12.047Z</time></trkpt><trkpt lat="45.7061231" lon="11.3699313"><ele>182.0</ele><time>2026-04-19T10:12:13.059Z</time></trkpt><trkpt lat="45.7060924" lon="11.3700819"><ele>182.0</ele><time>2026-04-19T10:12:14.035Z</time></trkpt><trkpt lat="45.7060693" lon="11.3702463"><ele>182.0</ele><time>2026-04-19T10:12:15.042Z</time></trkpt><trkpt lat="45.7060283" lon="11.370412"><ele>182.0</ele><time>2026-04-19T10:12:16.03Z</time></trkpt><trkpt lat="45.7059627" lon="11.3705685"><ele>181.75</ele><time>2026-04-19T10:12:17.04Z</time></trkpt><trkpt lat="45.705895" lon="11.3707255"><ele>181.5</ele><time>2026-04-19T10:12:18.036Z</time></trkpt><trkpt lat="45.7058246" lon="11.3708857"><ele>181.25</ele><time>2026-04-19T10:12:19.035Z</time></trkpt><trkpt lat="45.7057576" lon="11.3710517"><ele>181.0</ele><time>2026-04-19T10:12:20.054Z</time></trkpt><trkpt lat="45.7056874" lon="11.3712173"><ele>180.5</ele><time>2026-04-19T10:12:21.048Z</time></trkpt><trkpt lat="45.7056191" lon="11.3713798"><ele>180.0</ele><time>2026-04-19T10:12:22.039Z</time></trkpt><trkpt lat="45.7055535" lon="11.3715389"><ele>179.5</ele><time>2026-04-19T10:12:23.062Z</time></trkpt><trkpt lat="45.7054901" lon="11.3717001"><ele>179.0</ele><time>2026-04-19T10:12:24.047Z</time></trkpt><trkpt lat="45.7054214" lon="11.3718569"><ele>179.0</ele><time>2026-04-19T10:12:25.049Z</time></trkpt><trkpt lat="45.7053535" lon="11.3720181"><ele>179.0</ele><time>2026-04-19T10:12:26.038Z</time></trkpt><trkpt lat="45.7052881" lon="11.3721808"><ele>179.0</ele><time>2026-04-19T10:12:27.045Z</time></trkpt><trkpt lat="45.7052214" lon="11.3723382"><ele>179.0</ele><time>2026-04-19T10:12:28.033Z</time></trkpt><trkpt lat="45.7051535" lon="11.3724925"><ele>179.25</ele><time>2026-04-19T10:12:29.033Z</time></trkpt><trkpt lat="45.7050847" lon="11.3726453"><ele>179.5</ele><time>2026-04-19T10:12:30.054Z</time></trkpt><trkpt lat="45.7050148" lon="11.3728023"><ele>179.75</ele><time>2026-04-19T10:12:31.04Z</time></trkpt><trkpt lat="45.7049461" lon="11.3729657"><ele>180.0</ele><time>2026-04-19T10:12:32.047Z</time></trkpt><trkpt lat="45.7048732" lon="11.3731291"><ele>179.5</ele><time>2026-04-19T10:12:33.037Z</time></trkpt><trkpt lat="45.7048025" lon="11.3732927"><ele>179.0</ele><time>2026-04-19T10:12:34.053Z</time></trkpt><trkpt lat="45.7047334" lon="11.3734527"><ele>178.5</ele><time>2026-04-19T10:12:35.05Z</time></trkpt><trkpt lat="45.7046697" lon="11.3736132"><ele>178.0</ele><time>2026-04-19T10:12:36.035Z</time></trkpt><trkpt lat="45.7046036" lon="11.3737695"><ele>177.75</ele><time>2026-04-19T10:12:37.058Z</time></trkpt><trkpt lat="45.7045337" lon="11.3739252"><ele>177.5</ele><time>2026-04-19T10:12:38.034Z</time></trkpt><trkpt lat="45.7044684" lon="11.3740865"><ele>177.25</ele><time>2026-04-19T10:12:39.043Z</time></trkpt><trkpt lat="45.7044143" lon="11.3742492"><ele>177.0</ele><time>2026-04-19T10:12:40.031Z</time></trkpt><trkpt lat="45.704378" lon="11.3744164"><ele>177.0</ele><time>2026-04-19T10:12:41.039Z</time></trkpt><trkpt lat="45.7043419" lon="11.3745774"><ele>177.0</ele><time>2026-04-19T10:12:42.043Z</time></trkpt><trkpt lat="45.7042992" lon="11.3747227"><ele>177.0</ele><time>2026-04-19T10:12:43.03Z</time></trkpt><trkpt lat="45.7042531" lon="11.3748424"><ele>177.0</ele><time>2026-04-19T10:12:44.023Z</time></trkpt><trkpt lat="45.7041964" lon="11.3749318"><ele>177.0</ele><time>2026-04-19T10:12:45.041Z</time></trkpt><trkpt lat="45.7041327" lon="11.3750008"><ele>177.0</ele><time>2026-04-19T10:12:46.029Z</time></trkpt><trkpt lat="45.7040527" lon="11.3750198"><ele>177.0</ele><time>2026-04-19T10:12:47.051Z</time></trkpt><trkpt lat="45.7039777" lon="11.3750156"><ele>177.0</ele><time>2026-04-19T10:12:48.046Z</time></trkpt><trkpt lat="45.7039048" lon="11.3750026"><ele>177.0</ele><time>2026-04-19T10:12:49.045Z</time></trkpt><trkpt lat="45.7038245" lon="11.374968"><ele>177.0</ele><time>2026-04-19T10:12:50.057Z</time></trkpt><trkpt lat="45.7037364" lon="11.3749236"><ele>177.0</ele><time>2026-04-19T10:12:51.051Z</time></trkpt><trkpt lat="45.7036405" lon="11.3748775"><ele>176.8</ele><time>2026-04-19T10:12:52.044Z</time></trkpt><trkpt lat="45.7035465" lon="11.374816"><ele>176.6</ele><time>2026-04-19T10:12:53.062Z</time></trkpt><trkpt lat="45.7034535" lon="11.3747587"><ele>176.4</ele><time>2026-04-19T10:12:54.057Z</time></trkpt><trkpt lat="45.7033638" lon="11.3747053"><ele>176.20000000000002</ele><time>2026-04-19T10:12:55.08Z</time></trkpt><trkpt lat="45.7032881" lon="11.3746249"><ele>176.0</ele><time>2026-04-19T10:12:56.056Z</time></trkpt><trkpt lat="45.7032255" lon="11.3745297"><ele>175.8</ele><time>2026-04-19T10:12:57.047Z</time></trkpt><trkpt lat="45.7031569" lon="11.3744443"><ele>175.60000000000002</ele><time>2026-04-19T10:12:58.032Z</time></trkpt><trkpt lat="45.7030761" lon="11.374385"><ele>175.4</ele><time>2026-04-19T10:12:59.051Z</time></trkpt><trkpt lat="45.7029842" lon="11.374388"><ele>175.2</ele><time>2026-04-19T10:13:00.038Z</time></trkpt><trkpt lat="45.702899" lon="11.3744388"><ele>175.0</ele><time>2026-04-19T10:13:01.042Z</time></trkpt><trkpt lat="45.7028361" lon="11.3745282"><ele>175.0</ele><time>2026-04-19T10:13:02.043Z</time></trkpt><trkpt lat="45.7028063" lon="11.3746615"><ele>175.0</ele><time>2026-04-19T10:13:03.03Z</time></trkpt><trkpt lat="45.7028122" lon="11.374798"><ele>175.0</ele><time>2026-04-19T10:13:04.048Z</time></trkpt><trkpt lat="45.7028522" lon="11.3749236"><ele>175.0</ele><time>2026-04-19T10:13:05.035Z</time></trkpt><trkpt lat="45.7029222" lon="11.3750281"><ele>175.0</ele><time>2026-04-19T10:13:06.034Z</time></trkpt><trkpt lat="45.7029711" lon="11.3751525"><ele>175.0</ele><time>2026-04-19T10:13:07.056Z</time></trkpt><trkpt lat="45.7029782" lon="11.3753"><ele>175.0</ele><time>2026-04-19T10:13:08.045Z</time></trkpt><trkpt lat="45.702973" lon="11.3754588"><ele>175.0</ele><time>2026-04-19T10:13:09.044Z</time></trkpt><trkpt lat="45.7029623" lon="11.3756266"><ele>175.0</ele><time>2026-04-19T10:13:10.066Z</time></trkpt><trkpt lat="45.7029386" lon="11.3757974"><ele>175.0</ele><time>2026-04-19T10:13:11.029Z</time></trkpt><trkpt lat="45.7029109" lon="11.3759773"><ele>175.0</ele><time>2026-04-19T10:13:12.023Z</time></trkpt><trkpt lat="45.7028818" lon="11.3761651"><ele>175.0</ele><time>2026-04-19T10:13:13.034Z</time></trkpt><trkpt lat="45.7028478" lon="11.3763602"><ele>175.0</ele><time>2026-04-19T10:13:14.052Z</time></trkpt><trkpt lat="45.7028008" lon="11.3765654"><ele>175.0</ele><time>2026-04-19T10:13:15.04Z</time></trkpt><trkpt lat="45.7027458" lon="11.3767798"><ele>175.0</ele><time>2026-04-19T10:13:16.038Z</time></trkpt><trkpt lat="45.7026861" lon="11.3769985"><ele>175.0</ele><time>2026-04-19T10:13:17.058Z</time></trkpt><trkpt lat="45.7026035" lon="11.3772058"><ele>174.0</ele><time>2026-04-19T10:13:18.025Z</time></trkpt><trkpt lat="45.7025225" lon="11.3774143"><ele>173.0</ele><time>2026-04-19T10:13:19.047Z</time></trkpt><trkpt lat="45.702445" lon="11.3776245"><ele>172.0</ele><time>2026-04-19T10:13:20.035Z</time></trkpt><trkpt lat="45.7023663" lon="11.377834"><ele>171.0</ele><time>2026-04-19T10:13:21.034Z</time></trkpt><trkpt lat="45.7022856" lon="11.3780448"><ele>170.0</ele><time>2026-04-19T10:13:22.032Z</time></trkpt><trkpt lat="45.7022099" lon="11.378262"><ele>169.0</ele><time>2026-04-19T10:13:23.034Z</time></trkpt><trkpt lat="45.7021405" lon="11.3784842"><ele>169.0</ele><time>2026-04-19T10:13:24.04Z</time></trkpt><trkpt lat="45.702075" lon="11.3787111"><ele>169.0</ele><time>2026-04-19T10:13:25.038Z</time></trkpt><trkpt lat="45.702012" lon="11.3789389"><ele>169.0</ele><time>2026-04-19T10:13:26.032Z</time></trkpt><trkpt lat="45.7019498" lon="11.3791672"><ele>169.33333333333334</ele><time>2026-04-19T10:13:27.042Z</time></trkpt><trkpt lat="45.7018852" lon="11.3793876"><ele>169.66666666666666</ele><time>2026-04-19T10:13:28.031Z</time></trkpt><trkpt lat="45.7018197" lon="11.3795974"><ele>170.0</ele><time>2026-04-19T10:13:29.035Z</time></trkpt><trkpt lat="45.7017586" lon="11.3797972"><ele>170.25</ele><time>2026-04-19T10:13:30.037Z</time></trkpt><trkpt lat="45.7016994" lon="11.3799852"><ele>170.5</ele><time>2026-04-19T10:13:31.036Z</time></trkpt><trkpt lat="45.7016268" lon="11.3801548"><ele>170.75</ele><time>2026-04-19T10:13:32.035Z</time></trkpt><trkpt lat="45.7015413" lon="11.3803055"><ele>171.0</ele><time>2026-04-19T10:13:33.044Z</time></trkpt><trkpt lat="45.7014407" lon="11.3804365"><ele>171.0</ele><time>2026-04-19T10:13:34.036Z</time></trkpt><trkpt lat="45.7013259" lon="11.3805446"><ele>171.0</ele><time>2026-04-19T10:13:35.055Z</time></trkpt><trkpt lat="45.7012152" lon="11.3806633"><ele>171.0</ele><time>2026-04-19T10:13:36.039Z</time></trkpt><trkpt lat="45.7011007" lon="11.380777"><ele>171.0</ele><time>2026-04-19T10:13:37.049Z</time></trkpt><trkpt lat="45.700992" lon="11.3808956"><ele>171.0</ele><time>2026-04-19T10:13:38.032Z</time></trkpt><trkpt lat="45.7008817" lon="11.3810054"><ele>171.0</ele><time>2026-04-19T10:13:39.065Z</time></trkpt><trkpt lat="45.7007739" lon="11.3811276"><ele>171.0</ele><time>2026-04-19T10:13:40.047Z</time></trkpt><trkpt lat="45.7006606" lon="11.3812466"><ele>171.0</ele><time>2026-04-19T10:13:41.06Z</time></trkpt><trkpt lat="45.7005435" lon="11.3813619"><ele>170.75</ele><time>2026-04-19T10:13:42.04Z</time></trkpt><trkpt lat="45.7004261" lon="11.3814762"><ele>170.5</ele><time>2026-04-19T10:13:43.057Z</time></trkpt><trkpt lat="45.7003119" lon="11.3815907"><ele>170.25</ele><time>2026-04-19T10:13:44.035Z</time></trkpt><trkpt lat="45.7001964" lon="11.3817025"><ele>170.0</ele><time>2026-04-19T10:13:45.041Z</time></trkpt><trkpt lat="45.70008" lon="11.3818186"><ele>170.0</ele><time>2026-04-19T10:13:46.041Z</time></trkpt><trkpt lat="45.6999625" lon="11.3819377"><ele>170.0</ele><time>2026-04-19T10:13:47.055Z</time></trkpt><trkpt lat="45.699842" lon="11.3820513"><ele>170.0</ele><time>2026-04-19T10:13:48.045Z</time></trkpt><trkpt lat="45.6997261" lon="11.3821731"><ele>170.0</ele><time>2026-04-19T10:13:49.044Z</time></trkpt><trkpt lat="45.6996132" lon="11.3822954"><ele>169.75</ele><time>2026-04-19T10:13:50.046Z</time></trkpt><trkpt lat="45.6994975" lon="11.3824157"><ele>169.5</ele><time>2026-04-19T10:13:51.034Z</time></trkpt><trkpt lat="45.6993815" lon="11.3825399"><ele>169.25</ele><time>2026-04-19T10:13:52.038Z</time></trkpt><trkpt lat="45.699261" lon="11.382665"><ele>169.0</ele><time>2026-04-19T10:13:53.049Z</time></trkpt><trkpt lat="45.6991414" lon="11.3827974"><ele>168.66666666666669</ele><time>2026-04-19T10:13:54.041Z</time></trkpt><trkpt lat="45.6990174" lon="11.382928"><ele>168.33333333333334</ele><time>2026-04-19T10:13:55.054Z</time></trkpt><trkpt lat="45.6988904" lon="11.3830626"><ele>168.0</ele><time>2026-04-19T10:13:56.042Z</time></trkpt><trkpt lat="45.6987647" lon="11.3832002"><ele>168.0</ele><time>2026-04-19T10:13:57.035Z</time></trkpt><trkpt lat="45.6986387" lon="11.3833328"><ele>168.0</ele><time>2026-04-19T10:13:58.033Z</time></trkpt><trkpt lat="45.6985084" lon="11.3834518"><ele>168.0</ele><time>2026-04-19T10:13:59.044Z</time></trkpt><trkpt lat="45.6983859" lon="11.3835762"><ele>167.5</ele><time>2026-04-19T10:14:00.067Z</time></trkpt><trkpt lat="45.6982636" lon="11.3836952"><ele>167.0</ele><time>2026-04-19T10:14:01.03Z</time></trkpt><trkpt lat="45.6981392" lon="11.3838106"><ele>166.5</ele><time>2026-04-19T10:14:02.054Z</time></trkpt><trkpt lat="45.698019" lon="11.3839324"><ele>166.0</ele><time>2026-04-19T10:14:03.035Z</time></trkpt><trkpt lat="45.6979018" lon="11.3840533"><ele>166.0</ele><time>2026-04-19T10:14:04.041Z</time></trkpt><trkpt lat="45.6977828" lon="11.3841622"><ele>166.0</ele><time>2026-04-19T10:14:05.038Z</time></trkpt><trkpt lat="45.6976804" lon="11.3842951"><ele>166.0</ele><time>2026-04-19T10:14:06.044Z</time></trkpt><trkpt lat="45.6975704" lon="11.3844049"><ele>166.0</ele><time>2026-04-19T10:14:07.057Z</time></trkpt><trkpt lat="45.6974666" lon="11.3845198"><ele>165.75</ele><time>2026-04-19T10:14:08.047Z</time></trkpt><trkpt lat="45.697359" lon="11.3846267"><ele>165.5</ele><time>2026-04-19T10:14:09.029Z</time></trkpt><trkpt lat="45.697245" lon="11.3847305"><ele>165.25</ele><time>2026-04-19T10:14:10.037Z</time></trkpt><trkpt lat="45.6971164" lon="11.3848188"><ele>165.0</ele><time>2026-04-19T10:14:11.044Z</time></trkpt><trkpt lat="45.696978" lon="11.3849017"><ele>164.33333333333334</ele><time>2026-04-19T10:14:12.039Z</time></trkpt><trkpt lat="45.6968392" lon="11.3849901"><ele>163.66666666666669</ele><time>2026-04-19T10:14:13.045Z</time></trkpt><trkpt lat="45.6967001" lon="11.3850695"><ele>163.0</ele><time>2026-04-19T10:14:14.05Z</time></trkpt><trkpt lat="45.6965658" lon="11.3851592"><ele>163.0</ele><time>2026-04-19T10:14:15.038Z</time></trkpt><trkpt lat="45.6964345" lon="11.3852639"><ele>163.0</ele><time>2026-04-19T10:14:16.051Z</time></trkpt><trkpt lat="45.6963018" lon="11.3853824"><ele>163.0</ele><time>2026-04-19T10:14:17.063Z</time></trkpt><trkpt lat="45.6961748" lon="11.3855283"><ele>162.66666666666669</ele><time>2026-04-19T10:14:18.039Z</time></trkpt><trkpt lat="45.6960442" lon="11.3856852"><ele>162.33333333333334</ele><time>2026-04-19T10:14:19.047Z</time></trkpt><trkpt lat="45.6959126" lon="11.3858526"><ele>162.0</ele><time>2026-04-19T10:14:20.044Z</time></trkpt><trkpt lat="45.6957788" lon="11.3860196"><ele>162.0</ele><time>2026-04-19T10:14:21.048Z</time></trkpt><trkpt lat="45.6956461" lon="11.3861901"><ele>162.0</ele><time>2026-04-19T10:14:22.045Z</time></trkpt><trkpt lat="45.6955128" lon="11.3863579"><ele>162.0</ele><time>2026-04-19T10:14:23.035Z</time></trkpt><trkpt lat="45.6953811" lon="11.3865259"><ele>160.33333333333334</ele><time>2026-04-19T10:14:24.036Z</time></trkpt><trkpt lat="45.6952476" lon="11.3866924"><ele>158.66666666666669</ele><time>2026-04-19T10:14:25.058Z</time></trkpt><trkpt lat="45.6951138" lon="11.3868604"><ele>157.0</ele><time>2026-04-19T10:14:26.037Z</time></trkpt><trkpt lat="45.6949796" lon="11.3870325"><ele>157.33333333333334</ele><time>2026-04-19T10:14:27.061Z</time></trkpt><trkpt lat="45.6948452" lon="11.3872017"><ele>157.66666666666666</ele><time>2026-04-19T10:14:28.03Z</time></trkpt><trkpt lat="45.6947134" lon="11.3873653"><ele>158.0</ele><time>2026-04-19T10:14:29.038Z</time></trkpt><trkpt lat="45.6945856" lon="11.3875245"><ele>158.0</ele><time>2026-04-19T10:14:30.042Z</time></trkpt><trkpt lat="45.694463" lon="11.3876773"><ele>158.0</ele><time>2026-04-19T10:14:31.036Z</time></trkpt><trkpt lat="45.694341" lon="11.3878279"><ele>158.0</ele><time>2026-04-19T10:14:32.037Z</time></trkpt><trkpt lat="45.6942175" lon="11.3879814"><ele>158.0</ele><time>2026-04-19T10:14:33.054Z</time></trkpt><trkpt lat="45.6940949" lon="11.3881435"><ele>158.0</ele><time>2026-04-19T10:14:34.036Z</time></trkpt><trkpt lat="45.6939701" lon="11.3883108"><ele>158.0</ele><time>2026-04-19T10:14:35.056Z</time></trkpt><trkpt lat="45.693842" lon="11.3884788"><ele>158.0</ele><time>2026-04-19T10:14:36.074Z</time></trkpt><trkpt lat="45.6937087" lon="11.3886471"><ele>158.0</ele><time>2026-04-19T10:14:37.044Z</time></trkpt><trkpt lat="45.693573" lon="11.38882"><ele>158.0</ele><time>2026-04-19T10:14:38.06Z</time></trkpt><trkpt lat="45.6934352" lon="11.3889978"><ele>157.66666666666666</ele><time>2026-04-19T10:14:39.053Z</time></trkpt><trkpt lat="45.6932965" lon="11.3891771"><ele>157.33333333333334</ele><time>2026-04-19T10:14:40.05Z</time></trkpt><trkpt lat="45.6931541" lon="11.3893547"><ele>157.0</ele><time>2026-04-19T10:14:41.04Z</time></trkpt><trkpt lat="45.6930119" lon="11.3895397"><ele>156.66666666666669</ele><time>2026-04-19T10:14:42.041Z</time></trkpt><trkpt lat="45.6928752" lon="11.3897323"><ele>156.33333333333334</ele><time>2026-04-19T10:14:43.066Z</time></trkpt><trkpt lat="45.6927289" lon="11.3899154"><ele>156.0</ele><time>2026-04-19T10:14:44.034Z</time></trkpt><trkpt lat="45.6925785" lon="11.3900955"><ele>155.66666666666666</ele><time>2026-04-19T10:14:45.04Z</time></trkpt><trkpt lat="45.6924371" lon="11.3902803"><ele>155.33333333333331</ele><time>2026-04-19T10:14:46.045Z</time></trkpt><trkpt lat="45.6922938" lon="11.3904532"><ele>155.0</ele><time>2026-04-19T10:14:47.041Z</time></trkpt><trkpt lat="45.692156" lon="11.3906309"><ele>155.0</ele><time>2026-04-19T10:14:48.049Z</time></trkpt><trkpt lat="45.6920196" lon="11.3908064"><ele>155.0</ele><time>2026-04-19T10:14:49.067Z</time></trkpt><trkpt lat="45.6918854" lon="11.3909797"><ele>155.0</ele><time>2026-04-19T10:14:50.043Z</time></trkpt><trkpt lat="45.6917499" lon="11.3911435"><ele>155.0</ele><time>2026-04-19T10:14:51.055Z</time></trkpt><trkpt lat="45.6916229" lon="11.3913076"><ele>155.0</ele><time>2026-04-19T10:14:52.044Z</time></trkpt><trkpt lat="45.6914986" lon="11.3914675"><ele>155.0</ele><time>2026-04-19T10:14:53.072Z</time></trkpt><trkpt lat="45.6913776" lon="11.3916283"><ele>154.66666666666666</ele><time>2026-04-19T10:14:54.042Z</time></trkpt><trkpt lat="45.6912515" lon="11.3917814"><ele>154.33333333333334</ele><time>2026-04-19T10:14:55.035Z</time></trkpt><trkpt lat="45.6911241" lon="11.3919325"><ele>154.0</ele><time>2026-04-19T10:14:56.037Z</time></trkpt><trkpt lat="45.6909997" lon="11.3920853"><ele>153.66666666666669</ele><time>2026-04-19T10:14:57.044Z</time></trkpt><trkpt lat="45.6908767" lon="11.3922368"><ele>153.33333333333334</ele><time>2026-04-19T10:14:58.062Z</time></trkpt><trkpt lat="45.690757" lon="11.3923899"><ele>153.0</ele><time>2026-04-19T10:14:59.046Z</time></trkpt><trkpt lat="45.690639" lon="11.3925429"><ele>153.0</ele><time>2026-04-19T10:15:00.057Z</time></trkpt><trkpt lat="45.6905204" lon="11.3926959"><ele>153.0</ele><time>2026-04-19T10:15:01.038Z</time></trkpt><trkpt lat="45.690406" lon="11.3928514"><ele>153.0</ele><time>2026-04-19T10:15:02.023Z</time></trkpt><trkpt lat="45.6902925" lon="11.3930017"><ele>152.75</ele><time>2026-04-19T10:15:03.059Z</time></trkpt><trkpt lat="45.6901824" lon="11.393151"><ele>152.5</ele><time>2026-04-19T10:15:04.038Z</time></trkpt><trkpt lat="45.6900732" lon="11.3932933"><ele>152.25</ele><time>2026-04-19T10:15:05.038Z</time></trkpt><trkpt lat="45.6899652" lon="11.3934294"><ele>152.0</ele><time>2026-04-19T10:15:06.035Z</time></trkpt><trkpt lat="45.6898672" lon="11.3935655"><ele>152.0</ele><time>2026-04-19T10:15:07.045Z</time></trkpt><trkpt lat="45.6897722" lon="11.3936916"><ele>152.0</ele><time>2026-04-19T10:15:08.062Z</time></trkpt><trkpt lat="45.6896813" lon="11.3938037"><ele>152.0</ele><time>2026-04-19T10:15:09.041Z</time></trkpt><trkpt lat="45.6896023" lon="11.3939073"><ele>152.0</ele><time>2026-04-19T10:15:10.037Z</time></trkpt><trkpt lat="45.689532" lon="11.394"><ele>152.0</ele><time>2026-04-19T10:15:11.045Z</time></trkpt><trkpt lat="45.6894688" lon="11.3940831"><ele>152.0</ele><time>2026-04-19T10:15:12.044Z</time></trkpt><trkpt lat="45.6893992" lon="11.3941562"><ele>152.0</ele><time>2026-04-19T10:15:13.062Z</time></trkpt><trkpt lat="45.6893138" lon="11.3941993"><ele>152.0</ele><time>2026-04-19T10:15:14.067Z</time></trkpt><trkpt lat="45.6892282" lon="11.3942449"><ele>152.0</ele><time>2026-04-19T10:15:15.039Z</time></trkpt><trkpt lat="45.6891416" lon="11.3943157"><ele>151.75</ele><time>2026-04-19T10:15:16.034Z</time></trkpt><trkpt lat="45.6890682" lon="11.3944488"><ele>151.5</ele><time>2026-04-19T10:15:17.036Z</time></trkpt><trkpt lat="45.6890074" lon="11.3946202"><ele>151.25</ele><time>2026-04-19T10:15:18.05Z</time></trkpt><trkpt lat="45.6889147" lon="11.3947924"><ele>151.0</ele><time>2026-04-19T10:15:19.039Z</time></trkpt><trkpt lat="45.6887864" lon="11.3949426"><ele>150.66666666666669</ele><time>2026-04-19T10:15:20.065Z</time></trkpt><trkpt lat="45.6886585" lon="11.3950936"><ele>150.33333333333334</ele><time>2026-04-19T10:15:21.049Z</time></trkpt><trkpt lat="45.6885339" lon="11.3952276"><ele>150.0</ele><time>2026-04-19T10:15:22.054Z</time></trkpt><trkpt lat="45.6884201" lon="11.3953707"><ele>149.33333333333334</ele><time>2026-04-19T10:15:23.042Z</time></trkpt><trkpt lat="45.6883002" lon="11.3955122"><ele>148.66666666666669</ele><time>2026-04-19T10:15:24.037Z</time></trkpt><trkpt lat="45.6881818" lon="11.3956618"><ele>148.0</ele><time>2026-04-19T10:15:25.069Z</time></trkpt><trkpt lat="45.6880632" lon="11.3958135"><ele>148.0</ele><time>2026-04-19T10:15:26.053Z</time></trkpt><trkpt lat="45.6879465" lon="11.3959599"><ele>148.0</ele><time>2026-04-19T10:15:27.038Z</time></trkpt><trkpt lat="45.6878351" lon="11.3960996"><ele>148.0</ele><time>2026-04-19T10:15:28.043Z</time></trkpt><trkpt lat="45.687727" lon="11.3962222"><ele>148.0</ele><time>2026-04-19T10:15:29.059Z</time></trkpt><trkpt lat="45.6876291" lon="11.3963487"><ele>147.5</ele><time>2026-04-19T10:15:30.045Z</time></trkpt><trkpt lat="45.6875313" lon="11.3964714"><ele>147.0</ele><time>2026-04-19T10:15:31.061Z</time></trkpt><trkpt lat="45.6874326" lon="11.3965927"><ele>146.5</ele><time>2026-04-19T10:15:32.038Z</time></trkpt><trkpt lat="45.6873368" lon="11.3967261"><ele>146.0</ele><time>2026-04-19T10:15:33.059Z</time></trkpt><trkpt lat="45.6872298" lon="11.3968478"><ele>146.0</ele><time>2026-04-19T10:15:34.045Z</time></trkpt><trkpt lat="45.6871258" lon="11.3969806"><ele>146.0</ele><time>2026-04-19T10:15:35.055Z</time></trkpt><trkpt lat="45.6870193" lon="11.3971148"><ele>146.0</ele><time>2026-04-19T10:15:36.05Z</time></trkpt><trkpt lat="45.6869115" lon="11.3972556"><ele>146.0</ele><time>2026-04-19T10:15:37.039Z</time></trkpt><trkpt lat="45.6868002" lon="11.3973967"><ele>146.5</ele><time>2026-04-19T10:15:38.044Z</time></trkpt><trkpt lat="45.686687" lon="11.3975357"><ele>147.0</ele><time>2026-04-19T10:15:39.044Z</time></trkpt><trkpt lat="45.6865733" lon="11.3976749"><ele>147.5</ele><time>2026-04-19T10:15:40.043Z</time></trkpt><trkpt lat="45.6864607" lon="11.3978167"><ele>148.0</ele><time>2026-04-19T10:15:41.062Z</time></trkpt><trkpt lat="45.6863461" lon="11.3979531"><ele>148.33333333333334</ele><time>2026-04-19T10:15:42.034Z</time></trkpt><trkpt lat="45.6862312" lon="11.3980916"><ele>148.66666666666666</ele><time>2026-04-19T10:15:43.055Z</time></trkpt><trkpt lat="45.6861121" lon="11.39823"><ele>149.0</ele><time>2026-04-19T10:15:44.033Z</time></trkpt><trkpt lat="45.6859889" lon="11.3983708"><ele>147.66666666666666</ele><time>2026-04-19T10:15:45.049Z</time></trkpt><trkpt lat="45.685855" lon="11.398503"><ele>146.33333333333334</ele><time>2026-04-19T10:15:46.051Z</time></trkpt><trkpt lat="45.6857154" lon="11.3986279"><ele>145.0</ele><time>2026-04-19T10:15:47.036Z</time></trkpt><trkpt lat="45.685576" lon="11.398746"><ele>144.66666666666669</ele><time>2026-04-19T10:15:48.05Z</time></trkpt><trkpt lat="45.6854359" lon="11.3988515"><ele>144.33333333333334</ele><time>2026-04-19T10:15:49.044Z</time></trkpt><trkpt lat="45.6852977" lon="11.3989585"><ele>144.0</ele><time>2026-04-19T10:15:50.047Z</time></trkpt><trkpt lat="45.6851541" lon="11.3990543"><ele>144.0</ele><time>2026-04-19T10:15:51.057Z</time></trkpt><trkpt lat="45.685007" lon="11.3991412"><ele>144.0</ele><time>2026-04-19T10:15:52.059Z</time></trkpt><trkpt lat="45.6848578" lon="11.3992255"><ele>144.0</ele><time>2026-04-19T10:15:53.044Z</time></trkpt><trkpt lat="45.6847034" lon="11.3992961"><ele>144.0</ele><time>2026-04-19T10:15:54.038Z</time></trkpt><trkpt lat="45.6845476" lon="11.3993683"><ele>144.0</ele><time>2026-04-19T10:15:55.034Z</time></trkpt><trkpt lat="45.6843906" lon="11.3994378"><ele>144.0</ele><time>2026-04-19T10:15:56.058Z</time></trkpt><trkpt lat="45.6842342" lon="11.3995061"><ele>143.66666666666666</ele><time>2026-04-19T10:15:57.047Z</time></trkpt><trkpt lat="45.6840793" lon="11.3995776"><ele>143.33333333333331</ele><time>2026-04-19T10:15:58.058Z</time></trkpt><trkpt lat="45.6839243" lon="11.3996479"><ele>143.0</ele><time>2026-04-19T10:15:59.054Z</time></trkpt><trkpt lat="45.6837686" lon="11.3997253"><ele>143.0</ele><time>2026-04-19T10:16:00.065Z</time></trkpt><trkpt lat="45.68361" lon="11.399805"><ele>143.0</ele><time>2026-04-19T10:16:01.05Z</time></trkpt><trkpt lat="45.6834494" lon="11.3998837"><ele>143.0</ele><time>2026-04-19T10:16:02.029Z</time></trkpt><trkpt lat="45.6832884" lon="11.3999546"><ele>142.33333333333331</ele><time>2026-04-19T10:16:03.053Z</time></trkpt><trkpt lat="45.6831324" lon="11.4000295"><ele>141.66666666666666</ele><time>2026-04-19T10:16:04.028Z</time></trkpt><trkpt lat="45.682978" lon="11.4001076"><ele>141.0</ele><time>2026-04-19T10:16:05.049Z</time></trkpt><trkpt lat="45.6828251" lon="11.4001913"><ele>140.33333333333334</ele><time>2026-04-19T10:16:06.04Z</time></trkpt><trkpt lat="45.6826692" lon="11.4002611"><ele>139.66666666666669</ele><time>2026-04-19T10:16:07.056Z</time></trkpt><trkpt lat="45.6825138" lon="11.4003363"><ele>139.0</ele><time>2026-04-19T10:16:08.038Z</time></trkpt><trkpt lat="45.6823575" lon="11.4004133"><ele>139.0</ele><time>2026-04-19T10:16:09.05Z</time></trkpt><trkpt lat="45.6821997" lon="11.4004845"><ele>139.0</ele><time>2026-04-19T10:16:10.055Z</time></trkpt><trkpt lat="45.6820451" lon="11.4005536"><ele>139.0</ele><time>2026-04-19T10:16:11.059Z</time></trkpt><trkpt lat="45.6818951" lon="11.4006316"><ele>139.0</ele><time>2026-04-19T10:16:12.033Z</time></trkpt><trkpt lat="45.6817431" lon="11.4006991"><ele>139.0</ele><time>2026-04-19T10:16:13.051Z</time></trkpt><trkpt lat="45.6815931" lon="11.4007696"><ele>139.0</ele><time>2026-04-19T10:16:14.06Z</time></trkpt><trkpt lat="45.681445" lon="11.4008429"><ele>139.0</ele><time>2026-04-19T10:16:15.063Z</time></trkpt><trkpt lat="45.6812934" lon="11.4009099"><ele>139.0</ele><time>2026-04-19T10:16:16.049Z</time></trkpt><trkpt lat="45.6811398" lon="11.4009834"><ele>139.0</ele><time>2026-04-19T10:16:17.043Z</time></trkpt><trkpt lat="45.6809832" lon="11.4010552"><ele>138.66666666666669</ele><time>2026-04-19T10:16:18.056Z</time></trkpt><trkpt lat="45.6808227" lon="11.4011196"><ele>138.33333333333334</ele><time>2026-04-19T10:16:19.057Z</time></trkpt><trkpt lat="45.6806622" lon="11.4011938"><ele>138.0</ele><time>2026-04-19T10:16:20.055Z</time></trkpt><trkpt lat="45.6805044" lon="11.4012659"><ele>138.0</ele><time>2026-04-19T10:16:21.045Z</time></trkpt><trkpt lat="45.6803516" lon="11.4013356"><ele>138.0</ele><time>2026-04-19T10:16:22.045Z</time></trkpt><trkpt lat="45.6802012" lon="11.4013988"><ele>138.0</ele><time>2026-04-19T10:16:23.041Z</time></trkpt><trkpt lat="45.6800523" lon="11.4014595"><ele>137.66666666666666</ele><time>2026-04-19T10:16:24.038Z</time></trkpt><trkpt lat="45.6799052" lon="11.4015245"><ele>137.33333333333331</ele><time>2026-04-19T10:16:25.045Z</time></trkpt><trkpt lat="45.6797611" lon="11.4015964"><ele>137.0</ele><time>2026-04-19T10:16:26.057Z</time></trkpt><trkpt lat="45.67962" lon="11.4016625"><ele>137.0</ele><time>2026-04-19T10:16:27.05Z</time></trkpt><trkpt lat="45.6794837" lon="11.4017313"><ele>137.0</ele><time>2026-04-19T10:16:28.042Z</time></trkpt><trkpt lat="45.6793505" lon="11.4017981"><ele>137.0</ele><time>2026-04-19T10:16:29.047Z</time></trkpt><trkpt lat="45.6792188" lon="11.4018673"><ele>137.0</ele><time>2026-04-19T10:16:30.034Z</time></trkpt><trkpt lat="45.679085" lon="11.4019349"><ele>136.5</ele><time>2026-04-19T10:16:31.055Z</time></trkpt><trkpt lat="45.6789496" lon="11.4020026"><ele>136.0</ele><time>2026-04-19T10:16:32.038Z</time></trkpt><trkpt lat="45.6788136" lon="11.4020714"><ele>135.5</ele><time>2026-04-19T10:16:33.045Z</time></trkpt><trkpt lat="45.6786756" lon="11.4021333"><ele>135.0</ele><time>2026-04-19T10:16:34.044Z</time></trkpt><trkpt lat="45.6785383" lon="11.4021944"><ele>134.25</ele><time>2026-04-19T10:16:35.071Z</time></trkpt><trkpt lat="45.678404" lon="11.4022564"><ele>133.5</ele><time>2026-04-19T10:16:36.047Z</time></trkpt><trkpt lat="45.6782733" lon="11.4023179"><ele>132.75</ele><time>2026-04-19T10:16:37.057Z</time></trkpt><trkpt lat="45.678149" lon="11.4023777"><ele>132.0</ele><time>2026-04-19T10:16:38.058Z</time></trkpt><trkpt lat="45.6780344" lon="11.4024323"><ele>132.0</ele><time>2026-04-19T10:16:39.036Z</time></trkpt><trkpt lat="45.6779306" lon="11.4024826"><ele>132.0</ele><time>2026-04-19T10:16:40.043Z</time></trkpt><trkpt lat="45.6778353" lon="11.4025251"><ele>132.0</ele><time>2026-04-19T10:16:41.04Z</time></trkpt><trkpt lat="45.6777453" lon="11.4025548"><ele>132.0</ele><time>2026-04-19T10:16:42.034Z</time></trkpt><trkpt lat="45.6776489" lon="11.4025675"><ele>132.0</ele><time>2026-04-19T10:16:43.056Z</time></trkpt><trkpt lat="45.6775421" lon="11.4025689"><ele>132.25</ele><time>2026-04-19T10:16:44.035Z</time></trkpt><trkpt lat="45.6774283" lon="11.4025793"><ele>132.5</ele><time>2026-04-19T10:16:45.05Z</time></trkpt><trkpt lat="45.6773126" lon="11.4026319"><ele>132.75</ele><time>2026-04-19T10:16:46.039Z</time></trkpt><trkpt lat="45.6772023" lon="11.4027398"><ele>133.0</ele><time>2026-04-19T10:16:47.049Z</time></trkpt><trkpt lat="45.6770826" lon="11.4028569"><ele>133.0</ele><time>2026-04-19T10:16:48.05Z</time></trkpt><trkpt lat="45.6769442" lon="11.4029547"><ele>133.0</ele><time>2026-04-19T10:16:49.053Z</time></trkpt><trkpt lat="45.6767942" lon="11.4030322"><ele>133.0</ele><time>2026-04-19T10:16:50.038Z</time></trkpt><trkpt lat="45.6766379" lon="11.4031016"><ele>132.66666666666669</ele><time>2026-04-19T10:16:51.048Z</time></trkpt><trkpt lat="45.6764805" lon="11.4031734"><ele>132.33333333333334</ele><time>2026-04-19T10:16:52.044Z</time></trkpt><trkpt lat="45.6763246" lon="11.4032505"><ele>132.0</ele><time>2026-04-19T10:16:53.05Z</time></trkpt><trkpt lat="45.6761646" lon="11.4033242"><ele>132.33333333333334</ele><time>2026-04-19T10:16:54.051Z</time></trkpt><trkpt lat="45.6760002" lon="11.4033974"><ele>132.66666666666669</ele><time>2026-04-19T10:16:55.032Z</time></trkpt><trkpt lat="45.6758348" lon="11.4034717"><ele>133.0</ele><time>2026-04-19T10:16:56.049Z</time></trkpt><trkpt lat="45.6756724" lon="11.4035459"><ele>133.0</ele><time>2026-04-19T10:16:57.067Z</time></trkpt><trkpt lat="45.6755119" lon="11.403619"><ele>133.0</ele><time>2026-04-19T10:16:58.06Z</time></trkpt><trkpt lat="45.675351" lon="11.4036957"><ele>133.0</ele><time>2026-04-19T10:16:59.041Z</time></trkpt><trkpt lat="45.6751887" lon="11.4037717"><ele>131.66666666666669</ele><time>2026-04-19T10:17:00.053Z</time></trkpt><trkpt lat="45.6750243" lon="11.4038463"><ele>130.33333333333334</ele><time>2026-04-19T10:17:01.061Z</time></trkpt><trkpt lat="45.674857" lon="11.4039218"><ele>129.0</ele><time>2026-04-19T10:17:02.039Z</time></trkpt><trkpt lat="45.6746897" lon="11.4040028"><ele>129.0</ele><time>2026-04-19T10:17:03.048Z</time></trkpt><trkpt lat="45.674523" lon="11.4040796"><ele>129.0</ele><time>2026-04-19T10:17:04.054Z</time></trkpt><trkpt lat="45.6743586" lon="11.4041516"><ele>129.0</ele><time>2026-04-19T10:17:05.038Z</time></trkpt><trkpt lat="45.6741967" lon="11.4042241"><ele>129.0</ele><time>2026-04-19T10:17:06.045Z</time></trkpt><trkpt lat="45.6740374" lon="11.4042961"><ele>129.0</ele><time>2026-04-19T10:17:07.054Z</time></trkpt><trkpt lat="45.6738824" lon="11.4043693"><ele>129.0</ele><time>2026-04-19T10:17:08.039Z</time></trkpt><trkpt lat="45.6737305" lon="11.4044414"><ele>128.33333333333334</ele><time>2026-04-19T10:17:09.04Z</time></trkpt><trkpt lat="45.6735817" lon="11.4045099"><ele>127.66666666666667</ele><time>2026-04-19T10:17:10.039Z</time></trkpt><trkpt lat="45.6734355" lon="11.4045758"><ele>127.0</ele><time>2026-04-19T10:17:11.043Z</time></trkpt><trkpt lat="45.6732905" lon="11.404644"><ele>126.66666666666667</ele><time>2026-04-19T10:17:12.058Z</time></trkpt><trkpt lat="45.6731448" lon="11.4047089"><ele>126.33333333333334</ele><time>2026-04-19T10:17:13.069Z</time></trkpt><trkpt lat="45.6729969" lon="11.4047637"><ele>126.0</ele><time>2026-04-19T10:17:14.062Z</time></trkpt><trkpt lat="45.6728483" lon="11.4048146"><ele>126.33333333333334</ele><time>2026-04-19T10:17:15.044Z</time></trkpt><trkpt lat="45.6726973" lon="11.4048658"><ele>126.66666666666667</ele><time>2026-04-19T10:17:16.027Z</time></trkpt><trkpt lat="45.6725387" lon="11.4049095"><ele>127.0</ele><time>2026-04-19T10:17:17.045Z</time></trkpt><trkpt lat="45.6723764" lon="11.4049588"><ele>127.0</ele><time>2026-04-19T10:17:18.043Z</time></trkpt><trkpt lat="45.6722121" lon="11.4050105"><ele>127.0</ele><time>2026-04-19T10:17:19.06Z</time></trkpt><trkpt lat="45.6720471" lon="11.4050557"><ele>127.0</ele><time>2026-04-19T10:17:20.048Z</time></trkpt><trkpt lat="45.6718859" lon="11.405099"><ele>126.66666666666667</ele><time>2026-04-19T10:17:21.051Z</time></trkpt><trkpt lat="45.6717272" lon="11.4051435"><ele>126.33333333333334</ele><time>2026-04-19T10:17:22.044Z</time></trkpt><trkpt lat="45.6715694" lon="11.4051853"><ele>126.0</ele><time>2026-04-19T10:17:23.048Z</time></trkpt><trkpt lat="45.6714135" lon="11.4052266"><ele>126.0</ele><time>2026-04-19T10:17:24.051Z</time></trkpt><trkpt lat="45.6712576" lon="11.4052659"><ele>126.0</ele><time>2026-04-19T10:17:25.041Z</time></trkpt><trkpt lat="45.6711023" lon="11.4053174"><ele>126.0</ele><time>2026-04-19T10:17:26.041Z</time></trkpt><trkpt lat="45.6709441" lon="11.4053585"><ele>126.0</ele><time>2026-04-19T10:17:27.05Z</time></trkpt><trkpt lat="45.6707862" lon="11.4053936"><ele>126.0</ele><time>2026-04-19T10:17:28.054Z</time></trkpt><trkpt lat="45.6706324" lon="11.4054416"><ele>126.0</ele><time>2026-04-19T10:17:29.069Z</time></trkpt><trkpt lat="45.6704794" lon="11.4054897"><ele>126.0</ele><time>2026-04-19T10:17:30.048Z</time></trkpt><trkpt lat="45.6703263" lon="11.4055438"><ele>126.0</ele><time>2026-04-19T10:17:31.04Z</time></trkpt><trkpt lat="45.6701713" lon="11.4055903"><ele>126.0</ele><time>2026-04-19T10:17:32.048Z</time></trkpt><trkpt lat="45.6700173" lon="11.4056389"><ele>125.33333333333334</ele><time>2026-04-19T10:17:33.064Z</time></trkpt><trkpt lat="45.6698648" lon="11.405682"><ele>124.66666666666667</ele><time>2026-04-19T10:17:34.05Z</time></trkpt><trkpt lat="45.6697161" lon="11.4057184"><ele>124.0</ele><time>2026-04-19T10:17:35.061Z</time></trkpt><trkpt lat="45.6695719" lon="11.4057593"><ele>124.0</ele><time>2026-04-19T10:17:36.046Z</time></trkpt><trkpt lat="45.6694287" lon="11.4058069"><ele>124.0</ele><time>2026-04-19T10:17:37.059Z</time></trkpt><trkpt lat="45.6692836" lon="11.4058599"><ele>124.0</ele><time>2026-04-19T10:17:38.04Z</time></trkpt><trkpt lat="45.6691336" lon="11.4059045"><ele>124.0</ele><time>2026-04-19T10:17:39.074Z</time></trkpt><trkpt lat="45.6689805" lon="11.4059453"><ele>124.0</ele><time>2026-04-19T10:17:40.06Z</time></trkpt><trkpt lat="45.6688262" lon="11.4059922"><ele>124.0</ele><time>2026-04-19T10:17:41.049Z</time></trkpt><trkpt lat="45.6686685" lon="11.4060408"><ele>124.0</ele><time>2026-04-19T10:17:42.046Z</time></trkpt><trkpt lat="45.668506" lon="11.4060912"><ele>124.0</ele><time>2026-04-19T10:17:43.054Z</time></trkpt><trkpt lat="45.6683403" lon="11.4061422"><ele>124.0</ele><time>2026-04-19T10:17:44.054Z</time></trkpt><trkpt lat="45.6681735" lon="11.4061792"><ele>124.0</ele><time>2026-04-19T10:17:45.056Z</time></trkpt><trkpt lat="45.6680115" lon="11.4062159"><ele>124.0</ele><time>2026-04-19T10:17:46.056Z</time></trkpt><trkpt lat="45.6678535" lon="11.4062645"><ele>124.0</ele><time>2026-04-19T10:17:47.064Z</time></trkpt><trkpt lat="45.6676928" lon="11.406301"><ele>123.33333333333334</ele><time>2026-04-19T10:17:48.039Z</time></trkpt><trkpt lat="45.6675353" lon="11.4063405"><ele>122.66666666666666</ele><time>2026-04-19T10:17:49.064Z</time></trkpt><trkpt lat="45.6673827" lon="11.4063859"><ele>122.0</ele><time>2026-04-19T10:17:50.04Z</time></trkpt><trkpt lat="45.6672327" lon="11.4064274"><ele>122.0</ele><time>2026-04-19T10:17:51.054Z</time></trkpt><trkpt lat="45.6670853" lon="11.4064668"><ele>122.0</ele><time>2026-04-19T10:17:52.055Z</time></trkpt><trkpt lat="45.6669432" lon="11.4065129"><ele>122.0</ele><time>2026-04-19T10:17:53.066Z</time></trkpt><trkpt lat="45.6668085" lon="11.4065569"><ele>122.0</ele><time>2026-04-19T10:17:54.049Z</time></trkpt><trkpt lat="45.6666837" lon="11.4065892"><ele>122.16666666666666</ele><time>2026-04-19T10:17:55.058Z</time></trkpt><trkpt lat="45.6665825" lon="11.4066238"><ele>122.33333333333333</ele><time>2026-04-19T10:17:56.035Z</time></trkpt><trkpt lat="45.6664979" lon="11.4066343"><ele>122.5</ele><time>2026-04-19T10:17:57.057Z</time></trkpt><trkpt lat="45.6664302" lon="11.4066448"><ele>122.66666666666666</ele><time>2026-04-19T10:17:58.07Z</time></trkpt><trkpt lat="45.6663678" lon="11.4066672"><ele>122.83333333333333</ele><time>2026-04-19T10:17:59.045Z</time></trkpt><trkpt lat="45.6662896" lon="11.406638"><ele>123.0</ele><time>2026-04-19T10:18:00.043Z</time></trkpt><trkpt lat="45.6662052" lon="11.4065919"><ele>123.0</ele><time>2026-04-19T10:18:01.034Z</time></trkpt><trkpt lat="45.6661137" lon="11.4065637"><ele>123.00000000000001</ele><time>2026-04-19T10:18:02.037Z</time></trkpt><trkpt lat="45.6660189" lon="11.4065834"><ele>123.00000000000001</ele><time>2026-04-19T10:18:03.065Z</time></trkpt><trkpt lat="45.6659242" lon="11.4066387"><ele>123.0</ele><time>2026-04-19T10:18:04.034Z</time></trkpt><trkpt lat="45.6658444" lon="11.4067539"><ele>123.0</ele><time>2026-04-19T10:18:05.063Z</time></trkpt><trkpt lat="45.6657791" lon="11.406901"><ele>122.5</ele><time>2026-04-19T10:18:06.046Z</time></trkpt><trkpt lat="45.6657047" lon="11.4070512"><ele>122.0</ele><time>2026-04-19T10:18:07.046Z</time></trkpt><trkpt lat="45.6656082" lon="11.4071845"><ele>121.5</ele><time>2026-04-19T10:18:08.03Z</time></trkpt><trkpt lat="45.6654913" lon="11.4073065"><ele>121.0</ele><time>2026-04-19T10:18:09.055Z</time></trkpt><trkpt lat="45.6653607" lon="11.4074147"><ele>120.33333333333334</ele><time>2026-04-19T10:18:10.033Z</time></trkpt><trkpt lat="45.6652252" lon="11.4075297"><ele>119.66666666666666</ele><time>2026-04-19T10:18:11.04Z</time></trkpt><trkpt lat="45.6650855" lon="11.4076517"><ele>119.0</ele><time>2026-04-19T10:18:12.042Z</time></trkpt><trkpt lat="45.6649487" lon="11.4077876"><ele>119.0</ele><time>2026-04-19T10:18:13.042Z</time></trkpt><trkpt lat="45.6648094" lon="11.4079266"><ele>119.0</ele><time>2026-04-19T10:18:14.049Z</time></trkpt><trkpt lat="45.6646666" lon="11.4080626"><ele>119.0</ele><time>2026-04-19T10:18:15.05Z</time></trkpt><trkpt lat="45.6645273" lon="11.4082098"><ele>119.0</ele><time>2026-04-19T10:18:16.06Z</time></trkpt><trkpt lat="45.6643932" lon="11.4083583"><ele>119.0</ele><time>2026-04-19T10:18:17.057Z</time></trkpt><trkpt lat="45.6642649" lon="11.4085038"><ele>119.0</ele><time>2026-04-19T10:18:18.05Z</time></trkpt><trkpt lat="45.664138" lon="11.4086451"><ele>119.0</ele><time>2026-04-19T10:18:19.065Z</time></trkpt><trkpt lat="45.6640086" lon="11.4087722"><ele>119.0</ele><time>2026-04-19T10:18:20.056Z</time></trkpt><trkpt lat="45.6638834" lon="11.4088989"><ele>119.0</ele><time>2026-04-19T10:18:21.059Z</time></trkpt><trkpt lat="45.6637624" lon="11.4090247"><ele>119.5</ele><time>2026-04-19T10:18:22.051Z</time></trkpt><trkpt lat="45.6636411" lon="11.4091431"><ele>120.0</ele><time>2026-04-19T10:18:23.058Z</time></trkpt><trkpt lat="45.6635256" lon="11.4092649"><ele>120.5</ele><time>2026-04-19T10:18:24.037Z</time></trkpt><trkpt lat="45.6634143" lon="11.4093884"><ele>121.0</ele><time>2026-04-19T10:18:25.045Z</time></trkpt><trkpt lat="45.6633031" lon="11.4095065"><ele>120.0</ele><time>2026-04-19T10:18:26.037Z</time></trkpt><trkpt lat="45.6631902" lon="11.4096147"><ele>119.0</ele><time>2026-04-19T10:18:27.062Z</time></trkpt><trkpt lat="45.6630792" lon="11.4097203"><ele>118.0</ele><time>2026-04-19T10:18:28.045Z</time></trkpt><trkpt lat="45.6629692" lon="11.409824"><ele>117.0</ele><time>2026-04-19T10:18:29.075Z</time></trkpt><trkpt lat="45.662863" lon="11.4099318"><ele>116.25</ele><time>2026-04-19T10:18:30.051Z</time></trkpt><trkpt lat="45.6627543" lon="11.4100324"><ele>115.5</ele><time>2026-04-19T10:18:31.04Z</time></trkpt><trkpt lat="45.6626445" lon="11.410132"><ele>114.75</ele><time>2026-04-19T10:18:32.042Z</time></trkpt><trkpt lat="45.6625367" lon="11.4102305"><ele>114.0</ele><time>2026-04-19T10:18:33.047Z</time></trkpt><trkpt lat="45.6624338" lon="11.4103326"><ele>114.0</ele><time>2026-04-19T10:18:34.044Z</time></trkpt><trkpt lat="45.6623343" lon="11.4104362"><ele>114.0</ele><time>2026-04-19T10:18:35.042Z</time></trkpt><trkpt lat="45.6622288" lon="11.4105212"><ele>114.0</ele><time>2026-04-19T10:18:36.057Z</time></trkpt><trkpt lat="45.6621268" lon="11.4106196"><ele>114.0</ele><time>2026-04-19T10:18:37.047Z</time></trkpt><trkpt lat="45.6620235" lon="11.4107228"><ele>113.75</ele><time>2026-04-19T10:18:38.073Z</time></trkpt><trkpt lat="45.6619177" lon="11.4108259"><ele>113.5</ele><time>2026-04-19T10:18:39.051Z</time></trkpt><trkpt lat="45.6618029" lon="11.4109133"><ele>113.25</ele><time>2026-04-19T10:18:40.044Z</time></trkpt><trkpt lat="45.6616907" lon="11.4110173"><ele>113.0</ele><time>2026-04-19T10:18:41.053Z</time></trkpt><trkpt lat="45.6615786" lon="11.4111364"><ele>113.0</ele><time>2026-04-19T10:18:42.028Z</time></trkpt><trkpt lat="45.661464" lon="11.411262"><ele>113.0</ele><time>2026-04-19T10:18:43.056Z</time></trkpt><trkpt lat="45.6613449" lon="11.411387"><ele>113.0</ele><time>2026-04-19T10:18:44.042Z</time></trkpt><trkpt lat="45.6612239" lon="11.4115105"><ele>113.0</ele><time>2026-04-19T10:18:45.039Z</time></trkpt><trkpt lat="45.6610971" lon="11.4116226"><ele>113.0</ele><time>2026-04-19T10:18:46.045Z</time></trkpt><trkpt lat="45.6609704" lon="11.4117441"><ele>113.0</ele><time>2026-04-19T10:18:47.054Z</time></trkpt><trkpt lat="45.6608364" lon="11.4118598"><ele>113.0</ele><time>2026-04-19T10:18:48.035Z</time></trkpt><trkpt lat="45.6607073" lon="11.4119946"><ele>113.0</ele><time>2026-04-19T10:18:49.037Z</time></trkpt><trkpt lat="45.6605736" lon="11.4121308"><ele>113.0</ele><time>2026-04-19T10:18:50.043Z</time></trkpt><trkpt lat="45.6604451" lon="11.4122812"><ele>113.0</ele><time>2026-04-19T10:18:51.055Z</time></trkpt><trkpt lat="45.6603114" lon="11.4124217"><ele>112.66666666666666</ele><time>2026-04-19T10:18:52.072Z</time></trkpt><trkpt lat="45.6601739" lon="11.4125462"><ele>112.33333333333334</ele><time>2026-04-19T10:18:53.058Z</time></trkpt><trkpt lat="45.6600425" lon="11.4126756"><ele>112.0</ele><time>2026-04-19T10:18:54.065Z</time></trkpt><trkpt lat="45.6599157" lon="11.4128053"><ele>112.0</ele><time>2026-04-19T10:18:55.051Z</time></trkpt><trkpt lat="45.6597952" lon="11.4129368"><ele>112.0</ele><time>2026-04-19T10:18:56.05Z</time></trkpt><trkpt lat="45.6596729" lon="11.4130563"><ele>112.0</ele><time>2026-04-19T10:18:57.049Z</time></trkpt><trkpt lat="45.6595574" lon="11.4131807"><ele>112.0</ele><time>2026-04-19T10:18:58.047Z</time></trkpt><trkpt lat="45.6594503" lon="11.4133135"><ele>111.5</ele><time>2026-04-19T10:18:59.055Z</time></trkpt><trkpt lat="45.6593394" lon="11.4134382"><ele>111.0</ele><time>2026-04-19T10:19:00.072Z</time></trkpt><trkpt lat="45.6592195" lon="11.413552"><ele>110.5</ele><time>2026-04-19T10:19:01.052Z</time></trkpt><trkpt lat="45.6590976" lon="11.4136663"><ele>110.0</ele><time>2026-04-19T10:19:02.04Z</time></trkpt><trkpt lat="45.658972" lon="11.4137687"><ele>110.25</ele><time>2026-04-19T10:19:03.058Z</time></trkpt><trkpt lat="45.6588535" lon="11.4138741"><ele>110.5</ele><time>2026-04-19T10:19:04.048Z</time></trkpt><trkpt lat="45.6587484" lon="11.4139879"><ele>110.75</ele><time>2026-04-19T10:19:05.064Z</time></trkpt><trkpt lat="45.6586479" lon="11.4140855"><ele>111.0</ele><time>2026-04-19T10:19:06.068Z</time></trkpt><trkpt lat="45.6585594" lon="11.4141781"><ele>110.6</ele><time>2026-04-19T10:19:07.054Z</time></trkpt><trkpt lat="45.6584898" lon="11.414252"><ele>110.19999999999999</ele><time>2026-04-19T10:19:08.046Z</time></trkpt><trkpt lat="45.6584175" lon="11.4143202"><ele>109.80000000000001</ele><time>2026-04-19T10:19:10.045Z</time></trkpt><trkpt lat="45.6583532" lon="11.4143894"><ele>109.4</ele><time>2026-04-19T10:19:13.06Z</time></trkpt><trkpt lat="45.6582855" lon="11.4144672"><ele>109.0</ele><time>2026-04-19T10:19:16.036Z</time></trkpt><trkpt lat="45.6581503" lon="11.4145103"><ele>109.0</ele><time>2026-04-19T10:19:18.029Z</time></trkpt><trkpt lat="45.6580717" lon="11.4145758"><ele>109.0</ele><time>2026-04-19T10:19:19.043Z</time></trkpt><trkpt lat="45.657996" lon="11.4146717"><ele>109.0</ele><time>2026-04-19T10:19:20.034Z</time></trkpt><trkpt lat="45.6579225" lon="11.4147963"><ele>109.0</ele><time>2026-04-19T10:19:21.058Z</time></trkpt><trkpt lat="45.6578271" lon="11.4149265"><ele>109.0</ele><time>2026-04-19T10:19:22.057Z</time></trkpt><trkpt lat="45.6577187" lon="11.4150509"><ele>108.75</ele><time>2026-04-19T10:19:23.08Z</time></trkpt><trkpt lat="45.6575998" lon="11.4151562"><ele>108.5</ele><time>2026-04-19T10:19:24.051Z</time></trkpt><trkpt lat="45.6574908" lon="11.4152694"><ele>108.25</ele><time>2026-04-19T10:19:25.055Z</time></trkpt><trkpt lat="45.6573891" lon="11.4153846"><ele>108.0</ele><time>2026-04-19T10:19:26.054Z</time></trkpt><trkpt lat="45.6572823" lon="11.4154983"><ele>108.0</ele><time>2026-04-19T10:19:27.051Z</time></trkpt><trkpt lat="45.6571691" lon="11.4156067"><ele>108.0</ele><time>2026-04-19T10:19:28.041Z</time></trkpt><trkpt lat="45.6570573" lon="11.4157267"><ele>108.0</ele><time>2026-04-19T10:19:29.056Z</time></trkpt><trkpt lat="45.6569347" lon="11.4158351"><ele>108.0</ele><time>2026-04-19T10:19:30.055Z</time></trkpt><trkpt lat="45.6568173" lon="11.4159599"><ele>108.0</ele><time>2026-04-19T10:19:31.059Z</time></trkpt><trkpt lat="45.6567023" lon="11.4160851"><ele>108.0</ele><time>2026-04-19T10:19:32.05Z</time></trkpt><trkpt lat="45.6565837" lon="11.41621"><ele>108.0</ele><time>2026-04-19T10:19:33.033Z</time></trkpt><trkpt lat="45.6564602" lon="11.4163315"><ele>108.0</ele><time>2026-04-19T10:19:34.047Z</time></trkpt><trkpt lat="45.6563333" lon="11.4164474"><ele>108.0</ele><time>2026-04-19T10:19:35.052Z</time></trkpt><trkpt lat="45.6562047" lon="11.4165617"><ele>108.0</ele><time>2026-04-19T10:19:36.035Z</time></trkpt><trkpt lat="45.6560714" lon="11.4166703"><ele>108.0</ele><time>2026-04-19T10:19:37.053Z</time></trkpt><trkpt lat="45.6559398" lon="11.4167796"><ele>107.5</ele><time>2026-04-19T10:19:38.053Z</time></trkpt><trkpt lat="45.655809" lon="11.4168787"><ele>107.0</ele><time>2026-04-19T10:19:39.054Z</time></trkpt><trkpt lat="45.6556864" lon="11.4169801"><ele>106.5</ele><time>2026-04-19T10:19:40.058Z</time></trkpt><trkpt lat="45.6555691" lon="11.4170804"><ele>106.0</ele><time>2026-04-19T10:19:41.052Z</time></trkpt><trkpt lat="45.6554537" lon="11.4171796"><ele>105.75</ele><time>2026-04-19T10:19:42.063Z</time></trkpt><trkpt lat="45.6553446" lon="11.4172563"><ele>105.5</ele><time>2026-04-19T10:19:43.076Z</time></trkpt><trkpt lat="45.6552463" lon="11.417331"><ele>105.25</ele><time>2026-04-19T10:19:44.053Z</time></trkpt><trkpt lat="45.6551479" lon="11.4174001"><ele>105.0</ele><time>2026-04-19T10:19:45.056Z</time></trkpt><trkpt lat="45.6550534" lon="11.4174742"><ele>104.8</ele><time>2026-04-19T10:19:46.029Z</time></trkpt><trkpt lat="45.6549594" lon="11.417542"><ele>104.6</ele><time>2026-04-19T10:19:47.048Z</time></trkpt><trkpt lat="45.6548668" lon="11.4176068"><ele>104.4</ele><time>2026-04-19T10:19:48.055Z</time></trkpt><trkpt lat="45.6547784" lon="11.4176696"><ele>104.2</ele><time>2026-04-19T10:19:49.092Z</time></trkpt><trkpt lat="45.6546998" lon="11.4177383"><ele>104.0</ele><time>2026-04-19T10:19:50.077Z</time></trkpt><trkpt lat="45.6546281" lon="11.417771"><ele>104.0</ele><time>2026-04-19T10:19:51.055Z</time></trkpt><trkpt lat="45.6545571" lon="11.417841"><ele>104.0</ele><time>2026-04-19T10:19:53.062Z</time></trkpt><trkpt lat="45.6544483" lon="11.4178971"><ele>104.0</ele><time>2026-04-19T10:20:01.041Z</time></trkpt><trkpt lat="45.6543551" lon="11.4179585"><ele>104.0</ele><time>2026-04-19T10:20:03.059Z</time></trkpt><trkpt lat="45.6542905" lon="11.418002"><ele>104.0</ele><time>2026-04-19T10:20:04.067Z</time></trkpt><trkpt lat="45.6542205" lon="11.4180397"><ele>103.99999999999999</ele><time>2026-04-19T10:20:05.063Z</time></trkpt><trkpt lat="45.6541559" lon="11.418097"><ele>104.0</ele><time>2026-04-19T10:20:06.067Z</time></trkpt><trkpt lat="45.6540849" lon="11.4181373"><ele>104.0</ele><time>2026-04-19T10:20:07.07Z</time></trkpt><trkpt lat="45.6540112" lon="11.4181794"><ele>104.0</ele><time>2026-04-19T10:20:08.06Z</time></trkpt><trkpt lat="45.6539313" lon="11.4182155"><ele>103.99999999999999</ele><time>2026-04-19T10:20:09.059Z</time></trkpt><trkpt lat="45.6538469" lon="11.4182672"><ele>104.0</ele><time>2026-04-19T10:20:10.053Z</time></trkpt><trkpt lat="45.6537623" lon="11.418353"><ele>104.0</ele><time>2026-04-19T10:20:11.065Z</time></trkpt><trkpt lat="45.653664" lon="11.4184287"><ele>104.0</ele><time>2026-04-19T10:20:12.051Z</time></trkpt><trkpt lat="45.6535588" lon="11.4185021"><ele>104.0</ele><time>2026-04-19T10:20:13.06Z</time></trkpt><trkpt lat="45.6534458" lon="11.4185602"><ele>104.0</ele><time>2026-04-19T10:20:14.077Z</time></trkpt><trkpt lat="45.6533345" lon="11.4186317"><ele>103.5</ele><time>2026-04-19T10:20:15.06Z</time></trkpt><trkpt lat="45.6532253" lon="11.418716"><ele>103.0</ele><time>2026-04-19T10:20:16.068Z</time></trkpt><trkpt lat="45.65311" lon="11.4187943"><ele>102.5</ele><time>2026-04-19T10:20:17.079Z</time></trkpt><trkpt lat="45.6529941" lon="11.4188806"><ele>102.0</ele><time>2026-04-19T10:20:18.061Z</time></trkpt><trkpt lat="45.652875" lon="11.4189534"><ele>101.75</ele><time>2026-04-19T10:20:19.081Z</time></trkpt><trkpt lat="45.6527567" lon="11.4190246"><ele>101.5</ele><time>2026-04-19T10:20:20.055Z</time></trkpt><trkpt lat="45.652644" lon="11.4191135"><ele>101.25</ele><time>2026-04-19T10:20:21.076Z</time></trkpt><trkpt lat="45.6525244" lon="11.4191897"><ele>101.0</ele><time>2026-04-19T10:20:22.071Z</time></trkpt><trkpt lat="45.6524031" lon="11.4192692"><ele>101.0</ele><time>2026-04-19T10:20:23.072Z</time></trkpt><trkpt lat="45.6522846" lon="11.4193643"><ele>101.0</ele><time>2026-04-19T10:20:24.066Z</time></trkpt><trkpt lat="45.6521664" lon="11.4194661"><ele>101.0</ele><time>2026-04-19T10:20:25.066Z</time></trkpt><trkpt lat="45.6520532" lon="11.4195821"><ele>101.0</ele><time>2026-04-19T10:20:26.061Z</time></trkpt><trkpt lat="45.6519331" lon="11.4196812"><ele>101.25</ele><time>2026-04-19T10:20:27.066Z</time></trkpt><trkpt lat="45.6518206" lon="11.419791"><ele>101.5</ele><time>2026-04-19T10:20:28.08Z</time></trkpt><trkpt lat="45.6517058" lon="11.4198937"><ele>101.75</ele><time>2026-04-19T10:20:29.095Z</time></trkpt><trkpt lat="45.6515925" lon="11.4200077"><ele>102.0</ele><time>2026-04-19T10:20:30.055Z</time></trkpt><trkpt lat="45.6514765" lon="11.420124"><ele>102.0</ele><time>2026-04-19T10:20:31.062Z</time></trkpt><trkpt lat="45.6513622" lon="11.420239"><ele>102.0</ele><time>2026-04-19T10:20:32.069Z</time></trkpt><trkpt lat="45.6512581" lon="11.4203634"><ele>102.0</ele><time>2026-04-19T10:20:33.067Z</time></trkpt><trkpt lat="45.651158" lon="11.4204758"><ele>102.0</ele><time>2026-04-19T10:20:34.052Z</time></trkpt><trkpt lat="45.6510629" lon="11.4205792"><ele>101.25</ele><time>2026-04-19T10:20:35.053Z</time></trkpt><trkpt lat="45.6509692" lon="11.4206809"><ele>100.5</ele><time>2026-04-19T10:20:36.057Z</time></trkpt><trkpt lat="45.6508776" lon="11.420786"><ele>99.75</ele><time>2026-04-19T10:20:37.075Z</time></trkpt><trkpt lat="45.6507788" lon="11.4208764"><ele>99.0</ele><time>2026-04-19T10:20:38.057Z</time></trkpt><trkpt lat="45.6506819" lon="11.4209691"><ele>99.0</ele><time>2026-04-19T10:20:39.071Z</time></trkpt><trkpt lat="45.6505913" lon="11.4210697"><ele>99.0</ele><time>2026-04-19T10:20:40.051Z</time></trkpt><trkpt lat="45.650501" lon="11.4211647"><ele>99.0</ele><time>2026-04-19T10:20:41.062Z</time></trkpt><trkpt lat="45.6504122" lon="11.421267"><ele>99.0</ele><time>2026-04-19T10:20:42.055Z</time></trkpt><trkpt lat="45.650314" lon="11.4213664"><ele>98.5</ele><time>2026-04-19T10:20:43.052Z</time></trkpt><trkpt lat="45.6502133" lon="11.4214774"><ele>98.0</ele><time>2026-04-19T10:20:44.076Z</time></trkpt><trkpt lat="45.6501048" lon="11.4215838"><ele>97.5</ele><time>2026-04-19T10:20:45.053Z</time></trkpt><trkpt lat="45.6499937" lon="11.421692"><ele>97.0</ele><time>2026-04-19T10:20:46.077Z</time></trkpt><trkpt lat="45.6498793" lon="11.4217974"><ele>97.0</ele><time>2026-04-19T10:20:47.079Z</time></trkpt><trkpt lat="45.6497661" lon="11.421906"><ele>97.0</ele><time>2026-04-19T10:20:48.072Z</time></trkpt><trkpt lat="45.6496531" lon="11.4220167"><ele>97.0</ele><time>2026-04-19T10:20:49.062Z</time></trkpt><trkpt lat="45.6495444" lon="11.4221309"><ele>97.0</ele><time>2026-04-19T10:20:50.069Z</time></trkpt><trkpt lat="45.6494385" lon="11.4222421"><ele>97.25</ele><time>2026-04-19T10:20:51.069Z</time></trkpt><trkpt lat="45.6493347" lon="11.4223542"><ele>97.5</ele><time>2026-04-19T10:20:52.055Z</time></trkpt><trkpt lat="45.6492339" lon="11.4224646"><ele>97.75</ele><time>2026-04-19T10:20:53.052Z</time></trkpt><trkpt lat="45.6491321" lon="11.4225648"><ele>98.0</ele><time>2026-04-19T10:20:54.057Z</time></trkpt><trkpt lat="45.649032" lon="11.4226611"><ele>98.0</ele><time>2026-04-19T10:20:55.061Z</time></trkpt><trkpt lat="45.6489337" lon="11.4227589"><ele>98.0</ele><time>2026-04-19T10:20:56.073Z</time></trkpt><trkpt lat="45.6488342" lon="11.4228564"><ele>98.0</ele><time>2026-04-19T10:20:57.082Z</time></trkpt><trkpt lat="45.6487281" lon="11.422956"><ele>98.0</ele><time>2026-04-19T10:20:58.073Z</time></trkpt><trkpt lat="45.6486119" lon="11.4230607"><ele>96.66666666666666</ele><time>2026-04-19T10:20:59.055Z</time></trkpt><trkpt lat="45.6484891" lon="11.423174"><ele>95.33333333333333</ele><time>2026-04-19T10:21:00.071Z</time></trkpt><trkpt lat="45.6483576" lon="11.4232892"><ele>94.0</ele><time>2026-04-19T10:21:01.062Z</time></trkpt><trkpt lat="45.6482292" lon="11.4234174"><ele>94.0</ele><time>2026-04-19T10:21:02.059Z</time></trkpt><trkpt lat="45.648104" lon="11.4235448"><ele>94.0</ele><time>2026-04-19T10:21:03.078Z</time></trkpt><trkpt lat="45.647985" lon="11.4236751"><ele>94.0</ele><time>2026-04-19T10:21:04.069Z</time></trkpt><trkpt lat="45.6478666" lon="11.4238011"><ele>94.25</ele><time>2026-04-19T10:21:05.06Z</time></trkpt><trkpt lat="45.6477462" lon="11.4239195"><ele>94.5</ele><time>2026-04-19T10:21:06.06Z</time></trkpt><trkpt lat="45.647624" lon="11.4240328"><ele>94.75</ele><time>2026-04-19T10:21:07.054Z</time></trkpt><trkpt lat="45.6475067" lon="11.4241549"><ele>95.0</ele><time>2026-04-19T10:21:08.057Z</time></trkpt><trkpt lat="45.647382" lon="11.4242594"><ele>95.0</ele><time>2026-04-19T10:21:09.06Z</time></trkpt><trkpt lat="45.6472632" lon="11.4243739"><ele>95.0</ele><time>2026-04-19T10:21:10.05Z</time></trkpt><trkpt lat="45.6471413" lon="11.4244704"><ele>95.0</ele><time>2026-04-19T10:21:11.058Z</time></trkpt><trkpt lat="45.6470255" lon="11.4245705"><ele>95.0</ele><time>2026-04-19T10:21:12.068Z</time></trkpt><trkpt lat="45.6469082" lon="11.4246601"><ele>95.25</ele><time>2026-04-19T10:21:13.066Z</time></trkpt><trkpt lat="45.6467971" lon="11.4247565"><ele>95.5</ele><time>2026-04-19T10:21:14.064Z</time></trkpt><trkpt lat="45.6466857" lon="11.4248442"><ele>95.75</ele><time>2026-04-19T10:21:15.073Z</time></trkpt><trkpt lat="45.6465808" lon="11.4249431"><ele>96.0</ele><time>2026-04-19T10:21:16.057Z</time></trkpt><trkpt lat="45.6464737" lon="11.4250273"><ele>96.0</ele><time>2026-04-19T10:21:17.056Z</time></trkpt><trkpt lat="45.6463697" lon="11.4251166"><ele>96.0</ele><time>2026-04-19T10:21:18.066Z</time></trkpt><trkpt lat="45.6462674" lon="11.4252084"><ele>96.0</ele><time>2026-04-19T10:21:19.086Z</time></trkpt><trkpt lat="45.6461728" lon="11.4253121"><ele>96.0</ele><time>2026-04-19T10:21:20.074Z</time></trkpt><trkpt lat="45.6460845" lon="11.4254218"><ele>96.0</ele><time>2026-04-19T10:21:21.06Z</time></trkpt><trkpt lat="45.6460033" lon="11.4255399"><ele>96.0</ele><time>2026-04-19T10:21:22.055Z</time></trkpt><trkpt lat="45.6459284" lon="11.4256671"><ele>96.0</ele><time>2026-04-19T10:21:23.056Z</time></trkpt><trkpt lat="45.6458554" lon="11.4257994"><ele>96.0</ele><time>2026-04-19T10:21:24.05Z</time></trkpt><trkpt lat="45.6457834" lon="11.4259359"><ele>96.0</ele><time>2026-04-19T10:21:25.054Z</time></trkpt><trkpt lat="45.6457148" lon="11.4260782"><ele>96.0</ele><time>2026-04-19T10:21:26.073Z</time></trkpt><trkpt lat="45.6456399" lon="11.426214"><ele>96.0</ele><time>2026-04-19T10:21:27.062Z</time></trkpt><trkpt lat="45.6455697" lon="11.4263498"><ele>96.0</ele><time>2026-04-19T10:21:28.05Z</time></trkpt><trkpt lat="45.6454903" lon="11.4264643"><ele>95.6</ele><time>2026-04-19T10:21:29.049Z</time></trkpt><trkpt lat="45.6454131" lon="11.4265594"><ele>95.19999999999999</ele><time>2026-04-19T10:21:30.052Z</time></trkpt><trkpt lat="45.6453196" lon="11.4266183"><ele>94.80000000000001</ele><time>2026-04-19T10:21:31.055Z</time></trkpt><trkpt lat="45.6452322" lon="11.4266887"><ele>94.4</ele><time>2026-04-19T10:21:32.056Z</time></trkpt><trkpt lat="45.6451447" lon="11.4267456"><ele>94.0</ele><time>2026-04-19T10:21:33.074Z</time></trkpt><trkpt lat="45.6450601" lon="11.4267937"><ele>93.75</ele><time>2026-04-19T10:21:34.073Z</time></trkpt><trkpt lat="45.6449669" lon="11.4268405"><ele>93.5</ele><time>2026-04-19T10:21:35.058Z</time></trkpt><trkpt lat="45.6448466" lon="11.4268227"><ele>93.25</ele><time>2026-04-19T10:21:36.072Z</time></trkpt><trkpt lat="45.6447112" lon="11.4267901"><ele>93.0</ele><time>2026-04-19T10:21:37.062Z</time></trkpt><trkpt lat="45.6445677" lon="11.4267971"><ele>92.5</ele><time>2026-04-19T10:21:38.057Z</time></trkpt><trkpt lat="45.6444246" lon="11.4268504"><ele>92.0</ele><time>2026-04-19T10:21:39.056Z</time></trkpt><trkpt lat="45.6442899" lon="11.4269337"><ele>91.5</ele><time>2026-04-19T10:21:40.061Z</time></trkpt><trkpt lat="45.6441593" lon="11.4270214"><ele>91.0</ele><time>2026-04-19T10:21:41.077Z</time></trkpt><trkpt lat="45.6440262" lon="11.427119"><ele>91.0</ele><time>2026-04-19T10:21:42.068Z</time></trkpt><trkpt lat="45.6438912" lon="11.4272311"><ele>91.0</ele><time>2026-04-19T10:21:43.079Z</time></trkpt><trkpt lat="45.643756" lon="11.4273432"><ele>91.0</ele><time>2026-04-19T10:21:44.053Z</time></trkpt><trkpt lat="45.6436228" lon="11.4274486"><ele>90.66666666666666</ele><time>2026-04-19T10:21:45.061Z</time></trkpt><trkpt lat="45.6434946" lon="11.4275586"><ele>90.33333333333333</ele><time>2026-04-19T10:21:46.062Z</time></trkpt><trkpt lat="45.6433672" lon="11.427672"><ele>90.0</ele><time>2026-04-19T10:21:47.058Z</time></trkpt><trkpt lat="45.6432392" lon="11.4277922"><ele>90.0</ele><time>2026-04-19T10:21:48.069Z</time></trkpt><trkpt lat="45.6431105" lon="11.4279145"><ele>90.0</ele><time>2026-04-19T10:21:49.063Z</time></trkpt><trkpt lat="45.6429906" lon="11.4280524"><ele>90.0</ele><time>2026-04-19T10:21:50.069Z</time></trkpt><trkpt lat="45.6428707" lon="11.4281863"><ele>90.25</ele><time>2026-04-19T10:21:51.086Z</time></trkpt><trkpt lat="45.6427578" lon="11.4283221"><ele>90.5</ele><time>2026-04-19T10:21:52.078Z</time></trkpt><trkpt lat="45.6426608" lon="11.4284695"><ele>90.75</ele><time>2026-04-19T10:21:53.07Z</time></trkpt><trkpt lat="45.6425652" lon="11.4286082"><ele>91.0</ele><time>2026-04-19T10:21:54.069Z</time></trkpt><trkpt lat="45.6424756" lon="11.4287398"><ele>90.75</ele><time>2026-04-19T10:21:55.069Z</time></trkpt><trkpt lat="45.6423879" lon="11.4288612"><ele>90.5</ele><time>2026-04-19T10:21:56.063Z</time></trkpt><trkpt lat="45.6423082" lon="11.4289893"><ele>90.25</ele><time>2026-04-19T10:21:57.059Z</time></trkpt><trkpt lat="45.6422315" lon="11.4291129"><ele>90.0</ele><time>2026-04-19T10:21:58.061Z</time></trkpt><trkpt lat="45.6421553" lon="11.4292299"><ele>90.0</ele><time>2026-04-19T10:21:59.055Z</time></trkpt><trkpt lat="45.642073" lon="11.4293416"><ele>90.0</ele><time>2026-04-19T10:22:00.069Z</time></trkpt><trkpt lat="45.6419907" lon="11.4294584"><ele>90.0</ele><time>2026-04-19T10:22:01.056Z</time></trkpt><trkpt lat="45.6419099" lon="11.4295794"><ele>90.0</ele><time>2026-04-19T10:22:02.063Z</time></trkpt><trkpt lat="45.6418241" lon="11.429695"><ele>89.75</ele><time>2026-04-19T10:22:03.055Z</time></trkpt><trkpt lat="45.6417285" lon="11.4298037"><ele>89.5</ele><time>2026-04-19T10:22:04.059Z</time></trkpt><trkpt lat="45.6416343" lon="11.4299218"><ele>89.25</ele><time>2026-04-19T10:22:05.089Z</time></trkpt><trkpt lat="45.6415341" lon="11.4300346"><ele>89.0</ele><time>2026-04-19T10:22:06.071Z</time></trkpt><trkpt lat="45.6414351" lon="11.4301552"><ele>89.0</ele><time>2026-04-19T10:22:07.062Z</time></trkpt><trkpt lat="45.6413352" lon="11.4302786"><ele>89.0</ele><time>2026-04-19T10:22:08.06Z</time></trkpt><trkpt lat="45.6412325" lon="11.4303972"><ele>89.0</ele><time>2026-04-19T10:22:09.064Z</time></trkpt><trkpt lat="45.6411291" lon="11.4305117"><ele>89.0</ele><time>2026-04-19T10:22:10.054Z</time></trkpt><trkpt lat="45.6410313" lon="11.4306349"><ele>89.0</ele><time>2026-04-19T10:22:11.072Z</time></trkpt><trkpt lat="45.6409284" lon="11.4307554"><ele>89.0</ele><time>2026-04-19T10:22:12.065Z</time></trkpt><trkpt lat="45.6408159" lon="11.4308725"><ele>89.0</ele><time>2026-04-19T10:22:13.065Z</time></trkpt><trkpt lat="45.6407006" lon="11.4310134"><ele>89.0</ele><time>2026-04-19T10:22:14.049Z</time></trkpt><trkpt lat="45.6405747" lon="11.4311685"><ele>88.66666666666667</ele><time>2026-04-19T10:22:15.056Z</time></trkpt><trkpt lat="45.6404422" lon="11.4313317"><ele>88.33333333333333</ele><time>2026-04-19T10:22:16.079Z</time></trkpt><trkpt lat="45.6403044" lon="11.4315019"><ele>88.0</ele><time>2026-04-19T10:22:17.07Z</time></trkpt><trkpt lat="45.6401585" lon="11.4316695"><ele>87.33333333333333</ele><time>2026-04-19T10:22:18.06Z</time></trkpt><trkpt lat="45.6400129" lon="11.4318395"><ele>86.66666666666667</ele><time>2026-04-19T10:22:19.055Z</time></trkpt><trkpt lat="45.6398744" lon="11.4320153"><ele>86.0</ele><time>2026-04-19T10:22:20.058Z</time></trkpt><trkpt lat="45.6397418" lon="11.432203"><ele>86.0</ele><time>2026-04-19T10:22:21.054Z</time></trkpt><trkpt lat="45.6396198" lon="11.4324115"><ele>86.0</ele><time>2026-04-19T10:22:22.055Z</time></trkpt><trkpt lat="45.6394875" lon="11.4326091"><ele>86.0</ele><time>2026-04-19T10:22:23.058Z</time></trkpt><trkpt lat="45.639359" lon="11.4328127"><ele>85.66666666666667</ele><time>2026-04-19T10:22:24.05Z</time></trkpt><trkpt lat="45.6392312" lon="11.4330166"><ele>85.33333333333333</ele><time>2026-04-19T10:22:25.063Z</time></trkpt><trkpt lat="45.6391013" lon="11.4332167"><ele>85.0</ele><time>2026-04-19T10:22:26.043Z</time></trkpt><trkpt lat="45.6389706" lon="11.4334138"><ele>85.0</ele><time>2026-04-19T10:22:27.068Z</time></trkpt><trkpt lat="45.6388463" lon="11.4336132"><ele>85.0</ele><time>2026-04-19T10:22:28.063Z</time></trkpt><trkpt lat="45.6387207" lon="11.4338014"><ele>85.0</ele><time>2026-04-19T10:22:29.058Z</time></trkpt><trkpt lat="45.6386017" lon="11.4339891"><ele>84.66666666666666</ele><time>2026-04-19T10:22:30.058Z</time></trkpt><trkpt lat="45.6384827" lon="11.4341677"><ele>84.33333333333333</ele><time>2026-04-19T10:22:31.066Z</time></trkpt><trkpt lat="45.6383651" lon="11.4343371"><ele>84.0</ele><time>2026-04-19T10:22:32.049Z</time></trkpt><trkpt lat="45.6382492" lon="11.4344958"><ele>84.5</ele><time>2026-04-19T10:22:33.07Z</time></trkpt><trkpt lat="45.6381424" lon="11.4346504"><ele>85.0</ele><time>2026-04-19T10:22:34.064Z</time></trkpt><trkpt lat="45.638043" lon="11.434799"><ele>85.5</ele><time>2026-04-19T10:22:35.054Z</time></trkpt><trkpt lat="45.6379533" lon="11.434928"><ele>86.0</ele><time>2026-04-19T10:22:36.058Z</time></trkpt><trkpt lat="45.6378753" lon="11.4350436"><ele>85.4</ele><time>2026-04-19T10:22:37.058Z</time></trkpt><trkpt lat="45.6377968" lon="11.4351482"><ele>84.8</ele><time>2026-04-19T10:22:38.061Z</time></trkpt><trkpt lat="45.6377199" lon="11.4352452"><ele>84.2</ele><time>2026-04-19T10:22:39.058Z</time></trkpt><trkpt lat="45.6376457" lon="11.4353338"><ele>83.60000000000001</ele><time>2026-04-19T10:22:40.062Z</time></trkpt><trkpt lat="45.6375677" lon="11.4354082"><ele>83.0</ele><time>2026-04-19T10:22:41.055Z</time></trkpt><trkpt lat="45.637494" lon="11.4354849"><ele>82.83333333333334</ele><time>2026-04-19T10:22:42.075Z</time></trkpt><trkpt lat="45.6374225" lon="11.4355678"><ele>82.66666666666667</ele><time>2026-04-19T10:22:43.078Z</time></trkpt><trkpt lat="45.6373613" lon="11.4356525"><ele>82.5</ele><time>2026-04-19T10:22:44.075Z</time></trkpt><trkpt lat="45.6373159" lon="11.4357219"><ele>82.33333333333333</ele><time>2026-04-19T10:22:45.06Z</time></trkpt><trkpt lat="45.6372267" lon="11.4358158"><ele>82.16666666666666</ele><time>2026-04-19T10:22:47.062Z</time></trkpt><trkpt lat="45.6371624" lon="11.4358457"><ele>82.0</ele><time>2026-04-19T10:22:48.076Z</time></trkpt><trkpt lat="45.6370922" lon="11.4358982"><ele>82.0</ele><time>2026-04-19T10:22:49.07Z</time></trkpt><trkpt lat="45.6370099" lon="11.4359707"><ele>82.0</ele><time>2026-04-19T10:22:50.071Z</time></trkpt><trkpt lat="45.6369195" lon="11.4360541"><ele>82.0</ele><time>2026-04-19T10:22:51.054Z</time></trkpt><trkpt lat="45.6368263" lon="11.4361447"><ele>82.0</ele><time>2026-04-19T10:22:52.053Z</time></trkpt><trkpt lat="45.6367237" lon="11.4362269"><ele>82.0</ele><time>2026-04-19T10:22:53.057Z</time></trkpt><trkpt lat="45.6366216" lon="11.4363185"><ele>82.25</ele><time>2026-04-19T10:22:54.06Z</time></trkpt><trkpt lat="45.6365132" lon="11.4364122"><ele>82.5</ele><time>2026-04-19T10:22:55.067Z</time></trkpt><trkpt lat="45.6364022" lon="11.4365152"><ele>82.75</ele><time>2026-04-19T10:22:56.066Z</time></trkpt><trkpt lat="45.636286" lon="11.4366135"><ele>83.0</ele><time>2026-04-19T10:22:57.056Z</time></trkpt><trkpt lat="45.6361723" lon="11.4367144"><ele>83.0</ele><time>2026-04-19T10:22:58.062Z</time></trkpt><trkpt lat="45.6360573" lon="11.4368122"><ele>83.0</ele><time>2026-04-19T10:22:59.077Z</time></trkpt><trkpt lat="45.635938" lon="11.436911"><ele>83.0</ele><time>2026-04-19T10:23:00.09Z</time></trkpt><trkpt lat="45.6358154" lon="11.4370153"><ele>83.0</ele><time>2026-04-19T10:23:01.06Z</time></trkpt><trkpt lat="45.6356918" lon="11.4371174"><ele>83.0</ele><time>2026-04-19T10:23:02.061Z</time></trkpt><trkpt lat="45.6355746" lon="11.4372195"><ele>83.0</ele><time>2026-04-19T10:23:03.057Z</time></trkpt><trkpt lat="45.63546" lon="11.4373174"><ele>83.0</ele><time>2026-04-19T10:23:04.054Z</time></trkpt><trkpt lat="45.6353467" lon="11.4374212"><ele>83.0</ele><time>2026-04-19T10:23:05.051Z</time></trkpt><trkpt lat="45.6352291" lon="11.4375231"><ele>83.0</ele><time>2026-04-19T10:23:06.058Z</time></trkpt><trkpt lat="45.6351027" lon="11.4376162"><ele>83.0</ele><time>2026-04-19T10:23:07.062Z</time></trkpt><trkpt lat="45.6349815" lon="11.4377367"><ele>83.0</ele><time>2026-04-19T10:23:08.064Z</time></trkpt><trkpt lat="45.6348544" lon="11.4378586"><ele>83.0</ele><time>2026-04-19T10:23:09.065Z</time></trkpt><trkpt lat="45.6347198" lon="11.4379718"><ele>83.0</ele><time>2026-04-19T10:23:10.07Z</time></trkpt><trkpt lat="45.6345826" lon="11.4380822"><ele>83.0</ele><time>2026-04-19T10:23:11.073Z</time></trkpt><trkpt lat="45.6344485" lon="11.4382003"><ele>83.0</ele><time>2026-04-19T10:23:12.053Z</time></trkpt><trkpt lat="45.6343145" lon="11.4383156"><ele>82.66666666666667</ele><time>2026-04-19T10:23:13.07Z</time></trkpt><trkpt lat="45.6341784" lon="11.4384256"><ele>82.33333333333333</ele><time>2026-04-19T10:23:14.063Z</time></trkpt><trkpt lat="45.6340449" lon="11.4385405"><ele>82.0</ele><time>2026-04-19T10:23:15.054Z</time></trkpt><trkpt lat="45.6339071" lon="11.4386458"><ele>82.0</ele><time>2026-04-19T10:23:16.064Z</time></trkpt><trkpt lat="45.633767" lon="11.438742"><ele>82.0</ele><time>2026-04-19T10:23:17.059Z</time></trkpt><trkpt lat="45.6336366" lon="11.4388604"><ele>82.0</ele><time>2026-04-19T10:23:18.068Z</time></trkpt><trkpt lat="45.6335007" lon="11.4389676"><ele>81.33333333333333</ele><time>2026-04-19T10:23:19.087Z</time></trkpt><trkpt lat="45.6333674" lon="11.4390842"><ele>80.66666666666667</ele><time>2026-04-19T10:23:20.068Z</time></trkpt><trkpt lat="45.6332322" lon="11.4392014"><ele>80.0</ele><time>2026-04-19T10:23:21.084Z</time></trkpt><trkpt lat="45.6330987" lon="11.4393208"><ele>80.0</ele><time>2026-04-19T10:23:22.073Z</time></trkpt><trkpt lat="45.6329652" lon="11.4394355"><ele>80.0</ele><time>2026-04-19T10:23:23.058Z</time></trkpt><trkpt lat="45.6328311" lon="11.4395522"><ele>80.0</ele><time>2026-04-19T10:23:24.056Z</time></trkpt><trkpt lat="45.6326925" lon="11.4396657"><ele>80.33333333333334</ele><time>2026-04-19T10:23:25.079Z</time></trkpt><trkpt lat="45.6325504" lon="11.4397823"><ele>80.66666666666667</ele><time>2026-04-19T10:23:26.054Z</time></trkpt><trkpt lat="45.6324019" lon="11.4398938"><ele>81.0</ele><time>2026-04-19T10:23:27.055Z</time></trkpt><trkpt lat="45.6322536" lon="11.4400109"><ele>81.0</ele><time>2026-04-19T10:23:28.062Z</time></trkpt><trkpt lat="45.6321072" lon="11.4401336"><ele>81.0</ele><time>2026-04-19T10:23:29.08Z</time></trkpt><trkpt lat="45.6319618" lon="11.4402496"><ele>81.0</ele><time>2026-04-19T10:23:30.06Z</time></trkpt><trkpt lat="45.6318238" lon="11.440374"><ele>80.66666666666667</ele><time>2026-04-19T10:23:31.071Z</time></trkpt><trkpt lat="45.631684" lon="11.4404705"><ele>80.33333333333334</ele><time>2026-04-19T10:23:32.067Z</time></trkpt><trkpt lat="45.6315489" lon="11.4405685"><ele>80.0</ele><time>2026-04-19T10:23:33.068Z</time></trkpt><trkpt lat="45.631419" lon="11.4406674"><ele>80.0</ele><time>2026-04-19T10:23:34.068Z</time></trkpt><trkpt lat="45.6312855" lon="11.4407495"><ele>80.0</ele><time>2026-04-19T10:23:35.051Z</time></trkpt><trkpt lat="45.6311478" lon="11.4408181"><ele>80.0</ele><time>2026-04-19T10:23:36.07Z</time></trkpt><trkpt lat="45.6310086" lon="11.4408852"><ele>80.0</ele><time>2026-04-19T10:23:37.06Z</time></trkpt><trkpt lat="45.6308697" lon="11.4409378"><ele>79.75</ele><time>2026-04-19T10:23:38.057Z</time></trkpt><trkpt lat="45.6307362" lon="11.4409994"><ele>79.5</ele><time>2026-04-19T10:23:39.095Z</time></trkpt><trkpt lat="45.6306024" lon="11.4410362"><ele>79.25</ele><time>2026-04-19T10:23:40.06Z</time></trkpt><trkpt lat="45.6304739" lon="11.4410833"><ele>79.0</ele><time>2026-04-19T10:23:41.062Z</time></trkpt><trkpt lat="45.6303437" lon="11.4411085"><ele>79.0</ele><time>2026-04-19T10:23:42.066Z</time></trkpt><trkpt lat="45.6302138" lon="11.4411417"><ele>79.0</ele><time>2026-04-19T10:23:43.079Z</time></trkpt><trkpt lat="45.6300856" lon="11.4411952"><ele>79.0</ele><time>2026-04-19T10:23:44.048Z</time></trkpt><trkpt lat="45.6299577" lon="11.4412473"><ele>79.0</ele><time>2026-04-19T10:23:45.064Z</time></trkpt><trkpt lat="45.6298317" lon="11.4412894"><ele>79.0</ele><time>2026-04-19T10:23:46.06Z</time></trkpt><trkpt lat="45.6297199" lon="11.4413778"><ele>79.0</ele><time>2026-04-19T10:23:47.054Z</time></trkpt><trkpt lat="45.6296189" lon="11.4414784"><ele>79.0</ele><time>2026-04-19T10:23:48.059Z</time></trkpt><trkpt lat="45.6295337" lon="11.4416051"><ele>79.0</ele><time>2026-04-19T10:23:49.078Z</time></trkpt><trkpt lat="45.6294384" lon="11.4417203"><ele>79.0</ele><time>2026-04-19T10:23:50.069Z</time></trkpt><trkpt lat="45.6293412" lon="11.4418447"><ele>79.0</ele><time>2026-04-19T10:23:51.062Z</time></trkpt><trkpt lat="45.6292457" lon="11.4419869"><ele>79.0</ele><time>2026-04-19T10:23:52.089Z</time></trkpt><trkpt lat="45.6291499" lon="11.4421375"><ele>79.0</ele><time>2026-04-19T10:23:53.058Z</time></trkpt><trkpt lat="45.6290476" lon="11.4422817"><ele>78.75</ele><time>2026-04-19T10:23:54.069Z</time></trkpt><trkpt lat="45.6289577" lon="11.4424396"><ele>78.5</ele><time>2026-04-19T10:23:55.069Z</time></trkpt><trkpt lat="45.6288758" lon="11.442612"><ele>78.25</ele><time>2026-04-19T10:23:56.065Z</time></trkpt><trkpt lat="45.6287951" lon="11.4427895"><ele>78.0</ele><time>2026-04-19T10:23:57.063Z</time></trkpt><trkpt lat="45.6287188" lon="11.442977"><ele>78.0</ele><time>2026-04-19T10:23:58.068Z</time></trkpt><trkpt lat="45.6286458" lon="11.4431664"><ele>78.0</ele><time>2026-04-19T10:23:59.056Z</time></trkpt><trkpt lat="45.6285808" lon="11.443353"><ele>78.0</ele><time>2026-04-19T10:24:00.065Z</time></trkpt><trkpt lat="45.6285198" lon="11.4435365"><ele>78.0</ele><time>2026-04-19T10:24:01.049Z</time></trkpt><trkpt lat="45.6284491" lon="11.4437059"><ele>77.75</ele><time>2026-04-19T10:24:02.064Z</time></trkpt><trkpt lat="45.6283578" lon="11.4438525"><ele>77.5</ele><time>2026-04-19T10:24:03.084Z</time></trkpt><trkpt lat="45.6282826" lon="11.4440073"><ele>77.25</ele><time>2026-04-19T10:24:04.068Z</time></trkpt><trkpt lat="45.6282071" lon="11.444158"><ele>77.0</ele><time>2026-04-19T10:24:05.07Z</time></trkpt><trkpt lat="45.6281583" lon="11.4443292"><ele>77.0</ele><time>2026-04-19T10:24:06.051Z</time></trkpt><trkpt lat="45.6281089" lon="11.4444888"><ele>77.0</ele><time>2026-04-19T10:24:07.067Z</time></trkpt><trkpt lat="45.6280368" lon="11.4446171"><ele>77.0</ele><time>2026-04-19T10:24:08.054Z</time></trkpt><trkpt lat="45.627977" lon="11.4447358"><ele>77.0</ele><time>2026-04-19T10:24:09.057Z</time></trkpt><trkpt lat="45.6279425" lon="11.4448472"><ele>77.0</ele><time>2026-04-19T10:24:10.054Z</time></trkpt><trkpt lat="45.6279231" lon="11.444953"><ele>76.83333333333334</ele><time>2026-04-19T10:24:11.049Z</time></trkpt><trkpt lat="45.6278933" lon="11.4450351"><ele>76.66666666666667</ele><time>2026-04-19T10:24:12.058Z</time></trkpt><trkpt lat="45.6278628" lon="11.4451643"><ele>76.5</ele><time>2026-04-19T10:24:14.055Z</time></trkpt><trkpt lat="45.627854" lon="11.4452662"><ele>76.33333333333333</ele><time>2026-04-19T10:24:16.066Z</time></trkpt><trkpt lat="45.6278083" lon="11.4453806"><ele>76.16666666666666</ele><time>2026-04-19T10:24:19.052Z</time></trkpt><trkpt lat="45.6277561" lon="11.4454812"><ele>76.0</ele><time>2026-04-19T10:24:21.057Z</time></trkpt><trkpt lat="45.6276845" lon="11.4455905"><ele>76.0</ele><time>2026-04-19T10:24:23.059Z</time></trkpt><trkpt lat="45.627649" lon="11.4456733"><ele>76.0</ele><time>2026-04-19T10:24:24.061Z</time></trkpt><trkpt lat="45.6276156" lon="11.4457789"><ele>76.0</ele><time>2026-04-19T10:24:25.059Z</time></trkpt><trkpt lat="45.6275703" lon="11.4458939"><ele>76.0</ele><time>2026-04-19T10:24:26.067Z</time></trkpt><trkpt lat="45.6275232" lon="11.4460158"><ele>76.0</ele><time>2026-04-19T10:24:27.052Z</time></trkpt><trkpt lat="45.6274738" lon="11.4461429"><ele>76.0</ele><time>2026-04-19T10:24:28.046Z</time></trkpt><trkpt lat="45.627393" lon="11.4462712"><ele>76.0</ele><time>2026-04-19T10:24:29.05Z</time></trkpt><trkpt lat="45.6273031" lon="11.4464087"><ele>76.0</ele><time>2026-04-19T10:24:30.057Z</time></trkpt><trkpt lat="45.6272024" lon="11.4465377"><ele>76.0</ele><time>2026-04-19T10:24:31.074Z</time></trkpt><trkpt lat="45.6271027" lon="11.4466812"><ele>76.0</ele><time>2026-04-19T10:24:32.056Z</time></trkpt><trkpt lat="45.626995" lon="11.4468127"><ele>75.75</ele><time>2026-04-19T10:24:33.059Z</time></trkpt><trkpt lat="45.6268858" lon="11.4469475"><ele>75.5</ele><time>2026-04-19T10:24:34.054Z</time></trkpt><trkpt lat="45.6267783" lon="11.4470683"><ele>75.25</ele><time>2026-04-19T10:24:35.051Z</time></trkpt><trkpt lat="45.6266636" lon="11.4471737"><ele>75.0</ele><time>2026-04-19T10:24:36.085Z</time></trkpt><trkpt lat="45.6265478" lon="11.4472858"><ele>75.0</ele><time>2026-04-19T10:24:37.072Z</time></trkpt><trkpt lat="45.6264355" lon="11.4474033"><ele>75.0</ele><time>2026-04-19T10:24:38.066Z</time></trkpt><trkpt lat="45.6263186" lon="11.4475151"><ele>75.0</ele><time>2026-04-19T10:24:39.068Z</time></trkpt><trkpt lat="45.626199" lon="11.4476279"><ele>75.0</ele><time>2026-04-19T10:24:40.052Z</time></trkpt><trkpt lat="45.626077" lon="11.4477466"><ele>74.33333333333333</ele><time>2026-04-19T10:24:41.052Z</time></trkpt><trkpt lat="45.625944" lon="11.4478631"><ele>73.66666666666666</ele><time>2026-04-19T10:24:42.053Z</time></trkpt><trkpt lat="45.6258137" lon="11.4479952"><ele>73.0</ele><time>2026-04-19T10:24:43.071Z</time></trkpt><trkpt lat="45.6256867" lon="11.448143"><ele>73.0</ele><time>2026-04-19T10:24:44.082Z</time></trkpt><trkpt lat="45.6255688" lon="11.448305"><ele>73.0</ele><time>2026-04-19T10:24:45.061Z</time></trkpt><trkpt lat="45.625456" lon="11.448468"><ele>73.0</ele><time>2026-04-19T10:24:46.055Z</time></trkpt><trkpt lat="45.6253474" lon="11.4486329"><ele>72.66666666666666</ele><time>2026-04-19T10:24:47.058Z</time></trkpt><trkpt lat="45.6252463" lon="11.4488059"><ele>72.33333333333333</ele><time>2026-04-19T10:24:48.054Z</time></trkpt><trkpt lat="45.6251469" lon="11.4489747"><ele>72.0</ele><time>2026-04-19T10:24:49.074Z</time></trkpt><trkpt lat="45.6250483" lon="11.4491438"><ele>72.0</ele><time>2026-04-19T10:24:50.053Z</time></trkpt><trkpt lat="45.6249556" lon="11.4493182"><ele>72.0</ele><time>2026-04-19T10:24:51.069Z</time></trkpt><trkpt lat="45.6248667" lon="11.4495004"><ele>72.0</ele><time>2026-04-19T10:24:52.071Z</time></trkpt><trkpt lat="45.6247777" lon="11.4496854"><ele>72.33333333333333</ele><time>2026-04-19T10:24:53.058Z</time></trkpt><trkpt lat="45.6246879" lon="11.449873"><ele>72.66666666666666</ele><time>2026-04-19T10:24:54.061Z</time></trkpt><trkpt lat="45.624599" lon="11.4500596"><ele>73.0</ele><time>2026-04-19T10:24:55.047Z</time></trkpt><trkpt lat="45.6245146" lon="11.4502487"><ele>72.0</ele><time>2026-04-19T10:24:56.061Z</time></trkpt><trkpt lat="45.6244335" lon="11.4504384"><ele>71.0</ele><time>2026-04-19T10:24:57.059Z</time></trkpt><trkpt lat="45.6243572" lon="11.4506325"><ele>70.0</ele><time>2026-04-19T10:24:58.056Z</time></trkpt><trkpt lat="45.624287" lon="11.4508353"><ele>70.0</ele><time>2026-04-19T10:24:59.054Z</time></trkpt><trkpt lat="45.6242199" lon="11.4510442"><ele>70.0</ele><time>2026-04-19T10:25:00.066Z</time></trkpt><trkpt lat="45.6241558" lon="11.4512582"><ele>70.0</ele><time>2026-04-19T10:25:01.065Z</time></trkpt><trkpt lat="45.6240941" lon="11.4514738"><ele>70.0</ele><time>2026-04-19T10:25:02.057Z</time></trkpt><trkpt lat="45.6240376" lon="11.4516879"><ele>70.0</ele><time>2026-04-19T10:25:03.057Z</time></trkpt><trkpt lat="45.6239833" lon="11.4518964"><ele>70.0</ele><time>2026-04-19T10:25:04.06Z</time></trkpt><trkpt lat="45.623926" lon="11.4520991"><ele>70.66666666666666</ele><time>2026-04-19T10:25:05.049Z</time></trkpt><trkpt lat="45.6238683" lon="11.4522992"><ele>71.33333333333333</ele><time>2026-04-19T10:25:06.055Z</time></trkpt><trkpt lat="45.6238111" lon="11.4524967"><ele>72.0</ele><time>2026-04-19T10:25:07.075Z</time></trkpt><trkpt lat="45.623756" lon="11.452697"><ele>72.0</ele><time>2026-04-19T10:25:08.071Z</time></trkpt><trkpt lat="45.6237009" lon="11.4529025"><ele>72.0</ele><time>2026-04-19T10:25:09.065Z</time></trkpt><trkpt lat="45.623631" lon="11.4531093"><ele>72.0</ele><time>2026-04-19T10:25:10.063Z</time></trkpt><trkpt lat="45.623545" lon="11.4533151"><ele>71.0</ele><time>2026-04-19T10:25:11.065Z</time></trkpt><trkpt lat="45.623443" lon="11.4535155"><ele>70.0</ele><time>2026-04-19T10:25:12.07Z</time></trkpt><trkpt lat="45.6233467" lon="11.4537213"><ele>69.0</ele><time>2026-04-19T10:25:13.05Z</time></trkpt><trkpt lat="45.6232534" lon="11.4539259"><ele>69.0</ele><time>2026-04-19T10:25:14.05Z</time></trkpt><trkpt lat="45.6231597" lon="11.4541253"><ele>69.0</ele><time>2026-04-19T10:25:15.054Z</time></trkpt><trkpt lat="45.6230711" lon="11.4543208"><ele>69.0</ele><time>2026-04-19T10:25:16.05Z</time></trkpt><trkpt lat="45.6229819" lon="11.4545064"><ele>68.66666666666667</ele><time>2026-04-19T10:25:17.07Z</time></trkpt><trkpt lat="45.6228942" lon="11.4546891"><ele>68.33333333333334</ele><time>2026-04-19T10:25:18.049Z</time></trkpt><trkpt lat="45.6228111" lon="11.454877"><ele>68.0</ele><time>2026-04-19T10:25:19.057Z</time></trkpt><trkpt lat="45.6227245" lon="11.4550687"><ele>68.0</ele><time>2026-04-19T10:25:20.054Z</time></trkpt><trkpt lat="45.6226369" lon="11.455265"><ele>68.0</ele><time>2026-04-19T10:25:21.062Z</time></trkpt><trkpt lat="45.6225446" lon="11.4554654"><ele>68.0</ele><time>2026-04-19T10:25:22.058Z</time></trkpt><trkpt lat="45.6224483" lon="11.4556682"><ele>67.66666666666667</ele><time>2026-04-19T10:25:23.058Z</time></trkpt><trkpt lat="45.6223527" lon="11.4558634"><ele>67.33333333333333</ele><time>2026-04-19T10:25:24.067Z</time></trkpt><trkpt lat="45.6222674" lon="11.4560573"><ele>67.0</ele><time>2026-04-19T10:25:25.054Z</time></trkpt><trkpt lat="45.6221854" lon="11.4562463"><ele>67.0</ele><time>2026-04-19T10:25:26.05Z</time></trkpt><trkpt lat="45.6221078" lon="11.4564344"><ele>67.0</ele><time>2026-04-19T10:25:27.065Z</time></trkpt><trkpt lat="45.6220376" lon="11.4566231"><ele>67.0</ele><time>2026-04-19T10:25:28.056Z</time></trkpt><trkpt lat="45.6219658" lon="11.4568026"><ele>67.0</ele><time>2026-04-19T10:25:29.081Z</time></trkpt><trkpt lat="45.6218987" lon="11.4569762"><ele>66.75</ele><time>2026-04-19T10:25:30.052Z</time></trkpt><trkpt lat="45.6218321" lon="11.457144"><ele>66.5</ele><time>2026-04-19T10:25:31.069Z</time></trkpt><trkpt lat="45.6217661" lon="11.4573138"><ele>66.25</ele><time>2026-04-19T10:25:32.064Z</time></trkpt><trkpt lat="45.6217025" lon="11.4574901"><ele>66.0</ele><time>2026-04-19T10:25:33.089Z</time></trkpt><trkpt lat="45.6216319" lon="11.4576636"><ele>66.0</ele><time>2026-04-19T10:25:34.051Z</time></trkpt><trkpt lat="45.621552" lon="11.4578315"><ele>66.0</ele><time>2026-04-19T10:25:35.056Z</time></trkpt><trkpt lat="45.6214667" lon="11.4580031"><ele>66.0</ele><time>2026-04-19T10:25:36.059Z</time></trkpt><trkpt lat="45.621368" lon="11.458165"><ele>66.0</ele><time>2026-04-19T10:25:37.051Z</time></trkpt><trkpt lat="45.6212723" lon="11.4583298"><ele>66.0</ele><time>2026-04-19T10:25:38.057Z</time></trkpt><trkpt lat="45.6211753" lon="11.4585007"><ele>66.0</ele><time>2026-04-19T10:25:39.08Z</time></trkpt><trkpt lat="45.6210743" lon="11.4586744"><ele>66.0</ele><time>2026-04-19T10:25:40.054Z</time></trkpt><trkpt lat="45.6209715" lon="11.4588486"><ele>65.66666666666667</ele><time>2026-04-19T10:25:41.061Z</time></trkpt><trkpt lat="45.6208707" lon="11.4590268"><ele>65.33333333333334</ele><time>2026-04-19T10:25:42.057Z</time></trkpt><trkpt lat="45.6207714" lon="11.4592061"><ele>65.0</ele><time>2026-04-19T10:25:43.077Z</time></trkpt><trkpt lat="45.6206751" lon="11.4593867"><ele>65.0</ele><time>2026-04-19T10:25:44.084Z</time></trkpt><trkpt lat="45.6205724" lon="11.4595604"><ele>65.0</ele><time>2026-04-19T10:25:45.065Z</time></trkpt><trkpt lat="45.6204688" lon="11.4597337"><ele>65.0</ele><time>2026-04-19T10:25:46.066Z</time></trkpt><trkpt lat="45.6203653" lon="11.4599054"><ele>66.0</ele><time>2026-04-19T10:25:47.066Z</time></trkpt><trkpt lat="45.6202617" lon="11.4600691"><ele>67.0</ele><time>2026-04-19T10:25:48.053Z</time></trkpt><trkpt lat="45.6201643" lon="11.4602332"><ele>68.0</ele><time>2026-04-19T10:25:49.054Z</time></trkpt><trkpt lat="45.6200712" lon="11.4603945"><ele>67.75</ele><time>2026-04-19T10:25:50.058Z</time></trkpt><trkpt lat="45.6199786" lon="11.4605483"><ele>67.5</ele><time>2026-04-19T10:25:51.074Z</time></trkpt><trkpt lat="45.6198932" lon="11.4607068"><ele>67.25</ele><time>2026-04-19T10:25:52.077Z</time></trkpt><trkpt lat="45.6198025" lon="11.4608572"><ele>67.0</ele><time>2026-04-19T10:25:53.067Z</time></trkpt><trkpt lat="45.6197183" lon="11.4610208"><ele>67.0</ele><time>2026-04-19T10:25:54.077Z</time></trkpt><trkpt lat="45.6196294" lon="11.4611812"><ele>67.0</ele><time>2026-04-19T10:25:55.057Z</time></trkpt><trkpt lat="45.6195368" lon="11.4613383"><ele>67.0</ele><time>2026-04-19T10:25:56.064Z</time></trkpt><trkpt lat="45.6194383" lon="11.4614883"><ele>67.0</ele><time>2026-04-19T10:25:57.063Z</time></trkpt><trkpt lat="45.6193312" lon="11.4616299"><ele>66.66666666666666</ele><time>2026-04-19T10:25:58.059Z</time></trkpt><trkpt lat="45.6192148" lon="11.4617662"><ele>66.33333333333333</ele><time>2026-04-19T10:25:59.07Z</time></trkpt><trkpt lat="45.619092" lon="11.4619011"><ele>66.0</ele><time>2026-04-19T10:26:00.091Z</time></trkpt><trkpt lat="45.6189608" lon="11.4620307"><ele>66.0</ele><time>2026-04-19T10:26:01.056Z</time></trkpt><trkpt lat="45.6188256" lon="11.4621674"><ele>66.0</ele><time>2026-04-19T10:26:02.06Z</time></trkpt><trkpt lat="45.6186893" lon="11.4623095"><ele>66.0</ele><time>2026-04-19T10:26:03.059Z</time></trkpt><trkpt lat="45.6185522" lon="11.4624473"><ele>66.0</ele><time>2026-04-19T10:26:04.074Z</time></trkpt><trkpt lat="45.618418" lon="11.4625862"><ele>66.0</ele><time>2026-04-19T10:26:05.07Z</time></trkpt><trkpt lat="45.6182836" lon="11.462725"><ele>66.0</ele><time>2026-04-19T10:26:06.061Z</time></trkpt><trkpt lat="45.6181483" lon="11.4628606"><ele>66.0</ele><time>2026-04-19T10:26:07.062Z</time></trkpt><trkpt lat="45.6180146" lon="11.4629985"><ele>66.0</ele><time>2026-04-19T10:26:08.06Z</time></trkpt><trkpt lat="45.6178818" lon="11.4631274"><ele>66.0</ele><time>2026-04-19T10:26:09.065Z</time></trkpt><trkpt lat="45.6177523" lon="11.463258"><ele>66.0</ele><time>2026-04-19T10:26:10.063Z</time></trkpt><trkpt lat="45.6176218" lon="11.463386"><ele>66.0</ele><time>2026-04-19T10:26:11.061Z</time></trkpt><trkpt lat="45.6175053" lon="11.4635367"><ele>66.0</ele><time>2026-04-19T10:26:12.055Z</time></trkpt><trkpt lat="45.6173825" lon="11.4636643"><ele>66.0</ele><time>2026-04-19T10:26:13.087Z</time></trkpt><trkpt lat="45.6172696" lon="11.4638015"><ele>66.0</ele><time>2026-04-19T10:26:14.05Z</time></trkpt><trkpt lat="45.6171534" lon="11.4639331"><ele>66.0</ele><time>2026-04-19T10:26:15.064Z</time></trkpt><trkpt lat="45.6170296" lon="11.4640535"><ele>66.0</ele><time>2026-04-19T10:26:16.055Z</time></trkpt><trkpt lat="45.6168987" lon="11.464164"><ele>65.0</ele><time>2026-04-19T10:26:17.056Z</time></trkpt><trkpt lat="45.6167756" lon="11.4642971"><ele>64.0</ele><time>2026-04-19T10:26:18.068Z</time></trkpt><trkpt lat="45.6166476" lon="11.4644261"><ele>63.0</ele><time>2026-04-19T10:26:19.07Z</time></trkpt><trkpt lat="45.6165215" lon="11.4645583"><ele>63.0</ele><time>2026-04-19T10:26:20.073Z</time></trkpt><trkpt lat="45.6163929" lon="11.4646779"><ele>63.0</ele><time>2026-04-19T10:26:21.091Z</time></trkpt><trkpt lat="45.6162676" lon="11.4647933"><ele>63.0</ele><time>2026-04-19T10:26:22.052Z</time></trkpt><trkpt lat="45.6161471" lon="11.4649089"><ele>63.0</ele><time>2026-04-19T10:26:23.066Z</time></trkpt><trkpt lat="45.6160323" lon="11.4650238"><ele>63.25</ele><time>2026-04-19T10:26:24.061Z</time></trkpt><trkpt lat="45.6159196" lon="11.4651331"><ele>63.5</ele><time>2026-04-19T10:26:25.054Z</time></trkpt><trkpt lat="45.6158101" lon="11.465244"><ele>63.75</ele><time>2026-04-19T10:26:26.052Z</time></trkpt><trkpt lat="45.6157047" lon="11.4653496"><ele>64.0</ele><time>2026-04-19T10:26:27.071Z</time></trkpt><trkpt lat="45.6156099" lon="11.4654546"><ele>64.0</ele><time>2026-04-19T10:26:28.063Z</time></trkpt><trkpt lat="45.6155185" lon="11.4655494"><ele>64.0</ele><time>2026-04-19T10:26:29.055Z</time></trkpt><trkpt lat="45.6154334" lon="11.4656352"><ele>64.0</ele><time>2026-04-19T10:26:30.084Z</time></trkpt><trkpt lat="45.6153551" lon="11.4657141"><ele>64.0</ele><time>2026-04-19T10:26:31.076Z</time></trkpt><trkpt lat="45.6152852" lon="11.4657911"><ele>64.0</ele><time>2026-04-19T10:26:32.086Z</time></trkpt><trkpt lat="45.6152217" lon="11.4658631"><ele>63.99999999999999</ele><time>2026-04-19T10:26:33.05Z</time></trkpt><trkpt lat="45.6151578" lon="11.4659249"><ele>64.0</ele><time>2026-04-19T10:26:34.054Z</time></trkpt><trkpt lat="45.6151001" lon="11.4659865"><ele>64.0</ele><time>2026-04-19T10:26:35.055Z</time></trkpt><trkpt lat="45.61505" lon="11.4660489"><ele>64.0</ele><time>2026-04-19T10:26:36.053Z</time></trkpt><trkpt lat="45.6149899" lon="11.4661242"><ele>63.99999999999999</ele><time>2026-04-19T10:26:38.062Z</time></trkpt><trkpt lat="45.6148857" lon="11.4662279"><ele>64.0</ele><time>2026-04-19T10:26:44.054Z</time></trkpt><trkpt lat="45.6148234" lon="11.4662927"><ele>64.0</ele><time>2026-04-19T10:26:46.065Z</time></trkpt><trkpt lat="45.6147519" lon="11.4663758"><ele>64.0</ele><time>2026-04-19T10:26:48.051Z</time></trkpt><trkpt lat="45.6146572" lon="11.4664783"><ele>64.0</ele><time>2026-04-19T10:26:50.052Z</time></trkpt><trkpt lat="45.6146049" lon="11.4665352"><ele>64.0</ele><time>2026-04-19T10:26:51.067Z</time></trkpt><trkpt lat="45.6145545" lon="11.4665956"><ele>64.0</ele><time>2026-04-19T10:26:52.064Z</time></trkpt><trkpt lat="45.6144606" lon="11.4666977"><ele>64.0</ele><time>2026-04-19T10:26:54.068Z</time></trkpt><trkpt lat="45.6143552" lon="11.4666986"><ele>64.0</ele><time>2026-04-19T10:26:56.067Z</time></trkpt><trkpt lat="45.6142983" lon="11.4666321"><ele>64.0</ele><time>2026-04-19T10:26:57.056Z</time></trkpt><trkpt lat="45.6142474" lon="11.4665375"><ele>64.0</ele><time>2026-04-19T10:26:58.054Z</time></trkpt><trkpt lat="45.6142124" lon="11.4664144"><ele>64.0</ele><time>2026-04-19T10:26:59.059Z</time></trkpt><trkpt lat="45.6141916" lon="11.4662723"><ele>64.0</ele><time>2026-04-19T10:27:00.053Z</time></trkpt><trkpt lat="45.6141737" lon="11.4661025"><ele>64.0</ele><time>2026-04-19T10:27:01.064Z</time></trkpt><trkpt lat="45.614163" lon="11.4659294"><ele>64.0</ele><time>2026-04-19T10:27:02.055Z</time></trkpt><trkpt lat="45.6141467" lon="11.4657588"><ele>64.0</ele><time>2026-04-19T10:27:03.055Z</time></trkpt><trkpt lat="45.6141364" lon="11.4655916"><ele>64.0</ele><time>2026-04-19T10:27:04.066Z</time></trkpt><trkpt lat="45.6141159" lon="11.4654322"><ele>64.0</ele><time>2026-04-19T10:27:05.058Z</time></trkpt><trkpt lat="45.6140973" lon="11.4652726"><ele>64.0</ele><time>2026-04-19T10:27:06.064Z</time></trkpt><trkpt lat="45.6140801" lon="11.4651164"><ele>64.0</ele><time>2026-04-19T10:27:07.078Z</time></trkpt><trkpt lat="45.6140802" lon="11.4649624"><ele>64.0</ele><time>2026-04-19T10:27:08.057Z</time></trkpt><trkpt lat="45.6141021" lon="11.4648156"><ele>64.0</ele><time>2026-04-19T10:27:09.082Z</time></trkpt><trkpt lat="45.6141308" lon="11.4646835"><ele>64.0</ele><time>2026-04-19T10:27:10.073Z</time></trkpt><trkpt lat="45.6141824" lon="11.4645903"><ele>64.0</ele><time>2026-04-19T10:27:11.084Z</time></trkpt><trkpt lat="45.6142504" lon="11.4644629"><ele>64.0</ele><time>2026-04-19T10:27:13.07Z</time></trkpt><trkpt lat="45.6142937" lon="11.464359"><ele>64.0</ele><time>2026-04-19T10:27:15.054Z</time></trkpt><trkpt lat="45.61427" lon="11.4642126"><ele>64.2</ele><time>2026-04-19T10:27:17.077Z</time></trkpt><trkpt lat="45.6142412" lon="11.4641166"><ele>64.4</ele><time>2026-04-19T10:27:18.068Z</time></trkpt><trkpt lat="45.6142021" lon="11.4640002"><ele>64.6</ele><time>2026-04-19T10:27:19.057Z</time></trkpt><trkpt lat="45.6141643" lon="11.4638705"><ele>64.8</ele><time>2026-04-19T10:27:20.06Z</time></trkpt><trkpt lat="45.6141179" lon="11.4637341"><ele>65.0</ele><time>2026-04-19T10:27:21.059Z</time></trkpt><trkpt lat="45.6140704" lon="11.4635866"><ele>65.0</ele><time>2026-04-19T10:27:22.052Z</time></trkpt><trkpt lat="45.6140189" lon="11.4634377"><ele>65.0</ele><time>2026-04-19T10:27:23.075Z</time></trkpt><trkpt lat="45.6139512" lon="11.4632887"><ele>65.0</ele><time>2026-04-19T10:27:24.06Z</time></trkpt><trkpt lat="45.6138925" lon="11.4631229"><ele>65.0</ele><time>2026-04-19T10:27:25.055Z</time></trkpt><trkpt lat="45.6138319" lon="11.4629549"><ele>65.0</ele><time>2026-04-19T10:27:26.056Z</time></trkpt><trkpt lat="45.6137711" lon="11.4627876"><ele>65.0</ele><time>2026-04-19T10:27:27.059Z</time></trkpt><trkpt lat="45.6137101" lon="11.4626178"><ele>65.0</ele><time>2026-04-19T10:27:28.061Z</time></trkpt><trkpt lat="45.6136459" lon="11.4624453"><ele>65.0</ele><time>2026-04-19T10:27:29.073Z</time></trkpt><trkpt lat="45.6135804" lon="11.4622711"><ele>65.0</ele><time>2026-04-19T10:27:30.071Z</time></trkpt><trkpt lat="45.6134954" lon="11.46211"><ele>65.0</ele><time>2026-04-19T10:27:31.067Z</time></trkpt><trkpt lat="45.6134087" lon="11.4619581"><ele>65.0</ele><time>2026-04-19T10:27:32.06Z</time></trkpt><trkpt lat="45.6133188" lon="11.4618195"><ele>65.0</ele><time>2026-04-19T10:27:33.062Z</time></trkpt><trkpt lat="45.6132412" lon="11.461679"><ele>65.0</ele><time>2026-04-19T10:27:34.059Z</time></trkpt><trkpt lat="45.6131716" lon="11.4615503"><ele>65.0</ele><time>2026-04-19T10:27:35.063Z</time></trkpt><trkpt lat="45.6131213" lon="11.4614402"><ele>65.0</ele><time>2026-04-19T10:27:36.058Z</time></trkpt><trkpt lat="45.613081" lon="11.4613564"><ele>65.0</ele><time>2026-04-19T10:27:37.059Z</time></trkpt><trkpt lat="45.613036" lon="11.4612909"><ele>65.0</ele><time>2026-04-19T10:27:38.07Z</time></trkpt><trkpt lat="45.6129825" lon="11.4612391"><ele>65.0</ele><time>2026-04-19T10:27:39.067Z</time></trkpt><trkpt lat="45.6129198" lon="11.4612142"><ele>65.0</ele><time>2026-04-19T10:27:40.059Z</time></trkpt><trkpt lat="45.612847" lon="11.4612041"><ele>65.0</ele><time>2026-04-19T10:27:41.052Z</time></trkpt><trkpt lat="45.612774" lon="11.4612119"><ele>65.0</ele><time>2026-04-19T10:27:42.072Z</time></trkpt><trkpt lat="45.612702" lon="11.4611971"><ele>65.0</ele><time>2026-04-19T10:27:43.051Z</time></trkpt><trkpt lat="45.6126383" lon="11.461146"><ele>65.0</ele><time>2026-04-19T10:27:44.07Z</time></trkpt><trkpt lat="45.6125822" lon="11.461045"><ele>65.0</ele><time>2026-04-19T10:27:45.058Z</time></trkpt><trkpt lat="45.6125363" lon="11.4609209"><ele>65.25</ele><time>2026-04-19T10:27:46.064Z</time></trkpt><trkpt lat="45.6124937" lon="11.4607574"><ele>65.5</ele><time>2026-04-19T10:27:47.071Z</time></trkpt><trkpt lat="45.6124416" lon="11.4606032"><ele>65.75</ele><time>2026-04-19T10:27:48.059Z</time></trkpt><trkpt lat="45.6123856" lon="11.4604578"><ele>66.0</ele><time>2026-04-19T10:27:49.083Z</time></trkpt><trkpt lat="45.6123246" lon="11.4603272"><ele>66.16666666666667</ele><time>2026-04-19T10:27:50.07Z</time></trkpt><trkpt lat="45.6122733" lon="11.4602068"><ele>66.33333333333333</ele><time>2026-04-19T10:27:51.059Z</time></trkpt><trkpt lat="45.6122185" lon="11.4601108"><ele>66.5</ele><time>2026-04-19T10:27:52.068Z</time></trkpt><trkpt lat="45.6121568" lon="11.4600449"><ele>66.66666666666666</ele><time>2026-04-19T10:27:53.074Z</time></trkpt><trkpt lat="45.6120778" lon="11.4600276"><ele>66.83333333333333</ele><time>2026-04-19T10:27:54.053Z</time></trkpt><trkpt lat="45.6119797" lon="11.4600578"><ele>67.0</ele><time>2026-04-19T10:27:55.065Z</time></trkpt><trkpt lat="45.6118662" lon="11.4601224"><ele>66.75</ele><time>2026-04-19T10:27:56.054Z</time></trkpt><trkpt lat="45.6117419" lon="11.4602118"><ele>66.5</ele><time>2026-04-19T10:27:57.06Z</time></trkpt><trkpt lat="45.6116131" lon="11.4602971"><ele>66.25</ele><time>2026-04-19T10:27:58.05Z</time></trkpt><trkpt lat="45.6114906" lon="11.4603835"><ele>66.0</ele><time>2026-04-19T10:27:59.049Z</time></trkpt><trkpt lat="45.61137" lon="11.4604651"><ele>66.0</ele><time>2026-04-19T10:28:00.059Z</time></trkpt><trkpt lat="45.6112547" lon="11.4605573"><ele>66.0</ele><time>2026-04-19T10:28:01.051Z</time></trkpt><trkpt lat="45.6111362" lon="11.460642"><ele>66.0</ele><time>2026-04-19T10:28:02.065Z</time></trkpt><trkpt lat="45.6110152" lon="11.4607295"><ele>66.0</ele><time>2026-04-19T10:28:03.053Z</time></trkpt><trkpt lat="45.6108902" lon="11.460816"><ele>65.25</ele><time>2026-04-19T10:28:04.057Z</time></trkpt><trkpt lat="45.6107594" lon="11.4609013"><ele>64.5</ele><time>2026-04-19T10:28:05.064Z</time></trkpt><trkpt lat="45.6106292" lon="11.4609951"><ele>63.75</ele><time>2026-04-19T10:28:06.059Z</time></trkpt><trkpt lat="45.6105051" lon="11.4610916"><ele>63.0</ele><time>2026-04-19T10:28:07.075Z</time></trkpt><trkpt lat="45.6103818" lon="11.4611845"><ele>63.75</ele><time>2026-04-19T10:28:08.051Z</time></trkpt><trkpt lat="45.6102601" lon="11.4612833"><ele>64.5</ele><time>2026-04-19T10:28:09.066Z</time></trkpt><trkpt lat="45.6101367" lon="11.4613817"><ele>65.25</ele><time>2026-04-19T10:28:10.057Z</time></trkpt><trkpt lat="45.6100103" lon="11.4614817"><ele>66.0</ele><time>2026-04-19T10:28:11.066Z</time></trkpt><trkpt lat="45.609884" lon="11.4615809"><ele>66.0</ele><time>2026-04-19T10:28:12.06Z</time></trkpt><trkpt lat="45.6097565" lon="11.4616754"><ele>66.0</ele><time>2026-04-19T10:28:13.067Z</time></trkpt><trkpt lat="45.6096274" lon="11.4617711"><ele>66.0</ele><time>2026-04-19T10:28:14.071Z</time></trkpt><trkpt lat="45.6095025" lon="11.4618766"><ele>66.0</ele><time>2026-04-19T10:28:15.059Z</time></trkpt><trkpt lat="45.6093706" lon="11.4619775"><ele>65.0</ele><time>2026-04-19T10:28:16.05Z</time></trkpt><trkpt lat="45.6092419" lon="11.4620968"><ele>64.0</ele><time>2026-04-19T10:28:17.054Z</time></trkpt><trkpt lat="45.6091105" lon="11.4621989"><ele>63.0</ele><time>2026-04-19T10:28:18.067Z</time></trkpt><trkpt lat="45.6089796" lon="11.4622977"><ele>62.75</ele><time>2026-04-19T10:28:19.063Z</time></trkpt><trkpt lat="45.6088454" lon="11.4623858"><ele>62.5</ele><time>2026-04-19T10:28:20.081Z</time></trkpt><trkpt lat="45.6087149" lon="11.4624825"><ele>62.25</ele><time>2026-04-19T10:28:21.055Z</time></trkpt><trkpt lat="45.608589" lon="11.4625844"><ele>62.0</ele><time>2026-04-19T10:28:22.058Z</time></trkpt><trkpt lat="45.6084626" lon="11.4626797"><ele>62.0</ele><time>2026-04-19T10:28:23.054Z</time></trkpt><trkpt lat="45.6083402" lon="11.4627781"><ele>62.0</ele><time>2026-04-19T10:28:24.065Z</time></trkpt><trkpt lat="45.608219" lon="11.4628723"><ele>62.0</ele><time>2026-04-19T10:28:25.069Z</time></trkpt><trkpt lat="45.6080959" lon="11.4629601"><ele>62.0</ele><time>2026-04-19T10:28:26.058Z</time></trkpt><trkpt lat="45.6079728" lon="11.4630547"><ele>61.25</ele><time>2026-04-19T10:28:27.052Z</time></trkpt><trkpt lat="45.6078409" lon="11.4631372"><ele>60.5</ele><time>2026-04-19T10:28:28.066Z</time></trkpt><trkpt lat="45.6077152" lon="11.4632502"><ele>59.75</ele><time>2026-04-19T10:28:29.068Z</time></trkpt><trkpt lat="45.6075835" lon="11.4633607"><ele>59.0</ele><time>2026-04-19T10:28:30.077Z</time></trkpt><trkpt lat="45.6074476" lon="11.4634695"><ele>59.0</ele><time>2026-04-19T10:28:31.087Z</time></trkpt><trkpt lat="45.6073064" lon="11.4635772"><ele>59.0</ele><time>2026-04-19T10:28:32.059Z</time></trkpt><trkpt lat="45.6071658" lon="11.4636983"><ele>59.0</ele><time>2026-04-19T10:28:33.06Z</time></trkpt><trkpt lat="45.6070184" lon="11.4638088"><ele>58.66666666666667</ele><time>2026-04-19T10:28:34.057Z</time></trkpt><trkpt lat="45.6068739" lon="11.4639191"><ele>58.33333333333333</ele><time>2026-04-19T10:28:35.081Z</time></trkpt><trkpt lat="45.6067316" lon="11.4640246"><ele>58.0</ele><time>2026-04-19T10:28:36.065Z</time></trkpt><trkpt lat="45.6065953" lon="11.4641316"><ele>58.0</ele><time>2026-04-19T10:28:37.068Z</time></trkpt><trkpt lat="45.6064675" lon="11.4642472"><ele>58.0</ele><time>2026-04-19T10:28:38.073Z</time></trkpt><trkpt lat="45.6063368" lon="11.4643438"><ele>58.0</ele><time>2026-04-19T10:28:39.061Z</time></trkpt><trkpt lat="45.6062084" lon="11.4644418"><ele>58.0</ele><time>2026-04-19T10:28:40.064Z</time></trkpt><trkpt lat="45.6060798" lon="11.4645492"><ele>58.33333333333333</ele><time>2026-04-19T10:28:41.078Z</time></trkpt><trkpt lat="45.6059405" lon="11.4646444"><ele>58.66666666666667</ele><time>2026-04-19T10:28:42.096Z</time></trkpt><trkpt lat="45.6057999" lon="11.4647437"><ele>59.0</ele><time>2026-04-19T10:28:43.074Z</time></trkpt><trkpt lat="45.6056575" lon="11.4648395"><ele>59.0</ele><time>2026-04-19T10:28:44.068Z</time></trkpt><trkpt lat="45.6055182" lon="11.4649453"><ele>59.0</ele><time>2026-04-19T10:28:45.059Z</time></trkpt><trkpt lat="45.6053834" lon="11.4650623"><ele>59.0</ele><time>2026-04-19T10:28:46.063Z</time></trkpt><trkpt lat="45.6052441" lon="11.4651724"><ele>59.333333333333336</ele><time>2026-04-19T10:28:47.068Z</time></trkpt><trkpt lat="45.6050983" lon="11.4652742"><ele>59.66666666666667</ele><time>2026-04-19T10:28:48.05Z</time></trkpt><trkpt lat="45.6049534" lon="11.4653848"><ele>60.0</ele><time>2026-04-19T10:28:49.051Z</time></trkpt><trkpt lat="45.6048067" lon="11.4655012"><ele>60.0</ele><time>2026-04-19T10:28:50.065Z</time></trkpt><trkpt lat="45.6046591" lon="11.4656207"><ele>60.0</ele><time>2026-04-19T10:28:51.077Z</time></trkpt><trkpt lat="45.6045075" lon="11.4657318"><ele>60.0</ele><time>2026-04-19T10:28:52.057Z</time></trkpt><trkpt lat="45.6043565" lon="11.4658462"><ele>60.0</ele><time>2026-04-19T10:28:53.07Z</time></trkpt><trkpt lat="45.6042047" lon="11.4659578"><ele>60.0</ele><time>2026-04-19T10:28:54.063Z</time></trkpt><trkpt lat="45.6040523" lon="11.4660715"><ele>60.0</ele><time>2026-04-19T10:28:55.076Z</time></trkpt><trkpt lat="45.6039026" lon="11.4661998"><ele>59.33333333333333</ele><time>2026-04-19T10:28:56.07Z</time></trkpt><trkpt lat="45.6037497" lon="11.4663242"><ele>58.666666666666664</ele><time>2026-04-19T10:28:57.078Z</time></trkpt><trkpt lat="45.603595" lon="11.4664479"><ele>58.0</ele><time>2026-04-19T10:28:58.059Z</time></trkpt><trkpt lat="45.6034388" lon="11.4665632"><ele>58.0</ele><time>2026-04-19T10:28:59.064Z</time></trkpt><trkpt lat="45.6032834" lon="11.4666782"><ele>58.0</ele><time>2026-04-19T10:29:00.069Z</time></trkpt><trkpt lat="45.6031325" lon="11.466793"><ele>58.0</ele><time>2026-04-19T10:29:01.062Z</time></trkpt><trkpt lat="45.6029861" lon="11.4669048"><ele>58.0</ele><time>2026-04-19T10:29:02.055Z</time></trkpt><trkpt lat="45.6028457" lon="11.4670252"><ele>58.0</ele><time>2026-04-19T10:29:03.068Z</time></trkpt><trkpt lat="45.6027045" lon="11.4671392"><ele>58.0</ele><time>2026-04-19T10:29:04.051Z</time></trkpt><trkpt lat="45.6025612" lon="11.4672512"><ele>57.666666666666664</ele><time>2026-04-19T10:29:05.06Z</time></trkpt><trkpt lat="45.6024196" lon="11.4673707"><ele>57.33333333333333</ele><time>2026-04-19T10:29:06.051Z</time></trkpt><trkpt lat="45.6022747" lon="11.4674717"><ele>57.0</ele><time>2026-04-19T10:29:07.068Z</time></trkpt><trkpt lat="45.6021339" lon="11.4675754"><ele>57.0</ele><time>2026-04-19T10:29:08.055Z</time></trkpt><trkpt lat="45.602" lon="11.4676862"><ele>57.0</ele><time>2026-04-19T10:29:09.05Z</time></trkpt><trkpt lat="45.6018689" lon="11.4677942"><ele>57.0</ele><time>2026-04-19T10:29:10.048Z</time></trkpt><trkpt lat="45.6017362" lon="11.4678991"><ele>57.0</ele><time>2026-04-19T10:29:11.057Z</time></trkpt><trkpt lat="45.6016017" lon="11.4680042"><ele>57.0</ele><time>2026-04-19T10:29:12.057Z</time></trkpt><trkpt lat="45.6014662" lon="11.4681087"><ele>57.0</ele><time>2026-04-19T10:29:13.057Z</time></trkpt><trkpt lat="45.6013317" lon="11.4682181"><ele>57.0</ele><time>2026-04-19T10:29:14.061Z</time></trkpt><trkpt lat="45.6011954" lon="11.4683304"><ele>57.0</ele><time>2026-04-19T10:29:15.071Z</time></trkpt><trkpt lat="45.6010575" lon="11.4684424"><ele>57.0</ele><time>2026-04-19T10:29:16.065Z</time></trkpt><trkpt lat="45.6009377" lon="11.4685845"><ele>57.0</ele><time>2026-04-19T10:29:17.076Z</time></trkpt><trkpt lat="45.6008525" lon="11.4687691"><ele>57.0</ele><time>2026-04-19T10:29:18.072Z</time></trkpt><trkpt lat="45.6007737" lon="11.4689587"><ele>57.0</ele><time>2026-04-19T10:29:19.079Z</time></trkpt><trkpt lat="45.6007089" lon="11.4691652"><ele>56.5</ele><time>2026-04-19T10:29:20.064Z</time></trkpt><trkpt lat="45.6006488" lon="11.4693692"><ele>56.0</ele><time>2026-04-19T10:29:21.079Z</time></trkpt><trkpt lat="45.600594" lon="11.4695649"><ele>55.5</ele><time>2026-04-19T10:29:22.08Z</time></trkpt><trkpt lat="45.6005638" lon="11.4697549"><ele>55.0</ele><time>2026-04-19T10:29:23.062Z</time></trkpt><trkpt lat="45.6005745" lon="11.469948"><ele>55.0</ele><time>2026-04-19T10:29:24.058Z</time></trkpt><trkpt lat="45.6006205" lon="11.4701501"><ele>55.0</ele><time>2026-04-19T10:29:25.066Z</time></trkpt><trkpt lat="45.600708" lon="11.4703453"><ele>55.0</ele><time>2026-04-19T10:29:26.062Z</time></trkpt><trkpt lat="45.6008006" lon="11.4705179"><ele>54.5</ele><time>2026-04-19T10:29:27.075Z</time></trkpt><trkpt lat="45.6008813" lon="11.4706896"><ele>54.0</ele><time>2026-04-19T10:29:28.07Z</time></trkpt><trkpt lat="45.6009596" lon="11.4708573"><ele>53.5</ele><time>2026-04-19T10:29:29.057Z</time></trkpt><trkpt lat="45.6010211" lon="11.4710321"><ele>53.0</ele><time>2026-04-19T10:29:30.054Z</time></trkpt><trkpt lat="45.60104" lon="11.4712207"><ele>53.25</ele><time>2026-04-19T10:29:31.062Z</time></trkpt><trkpt lat="45.6010164" lon="11.4714112"><ele>53.5</ele><time>2026-04-19T10:29:32.07Z</time></trkpt><trkpt lat="45.6009559" lon="11.4715961"><ele>53.75</ele><time>2026-04-19T10:29:33.063Z</time></trkpt><trkpt lat="45.6008501" lon="11.4717541"><ele>54.0</ele><time>2026-04-19T10:29:34.068Z</time></trkpt><trkpt lat="45.6007172" lon="11.4718891"><ele>54.0</ele><time>2026-04-19T10:29:35.076Z</time></trkpt><trkpt lat="45.600583" lon="11.4720169"><ele>54.0</ele><time>2026-04-19T10:29:36.068Z</time></trkpt><trkpt lat="45.6004506" lon="11.4721501"><ele>54.0</ele><time>2026-04-19T10:29:37.062Z</time></trkpt><trkpt lat="45.6003238" lon="11.4722975"><ele>54.33333333333333</ele><time>2026-04-19T10:29:38.061Z</time></trkpt><trkpt lat="45.6001963" lon="11.4724506"><ele>54.666666666666664</ele><time>2026-04-19T10:29:39.065Z</time></trkpt><trkpt lat="45.6000628" lon="11.4725932"><ele>55.0</ele><time>2026-04-19T10:29:40.057Z</time></trkpt><trkpt lat="45.5999324" lon="11.4727385"><ele>55.0</ele><time>2026-04-19T10:29:41.066Z</time></trkpt><trkpt lat="45.5998033" lon="11.4728749"><ele>55.0</ele><time>2026-04-19T10:29:42.069Z</time></trkpt><trkpt lat="45.5996794" lon="11.4730109"><ele>55.0</ele><time>2026-04-19T10:29:43.063Z</time></trkpt><trkpt lat="45.5995653" lon="11.473158"><ele>54.666666666666664</ele><time>2026-04-19T10:29:44.078Z</time></trkpt><trkpt lat="45.5994477" lon="11.4732893"><ele>54.33333333333333</ele><time>2026-04-19T10:29:45.058Z</time></trkpt><trkpt lat="45.5993295" lon="11.4734197"><ele>54.0</ele><time>2026-04-19T10:29:46.063Z</time></trkpt><trkpt lat="45.5992083" lon="11.4735519"><ele>54.0</ele><time>2026-04-19T10:29:47.067Z</time></trkpt><trkpt lat="45.5990855" lon="11.4736876"><ele>54.0</ele><time>2026-04-19T10:29:48.071Z</time></trkpt><trkpt lat="45.5989619" lon="11.4738282"><ele>54.0</ele><time>2026-04-19T10:29:49.057Z</time></trkpt><trkpt lat="45.5988439" lon="11.4739771"><ele>53.66666666666667</ele><time>2026-04-19T10:29:50.072Z</time></trkpt><trkpt lat="45.5987256" lon="11.474121"><ele>53.333333333333336</ele><time>2026-04-19T10:29:51.06Z</time></trkpt><trkpt lat="45.5986064" lon="11.474262"><ele>53.0</ele><time>2026-04-19T10:29:52.076Z</time></trkpt><trkpt lat="45.5984797" lon="11.4743986"><ele>53.0</ele><time>2026-04-19T10:29:53.058Z</time></trkpt><trkpt lat="45.5983353" lon="11.4745207"><ele>53.0</ele><time>2026-04-19T10:29:54.061Z</time></trkpt><trkpt lat="45.5981727" lon="11.4746233"><ele>53.0</ele><time>2026-04-19T10:29:55.055Z</time></trkpt><trkpt lat="45.5980009" lon="11.4747127"><ele>52.66666666666667</ele><time>2026-04-19T10:29:56.086Z</time></trkpt><trkpt lat="45.597832" lon="11.4747919"><ele>52.33333333333333</ele><time>2026-04-19T10:29:57.069Z</time></trkpt><trkpt lat="45.5976721" lon="11.4748783"><ele>52.0</ele><time>2026-04-19T10:29:58.058Z</time></trkpt><trkpt lat="45.5975187" lon="11.4749604"><ele>52.0</ele><time>2026-04-19T10:29:59.088Z</time></trkpt><trkpt lat="45.5973766" lon="11.4750675"><ele>52.0</ele><time>2026-04-19T10:30:00.065Z</time></trkpt><trkpt lat="45.5972429" lon="11.4752037"><ele>52.0</ele><time>2026-04-19T10:30:01.057Z</time></trkpt><trkpt lat="45.5971359" lon="11.4753873"><ele>52.33333333333333</ele><time>2026-04-19T10:30:02.073Z</time></trkpt><trkpt lat="45.5970407" lon="11.4755763"><ele>52.66666666666667</ele><time>2026-04-19T10:30:03.06Z</time></trkpt><trkpt lat="45.5969473" lon="11.4757499"><ele>53.0</ele><time>2026-04-19T10:30:04.05Z</time></trkpt><trkpt lat="45.5968425" lon="11.4758984"><ele>53.0</ele><time>2026-04-19T10:30:05.057Z</time></trkpt><trkpt lat="45.5967159" lon="11.4760146"><ele>53.0</ele><time>2026-04-19T10:30:06.056Z</time></trkpt><trkpt lat="45.5965719" lon="11.4761105"><ele>53.0</ele><time>2026-04-19T10:30:07.062Z</time></trkpt><trkpt lat="45.5964235" lon="11.4762146"><ele>52.66666666666667</ele><time>2026-04-19T10:30:08.061Z</time></trkpt><trkpt lat="45.5962717" lon="11.4763078"><ele>52.33333333333333</ele><time>2026-04-19T10:30:09.073Z</time></trkpt><trkpt lat="45.5961184" lon="11.4763901"><ele>52.0</ele><time>2026-04-19T10:30:10.057Z</time></trkpt><trkpt lat="45.5959686" lon="11.4764888"><ele>52.0</ele><time>2026-04-19T10:30:11.083Z</time></trkpt><trkpt lat="45.59582" lon="11.4766051"><ele>52.0</ele><time>2026-04-19T10:30:12.055Z</time></trkpt><trkpt lat="45.5956724" lon="11.4767447"><ele>52.0</ele><time>2026-04-19T10:30:13.065Z</time></trkpt><trkpt lat="45.59554" lon="11.476918"><ele>52.0</ele><time>2026-04-19T10:30:14.056Z</time></trkpt><trkpt lat="45.5954102" lon="11.4770868"><ele>52.0</ele><time>2026-04-19T10:30:15.066Z</time></trkpt><trkpt lat="45.5952829" lon="11.477247"><ele>52.0</ele><time>2026-04-19T10:30:16.069Z</time></trkpt><trkpt lat="45.5951574" lon="11.4773983"><ele>54.0</ele><time>2026-04-19T10:30:17.081Z</time></trkpt><trkpt lat="45.5950349" lon="11.4775477"><ele>56.0</ele><time>2026-04-19T10:30:18.052Z</time></trkpt><trkpt lat="45.5949196" lon="11.4777063"><ele>58.0</ele><time>2026-04-19T10:30:19.071Z</time></trkpt><trkpt lat="45.5948101" lon="11.4778527"><ele>57.75</ele><time>2026-04-19T10:30:20.066Z</time></trkpt><trkpt lat="45.59471" lon="11.4779957"><ele>57.5</ele><time>2026-04-19T10:30:21.06Z</time></trkpt><trkpt lat="45.5946119" lon="11.4781252"><ele>57.25</ele><time>2026-04-19T10:30:22.069Z</time></trkpt><trkpt lat="45.5945166" lon="11.4782385"><ele>57.0</ele><time>2026-04-19T10:30:23.057Z</time></trkpt><trkpt lat="45.5944205" lon="11.4783235"><ele>57.0</ele><time>2026-04-19T10:30:24.072Z</time></trkpt><trkpt lat="45.5943132" lon="11.478355"><ele>57.0</ele><time>2026-04-19T10:30:25.057Z</time></trkpt><trkpt lat="45.5941968" lon="11.478361"><ele>57.0</ele><time>2026-04-19T10:30:26.058Z</time></trkpt><trkpt lat="45.5940749" lon="11.4783811"><ele>57.0</ele><time>2026-04-19T10:30:27.064Z</time></trkpt><trkpt lat="45.5939511" lon="11.4784013"><ele>57.0</ele><time>2026-04-19T10:30:28.064Z</time></trkpt><trkpt lat="45.5938301" lon="11.478408"><ele>57.0</ele><time>2026-04-19T10:30:29.049Z</time></trkpt><trkpt lat="45.5937118" lon="11.47843"><ele>57.0</ele><time>2026-04-19T10:30:30.061Z</time></trkpt><trkpt lat="45.5935979" lon="11.4784479"><ele>57.0</ele><time>2026-04-19T10:30:31.061Z</time></trkpt><trkpt lat="45.5934919" lon="11.478465"><ele>56.8</ele><time>2026-04-19T10:30:32.057Z</time></trkpt><trkpt lat="45.5933943" lon="11.4784819"><ele>56.6</ele><time>2026-04-19T10:30:33.066Z</time></trkpt><trkpt lat="45.5933133" lon="11.4784746"><ele>56.39999999999999</ele><time>2026-04-19T10:30:34.054Z</time></trkpt><trkpt lat="45.5932113" lon="11.4784846"><ele>56.199999999999996</ele><time>2026-04-19T10:30:36.076Z</time></trkpt><trkpt lat="45.5931028" lon="11.4784606"><ele>56.0</ele><time>2026-04-19T10:30:40.053Z</time></trkpt><trkpt lat="45.593019" lon="11.4785474"><ele>56.0</ele><time>2026-04-19T10:30:42.051Z</time></trkpt><trkpt lat="45.5929634" lon="11.4786603"><ele>56.0</ele><time>2026-04-19T10:30:43.069Z</time></trkpt><trkpt lat="45.5928874" lon="11.4787587"><ele>56.0</ele><time>2026-04-19T10:30:44.052Z</time></trkpt><trkpt lat="45.5927859" lon="11.4788306"><ele>56.0</ele><time>2026-04-19T10:30:45.055Z</time></trkpt><trkpt lat="45.5926409" lon="11.4788482"><ele>54.333333333333336</ele><time>2026-04-19T10:30:46.061Z</time></trkpt><trkpt lat="45.5924592" lon="11.4788332"><ele>52.66666666666667</ele><time>2026-04-19T10:30:47.085Z</time></trkpt><trkpt lat="45.5922526" lon="11.4788411"><ele>51.0</ele><time>2026-04-19T10:30:48.064Z</time></trkpt><trkpt lat="45.5920324" lon="11.47885"><ele>50.66666666666667</ele><time>2026-04-19T10:30:49.063Z</time></trkpt><trkpt lat="45.5918265" lon="11.4788643"><ele>50.333333333333336</ele><time>2026-04-19T10:30:50.054Z</time></trkpt><trkpt lat="45.5916399" lon="11.4788822"><ele>50.0</ele><time>2026-04-19T10:30:51.059Z</time></trkpt><trkpt lat="45.5914655" lon="11.4789108"><ele>50.0</ele><time>2026-04-19T10:30:52.064Z</time></trkpt><trkpt lat="45.5912971" lon="11.478936"><ele>50.0</ele><time>2026-04-19T10:30:53.07Z</time></trkpt><trkpt lat="45.5911354" lon="11.4789427"><ele>50.0</ele><time>2026-04-19T10:30:54.051Z</time></trkpt><trkpt lat="45.5909813" lon="11.4789374"><ele>49.5</ele><time>2026-04-19T10:30:55.066Z</time></trkpt><trkpt lat="45.5908316" lon="11.4789361"><ele>49.0</ele><time>2026-04-19T10:30:56.051Z</time></trkpt><trkpt lat="45.5906921" lon="11.4789507"><ele>48.5</ele><time>2026-04-19T10:30:57.067Z</time></trkpt><trkpt lat="45.5905675" lon="11.4789849"><ele>48.0</ele><time>2026-04-19T10:30:58.061Z</time></trkpt><trkpt lat="45.5904551" lon="11.4790262"><ele>48.0</ele><time>2026-04-19T10:30:59.089Z</time></trkpt><trkpt lat="45.5903543" lon="11.4790789"><ele>48.0</ele><time>2026-04-19T10:31:00.053Z</time></trkpt><trkpt lat="45.5902648" lon="11.4791327"><ele>48.0</ele><time>2026-04-19T10:31:01.058Z</time></trkpt><trkpt lat="45.59019" lon="11.4791801"><ele>48.0</ele><time>2026-04-19T10:31:02.06Z</time></trkpt><trkpt lat="45.5901431" lon="11.4792408"><ele>48.0</ele><time>2026-04-19T10:31:03.061Z</time></trkpt><trkpt lat="45.5900905" lon="11.4793135"><ele>48.0</ele><time>2026-04-19T10:31:05.092Z</time></trkpt><trkpt lat="45.5900395" lon="11.4793708"><ele>48.0</ele><time>2026-04-19T10:31:07.068Z</time></trkpt><trkpt lat="45.5899727" lon="11.4794029"><ele>48.0</ele><time>2026-04-19T10:31:09.068Z</time></trkpt><trkpt lat="45.5898743" lon="11.479383"><ele>48.0</ele><time>2026-04-19T10:31:11.052Z</time></trkpt><trkpt lat="45.5897773" lon="11.4793008"><ele>48.0</ele><time>2026-04-19T10:31:13.072Z</time></trkpt><trkpt lat="45.5897514" lon="11.4791769"><ele>48.0</ele><time>2026-04-19T10:31:14.052Z</time></trkpt><trkpt lat="45.5897236" lon="11.4790039"><ele>48.0</ele><time>2026-04-19T10:31:15.06Z</time></trkpt><trkpt lat="45.5896854" lon="11.4787843"><ele>48.0</ele><time>2026-04-19T10:31:16.056Z</time></trkpt><trkpt lat="45.5896391" lon="11.4785545"><ele>48.0</ele><time>2026-04-19T10:31:17.059Z</time></trkpt><trkpt lat="45.589599" lon="11.4783254"><ele>48.25</ele><time>2026-04-19T10:31:18.075Z</time></trkpt><trkpt lat="45.5895594" lon="11.4781129"><ele>48.5</ele><time>2026-04-19T10:31:19.069Z</time></trkpt><trkpt lat="45.5895217" lon="11.4779099"><ele>48.75</ele><time>2026-04-19T10:31:20.049Z</time></trkpt><trkpt lat="45.5894826" lon="11.477707"><ele>49.0</ele><time>2026-04-19T10:31:21.062Z</time></trkpt><trkpt lat="45.5894442" lon="11.4774984"><ele>48.666666666666664</ele><time>2026-04-19T10:31:22.049Z</time></trkpt><trkpt lat="45.589412" lon="11.4772821"><ele>48.33333333333333</ele><time>2026-04-19T10:31:23.066Z</time></trkpt><trkpt lat="45.589389" lon="11.4770591"><ele>48.0</ele><time>2026-04-19T10:31:24.07Z</time></trkpt><trkpt lat="45.5893706" lon="11.4768345"><ele>48.0</ele><time>2026-04-19T10:31:25.054Z</time></trkpt><trkpt lat="45.5893512" lon="11.4766141"><ele>48.0</ele><time>2026-04-19T10:31:26.053Z</time></trkpt><trkpt lat="45.5893227" lon="11.4764045"><ele>48.0</ele><time>2026-04-19T10:31:27.059Z</time></trkpt><trkpt lat="45.5892834" lon="11.4762054"><ele>48.25</ele><time>2026-04-19T10:31:28.053Z</time></trkpt><trkpt lat="45.5892413" lon="11.476015"><ele>48.5</ele><time>2026-04-19T10:31:29.059Z</time></trkpt><trkpt lat="45.5891993" lon="11.4758271"><ele>48.75</ele><time>2026-04-19T10:31:30.051Z</time></trkpt><trkpt lat="45.589152" lon="11.4756506"><ele>49.0</ele><time>2026-04-19T10:31:31.074Z</time></trkpt><trkpt lat="45.5891119" lon="11.475486"><ele>49.25</ele><time>2026-04-19T10:31:32.055Z</time></trkpt><trkpt lat="45.5890768" lon="11.4753298"><ele>49.5</ele><time>2026-04-19T10:31:33.081Z</time></trkpt><trkpt lat="45.5890438" lon="11.4751744"><ele>49.75</ele><time>2026-04-19T10:31:34.055Z</time></trkpt><trkpt lat="45.5890095" lon="11.4750194"><ele>50.0</ele><time>2026-04-19T10:31:35.065Z</time></trkpt><trkpt lat="45.5889771" lon="11.4748608"><ele>50.0</ele><time>2026-04-19T10:31:36.048Z</time></trkpt><trkpt lat="45.5889432" lon="11.4746954"><ele>50.0</ele><time>2026-04-19T10:31:37.068Z</time></trkpt><trkpt lat="45.5889107" lon="11.4745217"><ele>50.0</ele><time>2026-04-19T10:31:38.053Z</time></trkpt><trkpt lat="45.5888777" lon="11.4743476"><ele>50.0</ele><time>2026-04-19T10:31:39.06Z</time></trkpt><trkpt lat="45.5888465" lon="11.4741743"><ele>50.0</ele><time>2026-04-19T10:31:40.051Z</time></trkpt><trkpt lat="45.5888195" lon="11.4739956"><ele>50.0</ele><time>2026-04-19T10:31:41.085Z</time></trkpt><trkpt lat="45.5887992" lon="11.4738117"><ele>50.0</ele><time>2026-04-19T10:31:42.069Z</time></trkpt><trkpt lat="45.5887876" lon="11.4736201"><ele>50.0</ele><time>2026-04-19T10:31:43.055Z</time></trkpt><trkpt lat="45.58878" lon="11.4734207"><ele>50.25</ele><time>2026-04-19T10:31:44.073Z</time></trkpt><trkpt lat="45.5887777" lon="11.4732173"><ele>50.5</ele><time>2026-04-19T10:31:45.055Z</time></trkpt><trkpt lat="45.5887765" lon="11.4730123"><ele>50.75</ele><time>2026-04-19T10:31:46.07Z</time></trkpt><trkpt lat="45.5887829" lon="11.4728157"><ele>51.0</ele><time>2026-04-19T10:31:47.063Z</time></trkpt><trkpt lat="45.5887827" lon="11.4726281"><ele>51.5</ele><time>2026-04-19T10:31:48.057Z</time></trkpt><trkpt lat="45.588768" lon="11.4724468"><ele>52.0</ele><time>2026-04-19T10:31:49.059Z</time></trkpt><trkpt lat="45.5887505" lon="11.4722769"><ele>52.5</ele><time>2026-04-19T10:31:50.071Z</time></trkpt><trkpt lat="45.5887076" lon="11.4721198"><ele>53.0</ele><time>2026-04-19T10:31:51.068Z</time></trkpt><trkpt lat="45.5886495" lon="11.4719788"><ele>53.25</ele><time>2026-04-19T10:31:52.062Z</time></trkpt><trkpt lat="45.5886033" lon="11.4718241"><ele>53.5</ele><time>2026-04-19T10:31:53.051Z</time></trkpt><trkpt lat="45.5885633" lon="11.4716577"><ele>53.75</ele><time>2026-04-19T10:31:54.055Z</time></trkpt><trkpt lat="45.5885224" lon="11.4714923"><ele>54.0</ele><time>2026-04-19T10:31:55.069Z</time></trkpt><trkpt lat="45.5884853" lon="11.4713357"><ele>54.0</ele><time>2026-04-19T10:31:56.069Z</time></trkpt><trkpt lat="45.5884555" lon="11.4711853"><ele>54.00000000000001</ele><time>2026-04-19T10:31:57.069Z</time></trkpt><trkpt lat="45.5884348" lon="11.4710448"><ele>54.00000000000001</ele><time>2026-04-19T10:31:58.054Z</time></trkpt><trkpt lat="45.5884321" lon="11.4709175"><ele>54.0</ele><time>2026-04-19T10:31:59.057Z</time></trkpt><trkpt lat="45.5884376" lon="11.4708084"><ele>54.0</ele><time>2026-04-19T10:32:00.069Z</time></trkpt><trkpt lat="45.5884376" lon="11.4706532"><ele>54.0</ele><time>2026-04-19T10:32:02.067Z</time></trkpt><trkpt lat="45.588335" lon="11.4705758"><ele>54.00000000000001</ele><time>2026-04-19T10:32:04.054Z</time></trkpt><trkpt lat="45.5882553" lon="11.4705244"><ele>54.00000000000001</ele><time>2026-04-19T10:32:05.072Z</time></trkpt><trkpt lat="45.5881892" lon="11.4704443"><ele>54.0</ele><time>2026-04-19T10:32:06.073Z</time></trkpt><trkpt lat="45.588149" lon="11.4703342"><ele>54.0</ele><time>2026-04-19T10:32:07.062Z</time></trkpt><trkpt lat="45.5881135" lon="11.470223"><ele>55.0</ele><time>2026-04-19T10:32:08.042Z</time></trkpt><trkpt lat="45.5880865" lon="11.4701062"><ele>56.00000000000001</ele><time>2026-04-19T10:32:09.06Z</time></trkpt><trkpt lat="45.5880659" lon="11.4699805"><ele>57.00000000000001</ele><time>2026-04-19T10:32:10.061Z</time></trkpt><trkpt lat="45.588048" lon="11.4698513"><ele>58.0</ele><time>2026-04-19T10:32:11.068Z</time></trkpt><trkpt lat="45.5880282" lon="11.4697241"><ele>59.0</ele><time>2026-04-19T10:32:12.062Z</time></trkpt><trkpt lat="45.5879899" lon="11.4695943"><ele>60.0</ele><time>2026-04-19T10:32:13.08Z</time></trkpt><trkpt lat="45.5879423" lon="11.4694438"><ele>61.0</ele><time>2026-04-19T10:32:14.065Z</time></trkpt><trkpt lat="45.587875" lon="11.4692857"><ele>62.0</ele><time>2026-04-19T10:32:15.068Z</time></trkpt><trkpt lat="45.5877967" lon="11.4691269"><ele>63.0</ele><time>2026-04-19T10:32:16.071Z</time></trkpt><trkpt lat="45.5877122" lon="11.4689623"><ele>63.0</ele><time>2026-04-19T10:32:17.059Z</time></trkpt><trkpt lat="45.5876156" lon="11.4687868"><ele>63.0</ele><time>2026-04-19T10:32:18.06Z</time></trkpt><trkpt lat="45.5875267" lon="11.4685919"><ele>63.0</ele><time>2026-04-19T10:32:19.059Z</time></trkpt><trkpt lat="45.587443" lon="11.468399"><ele>67.75</ele><time>2026-04-19T10:32:20.081Z</time></trkpt><trkpt lat="45.5873695" lon="11.4682126"><ele>72.5</ele><time>2026-04-19T10:32:21.081Z</time></trkpt><trkpt lat="45.5873144" lon="11.4680255"><ele>77.25</ele><time>2026-04-19T10:32:22.054Z</time></trkpt><trkpt lat="45.5872419" lon="11.4678681"><ele>82.0</ele><time>2026-04-19T10:32:23.054Z</time></trkpt><trkpt lat="45.5871857" lon="11.4677072"><ele>85.8</ele><time>2026-04-19T10:32:24.061Z</time></trkpt><trkpt lat="45.5871353" lon="11.4675605"><ele>89.6</ele><time>2026-04-19T10:32:25.054Z</time></trkpt><trkpt lat="45.5870892" lon="11.4674291"><ele>93.39999999999999</ele><time>2026-04-19T10:32:26.083Z</time></trkpt><trkpt lat="45.5870419" lon="11.4672942"><ele>97.19999999999999</ele><time>2026-04-19T10:32:27.063Z</time></trkpt><trkpt lat="45.5870313" lon="11.4671507"><ele>101.0</ele><time>2026-04-19T10:32:28.062Z</time></trkpt><trkpt lat="45.5870231" lon="11.4670092"><ele>98.6</ele><time>2026-04-19T10:32:29.066Z</time></trkpt><trkpt lat="45.586989" lon="11.4668528"><ele>96.19999999999999</ele><time>2026-04-19T10:32:30.05Z</time></trkpt><trkpt lat="45.5869564" lon="11.4667211"><ele>93.80000000000001</ele><time>2026-04-19T10:32:31.056Z</time></trkpt><trkpt lat="45.5869418" lon="11.4666032"><ele>91.4</ele><time>2026-04-19T10:32:32.074Z</time></trkpt><trkpt lat="45.5868955" lon="11.4664727"><ele>89.0</ele><time>2026-04-19T10:32:34.054Z</time></trkpt><trkpt lat="45.5868803" lon="11.4663672"><ele>89.0</ele><time>2026-04-19T10:32:36.063Z</time></trkpt><trkpt lat="45.5869721" lon="11.4664052"><ele>89.0</ele><time>2026-04-19T10:32:39.05Z</time></trkpt><trkpt lat="45.5870119" lon="11.4665302"><ele>89.0</ele><time>2026-04-19T10:32:40.063Z</time></trkpt><trkpt lat="45.587053" lon="11.4666501"><ele>89.0</ele><time>2026-04-19T10:32:41.06Z</time></trkpt><trkpt lat="45.5870902" lon="11.4667497"><ele>89.0</ele><time>2026-04-19T10:32:42.051Z</time></trkpt><trkpt lat="45.58715" lon="11.4668604"><ele>95.25</ele><time>2026-04-19T10:32:44.056Z</time></trkpt><trkpt lat="45.5872321" lon="11.466798"><ele>101.5</ele><time>2026-04-19T10:32:47.065Z</time></trkpt><trkpt lat="45.5872361" lon="11.4666199"><ele>107.75</ele><time>2026-04-19T10:32:49.071Z</time></trkpt><trkpt lat="45.5872154" lon="11.466453"><ele>114.0</ele><time>2026-04-19T10:32:50.062Z</time></trkpt><trkpt lat="45.5871944" lon="11.4662225"><ele>114.66666666666666</ele><time>2026-04-19T10:32:51.055Z</time></trkpt><trkpt lat="45.5871688" lon="11.4659521"><ele>115.33333333333333</ele><time>2026-04-19T10:32:52.059Z</time></trkpt><trkpt lat="45.5870943" lon="11.4656619"><ele>116.0</ele><time>2026-04-19T10:32:53.071Z</time></trkpt><trkpt lat="45.5869996" lon="11.465389"><ele>116.0</ele><time>2026-04-19T10:32:54.049Z</time></trkpt><trkpt lat="45.5869288" lon="11.4651511"><ele>116.0</ele><time>2026-04-19T10:32:55.07Z</time></trkpt><trkpt lat="45.5868572" lon="11.4649576"><ele>116.0</ele><time>2026-04-19T10:32:56.05Z</time></trkpt><trkpt lat="45.5868089" lon="11.464784"><ele>116.0</ele><time>2026-04-19T10:32:57.055Z</time></trkpt><trkpt lat="45.5867933" lon="11.4646175"><ele>116.0</ele><time>2026-04-19T10:32:58.059Z</time></trkpt><trkpt lat="45.5868344" lon="11.4644403"><ele>116.0</ele><time>2026-04-19T10:32:59.066Z</time></trkpt><trkpt lat="45.5868579" lon="11.4642668"><ele>116.0</ele><time>2026-04-19T10:33:00.053Z</time></trkpt><trkpt lat="45.5868906" lon="11.4640749"><ele>118.25</ele><time>2026-04-19T10:33:01.062Z</time></trkpt><trkpt lat="45.5869274" lon="11.4638692"><ele>120.5</ele><time>2026-04-19T10:33:02.085Z</time></trkpt><trkpt lat="45.5869542" lon="11.4636769"><ele>122.75</ele><time>2026-04-19T10:33:03.066Z</time></trkpt><trkpt lat="45.5869698" lon="11.4635067"><ele>125.0</ele><time>2026-04-19T10:33:04.055Z</time></trkpt><trkpt lat="45.5869788" lon="11.4633531"><ele>126.0</ele><time>2026-04-19T10:33:05.078Z</time></trkpt><trkpt lat="45.5869841" lon="11.4632048"><ele>127.0</ele><time>2026-04-19T10:33:06.074Z</time></trkpt><trkpt lat="45.5869895" lon="11.4630536"><ele>128.0</ele><time>2026-04-19T10:33:07.077Z</time></trkpt><trkpt lat="45.5869832" lon="11.4628987"><ele>129.0</ele><time>2026-04-19T10:33:08.068Z</time></trkpt><trkpt lat="45.5869786" lon="11.4627353"><ele>130.0</ele><time>2026-04-19T10:33:09.08Z</time></trkpt><trkpt lat="45.5869398" lon="11.4625817"><ele>131.8</ele><time>2026-04-19T10:33:10.053Z</time></trkpt><trkpt lat="45.5868891" lon="11.4624559"><ele>133.6</ele><time>2026-04-19T10:33:11.072Z</time></trkpt><trkpt lat="45.5868376" lon="11.4623232"><ele>135.4</ele><time>2026-04-19T10:33:12.062Z</time></trkpt><trkpt lat="45.5868262" lon="11.4621847"><ele>137.2</ele><time>2026-04-19T10:33:13.079Z</time></trkpt><trkpt lat="45.5868135" lon="11.4620485"><ele>139.0</ele><time>2026-04-19T10:33:14.07Z</time></trkpt><trkpt lat="45.5868072" lon="11.4619123"><ele>142.2</ele><time>2026-04-19T10:33:15.087Z</time></trkpt><trkpt lat="45.5868013" lon="11.4617929"><ele>145.4</ele><time>2026-04-19T10:33:16.063Z</time></trkpt><trkpt lat="45.5867526" lon="11.4616625"><ele>148.6</ele><time>2026-04-19T10:33:17.065Z</time></trkpt><trkpt lat="45.5866724" lon="11.4615448"><ele>151.8</ele><time>2026-04-19T10:33:18.057Z</time></trkpt><trkpt lat="45.5865778" lon="11.4614386"><ele>155.0</ele><time>2026-04-19T10:33:19.06Z</time></trkpt><trkpt lat="45.586475" lon="11.4613266"><ele>157.0</ele><time>2026-04-19T10:33:20.06Z</time></trkpt><trkpt lat="45.5863492" lon="11.461173"><ele>159.0</ele><time>2026-04-19T10:33:21.069Z</time></trkpt><trkpt lat="45.5862348" lon="11.4610373"><ele>161.0</ele><time>2026-04-19T10:33:22.067Z</time></trkpt><trkpt lat="45.5861356" lon="11.4609201"><ele>163.0</ele><time>2026-04-19T10:33:23.061Z</time></trkpt><trkpt lat="45.5860417" lon="11.4607867"><ele>163.0</ele><time>2026-04-19T10:33:24.08Z</time></trkpt><trkpt lat="45.5859522" lon="11.4606595"><ele>163.0</ele><time>2026-04-19T10:33:25.075Z</time></trkpt><trkpt lat="45.5858539" lon="11.4605498"><ele>163.0</ele><time>2026-04-19T10:33:26.055Z</time></trkpt><trkpt lat="45.5857711" lon="11.4604296"><ele>163.0</ele><time>2026-04-19T10:33:27.072Z</time></trkpt><trkpt lat="45.5856867" lon="11.4603035"><ele>166.75</ele><time>2026-04-19T10:33:28.063Z</time></trkpt><trkpt lat="45.5855982" lon="11.4601547"><ele>170.5</ele><time>2026-04-19T10:33:29.063Z</time></trkpt><trkpt lat="45.5855187" lon="11.4599687"><ele>174.25</ele><time>2026-04-19T10:33:30.052Z</time></trkpt><trkpt lat="45.5854434" lon="11.4597837"><ele>178.0</ele><time>2026-04-19T10:33:31.058Z</time></trkpt><trkpt lat="45.5853658" lon="11.4596195"><ele>179.75</ele><time>2026-04-19T10:33:32.054Z</time></trkpt><trkpt lat="45.5852875" lon="11.4594792"><ele>181.5</ele><time>2026-04-19T10:33:33.062Z</time></trkpt><trkpt lat="45.5852206" lon="11.4593273"><ele>183.25</ele><time>2026-04-19T10:33:34.051Z</time></trkpt><trkpt lat="45.5851181" lon="11.4592098"><ele>185.0</ele><time>2026-04-19T10:33:35.059Z</time></trkpt><trkpt lat="45.5850235" lon="11.4591316"><ele>185.0</ele><time>2026-04-19T10:33:36.058Z</time></trkpt><trkpt lat="45.5849535" lon="11.4590375"><ele>185.0</ele><time>2026-04-19T10:33:37.051Z</time></trkpt><trkpt lat="45.5849114" lon="11.458946"><ele>185.0</ele><time>2026-04-19T10:33:38.049Z</time></trkpt><trkpt lat="45.5848753" lon="11.4588703"><ele>185.0</ele><time>2026-04-19T10:33:39.06Z</time></trkpt><trkpt lat="45.5848355" lon="11.4587609"><ele>185.0</ele><time>2026-04-19T10:33:40.065Z</time></trkpt><trkpt lat="45.5848314" lon="11.4586332"><ele>185.0</ele><time>2026-04-19T10:33:41.065Z</time></trkpt><trkpt lat="45.5848411" lon="11.4584988"><ele>186.0</ele><time>2026-04-19T10:33:42.054Z</time></trkpt><trkpt lat="45.5848528" lon="11.4583648"><ele>187.0</ele><time>2026-04-19T10:33:43.071Z</time></trkpt><trkpt lat="45.5848637" lon="11.4582531"><ele>188.0</ele><time>2026-04-19T10:33:44.071Z</time></trkpt><trkpt lat="45.5848409" lon="11.4581563"><ele>189.0</ele><time>2026-04-19T10:33:45.059Z</time></trkpt><trkpt lat="45.5847776" lon="11.458067"><ele>190.0</ele><time>2026-04-19T10:33:46.05Z</time></trkpt><trkpt lat="45.5846953" lon="11.4579983"><ele>191.0</ele><time>2026-04-19T10:33:47.088Z</time></trkpt><trkpt lat="45.5846036" lon="11.4579087"><ele>194.20000000000002</ele><time>2026-04-19T10:33:48.049Z</time></trkpt><trkpt lat="45.5845126" lon="11.4577439"><ele>197.4</ele><time>2026-04-19T10:33:49.058Z</time></trkpt><trkpt lat="45.5844592" lon="11.4576175"><ele>200.6</ele><time>2026-04-19T10:33:50.068Z</time></trkpt><trkpt lat="45.5844382" lon="11.4575165"><ele>203.8</ele><time>2026-04-19T10:33:51.057Z</time></trkpt><trkpt lat="45.5843882" lon="11.4574527"><ele>207.0</ele><time>2026-04-19T10:33:52.058Z</time></trkpt><trkpt lat="45.5843131" lon="11.4574261"><ele>207.0</ele><time>2026-04-19T10:33:53.059Z</time></trkpt><trkpt lat="45.5842132" lon="11.457468"><ele>207.0</ele><time>2026-04-19T10:33:54.062Z</time></trkpt><trkpt lat="45.5841281" lon="11.4574768"><ele>207.0</ele><time>2026-04-19T10:33:55.064Z</time></trkpt><trkpt lat="45.5840243" lon="11.4574849"><ele>207.0</ele><time>2026-04-19T10:33:56.054Z</time></trkpt><trkpt lat="45.5839633" lon="11.4573336"><ele>207.0</ele><time>2026-04-19T10:33:58.054Z</time></trkpt><trkpt lat="45.5839714" lon="11.4572226"><ele>207.00000000000003</ele><time>2026-04-19T10:33:59.056Z</time></trkpt><trkpt lat="45.5839873" lon="11.4571247"><ele>207.0</ele><time>2026-04-19T10:34:00.075Z</time></trkpt><trkpt lat="45.5840134" lon="11.4570399"><ele>207.0</ele><time>2026-04-19T10:34:01.056Z</time></trkpt><trkpt lat="45.5840526" lon="11.4569642"><ele>207.0</ele><time>2026-04-19T10:34:02.052Z</time></trkpt><trkpt lat="45.5841107" lon="11.456907"><ele>207.0</ele><time>2026-04-19T10:34:03.061Z</time></trkpt><trkpt lat="45.5841768" lon="11.4568557"><ele>207.00000000000003</ele><time>2026-04-19T10:34:04.068Z</time></trkpt><trkpt lat="45.5842446" lon="11.4567948"><ele>207.0</ele><time>2026-04-19T10:34:05.067Z</time></trkpt><trkpt lat="45.5843145" lon="11.4567354"><ele>208.2</ele><time>2026-04-19T10:34:06.056Z</time></trkpt><trkpt lat="45.5843853" lon="11.4566857"><ele>209.39999999999998</ele><time>2026-04-19T10:34:07.067Z</time></trkpt><trkpt lat="45.584447" lon="11.4566456"><ele>210.60000000000002</ele><time>2026-04-19T10:34:08.053Z</time></trkpt><trkpt lat="45.5845214" lon="11.4565311"><ele>211.8</ele><time>2026-04-19T10:34:10.065Z</time></trkpt><trkpt lat="45.5844861" lon="11.4563875"><ele>213.0</ele><time>2026-04-19T10:34:12.06Z</time></trkpt><trkpt lat="45.584398" lon="11.456365"><ele>213.2</ele><time>2026-04-19T10:34:13.063Z</time></trkpt><trkpt lat="45.5842869" lon="11.4563828"><ele>213.4</ele><time>2026-04-19T10:34:14.079Z</time></trkpt><trkpt lat="45.5841842" lon="11.4564055"><ele>213.59999999999997</ele><time>2026-04-19T10:34:15.06Z</time></trkpt><trkpt lat="45.5840891" lon="11.4564088"><ele>213.79999999999998</ele><time>2026-04-19T10:34:16.054Z</time></trkpt><trkpt lat="45.5840051" lon="11.4563829"><ele>214.0</ele><time>2026-04-19T10:34:17.073Z</time></trkpt><trkpt lat="45.5839285" lon="11.4563513"><ele>214.66666666666666</ele><time>2026-04-19T10:34:18.062Z</time></trkpt><trkpt lat="45.5838683" lon="11.4562851"><ele>215.33333333333331</ele><time>2026-04-19T10:34:19.088Z</time></trkpt><trkpt lat="45.5838308" lon="11.4562035"><ele>216.0</ele><time>2026-04-19T10:34:20.055Z</time></trkpt><trkpt lat="45.5838202" lon="11.4560862"><ele>216.66666666666669</ele><time>2026-04-19T10:34:22.065Z</time></trkpt><trkpt lat="45.5837715" lon="11.4559836"><ele>217.33333333333334</ele><time>2026-04-19T10:34:26.074Z</time></trkpt><trkpt lat="45.5836912" lon="11.4559999"><ele>218.0</ele><time>2026-04-19T10:34:28.059Z</time></trkpt><trkpt lat="45.5836306" lon="11.4560335"><ele>218.4</ele><time>2026-04-19T10:34:30.058Z</time></trkpt><trkpt lat="45.583541" lon="11.45604"><ele>218.8</ele><time>2026-04-19T10:36:11.054Z</time></trkpt><trkpt lat="45.5834856" lon="11.4560858"><ele>219.2</ele><time>2026-04-19T10:36:13.05Z</time></trkpt><trkpt lat="45.5833715" lon="11.4561583"><ele>219.6</ele><time>2026-04-19T10:36:15.06Z</time></trkpt><trkpt lat="45.5832986" lon="11.4562061"><ele>220.0</ele><time>2026-04-19T10:36:16.066Z</time></trkpt><trkpt lat="45.583208" lon="11.4562585"><ele>220.33333333333331</ele><time>2026-04-19T10:36:17.068Z</time></trkpt><trkpt lat="45.5830897" lon="11.4563209"><ele>220.66666666666669</ele><time>2026-04-19T10:36:18.077Z</time></trkpt><trkpt lat="45.5829446" lon="11.4563988"><ele>221.0</ele><time>2026-04-19T10:36:19.055Z</time></trkpt><trkpt lat="45.5827833" lon="11.4564861"><ele>221.66666666666669</ele><time>2026-04-19T10:36:20.049Z</time></trkpt><trkpt lat="45.5826166" lon="11.4565769"><ele>222.33333333333331</ele><time>2026-04-19T10:36:21.063Z</time></trkpt><trkpt lat="45.5824584" lon="11.4566696"><ele>223.0</ele><time>2026-04-19T10:36:22.065Z</time></trkpt><trkpt lat="45.5823026" lon="11.4567545"><ele>223.0</ele><time>2026-04-19T10:36:23.072Z</time></trkpt><trkpt lat="45.5821451" lon="11.4568309"><ele>223.0</ele><time>2026-04-19T10:36:24.058Z</time></trkpt><trkpt lat="45.5819851" lon="11.4569043"><ele>223.0</ele><time>2026-04-19T10:36:25.06Z</time></trkpt><trkpt lat="45.5818237" lon="11.4569781"><ele>222.33333333333331</ele><time>2026-04-19T10:36:26.051Z</time></trkpt><trkpt lat="45.5816597" lon="11.4570407"><ele>221.66666666666669</ele><time>2026-04-19T10:36:27.055Z</time></trkpt><trkpt lat="45.58149" lon="11.4570568"><ele>221.0</ele><time>2026-04-19T10:36:28.065Z</time></trkpt><trkpt lat="45.5813263" lon="11.4570794"><ele>221.0</ele><time>2026-04-19T10:36:29.067Z</time></trkpt><trkpt lat="45.5811733" lon="11.4571272"><ele>221.0</ele><time>2026-04-19T10:36:30.069Z</time></trkpt><trkpt lat="45.5810274" lon="11.4571623"><ele>221.0</ele><time>2026-04-19T10:36:31.059Z</time></trkpt><trkpt lat="45.5808966" lon="11.4571888"><ele>221.0</ele><time>2026-04-19T10:36:32.067Z</time></trkpt><trkpt lat="45.5807808" lon="11.4572123"><ele>221.00000000000003</ele><time>2026-04-19T10:36:33.079Z</time></trkpt><trkpt lat="45.5806814" lon="11.4572158"><ele>221.0</ele><time>2026-04-19T10:36:34.068Z</time></trkpt><trkpt lat="45.5805946" lon="11.4572275"><ele>221.0</ele><time>2026-04-19T10:36:35.065Z</time></trkpt><trkpt lat="45.5805126" lon="11.4572423"><ele>221.0</ele><time>2026-04-19T10:36:36.06Z</time></trkpt><trkpt lat="45.5804296" lon="11.4572629"><ele>221.00000000000003</ele><time>2026-04-19T10:36:37.057Z</time></trkpt><trkpt lat="45.5803383" lon="11.4572858"><ele>221.0</ele><time>2026-04-19T10:36:38.084Z</time></trkpt><trkpt lat="45.5802379" lon="11.4573099"><ele>220.25</ele><time>2026-04-19T10:36:39.057Z</time></trkpt><trkpt lat="45.5801247" lon="11.4573092"><ele>219.5</ele><time>2026-04-19T10:36:40.071Z</time></trkpt><trkpt lat="45.5800094" lon="11.457334"><ele>218.75</ele><time>2026-04-19T10:36:41.076Z</time></trkpt><trkpt lat="45.5798906" lon="11.4573577"><ele>218.0</ele><time>2026-04-19T10:36:42.067Z</time></trkpt><trkpt lat="45.5797669" lon="11.4573852"><ele>218.0</ele><time>2026-04-19T10:36:43.067Z</time></trkpt><trkpt lat="45.5796343" lon="11.4574251"><ele>218.0</ele><time>2026-04-19T10:36:44.061Z</time></trkpt><trkpt lat="45.5794906" lon="11.4574635"><ele>218.0</ele><time>2026-04-19T10:36:45.078Z</time></trkpt><trkpt lat="45.5793419" lon="11.4574873"><ele>218.0</ele><time>2026-04-19T10:36:46.066Z</time></trkpt><trkpt lat="45.5791901" lon="11.4575109"><ele>217.33333333333334</ele><time>2026-04-19T10:36:47.072Z</time></trkpt><trkpt lat="45.5790328" lon="11.4575126"><ele>216.66666666666669</ele><time>2026-04-19T10:36:48.059Z</time></trkpt><trkpt lat="45.5788727" lon="11.4574949"><ele>216.0</ele><time>2026-04-19T10:36:49.072Z</time></trkpt><trkpt lat="45.5787114" lon="11.45746"><ele>215.0</ele><time>2026-04-19T10:36:50.064Z</time></trkpt><trkpt lat="45.5785569" lon="11.4574091"><ele>214.0</ele><time>2026-04-19T10:36:51.065Z</time></trkpt><trkpt lat="45.5784071" lon="11.4573215"><ele>213.0</ele><time>2026-04-19T10:36:52.059Z</time></trkpt><trkpt lat="45.5782625" lon="11.4572146"><ele>213.66666666666669</ele><time>2026-04-19T10:36:53.068Z</time></trkpt><trkpt lat="45.5781185" lon="11.4570924"><ele>214.33333333333334</ele><time>2026-04-19T10:36:54.085Z</time></trkpt><trkpt lat="45.5779759" lon="11.4569757"><ele>215.0</ele><time>2026-04-19T10:36:55.077Z</time></trkpt><trkpt lat="45.5778312" lon="11.4568666"><ele>215.0</ele><time>2026-04-19T10:36:56.082Z</time></trkpt><trkpt lat="45.5776883" lon="11.4567558"><ele>215.0</ele><time>2026-04-19T10:36:57.065Z</time></trkpt><trkpt lat="45.5775477" lon="11.4566318"><ele>215.0</ele><time>2026-04-19T10:36:58.055Z</time></trkpt><trkpt lat="45.5774039" lon="11.4565088"><ele>215.0</ele><time>2026-04-19T10:36:59.059Z</time></trkpt><trkpt lat="45.5772526" lon="11.456418"><ele>215.0</ele><time>2026-04-19T10:37:00.059Z</time></trkpt><trkpt lat="45.5771016" lon="11.4563333"><ele>215.0</ele><time>2026-04-19T10:37:01.059Z</time></trkpt><trkpt lat="45.5769444" lon="11.4562572"><ele>213.33333333333334</ele><time>2026-04-19T10:37:02.076Z</time></trkpt><trkpt lat="45.5767824" lon="11.456194"><ele>211.66666666666669</ele><time>2026-04-19T10:37:03.075Z</time></trkpt><trkpt lat="45.5766135" lon="11.4561585"><ele>210.0</ele><time>2026-04-19T10:37:04.059Z</time></trkpt><trkpt lat="45.5764466" lon="11.4561684"><ele>210.0</ele><time>2026-04-19T10:37:05.081Z</time></trkpt><trkpt lat="45.5762846" lon="11.4562121"><ele>210.0</ele><time>2026-04-19T10:37:06.071Z</time></trkpt><trkpt lat="45.5761312" lon="11.4562456"><ele>210.0</ele><time>2026-04-19T10:37:07.085Z</time></trkpt><trkpt lat="45.5759894" lon="11.4562983"><ele>208.75</ele><time>2026-04-19T10:37:08.076Z</time></trkpt><trkpt lat="45.5758596" lon="11.4563623"><ele>207.5</ele><time>2026-04-19T10:37:09.084Z</time></trkpt><trkpt lat="45.5757478" lon="11.4564345"><ele>206.25</ele><time>2026-04-19T10:37:10.061Z</time></trkpt><trkpt lat="45.5756423" lon="11.4565017"><ele>205.0</ele><time>2026-04-19T10:37:11.083Z</time></trkpt><trkpt lat="45.5755345" lon="11.4565503"><ele>205.0</ele><time>2026-04-19T10:37:12.073Z</time></trkpt><trkpt lat="45.5754209" lon="11.4565339"><ele>205.0</ele><time>2026-04-19T10:37:13.086Z</time></trkpt><trkpt lat="45.5753146" lon="11.4564962"><ele>205.0</ele><time>2026-04-19T10:37:14.074Z</time></trkpt><trkpt lat="45.5752216" lon="11.4564227"><ele>205.0</ele><time>2026-04-19T10:37:15.078Z</time></trkpt><trkpt lat="45.5751352" lon="11.4563334"><ele>205.0</ele><time>2026-04-19T10:37:16.057Z</time></trkpt><trkpt lat="45.5750593" lon="11.4562526"><ele>205.8</ele><time>2026-04-19T10:37:17.095Z</time></trkpt><trkpt lat="45.5749865" lon="11.4561729"><ele>206.6</ele><time>2026-04-19T10:37:18.06Z</time></trkpt><trkpt lat="45.5749035" lon="11.4561212"><ele>207.39999999999998</ele><time>2026-04-19T10:37:19.058Z</time></trkpt><trkpt lat="45.5748153" lon="11.4560798"><ele>208.2</ele><time>2026-04-19T10:37:20.063Z</time></trkpt><trkpt lat="45.5747181" lon="11.4560497"><ele>209.0</ele><time>2026-04-19T10:37:21.067Z</time></trkpt><trkpt lat="45.5746158" lon="11.4560208"><ele>207.79999999999998</ele><time>2026-04-19T10:37:22.059Z</time></trkpt><trkpt lat="45.5745157" lon="11.4559893"><ele>206.6</ele><time>2026-04-19T10:37:23.064Z</time></trkpt><trkpt lat="45.5744179" lon="11.4559344"><ele>205.4</ele><time>2026-04-19T10:37:24.069Z</time></trkpt><trkpt lat="45.5743222" lon="11.4558928"><ele>204.2</ele><time>2026-04-19T10:37:25.059Z</time></trkpt><trkpt lat="45.5742206" lon="11.4558838"><ele>203.0</ele><time>2026-04-19T10:37:26.077Z</time></trkpt><trkpt lat="45.5741211" lon="11.4558604"><ele>203.0</ele><time>2026-04-19T10:37:27.055Z</time></trkpt><trkpt lat="45.5740238" lon="11.4558321"><ele>203.0</ele><time>2026-04-19T10:37:28.064Z</time></trkpt><trkpt lat="45.5739249" lon="11.4558071"><ele>203.0</ele><time>2026-04-19T10:37:29.078Z</time></trkpt><trkpt lat="45.5738219" lon="11.4557808"><ele>203.0</ele><time>2026-04-19T10:37:30.058Z</time></trkpt><trkpt lat="45.5737154" lon="11.4557635"><ele>203.0</ele><time>2026-04-19T10:37:31.078Z</time></trkpt><trkpt lat="45.5736074" lon="11.4557503"><ele>202.60000000000002</ele><time>2026-04-19T10:37:32.074Z</time></trkpt><trkpt lat="45.5734976" lon="11.4557478"><ele>202.20000000000002</ele><time>2026-04-19T10:37:33.071Z</time></trkpt><trkpt lat="45.5733878" lon="11.4557421"><ele>201.8</ele><time>2026-04-19T10:37:34.056Z</time></trkpt><trkpt lat="45.5732764" lon="11.4557421"><ele>201.4</ele><time>2026-04-19T10:37:35.058Z</time></trkpt><trkpt lat="45.5731617" lon="11.4557606"><ele>201.0</ele><time>2026-04-19T10:37:36.058Z</time></trkpt><trkpt lat="45.5730446" lon="11.455762"><ele>201.0</ele><time>2026-04-19T10:37:37.075Z</time></trkpt><trkpt lat="45.5729275" lon="11.4557594"><ele>201.0</ele><time>2026-04-19T10:37:38.069Z</time></trkpt><trkpt lat="45.5728093" lon="11.45574"><ele>201.0</ele><time>2026-04-19T10:37:39.069Z</time></trkpt><trkpt lat="45.5726978" lon="11.4557314"><ele>201.0</ele><time>2026-04-19T10:37:40.08Z</time></trkpt><trkpt lat="45.5725962" lon="11.4557509"><ele>200.16666666666666</ele><time>2026-04-19T10:37:41.066Z</time></trkpt><trkpt lat="45.5725035" lon="11.4557133"><ele>199.33333333333331</ele><time>2026-04-19T10:37:42.065Z</time></trkpt><trkpt lat="45.5724151" lon="11.4556777"><ele>198.5</ele><time>2026-04-19T10:37:43.068Z</time></trkpt><trkpt lat="45.5723307" lon="11.4556553"><ele>197.66666666666666</ele><time>2026-04-19T10:37:44.078Z</time></trkpt><trkpt lat="45.5722536" lon="11.4555998"><ele>196.83333333333331</ele><time>2026-04-19T10:37:45.067Z</time></trkpt><trkpt lat="45.5721806" lon="11.4555468"><ele>196.0</ele><time>2026-04-19T10:37:46.051Z</time></trkpt><trkpt lat="45.5721135" lon="11.4554629"><ele>196.20000000000002</ele><time>2026-04-19T10:37:47.063Z</time></trkpt><trkpt lat="45.5720402" lon="11.4553906"><ele>196.4</ele><time>2026-04-19T10:37:48.079Z</time></trkpt><trkpt lat="45.5719803" lon="11.4552892"><ele>196.6</ele><time>2026-04-19T10:37:49.072Z</time></trkpt><trkpt lat="45.5719171" lon="11.4552011"><ele>196.8</ele><time>2026-04-19T10:37:50.089Z</time></trkpt><trkpt lat="45.5718621" lon="11.4550974"><ele>197.0</ele><time>2026-04-19T10:37:51.064Z</time></trkpt><trkpt lat="45.571792" lon="11.4550181"><ele>195.0</ele><time>2026-04-19T10:37:52.083Z</time></trkpt><trkpt lat="45.5717093" lon="11.454955"><ele>193.0</ele><time>2026-04-19T10:37:53.089Z</time></trkpt><trkpt lat="45.5716195" lon="11.4549013"><ele>191.0</ele><time>2026-04-19T10:37:54.056Z</time></trkpt><trkpt lat="45.5715282" lon="11.454851"><ele>189.0</ele><time>2026-04-19T10:37:55.07Z</time></trkpt><trkpt lat="45.5714394" lon="11.4547994"><ele>187.0</ele><time>2026-04-19T10:37:56.076Z</time></trkpt><trkpt lat="45.5713493" lon="11.4547641"><ele>187.0</ele><time>2026-04-19T10:37:57.088Z</time></trkpt><trkpt lat="45.5712706" lon="11.4546802"><ele>187.0</ele><time>2026-04-19T10:37:58.06Z</time></trkpt><trkpt lat="45.5711868" lon="11.4546114"><ele>187.0</ele><time>2026-04-19T10:37:59.086Z</time></trkpt><trkpt lat="45.5711038" lon="11.454542"><ele>187.0</ele><time>2026-04-19T10:38:00.082Z</time></trkpt><trkpt lat="45.5710217" lon="11.4544586"><ele>187.0</ele><time>2026-04-19T10:38:01.066Z</time></trkpt><trkpt lat="45.5709282" lon="11.4544057"><ele>184.0</ele><time>2026-04-19T10:38:02.07Z</time></trkpt><trkpt lat="45.5708295" lon="11.4543729"><ele>181.0</ele><time>2026-04-19T10:38:03.086Z</time></trkpt><trkpt lat="45.5707237" lon="11.4543703"><ele>178.0</ele><time>2026-04-19T10:38:04.085Z</time></trkpt><trkpt lat="45.5706143" lon="11.4543287"><ele>175.0</ele><time>2026-04-19T10:38:05.081Z</time></trkpt><trkpt lat="45.5704979" lon="11.4543463"><ele>172.0</ele><time>2026-04-19T10:38:06.066Z</time></trkpt><trkpt lat="45.5703864" lon="11.4543508"><ele>172.2</ele><time>2026-04-19T10:38:07.054Z</time></trkpt><trkpt lat="45.570283" lon="11.4543437"><ele>172.39999999999998</ele><time>2026-04-19T10:38:08.059Z</time></trkpt><trkpt lat="45.5701833" lon="11.4543267"><ele>172.60000000000002</ele><time>2026-04-19T10:38:09.06Z</time></trkpt><trkpt lat="45.5700908" lon="11.4543442"><ele>172.8</ele><time>2026-04-19T10:38:10.059Z</time></trkpt><trkpt lat="45.5700055" lon="11.4543785"><ele>173.0</ele><time>2026-04-19T10:38:11.064Z</time></trkpt><trkpt lat="45.5699282" lon="11.4544406"><ele>173.0</ele><time>2026-04-19T10:38:12.06Z</time></trkpt><trkpt lat="45.569863" lon="11.4545227"><ele>173.0</ele><time>2026-04-19T10:38:13.059Z</time></trkpt><trkpt lat="45.5697947" lon="11.4546101"><ele>173.0</ele><time>2026-04-19T10:38:14.061Z</time></trkpt><trkpt lat="45.5696843" lon="11.4546231"><ele>173.0</ele><time>2026-04-19T10:38:15.049Z</time></trkpt><trkpt lat="45.5695667" lon="11.4546501"><ele>173.0</ele><time>2026-04-19T10:38:16.068Z</time></trkpt><trkpt lat="45.5694452" lon="11.4546137"><ele>173.4</ele><time>2026-04-19T10:38:17.063Z</time></trkpt><trkpt lat="45.5693296" lon="11.4545902"><ele>173.8</ele><time>2026-04-19T10:38:18.057Z</time></trkpt><trkpt lat="45.56922" lon="11.4545846"><ele>174.2</ele><time>2026-04-19T10:38:19.07Z</time></trkpt><trkpt lat="45.5691189" lon="11.4546022"><ele>174.6</ele><time>2026-04-19T10:38:20.059Z</time></trkpt><trkpt lat="45.5690317" lon="11.4546084"><ele>175.0</ele><time>2026-04-19T10:38:21.05Z</time></trkpt><trkpt lat="45.568947" lon="11.4546296"><ele>174.33333333333334</ele><time>2026-04-19T10:38:22.069Z</time></trkpt><trkpt lat="45.5688635" lon="11.4546486"><ele>173.66666666666669</ele><time>2026-04-19T10:38:23.052Z</time></trkpt><trkpt lat="45.5687799" lon="11.4546585"><ele>173.0</ele><time>2026-04-19T10:38:24.075Z</time></trkpt><trkpt lat="45.5686962" lon="11.454658"><ele>172.33333333333334</ele><time>2026-04-19T10:38:25.058Z</time></trkpt><trkpt lat="45.5686131" lon="11.4546517"><ele>171.66666666666666</ele><time>2026-04-19T10:38:26.071Z</time></trkpt><trkpt lat="45.5685309" lon="11.4546605"><ele>171.0</ele><time>2026-04-19T10:38:27.071Z</time></trkpt><trkpt lat="45.5684454" lon="11.4546511"><ele>171.0</ele><time>2026-04-19T10:38:28.067Z</time></trkpt><trkpt lat="45.5683545" lon="11.4546122"><ele>171.0</ele><time>2026-04-19T10:38:29.081Z</time></trkpt><trkpt lat="45.568252" lon="11.4545768"><ele>171.0</ele><time>2026-04-19T10:38:30.075Z</time></trkpt><trkpt lat="45.5681377" lon="11.454547"><ele>171.0</ele><time>2026-04-19T10:38:31.059Z</time></trkpt><trkpt lat="45.5680189" lon="11.4544992"><ele>171.0</ele><time>2026-04-19T10:38:32.053Z</time></trkpt><trkpt lat="45.5679051" lon="11.4544193"><ele>169.75</ele><time>2026-04-19T10:38:33.088Z</time></trkpt><trkpt lat="45.5677945" lon="11.4543273"><ele>168.5</ele><time>2026-04-19T10:38:34.062Z</time></trkpt><trkpt lat="45.5676856" lon="11.4542357"><ele>167.25</ele><time>2026-04-19T10:38:35.057Z</time></trkpt><trkpt lat="45.5675749" lon="11.4541563"><ele>166.0</ele><time>2026-04-19T10:38:36.073Z</time></trkpt><trkpt lat="45.5674638" lon="11.4540816"><ele>166.0</ele><time>2026-04-19T10:38:37.079Z</time></trkpt><trkpt lat="45.5673573" lon="11.4540009"><ele>166.0</ele><time>2026-04-19T10:38:38.059Z</time></trkpt><trkpt lat="45.5672414" lon="11.4539468"><ele>166.0</ele><time>2026-04-19T10:38:39.084Z</time></trkpt><trkpt lat="45.5671245" lon="11.4538914"><ele>166.0</ele><time>2026-04-19T10:38:40.09Z</time></trkpt><trkpt lat="45.5669952" lon="11.4538467"><ele>165.5</ele><time>2026-04-19T10:38:41.056Z</time></trkpt><trkpt lat="45.5668686" lon="11.4538048"><ele>165.0</ele><time>2026-04-19T10:38:42.057Z</time></trkpt><trkpt lat="45.5667404" lon="11.4537644"><ele>164.5</ele><time>2026-04-19T10:38:43.098Z</time></trkpt><trkpt lat="45.5666069" lon="11.4537248"><ele>164.0</ele><time>2026-04-19T10:38:44.063Z</time></trkpt><trkpt lat="45.56647" lon="11.4537027"><ele>165.5</ele><time>2026-04-19T10:38:45.058Z</time></trkpt><trkpt lat="45.5663321" lon="11.4536721"><ele>167.0</ele><time>2026-04-19T10:38:46.073Z</time></trkpt><trkpt lat="45.5661963" lon="11.4536613"><ele>168.5</ele><time>2026-04-19T10:38:47.056Z</time></trkpt><trkpt lat="45.5660678" lon="11.4536703"><ele>170.0</ele><time>2026-04-19T10:38:48.068Z</time></trkpt><trkpt lat="45.5659411" lon="11.4536576"><ele>170.0</ele><time>2026-04-19T10:38:49.073Z</time></trkpt><trkpt lat="45.5658148" lon="11.4536143"><ele>170.0</ele><time>2026-04-19T10:38:50.078Z</time></trkpt><trkpt lat="45.5656841" lon="11.4535526"><ele>170.0</ele><time>2026-04-19T10:38:51.068Z</time></trkpt><trkpt lat="45.5655525" lon="11.4534758"><ele>170.0</ele><time>2026-04-19T10:38:52.069Z</time></trkpt><trkpt lat="45.5654235" lon="11.4533932"><ele>168.75</ele><time>2026-04-19T10:38:53.082Z</time></trkpt><trkpt lat="45.5652917" lon="11.4533216"><ele>167.5</ele><time>2026-04-19T10:38:54.069Z</time></trkpt><trkpt lat="45.565151" lon="11.4532835"><ele>166.25</ele><time>2026-04-19T10:38:55.086Z</time></trkpt><trkpt lat="45.5650069" lon="11.453282"><ele>165.0</ele><time>2026-04-19T10:38:56.056Z</time></trkpt><trkpt lat="45.564875" lon="11.45331"><ele>165.0</ele><time>2026-04-19T10:38:57.088Z</time></trkpt><trkpt lat="45.5647546" lon="11.4533324"><ele>165.0</ele><time>2026-04-19T10:38:58.08Z</time></trkpt><trkpt lat="45.5646368" lon="11.4533478"><ele>165.0</ele><time>2026-04-19T10:38:59.07Z</time></trkpt><trkpt lat="45.5645247" lon="11.4533549"><ele>165.0</ele><time>2026-04-19T10:39:00.071Z</time></trkpt><trkpt lat="45.5644138" lon="11.4533236"><ele>164.0</ele><time>2026-04-19T10:39:01.06Z</time></trkpt><trkpt lat="45.5643054" lon="11.4533182"><ele>163.0</ele><time>2026-04-19T10:39:02.063Z</time></trkpt><trkpt lat="45.5642054" lon="11.4533413"><ele>162.0</ele><time>2026-04-19T10:39:03.061Z</time></trkpt><trkpt lat="45.564112" lon="11.4533812"><ele>161.0</ele><time>2026-04-19T10:39:04.067Z</time></trkpt><trkpt lat="45.5640136" lon="11.4534243"><ele>160.0</ele><time>2026-04-19T10:39:05.08Z</time></trkpt><trkpt lat="45.5639142" lon="11.4534757"><ele>160.0</ele><time>2026-04-19T10:39:06.065Z</time></trkpt><trkpt lat="45.5638224" lon="11.4535406"><ele>160.0</ele><time>2026-04-19T10:39:07.071Z</time></trkpt><trkpt lat="45.5637385" lon="11.4536236"><ele>160.0</ele><time>2026-04-19T10:39:08.065Z</time></trkpt><trkpt lat="45.5636524" lon="11.4536952"><ele>160.0</ele><time>2026-04-19T10:39:09.078Z</time></trkpt><trkpt lat="45.5635683" lon="11.453772"><ele>160.0</ele><time>2026-04-19T10:39:10.067Z</time></trkpt><trkpt lat="45.5634859" lon="11.4538477"><ele>157.6</ele><time>2026-04-19T10:39:11.066Z</time></trkpt><trkpt lat="45.5634064" lon="11.4539128"><ele>155.2</ele><time>2026-04-19T10:39:12.057Z</time></trkpt><trkpt lat="45.5633284" lon="11.4539709"><ele>152.8</ele><time>2026-04-19T10:39:13.069Z</time></trkpt><trkpt lat="45.5632453" lon="11.4540142"><ele>150.4</ele><time>2026-04-19T10:39:14.062Z</time></trkpt><trkpt lat="45.5631576" lon="11.4540559"><ele>148.0</ele><time>2026-04-19T10:39:15.065Z</time></trkpt><trkpt lat="45.5630636" lon="11.454071"><ele>148.0</ele><time>2026-04-19T10:39:16.055Z</time></trkpt><trkpt lat="45.5629672" lon="11.4540423"><ele>148.0</ele><time>2026-04-19T10:39:17.063Z</time></trkpt><trkpt lat="45.5628787" lon="11.4540346"><ele>148.0</ele><time>2026-04-19T10:39:18.08Z</time></trkpt><trkpt lat="45.5627908" lon="11.4540058"><ele>148.0</ele><time>2026-04-19T10:39:19.053Z</time></trkpt><trkpt lat="45.5627052" lon="11.4539889"><ele>148.0</ele><time>2026-04-19T10:39:20.059Z</time></trkpt><trkpt lat="45.5626323" lon="11.4539761"><ele>148.0</ele><time>2026-04-19T10:39:21.061Z</time></trkpt><trkpt lat="45.5625157" lon="11.4539862"><ele>147.8</ele><time>2026-04-19T10:39:23.062Z</time></trkpt><trkpt lat="45.5624225" lon="11.4540417"><ele>147.60000000000002</ele><time>2026-04-19T10:39:25.075Z</time></trkpt><trkpt lat="45.5623457" lon="11.4541065"><ele>147.39999999999998</ele><time>2026-04-19T10:39:27.059Z</time></trkpt><trkpt lat="45.5622666" lon="11.4541662"><ele>147.2</ele><time>2026-04-19T10:39:29.057Z</time></trkpt><trkpt lat="45.5621832" lon="11.4542013"><ele>147.0</ele><time>2026-04-19T10:39:31.05Z</time></trkpt><trkpt lat="45.5620624" lon="11.4541952"><ele>146.0</ele><time>2026-04-19T10:39:33.081Z</time></trkpt><trkpt lat="45.5619862" lon="11.4542169"><ele>145.0</ele><time>2026-04-19T10:39:34.056Z</time></trkpt><trkpt lat="45.5619117" lon="11.4542762"><ele>144.0</ele><time>2026-04-19T10:39:35.061Z</time></trkpt><trkpt lat="45.5618321" lon="11.4543374"><ele>143.0</ele><time>2026-04-19T10:39:36.079Z</time></trkpt><trkpt lat="45.561748" lon="11.4543851"><ele>142.0</ele><time>2026-04-19T10:39:37.07Z</time></trkpt><trkpt lat="45.5616614" lon="11.4544218"><ele>141.0</ele><time>2026-04-19T10:39:38.065Z</time></trkpt><trkpt lat="45.5615693" lon="11.4544262"><ele>141.0</ele><time>2026-04-19T10:39:39.067Z</time></trkpt><trkpt lat="45.561478" lon="11.454412"><ele>141.0</ele><time>2026-04-19T10:39:40.061Z</time></trkpt><trkpt lat="45.5613888" lon="11.4543518"><ele>141.0</ele><time>2026-04-19T10:39:41.048Z</time></trkpt><trkpt lat="45.5613125" lon="11.454272"><ele>141.0</ele><time>2026-04-19T10:39:42.058Z</time></trkpt><trkpt lat="45.5612429" lon="11.4541978"><ele>141.0</ele><time>2026-04-19T10:39:43.079Z</time></trkpt><trkpt lat="45.5611847" lon="11.4541325"><ele>141.0</ele><time>2026-04-19T10:39:44.051Z</time></trkpt><trkpt lat="45.5611039" lon="11.4540342"><ele>141.0</ele><time>2026-04-19T10:39:46.052Z</time></trkpt><trkpt lat="45.5611676" lon="11.4540044"><ele>141.0</ele><time>2026-04-19T10:39:50.059Z</time></trkpt><trkpt lat="45.5613227" lon="11.4540114"><ele>141.0</ele><time>2026-04-19T10:39:52.06Z</time></trkpt><trkpt lat="45.5615598" lon="11.4539513"><ele>141.0</ele><time>2026-04-19T10:39:54.069Z</time></trkpt><trkpt lat="45.5616903" lon="11.4538746"><ele>141.0</ele><time>2026-04-19T10:39:55.061Z</time></trkpt><trkpt lat="45.5617994" lon="11.4537908"><ele>141.0</ele><time>2026-04-19T10:39:56.072Z</time></trkpt><trkpt lat="45.561887" lon="11.4537013"><ele>141.0</ele><time>2026-04-19T10:39:57.06Z</time></trkpt><trkpt lat="45.5619698" lon="11.4536152"><ele>140.5</ele><time>2026-04-19T10:39:58.065Z</time></trkpt><trkpt lat="45.5620364" lon="11.4535354"><ele>140.0</ele><time>2026-04-19T10:39:59.088Z</time></trkpt><trkpt lat="45.5620937" lon="11.4534684"><ele>139.5</ele><time>2026-04-19T10:40:00.083Z</time></trkpt><trkpt lat="45.5621373" lon="11.4533769"><ele>139.0</ele><time>2026-04-19T10:40:01.055Z</time></trkpt><trkpt lat="45.5621859" lon="11.4532775"><ele>138.5</ele><time>2026-04-19T10:40:02.079Z</time></trkpt><trkpt lat="45.5622249" lon="11.4531959"><ele>138.0</ele><time>2026-04-19T10:40:03.087Z</time></trkpt><trkpt lat="45.5622742" lon="11.4530797"><ele>138.0</ele><time>2026-04-19T10:40:05.066Z</time></trkpt><trkpt lat="45.5623133" lon="11.4529749"><ele>138.0</ele><time>2026-04-19T10:40:07.084Z</time></trkpt><trkpt lat="45.5622866" lon="11.4528467"><ele>138.0</ele><time>2026-04-19T10:40:09.053Z</time></trkpt><trkpt lat="45.5621812" lon="11.4528405"><ele>138.0</ele><time>2026-04-19T10:40:11.053Z</time></trkpt><trkpt lat="45.5621225" lon="11.4528805"><ele>138.0</ele><time>2026-04-19T10:40:12.057Z</time></trkpt><trkpt lat="45.5620512" lon="11.452918"><ele>138.0</ele><time>2026-04-19T10:40:13.07Z</time></trkpt><trkpt lat="45.5619784" lon="11.4529595"><ele>135.66666666666666</ele><time>2026-04-19T10:40:14.056Z</time></trkpt><trkpt lat="45.5618995" lon="11.4529819"><ele>133.33333333333334</ele><time>2026-04-19T10:40:15.072Z</time></trkpt><trkpt lat="45.5618141" lon="11.4529892"><ele>131.0</ele><time>2026-04-19T10:40:16.067Z</time></trkpt><trkpt lat="45.5617276" lon="11.4529613"><ele>128.66666666666669</ele><time>2026-04-19T10:40:17.06Z</time></trkpt><trkpt lat="45.5616434" lon="11.4529123"><ele>126.33333333333334</ele><time>2026-04-19T10:40:18.068Z</time></trkpt><trkpt lat="45.5615612" lon="11.4528486"><ele>124.0</ele><time>2026-04-19T10:40:19.063Z</time></trkpt><trkpt lat="45.5614731" lon="11.4528133"><ele>121.4</ele><time>2026-04-19T10:40:20.065Z</time></trkpt><trkpt lat="45.5613847" lon="11.452766"><ele>118.80000000000001</ele><time>2026-04-19T10:40:21.057Z</time></trkpt><trkpt lat="45.5612861" lon="11.4527241"><ele>116.19999999999999</ele><time>2026-04-19T10:40:22.043Z</time></trkpt><trkpt lat="45.5611813" lon="11.4526879"><ele>113.6</ele><time>2026-04-19T10:40:23.106Z</time></trkpt><trkpt lat="45.5610751" lon="11.4526526"><ele>111.0</ele><time>2026-04-19T10:40:24.074Z</time></trkpt><trkpt lat="45.5609745" lon="11.4526115"><ele>110.4</ele><time>2026-04-19T10:40:25.063Z</time></trkpt><trkpt lat="45.5608737" lon="11.4525688"><ele>109.8</ele><time>2026-04-19T10:40:26.084Z</time></trkpt><trkpt lat="45.5607729" lon="11.4525287"><ele>109.20000000000002</ele><time>2026-04-19T10:40:27.069Z</time></trkpt><trkpt lat="45.5606832" lon="11.45248"><ele>108.60000000000001</ele><time>2026-04-19T10:40:28.068Z</time></trkpt><trkpt lat="45.5606034" lon="11.4524477"><ele>108.0</ele><time>2026-04-19T10:40:29.044Z</time></trkpt><trkpt lat="45.5605652" lon="11.4523524"><ele>108.0</ele><time>2026-04-19T10:40:30.045Z</time></trkpt><trkpt lat="45.5605795" lon="11.4522272"><ele>108.00000000000001</ele><time>2026-04-19T10:40:31.055Z</time></trkpt><trkpt lat="45.5606274" lon="11.4520855"><ele>108.00000000000001</ele><time>2026-04-19T10:40:32.057Z</time></trkpt><trkpt lat="45.5606603" lon="11.4519295"><ele>108.0</ele><time>2026-04-19T10:40:33.064Z</time></trkpt><trkpt lat="45.5607017" lon="11.4517901"><ele>108.0</ele><time>2026-04-19T10:40:34.078Z</time></trkpt><trkpt lat="45.5607396" lon="11.4516566"><ele>105.4</ele><time>2026-04-19T10:40:35.071Z</time></trkpt><trkpt lat="45.5607769" lon="11.4515253"><ele>102.80000000000001</ele><time>2026-04-19T10:40:36.088Z</time></trkpt><trkpt lat="45.5608113" lon="11.4513972"><ele>100.2</ele><time>2026-04-19T10:40:37.059Z</time></trkpt><trkpt lat="45.5608485" lon="11.4512676"><ele>97.6</ele><time>2026-04-19T10:40:38.051Z</time></trkpt><trkpt lat="45.560889" lon="11.4511372"><ele>95.0</ele><time>2026-04-19T10:40:39.066Z</time></trkpt><trkpt lat="45.5609321" lon="11.4510108"><ele>95.0</ele><time>2026-04-19T10:40:40.058Z</time></trkpt><trkpt lat="45.5609729" lon="11.450885"><ele>95.0</ele><time>2026-04-19T10:40:41.076Z</time></trkpt><trkpt lat="45.5610227" lon="11.4507616"><ele>95.0</ele><time>2026-04-19T10:40:42.063Z</time></trkpt><trkpt lat="45.5611049" lon="11.4506701"><ele>95.0</ele><time>2026-04-19T10:40:43.062Z</time></trkpt><trkpt lat="45.5611954" lon="11.4506331"><ele>95.0</ele><time>2026-04-19T10:40:44.054Z</time></trkpt><trkpt lat="45.5612672" lon="11.4506132"><ele>95.0</ele><time>2026-04-19T10:40:45.057Z</time></trkpt><trkpt lat="45.5613473" lon="11.4506057"><ele>95.0</ele><time>2026-04-19T10:40:47.048Z</time></trkpt><trkpt lat="45.5614124" lon="11.4505639"><ele>95.0</ele><time>2026-04-19T10:40:50.063Z</time></trkpt><trkpt lat="45.561459" lon="11.4506354"><ele>95.0</ele><time>2026-04-19T10:40:54.061Z</time></trkpt><trkpt lat="45.5615228" lon="11.4506503"><ele>95.0</ele><time>2026-04-19T10:40:57.057Z</time></trkpt><trkpt lat="45.5615998" lon="11.4506054"><ele>95.0</ele><time>2026-04-19T10:40:59.091Z</time></trkpt><trkpt lat="45.5616499" lon="11.450541"><ele>95.0</ele><time>2026-04-19T10:41:01.065Z</time></trkpt><trkpt lat="45.5617053" lon="11.4504327"><ele>93.0</ele><time>2026-04-19T10:41:04.058Z</time></trkpt><trkpt lat="45.5617562" lon="11.4503636"><ele>91.0</ele><time>2026-04-19T10:41:06.065Z</time></trkpt><trkpt lat="45.5618114" lon="11.4502668"><ele>89.0</ele><time>2026-04-19T10:41:08.071Z</time></trkpt><trkpt lat="45.5618591" lon="11.4501607"><ele>87.0</ele><time>2026-04-19T10:41:10.076Z</time></trkpt><trkpt lat="45.5619014" lon="11.4500487"><ele>85.0</ele><time>2026-04-19T10:41:12.073Z</time></trkpt><trkpt lat="45.5619369" lon="11.4499209"><ele>83.0</ele><time>2026-04-19T10:41:14.075Z</time></trkpt><trkpt lat="45.56198" lon="11.4497892"><ele>83.0</ele><time>2026-04-19T10:41:16.073Z</time></trkpt><trkpt lat="45.5620188" lon="11.4496518"><ele>83.0</ele><time>2026-04-19T10:41:18.064Z</time></trkpt><trkpt lat="45.5620609" lon="11.4495203"><ele>83.0</ele><time>2026-04-19T10:41:20.068Z</time></trkpt><trkpt lat="45.5620977" lon="11.4493914"><ele>83.0</ele><time>2026-04-19T10:41:22.069Z</time></trkpt><trkpt lat="45.5621209" lon="11.4492658"><ele>83.0</ele><time>2026-04-19T10:41:24.052Z</time></trkpt><trkpt lat="45.5621484" lon="11.4491438"><ele>96.0</ele><time>2026-04-19T10:41:26.048Z</time></trkpt><trkpt lat="45.5621758" lon="11.4490229"><ele>96.0</ele><time>2026-04-19T10:41:28.055Z</time></trkpt><trkpt lat="45.5622063" lon="11.4489326"><ele>96.0</ele><time>2026-04-19T10:41:30.072Z</time></trkpt><trkpt lat="45.5622442" lon="11.4488416"><ele>96.0</ele><time>2026-04-19T10:41:34.079Z</time></trkpt><trkpt lat="45.5623147" lon="11.4487486"><ele>88.0</ele><time>2026-04-19T10:42:33.069Z</time></trkpt><trkpt lat="45.5622767" lon="11.4488253"><ele>96.0</ele><time>2026-04-19T10:46:34.107Z</time></trkpt></trkseg><trkseg><trkpt lat="45.5622485" lon="11.4489484"><ele>96.0</ele><time>2026-04-19T14:36:53.821Z</time></trkpt><trkpt lat="45.5622112" lon="11.4490535"><ele>96.0</ele><time>2026-04-19T14:36:55.823Z</time></trkpt><trkpt lat="45.5621839" lon="11.4491507"><ele>96.0</ele><time>2026-04-19T14:36:57.831Z</time></trkpt><trkpt lat="45.5621575" lon="11.4492522"><ele>96.0</ele><time>2026-04-19T14:36:59.834Z</time></trkpt><trkpt lat="45.5621238" lon="11.4493574"><ele>96.0</ele><time>2026-04-19T14:37:01.825Z</time></trkpt><trkpt lat="45.5620858" lon="11.4494711"><ele>96.0</ele><time>2026-04-19T14:37:03.824Z</time></trkpt><trkpt lat="45.5620392" lon="11.4496228"><ele>92.75</ele><time>2026-04-19T14:37:05.837Z</time></trkpt><trkpt lat="45.5619996" lon="11.4497683"><ele>89.5</ele><time>2026-04-19T14:37:07.835Z</time></trkpt><trkpt lat="45.5619599" lon="11.449916"><ele>86.25</ele><time>2026-04-19T14:37:09.84Z</time></trkpt><trkpt lat="45.5619181" lon="11.4500551"><ele>83.0</ele><time>2026-04-19T14:37:11.832Z</time></trkpt><trkpt lat="45.5618453" lon="11.4502348"><ele>83.0</ele><time>2026-04-19T14:37:13.852Z</time></trkpt><trkpt lat="45.5617839" lon="11.450367"><ele>83.0</ele><time>2026-04-19T14:37:14.845Z</time></trkpt><trkpt lat="45.561728" lon="11.4504705"><ele>83.0</ele><time>2026-04-19T14:37:15.848Z</time></trkpt><trkpt lat="45.5616805" lon="11.4505567"><ele>83.0</ele><time>2026-04-19T14:37:16.848Z</time></trkpt><trkpt lat="45.5615762" lon="11.4506457"><ele>83.0</ele><time>2026-04-19T14:37:22.856Z</time></trkpt><trkpt lat="45.5615004" lon="11.450632"><ele>89.0</ele><time>2026-04-19T14:37:26.831Z</time></trkpt><trkpt lat="45.5609616" lon="11.4506721"><ele>89.0</ele><time>2026-04-19T14:37:51.847Z</time></trkpt><trkpt lat="45.5609136" lon="11.4507636"><ele>89.0</ele><time>2026-04-19T14:37:52.832Z</time></trkpt><trkpt lat="45.5608856" lon="11.4508817"><ele>89.0</ele><time>2026-04-19T14:37:53.833Z</time></trkpt><trkpt lat="45.5608662" lon="11.45101"><ele>89.0</ele><time>2026-04-19T14:37:54.83Z</time></trkpt><trkpt lat="45.5608451" lon="11.4511362"><ele>89.0</ele><time>2026-04-19T14:37:55.838Z</time></trkpt><trkpt lat="45.5608215" lon="11.4512651"><ele>89.0</ele><time>2026-04-19T14:37:56.828Z</time></trkpt><trkpt lat="45.5607941" lon="11.4513843"><ele>90.0</ele><time>2026-04-19T14:37:57.827Z</time></trkpt><trkpt lat="45.5607651" lon="11.4514999"><ele>91.0</ele><time>2026-04-19T14:37:58.843Z</time></trkpt><trkpt lat="45.5607363" lon="11.4516146"><ele>92.0</ele><time>2026-04-19T14:37:59.842Z</time></trkpt><trkpt lat="45.5607103" lon="11.451729"><ele>93.0</ele><time>2026-04-19T14:38:00.831Z</time></trkpt><trkpt lat="45.5606855" lon="11.4518454"><ele>94.0</ele><time>2026-04-19T14:38:01.818Z</time></trkpt><trkpt lat="45.5606573" lon="11.4519625"><ele>95.0</ele><time>2026-04-19T14:38:02.831Z</time></trkpt><trkpt lat="45.5606307" lon="11.4520743"><ele>97.16666666666667</ele><time>2026-04-19T14:38:03.833Z</time></trkpt><trkpt lat="45.5606065" lon="11.4521717"><ele>99.33333333333334</ele><time>2026-04-19T14:38:04.826Z</time></trkpt><trkpt lat="45.560588" lon="11.452259"><ele>101.5</ele><time>2026-04-19T14:38:05.846Z</time></trkpt><trkpt lat="45.5605964" lon="11.4524354"><ele>103.66666666666667</ele><time>2026-04-19T14:38:07.835Z</time></trkpt><trkpt lat="45.5606439" lon="11.4524992"><ele>105.83333333333333</ele><time>2026-04-19T14:38:08.843Z</time></trkpt><trkpt lat="45.5607218" lon="11.452534"><ele>108.0</ele><time>2026-04-19T14:38:09.84Z</time></trkpt><trkpt lat="45.5607976" lon="11.4525466"><ele>108.0</ele><time>2026-04-19T14:38:10.835Z</time></trkpt><trkpt lat="45.5608724" lon="11.4525566"><ele>108.0</ele><time>2026-04-19T14:38:11.845Z</time></trkpt><trkpt lat="45.5609489" lon="11.4525898"><ele>108.0</ele><time>2026-04-19T14:38:12.84Z</time></trkpt><trkpt lat="45.5610281" lon="11.4526336"><ele>108.0</ele><time>2026-04-19T14:38:13.825Z</time></trkpt><trkpt lat="45.5611198" lon="11.4526752"><ele>108.0</ele><time>2026-04-19T14:38:14.832Z</time></trkpt><trkpt lat="45.561222" lon="11.4527192"><ele>108.0</ele><time>2026-04-19T14:38:15.838Z</time></trkpt><trkpt lat="45.5613318" lon="11.4527643"><ele>108.75</ele><time>2026-04-19T14:38:16.836Z</time></trkpt><trkpt lat="45.5614474" lon="11.452817"><ele>109.5</ele><time>2026-04-19T14:38:17.828Z</time></trkpt><trkpt lat="45.5615646" lon="11.4528789"><ele>110.25</ele><time>2026-04-19T14:38:18.847Z</time></trkpt><trkpt lat="45.561675" lon="11.4529322"><ele>111.0</ele><time>2026-04-19T14:38:19.835Z</time></trkpt><trkpt lat="45.5617792" lon="11.4529783"><ele>113.6</ele><time>2026-04-19T14:38:20.836Z</time></trkpt><trkpt lat="45.5618809" lon="11.4530087"><ele>116.19999999999999</ele><time>2026-04-19T14:38:21.844Z</time></trkpt><trkpt lat="45.5619781" lon="11.4530144"><ele>118.80000000000001</ele><time>2026-04-19T14:38:22.86Z</time></trkpt><trkpt lat="45.5620694" lon="11.4529823"><ele>121.4</ele><time>2026-04-19T14:38:23.832Z</time></trkpt><trkpt lat="45.5621478" lon="11.4529342"><ele>124.0</ele><time>2026-04-19T14:38:24.828Z</time></trkpt><trkpt lat="45.5622155" lon="11.4528633"><ele>124.50000000000001</ele><time>2026-04-19T14:38:25.831Z</time></trkpt><trkpt lat="45.5622776" lon="11.4528222"><ele>125.0</ele><time>2026-04-19T14:38:26.831Z</time></trkpt><trkpt lat="45.5623713" lon="11.452887"><ele>125.5</ele><time>2026-04-19T14:38:28.826Z</time></trkpt><trkpt lat="45.5623736" lon="11.4530212"><ele>126.0</ele><time>2026-04-19T14:38:30.828Z</time></trkpt><trkpt lat="45.5623271" lon="11.4530999"><ele>126.50000000000001</ele><time>2026-04-19T14:38:31.821Z</time></trkpt><trkpt lat="45.5622735" lon="11.4531806"><ele>127.0</ele><time>2026-04-19T14:38:32.835Z</time></trkpt><trkpt lat="45.562219" lon="11.4532661"><ele>126.50000000000001</ele><time>2026-04-19T14:38:33.822Z</time></trkpt><trkpt lat="45.5621688" lon="11.4533604"><ele>126.0</ele><time>2026-04-19T14:38:34.828Z</time></trkpt><trkpt lat="45.5621354" lon="11.4534707"><ele>125.5</ele><time>2026-04-19T14:38:35.829Z</time></trkpt><trkpt lat="45.5620928" lon="11.4535727"><ele>125.0</ele><time>2026-04-19T14:38:36.827Z</time></trkpt><trkpt lat="45.5620413" lon="11.4536791"><ele>124.50000000000001</ele><time>2026-04-19T14:38:37.839Z</time></trkpt><trkpt lat="45.5619769" lon="11.4537747"><ele>124.0</ele><time>2026-04-19T14:38:38.834Z</time></trkpt><trkpt lat="45.5619083" lon="11.4538716"><ele>127.4</ele><time>2026-04-19T14:38:39.819Z</time></trkpt><trkpt lat="45.5618337" lon="11.4539586"><ele>130.8</ele><time>2026-04-19T14:38:40.83Z</time></trkpt><trkpt lat="45.5617589" lon="11.4540358"><ele>134.2</ele><time>2026-04-19T14:38:41.827Z</time></trkpt><trkpt lat="45.5617011" lon="11.4541111"><ele>137.6</ele><time>2026-04-19T14:38:42.823Z</time></trkpt><trkpt lat="45.5616197" lon="11.4541434"><ele>141.0</ele><time>2026-04-19T14:38:43.827Z</time></trkpt><trkpt lat="45.5615197" lon="11.4541466"><ele>141.0</ele><time>2026-04-19T14:38:44.823Z</time></trkpt><trkpt lat="45.5614189" lon="11.4541322"><ele>141.0</ele><time>2026-04-19T14:38:45.847Z</time></trkpt><trkpt lat="45.5613331" lon="11.4540907"><ele>141.0</ele><time>2026-04-19T14:38:46.834Z</time></trkpt><trkpt lat="45.5612639" lon="11.4540462"><ele>141.0</ele><time>2026-04-19T14:38:47.825Z</time></trkpt><trkpt lat="45.5611742" lon="11.4539969"><ele>141.0</ele><time>2026-04-19T14:38:49.836Z</time></trkpt><trkpt lat="45.5611279" lon="11.4540867"><ele>141.0</ele><time>2026-04-19T14:38:51.819Z</time></trkpt><trkpt lat="45.561214" lon="11.4542019"><ele>141.0</ele><time>2026-04-19T14:38:54.842Z</time></trkpt><trkpt lat="45.5612779" lon="11.4542612"><ele>141.0</ele><time>2026-04-19T14:38:55.819Z</time></trkpt><trkpt lat="45.5613462" lon="11.4543154"><ele>141.0</ele><time>2026-04-19T14:38:56.83Z</time></trkpt><trkpt lat="45.5614243" lon="11.4543521"><ele>141.0</ele><time>2026-04-19T14:38:57.821Z</time></trkpt><trkpt lat="45.5615181" lon="11.4543686"><ele>141.0</ele><time>2026-04-19T14:38:58.83Z</time></trkpt><trkpt lat="45.561619" lon="11.4543704"><ele>141.0</ele><time>2026-04-19T14:38:59.825Z</time></trkpt><trkpt lat="45.5617172" lon="11.4543532"><ele>141.0</ele><time>2026-04-19T14:39:00.822Z</time></trkpt><trkpt lat="45.5618071" lon="11.454308"><ele>141.0</ele><time>2026-04-19T14:39:01.84Z</time></trkpt><trkpt lat="45.561884" lon="11.454264"><ele>141.0</ele><time>2026-04-19T14:39:02.829Z</time></trkpt><trkpt lat="45.5619422" lon="11.4542285"><ele>141.0</ele><time>2026-04-19T14:39:03.845Z</time></trkpt><trkpt lat="45.5620309" lon="11.4541878"><ele>141.0</ele><time>2026-04-19T14:39:05.836Z</time></trkpt><trkpt lat="45.562095" lon="11.454237"><ele>141.0</ele><time>2026-04-19T14:39:07.831Z</time></trkpt><trkpt lat="45.5620898" lon="11.4543576"><ele>141.0</ele><time>2026-04-19T14:39:09.834Z</time></trkpt><trkpt lat="45.5620053" lon="11.4544928"><ele>141.0</ele><time>2026-04-19T14:39:11.828Z</time></trkpt><trkpt lat="45.5619438" lon="11.4545685"><ele>141.0</ele><time>2026-04-19T14:39:12.835Z</time></trkpt><trkpt lat="45.5618695" lon="11.4546447"><ele>141.0</ele><time>2026-04-19T14:39:13.833Z</time></trkpt><trkpt lat="45.5617933" lon="11.4547318"><ele>141.0</ele><time>2026-04-19T14:39:14.833Z</time></trkpt><trkpt lat="45.5617158" lon="11.454835"><ele>143.75</ele><time>2026-04-19T14:39:15.843Z</time></trkpt><trkpt lat="45.5616269" lon="11.4549383"><ele>146.5</ele><time>2026-04-19T14:39:16.837Z</time></trkpt><trkpt lat="45.5615379" lon="11.4550514"><ele>149.25</ele><time>2026-04-19T14:39:17.86Z</time></trkpt><trkpt lat="45.5614524" lon="11.4551663"><ele>152.0</ele><time>2026-04-19T14:39:18.855Z</time></trkpt><trkpt lat="45.5613748" lon="11.4552783"><ele>152.0</ele><time>2026-04-19T14:39:19.834Z</time></trkpt><trkpt lat="45.5613085" lon="11.4553924"><ele>152.0</ele><time>2026-04-19T14:39:20.846Z</time></trkpt><trkpt lat="45.561265" lon="11.4555192"><ele>152.0</ele><time>2026-04-19T14:39:21.828Z</time></trkpt><trkpt lat="45.56124" lon="11.4556702"><ele>152.0</ele><time>2026-04-19T14:39:22.832Z</time></trkpt><trkpt lat="45.5612329" lon="11.4558305"><ele>152.0</ele><time>2026-04-19T14:39:23.842Z</time></trkpt><trkpt lat="45.5612337" lon="11.4559953"><ele>152.0</ele><time>2026-04-19T14:39:24.84Z</time></trkpt><trkpt lat="45.5612153" lon="11.4561609"><ele>152.0</ele><time>2026-04-19T14:39:25.841Z</time></trkpt><trkpt lat="45.5611954" lon="11.4563139"><ele>152.0</ele><time>2026-04-19T14:39:26.848Z</time></trkpt><trkpt lat="45.5611705" lon="11.4564478"><ele>152.0</ele><time>2026-04-19T14:39:27.856Z</time></trkpt><trkpt lat="45.5611465" lon="11.4565741"><ele>152.0</ele><time>2026-04-19T14:39:28.835Z</time></trkpt><trkpt lat="45.5611219" lon="11.4567023"><ele>153.0</ele><time>2026-04-19T14:39:29.834Z</time></trkpt><trkpt lat="45.5610855" lon="11.4568265"><ele>154.0</ele><time>2026-04-19T14:39:30.842Z</time></trkpt><trkpt lat="45.5610402" lon="11.4569468"><ele>155.0</ele><time>2026-04-19T14:39:31.829Z</time></trkpt><trkpt lat="45.5609929" lon="11.4570647"><ele>156.0</ele><time>2026-04-19T14:39:32.839Z</time></trkpt><trkpt lat="45.560934" lon="11.4571625"><ele>157.0</ele><time>2026-04-19T14:39:33.848Z</time></trkpt><trkpt lat="45.5608669" lon="11.4572524"><ele>157.0</ele><time>2026-04-19T14:39:34.833Z</time></trkpt><trkpt lat="45.5608055" lon="11.4573461"><ele>157.0</ele><time>2026-04-19T14:39:35.823Z</time></trkpt><trkpt lat="45.560754" lon="11.4574499"><ele>157.0</ele><time>2026-04-19T14:39:36.827Z</time></trkpt><trkpt lat="45.5606989" lon="11.4575524"><ele>157.0</ele><time>2026-04-19T14:39:37.828Z</time></trkpt><trkpt lat="45.5606565" lon="11.4576636"><ele>157.0</ele><time>2026-04-19T14:39:38.852Z</time></trkpt><trkpt lat="45.560614" lon="11.4577677"><ele>157.0</ele><time>2026-04-19T14:39:39.833Z</time></trkpt><trkpt lat="45.5605835" lon="11.4578591"><ele>156.79999999999998</ele><time>2026-04-19T14:39:40.84Z</time></trkpt><trkpt lat="45.5605419" lon="11.4579935"><ele>156.6</ele><time>2026-04-19T14:39:42.834Z</time></trkpt><trkpt lat="45.5604869" lon="11.4580946"><ele>156.39999999999998</ele><time>2026-04-19T14:39:44.848Z</time></trkpt><trkpt lat="45.5604743" lon="11.4582208"><ele>156.2</ele><time>2026-04-19T14:39:46.837Z</time></trkpt><trkpt lat="45.5604738" lon="11.4583668"><ele>156.0</ele><time>2026-04-19T14:39:48.827Z</time></trkpt><trkpt lat="45.5604028" lon="11.4585085"><ele>156.0</ele><time>2026-04-19T14:39:50.835Z</time></trkpt><trkpt lat="45.5603509" lon="11.45858"><ele>156.0</ele><time>2026-04-19T14:39:51.84Z</time></trkpt><trkpt lat="45.5602919" lon="11.4586664"><ele>156.0</ele><time>2026-04-19T14:39:52.831Z</time></trkpt><trkpt lat="45.5602245" lon="11.4587523"><ele>156.0</ele><time>2026-04-19T14:39:53.836Z</time></trkpt><trkpt lat="45.5601508" lon="11.4588355"><ele>156.0</ele><time>2026-04-19T14:39:54.826Z</time></trkpt><trkpt lat="45.5600802" lon="11.4589261"><ele>156.0</ele><time>2026-04-19T14:39:55.839Z</time></trkpt><trkpt lat="45.5600149" lon="11.4590342"><ele>154.6</ele><time>2026-04-19T14:39:56.834Z</time></trkpt><trkpt lat="45.5599391" lon="11.45914"><ele>153.2</ele><time>2026-04-19T14:39:57.833Z</time></trkpt><trkpt lat="45.5598803" lon="11.4592734"><ele>151.8</ele><time>2026-04-19T14:39:58.847Z</time></trkpt><trkpt lat="45.559833" lon="11.4594119"><ele>150.4</ele><time>2026-04-19T14:39:59.834Z</time></trkpt><trkpt lat="45.5597901" lon="11.4595366"><ele>149.0</ele><time>2026-04-19T14:40:00.883Z</time></trkpt><trkpt lat="45.5597476" lon="11.4596534"><ele>147.6</ele><time>2026-04-19T14:40:01.853Z</time></trkpt><trkpt lat="45.559711" lon="11.4597773"><ele>146.2</ele><time>2026-04-19T14:40:02.825Z</time></trkpt><trkpt lat="45.55967" lon="11.4599082"><ele>144.79999999999998</ele><time>2026-04-19T14:40:03.832Z</time></trkpt><trkpt lat="45.5596155" lon="11.4600368"><ele>143.4</ele><time>2026-04-19T14:40:04.831Z</time></trkpt><trkpt lat="45.5595633" lon="11.460173"><ele>142.0</ele><time>2026-04-19T14:40:05.829Z</time></trkpt><trkpt lat="45.5595109" lon="11.4603079"><ele>141.79999999999998</ele><time>2026-04-19T14:40:06.837Z</time></trkpt><trkpt lat="45.5594558" lon="11.4604362"><ele>141.6</ele><time>2026-04-19T14:40:07.855Z</time></trkpt><trkpt lat="45.5594039" lon="11.4605646"><ele>141.39999999999998</ele><time>2026-04-19T14:40:08.83Z</time></trkpt><trkpt lat="45.5593489" lon="11.4606862"><ele>141.2</ele><time>2026-04-19T14:40:09.835Z</time></trkpt><trkpt lat="45.5592974" lon="11.4608036"><ele>141.0</ele><time>2026-04-19T14:40:10.838Z</time></trkpt><trkpt lat="45.559256" lon="11.4609245"><ele>138.8</ele><time>2026-04-19T14:40:11.831Z</time></trkpt><trkpt lat="45.5592105" lon="11.4610229"><ele>136.6</ele><time>2026-04-19T14:40:12.827Z</time></trkpt><trkpt lat="45.5591469" lon="11.4611524"><ele>134.4</ele><time>2026-04-19T14:40:14.819Z</time></trkpt><trkpt lat="45.5590642" lon="11.4612149"><ele>132.2</ele><time>2026-04-19T14:40:16.836Z</time></trkpt><trkpt lat="45.5589611" lon="11.4611559"><ele>130.0</ele><time>2026-04-19T14:40:18.836Z</time></trkpt><trkpt lat="45.5588943" lon="11.4610928"><ele>130.0</ele><time>2026-04-19T14:40:19.834Z</time></trkpt><trkpt lat="45.5588186" lon="11.4610149"><ele>130.0</ele><time>2026-04-19T14:40:20.85Z</time></trkpt><trkpt lat="45.5587376" lon="11.4609235"><ele>130.0</ele><time>2026-04-19T14:40:21.83Z</time></trkpt><trkpt lat="45.5586456" lon="11.4608268"><ele>130.0</ele><time>2026-04-19T14:40:22.83Z</time></trkpt><trkpt lat="45.5585417" lon="11.4607191"><ele>130.0</ele><time>2026-04-19T14:40:23.828Z</time></trkpt><trkpt lat="45.5584267" lon="11.4606089"><ele>127.5</ele><time>2026-04-19T14:40:24.834Z</time></trkpt><trkpt lat="45.5583077" lon="11.460492"><ele>125.0</ele><time>2026-04-19T14:40:25.843Z</time></trkpt><trkpt lat="45.5581894" lon="11.46037"><ele>122.5</ele><time>2026-04-19T14:40:26.825Z</time></trkpt><trkpt lat="45.5580781" lon="11.4602345"><ele>120.0</ele><time>2026-04-19T14:40:27.84Z</time></trkpt><trkpt lat="45.5579586" lon="11.4601133"><ele>115.0</ele><time>2026-04-19T14:40:28.841Z</time></trkpt><trkpt lat="45.5578386" lon="11.4599933"><ele>110.0</ele><time>2026-04-19T14:40:29.841Z</time></trkpt><trkpt lat="45.5577216" lon="11.4598738"><ele>105.0</ele><time>2026-04-19T14:40:30.835Z</time></trkpt><trkpt lat="45.5576061" lon="11.4597632"><ele>100.0</ele><time>2026-04-19T14:40:31.843Z</time></trkpt><trkpt lat="45.5574974" lon="11.4596803"><ele>100.0</ele><time>2026-04-19T14:40:32.829Z</time></trkpt><trkpt lat="45.5573885" lon="11.4596531"><ele>100.0</ele><time>2026-04-19T14:40:33.828Z</time></trkpt><trkpt lat="45.5572718" lon="11.4596888"><ele>100.0</ele><time>2026-04-19T14:40:34.836Z</time></trkpt><trkpt lat="45.5571573" lon="11.4597448"><ele>100.0</ele><time>2026-04-19T14:40:35.826Z</time></trkpt><trkpt lat="45.5570446" lon="11.4597954"><ele>98.4</ele><time>2026-04-19T14:40:36.835Z</time></trkpt><trkpt lat="45.5569316" lon="11.4598406"><ele>96.8</ele><time>2026-04-19T14:40:37.878Z</time></trkpt><trkpt lat="45.5568192" lon="11.4598868"><ele>95.19999999999999</ele><time>2026-04-19T14:40:38.836Z</time></trkpt><trkpt lat="45.5567103" lon="11.4599275"><ele>93.6</ele><time>2026-04-19T14:40:39.836Z</time></trkpt><trkpt lat="45.5566154" lon="11.459959"><ele>92.0</ele><time>2026-04-19T14:40:40.829Z</time></trkpt><trkpt lat="45.5565358" lon="11.4599886"><ele>92.0</ele><time>2026-04-19T14:40:41.826Z</time></trkpt><trkpt lat="45.5564712" lon="11.4600139"><ele>92.0</ele><time>2026-04-19T14:40:42.863Z</time></trkpt><trkpt lat="45.5563975" lon="11.4600817"><ele>92.0</ele><time>2026-04-19T14:40:44.856Z</time></trkpt><trkpt lat="45.5564336" lon="11.4601858"><ele>92.0</ele><time>2026-04-19T14:40:46.838Z</time></trkpt><trkpt lat="45.5565458" lon="11.460252"><ele>92.0</ele><time>2026-04-19T14:40:48.837Z</time></trkpt><trkpt lat="45.5566278" lon="11.460277"><ele>92.0</ele><time>2026-04-19T14:40:49.848Z</time></trkpt><trkpt lat="45.5567218" lon="11.4602995"><ele>92.0</ele><time>2026-04-19T14:40:50.835Z</time></trkpt><trkpt lat="45.5568228" lon="11.4603308"><ele>92.0</ele><time>2026-04-19T14:40:51.828Z</time></trkpt><trkpt lat="45.5569232" lon="11.4603865"><ele>92.0</ele><time>2026-04-19T14:40:52.821Z</time></trkpt><trkpt lat="45.5570209" lon="11.4604678"><ele>92.0</ele><time>2026-04-19T14:40:53.845Z</time></trkpt><trkpt lat="45.5570951" lon="11.4605802"><ele>92.0</ele><time>2026-04-19T14:40:54.843Z</time></trkpt><trkpt lat="45.557128" lon="11.4607237"><ele>92.25</ele><time>2026-04-19T14:40:55.831Z</time></trkpt><trkpt lat="45.5571069" lon="11.4608988"><ele>92.5</ele><time>2026-04-19T14:40:56.835Z</time></trkpt><trkpt lat="45.5570807" lon="11.4610752"><ele>92.75</ele><time>2026-04-19T14:40:57.844Z</time></trkpt><trkpt lat="45.5570549" lon="11.4612556"><ele>93.0</ele><time>2026-04-19T14:40:58.835Z</time></trkpt><trkpt lat="45.5570451" lon="11.4614366"><ele>91.25</ele><time>2026-04-19T14:40:59.833Z</time></trkpt><trkpt lat="45.5570264" lon="11.4616205"><ele>89.5</ele><time>2026-04-19T14:41:00.839Z</time></trkpt><trkpt lat="45.5570229" lon="11.4618048"><ele>87.75</ele><time>2026-04-19T14:41:01.839Z</time></trkpt><trkpt lat="45.5570416" lon="11.4619894"><ele>86.0</ele><time>2026-04-19T14:41:02.844Z</time></trkpt><trkpt lat="45.5570579" lon="11.4621702"><ele>84.25</ele><time>2026-04-19T14:41:03.832Z</time></trkpt><trkpt lat="45.5570847" lon="11.4623484"><ele>82.5</ele><time>2026-04-19T14:41:04.833Z</time></trkpt><trkpt lat="45.5571145" lon="11.4625248"><ele>80.75</ele><time>2026-04-19T14:41:05.837Z</time></trkpt><trkpt lat="45.5571415" lon="11.4627056"><ele>79.0</ele><time>2026-04-19T14:41:06.848Z</time></trkpt><trkpt lat="45.5571673" lon="11.4628853"><ele>76.0</ele><time>2026-04-19T14:41:07.831Z</time></trkpt><trkpt lat="45.5571955" lon="11.4630643"><ele>73.0</ele><time>2026-04-19T14:41:08.829Z</time></trkpt><trkpt lat="45.5572151" lon="11.4632445"><ele>70.0</ele><time>2026-04-19T14:41:09.832Z</time></trkpt><trkpt lat="45.5572056" lon="11.4634259"><ele>67.0</ele><time>2026-04-19T14:41:10.829Z</time></trkpt><trkpt lat="45.5571863" lon="11.4636047"><ele>67.0</ele><time>2026-04-19T14:41:11.831Z</time></trkpt><trkpt lat="45.5571751" lon="11.4637781"><ele>67.0</ele><time>2026-04-19T14:41:12.834Z</time></trkpt><trkpt lat="45.557174" lon="11.4639536"><ele>67.0</ele><time>2026-04-19T14:41:13.833Z</time></trkpt><trkpt lat="45.5571814" lon="11.4641355"><ele>67.0</ele><time>2026-04-19T14:41:14.83Z</time></trkpt><trkpt lat="45.5572139" lon="11.4643215"><ele>65.5</ele><time>2026-04-19T14:41:15.826Z</time></trkpt><trkpt lat="45.5572481" lon="11.4645057"><ele>64.0</ele><time>2026-04-19T14:41:16.844Z</time></trkpt><trkpt lat="45.5572832" lon="11.4646879"><ele>62.5</ele><time>2026-04-19T14:41:17.845Z</time></trkpt><trkpt lat="45.5573154" lon="11.4648676"><ele>61.0</ele><time>2026-04-19T14:41:18.84Z</time></trkpt><trkpt lat="45.5573304" lon="11.4650504"><ele>59.5</ele><time>2026-04-19T14:41:19.833Z</time></trkpt><trkpt lat="45.557338" lon="11.4652292"><ele>58.0</ele><time>2026-04-19T14:41:20.836Z</time></trkpt><trkpt lat="45.5573381" lon="11.4653983"><ele>56.5</ele><time>2026-04-19T14:41:21.845Z</time></trkpt><trkpt lat="45.5573333" lon="11.4655595"><ele>55.0</ele><time>2026-04-19T14:41:22.848Z</time></trkpt><trkpt lat="45.5573184" lon="11.4657083"><ele>53.8</ele><time>2026-04-19T14:41:23.842Z</time></trkpt><trkpt lat="45.5572591" lon="11.4658374"><ele>52.6</ele><time>2026-04-19T14:41:24.836Z</time></trkpt><trkpt lat="45.5571911" lon="11.4659529"><ele>51.400000000000006</ele><time>2026-04-19T14:41:25.84Z</time></trkpt><trkpt lat="45.5571363" lon="11.4660747"><ele>50.2</ele><time>2026-04-19T14:41:26.831Z</time></trkpt><trkpt lat="45.5570951" lon="11.4662025"><ele>49.0</ele><time>2026-04-19T14:41:27.831Z</time></trkpt><trkpt lat="45.5570387" lon="11.466321"><ele>46.5</ele><time>2026-04-19T14:41:28.836Z</time></trkpt><trkpt lat="45.5569887" lon="11.4664517"><ele>44.0</ele><time>2026-04-19T14:41:29.827Z</time></trkpt><trkpt lat="45.5569458" lon="11.4665984"><ele>41.5</ele><time>2026-04-19T14:41:30.827Z</time></trkpt><trkpt lat="45.5568988" lon="11.4667559"><ele>39.0</ele><time>2026-04-19T14:41:31.835Z</time></trkpt><trkpt lat="45.5568551" lon="11.4669262"><ele>39.0</ele><time>2026-04-19T14:41:32.836Z</time></trkpt><trkpt lat="45.5568142" lon="11.4671063"><ele>39.0</ele><time>2026-04-19T14:41:33.829Z</time></trkpt><trkpt lat="45.5567785" lon="11.4672902"><ele>39.0</ele><time>2026-04-19T14:41:34.848Z</time></trkpt><trkpt lat="45.5567459" lon="11.4674719"><ele>39.0</ele><time>2026-04-19T14:41:35.86Z</time></trkpt><trkpt lat="45.5567187" lon="11.4676498"><ele>39.0</ele><time>2026-04-19T14:41:36.84Z</time></trkpt><trkpt lat="45.5566955" lon="11.467824"><ele>39.0</ele><time>2026-04-19T14:41:37.838Z</time></trkpt><trkpt lat="45.5566761" lon="11.4679967"><ele>39.0</ele><time>2026-04-19T14:41:38.853Z</time></trkpt><trkpt lat="45.5566608" lon="11.4681678"><ele>39.0</ele><time>2026-04-19T14:41:39.841Z</time></trkpt><trkpt lat="45.5566514" lon="11.4683402"><ele>39.0</ele><time>2026-04-19T14:41:40.845Z</time></trkpt><trkpt lat="45.5566487" lon="11.4685143"><ele>39.0</ele><time>2026-04-19T14:41:41.846Z</time></trkpt><trkpt lat="45.5566497" lon="11.4686909"><ele>39.0</ele><time>2026-04-19T14:41:42.831Z</time></trkpt><trkpt lat="45.5566526" lon="11.4688686"><ele>39.0</ele><time>2026-04-19T14:41:43.837Z</time></trkpt><trkpt lat="45.5566653" lon="11.4690433"><ele>38.75</ele><time>2026-04-19T14:41:44.837Z</time></trkpt><trkpt lat="45.5566777" lon="11.4692166"><ele>38.5</ele><time>2026-04-19T14:41:45.847Z</time></trkpt><trkpt lat="45.556695" lon="11.4693904"><ele>38.25</ele><time>2026-04-19T14:41:46.839Z</time></trkpt><trkpt lat="45.5567178" lon="11.4695665"><ele>38.0</ele><time>2026-04-19T14:41:47.845Z</time></trkpt><trkpt lat="45.5567333" lon="11.4697452"><ele>37.25</ele><time>2026-04-19T14:41:48.831Z</time></trkpt><trkpt lat="45.5567469" lon="11.4699256"><ele>36.5</ele><time>2026-04-19T14:41:49.843Z</time></trkpt><trkpt lat="45.5567536" lon="11.4701106"><ele>35.75</ele><time>2026-04-19T14:41:50.84Z</time></trkpt><trkpt lat="45.5567524" lon="11.4703014"><ele>35.0</ele><time>2026-04-19T14:41:51.83Z</time></trkpt><trkpt lat="45.556743" lon="11.4704967"><ele>35.0</ele><time>2026-04-19T14:41:52.841Z</time></trkpt><trkpt lat="45.5567298" lon="11.4706947"><ele>35.0</ele><time>2026-04-19T14:41:53.837Z</time></trkpt><trkpt lat="45.556717" lon="11.4708972"><ele>35.0</ele><time>2026-04-19T14:41:54.834Z</time></trkpt><trkpt lat="45.5566885" lon="11.4711015"><ele>35.0</ele><time>2026-04-19T14:41:55.832Z</time></trkpt><trkpt lat="45.5566606" lon="11.4713128"><ele>35.0</ele><time>2026-04-19T14:41:56.838Z</time></trkpt><trkpt lat="45.5566111" lon="11.4715266"><ele>35.0</ele><time>2026-04-19T14:41:57.84Z</time></trkpt><trkpt lat="45.5565609" lon="11.4717405"><ele>35.0</ele><time>2026-04-19T14:41:58.856Z</time></trkpt><trkpt lat="45.5565009" lon="11.4719402"><ele>35.666666666666664</ele><time>2026-04-19T14:41:59.844Z</time></trkpt><trkpt lat="45.5564372" lon="11.4721402"><ele>36.333333333333336</ele><time>2026-04-19T14:42:00.839Z</time></trkpt><trkpt lat="45.5563661" lon="11.4723375"><ele>37.0</ele><time>2026-04-19T14:42:01.86Z</time></trkpt><trkpt lat="45.5562913" lon="11.4725347"><ele>37.0</ele><time>2026-04-19T14:42:02.841Z</time></trkpt><trkpt lat="45.556204" lon="11.472729"><ele>37.0</ele><time>2026-04-19T14:42:03.844Z</time></trkpt><trkpt lat="45.5561149" lon="11.4729278"><ele>37.0</ele><time>2026-04-19T14:42:04.846Z</time></trkpt><trkpt lat="45.5560233" lon="11.4731349"><ele>37.0</ele><time>2026-04-19T14:42:05.857Z</time></trkpt><trkpt lat="45.555927" lon="11.4733472"><ele>37.0</ele><time>2026-04-19T14:42:06.865Z</time></trkpt><trkpt lat="45.5558273" lon="11.4735663"><ele>37.0</ele><time>2026-04-19T14:42:07.843Z</time></trkpt><trkpt lat="45.5557234" lon="11.4737924"><ele>37.0</ele><time>2026-04-19T14:42:08.846Z</time></trkpt><trkpt lat="45.555617" lon="11.4740251"><ele>37.0</ele><time>2026-04-19T14:42:09.833Z</time></trkpt><trkpt lat="45.5555056" lon="11.4742594"><ele>37.0</ele><time>2026-04-19T14:42:10.848Z</time></trkpt><trkpt lat="45.5553976" lon="11.4744977"><ele>37.333333333333336</ele><time>2026-04-19T14:42:11.841Z</time></trkpt><trkpt lat="45.5552948" lon="11.4747399"><ele>37.666666666666664</ele><time>2026-04-19T14:42:12.848Z</time></trkpt><trkpt lat="45.5551896" lon="11.4749797"><ele>38.0</ele><time>2026-04-19T14:42:13.849Z</time></trkpt><trkpt lat="45.5550831" lon="11.4752175"><ele>37.666666666666664</ele><time>2026-04-19T14:42:14.838Z</time></trkpt><trkpt lat="45.554976" lon="11.4754534"><ele>37.333333333333336</ele><time>2026-04-19T14:42:15.847Z</time></trkpt><trkpt lat="45.5548691" lon="11.475689"><ele>37.0</ele><time>2026-04-19T14:42:16.851Z</time></trkpt><trkpt lat="45.5547627" lon="11.4759249"><ele>37.0</ele><time>2026-04-19T14:42:17.835Z</time></trkpt><trkpt lat="45.5546546" lon="11.4761596"><ele>37.0</ele><time>2026-04-19T14:42:18.845Z</time></trkpt><trkpt lat="45.5545459" lon="11.4763943"><ele>37.0</ele><time>2026-04-19T14:42:19.842Z</time></trkpt><trkpt lat="45.554439" lon="11.4766317"><ele>36.66666666666667</ele><time>2026-04-19T14:42:20.84Z</time></trkpt><trkpt lat="45.5543297" lon="11.4768683"><ele>36.333333333333336</ele><time>2026-04-19T14:42:21.862Z</time></trkpt><trkpt lat="45.5542214" lon="11.4771045"><ele>36.0</ele><time>2026-04-19T14:42:22.854Z</time></trkpt><trkpt lat="45.5541132" lon="11.4773366"><ele>36.0</ele><time>2026-04-19T14:42:23.844Z</time></trkpt><trkpt lat="45.5540137" lon="11.4775653"><ele>36.0</ele><time>2026-04-19T14:42:24.838Z</time></trkpt><trkpt lat="45.5539134" lon="11.4777824"><ele>36.0</ele><time>2026-04-19T14:42:25.835Z</time></trkpt><trkpt lat="45.5538152" lon="11.4779977"><ele>35.666666666666664</ele><time>2026-04-19T14:42:26.834Z</time></trkpt><trkpt lat="45.5537164" lon="11.4782111"><ele>35.33333333333333</ele><time>2026-04-19T14:42:27.842Z</time></trkpt><trkpt lat="45.5536227" lon="11.4784285"><ele>35.0</ele><time>2026-04-19T14:42:28.833Z</time></trkpt><trkpt lat="45.5535348" lon="11.4786506"><ele>35.0</ele><time>2026-04-19T14:42:29.838Z</time></trkpt><trkpt lat="45.5534505" lon="11.4788766"><ele>35.0</ele><time>2026-04-19T14:42:30.846Z</time></trkpt><trkpt lat="45.5533772" lon="11.479112"><ele>35.0</ele><time>2026-04-19T14:42:31.856Z</time></trkpt><trkpt lat="45.5533129" lon="11.4793545"><ele>34.666666666666664</ele><time>2026-04-19T14:42:32.832Z</time></trkpt><trkpt lat="45.5532547" lon="11.4796021"><ele>34.333333333333336</ele><time>2026-04-19T14:42:33.856Z</time></trkpt><trkpt lat="45.5532083" lon="11.4798557"><ele>34.0</ele><time>2026-04-19T14:42:34.844Z</time></trkpt><trkpt lat="45.5531668" lon="11.480112"><ele>34.0</ele><time>2026-04-19T14:42:35.849Z</time></trkpt><trkpt lat="45.5531362" lon="11.4803718"><ele>34.0</ele><time>2026-04-19T14:42:36.846Z</time></trkpt><trkpt lat="45.5531168" lon="11.480634"><ele>34.0</ele><time>2026-04-19T14:42:37.839Z</time></trkpt><trkpt lat="45.5531045" lon="11.4808984"><ele>34.0</ele><time>2026-04-19T14:42:38.841Z</time></trkpt><trkpt lat="45.5531118" lon="11.4811673"><ele>34.0</ele><time>2026-04-19T14:42:39.837Z</time></trkpt><trkpt lat="45.5531188" lon="11.4814393"><ele>34.0</ele><time>2026-04-19T14:42:40.85Z</time></trkpt><trkpt lat="45.553131" lon="11.4817147"><ele>34.333333333333336</ele><time>2026-04-19T14:42:41.856Z</time></trkpt><trkpt lat="45.5531467" lon="11.4819935"><ele>34.666666666666664</ele><time>2026-04-19T14:42:42.86Z</time></trkpt><trkpt lat="45.5531646" lon="11.4822751"><ele>35.0</ele><time>2026-04-19T14:42:43.854Z</time></trkpt><trkpt lat="45.5531839" lon="11.4825604"><ele>35.666666666666664</ele><time>2026-04-19T14:42:44.852Z</time></trkpt><trkpt lat="45.5532026" lon="11.4828485"><ele>36.333333333333336</ele><time>2026-04-19T14:42:45.849Z</time></trkpt><trkpt lat="45.5532215" lon="11.4831368"><ele>37.0</ele><time>2026-04-19T14:42:46.851Z</time></trkpt><trkpt lat="45.5532414" lon="11.4834246"><ele>37.66666666666667</ele><time>2026-04-19T14:42:47.842Z</time></trkpt><trkpt lat="45.5532611" lon="11.4837102"><ele>38.333333333333336</ele><time>2026-04-19T14:42:48.849Z</time></trkpt><trkpt lat="45.5532797" lon="11.4839905"><ele>39.0</ele><time>2026-04-19T14:42:49.853Z</time></trkpt><trkpt lat="45.5532985" lon="11.4842648"><ele>40.333333333333336</ele><time>2026-04-19T14:42:50.857Z</time></trkpt><trkpt lat="45.5533088" lon="11.4845314"><ele>41.66666666666667</ele><time>2026-04-19T14:42:51.846Z</time></trkpt><trkpt lat="45.5533301" lon="11.4847732"><ele>43.0</ele><time>2026-04-19T14:42:52.832Z</time></trkpt><trkpt lat="45.5533383" lon="11.4850015"><ele>43.0</ele><time>2026-04-19T14:42:53.872Z</time></trkpt><trkpt lat="45.5533436" lon="11.485211"><ele>43.0</ele><time>2026-04-19T14:42:54.841Z</time></trkpt><trkpt lat="45.553352" lon="11.485399"><ele>43.0</ele><time>2026-04-19T14:42:55.847Z</time></trkpt><trkpt lat="45.5533595" lon="11.4855649"><ele>43.0</ele><time>2026-04-19T14:42:56.854Z</time></trkpt><trkpt lat="45.5533673" lon="11.485712"><ele>43.0</ele><time>2026-04-19T14:42:57.834Z</time></trkpt><trkpt lat="45.5533906" lon="11.4858392"><ele>43.0</ele><time>2026-04-19T14:42:58.841Z</time></trkpt><trkpt lat="45.553381" lon="11.4859763"><ele>43.0</ele><time>2026-04-19T14:42:59.828Z</time></trkpt><trkpt lat="45.55339" lon="11.4861212"><ele>43.0</ele><time>2026-04-19T14:43:00.838Z</time></trkpt><trkpt lat="45.5534014" lon="11.4862875"><ele>43.0</ele><time>2026-04-19T14:43:01.842Z</time></trkpt><trkpt lat="45.5534177" lon="11.4864675"><ele>44.0</ele><time>2026-04-19T14:43:02.852Z</time></trkpt><trkpt lat="45.553429" lon="11.486658"><ele>45.0</ele><time>2026-04-19T14:43:03.846Z</time></trkpt><trkpt lat="45.5534448" lon="11.4868481"><ele>46.0</ele><time>2026-04-19T14:43:04.838Z</time></trkpt><trkpt lat="45.5534623" lon="11.4870363"><ele>47.0</ele><time>2026-04-19T14:43:05.846Z</time></trkpt><trkpt lat="45.5534742" lon="11.4872246"><ele>47.5</ele><time>2026-04-19T14:43:06.839Z</time></trkpt><trkpt lat="45.5534828" lon="11.4874145"><ele>48.0</ele><time>2026-04-19T14:43:07.848Z</time></trkpt><trkpt lat="45.5534908" lon="11.4876059"><ele>48.5</ele><time>2026-04-19T14:43:08.836Z</time></trkpt><trkpt lat="45.5534981" lon="11.4878027"><ele>49.0</ele><time>2026-04-19T14:43:09.855Z</time></trkpt><trkpt lat="45.5534747" lon="11.4879959"><ele>46.75</ele><time>2026-04-19T14:43:10.857Z</time></trkpt><trkpt lat="45.5534013" lon="11.488163"><ele>44.5</ele><time>2026-04-19T14:43:11.837Z</time></trkpt><trkpt lat="45.5533204" lon="11.4883208"><ele>42.25</ele><time>2026-04-19T14:43:12.842Z</time></trkpt><trkpt lat="45.5532087" lon="11.4884454"><ele>40.0</ele><time>2026-04-19T14:43:13.822Z</time></trkpt><trkpt lat="45.5530883" lon="11.4885525"><ele>40.0</ele><time>2026-04-19T14:43:14.85Z</time></trkpt><trkpt lat="45.5529782" lon="11.488664"><ele>40.0</ele><time>2026-04-19T14:43:15.839Z</time></trkpt><trkpt lat="45.5528736" lon="11.4887761"><ele>40.0</ele><time>2026-04-19T14:43:16.836Z</time></trkpt><trkpt lat="45.5527695" lon="11.4888851"><ele>40.0</ele><time>2026-04-19T14:43:17.836Z</time></trkpt><trkpt lat="45.5526588" lon="11.4889783"><ele>40.75</ele><time>2026-04-19T14:43:18.838Z</time></trkpt><trkpt lat="45.5525546" lon="11.4890758"><ele>41.5</ele><time>2026-04-19T14:43:19.829Z</time></trkpt><trkpt lat="45.5524507" lon="11.4891666"><ele>42.25</ele><time>2026-04-19T14:43:20.827Z</time></trkpt><trkpt lat="45.5523546" lon="11.489253"><ele>43.0</ele><time>2026-04-19T14:43:21.837Z</time></trkpt><trkpt lat="45.5522727" lon="11.4893186"><ele>43.0</ele><time>2026-04-19T14:43:22.848Z</time></trkpt><trkpt lat="45.5522005" lon="11.4893876"><ele>43.0</ele><time>2026-04-19T14:43:23.848Z</time></trkpt><trkpt lat="45.5521267" lon="11.4894453"><ele>43.0</ele><time>2026-04-19T14:43:24.843Z</time></trkpt><trkpt lat="45.5520493" lon="11.489512"><ele>43.0</ele><time>2026-04-19T14:43:25.847Z</time></trkpt><trkpt lat="45.551961" lon="11.4895888"><ele>43.0</ele><time>2026-04-19T14:43:26.836Z</time></trkpt><trkpt lat="45.5518583" lon="11.4896681"><ele>41.75</ele><time>2026-04-19T14:43:27.832Z</time></trkpt><trkpt lat="45.5517483" lon="11.4897599"><ele>40.5</ele><time>2026-04-19T14:43:28.834Z</time></trkpt><trkpt lat="45.551632" lon="11.4898611"><ele>39.25</ele><time>2026-04-19T14:43:29.847Z</time></trkpt><trkpt lat="45.5515158" lon="11.4899777"><ele>38.0</ele><time>2026-04-19T14:43:30.838Z</time></trkpt><trkpt lat="45.5513904" lon="11.4900703"><ele>38.0</ele><time>2026-04-19T14:43:31.846Z</time></trkpt><trkpt lat="45.5512704" lon="11.4901706"><ele>38.0</ele><time>2026-04-19T14:43:32.829Z</time></trkpt><trkpt lat="45.5511448" lon="11.4902589"><ele>38.0</ele><time>2026-04-19T14:43:33.825Z</time></trkpt><trkpt lat="45.5510145" lon="11.4903388"><ele>38.0</ele><time>2026-04-19T14:43:34.822Z</time></trkpt><trkpt lat="45.5508866" lon="11.4904228"><ele>37.5</ele><time>2026-04-19T14:43:35.83Z</time></trkpt><trkpt lat="45.5507658" lon="11.4905109"><ele>37.0</ele><time>2026-04-19T14:43:36.836Z</time></trkpt><trkpt lat="45.5506415" lon="11.4905741"><ele>36.5</ele><time>2026-04-19T14:43:37.831Z</time></trkpt><trkpt lat="45.5505156" lon="11.4906194"><ele>36.0</ele><time>2026-04-19T14:43:38.823Z</time></trkpt><trkpt lat="45.5503909" lon="11.4906586"><ele>37.5</ele><time>2026-04-19T14:43:39.831Z</time></trkpt><trkpt lat="45.5502654" lon="11.4906938"><ele>39.0</ele><time>2026-04-19T14:43:40.826Z</time></trkpt><trkpt lat="45.5501374" lon="11.4907302"><ele>40.5</ele><time>2026-04-19T14:43:41.844Z</time></trkpt><trkpt lat="45.5500165" lon="11.4907926"><ele>42.0</ele><time>2026-04-19T14:43:42.831Z</time></trkpt><trkpt lat="45.5498966" lon="11.4908501"><ele>42.0</ele><time>2026-04-19T14:43:43.828Z</time></trkpt><trkpt lat="45.5497785" lon="11.4909059"><ele>42.0</ele><time>2026-04-19T14:43:44.822Z</time></trkpt><trkpt lat="45.5496596" lon="11.4909709"><ele>42.0</ele><time>2026-04-19T14:43:45.82Z</time></trkpt><trkpt lat="45.5495444" lon="11.4910268"><ele>42.0</ele><time>2026-04-19T14:43:46.84Z</time></trkpt><trkpt lat="45.5494322" lon="11.4910879"><ele>41.75</ele><time>2026-04-19T14:43:47.833Z</time></trkpt><trkpt lat="45.5493199" lon="11.4911648"><ele>41.5</ele><time>2026-04-19T14:43:48.84Z</time></trkpt><trkpt lat="45.5492078" lon="11.4912463"><ele>41.25</ele><time>2026-04-19T14:43:49.859Z</time></trkpt><trkpt lat="45.5491011" lon="11.4913319"><ele>41.0</ele><time>2026-04-19T14:43:50.827Z</time></trkpt><trkpt lat="45.5489837" lon="11.4913877"><ele>40.75</ele><time>2026-04-19T14:43:51.825Z</time></trkpt><trkpt lat="45.5488833" lon="11.4914858"><ele>40.5</ele><time>2026-04-19T14:43:52.825Z</time></trkpt><trkpt lat="45.5487848" lon="11.4915849"><ele>40.25</ele><time>2026-04-19T14:43:53.829Z</time></trkpt><trkpt lat="45.5486828" lon="11.4916748"><ele>40.0</ele><time>2026-04-19T14:43:54.832Z</time></trkpt><trkpt lat="45.5485797" lon="11.4917669"><ele>40.0</ele><time>2026-04-19T14:43:55.827Z</time></trkpt><trkpt lat="45.5484786" lon="11.4918612"><ele>40.0</ele><time>2026-04-19T14:43:56.83Z</time></trkpt><trkpt lat="45.5483869" lon="11.4919673"><ele>40.0</ele><time>2026-04-19T14:43:57.83Z</time></trkpt><trkpt lat="45.5482884" lon="11.4920517"><ele>40.0</ele><time>2026-04-19T14:43:58.834Z</time></trkpt><trkpt lat="45.5482022" lon="11.4921523"><ele>39.333333333333336</ele><time>2026-04-19T14:43:59.838Z</time></trkpt><trkpt lat="45.5481194" lon="11.4922336"><ele>38.66666666666667</ele><time>2026-04-19T14:44:00.846Z</time></trkpt><trkpt lat="45.5480464" lon="11.4922963"><ele>38.0</ele><time>2026-04-19T14:44:01.828Z</time></trkpt><trkpt lat="45.5479837" lon="11.4923275"><ele>37.333333333333336</ele><time>2026-04-19T14:44:02.83Z</time></trkpt><trkpt lat="45.5479034" lon="11.4923516"><ele>36.666666666666664</ele><time>2026-04-19T14:44:05.825Z</time></trkpt><trkpt lat="45.547817" lon="11.4923535"><ele>36.0</ele><time>2026-04-19T14:44:07.826Z</time></trkpt><trkpt lat="45.5477493" lon="11.4923657"><ele>36.0</ele><time>2026-04-19T14:44:08.859Z</time></trkpt><trkpt lat="45.5476767" lon="11.4923966"><ele>36.0</ele><time>2026-04-19T14:44:09.833Z</time></trkpt><trkpt lat="45.5476084" lon="11.4924667"><ele>36.0</ele><time>2026-04-19T14:44:10.829Z</time></trkpt><trkpt lat="45.5475713" lon="11.4925721"><ele>36.0</ele><time>2026-04-19T14:44:11.823Z</time></trkpt><trkpt lat="45.5475764" lon="11.4926865"><ele>36.0</ele><time>2026-04-19T14:44:12.827Z</time></trkpt><trkpt lat="45.547599" lon="11.4927894"><ele>36.0</ele><time>2026-04-19T14:44:13.824Z</time></trkpt><trkpt lat="45.5476387" lon="11.4928932"><ele>35.5</ele><time>2026-04-19T14:44:14.829Z</time></trkpt><trkpt lat="45.5477006" lon="11.4929893"><ele>35.0</ele><time>2026-04-19T14:44:15.849Z</time></trkpt><trkpt lat="45.5477667" lon="11.4931013"><ele>34.5</ele><time>2026-04-19T14:44:16.831Z</time></trkpt><trkpt lat="45.547824" lon="11.4932555"><ele>34.0</ele><time>2026-04-19T14:44:17.847Z</time></trkpt><trkpt lat="45.5478745" lon="11.493447"><ele>33.333333333333336</ele><time>2026-04-19T14:44:18.844Z</time></trkpt><trkpt lat="45.547929" lon="11.4936606"><ele>32.666666666666664</ele><time>2026-04-19T14:44:19.832Z</time></trkpt><trkpt lat="45.5479896" lon="11.493892"><ele>32.0</ele><time>2026-04-19T14:44:20.829Z</time></trkpt><trkpt lat="45.5480591" lon="11.4941378"><ele>32.0</ele><time>2026-04-19T14:44:21.827Z</time></trkpt><trkpt lat="45.5481214" lon="11.4943974"><ele>32.0</ele><time>2026-04-19T14:44:22.826Z</time></trkpt><trkpt lat="45.5481809" lon="11.4946611"><ele>32.0</ele><time>2026-04-19T14:44:23.829Z</time></trkpt><trkpt lat="45.5482436" lon="11.4949227"><ele>32.0</ele><time>2026-04-19T14:44:24.833Z</time></trkpt><trkpt lat="45.5483084" lon="11.4951781"><ele>32.0</ele><time>2026-04-19T14:44:25.83Z</time></trkpt><trkpt lat="45.5483659" lon="11.4954314"><ele>32.0</ele><time>2026-04-19T14:44:26.842Z</time></trkpt><trkpt lat="45.5484226" lon="11.4956806"><ele>32.33333333333333</ele><time>2026-04-19T14:44:27.835Z</time></trkpt><trkpt lat="45.5484795" lon="11.4959256"><ele>32.666666666666664</ele><time>2026-04-19T14:44:28.83Z</time></trkpt><trkpt lat="45.5485384" lon="11.4961679"><ele>33.0</ele><time>2026-04-19T14:44:29.832Z</time></trkpt><trkpt lat="45.5485974" lon="11.4964134"><ele>32.666666666666664</ele><time>2026-04-19T14:44:30.831Z</time></trkpt><trkpt lat="45.5486523" lon="11.4966648"><ele>32.33333333333333</ele><time>2026-04-19T14:44:31.835Z</time></trkpt><trkpt lat="45.5487118" lon="11.4969176"><ele>32.0</ele><time>2026-04-19T14:44:32.83Z</time></trkpt><trkpt lat="45.54877" lon="11.4971732"><ele>32.0</ele><time>2026-04-19T14:44:33.838Z</time></trkpt><trkpt lat="45.548835" lon="11.4974282"><ele>32.0</ele><time>2026-04-19T14:44:34.837Z</time></trkpt><trkpt lat="45.5488986" lon="11.4976856"><ele>32.0</ele><time>2026-04-19T14:44:35.831Z</time></trkpt><trkpt lat="45.5489598" lon="11.4979431"><ele>32.666666666666664</ele><time>2026-04-19T14:44:36.836Z</time></trkpt><trkpt lat="45.5490182" lon="11.4981988"><ele>33.333333333333336</ele><time>2026-04-19T14:44:37.849Z</time></trkpt><trkpt lat="45.5490776" lon="11.4984505"><ele>34.0</ele><time>2026-04-19T14:44:38.829Z</time></trkpt><trkpt lat="45.549134" lon="11.498701"><ele>34.0</ele><time>2026-04-19T14:44:39.837Z</time></trkpt><trkpt lat="45.5491852" lon="11.4989518"><ele>34.0</ele><time>2026-04-19T14:44:40.84Z</time></trkpt><trkpt lat="45.5492528" lon="11.499191"><ele>34.0</ele><time>2026-04-19T14:44:41.833Z</time></trkpt><trkpt lat="45.549309" lon="11.4994321"><ele>33.66666666666667</ele><time>2026-04-19T14:44:42.838Z</time></trkpt><trkpt lat="45.5493612" lon="11.4996693"><ele>33.333333333333336</ele><time>2026-04-19T14:44:43.835Z</time></trkpt><trkpt lat="45.5494128" lon="11.4998882"><ele>33.0</ele><time>2026-04-19T14:44:44.846Z</time></trkpt><trkpt lat="45.5494587" lon="11.5000904"><ele>33.0</ele><time>2026-04-19T14:44:45.855Z</time></trkpt><trkpt lat="45.5495004" lon="11.500285"><ele>33.0</ele><time>2026-04-19T14:44:46.84Z</time></trkpt><trkpt lat="45.5495337" lon="11.5004785"><ele>33.0</ele><time>2026-04-19T14:44:47.827Z</time></trkpt><trkpt lat="45.5495766" lon="11.500669"><ele>33.0</ele><time>2026-04-19T14:44:48.835Z</time></trkpt><trkpt lat="45.5496154" lon="11.5008633"><ele>33.0</ele><time>2026-04-19T14:44:49.828Z</time></trkpt><trkpt lat="45.5496525" lon="11.5010583"><ele>33.0</ele><time>2026-04-19T14:44:50.855Z</time></trkpt><trkpt lat="45.5496929" lon="11.501249"><ele>33.0</ele><time>2026-04-19T14:44:51.849Z</time></trkpt><trkpt lat="45.5497296" lon="11.5014435"><ele>33.0</ele><time>2026-04-19T14:44:52.827Z</time></trkpt><trkpt lat="45.5497497" lon="11.5016365"><ele>33.0</ele><time>2026-04-19T14:44:53.829Z</time></trkpt><trkpt lat="45.549752" lon="11.5018184"><ele>33.0</ele><time>2026-04-19T14:44:54.828Z</time></trkpt><trkpt lat="45.549713" lon="11.5019858"><ele>33.0</ele><time>2026-04-19T14:44:55.83Z</time></trkpt><trkpt lat="45.5496428" lon="11.5021392"><ele>33.0</ele><time>2026-04-19T14:44:56.837Z</time></trkpt><trkpt lat="45.5495533" lon="11.5022825"><ele>32.25</ele><time>2026-04-19T14:44:57.833Z</time></trkpt><trkpt lat="45.5494399" lon="11.5024004"><ele>31.5</ele><time>2026-04-19T14:44:58.83Z</time></trkpt><trkpt lat="45.5493133" lon="11.502502"><ele>30.75</ele><time>2026-04-19T14:44:59.847Z</time></trkpt><trkpt lat="45.5491748" lon="11.5025908"><ele>30.0</ele><time>2026-04-19T14:45:00.846Z</time></trkpt><trkpt lat="45.5490293" lon="11.5026796"><ele>30.0</ele><time>2026-04-19T14:45:01.849Z</time></trkpt><trkpt lat="45.5488817" lon="11.5027777"><ele>30.0</ele><time>2026-04-19T14:45:02.838Z</time></trkpt><trkpt lat="45.548729" lon="11.5028786"><ele>30.0</ele><time>2026-04-19T14:45:03.836Z</time></trkpt><trkpt lat="45.5485729" lon="11.5029842"><ele>30.666666666666664</ele><time>2026-04-19T14:45:04.824Z</time></trkpt><trkpt lat="45.5484141" lon="11.5030931"><ele>31.333333333333332</ele><time>2026-04-19T14:45:05.833Z</time></trkpt><trkpt lat="45.5482541" lon="11.5032091"><ele>32.0</ele><time>2026-04-19T14:45:06.832Z</time></trkpt><trkpt lat="45.5480912" lon="11.5033309"><ele>32.0</ele><time>2026-04-19T14:45:07.828Z</time></trkpt><trkpt lat="45.5479258" lon="11.5034571"><ele>32.0</ele><time>2026-04-19T14:45:08.842Z</time></trkpt><trkpt lat="45.5477596" lon="11.5035891"><ele>32.0</ele><time>2026-04-19T14:45:09.835Z</time></trkpt><trkpt lat="45.5475939" lon="11.5037289"><ele>31.666666666666664</ele><time>2026-04-19T14:45:10.837Z</time></trkpt><trkpt lat="45.5474278" lon="11.5038783"><ele>31.333333333333336</ele><time>2026-04-19T14:45:11.834Z</time></trkpt><trkpt lat="45.5472564" lon="11.504033"><ele>31.0</ele><time>2026-04-19T14:45:12.835Z</time></trkpt><trkpt lat="45.5470813" lon="11.5041964"><ele>31.666666666666668</ele><time>2026-04-19T14:45:13.831Z</time></trkpt><trkpt lat="45.546904" lon="11.5043626"><ele>32.333333333333336</ele><time>2026-04-19T14:45:14.827Z</time></trkpt><trkpt lat="45.5467277" lon="11.5045287"><ele>33.0</ele><time>2026-04-19T14:45:15.84Z</time></trkpt><trkpt lat="45.5465552" lon="11.50469"><ele>33.0</ele><time>2026-04-19T14:45:16.838Z</time></trkpt><trkpt lat="45.5463842" lon="11.5048445"><ele>33.0</ele><time>2026-04-19T14:45:17.853Z</time></trkpt><trkpt lat="45.5462158" lon="11.5050004"><ele>33.0</ele><time>2026-04-19T14:45:18.83Z</time></trkpt><trkpt lat="45.5460489" lon="11.5051588"><ele>33.0</ele><time>2026-04-19T14:45:19.829Z</time></trkpt><trkpt lat="45.545882" lon="11.5053165"><ele>33.0</ele><time>2026-04-19T14:45:20.828Z</time></trkpt><trkpt lat="45.5457163" lon="11.5054752"><ele>33.0</ele><time>2026-04-19T14:45:21.833Z</time></trkpt><trkpt lat="45.5455551" lon="11.5056358"><ele>33.333333333333336</ele><time>2026-04-19T14:45:22.839Z</time></trkpt><trkpt lat="45.5453979" lon="11.505786"><ele>33.66666666666667</ele><time>2026-04-19T14:45:23.846Z</time></trkpt><trkpt lat="45.5452456" lon="11.5059237"><ele>34.0</ele><time>2026-04-19T14:45:24.831Z</time></trkpt><trkpt lat="45.545088" lon="11.5060212"><ele>34.0</ele><time>2026-04-19T14:45:25.85Z</time></trkpt><trkpt lat="45.5449229" lon="11.506092"><ele>34.0</ele><time>2026-04-19T14:45:26.843Z</time></trkpt><trkpt lat="45.5447562" lon="11.5061294"><ele>34.0</ele><time>2026-04-19T14:45:27.834Z</time></trkpt><trkpt lat="45.5445873" lon="11.5060797"><ele>32.66666666666667</ele><time>2026-04-19T14:45:28.841Z</time></trkpt><trkpt lat="45.5444237" lon="11.5060523"><ele>31.333333333333336</ele><time>2026-04-19T14:45:29.845Z</time></trkpt><trkpt lat="45.5442659" lon="11.5059998"><ele>30.0</ele><time>2026-04-19T14:45:30.867Z</time></trkpt><trkpt lat="45.5441091" lon="11.5059514"><ele>30.0</ele><time>2026-04-19T14:45:31.848Z</time></trkpt><trkpt lat="45.5439555" lon="11.5059159"><ele>30.0</ele><time>2026-04-19T14:45:32.865Z</time></trkpt><trkpt lat="45.5438097" lon="11.5058975"><ele>30.0</ele><time>2026-04-19T14:45:33.86Z</time></trkpt><trkpt lat="45.5436744" lon="11.5059011"><ele>30.0</ele><time>2026-04-19T14:45:34.83Z</time></trkpt><trkpt lat="45.5435453" lon="11.5059383"><ele>29.75</ele><time>2026-04-19T14:45:35.839Z</time></trkpt><trkpt lat="45.5434348" lon="11.5060266"><ele>29.5</ele><time>2026-04-19T14:45:36.826Z</time></trkpt><trkpt lat="45.5433333" lon="11.5061324"><ele>29.25</ele><time>2026-04-19T14:45:37.839Z</time></trkpt><trkpt lat="45.5432684" lon="11.5062762"><ele>29.0</ele><time>2026-04-19T14:45:38.845Z</time></trkpt><trkpt lat="45.5432337" lon="11.5064307"><ele>29.0</ele><time>2026-04-19T14:45:39.848Z</time></trkpt><trkpt lat="45.5432106" lon="11.506561"><ele>29.0</ele><time>2026-04-19T14:45:40.853Z</time></trkpt><trkpt lat="45.5432025" lon="11.5066532"><ele>29.0</ele><time>2026-04-19T14:45:41.835Z</time></trkpt><trkpt lat="45.5431942" lon="11.5068433"><ele>29.0</ele><time>2026-04-19T14:45:47.83Z</time></trkpt><trkpt lat="45.5431526" lon="11.5069216"><ele>29.0</ele><time>2026-04-19T14:45:49.834Z</time></trkpt><trkpt lat="45.5430595" lon="11.5070268"><ele>29.4</ele><time>2026-04-19T14:45:51.833Z</time></trkpt><trkpt lat="45.5429995" lon="11.5071046"><ele>29.799999999999997</ele><time>2026-04-19T14:45:52.858Z</time></trkpt><trkpt lat="45.5429402" lon="11.5071981"><ele>30.200000000000003</ele><time>2026-04-19T14:45:53.84Z</time></trkpt><trkpt lat="45.5428835" lon="11.5073062"><ele>30.6</ele><time>2026-04-19T14:45:54.835Z</time></trkpt><trkpt lat="45.542805" lon="11.5073935"><ele>31.0</ele><time>2026-04-19T14:45:55.838Z</time></trkpt><trkpt lat="45.5427019" lon="11.507452"><ele>31.0</ele><time>2026-04-19T14:45:56.838Z</time></trkpt><trkpt lat="45.5425937" lon="11.5075074"><ele>31.0</ele><time>2026-04-19T14:45:57.831Z</time></trkpt><trkpt lat="45.5424876" lon="11.5075588"><ele>31.0</ele><time>2026-04-19T14:45:58.857Z</time></trkpt><trkpt lat="45.5423814" lon="11.5076112"><ele>31.0</ele><time>2026-04-19T14:45:59.849Z</time></trkpt><trkpt lat="45.5422688" lon="11.5076687"><ele>31.0</ele><time>2026-04-19T14:46:00.826Z</time></trkpt><trkpt lat="45.5421497" lon="11.5077351"><ele>31.0</ele><time>2026-04-19T14:46:01.843Z</time></trkpt><trkpt lat="45.5420251" lon="11.5077968"><ele>31.0</ele><time>2026-04-19T14:46:02.826Z</time></trkpt><trkpt lat="45.541897" lon="11.5078538"><ele>31.0</ele><time>2026-04-19T14:46:03.823Z</time></trkpt><trkpt lat="45.541768" lon="11.5079126"><ele>31.0</ele><time>2026-04-19T14:46:04.84Z</time></trkpt><trkpt lat="45.5416365" lon="11.5079695"><ele>31.0</ele><time>2026-04-19T14:46:05.838Z</time></trkpt><trkpt lat="45.5414969" lon="11.5080216"><ele>31.0</ele><time>2026-04-19T14:46:06.854Z</time></trkpt><trkpt lat="45.5413478" lon="11.5080584"><ele>31.0</ele><time>2026-04-19T14:46:07.852Z</time></trkpt><trkpt lat="45.5411934" lon="11.5080858"><ele>30.666666666666668</ele><time>2026-04-19T14:46:08.83Z</time></trkpt><trkpt lat="45.5410308" lon="11.5081099"><ele>30.333333333333336</ele><time>2026-04-19T14:46:09.832Z</time></trkpt><trkpt lat="45.5408602" lon="11.508122"><ele>30.0</ele><time>2026-04-19T14:46:10.829Z</time></trkpt><trkpt lat="45.5406849" lon="11.5081316"><ele>30.0</ele><time>2026-04-19T14:46:11.838Z</time></trkpt><trkpt lat="45.5405072" lon="11.5081478"><ele>30.0</ele><time>2026-04-19T14:46:12.834Z</time></trkpt><trkpt lat="45.5403294" lon="11.5081521"><ele>30.0</ele><time>2026-04-19T14:46:13.846Z</time></trkpt><trkpt lat="45.5401509" lon="11.5081441"><ele>30.333333333333336</ele><time>2026-04-19T14:46:14.831Z</time></trkpt><trkpt lat="45.5399707" lon="11.5081393"><ele>30.666666666666668</ele><time>2026-04-19T14:46:15.852Z</time></trkpt><trkpt lat="45.5397858" lon="11.5081257"><ele>31.0</ele><time>2026-04-19T14:46:16.832Z</time></trkpt><trkpt lat="45.5395948" lon="11.5081069"><ele>31.333333333333336</ele><time>2026-04-19T14:46:17.835Z</time></trkpt><trkpt lat="45.5393968" lon="11.508087"><ele>31.666666666666664</ele><time>2026-04-19T14:46:18.833Z</time></trkpt><trkpt lat="45.5391914" lon="11.5080681"><ele>32.0</ele><time>2026-04-19T14:46:19.845Z</time></trkpt><trkpt lat="45.5389753" lon="11.5080535"><ele>32.0</ele><time>2026-04-19T14:46:20.836Z</time></trkpt><trkpt lat="45.5387468" lon="11.5080361"><ele>32.0</ele><time>2026-04-19T14:46:21.835Z</time></trkpt><trkpt lat="45.5385063" lon="11.5080066"><ele>33.5</ele><time>2026-04-19T14:46:22.831Z</time></trkpt><trkpt lat="45.5382608" lon="11.5079722"><ele>35.0</ele><time>2026-04-19T14:46:23.826Z</time></trkpt><trkpt lat="45.5380143" lon="11.5079402"><ele>35.5</ele><time>2026-04-19T14:46:24.837Z</time></trkpt><trkpt lat="45.5377731" lon="11.5078965"><ele>36.0</ele><time>2026-04-19T14:46:25.83Z</time></trkpt><trkpt lat="45.5375387" lon="11.5078621"><ele>36.0</ele><time>2026-04-19T14:46:26.845Z</time></trkpt><trkpt lat="45.5373068" lon="11.5078336"><ele>36.0</ele><time>2026-04-19T14:46:27.844Z</time></trkpt><trkpt lat="45.5370765" lon="11.507803"><ele>37.0</ele><time>2026-04-19T14:46:28.839Z</time></trkpt><trkpt lat="45.5368482" lon="11.5077748"><ele>38.0</ele><time>2026-04-19T14:46:29.831Z</time></trkpt><trkpt lat="45.5366218" lon="11.5077663"><ele>38.0</ele><time>2026-04-19T14:46:30.826Z</time></trkpt><trkpt lat="45.536394" lon="11.5077633"><ele>38.0</ele><time>2026-04-19T14:46:31.837Z</time></trkpt><trkpt lat="45.5361638" lon="11.5077803"><ele>37.0</ele><time>2026-04-19T14:46:32.828Z</time></trkpt><trkpt lat="45.5359344" lon="11.5078028"><ele>36.0</ele><time>2026-04-19T14:46:33.852Z</time></trkpt><trkpt lat="45.5357075" lon="11.5078272"><ele>36.0</ele><time>2026-04-19T14:46:34.86Z</time></trkpt><trkpt lat="45.5354823" lon="11.5078619"><ele>36.0</ele><time>2026-04-19T14:46:35.835Z</time></trkpt><trkpt lat="45.5352615" lon="11.5078968"><ele>36.0</ele><time>2026-04-19T14:46:36.828Z</time></trkpt><trkpt lat="45.5350472" lon="11.5079289"><ele>35.333333333333336</ele><time>2026-04-19T14:46:37.833Z</time></trkpt><trkpt lat="45.5348418" lon="11.5079473"><ele>34.66666666666667</ele><time>2026-04-19T14:46:38.831Z</time></trkpt><trkpt lat="45.534646" lon="11.5079711"><ele>34.0</ele><time>2026-04-19T14:46:39.84Z</time></trkpt><trkpt lat="45.5344596" lon="11.5079966"><ele>34.0</ele><time>2026-04-19T14:46:40.855Z</time></trkpt><trkpt lat="45.5342778" lon="11.5080216"><ele>34.0</ele><time>2026-04-19T14:46:41.837Z</time></trkpt><trkpt lat="45.5340983" lon="11.5080532"><ele>34.0</ele><time>2026-04-19T14:46:42.835Z</time></trkpt><trkpt lat="45.5339196" lon="11.5080884"><ele>34.0</ele><time>2026-04-19T14:46:43.837Z</time></trkpt><trkpt lat="45.5337458" lon="11.5081541"><ele>34.0</ele><time>2026-04-19T14:46:44.84Z</time></trkpt><trkpt lat="45.5335713" lon="11.5082303"><ele>34.0</ele><time>2026-04-19T14:46:45.837Z</time></trkpt><trkpt lat="45.5333963" lon="11.5083332"><ele>34.333333333333336</ele><time>2026-04-19T14:46:46.856Z</time></trkpt><trkpt lat="45.5332136" lon="11.5084505"><ele>34.666666666666664</ele><time>2026-04-19T14:46:47.829Z</time></trkpt><trkpt lat="45.5330273" lon="11.5085791"><ele>35.0</ele><time>2026-04-19T14:46:48.83Z</time></trkpt><trkpt lat="45.5328403" lon="11.5087101"><ele>34.33333333333333</ele><time>2026-04-19T14:46:49.835Z</time></trkpt><trkpt lat="45.5326642" lon="11.50885"><ele>33.666666666666664</ele><time>2026-04-19T14:46:50.823Z</time></trkpt><trkpt lat="45.5324922" lon="11.5089804"><ele>33.0</ele><time>2026-04-19T14:46:51.832Z</time></trkpt><trkpt lat="45.5323179" lon="11.5091083"><ele>33.0</ele><time>2026-04-19T14:46:52.83Z</time></trkpt><trkpt lat="45.5321408" lon="11.5092342"><ele>33.0</ele><time>2026-04-19T14:46:53.85Z</time></trkpt><trkpt lat="45.5319609" lon="11.5093576"><ele>33.0</ele><time>2026-04-19T14:46:54.828Z</time></trkpt><trkpt lat="45.5317788" lon="11.5094784"><ele>32.666666666666664</ele><time>2026-04-19T14:46:55.832Z</time></trkpt><trkpt lat="45.531597" lon="11.5095932"><ele>32.33333333333333</ele><time>2026-04-19T14:46:56.827Z</time></trkpt><trkpt lat="45.5314105" lon="11.5097005"><ele>32.0</ele><time>2026-04-19T14:46:57.831Z</time></trkpt><trkpt lat="45.5312094" lon="11.5097712"><ele>31.0</ele><time>2026-04-19T14:46:58.826Z</time></trkpt><trkpt lat="45.531013" lon="11.5098186"><ele>30.0</ele><time>2026-04-19T14:46:59.832Z</time></trkpt><trkpt lat="45.5308244" lon="11.5098479"><ele>29.0</ele><time>2026-04-19T14:47:00.834Z</time></trkpt><trkpt lat="45.5306356" lon="11.5098548"><ele>29.0</ele><time>2026-04-19T14:47:01.827Z</time></trkpt><trkpt lat="45.5304428" lon="11.5098308"><ele>29.0</ele><time>2026-04-19T14:47:02.829Z</time></trkpt><trkpt lat="45.5302482" lon="11.5097891"><ele>29.0</ele><time>2026-04-19T14:47:03.833Z</time></trkpt><trkpt lat="45.5300527" lon="11.5097285"><ele>29.333333333333332</ele><time>2026-04-19T14:47:04.834Z</time></trkpt><trkpt lat="45.5298542" lon="11.5096607"><ele>29.666666666666664</ele><time>2026-04-19T14:47:05.841Z</time></trkpt><trkpt lat="45.5296511" lon="11.5095825"><ele>30.0</ele><time>2026-04-19T14:47:06.832Z</time></trkpt><trkpt lat="45.52944" lon="11.5095024"><ele>32.0</ele><time>2026-04-19T14:47:07.832Z</time></trkpt><trkpt lat="45.5292182" lon="11.5094192"><ele>34.0</ele><time>2026-04-19T14:47:08.827Z</time></trkpt><trkpt lat="45.5289871" lon="11.5093365"><ele>34.0</ele><time>2026-04-19T14:47:09.837Z</time></trkpt><trkpt lat="45.5287542" lon="11.5092365"><ele>34.0</ele><time>2026-04-19T14:47:10.83Z</time></trkpt><trkpt lat="45.5285188" lon="11.5091475"><ele>33.0</ele><time>2026-04-19T14:47:11.834Z</time></trkpt><trkpt lat="45.5282861" lon="11.5090548"><ele>32.0</ele><time>2026-04-19T14:47:12.849Z</time></trkpt><trkpt lat="45.5280589" lon="11.5089614"><ele>31.5</ele><time>2026-04-19T14:47:13.838Z</time></trkpt><trkpt lat="45.5278383" lon="11.5088754"><ele>31.0</ele><time>2026-04-19T14:47:14.85Z</time></trkpt><trkpt lat="45.5276196" lon="11.5088018"><ele>31.0</ele><time>2026-04-19T14:47:15.831Z</time></trkpt><trkpt lat="45.5274022" lon="11.508722"><ele>31.0</ele><time>2026-04-19T14:47:16.83Z</time></trkpt><trkpt lat="45.5271838" lon="11.5086398"><ele>32.0</ele><time>2026-04-19T14:47:17.828Z</time></trkpt><trkpt lat="45.5269641" lon="11.5085525"><ele>33.0</ele><time>2026-04-19T14:47:18.828Z</time></trkpt><trkpt lat="45.5267429" lon="11.5084654"><ele>33.0</ele><time>2026-04-19T14:47:19.833Z</time></trkpt><trkpt lat="45.5265202" lon="11.5083738"><ele>33.0</ele><time>2026-04-19T14:47:20.834Z</time></trkpt><trkpt lat="45.5262969" lon="11.508281"><ele>33.0</ele><time>2026-04-19T14:47:21.836Z</time></trkpt><trkpt lat="45.526073" lon="11.5081901"><ele>33.0</ele><time>2026-04-19T14:47:22.847Z</time></trkpt><trkpt lat="45.5258484" lon="11.5081043"><ele>33.0</ele><time>2026-04-19T14:47:23.856Z</time></trkpt><trkpt lat="45.5256234" lon="11.5080245"><ele>33.0</ele><time>2026-04-19T14:47:24.847Z</time></trkpt><trkpt lat="45.5254011" lon="11.5079454"><ele>33.333333333333336</ele><time>2026-04-19T14:47:25.827Z</time></trkpt><trkpt lat="45.5251838" lon="11.5078644"><ele>33.66666666666667</ele><time>2026-04-19T14:47:26.828Z</time></trkpt><trkpt lat="45.5249702" lon="11.5077833"><ele>34.0</ele><time>2026-04-19T14:47:27.826Z</time></trkpt><trkpt lat="45.5247607" lon="11.5077031"><ele>33.333333333333336</ele><time>2026-04-19T14:47:28.832Z</time></trkpt><trkpt lat="45.5245534" lon="11.5076233"><ele>32.666666666666664</ele><time>2026-04-19T14:47:29.83Z</time></trkpt><trkpt lat="45.5243461" lon="11.5075438"><ele>32.0</ele><time>2026-04-19T14:47:30.828Z</time></trkpt><trkpt lat="45.5241376" lon="11.507465"><ele>32.0</ele><time>2026-04-19T14:47:31.831Z</time></trkpt><trkpt lat="45.5239284" lon="11.5073882"><ele>32.0</ele><time>2026-04-19T14:47:32.844Z</time></trkpt><trkpt lat="45.5237173" lon="11.5073105"><ele>32.0</ele><time>2026-04-19T14:47:33.831Z</time></trkpt><trkpt lat="45.5235051" lon="11.5072354"><ele>32.0</ele><time>2026-04-19T14:47:34.838Z</time></trkpt><trkpt lat="45.5232958" lon="11.507159"><ele>32.0</ele><time>2026-04-19T14:47:35.844Z</time></trkpt><trkpt lat="45.523095" lon="11.5070842"><ele>32.0</ele><time>2026-04-19T14:47:36.833Z</time></trkpt><trkpt lat="45.5229063" lon="11.5070109"><ele>31.666666666666664</ele><time>2026-04-19T14:47:37.829Z</time></trkpt><trkpt lat="45.5227286" lon="11.5069465"><ele>31.333333333333336</ele><time>2026-04-19T14:47:38.833Z</time></trkpt><trkpt lat="45.5225618" lon="11.5068845"><ele>31.0</ele><time>2026-04-19T14:47:39.837Z</time></trkpt><trkpt lat="45.5224031" lon="11.5068228"><ele>31.0</ele><time>2026-04-19T14:47:40.832Z</time></trkpt><trkpt lat="45.5222518" lon="11.5067609"><ele>31.0</ele><time>2026-04-19T14:47:41.833Z</time></trkpt><trkpt lat="45.5221031" lon="11.5067009"><ele>31.0</ele><time>2026-04-19T14:47:42.827Z</time></trkpt><trkpt lat="45.5219546" lon="11.5066397"><ele>31.333333333333336</ele><time>2026-04-19T14:47:43.85Z</time></trkpt><trkpt lat="45.5218061" lon="11.5065704"><ele>31.666666666666664</ele><time>2026-04-19T14:47:44.836Z</time></trkpt><trkpt lat="45.5216547" lon="11.5064945"><ele>32.0</ele><time>2026-04-19T14:47:45.841Z</time></trkpt><trkpt lat="45.5215023" lon="11.506413"><ele>32.0</ele><time>2026-04-19T14:47:46.829Z</time></trkpt><trkpt lat="45.5213522" lon="11.5063231"><ele>32.0</ele><time>2026-04-19T14:47:47.826Z</time></trkpt><trkpt lat="45.5212001" lon="11.5062152"><ele>32.0</ele><time>2026-04-19T14:47:48.834Z</time></trkpt><trkpt lat="45.521045" lon="11.5060832"><ele>32.0</ele><time>2026-04-19T14:47:49.835Z</time></trkpt><trkpt lat="45.5208884" lon="11.5059306"><ele>32.0</ele><time>2026-04-19T14:47:50.842Z</time></trkpt><trkpt lat="45.5207344" lon="11.5057603"><ele>32.0</ele><time>2026-04-19T14:47:51.833Z</time></trkpt><trkpt lat="45.5205898" lon="11.5055762"><ele>31.666666666666664</ele><time>2026-04-19T14:47:52.827Z</time></trkpt><trkpt lat="45.5204439" lon="11.5054046"><ele>31.333333333333336</ele><time>2026-04-19T14:47:53.84Z</time></trkpt><trkpt lat="45.5202972" lon="11.5052373"><ele>31.0</ele><time>2026-04-19T14:47:54.842Z</time></trkpt><trkpt lat="45.5201574" lon="11.5050577"><ele>31.0</ele><time>2026-04-19T14:47:55.847Z</time></trkpt><trkpt lat="45.5200324" lon="11.5048505"><ele>31.0</ele><time>2026-04-19T14:47:56.826Z</time></trkpt><trkpt lat="45.5199188" lon="11.5046243"><ele>31.0</ele><time>2026-04-19T14:47:57.844Z</time></trkpt><trkpt lat="45.5198121" lon="11.5043947"><ele>31.666666666666668</ele><time>2026-04-19T14:47:58.836Z</time></trkpt><trkpt lat="45.5197121" lon="11.5041731"><ele>32.333333333333336</ele><time>2026-04-19T14:47:59.842Z</time></trkpt><trkpt lat="45.519609" lon="11.5039649"><ele>33.0</ele><time>2026-04-19T14:48:00.852Z</time></trkpt><trkpt lat="45.5194942" lon="11.5037664"><ele>33.0</ele><time>2026-04-19T14:48:01.834Z</time></trkpt><trkpt lat="45.5193629" lon="11.5035789"><ele>33.0</ele><time>2026-04-19T14:48:02.845Z</time></trkpt><trkpt lat="45.5192233" lon="11.5034032"><ele>33.0</ele><time>2026-04-19T14:48:03.845Z</time></trkpt><trkpt lat="45.5190848" lon="11.5032358"><ele>33.0</ele><time>2026-04-19T14:48:04.828Z</time></trkpt><trkpt lat="45.5189407" lon="11.5030866"><ele>33.0</ele><time>2026-04-19T14:48:05.857Z</time></trkpt><trkpt lat="45.5187854" lon="11.502971"><ele>33.0</ele><time>2026-04-19T14:48:06.831Z</time></trkpt><trkpt lat="45.5186183" lon="11.5029022"><ele>32.666666666666664</ele><time>2026-04-19T14:48:07.836Z</time></trkpt><trkpt lat="45.5184511" lon="11.5028482"><ele>32.33333333333333</ele><time>2026-04-19T14:48:08.834Z</time></trkpt><trkpt lat="45.51828" lon="11.5028094"><ele>32.0</ele><time>2026-04-19T14:48:09.828Z</time></trkpt><trkpt lat="45.5181047" lon="11.5028087"><ele>32.0</ele><time>2026-04-19T14:48:10.841Z</time></trkpt><trkpt lat="45.5179283" lon="11.5028299"><ele>32.0</ele><time>2026-04-19T14:48:11.831Z</time></trkpt><trkpt lat="45.517748" lon="11.5028443"><ele>32.0</ele><time>2026-04-19T14:48:12.825Z</time></trkpt><trkpt lat="45.5175655" lon="11.5028636"><ele>32.33333333333333</ele><time>2026-04-19T14:48:13.846Z</time></trkpt><trkpt lat="45.5173826" lon="11.5028794"><ele>32.666666666666664</ele><time>2026-04-19T14:48:14.837Z</time></trkpt><trkpt lat="45.5172005" lon="11.5028959"><ele>33.0</ele><time>2026-04-19T14:48:15.839Z</time></trkpt><trkpt lat="45.5170196" lon="11.5029193"><ele>32.0</ele><time>2026-04-19T14:48:16.839Z</time></trkpt><trkpt lat="45.5168409" lon="11.5029463"><ele>31.0</ele><time>2026-04-19T14:48:17.858Z</time></trkpt><trkpt lat="45.5166635" lon="11.502979"><ele>30.0</ele><time>2026-04-19T14:48:18.833Z</time></trkpt><trkpt lat="45.5164856" lon="11.5030165"><ele>30.0</ele><time>2026-04-19T14:48:19.847Z</time></trkpt><trkpt lat="45.5163094" lon="11.5030585"><ele>30.0</ele><time>2026-04-19T14:48:20.84Z</time></trkpt><trkpt lat="45.5161382" lon="11.5031037"><ele>30.0</ele><time>2026-04-19T14:48:21.837Z</time></trkpt><trkpt lat="45.5159715" lon="11.5031498"><ele>29.333333333333336</ele><time>2026-04-19T14:48:22.862Z</time></trkpt><trkpt lat="45.5158087" lon="11.5031971"><ele>28.666666666666668</ele><time>2026-04-19T14:48:23.846Z</time></trkpt><trkpt lat="45.5156534" lon="11.5032461"><ele>28.0</ele><time>2026-04-19T14:48:24.836Z</time></trkpt><trkpt lat="45.5155038" lon="11.5032915"><ele>29.5</ele><time>2026-04-19T14:48:25.838Z</time></trkpt><trkpt lat="45.5153661" lon="11.5033572"><ele>31.0</ele><time>2026-04-19T14:48:26.84Z</time></trkpt><trkpt lat="45.5152497" lon="11.5034447"><ele>32.5</ele><time>2026-04-19T14:48:27.842Z</time></trkpt><trkpt lat="45.5151573" lon="11.5035702"><ele>34.0</ele><time>2026-04-19T14:48:28.847Z</time></trkpt><trkpt lat="45.5150983" lon="11.5037414"><ele>33.75</ele><time>2026-04-19T14:48:29.831Z</time></trkpt><trkpt lat="45.5150586" lon="11.5039145"><ele>33.5</ele><time>2026-04-19T14:48:30.841Z</time></trkpt><trkpt lat="45.5150499" lon="11.5040953"><ele>33.25</ele><time>2026-04-19T14:48:31.836Z</time></trkpt><trkpt lat="45.5150502" lon="11.5042726"><ele>33.0</ele><time>2026-04-19T14:48:32.837Z</time></trkpt><trkpt lat="45.5150734" lon="11.5044503"><ele>32.6</ele><time>2026-04-19T14:48:33.845Z</time></trkpt><trkpt lat="45.5150825" lon="11.5046182"><ele>32.199999999999996</ele><time>2026-04-19T14:48:34.835Z</time></trkpt><trkpt lat="45.5151068" lon="11.5047755"><ele>31.8</ele><time>2026-04-19T14:48:35.848Z</time></trkpt><trkpt lat="45.5151488" lon="11.5049229"><ele>31.4</ele><time>2026-04-19T14:48:36.83Z</time></trkpt><trkpt lat="45.5151963" lon="11.5050525"><ele>31.0</ele><time>2026-04-19T14:48:37.834Z</time></trkpt><trkpt lat="45.5152285" lon="11.5051667"><ele>31.000000000000004</ele><time>2026-04-19T14:48:38.839Z</time></trkpt><trkpt lat="45.5152607" lon="11.505263"><ele>31.0</ele><time>2026-04-19T14:48:39.829Z</time></trkpt><trkpt lat="45.5152904" lon="11.5053466"><ele>31.0</ele><time>2026-04-19T14:48:40.828Z</time></trkpt><trkpt lat="45.5153476" lon="11.5054644"><ele>31.0</ele><time>2026-04-19T14:48:42.829Z</time></trkpt><trkpt lat="45.5153878" lon="11.505547"><ele>31.000000000000004</ele><time>2026-04-19T14:48:44.831Z</time></trkpt><trkpt lat="45.515424" lon="11.5056445"><ele>31.0</ele><time>2026-04-19T14:48:47.826Z</time></trkpt><trkpt lat="45.5154583" lon="11.5057305"><ele>30.6</ele><time>2026-04-19T14:48:50.828Z</time></trkpt><trkpt lat="45.515506" lon="11.5058072"><ele>30.200000000000003</ele><time>2026-04-19T14:48:53.848Z</time></trkpt><trkpt lat="45.5155675" lon="11.5059229"><ele>29.799999999999997</ele><time>2026-04-19T14:48:56.835Z</time></trkpt><trkpt lat="45.5156364" lon="11.5060647"><ele>29.4</ele><time>2026-04-19T14:48:58.824Z</time></trkpt><trkpt lat="45.5156932" lon="11.5061459"><ele>29.0</ele><time>2026-04-19T14:48:59.827Z</time></trkpt><trkpt lat="45.5157535" lon="11.5062438"><ele>29.25</ele><time>2026-04-19T14:49:00.834Z</time></trkpt><trkpt lat="45.5158144" lon="11.5063722"><ele>29.5</ele><time>2026-04-19T14:49:01.838Z</time></trkpt><trkpt lat="45.5158736" lon="11.5065252"><ele>29.75</ele><time>2026-04-19T14:49:02.84Z</time></trkpt><trkpt lat="45.5159458" lon="11.5066731"><ele>30.0</ele><time>2026-04-19T14:49:03.837Z</time></trkpt><trkpt lat="45.5160278" lon="11.5068219"><ele>30.0</ele><time>2026-04-19T14:49:04.836Z</time></trkpt><trkpt lat="45.5161144" lon="11.5069717"><ele>30.0</ele><time>2026-04-19T14:49:05.83Z</time></trkpt><trkpt lat="45.5162093" lon="11.5071129"><ele>30.0</ele><time>2026-04-19T14:49:06.845Z</time></trkpt><trkpt lat="45.5163119" lon="11.507243"><ele>30.0</ele><time>2026-04-19T14:49:07.831Z</time></trkpt><trkpt lat="45.51642" lon="11.5073651"><ele>30.25</ele><time>2026-04-19T14:49:08.853Z</time></trkpt><trkpt lat="45.5165349" lon="11.5074761"><ele>30.5</ele><time>2026-04-19T14:49:09.83Z</time></trkpt><trkpt lat="45.5166578" lon="11.5075659"><ele>30.75</ele><time>2026-04-19T14:49:10.841Z</time></trkpt><trkpt lat="45.5167856" lon="11.5076367"><ele>31.0</ele><time>2026-04-19T14:49:11.847Z</time></trkpt><trkpt lat="45.5169195" lon="11.5076755"><ele>31.0</ele><time>2026-04-19T14:49:12.843Z</time></trkpt><trkpt lat="45.5170518" lon="11.5076979"><ele>31.0</ele><time>2026-04-19T14:49:13.84Z</time></trkpt><trkpt lat="45.5171803" lon="11.5077083"><ele>31.0</ele><time>2026-04-19T14:49:14.832Z</time></trkpt><trkpt lat="45.5173075" lon="11.5077252"><ele>31.0</ele><time>2026-04-19T14:49:15.84Z</time></trkpt><trkpt lat="45.5174357" lon="11.5077532"><ele>30.75</ele><time>2026-04-19T14:49:16.829Z</time></trkpt><trkpt lat="45.5175623" lon="11.5078095"><ele>30.5</ele><time>2026-04-19T14:49:17.843Z</time></trkpt><trkpt lat="45.5176745" lon="11.5079118"><ele>30.25</ele><time>2026-04-19T14:49:18.835Z</time></trkpt><trkpt lat="45.5177594" lon="11.5080574"><ele>30.0</ele><time>2026-04-19T14:49:19.837Z</time></trkpt><trkpt lat="45.5178166" lon="11.5082265"><ele>30.0</ele><time>2026-04-19T14:49:20.834Z</time></trkpt><trkpt lat="45.5178417" lon="11.508421"><ele>30.0</ele><time>2026-04-19T14:49:21.827Z</time></trkpt><trkpt lat="45.5178558" lon="11.5086286"><ele>30.0</ele><time>2026-04-19T14:49:22.83Z</time></trkpt><trkpt lat="45.5178584" lon="11.5088577"><ele>30.0</ele><time>2026-04-19T14:49:23.856Z</time></trkpt><trkpt lat="45.5178621" lon="11.5091001"><ele>30.0</ele><time>2026-04-19T14:49:24.837Z</time></trkpt><trkpt lat="45.5178654" lon="11.5093538"><ele>30.0</ele><time>2026-04-19T14:49:25.828Z</time></trkpt><trkpt lat="45.5178715" lon="11.5096277"><ele>30.0</ele><time>2026-04-19T14:49:26.838Z</time></trkpt><trkpt lat="45.5178782" lon="11.5099166"><ele>30.0</ele><time>2026-04-19T14:49:27.835Z</time></trkpt><trkpt lat="45.5178757" lon="11.5102113"><ele>30.0</ele><time>2026-04-19T14:49:28.847Z</time></trkpt><trkpt lat="45.5178777" lon="11.5105196"><ele>30.0</ele><time>2026-04-19T14:49:29.834Z</time></trkpt><trkpt lat="45.5178908" lon="11.510845"><ele>29.5</ele><time>2026-04-19T14:49:30.835Z</time></trkpt><trkpt lat="45.5178982" lon="11.5111798"><ele>29.0</ele><time>2026-04-19T14:49:31.831Z</time></trkpt><trkpt lat="45.5179053" lon="11.5115244"><ele>30.0</ele><time>2026-04-19T14:49:32.826Z</time></trkpt><trkpt lat="45.517912" lon="11.5118799"><ele>31.0</ele><time>2026-04-19T14:49:33.839Z</time></trkpt><trkpt lat="45.5179152" lon="11.5122465"><ele>31.5</ele><time>2026-04-19T14:49:34.832Z</time></trkpt><trkpt lat="45.5179198" lon="11.5126196"><ele>32.0</ele><time>2026-04-19T14:49:35.837Z</time></trkpt><trkpt lat="45.5179231" lon="11.5129994"><ele>32.0</ele><time>2026-04-19T14:49:36.829Z</time></trkpt><trkpt lat="45.517927" lon="11.5133864"><ele>32.0</ele><time>2026-04-19T14:49:37.836Z</time></trkpt><trkpt lat="45.5179299" lon="11.5137795"><ele>32.0</ele><time>2026-04-19T14:49:38.828Z</time></trkpt><trkpt lat="45.5179345" lon="11.5141832"><ele>32.0</ele><time>2026-04-19T14:49:39.841Z</time></trkpt><trkpt lat="45.5179378" lon="11.5145969"><ele>30.5</ele><time>2026-04-19T14:49:40.845Z</time></trkpt><trkpt lat="45.5179401" lon="11.5150162"><ele>29.0</ele><time>2026-04-19T14:49:41.839Z</time></trkpt><trkpt lat="45.5179425" lon="11.5154398"><ele>29.0</ele><time>2026-04-19T14:49:42.835Z</time></trkpt><trkpt lat="45.5179444" lon="11.515868"><ele>29.0</ele><time>2026-04-19T14:49:43.858Z</time></trkpt><trkpt lat="45.5179473" lon="11.5163007"><ele>28.5</ele><time>2026-04-19T14:49:44.846Z</time></trkpt><trkpt lat="45.5179577" lon="11.5167363"><ele>28.0</ele><time>2026-04-19T14:49:45.827Z</time></trkpt><trkpt lat="45.5179553" lon="11.5171728"><ele>28.0</ele><time>2026-04-19T14:49:46.833Z</time></trkpt><trkpt lat="45.5179571" lon="11.5176109"><ele>28.0</ele><time>2026-04-19T14:49:47.836Z</time></trkpt><trkpt lat="45.5179587" lon="11.5180485"><ele>28.0</ele><time>2026-04-19T14:49:48.874Z</time></trkpt><trkpt lat="45.5179587" lon="11.5184834"><ele>28.0</ele><time>2026-04-19T14:49:49.836Z</time></trkpt><trkpt lat="45.5179602" lon="11.5189142"><ele>28.0</ele><time>2026-04-19T14:49:50.845Z</time></trkpt><trkpt lat="45.517963" lon="11.5193414"><ele>28.0</ele><time>2026-04-19T14:49:51.837Z</time></trkpt><trkpt lat="45.5179615" lon="11.5197709"><ele>29.5</ele><time>2026-04-19T14:49:52.838Z</time></trkpt><trkpt lat="45.5179637" lon="11.520206"><ele>31.0</ele><time>2026-04-19T14:49:53.835Z</time></trkpt><trkpt lat="45.5179661" lon="11.520642"><ele>31.0</ele><time>2026-04-19T14:49:54.844Z</time></trkpt><trkpt lat="45.5179714" lon="11.5210764"><ele>31.0</ele><time>2026-04-19T14:49:55.836Z</time></trkpt><trkpt lat="45.5179706" lon="11.5215116"><ele>31.0</ele><time>2026-04-19T14:49:56.861Z</time></trkpt><trkpt lat="45.5179686" lon="11.5219465"><ele>31.0</ele><time>2026-04-19T14:49:57.843Z</time></trkpt><trkpt lat="45.5179711" lon="11.5223793"><ele>30.5</ele><time>2026-04-19T14:49:58.853Z</time></trkpt><trkpt lat="45.5179677" lon="11.5228129"><ele>30.0</ele><time>2026-04-19T14:49:59.839Z</time></trkpt><trkpt lat="45.5179619" lon="11.5232514"><ele>29.5</ele><time>2026-04-19T14:50:00.863Z</time></trkpt><trkpt lat="45.5179495" lon="11.5236969"><ele>29.0</ele><time>2026-04-19T14:50:01.816Z</time></trkpt><trkpt lat="45.5179347" lon="11.5241487"><ele>29.0</ele><time>2026-04-19T14:50:02.827Z</time></trkpt><trkpt lat="45.51791" lon="11.524607"><ele>29.0</ele><time>2026-04-19T14:50:03.835Z</time></trkpt><trkpt lat="45.5178786" lon="11.5250652"><ele>29.5</ele><time>2026-04-19T14:50:04.843Z</time></trkpt><trkpt lat="45.5178427" lon="11.5255231"><ele>30.0</ele><time>2026-04-19T14:50:05.84Z</time></trkpt><trkpt lat="45.517802" lon="11.5259812"><ele>29.5</ele><time>2026-04-19T14:50:06.845Z</time></trkpt><trkpt lat="45.5177552" lon="11.5264366"><ele>29.0</ele><time>2026-04-19T14:50:07.823Z</time></trkpt><trkpt lat="45.5177125" lon="11.526886"><ele>29.0</ele><time>2026-04-19T14:50:08.843Z</time></trkpt><trkpt lat="45.5176573" lon="11.5273281"><ele>29.0</ele><time>2026-04-19T14:50:09.837Z</time></trkpt><trkpt lat="45.5175912" lon="11.5277631"><ele>30.0</ele><time>2026-04-19T14:50:10.855Z</time></trkpt><trkpt lat="45.5175213" lon="11.5281915"><ele>31.0</ele><time>2026-04-19T14:50:11.828Z</time></trkpt><trkpt lat="45.5174445" lon="11.5286137"><ele>32.0</ele><time>2026-04-19T14:50:12.829Z</time></trkpt><trkpt lat="45.5173705" lon="11.529032"><ele>33.0</ele><time>2026-04-19T14:50:13.843Z</time></trkpt><trkpt lat="45.5172979" lon="11.5294472"><ele>31.5</ele><time>2026-04-19T14:50:14.835Z</time></trkpt><trkpt lat="45.5172385" lon="11.5298655"><ele>30.0</ele><time>2026-04-19T14:50:15.845Z</time></trkpt><trkpt lat="45.5171777" lon="11.5302827"><ele>30.0</ele><time>2026-04-19T14:50:16.846Z</time></trkpt><trkpt lat="45.5171158" lon="11.5306987"><ele>30.0</ele><time>2026-04-19T14:50:17.824Z</time></trkpt><trkpt lat="45.5170639" lon="11.5311186"><ele>31.0</ele><time>2026-04-19T14:50:18.835Z</time></trkpt><trkpt lat="45.5170276" lon="11.5315461"><ele>32.0</ele><time>2026-04-19T14:50:19.831Z</time></trkpt><trkpt lat="45.5169887" lon="11.5319769"><ele>33.5</ele><time>2026-04-19T14:50:20.84Z</time></trkpt><trkpt lat="45.5169519" lon="11.5324092"><ele>35.0</ele><time>2026-04-19T14:50:21.826Z</time></trkpt><trkpt lat="45.5169217" lon="11.5328445"><ele>46.0</ele><time>2026-04-19T14:50:22.848Z</time></trkpt><trkpt lat="45.5168814" lon="11.5332802"><ele>57.0</ele><time>2026-04-19T14:50:23.837Z</time></trkpt><trkpt lat="45.5168385" lon="11.5337223"><ele>38.0</ele><time>2026-04-19T14:50:24.84Z</time></trkpt><trkpt lat="45.5165167" lon="11.5375758"><ele>38.0</ele><time>2026-04-19T14:50:33.849Z</time></trkpt><trkpt lat="45.5165374" lon="11.5379986"><ele>38.0</ele><time>2026-04-19T14:50:34.842Z</time></trkpt><trkpt lat="45.5165103" lon="11.5383985"><ele>39.0</ele><time>2026-04-19T14:50:35.855Z</time></trkpt><trkpt lat="45.516482" lon="11.5388373"><ele>40.0</ele><time>2026-04-19T14:50:36.84Z</time></trkpt><trkpt lat="45.516453" lon="11.539274"><ele>40.0</ele><time>2026-04-19T14:50:37.839Z</time></trkpt><trkpt lat="45.5164176" lon="11.5397116"><ele>40.0</ele><time>2026-04-19T14:50:38.84Z</time></trkpt><trkpt lat="45.5163847" lon="11.54015"><ele>42.5</ele><time>2026-04-19T14:50:39.835Z</time></trkpt><trkpt lat="45.5163454" lon="11.5405854"><ele>45.0</ele><time>2026-04-19T14:50:40.829Z</time></trkpt><trkpt lat="45.516306" lon="11.5410176"><ele>52.5</ele><time>2026-04-19T14:50:41.834Z</time></trkpt><trkpt lat="45.5162711" lon="11.5414494"><ele>60.0</ele><time>2026-04-19T14:50:42.848Z</time></trkpt><trkpt lat="45.5162357" lon="11.5418727"><ele>52.0</ele><time>2026-04-19T14:50:43.838Z</time></trkpt><trkpt lat="45.5156256" lon="11.5491406"><ele>49.0</ele><time>2026-04-19T14:51:00.764Z</time></trkpt><trkpt lat="45.515641" lon="11.5497135"><ele>46.0</ele><time>2026-04-19T14:51:01.788Z</time></trkpt><trkpt lat="45.5156256" lon="11.5501323"><ele>43.5</ele><time>2026-04-19T14:51:02.821Z</time></trkpt><trkpt lat="45.5156067" lon="11.5505605"><ele>41.0</ele><time>2026-04-19T14:51:03.845Z</time></trkpt><trkpt lat="45.5155931" lon="11.5509929"><ele>39.5</ele><time>2026-04-19T14:51:04.837Z</time></trkpt><trkpt lat="45.5155919" lon="11.5514427"><ele>38.0</ele><time>2026-04-19T14:51:05.856Z</time></trkpt><trkpt lat="45.515598" lon="11.5518788"><ele>37.5</ele><time>2026-04-19T14:51:06.837Z</time></trkpt><trkpt lat="45.5156132" lon="11.5523179"><ele>37.0</ele><time>2026-04-19T14:51:07.836Z</time></trkpt><trkpt lat="45.5156321" lon="11.552758"><ele>36.5</ele><time>2026-04-19T14:51:08.833Z</time></trkpt><trkpt lat="45.5156495" lon="11.5532022"><ele>36.0</ele><time>2026-04-19T14:51:09.827Z</time></trkpt><trkpt lat="45.5156809" lon="11.5536453"><ele>36.0</ele><time>2026-04-19T14:51:10.84Z</time></trkpt><trkpt lat="45.5157063" lon="11.5540919"><ele>36.0</ele><time>2026-04-19T14:51:11.825Z</time></trkpt><trkpt lat="45.5157292" lon="11.5545381"><ele>36.5</ele><time>2026-04-19T14:51:12.828Z</time></trkpt><trkpt lat="45.5157346" lon="11.5549829"><ele>37.0</ele><time>2026-04-19T14:51:13.844Z</time></trkpt><trkpt lat="45.5157398" lon="11.5554265"><ele>37.5</ele><time>2026-04-19T14:51:14.835Z</time></trkpt><trkpt lat="45.5157397" lon="11.5558683"><ele>38.0</ele><time>2026-04-19T14:51:15.841Z</time></trkpt><trkpt lat="45.5157303" lon="11.5563084"><ele>38.0</ele><time>2026-04-19T14:51:16.831Z</time></trkpt><trkpt lat="45.5157157" lon="11.5567464"><ele>38.0</ele><time>2026-04-19T14:51:17.828Z</time></trkpt><trkpt lat="45.515699" lon="11.5571811"><ele>36.5</ele><time>2026-04-19T14:51:18.831Z</time></trkpt><trkpt lat="45.5156784" lon="11.557612"><ele>35.0</ele><time>2026-04-19T14:51:19.837Z</time></trkpt><trkpt lat="45.5156577" lon="11.5580412"><ele>33.5</ele><time>2026-04-19T14:51:20.828Z</time></trkpt><trkpt lat="45.5156394" lon="11.5584705"><ele>32.0</ele><time>2026-04-19T14:51:21.838Z</time></trkpt><trkpt lat="45.5156139" lon="11.5588989"><ele>31.5</ele><time>2026-04-19T14:51:22.847Z</time></trkpt><trkpt lat="45.5156078" lon="11.5593297"><ele>31.0</ele><time>2026-04-19T14:51:23.849Z</time></trkpt><trkpt lat="45.5156108" lon="11.5597641"><ele>30.5</ele><time>2026-04-19T14:51:24.837Z</time></trkpt><trkpt lat="45.5156209" lon="11.5602013"><ele>30.0</ele><time>2026-04-19T14:51:25.852Z</time></trkpt><trkpt lat="45.5156394" lon="11.5606402"><ele>30.5</ele><time>2026-04-19T14:51:26.828Z</time></trkpt><trkpt lat="45.5156571" lon="11.5610814"><ele>31.0</ele><time>2026-04-19T14:51:27.835Z</time></trkpt><trkpt lat="45.5156821" lon="11.5615216"><ele>31.0</ele><time>2026-04-19T14:51:28.849Z</time></trkpt><trkpt lat="45.5157137" lon="11.5619601"><ele>31.0</ele><time>2026-04-19T14:51:29.842Z</time></trkpt><trkpt lat="45.5157376" lon="11.5623952"><ele>30.0</ele><time>2026-04-19T14:51:30.85Z</time></trkpt><trkpt lat="45.5157617" lon="11.5628248"><ele>29.0</ele><time>2026-04-19T14:51:31.841Z</time></trkpt><trkpt lat="45.5157822" lon="11.5632521"><ele>29.0</ele><time>2026-04-19T14:51:32.837Z</time></trkpt><trkpt lat="45.5157973" lon="11.5636808"><ele>29.0</ele><time>2026-04-19T14:51:33.845Z</time></trkpt><trkpt lat="45.5158191" lon="11.5641102"><ele>29.5</ele><time>2026-04-19T14:51:34.828Z</time></trkpt><trkpt lat="45.5158409" lon="11.5645409"><ele>30.0</ele><time>2026-04-19T14:51:35.84Z</time></trkpt><trkpt lat="45.5158694" lon="11.5649719"><ele>30.5</ele><time>2026-04-19T14:51:36.851Z</time></trkpt><trkpt lat="45.5158962" lon="11.5654033"><ele>31.0</ele><time>2026-04-19T14:51:37.844Z</time></trkpt><trkpt lat="45.5159253" lon="11.5658341"><ele>31.0</ele><time>2026-04-19T14:51:38.845Z</time></trkpt><trkpt lat="45.5159549" lon="11.5662631"><ele>31.0</ele><time>2026-04-19T14:51:39.836Z</time></trkpt><trkpt lat="45.5159947" lon="11.5666879"><ele>30.5</ele><time>2026-04-19T14:51:40.845Z</time></trkpt><trkpt lat="45.5160453" lon="11.5671098"><ele>30.0</ele><time>2026-04-19T14:51:41.835Z</time></trkpt><trkpt lat="45.5160933" lon="11.5675281"><ele>29.5</ele><time>2026-04-19T14:51:42.849Z</time></trkpt><trkpt lat="45.5161341" lon="11.5679426"><ele>29.0</ele><time>2026-04-19T14:51:43.854Z</time></trkpt><trkpt lat="45.5161809" lon="11.5683557"><ele>28.5</ele><time>2026-04-19T14:51:44.842Z</time></trkpt><trkpt lat="45.5162265" lon="11.5687734"><ele>28.0</ele><time>2026-04-19T14:51:45.848Z</time></trkpt><trkpt lat="45.516272" lon="11.569199"><ele>29.5</ele><time>2026-04-19T14:51:46.832Z</time></trkpt><trkpt lat="45.5163126" lon="11.5696325"><ele>31.0</ele><time>2026-04-19T14:51:47.838Z</time></trkpt><trkpt lat="45.5163553" lon="11.57007"><ele>31.0</ele><time>2026-04-19T14:51:48.839Z</time></trkpt><trkpt lat="45.5163907" lon="11.5705036"><ele>31.0</ele><time>2026-04-19T14:51:49.86Z</time></trkpt><trkpt lat="45.5164234" lon="11.570941"><ele>31.0</ele><time>2026-04-19T14:51:50.839Z</time></trkpt><trkpt lat="45.5164618" lon="11.5713744"><ele>31.0</ele><time>2026-04-19T14:51:51.86Z</time></trkpt><trkpt lat="45.5164844" lon="11.5718059"><ele>30.5</ele><time>2026-04-19T14:51:52.859Z</time></trkpt><trkpt lat="45.5165117" lon="11.5722327"><ele>30.0</ele><time>2026-04-19T14:51:53.859Z</time></trkpt><trkpt lat="45.5165408" lon="11.5726583"><ele>29.5</ele><time>2026-04-19T14:51:54.86Z</time></trkpt><trkpt lat="45.5165731" lon="11.5730847"><ele>29.0</ele><time>2026-04-19T14:51:55.853Z</time></trkpt><trkpt lat="45.5166113" lon="11.5735125"><ele>29.0</ele><time>2026-04-19T14:51:56.845Z</time></trkpt><trkpt lat="45.5166446" lon="11.5739382"><ele>29.0</ele><time>2026-04-19T14:51:57.834Z</time></trkpt><trkpt lat="45.5166718" lon="11.5743616"><ele>28.0</ele><time>2026-04-19T14:51:58.846Z</time></trkpt><trkpt lat="45.5167001" lon="11.5747837"><ele>27.0</ele><time>2026-04-19T14:51:59.84Z</time></trkpt><trkpt lat="45.5167255" lon="11.575206"><ele>26.5</ele><time>2026-04-19T14:52:00.837Z</time></trkpt><trkpt lat="45.5167533" lon="11.5756287"><ele>26.0</ele><time>2026-04-19T14:52:01.851Z</time></trkpt><trkpt lat="45.5167842" lon="11.5760513"><ele>27.0</ele><time>2026-04-19T14:52:02.837Z</time></trkpt><trkpt lat="45.5168125" lon="11.5764745"><ele>28.0</ele><time>2026-04-19T14:52:03.828Z</time></trkpt><trkpt lat="45.5168455" lon="11.5768987"><ele>28.0</ele><time>2026-04-19T14:52:04.843Z</time></trkpt><trkpt lat="45.5168754" lon="11.5773252"><ele>28.0</ele><time>2026-04-19T14:52:05.833Z</time></trkpt><trkpt lat="45.5169101" lon="11.5777522"><ele>27.5</ele><time>2026-04-19T14:52:06.841Z</time></trkpt><trkpt lat="45.5169425" lon="11.5781785"><ele>27.0</ele><time>2026-04-19T14:52:07.848Z</time></trkpt><trkpt lat="45.5169761" lon="11.5786052"><ele>26.5</ele><time>2026-04-19T14:52:08.836Z</time></trkpt><trkpt lat="45.5170025" lon="11.5790341"><ele>26.0</ele><time>2026-04-19T14:52:09.838Z</time></trkpt><trkpt lat="45.5170259" lon="11.5794651"><ele>27.0</ele><time>2026-04-19T14:52:10.841Z</time></trkpt><trkpt lat="45.5170403" lon="11.5798968"><ele>28.0</ele><time>2026-04-19T14:52:11.858Z</time></trkpt><trkpt lat="45.5170454" lon="11.5803274"><ele>28.5</ele><time>2026-04-19T14:52:12.861Z</time></trkpt><trkpt lat="45.5170261" lon="11.5807576"><ele>29.0</ele><time>2026-04-19T14:52:13.85Z</time></trkpt><trkpt lat="45.5170023" lon="11.5811828"><ele>29.0</ele><time>2026-04-19T14:52:14.842Z</time></trkpt><trkpt lat="45.5169623" lon="11.581606"><ele>29.0</ele><time>2026-04-19T14:52:15.867Z</time></trkpt><trkpt lat="45.516921" lon="11.58203"><ele>29.0</ele><time>2026-04-19T14:52:16.83Z</time></trkpt><trkpt lat="45.5168673" lon="11.582458"><ele>29.0</ele><time>2026-04-19T14:52:17.854Z</time></trkpt><trkpt lat="45.5168083" lon="11.582886"><ele>29.0</ele><time>2026-04-19T14:52:18.834Z</time></trkpt><trkpt lat="45.5167349" lon="11.5833104"><ele>29.0</ele><time>2026-04-19T14:52:19.849Z</time></trkpt><trkpt lat="45.5166518" lon="11.5837343"><ele>29.5</ele><time>2026-04-19T14:52:20.833Z</time></trkpt><trkpt lat="45.5165546" lon="11.5841556"><ele>30.0</ele><time>2026-04-19T14:52:21.835Z</time></trkpt><trkpt lat="45.516444" lon="11.5845733"><ele>30.0</ele><time>2026-04-19T14:52:22.836Z</time></trkpt><trkpt lat="45.5163178" lon="11.5849829"><ele>30.0</ele><time>2026-04-19T14:52:23.84Z</time></trkpt><trkpt lat="45.5161924" lon="11.5853912"><ele>29.5</ele><time>2026-04-19T14:52:24.844Z</time></trkpt><trkpt lat="45.5160568" lon="11.5857929"><ele>29.0</ele><time>2026-04-19T14:52:25.85Z</time></trkpt><trkpt lat="45.5159337" lon="11.5862005"><ele>28.0</ele><time>2026-04-19T14:52:26.849Z</time></trkpt><trkpt lat="45.5158161" lon="11.5866108"><ele>27.0</ele><time>2026-04-19T14:52:27.838Z</time></trkpt><trkpt lat="45.5156974" lon="11.5870196"><ele>27.0</ele><time>2026-04-19T14:52:28.861Z</time></trkpt><trkpt lat="45.5155749" lon="11.5874259"><ele>27.0</ele><time>2026-04-19T14:52:29.851Z</time></trkpt><trkpt lat="45.515461" lon="11.5878358"><ele>27.0</ele><time>2026-04-19T14:52:30.837Z</time></trkpt><trkpt lat="45.5153425" lon="11.5882434"><ele>27.0</ele><time>2026-04-19T14:52:31.838Z</time></trkpt><trkpt lat="45.5152258" lon="11.5886522"><ele>27.0</ele><time>2026-04-19T14:52:32.825Z</time></trkpt><trkpt lat="45.515109" lon="11.5890622"><ele>27.0</ele><time>2026-04-19T14:52:33.852Z</time></trkpt><trkpt lat="45.5149926" lon="11.5894736"><ele>27.0</ele><time>2026-04-19T14:52:34.842Z</time></trkpt><trkpt lat="45.5148752" lon="11.5898834"><ele>27.0</ele><time>2026-04-19T14:52:35.858Z</time></trkpt><trkpt lat="45.5147579" lon="11.5902925"><ele>26.5</ele><time>2026-04-19T14:52:36.842Z</time></trkpt><trkpt lat="45.5146336" lon="11.5906992"><ele>26.0</ele><time>2026-04-19T14:52:37.843Z</time></trkpt><trkpt lat="45.5145129" lon="11.5911054"><ele>25.5</ele><time>2026-04-19T14:52:38.839Z</time></trkpt><trkpt lat="45.5143942" lon="11.5915075"><ele>25.0</ele><time>2026-04-19T14:52:39.843Z</time></trkpt><trkpt lat="45.5142774" lon="11.5919072"><ele>25.5</ele><time>2026-04-19T14:52:40.844Z</time></trkpt><trkpt lat="45.5141616" lon="11.5923055"><ele>26.0</ele><time>2026-04-19T14:52:41.849Z</time></trkpt><trkpt lat="45.5140461" lon="11.5927032"><ele>26.5</ele><time>2026-04-19T14:52:42.84Z</time></trkpt><trkpt lat="45.5139319" lon="11.5931021"><ele>27.0</ele><time>2026-04-19T14:52:43.84Z</time></trkpt><trkpt lat="45.5138185" lon="11.5935032"><ele>26.5</ele><time>2026-04-19T14:52:44.831Z</time></trkpt><trkpt lat="45.5137055" lon="11.5939063"><ele>26.0</ele><time>2026-04-19T14:52:45.84Z</time></trkpt><trkpt lat="45.5135918" lon="11.5943104"><ele>25.5</ele><time>2026-04-19T14:52:46.839Z</time></trkpt><trkpt lat="45.5134772" lon="11.5947162"><ele>25.0</ele><time>2026-04-19T14:52:47.838Z</time></trkpt><trkpt lat="45.5133609" lon="11.5951225"><ele>25.5</ele><time>2026-04-19T14:52:48.833Z</time></trkpt><trkpt lat="45.5132434" lon="11.5955275"><ele>26.0</ele><time>2026-04-19T14:52:49.856Z</time></trkpt><trkpt lat="45.5131271" lon="11.5959326"><ele>26.0</ele><time>2026-04-19T14:52:50.844Z</time></trkpt><trkpt lat="45.5130121" lon="11.5963358"><ele>26.0</ele><time>2026-04-19T14:52:51.837Z</time></trkpt><trkpt lat="45.512898" lon="11.5967346"><ele>27.5</ele><time>2026-04-19T14:52:52.838Z</time></trkpt><trkpt lat="45.5127832" lon="11.5971286"><ele>29.0</ele><time>2026-04-19T14:52:53.841Z</time></trkpt><trkpt lat="45.5126679" lon="11.5975202"><ele>29.5</ele><time>2026-04-19T14:52:54.83Z</time></trkpt><trkpt lat="45.5125527" lon="11.5979117"><ele>30.0</ele><time>2026-04-19T14:52:55.839Z</time></trkpt><trkpt lat="45.5124405" lon="11.5983057"><ele>29.5</ele><time>2026-04-19T14:52:56.831Z</time></trkpt><trkpt lat="45.5123278" lon="11.5987031"><ele>29.0</ele><time>2026-04-19T14:52:57.833Z</time></trkpt><trkpt lat="45.5122104" lon="11.5991023"><ele>29.0</ele><time>2026-04-19T14:52:58.829Z</time></trkpt><trkpt lat="45.5120905" lon="11.5995009"><ele>29.0</ele><time>2026-04-19T14:52:59.855Z</time></trkpt><trkpt lat="45.5119711" lon="11.5999018"><ele>29.0</ele><time>2026-04-19T14:53:00.836Z</time></trkpt><trkpt lat="45.511852" lon="11.600304"><ele>29.0</ele><time>2026-04-19T14:53:01.845Z</time></trkpt><trkpt lat="45.5117349" lon="11.6007053"><ele>29.0</ele><time>2026-04-19T14:53:02.848Z</time></trkpt><trkpt lat="45.5116204" lon="11.6011059"><ele>29.0</ele><time>2026-04-19T14:53:03.854Z</time></trkpt><trkpt lat="45.5115085" lon="11.6015081"><ele>29.5</ele><time>2026-04-19T14:53:04.843Z</time></trkpt><trkpt lat="45.5113869" lon="11.6019057"><ele>30.0</ele><time>2026-04-19T14:53:05.851Z</time></trkpt><trkpt lat="45.5112727" lon="11.6023105"><ele>29.5</ele><time>2026-04-19T14:53:06.842Z</time></trkpt><trkpt lat="45.5111552" lon="11.6027153"><ele>29.0</ele><time>2026-04-19T14:53:07.838Z</time></trkpt><trkpt lat="45.5110337" lon="11.6031178"><ele>29.0</ele><time>2026-04-19T14:53:08.846Z</time></trkpt><trkpt lat="45.5109129" lon="11.6035208"><ele>29.0</ele><time>2026-04-19T14:53:09.849Z</time></trkpt><trkpt lat="45.5107935" lon="11.6039239"><ele>28.5</ele><time>2026-04-19T14:53:10.839Z</time></trkpt><trkpt lat="45.5106756" lon="11.6043256"><ele>28.0</ele><time>2026-04-19T14:53:11.846Z</time></trkpt><trkpt lat="45.510561" lon="11.6047253"><ele>27.5</ele><time>2026-04-19T14:53:12.837Z</time></trkpt><trkpt lat="45.510448" lon="11.605125"><ele>27.0</ele><time>2026-04-19T14:53:13.856Z</time></trkpt><trkpt lat="45.5103343" lon="11.6055252"><ele>27.0</ele><time>2026-04-19T14:53:14.85Z</time></trkpt><trkpt lat="45.5102187" lon="11.6059251"><ele>27.0</ele><time>2026-04-19T14:53:15.84Z</time></trkpt><trkpt lat="45.5101026" lon="11.6063249"><ele>27.0</ele><time>2026-04-19T14:53:16.851Z</time></trkpt><trkpt lat="45.5099865" lon="11.6067236"><ele>27.0</ele><time>2026-04-19T14:53:17.832Z</time></trkpt><trkpt lat="45.5098697" lon="11.6071201"><ele>27.0</ele><time>2026-04-19T14:53:18.862Z</time></trkpt><trkpt lat="45.5097521" lon="11.607516"><ele>27.0</ele><time>2026-04-19T14:53:19.86Z</time></trkpt><trkpt lat="45.5096346" lon="11.6079129"><ele>26.5</ele><time>2026-04-19T14:53:20.848Z</time></trkpt><trkpt lat="45.5095164" lon="11.60831"><ele>26.0</ele><time>2026-04-19T14:53:21.833Z</time></trkpt><trkpt lat="45.5093965" lon="11.6087099"><ele>26.5</ele><time>2026-04-19T14:53:22.839Z</time></trkpt><trkpt lat="45.5092716" lon="11.6091104"><ele>27.0</ele><time>2026-04-19T14:53:23.843Z</time></trkpt><trkpt lat="45.5091447" lon="11.609511"><ele>27.0</ele><time>2026-04-19T14:53:24.831Z</time></trkpt><trkpt lat="45.5090173" lon="11.609912"><ele>27.0</ele><time>2026-04-19T14:53:25.859Z</time></trkpt><trkpt lat="45.5088931" lon="11.6103154"><ele>27.0</ele><time>2026-04-19T14:53:26.862Z</time></trkpt><trkpt lat="45.5087713" lon="11.6107214"><ele>27.0</ele><time>2026-04-19T14:53:27.853Z</time></trkpt><trkpt lat="45.5086498" lon="11.611128"><ele>29.0</ele><time>2026-04-19T14:53:28.842Z</time></trkpt><trkpt lat="45.5085299" lon="11.6115335"><ele>31.0</ele><time>2026-04-19T14:53:29.832Z</time></trkpt><trkpt lat="45.5084127" lon="11.6119367"><ele>29.5</ele><time>2026-04-19T14:53:30.841Z</time></trkpt><trkpt lat="45.5082982" lon="11.6123382"><ele>28.0</ele><time>2026-04-19T14:53:31.838Z</time></trkpt><trkpt lat="45.5081846" lon="11.6127366"><ele>27.5</ele><time>2026-04-19T14:53:32.836Z</time></trkpt><trkpt lat="45.5080708" lon="11.6131311"><ele>27.0</ele><time>2026-04-19T14:53:33.855Z</time></trkpt><trkpt lat="45.5079568" lon="11.613523"><ele>27.0</ele><time>2026-04-19T14:53:34.829Z</time></trkpt><trkpt lat="45.5078405" lon="11.6139138"><ele>27.0</ele><time>2026-04-19T14:53:35.837Z</time></trkpt><trkpt lat="45.5077332" lon="11.6143124"><ele>27.0</ele><time>2026-04-19T14:53:36.838Z</time></trkpt><trkpt lat="45.5076074" lon="11.6147011"><ele>27.0</ele><time>2026-04-19T14:53:37.839Z</time></trkpt><trkpt lat="45.5074887" lon="11.6150967"><ele>27.5</ele><time>2026-04-19T14:53:38.861Z</time></trkpt><trkpt lat="45.5073751" lon="11.6154993"><ele>28.0</ele><time>2026-04-19T14:53:39.863Z</time></trkpt><trkpt lat="45.5072577" lon="11.6159051"><ele>28.0</ele><time>2026-04-19T14:53:40.84Z</time></trkpt><trkpt lat="45.5071438" lon="11.6163198"><ele>28.0</ele><time>2026-04-19T14:53:41.848Z</time></trkpt><trkpt lat="45.5070264" lon="11.6167338"><ele>25.5</ele><time>2026-04-19T14:53:42.864Z</time></trkpt><trkpt lat="45.5069083" lon="11.6171473"><ele>23.0</ele><time>2026-04-19T14:53:43.841Z</time></trkpt><trkpt lat="45.5067849" lon="11.6175606"><ele>24.0</ele><time>2026-04-19T14:53:44.836Z</time></trkpt><trkpt lat="45.5066703" lon="11.6179796"><ele>25.0</ele><time>2026-04-19T14:53:45.846Z</time></trkpt><trkpt lat="45.5065528" lon="11.6183928"><ele>26.0</ele><time>2026-04-19T14:53:46.834Z</time></trkpt><trkpt lat="45.5064518" lon="11.6188127"><ele>27.0</ele><time>2026-04-19T14:53:47.84Z</time></trkpt><trkpt lat="45.5063374" lon="11.6192173"><ele>27.5</ele><time>2026-04-19T14:53:48.841Z</time></trkpt><trkpt lat="45.5062092" lon="11.6196073"><ele>28.0</ele><time>2026-04-19T14:53:49.848Z</time></trkpt><trkpt lat="45.5060814" lon="11.6199923"><ele>27.0</ele><time>2026-04-19T14:53:50.831Z</time></trkpt><trkpt lat="45.5059674" lon="11.6203802"><ele>26.0</ele><time>2026-04-19T14:53:51.84Z</time></trkpt><trkpt lat="45.5058552" lon="11.6207676"><ele>25.5</ele><time>2026-04-19T14:53:52.835Z</time></trkpt><trkpt lat="45.5057429" lon="11.6211605"><ele>25.0</ele><time>2026-04-19T14:53:53.838Z</time></trkpt><trkpt lat="45.5056278" lon="11.6215565"><ele>25.0</ele><time>2026-04-19T14:53:54.849Z</time></trkpt><trkpt lat="45.505514" lon="11.6219501"><ele>25.0</ele><time>2026-04-19T14:53:55.848Z</time></trkpt><trkpt lat="45.5054022" lon="11.6223394"><ele>25.5</ele><time>2026-04-19T14:53:56.852Z</time></trkpt><trkpt lat="45.5052914" lon="11.6227255"><ele>26.0</ele><time>2026-04-19T14:53:57.853Z</time></trkpt><trkpt lat="45.5051804" lon="11.6231074"><ele>26.0</ele><time>2026-04-19T14:53:58.848Z</time></trkpt><trkpt lat="45.5050701" lon="11.6234866"><ele>26.0</ele><time>2026-04-19T14:53:59.844Z</time></trkpt><trkpt lat="45.5049596" lon="11.6238624"><ele>26.5</ele><time>2026-04-19T14:54:00.847Z</time></trkpt><trkpt lat="45.5048504" lon="11.6242364"><ele>27.0</ele><time>2026-04-19T14:54:01.841Z</time></trkpt><trkpt lat="45.504741" lon="11.624612"><ele>27.0</ele><time>2026-04-19T14:54:02.847Z</time></trkpt><trkpt lat="45.5046314" lon="11.624994"><ele>27.0</ele><time>2026-04-19T14:54:03.842Z</time></trkpt><trkpt lat="45.504521" lon="11.6253828"><ele>27.0</ele><time>2026-04-19T14:54:04.854Z</time></trkpt><trkpt lat="45.5044112" lon="11.6257778"><ele>27.0</ele><time>2026-04-19T14:54:05.86Z</time></trkpt><trkpt lat="45.5043022" lon="11.6261753"><ele>27.0</ele><time>2026-04-19T14:54:06.856Z</time></trkpt><trkpt lat="45.5041946" lon="11.626574"><ele>27.0</ele><time>2026-04-19T14:54:07.836Z</time></trkpt><trkpt lat="45.504088" lon="11.6269745"><ele>27.0</ele><time>2026-04-19T14:54:08.839Z</time></trkpt><trkpt lat="45.5039784" lon="11.6273761"><ele>27.0</ele><time>2026-04-19T14:54:09.847Z</time></trkpt><trkpt lat="45.5038665" lon="11.6277801"><ele>26.5</ele><time>2026-04-19T14:54:10.838Z</time></trkpt><trkpt lat="45.5037529" lon="11.6281854"><ele>26.0</ele><time>2026-04-19T14:54:11.84Z</time></trkpt><trkpt lat="45.5036388" lon="11.6285903"><ele>27.0</ele><time>2026-04-19T14:54:12.85Z</time></trkpt><trkpt lat="45.5035233" lon="11.6289925"><ele>28.0</ele><time>2026-04-19T14:54:13.857Z</time></trkpt><trkpt lat="45.5034087" lon="11.6293928"><ele>29.0</ele><time>2026-04-19T14:54:14.842Z</time></trkpt><trkpt lat="45.5032957" lon="11.6297924"><ele>30.0</ele><time>2026-04-19T14:54:15.845Z</time></trkpt><trkpt lat="45.5031821" lon="11.6301923"><ele>29.0</ele><time>2026-04-19T14:54:16.851Z</time></trkpt><trkpt lat="45.503065" lon="11.6305913"><ele>28.0</ele><time>2026-04-19T14:54:17.84Z</time></trkpt><trkpt lat="45.5029483" lon="11.6309904"><ele>27.0</ele><time>2026-04-19T14:54:18.856Z</time></trkpt><trkpt lat="45.5028328" lon="11.6313899"><ele>26.0</ele><time>2026-04-19T14:54:19.849Z</time></trkpt><trkpt lat="45.5027168" lon="11.6317901"><ele>26.0</ele><time>2026-04-19T14:54:20.844Z</time></trkpt><trkpt lat="45.5026002" lon="11.6321903"><ele>26.0</ele><time>2026-04-19T14:54:21.842Z</time></trkpt><trkpt lat="45.5024843" lon="11.6325893"><ele>26.5</ele><time>2026-04-19T14:54:22.846Z</time></trkpt><trkpt lat="45.502369" lon="11.6329888"><ele>27.0</ele><time>2026-04-19T14:54:23.864Z</time></trkpt><trkpt lat="45.5022525" lon="11.6333892"><ele>26.5</ele><time>2026-04-19T14:54:24.834Z</time></trkpt><trkpt lat="45.5021352" lon="11.6337899"><ele>26.0</ele><time>2026-04-19T14:54:25.833Z</time></trkpt><trkpt lat="45.5020162" lon="11.6341893"><ele>27.0</ele><time>2026-04-19T14:54:26.829Z</time></trkpt><trkpt lat="45.501895" lon="11.634587"><ele>28.0</ele><time>2026-04-19T14:54:27.834Z</time></trkpt><trkpt lat="45.5017716" lon="11.6349826"><ele>27.5</ele><time>2026-04-19T14:54:28.845Z</time></trkpt><trkpt lat="45.5016471" lon="11.6353759"><ele>27.0</ele><time>2026-04-19T14:54:29.846Z</time></trkpt><trkpt lat="45.501524" lon="11.635768"><ele>27.0</ele><time>2026-04-19T14:54:30.848Z</time></trkpt><trkpt lat="45.5014014" lon="11.6361573"><ele>27.0</ele><time>2026-04-19T14:54:31.836Z</time></trkpt><trkpt lat="45.5012759" lon="11.6365414"><ele>26.5</ele><time>2026-04-19T14:54:32.859Z</time></trkpt><trkpt lat="45.5011478" lon="11.6369199"><ele>26.0</ele><time>2026-04-19T14:54:33.86Z</time></trkpt><trkpt lat="45.5010175" lon="11.6372934"><ele>25.5</ele><time>2026-04-19T14:54:34.839Z</time></trkpt><trkpt lat="45.5008863" lon="11.6376648"><ele>25.0</ele><time>2026-04-19T14:54:35.846Z</time></trkpt><trkpt lat="45.5007546" lon="11.6380388"><ele>25.0</ele><time>2026-04-19T14:54:36.833Z</time></trkpt><trkpt lat="45.5006149" lon="11.6384133"><ele>25.0</ele><time>2026-04-19T14:54:37.841Z</time></trkpt><trkpt lat="45.5004774" lon="11.6387959"><ele>25.0</ele><time>2026-04-19T14:54:38.851Z</time></trkpt><trkpt lat="45.5003415" lon="11.6391868"><ele>25.0</ele><time>2026-04-19T14:54:39.853Z</time></trkpt><trkpt lat="45.5002057" lon="11.639587"><ele>25.0</ele><time>2026-04-19T14:54:40.866Z</time></trkpt><trkpt lat="45.5000673" lon="11.6399947"><ele>25.0</ele><time>2026-04-19T14:54:41.85Z</time></trkpt><trkpt lat="45.499922" lon="11.6404047"><ele>25.0</ele><time>2026-04-19T14:54:42.84Z</time></trkpt><trkpt lat="45.4997733" lon="11.6408202"><ele>25.0</ele><time>2026-04-19T14:54:43.842Z</time></trkpt><trkpt lat="45.4996215" lon="11.6412432"><ele>25.0</ele><time>2026-04-19T14:54:44.867Z</time></trkpt><trkpt lat="45.4994684" lon="11.6416664"><ele>25.0</ele><time>2026-04-19T14:54:45.844Z</time></trkpt><trkpt lat="45.4993174" lon="11.6420834"><ele>25.0</ele><time>2026-04-19T14:54:46.848Z</time></trkpt><trkpt lat="45.499171" lon="11.6424957"><ele>25.0</ele><time>2026-04-19T14:54:47.845Z</time></trkpt><trkpt lat="45.4990283" lon="11.6429038"><ele>25.5</ele><time>2026-04-19T14:54:48.847Z</time></trkpt><trkpt lat="45.4988868" lon="11.6433088"><ele>26.0</ele><time>2026-04-19T14:54:49.84Z</time></trkpt><trkpt lat="45.4987454" lon="11.6437097"><ele>26.0</ele><time>2026-04-19T14:54:50.834Z</time></trkpt><trkpt lat="45.4986048" lon="11.6441082"><ele>26.0</ele><time>2026-04-19T14:54:51.842Z</time></trkpt><trkpt lat="45.4984653" lon="11.644506"><ele>26.0</ele><time>2026-04-19T14:54:52.845Z</time></trkpt><trkpt lat="45.4983269" lon="11.6449038"><ele>26.0</ele><time>2026-04-19T14:54:53.833Z</time></trkpt><trkpt lat="45.4981884" lon="11.6453017"><ele>26.5</ele><time>2026-04-19T14:54:54.851Z</time></trkpt><trkpt lat="45.4980486" lon="11.6456982"><ele>27.0</ele><time>2026-04-19T14:54:55.846Z</time></trkpt><trkpt lat="45.4979084" lon="11.6460941"><ele>26.0</ele><time>2026-04-19T14:54:56.849Z</time></trkpt><trkpt lat="45.497769" lon="11.6464917"><ele>25.0</ele><time>2026-04-19T14:54:57.842Z</time></trkpt><trkpt lat="45.4976301" lon="11.6468925"><ele>25.0</ele><time>2026-04-19T14:54:58.842Z</time></trkpt><trkpt lat="45.497492" lon="11.6472982"><ele>25.0</ele><time>2026-04-19T14:54:59.839Z</time></trkpt><trkpt lat="45.4973532" lon="11.6477057"><ele>25.0</ele><time>2026-04-19T14:55:00.853Z</time></trkpt><trkpt lat="45.4972115" lon="11.6481112"><ele>25.0</ele><time>2026-04-19T14:55:01.851Z</time></trkpt><trkpt lat="45.4970681" lon="11.648515"><ele>26.5</ele><time>2026-04-19T14:55:02.844Z</time></trkpt><trkpt lat="45.4969263" lon="11.6489158"><ele>28.0</ele><time>2026-04-19T14:55:03.88Z</time></trkpt><trkpt lat="45.4967884" lon="11.6493123"><ele>27.5</ele><time>2026-04-19T14:55:04.846Z</time></trkpt><trkpt lat="45.4966542" lon="11.6497062"><ele>27.0</ele><time>2026-04-19T14:55:05.868Z</time></trkpt><trkpt lat="45.4965209" lon="11.6500973"><ele>27.0</ele><time>2026-04-19T14:55:06.853Z</time></trkpt><trkpt lat="45.4963856" lon="11.6504858"><ele>27.0</ele><time>2026-04-19T14:55:07.845Z</time></trkpt><trkpt lat="45.4962493" lon="11.6508732"><ele>26.0</ele><time>2026-04-19T14:55:08.865Z</time></trkpt><trkpt lat="45.4961142" lon="11.6512622"><ele>25.0</ele><time>2026-04-19T14:55:09.842Z</time></trkpt><trkpt lat="45.4959812" lon="11.6516538"><ele>26.0</ele><time>2026-04-19T14:55:10.855Z</time></trkpt><trkpt lat="45.4958482" lon="11.6520451"><ele>27.0</ele><time>2026-04-19T14:55:11.845Z</time></trkpt><trkpt lat="45.4957151" lon="11.652436"><ele>27.0</ele><time>2026-04-19T14:55:12.851Z</time></trkpt><trkpt lat="45.495581" lon="11.6528265"><ele>27.0</ele><time>2026-04-19T14:55:13.855Z</time></trkpt><trkpt lat="45.4954467" lon="11.6532173"><ele>26.5</ele><time>2026-04-19T14:55:14.842Z</time></trkpt><trkpt lat="45.4953116" lon="11.6536094"><ele>26.0</ele><time>2026-04-19T14:55:15.833Z</time></trkpt><trkpt lat="45.4951747" lon="11.6540028"><ele>26.0</ele><time>2026-04-19T14:55:16.846Z</time></trkpt><trkpt lat="45.4950358" lon="11.6543967"><ele>26.0</ele><time>2026-04-19T14:55:17.831Z</time></trkpt><trkpt lat="45.4948934" lon="11.6547896"><ele>26.5</ele><time>2026-04-19T14:55:18.838Z</time></trkpt><trkpt lat="45.4947497" lon="11.6551805"><ele>27.0</ele><time>2026-04-19T14:55:19.837Z</time></trkpt><trkpt lat="45.494607" lon="11.655569"><ele>25.5</ele><time>2026-04-19T14:55:20.837Z</time></trkpt><trkpt lat="45.4944695" lon="11.655958"><ele>24.0</ele><time>2026-04-19T14:55:21.844Z</time></trkpt><trkpt lat="45.4943462" lon="11.6563554"><ele>24.0</ele><time>2026-04-19T14:55:22.863Z</time></trkpt><trkpt lat="45.4942128" lon="11.6567446"><ele>24.0</ele><time>2026-04-19T14:55:23.85Z</time></trkpt><trkpt lat="45.4940779" lon="11.6571317"><ele>24.0</ele><time>2026-04-19T14:55:24.848Z</time></trkpt><trkpt lat="45.4939428" lon="11.6575178"><ele>24.0</ele><time>2026-04-19T14:55:25.844Z</time></trkpt><trkpt lat="45.4938075" lon="11.6579035"><ele>24.0</ele><time>2026-04-19T14:55:26.839Z</time></trkpt><trkpt lat="45.4936722" lon="11.6582892"><ele>24.0</ele><time>2026-04-19T14:55:27.85Z</time></trkpt><trkpt lat="45.493537" lon="11.6586751"><ele>24.5</ele><time>2026-04-19T14:55:28.833Z</time></trkpt><trkpt lat="45.4934022" lon="11.6590618"><ele>25.0</ele><time>2026-04-19T14:55:29.841Z</time></trkpt><trkpt lat="45.4932495" lon="11.6594347"><ele>25.5</ele><time>2026-04-19T14:55:30.845Z</time></trkpt><trkpt lat="45.4931119" lon="11.6598189"><ele>26.0</ele><time>2026-04-19T14:55:31.843Z</time></trkpt><trkpt lat="45.4929781" lon="11.6602071"><ele>26.0</ele><time>2026-04-19T14:55:32.843Z</time></trkpt><trkpt lat="45.4928491" lon="11.6605985"><ele>26.0</ele><time>2026-04-19T14:55:33.844Z</time></trkpt><trkpt lat="45.4927287" lon="11.6609945"><ele>25.5</ele><time>2026-04-19T14:55:34.846Z</time></trkpt><trkpt lat="45.4926114" lon="11.6613895"><ele>25.0</ele><time>2026-04-19T14:55:35.857Z</time></trkpt><trkpt lat="45.4924996" lon="11.6617869"><ele>25.0</ele><time>2026-04-19T14:55:36.833Z</time></trkpt><trkpt lat="45.49239" lon="11.6621875"><ele>25.0</ele><time>2026-04-19T14:55:37.846Z</time></trkpt><trkpt lat="45.4922789" lon="11.6625883"><ele>25.5</ele><time>2026-04-19T14:55:38.85Z</time></trkpt><trkpt lat="45.4921694" lon="11.6629912"><ele>26.0</ele><time>2026-04-19T14:55:39.838Z</time></trkpt><trkpt lat="45.4920603" lon="11.6633954"><ele>26.0</ele><time>2026-04-19T14:55:40.856Z</time></trkpt><trkpt lat="45.491966" lon="11.6638093"><ele>26.0</ele><time>2026-04-19T14:55:41.851Z</time></trkpt><trkpt lat="45.4918531" lon="11.6642127"><ele>25.5</ele><time>2026-04-19T14:55:42.84Z</time></trkpt><trkpt lat="45.4917392" lon="11.6646135"><ele>25.0</ele><time>2026-04-19T14:55:43.846Z</time></trkpt><trkpt lat="45.4916262" lon="11.6650133"><ele>24.5</ele><time>2026-04-19T14:55:44.838Z</time></trkpt><trkpt lat="45.4915266" lon="11.6654201"><ele>24.0</ele><time>2026-04-19T14:55:45.873Z</time></trkpt><trkpt lat="45.4914205" lon="11.6658216"><ele>23.5</ele><time>2026-04-19T14:55:46.844Z</time></trkpt><trkpt lat="45.4913105" lon="11.6662201"><ele>23.0</ele><time>2026-04-19T14:55:47.85Z</time></trkpt><trkpt lat="45.4912038" lon="11.6666195"><ele>23.5</ele><time>2026-04-19T14:55:48.837Z</time></trkpt><trkpt lat="45.4910923" lon="11.667017"><ele>24.0</ele><time>2026-04-19T14:55:49.842Z</time></trkpt><trkpt lat="45.4909794" lon="11.6674142"><ele>23.5</ele><time>2026-04-19T14:55:50.848Z</time></trkpt><trkpt lat="45.4908687" lon="11.667811"><ele>23.0</ele><time>2026-04-19T14:55:51.838Z</time></trkpt><trkpt lat="45.4907592" lon="11.6682064"><ele>23.0</ele><time>2026-04-19T14:55:52.851Z</time></trkpt><trkpt lat="45.490651" lon="11.6686008"><ele>23.0</ele><time>2026-04-19T14:55:53.844Z</time></trkpt><trkpt lat="45.4905443" lon="11.6689933"><ele>22.5</ele><time>2026-04-19T14:55:54.843Z</time></trkpt><trkpt lat="45.4904383" lon="11.6693841"><ele>22.0</ele><time>2026-04-19T14:55:55.85Z</time></trkpt><trkpt lat="45.4903322" lon="11.669774"><ele>22.0</ele><time>2026-04-19T14:55:56.846Z</time></trkpt><trkpt lat="45.4902266" lon="11.6701636"><ele>22.0</ele><time>2026-04-19T14:55:57.842Z</time></trkpt><trkpt lat="45.4901209" lon="11.6705527"><ele>22.0</ele><time>2026-04-19T14:55:58.838Z</time></trkpt><trkpt lat="45.4900143" lon="11.6709405"><ele>22.0</ele><time>2026-04-19T14:55:59.841Z</time></trkpt><trkpt lat="45.4899067" lon="11.6713276"><ele>21.5</ele><time>2026-04-19T14:56:00.852Z</time></trkpt><trkpt lat="45.4897976" lon="11.671714"><ele>21.0</ele><time>2026-04-19T14:56:01.845Z</time></trkpt><trkpt lat="45.4896875" lon="11.6721003"><ele>21.0</ele><time>2026-04-19T14:56:02.836Z</time></trkpt><trkpt lat="45.4895767" lon="11.6724888"><ele>21.0</ele><time>2026-04-19T14:56:03.845Z</time></trkpt><trkpt lat="45.4894689" lon="11.6728824"><ele>20.5</ele><time>2026-04-19T14:56:04.869Z</time></trkpt><trkpt lat="45.4893627" lon="11.6732815"><ele>20.0</ele><time>2026-04-19T14:56:05.834Z</time></trkpt><trkpt lat="45.4892569" lon="11.6736855"><ele>20.0</ele><time>2026-04-19T14:56:06.861Z</time></trkpt><trkpt lat="45.48915" lon="11.6740943"><ele>20.0</ele><time>2026-04-19T14:56:07.848Z</time></trkpt><trkpt lat="45.4890398" lon="11.6745067"><ele>20.0</ele><time>2026-04-19T14:56:08.834Z</time></trkpt><trkpt lat="45.4889263" lon="11.6749208"><ele>20.0</ele><time>2026-04-19T14:56:09.844Z</time></trkpt><trkpt lat="45.4888115" lon="11.6753356"><ele>20.5</ele><time>2026-04-19T14:56:10.843Z</time></trkpt><trkpt lat="45.4886962" lon="11.6757511"><ele>21.0</ele><time>2026-04-19T14:56:11.838Z</time></trkpt><trkpt lat="45.4885819" lon="11.6761658"><ele>21.0</ele><time>2026-04-19T14:56:12.847Z</time></trkpt><trkpt lat="45.4884685" lon="11.6765765"><ele>21.0</ele><time>2026-04-19T14:56:13.848Z</time></trkpt><trkpt lat="45.4883553" lon="11.6769847"><ele>21.5</ele><time>2026-04-19T14:56:14.84Z</time></trkpt><trkpt lat="45.4882417" lon="11.6773944"><ele>22.0</ele><time>2026-04-19T14:56:15.838Z</time></trkpt><trkpt lat="45.4881271" lon="11.677807"><ele>22.0</ele><time>2026-04-19T14:56:16.838Z</time></trkpt><trkpt lat="45.4880107" lon="11.6782223"><ele>22.0</ele><time>2026-04-19T14:56:17.846Z</time></trkpt><trkpt lat="45.4878897" lon="11.6786366"><ele>21.5</ele><time>2026-04-19T14:56:18.846Z</time></trkpt><trkpt lat="45.4877644" lon="11.6790492"><ele>21.0</ele><time>2026-04-19T14:56:19.84Z</time></trkpt><trkpt lat="45.4876328" lon="11.6794598"><ele>20.5</ele><time>2026-04-19T14:56:20.848Z</time></trkpt><trkpt lat="45.4874959" lon="11.679866"><ele>20.0</ele><time>2026-04-19T14:56:21.869Z</time></trkpt><trkpt lat="45.487354" lon="11.6802648"><ele>20.0</ele><time>2026-04-19T14:56:22.849Z</time></trkpt><trkpt lat="45.4872096" lon="11.6806562"><ele>20.0</ele><time>2026-04-19T14:56:23.887Z</time></trkpt><trkpt lat="45.4870622" lon="11.6810413"><ele>20.5</ele><time>2026-04-19T14:56:24.838Z</time></trkpt><trkpt lat="45.4869061" lon="11.6814152"><ele>21.0</ele><time>2026-04-19T14:56:25.863Z</time></trkpt><trkpt lat="45.4867564" lon="11.6817891"><ele>21.5</ele><time>2026-04-19T14:56:26.843Z</time></trkpt><trkpt lat="45.4866129" lon="11.6821658"><ele>22.0</ele><time>2026-04-19T14:56:27.849Z</time></trkpt><trkpt lat="45.4864709" lon="11.6825435"><ele>23.0</ele><time>2026-04-19T14:56:28.838Z</time></trkpt><trkpt lat="45.4863386" lon="11.68293"><ele>24.0</ele><time>2026-04-19T14:56:29.843Z</time></trkpt><trkpt lat="45.4862007" lon="11.6833129"><ele>23.5</ele><time>2026-04-19T14:56:30.847Z</time></trkpt><trkpt lat="45.4860523" lon="11.6836879"><ele>23.0</ele><time>2026-04-19T14:56:31.836Z</time></trkpt><trkpt lat="45.4859073" lon="11.6840654"><ele>23.0</ele><time>2026-04-19T14:56:32.84Z</time></trkpt><trkpt lat="45.485762" lon="11.6844451"><ele>23.0</ele><time>2026-04-19T14:56:33.843Z</time></trkpt><trkpt lat="45.4856159" lon="11.6848277"><ele>23.0</ele><time>2026-04-19T14:56:34.84Z</time></trkpt><trkpt lat="45.4854708" lon="11.6852128"><ele>23.0</ele><time>2026-04-19T14:56:35.841Z</time></trkpt><trkpt lat="45.485325" lon="11.6855989"><ele>22.5</ele><time>2026-04-19T14:56:36.845Z</time></trkpt><trkpt lat="45.4851793" lon="11.6859859"><ele>22.0</ele><time>2026-04-19T14:56:37.846Z</time></trkpt><trkpt lat="45.4850277" lon="11.6863667"><ele>22.0</ele><time>2026-04-19T14:56:38.839Z</time></trkpt><trkpt lat="45.4848926" lon="11.6867613"><ele>22.0</ele><time>2026-04-19T14:56:39.843Z</time></trkpt><trkpt lat="45.4847506" lon="11.6871497"><ele>22.0</ele><time>2026-04-19T14:56:40.833Z</time></trkpt><trkpt lat="45.4846074" lon="11.6875361"><ele>22.0</ele><time>2026-04-19T14:56:41.865Z</time></trkpt><trkpt lat="45.4844646" lon="11.6879223"><ele>22.0</ele><time>2026-04-19T14:56:42.838Z</time></trkpt><trkpt lat="45.4843215" lon="11.6883083"><ele>22.0</ele><time>2026-04-19T14:56:43.843Z</time></trkpt><trkpt lat="45.4841785" lon="11.6886954"><ele>22.0</ele><time>2026-04-19T14:56:44.85Z</time></trkpt><trkpt lat="45.4840359" lon="11.6890837"><ele>22.0</ele><time>2026-04-19T14:56:45.834Z</time></trkpt><trkpt lat="45.4838934" lon="11.6894719"><ele>21.0</ele><time>2026-04-19T14:56:46.855Z</time></trkpt><trkpt lat="45.4837516" lon="11.6898594"><ele>20.0</ele><time>2026-04-19T14:56:47.864Z</time></trkpt><trkpt lat="45.4836094" lon="11.6902451"><ele>20.5</ele><time>2026-04-19T14:56:48.863Z</time></trkpt><trkpt lat="45.4834706" lon="11.690632"><ele>21.0</ele><time>2026-04-19T14:56:49.839Z</time></trkpt><trkpt lat="45.4833307" lon="11.6910147"><ele>21.0</ele><time>2026-04-19T14:56:50.836Z</time></trkpt><trkpt lat="45.4831985" lon="11.6914023"><ele>21.0</ele><time>2026-04-19T14:56:51.848Z</time></trkpt><trkpt lat="45.4830698" lon="11.6917904"><ele>21.5</ele><time>2026-04-19T14:56:52.834Z</time></trkpt><trkpt lat="45.4829469" lon="11.6921801"><ele>22.0</ele><time>2026-04-19T14:56:53.837Z</time></trkpt><trkpt lat="45.4828243" lon="11.6925674"><ele>22.0</ele><time>2026-04-19T14:56:54.84Z</time></trkpt><trkpt lat="45.4827014" lon="11.6929532"><ele>22.0</ele><time>2026-04-19T14:56:55.859Z</time></trkpt><trkpt lat="45.4825771" lon="11.6933414"><ele>22.5</ele><time>2026-04-19T14:56:56.844Z</time></trkpt><trkpt lat="45.4824505" lon="11.6937316"><ele>23.0</ele><time>2026-04-19T14:56:57.849Z</time></trkpt><trkpt lat="45.4823222" lon="11.6941235"><ele>22.5</ele><time>2026-04-19T14:56:58.858Z</time></trkpt><trkpt lat="45.4821922" lon="11.6945174"><ele>22.0</ele><time>2026-04-19T14:56:59.859Z</time></trkpt><trkpt lat="45.4820614" lon="11.6949139"><ele>21.5</ele><time>2026-04-19T14:57:00.858Z</time></trkpt><trkpt lat="45.4819311" lon="11.6953142"><ele>21.0</ele><time>2026-04-19T14:57:01.84Z</time></trkpt><trkpt lat="45.4818005" lon="11.6957168"><ele>21.0</ele><time>2026-04-19T14:57:02.844Z</time></trkpt><trkpt lat="45.4816694" lon="11.6961209"><ele>21.0</ele><time>2026-04-19T14:57:03.847Z</time></trkpt><trkpt lat="45.4815388" lon="11.696527"><ele>21.5</ele><time>2026-04-19T14:57:04.849Z</time></trkpt><trkpt lat="45.4814085" lon="11.6969336"><ele>22.0</ele><time>2026-04-19T14:57:05.852Z</time></trkpt><trkpt lat="45.4812798" lon="11.6973357"><ele>21.5</ele><time>2026-04-19T14:57:06.838Z</time></trkpt><trkpt lat="45.4811537" lon="11.6977324"><ele>21.0</ele><time>2026-04-19T14:57:07.839Z</time></trkpt><trkpt lat="45.4810282" lon="11.6981247"><ele>21.0</ele><time>2026-04-19T14:57:08.845Z</time></trkpt><trkpt lat="45.480902" lon="11.6985142"><ele>21.0</ele><time>2026-04-19T14:57:09.832Z</time></trkpt><trkpt lat="45.480775" lon="11.6989036"><ele>21.0</ele><time>2026-04-19T14:57:10.858Z</time></trkpt><trkpt lat="45.480647" lon="11.6992929"><ele>21.0</ele><time>2026-04-19T14:57:11.845Z</time></trkpt><trkpt lat="45.4805177" lon="11.6996843"><ele>21.5</ele><time>2026-04-19T14:57:12.831Z</time></trkpt><trkpt lat="45.480387" lon="11.7000784"><ele>22.0</ele><time>2026-04-19T14:57:13.844Z</time></trkpt><trkpt lat="45.480249" lon="11.7004674"><ele>22.5</ele><time>2026-04-19T14:57:14.838Z</time></trkpt><trkpt lat="45.4801187" lon="11.7008678"><ele>23.0</ele><time>2026-04-19T14:57:15.847Z</time></trkpt><trkpt lat="45.4799931" lon="11.7012594"><ele>22.5</ele><time>2026-04-19T14:57:16.836Z</time></trkpt><trkpt lat="45.4798665" lon="11.7016561"><ele>22.0</ele><time>2026-04-19T14:57:17.839Z</time></trkpt><trkpt lat="45.4797412" lon="11.7020499"><ele>22.0</ele><time>2026-04-19T14:57:18.836Z</time></trkpt><trkpt lat="45.4796169" lon="11.7024386"><ele>22.0</ele><time>2026-04-19T14:57:19.835Z</time></trkpt><trkpt lat="45.4794944" lon="11.702827"><ele>23.0</ele><time>2026-04-19T14:57:20.838Z</time></trkpt><trkpt lat="45.4793729" lon="11.7032195"><ele>24.0</ele><time>2026-04-19T14:57:21.84Z</time></trkpt><trkpt lat="45.4792481" lon="11.7036183"><ele>24.5</ele><time>2026-04-19T14:57:22.853Z</time></trkpt><trkpt lat="45.4791219" lon="11.704012"><ele>25.0</ele><time>2026-04-19T14:57:23.867Z</time></trkpt><trkpt lat="45.4789948" lon="11.704404"><ele>24.0</ele><time>2026-04-19T14:57:24.835Z</time></trkpt><trkpt lat="45.4788647" lon="11.7048047"><ele>23.0</ele><time>2026-04-19T14:57:25.84Z</time></trkpt><trkpt lat="45.478737" lon="11.7052024"><ele>23.0</ele><time>2026-04-19T14:57:26.856Z</time></trkpt><trkpt lat="45.4786124" lon="11.7055957"><ele>23.0</ele><time>2026-04-19T14:57:27.854Z</time></trkpt><trkpt lat="45.4784865" lon="11.705993"><ele>23.0</ele><time>2026-04-19T14:57:28.851Z</time></trkpt><trkpt lat="45.4783628" lon="11.7063837"><ele>23.0</ele><time>2026-04-19T14:57:29.856Z</time></trkpt><trkpt lat="45.4782379" lon="11.706772"><ele>22.5</ele><time>2026-04-19T14:57:30.846Z</time></trkpt><trkpt lat="45.4781133" lon="11.7071601"><ele>22.0</ele><time>2026-04-19T14:57:31.836Z</time></trkpt><trkpt lat="45.4779896" lon="11.7075451"><ele>22.0</ele><time>2026-04-19T14:57:32.829Z</time></trkpt><trkpt lat="45.4778648" lon="11.7079373"><ele>22.0</ele><time>2026-04-19T14:57:33.835Z</time></trkpt><trkpt lat="45.4777422" lon="11.7083278"><ele>22.5</ele><time>2026-04-19T14:57:34.836Z</time></trkpt><trkpt lat="45.4776093" lon="11.7087128"><ele>23.0</ele><time>2026-04-19T14:57:35.85Z</time></trkpt><trkpt lat="45.4774803" lon="11.7090931"><ele>22.0</ele><time>2026-04-19T14:57:36.835Z</time></trkpt><trkpt lat="45.4773498" lon="11.7094835"><ele>21.0</ele><time>2026-04-19T14:57:37.845Z</time></trkpt><trkpt lat="45.4772221" lon="11.7098739"><ele>20.5</ele><time>2026-04-19T14:57:38.862Z</time></trkpt><trkpt lat="45.4770962" lon="11.7102582"><ele>20.0</ele><time>2026-04-19T14:57:39.831Z</time></trkpt><trkpt lat="45.4769665" lon="11.7106472"><ele>20.0</ele><time>2026-04-19T14:57:40.836Z</time></trkpt><trkpt lat="45.4768359" lon="11.7110395"><ele>20.0</ele><time>2026-04-19T14:57:41.85Z</time></trkpt><trkpt lat="45.4767079" lon="11.7114261"><ele>20.5</ele><time>2026-04-19T14:57:42.843Z</time></trkpt><trkpt lat="45.4765795" lon="11.711817"><ele>21.0</ele><time>2026-04-19T14:57:43.842Z</time></trkpt><trkpt lat="45.4764519" lon="11.7122061"><ele>21.0</ele><time>2026-04-19T14:57:44.84Z</time></trkpt><trkpt lat="45.4763222" lon="11.7126001"><ele>21.0</ele><time>2026-04-19T14:57:45.842Z</time></trkpt><trkpt lat="45.4761941" lon="11.7129908"><ele>21.0</ele><time>2026-04-19T14:57:46.833Z</time></trkpt><trkpt lat="45.4760639" lon="11.7133851"><ele>21.0</ele><time>2026-04-19T14:57:47.84Z</time></trkpt><trkpt lat="45.4759324" lon="11.713782"><ele>21.0</ele><time>2026-04-19T14:57:48.841Z</time></trkpt><trkpt lat="45.4758019" lon="11.7141748"><ele>21.0</ele><time>2026-04-19T14:57:49.837Z</time></trkpt><trkpt lat="45.4756702" lon="11.7145747"><ele>21.0</ele><time>2026-04-19T14:57:50.853Z</time></trkpt><trkpt lat="45.4755423" lon="11.7149696"><ele>21.0</ele><time>2026-04-19T14:57:51.856Z</time></trkpt><trkpt lat="45.4754152" lon="11.7153666"><ele>21.0</ele><time>2026-04-19T14:57:52.853Z</time></trkpt><trkpt lat="45.4752906" lon="11.7157597"><ele>21.0</ele><time>2026-04-19T14:57:53.832Z</time></trkpt><trkpt lat="45.4751627" lon="11.7161617"><ele>20.5</ele><time>2026-04-19T14:57:54.835Z</time></trkpt><trkpt lat="45.4750352" lon="11.7165585"><ele>20.0</ele><time>2026-04-19T14:57:55.837Z</time></trkpt><trkpt lat="45.4749073" lon="11.7169558"><ele>19.5</ele><time>2026-04-19T14:57:56.845Z</time></trkpt><trkpt lat="45.4747783" lon="11.7173568"><ele>19.0</ele><time>2026-04-19T14:57:57.854Z</time></trkpt><trkpt lat="45.4746521" lon="11.7177509"><ele>19.0</ele><time>2026-04-19T14:57:58.855Z</time></trkpt><trkpt lat="45.4745247" lon="11.7181522"><ele>19.0</ele><time>2026-04-19T14:57:59.854Z</time></trkpt><trkpt lat="45.4743979" lon="11.7185507"><ele>19.5</ele><time>2026-04-19T14:58:00.841Z</time></trkpt><trkpt lat="45.4742699" lon="11.7189499"><ele>20.0</ele><time>2026-04-19T14:58:01.833Z</time></trkpt><trkpt lat="45.4741396" lon="11.7193538"><ele>19.5</ele><time>2026-04-19T14:58:02.858Z</time></trkpt><trkpt lat="45.474012" lon="11.7197447"><ele>19.0</ele><time>2026-04-19T14:58:03.838Z</time></trkpt><trkpt lat="45.4738817" lon="11.7201395"><ele>19.0</ele><time>2026-04-19T14:58:04.834Z</time></trkpt><trkpt lat="45.4737508" lon="11.7205324"><ele>19.0</ele><time>2026-04-19T14:58:05.841Z</time></trkpt><trkpt lat="45.4736235" lon="11.7209184"><ele>20.0</ele><time>2026-04-19T14:58:06.837Z</time></trkpt><trkpt lat="45.4734985" lon="11.7213085"><ele>21.0</ele><time>2026-04-19T14:58:07.845Z</time></trkpt><trkpt lat="45.4733747" lon="11.7216965"><ele>20.0</ele><time>2026-04-19T14:58:08.839Z</time></trkpt><trkpt lat="45.4732483" lon="11.7220846"><ele>19.0</ele><time>2026-04-19T14:58:09.848Z</time></trkpt><trkpt lat="45.4731183" lon="11.7224721"><ele>19.0</ele><time>2026-04-19T14:58:10.841Z</time></trkpt><trkpt lat="45.4729873" lon="11.7228577"><ele>19.0</ele><time>2026-04-19T14:58:11.841Z</time></trkpt><trkpt lat="45.4728571" lon="11.7232479"><ele>19.0</ele><time>2026-04-19T14:58:12.84Z</time></trkpt><trkpt lat="45.4727312" lon="11.723633"><ele>19.0</ele><time>2026-04-19T14:58:13.84Z</time></trkpt><trkpt lat="45.4726038" lon="11.7240248"><ele>18.5</ele><time>2026-04-19T14:58:14.858Z</time></trkpt><trkpt lat="45.4724789" lon="11.72441"><ele>18.0</ele><time>2026-04-19T14:58:15.846Z</time></trkpt><trkpt lat="45.4723523" lon="11.7248"><ele>18.0</ele><time>2026-04-19T14:58:16.841Z</time></trkpt><trkpt lat="45.4722256" lon="11.7251885"><ele>18.0</ele><time>2026-04-19T14:58:17.84Z</time></trkpt><trkpt lat="45.4720994" lon="11.7255815"><ele>18.0</ele><time>2026-04-19T14:58:18.835Z</time></trkpt><trkpt lat="45.4719712" lon="11.7259772"><ele>18.0</ele><time>2026-04-19T14:58:19.865Z</time></trkpt><trkpt lat="45.4718448" lon="11.7263604"><ele>18.5</ele><time>2026-04-19T14:58:20.844Z</time></trkpt><trkpt lat="45.4717164" lon="11.7267501"><ele>19.0</ele><time>2026-04-19T14:58:21.839Z</time></trkpt><trkpt lat="45.4715873" lon="11.7271382"><ele>19.0</ele><time>2026-04-19T14:58:22.842Z</time></trkpt><trkpt lat="45.4714559" lon="11.727525"><ele>19.0</ele><time>2026-04-19T14:58:23.845Z</time></trkpt><trkpt lat="45.4713343" lon="11.7279183"><ele>18.5</ele><time>2026-04-19T14:58:24.836Z</time></trkpt><trkpt lat="45.4712096" lon="11.7283125"><ele>18.0</ele><time>2026-04-19T14:58:25.834Z</time></trkpt><trkpt lat="45.4710841" lon="11.7287056"><ele>18.0</ele><time>2026-04-19T14:58:26.84Z</time></trkpt><trkpt lat="45.4709573" lon="11.7290973"><ele>18.0</ele><time>2026-04-19T14:58:27.838Z</time></trkpt><trkpt lat="45.4708315" lon="11.7294883"><ele>18.0</ele><time>2026-04-19T14:58:28.839Z</time></trkpt><trkpt lat="45.4707059" lon="11.7298814"><ele>18.0</ele><time>2026-04-19T14:58:29.844Z</time></trkpt><trkpt lat="45.4705804" lon="11.7302727"><ele>18.0</ele><time>2026-04-19T14:58:30.86Z</time></trkpt><trkpt lat="45.4704524" lon="11.7306547"><ele>18.0</ele><time>2026-04-19T14:58:31.837Z</time></trkpt><trkpt lat="45.4703262" lon="11.7310464"><ele>18.5</ele><time>2026-04-19T14:58:32.837Z</time></trkpt><trkpt lat="45.4702008" lon="11.7314377"><ele>19.0</ele><time>2026-04-19T14:58:33.839Z</time></trkpt><trkpt lat="45.4700742" lon="11.7318306"><ele>19.0</ele><time>2026-04-19T14:58:34.841Z</time></trkpt><trkpt lat="45.469948" lon="11.7322193"><ele>19.0</ele><time>2026-04-19T14:58:35.838Z</time></trkpt><trkpt lat="45.469821" lon="11.7326111"><ele>18.5</ele><time>2026-04-19T14:58:36.841Z</time></trkpt><trkpt lat="45.4696951" lon="11.7330027"><ele>18.0</ele><time>2026-04-19T14:58:37.851Z</time></trkpt><trkpt lat="45.4695709" lon="11.7333918"><ele>18.0</ele><time>2026-04-19T14:58:38.842Z</time></trkpt><trkpt lat="45.4694476" lon="11.733784"><ele>18.0</ele><time>2026-04-19T14:58:39.842Z</time></trkpt><trkpt lat="45.469327" lon="11.7341795"><ele>18.0</ele><time>2026-04-19T14:58:40.843Z</time></trkpt><trkpt lat="45.4692119" lon="11.7345757"><ele>18.0</ele><time>2026-04-19T14:58:41.846Z</time></trkpt><trkpt lat="45.4691026" lon="11.7349766"><ele>17.5</ele><time>2026-04-19T14:58:42.863Z</time></trkpt><trkpt lat="45.469002" lon="11.7353771"><ele>17.0</ele><time>2026-04-19T14:58:43.842Z</time></trkpt><trkpt lat="45.4689072" lon="11.7357813"><ele>17.0</ele><time>2026-04-19T14:58:44.837Z</time></trkpt><trkpt lat="45.4688164" lon="11.7361923"><ele>17.0</ele><time>2026-04-19T14:58:45.848Z</time></trkpt><trkpt lat="45.468732" lon="11.7366044"><ele>16.5</ele><time>2026-04-19T14:58:46.853Z</time></trkpt><trkpt lat="45.4686537" lon="11.7370204"><ele>16.0</ele><time>2026-04-19T14:58:47.846Z</time></trkpt><trkpt lat="45.4685807" lon="11.7374346"><ele>16.5</ele><time>2026-04-19T14:58:48.841Z</time></trkpt><trkpt lat="45.4685107" lon="11.7378558"><ele>17.0</ele><time>2026-04-19T14:58:49.841Z</time></trkpt><trkpt lat="45.4684459" lon="11.7382749"><ele>17.5</ele><time>2026-04-19T14:58:50.846Z</time></trkpt><trkpt lat="45.4683831" lon="11.7386938"><ele>18.0</ele><time>2026-04-19T14:58:51.834Z</time></trkpt><trkpt lat="45.4683188" lon="11.7391172"><ele>17.5</ele><time>2026-04-19T14:58:52.846Z</time></trkpt><trkpt lat="45.4682525" lon="11.7395346"><ele>17.0</ele><time>2026-04-19T14:58:53.834Z</time></trkpt><trkpt lat="45.468188" lon="11.7399574"><ele>16.5</ele><time>2026-04-19T14:58:54.85Z</time></trkpt><trkpt lat="45.468124" lon="11.7403714"><ele>16.0</ele><time>2026-04-19T14:58:55.841Z</time></trkpt><trkpt lat="45.4680609" lon="11.740791"><ele>16.5</ele><time>2026-04-19T14:58:56.841Z</time></trkpt><trkpt lat="45.4679977" lon="11.7412114"><ele>17.0</ele><time>2026-04-19T14:58:57.857Z</time></trkpt><trkpt lat="45.4679332" lon="11.7416291"><ele>17.0</ele><time>2026-04-19T14:58:58.855Z</time></trkpt><trkpt lat="45.467866" lon="11.7420467"><ele>17.0</ele><time>2026-04-19T14:58:59.854Z</time></trkpt><trkpt lat="45.4677897" lon="11.7424643"><ele>16.5</ele><time>2026-04-19T14:59:00.858Z</time></trkpt><trkpt lat="45.4677115" lon="11.742877"><ele>16.0</ele><time>2026-04-19T14:59:01.846Z</time></trkpt><trkpt lat="45.4676329" lon="11.7432936"><ele>16.0</ele><time>2026-04-19T14:59:02.848Z</time></trkpt><trkpt lat="45.467558" lon="11.7437129"><ele>16.0</ele><time>2026-04-19T14:59:03.85Z</time></trkpt><trkpt lat="45.4674882" lon="11.7441293"><ele>17.0</ele><time>2026-04-19T14:59:04.85Z</time></trkpt><trkpt lat="45.4674219" lon="11.744546"><ele>18.0</ele><time>2026-04-19T14:59:05.848Z</time></trkpt><trkpt lat="45.467358" lon="11.7449682"><ele>18.5</ele><time>2026-04-19T14:59:06.854Z</time></trkpt><trkpt lat="45.467296" lon="11.7453857"><ele>19.0</ele><time>2026-04-19T14:59:07.843Z</time></trkpt><trkpt lat="45.4672338" lon="11.7458081"><ele>19.0</ele><time>2026-04-19T14:59:08.853Z</time></trkpt><trkpt lat="45.4671724" lon="11.746228"><ele>19.0</ele><time>2026-04-19T14:59:09.856Z</time></trkpt><trkpt lat="45.4671093" lon="11.7466445"><ele>19.0</ele><time>2026-04-19T14:59:10.842Z</time></trkpt><trkpt lat="45.4670467" lon="11.7470637"><ele>19.0</ele><time>2026-04-19T14:59:11.848Z</time></trkpt><trkpt lat="45.4669853" lon="11.7474805"><ele>18.5</ele><time>2026-04-19T14:59:12.845Z</time></trkpt><trkpt lat="45.4669241" lon="11.747896"><ele>18.0</ele><time>2026-04-19T14:59:13.838Z</time></trkpt><trkpt lat="45.4668616" lon="11.7483181"><ele>18.5</ele><time>2026-04-19T14:59:14.856Z</time></trkpt><trkpt lat="45.4667987" lon="11.748735"><ele>19.0</ele><time>2026-04-19T14:59:15.842Z</time></trkpt><trkpt lat="45.4667356" lon="11.7491615"><ele>19.5</ele><time>2026-04-19T14:59:16.857Z</time></trkpt><trkpt lat="45.4666722" lon="11.7495776"><ele>20.0</ele><time>2026-04-19T14:59:17.851Z</time></trkpt><trkpt lat="45.4666073" lon="11.7499959"><ele>21.0</ele><time>2026-04-19T14:59:18.847Z</time></trkpt><trkpt lat="45.4665426" lon="11.7504188"><ele>22.0</ele><time>2026-04-19T14:59:19.857Z</time></trkpt><trkpt lat="45.4664775" lon="11.7508342"><ele>21.5</ele><time>2026-04-19T14:59:20.839Z</time></trkpt><trkpt lat="45.4664089" lon="11.7512557"><ele>21.0</ele><time>2026-04-19T14:59:21.857Z</time></trkpt><trkpt lat="45.4663391" lon="11.7516736"><ele>20.0</ele><time>2026-04-19T14:59:22.853Z</time></trkpt><trkpt lat="45.466269" lon="11.7520885"><ele>19.0</ele><time>2026-04-19T14:59:23.847Z</time></trkpt><trkpt lat="45.4661992" lon="11.7525072"><ele>19.5</ele><time>2026-04-19T14:59:24.848Z</time></trkpt><trkpt lat="45.4661307" lon="11.7529257"><ele>20.0</ele><time>2026-04-19T14:59:25.841Z</time></trkpt><trkpt lat="45.4660628" lon="11.7533472"><ele>21.0</ele><time>2026-04-19T14:59:26.853Z</time></trkpt><trkpt lat="45.4659954" lon="11.7537669"><ele>22.0</ele><time>2026-04-19T14:59:27.859Z</time></trkpt><trkpt lat="45.4659287" lon="11.7541781"><ele>21.5</ele><time>2026-04-19T14:59:28.837Z</time></trkpt><trkpt lat="45.4658578" lon="11.7545982"><ele>21.0</ele><time>2026-04-19T14:59:29.845Z</time></trkpt><trkpt lat="45.4657844" lon="11.755015"><ele>21.0</ele><time>2026-04-19T14:59:30.84Z</time></trkpt><trkpt lat="45.4657093" lon="11.7554337"><ele>21.0</ele><time>2026-04-19T14:59:31.854Z</time></trkpt><trkpt lat="45.4656356" lon="11.7558512"><ele>20.5</ele><time>2026-04-19T14:59:32.839Z</time></trkpt><trkpt lat="45.4655629" lon="11.7562699"><ele>20.0</ele><time>2026-04-19T14:59:33.851Z</time></trkpt><trkpt lat="45.4654915" lon="11.756686"><ele>20.0</ele><time>2026-04-19T14:59:34.841Z</time></trkpt><trkpt lat="45.4654192" lon="11.7571074"><ele>20.0</ele><time>2026-04-19T14:59:35.855Z</time></trkpt><trkpt lat="45.4653491" lon="11.7575228"><ele>20.5</ele><time>2026-04-19T14:59:36.842Z</time></trkpt><trkpt lat="45.4652802" lon="11.7579425"><ele>21.0</ele><time>2026-04-19T14:59:37.859Z</time></trkpt><trkpt lat="45.4652137" lon="11.7583607"><ele>21.0</ele><time>2026-04-19T14:59:38.867Z</time></trkpt><trkpt lat="45.4651469" lon="11.758774"><ele>21.0</ele><time>2026-04-19T14:59:39.854Z</time></trkpt><trkpt lat="45.4650767" lon="11.7591957"><ele>20.0</ele><time>2026-04-19T14:59:40.846Z</time></trkpt><trkpt lat="45.4650057" lon="11.7596121"><ele>19.0</ele><time>2026-04-19T14:59:41.842Z</time></trkpt><trkpt lat="45.4649344" lon="11.7600325"><ele>18.5</ele><time>2026-04-19T14:59:42.839Z</time></trkpt><trkpt lat="45.4648643" lon="11.7604506"><ele>18.0</ele><time>2026-04-19T14:59:43.837Z</time></trkpt><trkpt lat="45.464796" lon="11.7608698"><ele>17.5</ele><time>2026-04-19T14:59:44.839Z</time></trkpt><trkpt lat="45.4647283" lon="11.7612883"><ele>17.0</ele><time>2026-04-19T14:59:45.838Z</time></trkpt><trkpt lat="45.46466" lon="11.7617073"><ele>18.0</ele><time>2026-04-19T14:59:46.838Z</time></trkpt><trkpt lat="45.4645906" lon="11.7621255"><ele>19.0</ele><time>2026-04-19T14:59:47.839Z</time></trkpt><trkpt lat="45.4645205" lon="11.7625438"><ele>19.0</ele><time>2026-04-19T14:59:48.844Z</time></trkpt><trkpt lat="45.4644479" lon="11.7629604"><ele>19.0</ele><time>2026-04-19T14:59:49.836Z</time></trkpt><trkpt lat="45.464369" lon="11.7633823"><ele>18.5</ele><time>2026-04-19T14:59:50.859Z</time></trkpt><trkpt lat="45.464284" lon="11.7637887"><ele>18.0</ele><time>2026-04-19T14:59:51.841Z</time></trkpt><trkpt lat="45.464192" lon="11.7641997"><ele>18.0</ele><time>2026-04-19T14:59:52.846Z</time></trkpt><trkpt lat="45.464095" lon="11.7646067"><ele>18.0</ele><time>2026-04-19T14:59:53.828Z</time></trkpt><trkpt lat="45.4639918" lon="11.7650134"><ele>18.0</ele><time>2026-04-19T14:59:54.844Z</time></trkpt><trkpt lat="45.4638857" lon="11.7654138"><ele>18.0</ele><time>2026-04-19T14:59:55.853Z</time></trkpt><trkpt lat="45.4637775" lon="11.7658128"><ele>17.5</ele><time>2026-04-19T14:59:56.835Z</time></trkpt><trkpt lat="45.4636653" lon="11.7662163"><ele>17.0</ele><time>2026-04-19T14:59:57.859Z</time></trkpt><trkpt lat="45.4635515" lon="11.7666129"><ele>17.5</ele><time>2026-04-19T14:59:58.847Z</time></trkpt><trkpt lat="45.4634353" lon="11.7670084"><ele>18.0</ele><time>2026-04-19T14:59:59.847Z</time></trkpt><trkpt lat="45.463319" lon="11.767405"><ele>17.5</ele><time>2026-04-19T15:00:00.852Z</time></trkpt><trkpt lat="45.4632049" lon="11.7677941"><ele>17.0</ele><time>2026-04-19T15:00:01.839Z</time></trkpt><trkpt lat="45.4630871" lon="11.7681899"><ele>17.0</ele><time>2026-04-19T15:00:02.837Z</time></trkpt><trkpt lat="45.4629675" lon="11.7685843"><ele>17.0</ele><time>2026-04-19T15:00:03.838Z</time></trkpt><trkpt lat="45.462846" lon="11.7689766"><ele>17.0</ele><time>2026-04-19T15:00:04.837Z</time></trkpt><trkpt lat="45.4627237" lon="11.7693682"><ele>17.0</ele><time>2026-04-19T15:00:05.846Z</time></trkpt><trkpt lat="45.4626017" lon="11.7697604"><ele>17.0</ele><time>2026-04-19T15:00:06.832Z</time></trkpt><trkpt lat="45.4624794" lon="11.7701537"><ele>17.0</ele><time>2026-04-19T15:00:07.844Z</time></trkpt><trkpt lat="45.4623578" lon="11.7705443"><ele>17.0</ele><time>2026-04-19T15:00:08.85Z</time></trkpt><trkpt lat="45.4622372" lon="11.770936"><ele>17.0</ele><time>2026-04-19T15:00:09.848Z</time></trkpt><trkpt lat="45.4621167" lon="11.7713276"><ele>17.5</ele><time>2026-04-19T15:00:10.841Z</time></trkpt><trkpt lat="45.4619968" lon="11.7717227"><ele>18.0</ele><time>2026-04-19T15:00:11.857Z</time></trkpt><trkpt lat="45.4618782" lon="11.7721111"><ele>18.0</ele><time>2026-04-19T15:00:12.835Z</time></trkpt><trkpt lat="45.4617564" lon="11.772509"><ele>18.0</ele><time>2026-04-19T15:00:13.849Z</time></trkpt><trkpt lat="45.4616355" lon="11.7729052"><ele>18.0</ele><time>2026-04-19T15:00:14.854Z</time></trkpt><trkpt lat="45.4615153" lon="11.7732982"><ele>18.0</ele><time>2026-04-19T15:00:15.854Z</time></trkpt><trkpt lat="45.4613964" lon="11.7736914"><ele>17.5</ele><time>2026-04-19T15:00:16.848Z</time></trkpt><trkpt lat="45.461278" lon="11.7740821"><ele>17.0</ele><time>2026-04-19T15:00:17.849Z</time></trkpt><trkpt lat="45.4611585" lon="11.7744755"><ele>16.5</ele><time>2026-04-19T15:00:18.836Z</time></trkpt><trkpt lat="45.4610381" lon="11.7748711"><ele>16.0</ele><time>2026-04-19T15:00:19.835Z</time></trkpt><trkpt lat="45.4609178" lon="11.7752656"><ele>17.0</ele><time>2026-04-19T15:00:20.835Z</time></trkpt><trkpt lat="45.4607956" lon="11.775661"><ele>18.0</ele><time>2026-04-19T15:00:21.851Z</time></trkpt><trkpt lat="45.4606777" lon="11.7760477"><ele>18.5</ele><time>2026-04-19T15:00:22.844Z</time></trkpt><trkpt lat="45.4605571" lon="11.7764423"><ele>19.0</ele><time>2026-04-19T15:00:23.845Z</time></trkpt><trkpt lat="45.4604368" lon="11.7768409"><ele>18.5</ele><time>2026-04-19T15:00:24.854Z</time></trkpt><trkpt lat="45.4603168" lon="11.7772365"><ele>18.0</ele><time>2026-04-19T15:00:25.858Z</time></trkpt><trkpt lat="45.460199" lon="11.7776295"><ele>18.0</ele><time>2026-04-19T15:00:26.838Z</time></trkpt><trkpt lat="45.4600782" lon="11.7780279"><ele>18.0</ele><time>2026-04-19T15:00:27.847Z</time></trkpt><trkpt lat="45.4599589" lon="11.77842"><ele>17.5</ele><time>2026-04-19T15:00:28.838Z</time></trkpt><trkpt lat="45.4598417" lon="11.7788172"><ele>17.0</ele><time>2026-04-19T15:00:29.856Z</time></trkpt><trkpt lat="45.4597268" lon="11.7792104"><ele>17.0</ele><time>2026-04-19T15:00:30.844Z</time></trkpt><trkpt lat="45.4596103" lon="11.7796091"><ele>17.0</ele><time>2026-04-19T15:00:31.85Z</time></trkpt><trkpt lat="45.4594968" lon="11.7800032"><ele>17.0</ele><time>2026-04-19T15:00:32.84Z</time></trkpt><trkpt lat="45.4593797" lon="11.7804055"><ele>17.0</ele><time>2026-04-19T15:00:33.844Z</time></trkpt><trkpt lat="45.4592604" lon="11.7808075"><ele>17.5</ele><time>2026-04-19T15:00:34.838Z</time></trkpt><trkpt lat="45.4591386" lon="11.7812132"><ele>18.0</ele><time>2026-04-19T15:00:35.845Z</time></trkpt><trkpt lat="45.4590158" lon="11.7816178"><ele>17.5</ele><time>2026-04-19T15:00:36.838Z</time></trkpt><trkpt lat="45.4588901" lon="11.782026"><ele>17.0</ele><time>2026-04-19T15:00:37.836Z</time></trkpt><trkpt lat="45.4587633" lon="11.7824326"><ele>16.5</ele><time>2026-04-19T15:00:38.828Z</time></trkpt><trkpt lat="45.4586362" lon="11.78284"><ele>16.0</ele><time>2026-04-19T15:00:39.844Z</time></trkpt><trkpt lat="45.4584967" lon="11.7832325"><ele>16.5</ele><time>2026-04-19T15:00:40.854Z</time></trkpt><trkpt lat="45.4583721" lon="11.7836328"><ele>17.0</ele><time>2026-04-19T15:00:41.839Z</time></trkpt><trkpt lat="45.4582436" lon="11.7840431"><ele>16.0</ele><time>2026-04-19T15:00:42.849Z</time></trkpt><trkpt lat="45.4581145" lon="11.7844463"><ele>15.0</ele><time>2026-04-19T15:00:43.86Z</time></trkpt><trkpt lat="45.4579895" lon="11.7848461"><ele>15.5</ele><time>2026-04-19T15:00:44.847Z</time></trkpt><trkpt lat="45.4578643" lon="11.7852503"><ele>16.0</ele><time>2026-04-19T15:00:45.846Z</time></trkpt><trkpt lat="45.4577398" lon="11.7856562"><ele>17.0</ele><time>2026-04-19T15:00:46.846Z</time></trkpt><trkpt lat="45.4576157" lon="11.786065"><ele>18.0</ele><time>2026-04-19T15:00:47.836Z</time></trkpt><trkpt lat="45.4574907" lon="11.7864759"><ele>17.0</ele><time>2026-04-19T15:00:48.849Z</time></trkpt><trkpt lat="45.4573678" lon="11.7868821"><ele>16.0</ele><time>2026-04-19T15:00:49.839Z</time></trkpt><trkpt lat="45.4572444" lon="11.7872892"><ele>16.0</ele><time>2026-04-19T15:00:50.847Z</time></trkpt><trkpt lat="45.4571199" lon="11.7876965"><ele>16.0</ele><time>2026-04-19T15:00:51.853Z</time></trkpt><trkpt lat="45.4569966" lon="11.7880995"><ele>16.0</ele><time>2026-04-19T15:00:52.855Z</time></trkpt><trkpt lat="45.456873" lon="11.7885033"><ele>16.0</ele><time>2026-04-19T15:00:53.837Z</time></trkpt><trkpt lat="45.4567468" lon="11.7889131"><ele>16.0</ele><time>2026-04-19T15:00:54.862Z</time></trkpt><trkpt lat="45.4566236" lon="11.7893182"><ele>16.0</ele><time>2026-04-19T15:00:55.862Z</time></trkpt><trkpt lat="45.4565136" lon="11.789721"><ele>16.0</ele><time>2026-04-19T15:00:56.853Z</time></trkpt><trkpt lat="45.4564013" lon="11.7901371"><ele>16.0</ele><time>2026-04-19T15:00:57.862Z</time></trkpt><trkpt lat="45.4562969" lon="11.7905488"><ele>15.5</ele><time>2026-04-19T15:00:58.845Z</time></trkpt><trkpt lat="45.4561967" lon="11.7909699"><ele>15.0</ele><time>2026-04-19T15:00:59.85Z</time></trkpt><trkpt lat="45.4561002" lon="11.7913972"><ele>15.0</ele><time>2026-04-19T15:01:00.871Z</time></trkpt><trkpt lat="45.4560106" lon="11.7918129"><ele>15.0</ele><time>2026-04-19T15:01:01.836Z</time></trkpt><trkpt lat="45.4559223" lon="11.7922435"><ele>15.0</ele><time>2026-04-19T15:01:02.84Z</time></trkpt><trkpt lat="45.4558381" lon="11.79267"><ele>15.0</ele><time>2026-04-19T15:01:03.84Z</time></trkpt><trkpt lat="45.4557592" lon="11.7930989"><ele>15.5</ele><time>2026-04-19T15:01:04.845Z</time></trkpt><trkpt lat="45.4556823" lon="11.7935302"><ele>16.0</ele><time>2026-04-19T15:01:05.857Z</time></trkpt><trkpt lat="45.4556119" lon="11.7939586"><ele>15.5</ele><time>2026-04-19T15:01:06.837Z</time></trkpt><trkpt lat="45.455544" lon="11.7943911"><ele>15.0</ele><time>2026-04-19T15:01:07.849Z</time></trkpt><trkpt lat="45.455479" lon="11.7948245"><ele>15.0</ele><time>2026-04-19T15:01:08.84Z</time></trkpt><trkpt lat="45.4554147" lon="11.7952637"><ele>15.0</ele><time>2026-04-19T15:01:09.86Z</time></trkpt><trkpt lat="45.4553529" lon="11.7956941"><ele>16.0</ele><time>2026-04-19T15:01:10.851Z</time></trkpt><trkpt lat="45.4552933" lon="11.7961253"><ele>17.0</ele><time>2026-04-19T15:01:11.84Z</time></trkpt><trkpt lat="45.4552313" lon="11.7965641"><ele>17.0</ele><time>2026-04-19T15:01:12.85Z</time></trkpt><trkpt lat="45.4551708" lon="11.7969935"><ele>17.0</ele><time>2026-04-19T15:01:13.841Z</time></trkpt><trkpt lat="45.4551097" lon="11.7974268"><ele>17.0</ele><time>2026-04-19T15:01:14.846Z</time></trkpt><trkpt lat="45.4550499" lon="11.7978603"><ele>17.0</ele><time>2026-04-19T15:01:15.85Z</time></trkpt><trkpt lat="45.4549911" lon="11.7982953"><ele>17.5</ele><time>2026-04-19T15:01:16.842Z</time></trkpt><trkpt lat="45.4549336" lon="11.7987299"><ele>18.0</ele><time>2026-04-19T15:01:17.844Z</time></trkpt><trkpt lat="45.4548766" lon="11.799164"><ele>17.0</ele><time>2026-04-19T15:01:18.856Z</time></trkpt><trkpt lat="45.4548184" lon="11.7996008"><ele>16.0</ele><time>2026-04-19T15:01:19.849Z</time></trkpt><trkpt lat="45.454761" lon="11.8000297"><ele>16.0</ele><time>2026-04-19T15:01:20.837Z</time></trkpt><trkpt lat="45.4547006" lon="11.8004706"><ele>16.0</ele><time>2026-04-19T15:01:21.863Z</time></trkpt><trkpt lat="45.4546426" lon="11.8009007"><ele>17.0</ele><time>2026-04-19T15:01:22.839Z</time></trkpt><trkpt lat="45.4545856" lon="11.8013394"><ele>18.0</ele><time>2026-04-19T15:01:23.843Z</time></trkpt><trkpt lat="45.4545315" lon="11.8017746"><ele>17.5</ele><time>2026-04-19T15:01:24.846Z</time></trkpt><trkpt lat="45.4544779" lon="11.8022088"><ele>17.0</ele><time>2026-04-19T15:01:25.839Z</time></trkpt><trkpt lat="45.454424" lon="11.802644"><ele>17.0</ele><time>2026-04-19T15:01:26.843Z</time></trkpt><trkpt lat="45.4543668" lon="11.8030838"><ele>17.0</ele><time>2026-04-19T15:01:27.847Z</time></trkpt><trkpt lat="45.4543088" lon="11.8035165"><ele>17.0</ele><time>2026-04-19T15:01:28.836Z</time></trkpt><trkpt lat="45.4542494" lon="11.8039544"><ele>17.0</ele><time>2026-04-19T15:01:29.84Z</time></trkpt><trkpt lat="45.454191" lon="11.8043847"><ele>16.5</ele><time>2026-04-19T15:01:30.837Z</time></trkpt><trkpt lat="45.4541325" lon="11.8048256"><ele>16.0</ele><time>2026-04-19T15:01:31.842Z</time></trkpt><trkpt lat="45.4540761" lon="11.8052601"><ele>16.0</ele><time>2026-04-19T15:01:32.84Z</time></trkpt><trkpt lat="45.4540189" lon="11.8056939"><ele>16.0</ele><time>2026-04-19T15:01:33.839Z</time></trkpt><trkpt lat="45.4539622" lon="11.8061299"><ele>16.0</ele><time>2026-04-19T15:01:34.841Z</time></trkpt><trkpt lat="45.4539061" lon="11.806565"><ele>16.0</ele><time>2026-04-19T15:01:35.839Z</time></trkpt><trkpt lat="45.4538496" lon="11.8070029"><ele>15.5</ele><time>2026-04-19T15:01:36.839Z</time></trkpt><trkpt lat="45.453792" lon="11.807436"><ele>15.0</ele><time>2026-04-19T15:01:37.843Z</time></trkpt><trkpt lat="45.4537315" lon="11.8078682"><ele>15.5</ele><time>2026-04-19T15:01:38.849Z</time></trkpt><trkpt lat="45.4536691" lon="11.8083034"><ele>16.0</ele><time>2026-04-19T15:01:39.857Z</time></trkpt><trkpt lat="45.4536091" lon="11.8087316"><ele>16.0</ele><time>2026-04-19T15:01:40.863Z</time></trkpt><trkpt lat="45.4535499" lon="11.8091576"><ele>16.0</ele><time>2026-04-19T15:01:41.849Z</time></trkpt><trkpt lat="45.4534905" lon="11.8095895"><ele>15.5</ele><time>2026-04-19T15:01:42.842Z</time></trkpt><trkpt lat="45.4534316" lon="11.8100189"><ele>15.0</ele><time>2026-04-19T15:01:43.834Z</time></trkpt><trkpt lat="45.4533718" lon="11.8104545"><ele>15.0</ele><time>2026-04-19T15:01:44.837Z</time></trkpt><trkpt lat="45.4533136" lon="11.8108834"><ele>15.0</ele><time>2026-04-19T15:01:45.84Z</time></trkpt><trkpt lat="45.4532544" lon="11.8113161"><ele>15.5</ele><time>2026-04-19T15:01:46.849Z</time></trkpt><trkpt lat="45.453195" lon="11.8117457"><ele>16.0</ele><time>2026-04-19T15:01:47.835Z</time></trkpt><trkpt lat="45.4531366" lon="11.8121777"><ele>16.0</ele><time>2026-04-19T15:01:48.857Z</time></trkpt><trkpt lat="45.4530765" lon="11.8126017"><ele>16.0</ele><time>2026-04-19T15:01:49.85Z</time></trkpt><trkpt lat="45.4530146" lon="11.8130325"><ele>15.5</ele><time>2026-04-19T15:01:50.851Z</time></trkpt><trkpt lat="45.452955" lon="11.8134554"><ele>15.0</ele><time>2026-04-19T15:01:51.844Z</time></trkpt><trkpt lat="45.4528968" lon="11.8138854"><ele>15.0</ele><time>2026-04-19T15:01:52.856Z</time></trkpt><trkpt lat="45.4528385" lon="11.8143134"><ele>15.0</ele><time>2026-04-19T15:01:53.87Z</time></trkpt><trkpt lat="45.4527797" lon="11.8147373"><ele>15.0</ele><time>2026-04-19T15:01:54.848Z</time></trkpt><trkpt lat="45.4527213" lon="11.8151642"><ele>15.0</ele><time>2026-04-19T15:01:55.855Z</time></trkpt><trkpt lat="45.4526643" lon="11.815589"><ele>15.5</ele><time>2026-04-19T15:01:56.847Z</time></trkpt><trkpt lat="45.4526059" lon="11.8160221"><ele>16.0</ele><time>2026-04-19T15:01:57.841Z</time></trkpt><trkpt lat="45.4525475" lon="11.8164486"><ele>16.0</ele><time>2026-04-19T15:01:58.839Z</time></trkpt><trkpt lat="45.4524876" lon="11.8168766"><ele>16.0</ele><time>2026-04-19T15:01:59.839Z</time></trkpt><trkpt lat="45.4524265" lon="11.8173066"><ele>17.0</ele><time>2026-04-19T15:02:00.84Z</time></trkpt><trkpt lat="45.4523694" lon="11.8177337"><ele>18.0</ele><time>2026-04-19T15:02:01.842Z</time></trkpt><trkpt lat="45.4523131" lon="11.8181621"><ele>16.5</ele><time>2026-04-19T15:02:02.848Z</time></trkpt><trkpt lat="45.4522577" lon="11.8185885"><ele>15.0</ele><time>2026-04-19T15:02:03.836Z</time></trkpt><trkpt lat="45.4522012" lon="11.8190204"><ele>15.0</ele><time>2026-04-19T15:02:04.845Z</time></trkpt><trkpt lat="45.4521449" lon="11.8194478"><ele>15.0</ele><time>2026-04-19T15:02:05.844Z</time></trkpt><trkpt lat="45.4520857" lon="11.819874"><ele>14.5</ele><time>2026-04-19T15:02:06.83Z</time></trkpt><trkpt lat="45.4520243" lon="11.8203053"><ele>14.0</ele><time>2026-04-19T15:02:07.846Z</time></trkpt><trkpt lat="45.4519654" lon="11.8207274"><ele>14.0</ele><time>2026-04-19T15:02:08.83Z</time></trkpt><trkpt lat="45.4519068" lon="11.8211521"><ele>14.0</ele><time>2026-04-19T15:02:09.838Z</time></trkpt><trkpt lat="45.4518474" lon="11.8215744"><ele>13.5</ele><time>2026-04-19T15:02:10.841Z</time></trkpt><trkpt lat="45.4517893" lon="11.821996"><ele>13.0</ele><time>2026-04-19T15:02:11.832Z</time></trkpt><trkpt lat="45.4517325" lon="11.8224236"><ele>13.0</ele><time>2026-04-19T15:02:12.834Z</time></trkpt><trkpt lat="45.4516771" lon="11.8228494"><ele>13.0</ele><time>2026-04-19T15:02:13.838Z</time></trkpt><trkpt lat="45.4516225" lon="11.8232709"><ele>14.0</ele><time>2026-04-19T15:02:14.832Z</time></trkpt><trkpt lat="45.451567" lon="11.8236988"><ele>15.0</ele><time>2026-04-19T15:02:15.855Z</time></trkpt><trkpt lat="45.4515104" lon="11.8241223"><ele>15.5</ele><time>2026-04-19T15:02:16.87Z</time></trkpt><trkpt lat="45.4514544" lon="11.824542"><ele>16.0</ele><time>2026-04-19T15:02:17.853Z</time></trkpt><trkpt lat="45.4513971" lon="11.8249665"><ele>16.5</ele><time>2026-04-19T15:02:18.851Z</time></trkpt><trkpt lat="45.4513398" lon="11.8253898"><ele>17.0</ele><time>2026-04-19T15:02:19.846Z</time></trkpt><trkpt lat="45.4512825" lon="11.8258182"><ele>16.0</ele><time>2026-04-19T15:02:20.858Z</time></trkpt><trkpt lat="45.4512259" lon="11.8262448"><ele>15.0</ele><time>2026-04-19T15:02:21.859Z</time></trkpt><trkpt lat="45.4511697" lon="11.8266715"><ele>15.5</ele><time>2026-04-19T15:02:22.856Z</time></trkpt><trkpt lat="45.4511135" lon="11.8270949"><ele>16.0</ele><time>2026-04-19T15:02:23.85Z</time></trkpt><trkpt lat="45.4510572" lon="11.8275199"><ele>16.0</ele><time>2026-04-19T15:02:24.838Z</time></trkpt><trkpt lat="45.4510007" lon="11.8279471"><ele>16.0</ele><time>2026-04-19T15:02:25.835Z</time></trkpt><trkpt lat="45.4509428" lon="11.8283724"><ele>16.5</ele><time>2026-04-19T15:02:26.841Z</time></trkpt><trkpt lat="45.4508843" lon="11.8288"><ele>17.0</ele><time>2026-04-19T15:02:27.84Z</time></trkpt><trkpt lat="45.4508265" lon="11.8292266"><ele>17.5</ele><time>2026-04-19T15:02:28.853Z</time></trkpt><trkpt lat="45.4507703" lon="11.82965"><ele>18.0</ele><time>2026-04-19T15:02:29.857Z</time></trkpt><trkpt lat="45.4507144" lon="11.8300727"><ele>18.5</ele><time>2026-04-19T15:02:30.844Z</time></trkpt><trkpt lat="45.4506594" lon="11.8304944"><ele>19.0</ele><time>2026-04-19T15:02:31.829Z</time></trkpt><trkpt lat="45.4506031" lon="11.8309241"><ele>19.0</ele><time>2026-04-19T15:02:32.843Z</time></trkpt><trkpt lat="45.4505472" lon="11.8313527"><ele>19.0</ele><time>2026-04-19T15:02:33.847Z</time></trkpt><trkpt lat="45.4504932" lon="11.8317698"><ele>17.5</ele><time>2026-04-19T15:02:34.822Z</time></trkpt><trkpt lat="45.4504357" lon="11.832201"><ele>16.0</ele><time>2026-04-19T15:02:35.841Z</time></trkpt><trkpt lat="45.4503783" lon="11.8326247"><ele>15.5</ele><time>2026-04-19T15:02:36.84Z</time></trkpt><trkpt lat="45.4503227" lon="11.8330477"><ele>15.0</ele><time>2026-04-19T15:02:37.84Z</time></trkpt><trkpt lat="45.4502688" lon="11.8334802"><ele>15.5</ele><time>2026-04-19T15:02:38.85Z</time></trkpt><trkpt lat="45.4502125" lon="11.8339022"><ele>16.0</ele><time>2026-04-19T15:02:39.846Z</time></trkpt><trkpt lat="45.4501538" lon="11.8343251"><ele>16.0</ele><time>2026-04-19T15:02:40.837Z</time></trkpt><trkpt lat="45.4500936" lon="11.8347563"><ele>16.0</ele><time>2026-04-19T15:02:41.85Z</time></trkpt><trkpt lat="45.450036" lon="11.8351785"><ele>15.0</ele><time>2026-04-19T15:02:42.862Z</time></trkpt><trkpt lat="45.4499792" lon="11.8355992"><ele>14.0</ele><time>2026-04-19T15:02:43.843Z</time></trkpt><trkpt lat="45.4499213" lon="11.8360127"><ele>14.0</ele><time>2026-04-19T15:02:44.857Z</time></trkpt><trkpt lat="45.4498647" lon="11.8364283"><ele>14.0</ele><time>2026-04-19T15:02:45.849Z</time></trkpt><trkpt lat="45.4498069" lon="11.8368465"><ele>14.5</ele><time>2026-04-19T15:02:46.843Z</time></trkpt><trkpt lat="45.4497484" lon="11.8372629"><ele>15.0</ele><time>2026-04-19T15:02:47.846Z</time></trkpt><trkpt lat="45.4496881" lon="11.8376829"><ele>14.0</ele><time>2026-04-19T15:02:48.845Z</time></trkpt><trkpt lat="45.4496252" lon="11.8380985"><ele>13.0</ele><time>2026-04-19T15:02:49.847Z</time></trkpt><trkpt lat="45.4495612" lon="11.8385133"><ele>13.0</ele><time>2026-04-19T15:02:50.849Z</time></trkpt><trkpt lat="45.4494953" lon="11.838925"><ele>13.0</ele><time>2026-04-19T15:02:51.837Z</time></trkpt><trkpt lat="45.4494269" lon="11.8393504"><ele>13.5</ele><time>2026-04-19T15:02:52.873Z</time></trkpt><trkpt lat="45.4493637" lon="11.8397552"><ele>14.0</ele><time>2026-04-19T15:02:53.833Z</time></trkpt><trkpt lat="45.4493015" lon="11.8401742"><ele>14.0</ele><time>2026-04-19T15:02:54.838Z</time></trkpt><trkpt lat="45.4492421" lon="11.8405921"><ele>14.0</ele><time>2026-04-19T15:02:55.836Z</time></trkpt><trkpt lat="45.4491859" lon="11.8410063"><ele>14.0</ele><time>2026-04-19T15:02:56.835Z</time></trkpt><trkpt lat="45.449128" lon="11.8414277"><ele>14.0</ele><time>2026-04-19T15:02:57.838Z</time></trkpt><trkpt lat="45.4490699" lon="11.8418451"><ele>14.0</ele><time>2026-04-19T15:02:58.833Z</time></trkpt><trkpt lat="45.4490107" lon="11.8422639"><ele>14.0</ele><time>2026-04-19T15:02:59.833Z</time></trkpt><trkpt lat="45.4489531" lon="11.8426834"><ele>14.0</ele><time>2026-04-19T15:03:00.834Z</time></trkpt><trkpt lat="45.4488965" lon="11.8431004"><ele>14.0</ele><time>2026-04-19T15:03:01.837Z</time></trkpt><trkpt lat="45.4488395" lon="11.8435169"><ele>15.0</ele><time>2026-04-19T15:03:02.838Z</time></trkpt><trkpt lat="45.448783" lon="11.8439337"><ele>16.0</ele><time>2026-04-19T15:03:03.83Z</time></trkpt><trkpt lat="45.4487255" lon="11.8443523"><ele>15.5</ele><time>2026-04-19T15:03:04.839Z</time></trkpt><trkpt lat="45.4486677" lon="11.8447727"><ele>15.0</ele><time>2026-04-19T15:03:05.838Z</time></trkpt><trkpt lat="45.4486101" lon="11.8451873"><ele>15.0</ele><time>2026-04-19T15:03:06.837Z</time></trkpt><trkpt lat="45.4485532" lon="11.8456064"><ele>15.0</ele><time>2026-04-19T15:03:07.834Z</time></trkpt><trkpt lat="45.4484967" lon="11.8460254"><ele>14.5</ele><time>2026-04-19T15:03:08.839Z</time></trkpt><trkpt lat="45.448442" lon="11.8464434"><ele>14.0</ele><time>2026-04-19T15:03:09.835Z</time></trkpt><trkpt lat="45.4483861" lon="11.8468624"><ele>14.0</ele><time>2026-04-19T15:03:10.836Z</time></trkpt><trkpt lat="45.4483294" lon="11.8472818"><ele>14.0</ele><time>2026-04-19T15:03:11.841Z</time></trkpt><trkpt lat="45.448273" lon="11.8477013"><ele>14.0</ele><time>2026-04-19T15:03:12.84Z</time></trkpt><trkpt lat="45.448217" lon="11.8481198"><ele>14.0</ele><time>2026-04-19T15:03:13.839Z</time></trkpt><trkpt lat="45.4481606" lon="11.8485389"><ele>14.5</ele><time>2026-04-19T15:03:14.829Z</time></trkpt><trkpt lat="45.4481028" lon="11.848959"><ele>15.0</ele><time>2026-04-19T15:03:15.85Z</time></trkpt><trkpt lat="45.4480421" lon="11.8493754"><ele>15.5</ele><time>2026-04-19T15:03:16.843Z</time></trkpt><trkpt lat="45.4479761" lon="11.8497904"><ele>16.0</ele><time>2026-04-19T15:03:17.839Z</time></trkpt><trkpt lat="45.4479045" lon="11.8502015"><ele>15.0</ele><time>2026-04-19T15:03:18.836Z</time></trkpt><trkpt lat="45.4478272" lon="11.8506164"><ele>14.0</ele><time>2026-04-19T15:03:19.845Z</time></trkpt><trkpt lat="45.4477471" lon="11.8510235"><ele>13.5</ele><time>2026-04-19T15:03:20.836Z</time></trkpt><trkpt lat="45.4476659" lon="11.8514343"><ele>13.0</ele><time>2026-04-19T15:03:21.833Z</time></trkpt><trkpt lat="45.4475859" lon="11.8518453"><ele>13.0</ele><time>2026-04-19T15:03:22.834Z</time></trkpt><trkpt lat="45.4475092" lon="11.8522588"><ele>13.0</ele><time>2026-04-19T15:03:23.836Z</time></trkpt><trkpt lat="45.4474338" lon="11.8526748"><ele>13.0</ele><time>2026-04-19T15:03:24.846Z</time></trkpt><trkpt lat="45.4473605" lon="11.8530854"><ele>13.0</ele><time>2026-04-19T15:03:25.837Z</time></trkpt><trkpt lat="45.4472859" lon="11.8535022"><ele>13.0</ele><time>2026-04-19T15:03:26.851Z</time></trkpt><trkpt lat="45.4472109" lon="11.8539126"><ele>13.0</ele><time>2026-04-19T15:03:27.85Z</time></trkpt><trkpt lat="45.4471344" lon="11.8543183"><ele>13.0</ele><time>2026-04-19T15:03:28.853Z</time></trkpt><trkpt lat="45.4470557" lon="11.8547301"><ele>13.0</ele><time>2026-04-19T15:03:29.836Z</time></trkpt><trkpt lat="45.4469775" lon="11.855143"><ele>13.0</ele><time>2026-04-19T15:03:30.84Z</time></trkpt><trkpt lat="45.4468992" lon="11.8555553"><ele>13.0</ele><time>2026-04-19T15:03:31.835Z</time></trkpt><trkpt lat="45.4468215" lon="11.8559645"><ele>12.5</ele><time>2026-04-19T15:03:32.829Z</time></trkpt><trkpt lat="45.4467427" lon="11.8563775"><ele>12.0</ele><time>2026-04-19T15:03:33.835Z</time></trkpt><trkpt lat="45.4466638" lon="11.8567914"><ele>12.0</ele><time>2026-04-19T15:03:34.851Z</time></trkpt><trkpt lat="45.4465877" lon="11.8571964"><ele>12.0</ele><time>2026-04-19T15:03:35.83Z</time></trkpt><trkpt lat="45.44651" lon="11.8576105"><ele>12.5</ele><time>2026-04-19T15:03:36.848Z</time></trkpt><trkpt lat="45.4464328" lon="11.8580197"><ele>13.0</ele><time>2026-04-19T15:03:37.835Z</time></trkpt><trkpt lat="45.4463557" lon="11.8584309"><ele>12.5</ele><time>2026-04-19T15:03:38.836Z</time></trkpt><trkpt lat="45.4462785" lon="11.858842"><ele>12.0</ele><time>2026-04-19T15:03:39.841Z</time></trkpt><trkpt lat="45.4462" lon="11.8592563"><ele>13.0</ele><time>2026-04-19T15:03:40.84Z</time></trkpt><trkpt lat="45.446123" lon="11.8596656"><ele>14.0</ele><time>2026-04-19T15:03:41.83Z</time></trkpt><trkpt lat="45.4460446" lon="11.8600778"><ele>14.5</ele><time>2026-04-19T15:03:42.842Z</time></trkpt><trkpt lat="45.4459657" lon="11.8604901"><ele>15.0</ele><time>2026-04-19T15:03:43.837Z</time></trkpt><trkpt lat="45.4458867" lon="11.8609029"><ele>14.5</ele><time>2026-04-19T15:03:44.841Z</time></trkpt><trkpt lat="45.4458073" lon="11.8613173"><ele>14.0</ele><time>2026-04-19T15:03:45.86Z</time></trkpt><trkpt lat="45.4457288" lon="11.8617237"><ele>13.5</ele><time>2026-04-19T15:03:46.846Z</time></trkpt><trkpt lat="45.4456489" lon="11.8621351"><ele>13.0</ele><time>2026-04-19T15:03:47.857Z</time></trkpt><trkpt lat="45.4455694" lon="11.8625453"><ele>13.5</ele><time>2026-04-19T15:03:48.845Z</time></trkpt><trkpt lat="45.4454898" lon="11.8629544"><ele>14.0</ele><time>2026-04-19T15:03:49.844Z</time></trkpt><trkpt lat="45.4454132" lon="11.8633645"><ele>15.0</ele><time>2026-04-19T15:03:50.836Z</time></trkpt><trkpt lat="45.4453359" lon="11.8637806"><ele>16.0</ele><time>2026-04-19T15:03:51.839Z</time></trkpt><trkpt lat="45.4452596" lon="11.8641909"><ele>15.5</ele><time>2026-04-19T15:03:52.837Z</time></trkpt><trkpt lat="45.4451814" lon="11.8646075"><ele>15.0</ele><time>2026-04-19T15:03:53.851Z</time></trkpt><trkpt lat="45.4451083" lon="11.8650176"><ele>14.5</ele><time>2026-04-19T15:03:54.846Z</time></trkpt><trkpt lat="45.4450352" lon="11.8654358"><ele>14.0</ele><time>2026-04-19T15:03:55.857Z</time></trkpt><trkpt lat="45.4449621" lon="11.8658504"><ele>13.0</ele><time>2026-04-19T15:03:56.863Z</time></trkpt><trkpt lat="45.4448868" lon="11.8662608"><ele>12.0</ele><time>2026-04-19T15:03:57.85Z</time></trkpt><trkpt lat="45.4448093" lon="11.8666704"><ele>12.5</ele><time>2026-04-19T15:03:58.856Z</time></trkpt><trkpt lat="45.4447297" lon="11.8670846"><ele>13.0</ele><time>2026-04-19T15:03:59.853Z</time></trkpt><trkpt lat="45.4446532" lon="11.867494"><ele>12.5</ele><time>2026-04-19T15:04:00.845Z</time></trkpt><trkpt lat="45.4445778" lon="11.8679051"><ele>12.0</ele><time>2026-04-19T15:04:01.84Z</time></trkpt><trkpt lat="45.4445019" lon="11.8683197"><ele>12.0</ele><time>2026-04-19T15:04:02.846Z</time></trkpt><trkpt lat="45.4444264" lon="11.8687335"><ele>12.0</ele><time>2026-04-19T15:04:03.861Z</time></trkpt><trkpt lat="45.4443527" lon="11.8691367"><ele>11.5</ele><time>2026-04-19T15:04:04.839Z</time></trkpt><trkpt lat="45.4442756" lon="11.8695537"><ele>11.0</ele><time>2026-04-19T15:04:05.857Z</time></trkpt><trkpt lat="45.4441987" lon="11.8699598"><ele>13.0</ele><time>2026-04-19T15:04:06.834Z</time></trkpt><trkpt lat="45.4441187" lon="11.8703741"><ele>15.0</ele><time>2026-04-19T15:04:07.842Z</time></trkpt><trkpt lat="45.4440359" lon="11.8707846"><ele>15.5</ele><time>2026-04-19T15:04:08.853Z</time></trkpt><trkpt lat="45.4439517" lon="11.8711896"><ele>16.0</ele><time>2026-04-19T15:04:09.84Z</time></trkpt><trkpt lat="45.4438655" lon="11.8716021"><ele>16.0</ele><time>2026-04-19T15:04:10.854Z</time></trkpt><trkpt lat="45.4437817" lon="11.8720089"><ele>16.0</ele><time>2026-04-19T15:04:11.849Z</time></trkpt><trkpt lat="45.4436999" lon="11.8724181"><ele>14.5</ele><time>2026-04-19T15:04:12.849Z</time></trkpt><trkpt lat="45.4436202" lon="11.8728251"><ele>13.0</ele><time>2026-04-19T15:04:13.839Z</time></trkpt><trkpt lat="45.4435422" lon="11.8732375"><ele>13.0</ele><time>2026-04-19T15:04:14.844Z</time></trkpt><trkpt lat="45.443468" lon="11.8736506"><ele>13.0</ele><time>2026-04-19T15:04:15.847Z</time></trkpt><trkpt lat="45.4433938" lon="11.8740654"><ele>12.5</ele><time>2026-04-19T15:04:16.848Z</time></trkpt><trkpt lat="45.4433189" lon="11.8744726"><ele>12.0</ele><time>2026-04-19T15:04:17.837Z</time></trkpt><trkpt lat="45.4432392" lon="11.8748876"><ele>12.5</ele><time>2026-04-19T15:04:18.848Z</time></trkpt><trkpt lat="45.4431594" lon="11.8752996"><ele>13.0</ele><time>2026-04-19T15:04:19.869Z</time></trkpt><trkpt lat="45.4430796" lon="11.8757057"><ele>12.5</ele><time>2026-04-19T15:04:20.856Z</time></trkpt><trkpt lat="45.4430004" lon="11.876113"><ele>12.0</ele><time>2026-04-19T15:04:21.843Z</time></trkpt><trkpt lat="45.442919" lon="11.8765312"><ele>12.0</ele><time>2026-04-19T15:04:22.87Z</time></trkpt><trkpt lat="45.4428415" lon="11.8769319"><ele>12.0</ele><time>2026-04-19T15:04:23.859Z</time></trkpt><trkpt lat="45.4427618" lon="11.8773492"><ele>11.5</ele><time>2026-04-19T15:04:24.877Z</time></trkpt><trkpt lat="45.4426851" lon="11.877754"><ele>11.0</ele><time>2026-04-19T15:04:25.855Z</time></trkpt><trkpt lat="45.4426082" lon="11.8781703"><ele>11.5</ele><time>2026-04-19T15:04:26.873Z</time></trkpt><trkpt lat="45.4425332" lon="11.878576"><ele>12.0</ele><time>2026-04-19T15:04:27.846Z</time></trkpt><trkpt lat="45.4424541" lon="11.8789909"><ele>11.5</ele><time>2026-04-19T15:04:28.854Z</time></trkpt><trkpt lat="45.4423752" lon="11.8793996"><ele>11.0</ele><time>2026-04-19T15:04:29.857Z</time></trkpt><trkpt lat="45.442298" lon="11.8798062"><ele>11.0</ele><time>2026-04-19T15:04:30.841Z</time></trkpt><trkpt lat="45.4422215" lon="11.8802219"><ele>11.0</ele><time>2026-04-19T15:04:31.878Z</time></trkpt><trkpt lat="45.4421496" lon="11.8806212"><ele>11.5</ele><time>2026-04-19T15:04:32.849Z</time></trkpt><trkpt lat="45.4420751" lon="11.8810381"><ele>12.0</ele><time>2026-04-19T15:04:33.848Z</time></trkpt><trkpt lat="45.442001" lon="11.881452"><ele>12.5</ele><time>2026-04-19T15:04:34.872Z</time></trkpt><trkpt lat="45.4419257" lon="11.8818576"><ele>13.0</ele><time>2026-04-19T15:04:35.846Z</time></trkpt><trkpt lat="45.4418474" lon="11.8822713"><ele>13.0</ele><time>2026-04-19T15:04:36.85Z</time></trkpt><trkpt lat="45.4417691" lon="11.8826849"><ele>13.0</ele><time>2026-04-19T15:04:37.85Z</time></trkpt><trkpt lat="45.4416906" lon="11.8831002"><ele>14.5</ele><time>2026-04-19T15:04:38.84Z</time></trkpt><trkpt lat="45.4416127" lon="11.8835133"><ele>16.0</ele><time>2026-04-19T15:04:39.849Z</time></trkpt><trkpt lat="45.441536" lon="11.8839206"><ele>12.5</ele><time>2026-04-19T15:04:40.834Z</time></trkpt><trkpt lat="45.4414583" lon="11.8843365"><ele>9.0</ele><time>2026-04-19T15:04:41.842Z</time></trkpt><trkpt lat="45.4413789" lon="11.88475"><ele>11.0</ele><time>2026-04-19T15:04:42.855Z</time></trkpt><trkpt lat="45.4412979" lon="11.8851609"><ele>13.0</ele><time>2026-04-19T15:04:43.849Z</time></trkpt><trkpt lat="45.4412189" lon="11.8855718"><ele>12.5</ele><time>2026-04-19T15:04:44.837Z</time></trkpt><trkpt lat="45.4411407" lon="11.8859822"><ele>12.0</ele><time>2026-04-19T15:04:45.849Z</time></trkpt><trkpt lat="45.4410598" lon="11.8863929"><ele>12.5</ele><time>2026-04-19T15:04:46.856Z</time></trkpt><trkpt lat="45.4409741" lon="11.8868029"><ele>13.0</ele><time>2026-04-19T15:04:47.844Z</time></trkpt><trkpt lat="45.4408836" lon="11.8872124"><ele>12.5</ele><time>2026-04-19T15:04:48.858Z</time></trkpt><trkpt lat="45.4407885" lon="11.887615"><ele>12.0</ele><time>2026-04-19T15:04:49.842Z</time></trkpt><trkpt lat="45.4406865" lon="11.8880193"><ele>12.0</ele><time>2026-04-19T15:04:50.849Z</time></trkpt><trkpt lat="45.4405807" lon="11.8884142"><ele>12.0</ele><time>2026-04-19T15:04:51.853Z</time></trkpt><trkpt lat="45.4404706" lon="11.8888129"><ele>12.5</ele><time>2026-04-19T15:04:52.864Z</time></trkpt><trkpt lat="45.4403604" lon="11.8892041"><ele>13.0</ele><time>2026-04-19T15:04:53.839Z</time></trkpt><trkpt lat="45.4402466" lon="11.8896039"><ele>13.0</ele><time>2026-04-19T15:04:54.835Z</time></trkpt><trkpt lat="45.4401266" lon="11.8900034"><ele>13.0</ele><time>2026-04-19T15:04:55.844Z</time></trkpt><trkpt lat="45.4400027" lon="11.8903963"><ele>13.0</ele><time>2026-04-19T15:04:56.841Z</time></trkpt><trkpt lat="45.4398744" lon="11.8907863"><ele>13.0</ele><time>2026-04-19T15:04:57.848Z</time></trkpt><trkpt lat="45.4397441" lon="11.8911712"><ele>13.5</ele><time>2026-04-19T15:04:58.83Z</time></trkpt><trkpt lat="45.4396095" lon="11.8915645"><ele>14.0</ele><time>2026-04-19T15:04:59.854Z</time></trkpt><trkpt lat="45.4394767" lon="11.8919515"><ele>14.0</ele><time>2026-04-19T15:05:00.852Z</time></trkpt><trkpt lat="45.4393452" lon="11.8923393"><ele>14.0</ele><time>2026-04-19T15:05:01.852Z</time></trkpt><trkpt lat="45.4392151" lon="11.8927278"><ele>14.5</ele><time>2026-04-19T15:05:02.844Z</time></trkpt><trkpt lat="45.4390844" lon="11.8931158"><ele>15.0</ele><time>2026-04-19T15:05:03.846Z</time></trkpt><trkpt lat="45.4389537" lon="11.8935074"><ele>15.0</ele><time>2026-04-19T15:05:04.855Z</time></trkpt><trkpt lat="45.4388231" lon="11.8938913"><ele>15.0</ele><time>2026-04-19T15:05:05.838Z</time></trkpt><trkpt lat="45.4386867" lon="11.8942842"><ele>14.5</ele><time>2026-04-19T15:05:06.859Z</time></trkpt><trkpt lat="45.4385558" lon="11.8946635"><ele>14.0</ele><time>2026-04-19T15:05:07.837Z</time></trkpt><trkpt lat="45.4384185" lon="11.8950534"><ele>14.0</ele><time>2026-04-19T15:05:08.836Z</time></trkpt><trkpt lat="45.4382798" lon="11.8954438"><ele>14.0</ele><time>2026-04-19T15:05:09.84Z</time></trkpt><trkpt lat="45.4381428" lon="11.8958279"><ele>13.5</ele><time>2026-04-19T15:05:10.839Z</time></trkpt><trkpt lat="45.4380043" lon="11.896213"><ele>13.0</ele><time>2026-04-19T15:05:11.845Z</time></trkpt><trkpt lat="45.4378494" lon="11.896582"><ele>12.5</ele><time>2026-04-19T15:05:12.847Z</time></trkpt><trkpt lat="45.4377099" lon="11.8969673"><ele>12.0</ele><time>2026-04-19T15:05:13.865Z</time></trkpt><trkpt lat="45.4375754" lon="11.8973506"><ele>12.5</ele><time>2026-04-19T15:05:14.856Z</time></trkpt><trkpt lat="45.437441" lon="11.8977375"><ele>13.0</ele><time>2026-04-19T15:05:15.845Z</time></trkpt><trkpt lat="45.4373066" lon="11.8981294"><ele>12.0</ele><time>2026-04-19T15:05:16.854Z</time></trkpt><trkpt lat="45.4371756" lon="11.8985133"><ele>11.0</ele><time>2026-04-19T15:05:17.835Z</time></trkpt><trkpt lat="45.4370416" lon="11.8989015"><ele>10.0</ele><time>2026-04-19T15:05:18.828Z</time></trkpt><trkpt lat="45.4369064" lon="11.8992886"><ele>9.0</ele><time>2026-04-19T15:05:19.843Z</time></trkpt><trkpt lat="45.4367744" lon="11.899669"><ele>9.0</ele><time>2026-04-19T15:05:20.844Z</time></trkpt><trkpt lat="45.436643" lon="11.9000547"><ele>9.0</ele><time>2026-04-19T15:05:21.849Z</time></trkpt><trkpt lat="45.4365067" lon="11.9004594"><ele>9.5</ele><time>2026-04-19T15:05:22.853Z</time></trkpt><trkpt lat="45.4363745" lon="11.9008516"><ele>10.0</ele><time>2026-04-19T15:05:23.856Z</time></trkpt><trkpt lat="45.4362401" lon="11.9012467"><ele>10.0</ele><time>2026-04-19T15:05:24.851Z</time></trkpt><trkpt lat="45.4361052" lon="11.9016372"><ele>10.0</ele><time>2026-04-19T15:05:25.85Z</time></trkpt><trkpt lat="45.4359703" lon="11.9020298"><ele>11.0</ele><time>2026-04-19T15:05:26.84Z</time></trkpt><trkpt lat="45.4358326" lon="11.9024256"><ele>12.0</ele><time>2026-04-19T15:05:27.85Z</time></trkpt><trkpt lat="45.4356921" lon="11.9028153"><ele>12.0</ele><time>2026-04-19T15:05:28.864Z</time></trkpt><trkpt lat="45.4355462" lon="11.9031966"><ele>12.0</ele><time>2026-04-19T15:05:29.825Z</time></trkpt><trkpt lat="45.4353924" lon="11.9035887"><ele>11.0</ele><time>2026-04-19T15:05:30.852Z</time></trkpt><trkpt lat="45.4352411" lon="11.9039709"><ele>10.0</ele><time>2026-04-19T15:05:31.858Z</time></trkpt><trkpt lat="45.4350901" lon="11.9043553"><ele>10.0</ele><time>2026-04-19T15:05:32.861Z</time></trkpt><trkpt lat="45.4349401" lon="11.9047414"><ele>10.0</ele><time>2026-04-19T15:05:33.868Z</time></trkpt><trkpt lat="45.4347941" lon="11.905122"><ele>10.0</ele><time>2026-04-19T15:05:34.84Z</time></trkpt><trkpt lat="45.4346436" lon="11.9055171"><ele>10.0</ele><time>2026-04-19T15:05:35.859Z</time></trkpt><trkpt lat="45.4344981" lon="11.9058995"><ele>10.0</ele><time>2026-04-19T15:05:36.848Z</time></trkpt><trkpt lat="45.4343511" lon="11.9062888"><ele>10.0</ele><time>2026-04-19T15:05:37.859Z</time></trkpt><trkpt lat="45.4342034" lon="11.9066746"><ele>11.0</ele><time>2026-04-19T15:05:38.841Z</time></trkpt><trkpt lat="45.4340536" lon="11.907061"><ele>12.0</ele><time>2026-04-19T15:05:39.842Z</time></trkpt><trkpt lat="45.4339005" lon="11.9074504"><ele>10.5</ele><time>2026-04-19T15:05:40.863Z</time></trkpt><trkpt lat="45.4337459" lon="11.9078344"><ele>9.0</ele><time>2026-04-19T15:05:41.847Z</time></trkpt><trkpt lat="45.4335866" lon="11.9082251"><ele>8.5</ele><time>2026-04-19T15:05:42.86Z</time></trkpt><trkpt lat="45.433432" lon="11.9086081"><ele>8.0</ele><time>2026-04-19T15:05:43.867Z</time></trkpt><trkpt lat="45.4332767" lon="11.908993"><ele>8.5</ele><time>2026-04-19T15:05:44.85Z</time></trkpt><trkpt lat="45.4331242" lon="11.9093751"><ele>9.0</ele><time>2026-04-19T15:05:45.832Z</time></trkpt><trkpt lat="45.4329703" lon="11.9097632"><ele>8.0</ele><time>2026-04-19T15:05:46.831Z</time></trkpt><trkpt lat="45.4328163" lon="11.9101509"><ele>7.0</ele><time>2026-04-19T15:05:47.84Z</time></trkpt><trkpt lat="45.4326626" lon="11.9105423"><ele>7.5</ele><time>2026-04-19T15:05:48.851Z</time></trkpt><trkpt lat="45.4325118" lon="11.9109257"><ele>8.0</ele><time>2026-04-19T15:05:49.847Z</time></trkpt><trkpt lat="45.4323563" lon="11.9113126"><ele>8.0</ele><time>2026-04-19T15:05:50.854Z</time></trkpt><trkpt lat="45.4321991" lon="11.9116953"><ele>8.0</ele><time>2026-04-19T15:05:51.861Z</time></trkpt><trkpt lat="45.4320455" lon="11.912074"><ele>8.5</ele><time>2026-04-19T15:05:52.84Z</time></trkpt><trkpt lat="45.4318909" lon="11.9124629"><ele>9.0</ele><time>2026-04-19T15:05:53.852Z</time></trkpt><trkpt lat="45.4317394" lon="11.9128483"><ele>9.0</ele><time>2026-04-19T15:05:54.866Z</time></trkpt><trkpt lat="45.431588" lon="11.9132342"><ele>9.0</ele><time>2026-04-19T15:05:55.86Z</time></trkpt><trkpt lat="45.4314354" lon="11.9136221"><ele>10.0</ele><time>2026-04-19T15:05:56.868Z</time></trkpt><trkpt lat="45.4312841" lon="11.9140055"><ele>11.0</ele><time>2026-04-19T15:05:57.857Z</time></trkpt><trkpt lat="45.4311301" lon="11.9143902"><ele>11.0</ele><time>2026-04-19T15:05:58.854Z</time></trkpt><trkpt lat="45.4309754" lon="11.914773"><ele>11.0</ele><time>2026-04-19T15:05:59.848Z</time></trkpt><trkpt lat="45.4308227" lon="11.9151577"><ele>10.5</ele><time>2026-04-19T15:06:00.852Z</time></trkpt><trkpt lat="45.4306717" lon="11.9155421"><ele>10.0</ele><time>2026-04-19T15:06:01.839Z</time></trkpt><trkpt lat="45.430517" lon="11.9159247"><ele>10.0</ele><time>2026-04-19T15:06:02.842Z</time></trkpt><trkpt lat="45.4303616" lon="11.9163086"><ele>10.0</ele><time>2026-04-19T15:06:03.847Z</time></trkpt><trkpt lat="45.4302059" lon="11.9166934"><ele>9.5</ele><time>2026-04-19T15:06:04.846Z</time></trkpt><trkpt lat="45.4300485" lon="11.9170721"><ele>9.0</ele><time>2026-04-19T15:06:05.834Z</time></trkpt><trkpt lat="45.4298873" lon="11.9174513"><ele>8.5</ele><time>2026-04-19T15:06:06.831Z</time></trkpt><trkpt lat="45.4297231" lon="11.9178275"><ele>8.0</ele><time>2026-04-19T15:06:07.842Z</time></trkpt><trkpt lat="45.4295532" lon="11.9181996"><ele>8.0</ele><time>2026-04-19T15:06:08.845Z</time></trkpt><trkpt lat="45.4293787" lon="11.9185671"><ele>8.0</ele><time>2026-04-19T15:06:09.857Z</time></trkpt><trkpt lat="45.4292023" lon="11.9189295"><ele>8.5</ele><time>2026-04-19T15:06:10.852Z</time></trkpt><trkpt lat="45.429019" lon="11.9192885"><ele>9.0</ele><time>2026-04-19T15:06:11.869Z</time></trkpt><trkpt lat="45.4288323" lon="11.9196346"><ele>9.0</ele><time>2026-04-19T15:06:12.848Z</time></trkpt><trkpt lat="45.4286374" lon="11.919991"><ele>9.0</ele><time>2026-04-19T15:06:13.864Z</time></trkpt><trkpt lat="45.4284483" lon="11.9203385"><ele>9.0</ele><time>2026-04-19T15:06:14.849Z</time></trkpt><trkpt lat="45.4282614" lon="11.9206916"><ele>9.0</ele><time>2026-04-19T15:06:15.843Z</time></trkpt><trkpt lat="45.4280748" lon="11.9210477"><ele>9.0</ele><time>2026-04-19T15:06:16.842Z</time></trkpt><trkpt lat="45.4278897" lon="11.9214028"><ele>9.0</ele><time>2026-04-19T15:06:17.835Z</time></trkpt><trkpt lat="45.4276999" lon="11.9217626"><ele>9.0</ele><time>2026-04-19T15:06:18.851Z</time></trkpt><trkpt lat="45.4275136" lon="11.9221166"><ele>9.0</ele><time>2026-04-19T15:06:19.86Z</time></trkpt><trkpt lat="45.4273309" lon="11.9224685"><ele>9.0</ele><time>2026-04-19T15:06:20.832Z</time></trkpt><trkpt lat="45.4271461" lon="11.9228263"><ele>9.0</ele><time>2026-04-19T15:06:21.848Z</time></trkpt><trkpt lat="45.4269638" lon="11.9231798"><ele>11.0</ele><time>2026-04-19T15:06:22.839Z</time></trkpt><trkpt lat="45.426779" lon="11.9235404"><ele>13.0</ele><time>2026-04-19T15:06:23.858Z</time></trkpt><trkpt lat="45.4265949" lon="11.9238973"><ele>12.5</ele><time>2026-04-19T15:06:24.864Z</time></trkpt><trkpt lat="45.4264132" lon="11.9242505"><ele>12.0</ele><time>2026-04-19T15:06:25.848Z</time></trkpt><trkpt lat="45.4262308" lon="11.9246009"><ele>12.0</ele><time>2026-04-19T15:06:26.862Z</time></trkpt><trkpt lat="45.4260486" lon="11.9249461"><ele>12.0</ele><time>2026-04-19T15:06:27.839Z</time></trkpt><trkpt lat="45.4258603" lon="11.9252977"><ele>12.0</ele><time>2026-04-19T15:06:28.849Z</time></trkpt><trkpt lat="45.4256703" lon="11.9256488"><ele>12.0</ele><time>2026-04-19T15:06:29.865Z</time></trkpt><trkpt lat="45.4254806" lon="11.9259974"><ele>12.0</ele><time>2026-04-19T15:06:30.861Z</time></trkpt><trkpt lat="45.4252931" lon="11.9263452"><ele>12.0</ele><time>2026-04-19T15:06:31.851Z</time></trkpt><trkpt lat="45.4251042" lon="11.9266928"><ele>12.0</ele><time>2026-04-19T15:06:32.834Z</time></trkpt><trkpt lat="45.4249103" lon="11.9270475"><ele>12.0</ele><time>2026-04-19T15:06:33.86Z</time></trkpt><trkpt lat="45.4247203" lon="11.9273937"><ele>11.5</ele><time>2026-04-19T15:06:34.833Z</time></trkpt><trkpt lat="45.4245279" lon="11.9277488"><ele>11.0</ele><time>2026-04-19T15:06:35.846Z</time></trkpt><trkpt lat="45.4243416" lon="11.9281035"><ele>10.0</ele><time>2026-04-19T15:06:36.844Z</time></trkpt><trkpt lat="45.4241557" lon="11.9284582"><ele>9.0</ele><time>2026-04-19T15:06:37.831Z</time></trkpt><trkpt lat="45.4239699" lon="11.9288138"><ele>9.5</ele><time>2026-04-19T15:06:38.838Z</time></trkpt><trkpt lat="45.4237831" lon="11.9291669"><ele>10.0</ele><time>2026-04-19T15:06:39.836Z</time></trkpt><trkpt lat="45.4235942" lon="11.9295204"><ele>10.0</ele><time>2026-04-19T15:06:40.848Z</time></trkpt><trkpt lat="45.4234046" lon="11.9298778"><ele>10.0</ele><time>2026-04-19T15:06:41.849Z</time></trkpt><trkpt lat="45.4232174" lon="11.9302279"><ele>10.0</ele><time>2026-04-19T15:06:42.845Z</time></trkpt><trkpt lat="45.4230292" lon="11.9305804"><ele>10.0</ele><time>2026-04-19T15:06:43.845Z</time></trkpt><trkpt lat="45.4228402" lon="11.9309325"><ele>10.0</ele><time>2026-04-19T15:06:44.83Z</time></trkpt><trkpt lat="45.4226521" lon="11.9312844"><ele>10.0</ele><time>2026-04-19T15:06:45.839Z</time></trkpt><trkpt lat="45.4224652" lon="11.9316415"><ele>9.5</ele><time>2026-04-19T15:06:46.844Z</time></trkpt><trkpt lat="45.4222802" lon="11.9319922"><ele>9.0</ele><time>2026-04-19T15:06:47.835Z</time></trkpt><trkpt lat="45.4220911" lon="11.9323479"><ele>8.5</ele><time>2026-04-19T15:06:48.855Z</time></trkpt><trkpt lat="45.421904" lon="11.9326967"><ele>8.0</ele><time>2026-04-19T15:06:49.85Z</time></trkpt><trkpt lat="45.4217293" lon="11.9330373"><ele>8.0</ele><time>2026-04-19T15:06:50.836Z</time></trkpt><trkpt lat="45.4215406" lon="11.9333883"><ele>8.0</ele><time>2026-04-19T15:06:51.839Z</time></trkpt><trkpt lat="45.4213511" lon="11.9337411"><ele>9.5</ele><time>2026-04-19T15:06:52.843Z</time></trkpt><trkpt lat="45.4211642" lon="11.9340859"><ele>11.0</ele><time>2026-04-19T15:06:53.839Z</time></trkpt><trkpt lat="45.420977" lon="11.9344287"><ele>11.5</ele><time>2026-04-19T15:06:54.834Z</time></trkpt><trkpt lat="45.4207875" lon="11.9347713"><ele>12.0</ele><time>2026-04-19T15:06:55.857Z</time></trkpt><trkpt lat="45.4205997" lon="11.9351105"><ele>11.0</ele><time>2026-04-19T15:06:56.859Z</time></trkpt><trkpt lat="45.4204165" lon="11.9354586"><ele>10.0</ele><time>2026-04-19T15:06:57.864Z</time></trkpt><trkpt lat="45.4202398" lon="11.9358053"><ele>8.5</ele><time>2026-04-19T15:06:58.862Z</time></trkpt><trkpt lat="45.4200781" lon="11.9361608"><ele>7.0</ele><time>2026-04-19T15:06:59.838Z</time></trkpt><trkpt lat="45.4199251" lon="11.9365381"><ele>7.0</ele><time>2026-04-19T15:07:00.838Z</time></trkpt><trkpt lat="45.4197809" lon="11.9369267"><ele>7.0</ele><time>2026-04-19T15:07:01.853Z</time></trkpt><trkpt lat="45.419652" lon="11.9373152"><ele>8.5</ele><time>2026-04-19T15:07:02.848Z</time></trkpt><trkpt lat="45.4195368" lon="11.9377095"><ele>10.0</ele><time>2026-04-19T15:07:03.843Z</time></trkpt><trkpt lat="45.4194324" lon="11.9381201"><ele>9.0</ele><time>2026-04-19T15:07:04.839Z</time></trkpt><trkpt lat="45.4193411" lon="11.9385335"><ele>8.0</ele><time>2026-04-19T15:07:05.844Z</time></trkpt><trkpt lat="45.4192585" lon="11.9389582"><ele>7.5</ele><time>2026-04-19T15:07:06.871Z</time></trkpt><trkpt lat="45.4191892" lon="11.9393713"><ele>7.0</ele><time>2026-04-19T15:07:07.841Z</time></trkpt><trkpt lat="45.419131" lon="11.9397955"><ele>6.5</ele><time>2026-04-19T15:07:08.833Z</time></trkpt><trkpt lat="45.4190848" lon="11.9402269"><ele>6.0</ele><time>2026-04-19T15:07:09.841Z</time></trkpt><trkpt lat="45.4190529" lon="11.9406592"><ele>6.5</ele><time>2026-04-19T15:07:10.85Z</time></trkpt><trkpt lat="45.4190347" lon="11.9410935"><ele>7.0</ele><time>2026-04-19T15:07:11.835Z</time></trkpt><trkpt lat="45.4190297" lon="11.9415303"><ele>7.5</ele><time>2026-04-19T15:07:12.854Z</time></trkpt><trkpt lat="45.4190383" lon="11.94196"><ele>8.0</ele><time>2026-04-19T15:07:13.842Z</time></trkpt><trkpt lat="45.4190595" lon="11.942391"><ele>7.5</ele><time>2026-04-19T15:07:14.829Z</time></trkpt><trkpt lat="45.4190942" lon="11.942824"><ele>7.0</ele><time>2026-04-19T15:07:15.836Z</time></trkpt><trkpt lat="45.4191416" lon="11.9432529"><ele>8.0</ele><time>2026-04-19T15:07:16.845Z</time></trkpt><trkpt lat="45.4192007" lon="11.943678"><ele>9.0</ele><time>2026-04-19T15:07:17.831Z</time></trkpt><trkpt lat="45.4192712" lon="11.944098"><ele>9.5</ele><time>2026-04-19T15:07:18.846Z</time></trkpt><trkpt lat="45.4193517" lon="11.9445179"><ele>10.0</ele><time>2026-04-19T15:07:19.858Z</time></trkpt><trkpt lat="45.419438" lon="11.9449309"><ele>9.0</ele><time>2026-04-19T15:07:20.845Z</time></trkpt><trkpt lat="45.4195257" lon="11.945339"><ele>8.0</ele><time>2026-04-19T15:07:21.863Z</time></trkpt><trkpt lat="45.4196073" lon="11.9457205"><ele>9.0</ele><time>2026-04-19T15:07:22.84Z</time></trkpt><trkpt lat="45.4196905" lon="11.9461158"><ele>10.0</ele><time>2026-04-19T15:07:23.858Z</time></trkpt><trkpt lat="45.4197731" lon="11.9465026"><ele>10.5</ele><time>2026-04-19T15:07:24.835Z</time></trkpt><trkpt lat="45.4198609" lon="11.9469016"><ele>11.0</ele><time>2026-04-19T15:07:25.836Z</time></trkpt><trkpt lat="45.4199514" lon="11.9473067"><ele>12.0</ele><time>2026-04-19T15:07:26.845Z</time></trkpt><trkpt lat="45.4200415" lon="11.9477145"><ele>13.0</ele><time>2026-04-19T15:07:27.845Z</time></trkpt><trkpt lat="45.4201311" lon="11.9481292"><ele>12.5</ele><time>2026-04-19T15:07:28.833Z</time></trkpt><trkpt lat="45.4202226" lon="11.9485585"><ele>12.0</ele><time>2026-04-19T15:07:29.854Z</time></trkpt><trkpt lat="45.4203095" lon="11.9489798"><ele>11.5</ele><time>2026-04-19T15:07:30.833Z</time></trkpt><trkpt lat="45.4203994" lon="11.9494114"><ele>11.0</ele><time>2026-04-19T15:07:31.842Z</time></trkpt><trkpt lat="45.4204899" lon="11.9498387"><ele>11.5</ele><time>2026-04-19T15:07:32.847Z</time></trkpt><trkpt lat="45.4205809" lon="11.9502616"><ele>12.0</ele><time>2026-04-19T15:07:33.839Z</time></trkpt><trkpt lat="45.4206703" lon="11.9506834"><ele>12.5</ele><time>2026-04-19T15:07:34.839Z</time></trkpt><trkpt lat="45.4207586" lon="11.9510965"><ele>13.0</ele><time>2026-04-19T15:07:35.836Z</time></trkpt><trkpt lat="45.4208477" lon="11.9515131"><ele>12.5</ele><time>2026-04-19T15:07:36.842Z</time></trkpt><trkpt lat="45.4209351" lon="11.9519272"><ele>12.0</ele><time>2026-04-19T15:07:37.849Z</time></trkpt><trkpt lat="45.4210302" lon="11.9523348"><ele>12.0</ele><time>2026-04-19T15:07:38.836Z</time></trkpt><trkpt lat="45.4211165" lon="11.9527444"><ele>12.0</ele><time>2026-04-19T15:07:39.855Z</time></trkpt><trkpt lat="45.4211999" lon="11.9531505"><ele>12.0</ele><time>2026-04-19T15:07:40.857Z</time></trkpt><trkpt lat="45.4212817" lon="11.9535427"><ele>12.0</ele><time>2026-04-19T15:07:41.844Z</time></trkpt><trkpt lat="45.4213661" lon="11.9539361"><ele>11.5</ele><time>2026-04-19T15:07:42.837Z</time></trkpt><trkpt lat="45.4214523" lon="11.9543291"><ele>11.0</ele><time>2026-04-19T15:07:43.839Z</time></trkpt><trkpt lat="45.4215383" lon="11.9547196"><ele>11.0</ele><time>2026-04-19T15:07:44.861Z</time></trkpt><trkpt lat="45.4216206" lon="11.9550932"><ele>11.0</ele><time>2026-04-19T15:07:45.856Z</time></trkpt><trkpt lat="45.4216986" lon="11.9554602"><ele>11.0</ele><time>2026-04-19T15:07:46.846Z</time></trkpt><trkpt lat="45.4217746" lon="11.9558249"><ele>11.0</ele><time>2026-04-19T15:07:47.845Z</time></trkpt><trkpt lat="45.4218492" lon="11.9561849"><ele>9.5</ele><time>2026-04-19T15:07:48.866Z</time></trkpt><trkpt lat="45.4219216" lon="11.9565365"><ele>8.0</ele><time>2026-04-19T15:07:49.847Z</time></trkpt><trkpt lat="45.4219969" lon="11.9569013"><ele>8.0</ele><time>2026-04-19T15:07:50.854Z</time></trkpt><trkpt lat="45.4220725" lon="11.9572715"><ele>8.0</ele><time>2026-04-19T15:07:51.865Z</time></trkpt><trkpt lat="45.4221467" lon="11.9576361"><ele>8.5</ele><time>2026-04-19T15:07:52.835Z</time></trkpt><trkpt lat="45.4222243" lon="11.9580095"><ele>9.0</ele><time>2026-04-19T15:07:53.851Z</time></trkpt><trkpt lat="45.4222902" lon="11.9583703"><ele>9.5</ele><time>2026-04-19T15:07:54.841Z</time></trkpt><trkpt lat="45.4223629" lon="11.9587248"><ele>10.0</ele><time>2026-04-19T15:07:55.847Z</time></trkpt><trkpt lat="45.422432" lon="11.9590646"><ele>10.0</ele><time>2026-04-19T15:07:56.848Z</time></trkpt><trkpt lat="45.4224997" lon="11.959391"><ele>10.0</ele><time>2026-04-19T15:07:57.855Z</time></trkpt><trkpt lat="45.4225658" lon="11.9597054"><ele>10.0</ele><time>2026-04-19T15:07:58.853Z</time></trkpt><trkpt lat="45.4226295" lon="11.9600128"><ele>10.0</ele><time>2026-04-19T15:07:59.835Z</time></trkpt><trkpt lat="45.4226916" lon="11.9603127"><ele>10.0</ele><time>2026-04-19T15:08:00.839Z</time></trkpt><trkpt lat="45.4227536" lon="11.9606069"><ele>9.666666666666668</ele><time>2026-04-19T15:08:01.915Z</time></trkpt><trkpt lat="45.4228108" lon="11.9608886"><ele>9.333333333333334</ele><time>2026-04-19T15:08:02.828Z</time></trkpt><trkpt lat="45.4228712" lon="11.9611876"><ele>9.0</ele><time>2026-04-19T15:08:03.856Z</time></trkpt><trkpt lat="45.4229316" lon="11.9614803"><ele>7.0</ele><time>2026-04-19T15:08:04.844Z</time></trkpt><trkpt lat="45.4229951" lon="11.9617776"><ele>5.0</ele><time>2026-04-19T15:08:05.851Z</time></trkpt><trkpt lat="45.4230581" lon="11.9620746"><ele>3.0</ele><time>2026-04-19T15:08:06.836Z</time></trkpt><trkpt lat="45.4231198" lon="11.9623815"><ele>3.0</ele><time>2026-04-19T15:08:07.837Z</time></trkpt><trkpt lat="45.4231818" lon="11.9626929"><ele>3.0</ele><time>2026-04-19T15:08:08.832Z</time></trkpt><trkpt lat="45.4232432" lon="11.9630072"><ele>3.0</ele><time>2026-04-19T15:08:09.852Z</time></trkpt><trkpt lat="45.4233058" lon="11.9633191"><ele>3.0</ele><time>2026-04-19T15:08:10.842Z</time></trkpt><trkpt lat="45.4233707" lon="11.963633"><ele>5.5</ele><time>2026-04-19T15:08:11.854Z</time></trkpt><trkpt lat="45.4234358" lon="11.9639418"><ele>8.0</ele><time>2026-04-19T15:08:12.848Z</time></trkpt><trkpt lat="45.4235017" lon="11.9642572"><ele>8.5</ele><time>2026-04-19T15:08:13.847Z</time></trkpt><trkpt lat="45.4235715" lon="11.9645715"><ele>9.0</ele><time>2026-04-19T15:08:14.84Z</time></trkpt><trkpt lat="45.4236371" lon="11.9648903"><ele>8.5</ele><time>2026-04-19T15:08:15.838Z</time></trkpt><trkpt lat="45.4237024" lon="11.9652122"><ele>8.0</ele><time>2026-04-19T15:08:16.836Z</time></trkpt><trkpt lat="45.4237709" lon="11.96554"><ele>10.0</ele><time>2026-04-19T15:08:17.843Z</time></trkpt><trkpt lat="45.4238452" lon="11.9658866"><ele>12.0</ele><time>2026-04-19T15:08:18.851Z</time></trkpt><trkpt lat="45.4239235" lon="11.9662433"><ele>12.0</ele><time>2026-04-19T15:08:19.857Z</time></trkpt><trkpt lat="45.4240067" lon="11.9666166"><ele>12.0</ele><time>2026-04-19T15:08:20.853Z</time></trkpt><trkpt lat="45.4240947" lon="11.9670095"><ele>11.5</ele><time>2026-04-19T15:08:21.848Z</time></trkpt><trkpt lat="45.4241813" lon="11.9674325"><ele>11.0</ele><time>2026-04-19T15:08:22.864Z</time></trkpt><trkpt lat="45.4242674" lon="11.967866"><ele>10.0</ele><time>2026-04-19T15:08:23.856Z</time></trkpt><trkpt lat="45.4243573" lon="11.9683179"><ele>9.0</ele><time>2026-04-19T15:08:24.837Z</time></trkpt><trkpt lat="45.4244471" lon="11.9687704"><ele>9.0</ele><time>2026-04-19T15:08:25.839Z</time></trkpt><trkpt lat="45.424538" lon="11.9692195"><ele>9.0</ele><time>2026-04-19T15:08:26.867Z</time></trkpt><trkpt lat="45.4246263" lon="11.9696494"><ele>9.5</ele><time>2026-04-19T15:08:27.841Z</time></trkpt><trkpt lat="45.4247168" lon="11.9700831"><ele>10.0</ele><time>2026-04-19T15:08:28.864Z</time></trkpt><trkpt lat="45.4248062" lon="11.9705098"><ele>9.0</ele><time>2026-04-19T15:08:29.865Z</time></trkpt><trkpt lat="45.4248934" lon="11.9709242"><ele>8.0</ele><time>2026-04-19T15:08:30.855Z</time></trkpt><trkpt lat="45.4249795" lon="11.9713387"><ele>8.0</ele><time>2026-04-19T15:08:31.861Z</time></trkpt><trkpt lat="45.4250658" lon="11.9717549"><ele>8.0</ele><time>2026-04-19T15:08:32.862Z</time></trkpt><trkpt lat="45.4251509" lon="11.9721602"><ele>8.0</ele><time>2026-04-19T15:08:33.841Z</time></trkpt><trkpt lat="45.4252395" lon="11.9725794"><ele>8.0</ele><time>2026-04-19T15:08:34.851Z</time></trkpt><trkpt lat="45.4253252" lon="11.9729936"><ele>8.0</ele><time>2026-04-19T15:08:35.847Z</time></trkpt><trkpt lat="45.4254142" lon="11.9734156"><ele>8.0</ele><time>2026-04-19T15:08:36.86Z</time></trkpt><trkpt lat="45.4254985" lon="11.9738248"><ele>8.5</ele><time>2026-04-19T15:08:37.852Z</time></trkpt><trkpt lat="45.4255822" lon="11.9742396"><ele>9.0</ele><time>2026-04-19T15:08:38.84Z</time></trkpt><trkpt lat="45.4256666" lon="11.9746552"><ele>9.0</ele><time>2026-04-19T15:08:39.838Z</time></trkpt><trkpt lat="45.4257543" lon="11.975071"><ele>9.0</ele><time>2026-04-19T15:08:40.84Z</time></trkpt><trkpt lat="45.4258414" lon="11.9754842"><ele>9.0</ele><time>2026-04-19T15:08:41.842Z</time></trkpt><trkpt lat="45.4259284" lon="11.9758958"><ele>9.0</ele><time>2026-04-19T15:08:42.838Z</time></trkpt><trkpt lat="45.4260137" lon="11.976312"><ele>8.5</ele><time>2026-04-19T15:08:43.832Z</time></trkpt><trkpt lat="45.4260998" lon="11.9767282"><ele>8.0</ele><time>2026-04-19T15:08:44.834Z</time></trkpt><trkpt lat="45.4261831" lon="11.9771441"><ele>7.5</ele><time>2026-04-19T15:08:45.834Z</time></trkpt><trkpt lat="45.4262658" lon="11.9775617"><ele>7.0</ele><time>2026-04-19T15:08:46.863Z</time></trkpt><trkpt lat="45.4263458" lon="11.9779609"><ele>6.5</ele><time>2026-04-19T15:08:47.839Z</time></trkpt><trkpt lat="45.4264271" lon="11.978366"><ele>6.0</ele><time>2026-04-19T15:08:48.839Z</time></trkpt><trkpt lat="45.4265071" lon="11.9787639"><ele>6.0</ele><time>2026-04-19T15:08:49.841Z</time></trkpt><trkpt lat="45.4265864" lon="11.9791623"><ele>6.0</ele><time>2026-04-19T15:08:50.835Z</time></trkpt><trkpt lat="45.4266662" lon="11.9795625"><ele>6.5</ele><time>2026-04-19T15:08:51.857Z</time></trkpt><trkpt lat="45.4267446" lon="11.9799577"><ele>7.0</ele><time>2026-04-19T15:08:52.872Z</time></trkpt><trkpt lat="45.4268216" lon="11.9803492"><ele>7.0</ele><time>2026-04-19T15:08:53.855Z</time></trkpt><trkpt lat="45.4268967" lon="11.9807343"><ele>7.0</ele><time>2026-04-19T15:08:54.846Z</time></trkpt><trkpt lat="45.4269762" lon="11.9811276"><ele>6.5</ele><time>2026-04-19T15:08:55.877Z</time></trkpt><trkpt lat="45.4270541" lon="11.9815063"><ele>6.0</ele><time>2026-04-19T15:08:56.844Z</time></trkpt><trkpt lat="45.4271352" lon="11.9818972"><ele>6.0</ele><time>2026-04-19T15:08:57.858Z</time></trkpt><trkpt lat="45.4272133" lon="11.9822827"><ele>6.0</ele><time>2026-04-19T15:08:58.849Z</time></trkpt><trkpt lat="45.4272902" lon="11.9826643"><ele>6.0</ele><time>2026-04-19T15:08:59.843Z</time></trkpt><trkpt lat="45.4273698" lon="11.9830492"><ele>6.0</ele><time>2026-04-19T15:09:00.852Z</time></trkpt><trkpt lat="45.4274494" lon="11.9834261"><ele>5.5</ele><time>2026-04-19T15:09:01.842Z</time></trkpt><trkpt lat="45.427525" lon="11.983807"><ele>5.0</ele><time>2026-04-19T15:09:02.847Z</time></trkpt><trkpt lat="45.427602" lon="11.9841896"><ele>4.5</ele><time>2026-04-19T15:09:03.843Z</time></trkpt><trkpt lat="45.4276789" lon="11.9845793"><ele>4.0</ele><time>2026-04-19T15:09:04.856Z</time></trkpt><trkpt lat="45.4277546" lon="11.9849655"><ele>4.5</ele><time>2026-04-19T15:09:05.843Z</time></trkpt><trkpt lat="45.4278305" lon="11.9853533"><ele>5.0</ele><time>2026-04-19T15:09:06.852Z</time></trkpt><trkpt lat="45.4279062" lon="11.9857389"><ele>5.0</ele><time>2026-04-19T15:09:07.847Z</time></trkpt><trkpt lat="45.4279829" lon="11.9861236"><ele>5.0</ele><time>2026-04-19T15:09:08.84Z</time></trkpt><trkpt lat="45.4280606" lon="11.9865103"><ele>5.0</ele><time>2026-04-19T15:09:09.852Z</time></trkpt><trkpt lat="45.4281548" lon="11.986887"><ele>5.0</ele><time>2026-04-19T15:09:10.858Z</time></trkpt><trkpt lat="45.4282371" lon="11.9872662"><ele>5.0</ele><time>2026-04-19T15:09:11.861Z</time></trkpt><trkpt lat="45.4283169" lon="11.987644"><ele>5.0</ele><time>2026-04-19T15:09:12.858Z</time></trkpt><trkpt lat="45.4283983" lon="11.9880224"><ele>5.5</ele><time>2026-04-19T15:09:13.87Z</time></trkpt><trkpt lat="45.4284759" lon="11.9883936"><ele>6.0</ele><time>2026-04-19T15:09:14.85Z</time></trkpt><trkpt lat="45.4285535" lon="11.9887711"><ele>6.0</ele><time>2026-04-19T15:09:15.842Z</time></trkpt><trkpt lat="45.42863" lon="11.9891428"><ele>6.0</ele><time>2026-04-19T15:09:16.845Z</time></trkpt><trkpt lat="45.4287087" lon="11.9895184"><ele>5.5</ele><time>2026-04-19T15:09:17.84Z</time></trkpt><trkpt lat="45.4287883" lon="11.9898936"><ele>5.0</ele><time>2026-04-19T15:09:18.86Z</time></trkpt><trkpt lat="45.4288677" lon="11.9902686"><ele>4.5</ele><time>2026-04-19T15:09:19.859Z</time></trkpt><trkpt lat="45.4289465" lon="11.9906443"><ele>4.0</ele><time>2026-04-19T15:09:20.867Z</time></trkpt><trkpt lat="45.4290214" lon="11.9910084"><ele>5.0</ele><time>2026-04-19T15:09:21.84Z</time></trkpt><trkpt lat="45.4290992" lon="11.9913802"><ele>6.0</ele><time>2026-04-19T15:09:22.837Z</time></trkpt><trkpt lat="45.4291788" lon="11.9917557"><ele>6.0</ele><time>2026-04-19T15:09:23.858Z</time></trkpt><trkpt lat="45.4292563" lon="11.9921309"><ele>6.0</ele><time>2026-04-19T15:09:24.871Z</time></trkpt><trkpt lat="45.4293318" lon="11.9925006"><ele>5.0</ele><time>2026-04-19T15:09:25.846Z</time></trkpt><trkpt lat="45.4294077" lon="11.9928787"><ele>4.0</ele><time>2026-04-19T15:09:26.858Z</time></trkpt><trkpt lat="45.4294802" lon="11.9932486"><ele>4.0</ele><time>2026-04-19T15:09:27.85Z</time></trkpt><trkpt lat="45.4295547" lon="11.9936215"><ele>4.0</ele><time>2026-04-19T15:09:28.842Z</time></trkpt><trkpt lat="45.4296312" lon="11.9939971"><ele>4.5</ele><time>2026-04-19T15:09:29.847Z</time></trkpt><trkpt lat="45.4297092" lon="11.9943743"><ele>5.0</ele><time>2026-04-19T15:09:30.844Z</time></trkpt><trkpt lat="45.4297908" lon="11.9947635"><ele>5.0</ele><time>2026-04-19T15:09:31.849Z</time></trkpt><trkpt lat="45.4298722" lon="11.9951496"><ele>5.0</ele><time>2026-04-19T15:09:32.854Z</time></trkpt><trkpt lat="45.4299536" lon="11.9955404"><ele>5.5</ele><time>2026-04-19T15:09:33.848Z</time></trkpt><trkpt lat="45.4300372" lon="11.9959461"><ele>6.0</ele><time>2026-04-19T15:09:34.86Z</time></trkpt><trkpt lat="45.4301181" lon="11.9963371"><ele>5.5</ele><time>2026-04-19T15:09:35.849Z</time></trkpt><trkpt lat="45.4301986" lon="11.9967379"><ele>5.0</ele><time>2026-04-19T15:09:36.845Z</time></trkpt><trkpt lat="45.4302744" lon="11.9971342"><ele>6.5</ele><time>2026-04-19T15:09:37.838Z</time></trkpt><trkpt lat="45.43035" lon="11.9975377"><ele>8.0</ele><time>2026-04-19T15:09:38.84Z</time></trkpt><trkpt lat="45.4304279" lon="11.9979328"><ele>7.5</ele><time>2026-04-19T15:09:39.839Z</time></trkpt><trkpt lat="45.4305078" lon="11.9983324"><ele>7.0</ele><time>2026-04-19T15:09:40.844Z</time></trkpt><trkpt lat="45.4305874" lon="11.998731"><ele>6.5</ele><time>2026-04-19T15:09:41.856Z</time></trkpt><trkpt lat="45.4306668" lon="11.999122"><ele>6.0</ele><time>2026-04-19T15:09:42.835Z</time></trkpt><trkpt lat="45.4307493" lon="11.9995257"><ele>5.5</ele><time>2026-04-19T15:09:43.875Z</time></trkpt><trkpt lat="45.430829" lon="11.9999183"><ele>5.0</ele><time>2026-04-19T15:09:44.864Z</time></trkpt><trkpt lat="45.4309096" lon="12.0003087"><ele>5.0</ele><time>2026-04-19T15:09:45.855Z</time></trkpt><trkpt lat="45.4309911" lon="12.0006998"><ele>5.0</ele><time>2026-04-19T15:09:46.853Z</time></trkpt><trkpt lat="45.431072" lon="12.0010849"><ele>4.0</ele><time>2026-04-19T15:09:47.837Z</time></trkpt><trkpt lat="45.4311543" lon="12.0014778"><ele>3.0</ele><time>2026-04-19T15:09:48.859Z</time></trkpt><trkpt lat="45.4312343" lon="12.0018655"><ele>4.0</ele><time>2026-04-19T15:09:49.836Z</time></trkpt><trkpt lat="45.4313152" lon="12.0022533"><ele>5.0</ele><time>2026-04-19T15:09:50.841Z</time></trkpt><trkpt lat="45.4313971" lon="12.0026435"><ele>5.0</ele><time>2026-04-19T15:09:51.845Z</time></trkpt><trkpt lat="45.4314792" lon="12.0030357"><ele>5.0</ele><time>2026-04-19T15:09:52.857Z</time></trkpt><trkpt lat="45.4315605" lon="12.0034266"><ele>4.5</ele><time>2026-04-19T15:09:53.864Z</time></trkpt><trkpt lat="45.4316426" lon="12.0038231"><ele>4.0</ele><time>2026-04-19T15:09:54.86Z</time></trkpt><trkpt lat="45.4317253" lon="12.0042186"><ele>3.5</ele><time>2026-04-19T15:09:55.844Z</time></trkpt><trkpt lat="45.4318102" lon="12.0046221"><ele>3.0</ele><time>2026-04-19T15:09:56.854Z</time></trkpt><trkpt lat="45.4318936" lon="12.0050149"><ele>4.0</ele><time>2026-04-19T15:09:57.847Z</time></trkpt><trkpt lat="45.4319759" lon="12.0054092"><ele>5.0</ele><time>2026-04-19T15:09:58.841Z</time></trkpt><trkpt lat="45.4320571" lon="12.0058009"><ele>5.0</ele><time>2026-04-19T15:09:59.848Z</time></trkpt><trkpt lat="45.4321386" lon="12.0061941"><ele>5.0</ele><time>2026-04-19T15:10:00.851Z</time></trkpt><trkpt lat="45.4322184" lon="12.0065802"><ele>4.5</ele><time>2026-04-19T15:10:01.85Z</time></trkpt><trkpt lat="45.4322956" lon="12.0069608"><ele>4.0</ele><time>2026-04-19T15:10:02.848Z</time></trkpt><trkpt lat="45.4323752" lon="12.0073438"><ele>4.0</ele><time>2026-04-19T15:10:03.853Z</time></trkpt><trkpt lat="45.432453" lon="12.0077194"><ele>4.0</ele><time>2026-04-19T15:10:04.846Z</time></trkpt><trkpt lat="45.4325293" lon="12.008093"><ele>3.5</ele><time>2026-04-19T15:10:05.844Z</time></trkpt><trkpt lat="45.4326039" lon="12.0084655"><ele>3.0</ele><time>2026-04-19T15:10:06.844Z</time></trkpt><trkpt lat="45.4326818" lon="12.0088401"><ele>3.5</ele><time>2026-04-19T15:10:07.863Z</time></trkpt><trkpt lat="45.4327577" lon="12.0092058"><ele>4.0</ele><time>2026-04-19T15:10:08.859Z</time></trkpt><trkpt lat="45.4328362" lon="12.0095754"><ele>4.0</ele><time>2026-04-19T15:10:09.858Z</time></trkpt><trkpt lat="45.4329137" lon="12.009939"><ele>4.0</ele><time>2026-04-19T15:10:10.846Z</time></trkpt><trkpt lat="45.4329943" lon="12.010313"><ele>3.5</ele><time>2026-04-19T15:10:11.839Z</time></trkpt><trkpt lat="45.433077" lon="12.0106964"><ele>3.0</ele><time>2026-04-19T15:10:12.842Z</time></trkpt><trkpt lat="45.4331593" lon="12.0110808"><ele>3.0</ele><time>2026-04-19T15:10:13.864Z</time></trkpt><trkpt lat="45.4332398" lon="12.0114623"><ele>3.0</ele><time>2026-04-19T15:10:14.848Z</time></trkpt><trkpt lat="45.4333191" lon="12.0118466"><ele>3.0</ele><time>2026-04-19T15:10:15.851Z</time></trkpt><trkpt lat="45.4333984" lon="12.0122353"><ele>3.0</ele><time>2026-04-19T15:10:16.841Z</time></trkpt><trkpt lat="45.4334775" lon="12.0126289"><ele>3.0</ele><time>2026-04-19T15:10:17.853Z</time></trkpt><trkpt lat="45.4335558" lon="12.0130229"><ele>3.0</ele><time>2026-04-19T15:10:18.86Z</time></trkpt><trkpt lat="45.4336342" lon="12.0134191"><ele>3.0</ele><time>2026-04-19T15:10:19.835Z</time></trkpt><trkpt lat="45.4337153" lon="12.0138289"><ele>3.0</ele><time>2026-04-19T15:10:20.843Z</time></trkpt><trkpt lat="45.433796" lon="12.0142392"><ele>3.5</ele><time>2026-04-19T15:10:21.853Z</time></trkpt><trkpt lat="45.4338782" lon="12.0146521"><ele>4.0</ele><time>2026-04-19T15:10:22.848Z</time></trkpt><trkpt lat="45.4339617" lon="12.0150657"><ele>5.0</ele><time>2026-04-19T15:10:23.857Z</time></trkpt><trkpt lat="45.4340419" lon="12.0154685"><ele>6.0</ele><time>2026-04-19T15:10:24.843Z</time></trkpt><trkpt lat="45.434125" lon="12.0158817"><ele>7.0</ele><time>2026-04-19T15:10:25.863Z</time></trkpt><trkpt lat="45.4342093" lon="12.01629"><ele>8.0</ele><time>2026-04-19T15:10:26.858Z</time></trkpt><trkpt lat="45.434294" lon="12.0166911"><ele>6.0</ele><time>2026-04-19T15:10:27.837Z</time></trkpt><trkpt lat="45.4343811" lon="12.0171059"><ele>4.0</ele><time>2026-04-19T15:10:28.847Z</time></trkpt><trkpt lat="45.4344657" lon="12.0175169"><ele>3.0</ele><time>2026-04-19T15:10:29.862Z</time></trkpt><trkpt lat="45.434548" lon="12.0179195"><ele>2.0</ele><time>2026-04-19T15:10:30.84Z</time></trkpt><trkpt lat="45.4346311" lon="12.0183265"><ele>3.0</ele><time>2026-04-19T15:10:31.854Z</time></trkpt><trkpt lat="45.4347127" lon="12.0187299"><ele>4.0</ele><time>2026-04-19T15:10:32.85Z</time></trkpt><trkpt lat="45.4347945" lon="12.0191333"><ele>4.0</ele><time>2026-04-19T15:10:33.837Z</time></trkpt><trkpt lat="45.4348747" lon="12.0195346"><ele>4.0</ele><time>2026-04-19T15:10:34.845Z</time></trkpt><trkpt lat="45.4349562" lon="12.0199367"><ele>4.0</ele><time>2026-04-19T15:10:35.853Z</time></trkpt><trkpt lat="45.4350364" lon="12.0203288"><ele>4.0</ele><time>2026-04-19T15:10:36.84Z</time></trkpt><trkpt lat="45.4351187" lon="12.0207283"><ele>3.5</ele><time>2026-04-19T15:10:37.862Z</time></trkpt><trkpt lat="45.4351981" lon="12.0211139"><ele>3.0</ele><time>2026-04-19T15:10:38.844Z</time></trkpt><trkpt lat="45.4352784" lon="12.0215021"><ele>2.5</ele><time>2026-04-19T15:10:39.837Z</time></trkpt><trkpt lat="45.4353573" lon="12.0218924"><ele>2.0</ele><time>2026-04-19T15:10:40.845Z</time></trkpt><trkpt lat="45.435436" lon="12.0222789"><ele>3.0</ele><time>2026-04-19T15:10:41.838Z</time></trkpt><trkpt lat="45.4355161" lon="12.0226659"><ele>4.0</ele><time>2026-04-19T15:10:42.837Z</time></trkpt><trkpt lat="45.435598" lon="12.02306"><ele>4.5</ele><time>2026-04-19T15:10:43.85Z</time></trkpt><trkpt lat="45.4356806" lon="12.0234542"><ele>5.0</ele><time>2026-04-19T15:10:44.863Z</time></trkpt><trkpt lat="45.435764" lon="12.0238492"><ele>4.5</ele><time>2026-04-19T15:10:45.849Z</time></trkpt><trkpt lat="45.4358497" lon="12.0242536"><ele>4.0</ele><time>2026-04-19T15:10:46.838Z</time></trkpt><trkpt lat="45.4359352" lon="12.0246594"><ele>4.5</ele><time>2026-04-19T15:10:47.842Z</time></trkpt><trkpt lat="45.4360202" lon="12.0250663"><ele>5.0</ele><time>2026-04-19T15:10:48.835Z</time></trkpt><trkpt lat="45.4361076" lon="12.0254761"><ele>4.0</ele><time>2026-04-19T15:10:49.848Z</time></trkpt><trkpt lat="45.4361929" lon="12.0258872"><ele>3.0</ele><time>2026-04-19T15:10:50.841Z</time></trkpt><trkpt lat="45.4362773" lon="12.0263021"><ele>4.0</ele><time>2026-04-19T15:10:51.859Z</time></trkpt><trkpt lat="45.4363598" lon="12.0267107"><ele>5.0</ele><time>2026-04-19T15:10:52.848Z</time></trkpt><trkpt lat="45.4364438" lon="12.0271209"><ele>4.5</ele><time>2026-04-19T15:10:53.837Z</time></trkpt><trkpt lat="45.436527" lon="12.0275309"><ele>4.0</ele><time>2026-04-19T15:10:54.839Z</time></trkpt><trkpt lat="45.4366095" lon="12.0279437"><ele>3.5</ele><time>2026-04-19T15:10:55.842Z</time></trkpt><trkpt lat="45.4366901" lon="12.0283515"><ele>3.0</ele><time>2026-04-19T15:10:56.835Z</time></trkpt><trkpt lat="45.4367713" lon="12.0287631"><ele>3.5</ele><time>2026-04-19T15:10:57.84Z</time></trkpt><trkpt lat="45.4368541" lon="12.0291775"><ele>4.0</ele><time>2026-04-19T15:10:58.841Z</time></trkpt><trkpt lat="45.4369365" lon="12.0295884"><ele>4.0</ele><time>2026-04-19T15:10:59.838Z</time></trkpt><trkpt lat="45.4370201" lon="12.0300057"><ele>4.0</ele><time>2026-04-19T15:11:00.857Z</time></trkpt><trkpt lat="45.4371021" lon="12.0304153"><ele>4.0</ele><time>2026-04-19T15:11:01.839Z</time></trkpt><trkpt lat="45.4371874" lon="12.030834"><ele>4.0</ele><time>2026-04-19T15:11:02.844Z</time></trkpt><trkpt lat="45.4372752" lon="12.031252"><ele>4.5</ele><time>2026-04-19T15:11:03.865Z</time></trkpt><trkpt lat="45.4373614" lon="12.0316612"><ele>5.0</ele><time>2026-04-19T15:11:04.844Z</time></trkpt><trkpt lat="45.4374482" lon="12.0320791"><ele>4.5</ele><time>2026-04-19T15:11:05.848Z</time></trkpt><trkpt lat="45.4375346" lon="12.0324982"><ele>4.0</ele><time>2026-04-19T15:11:06.853Z</time></trkpt><trkpt lat="45.4376203" lon="12.0329106"><ele>4.0</ele><time>2026-04-19T15:11:07.849Z</time></trkpt><trkpt lat="45.4377074" lon="12.0333262"><ele>4.0</ele><time>2026-04-19T15:11:08.847Z</time></trkpt><trkpt lat="45.4377938" lon="12.0337413"><ele>4.5</ele><time>2026-04-19T15:11:09.849Z</time></trkpt><trkpt lat="45.4378811" lon="12.0341548"><ele>5.0</ele><time>2026-04-19T15:11:10.833Z</time></trkpt><trkpt lat="45.43797" lon="12.0345711"><ele>5.0</ele><time>2026-04-19T15:11:11.849Z</time></trkpt><trkpt lat="45.4380576" lon="12.0349837"><ele>5.0</ele><time>2026-04-19T15:11:12.833Z</time></trkpt><trkpt lat="45.4381439" lon="12.0354006"><ele>4.5</ele><time>2026-04-19T15:11:13.832Z</time></trkpt><trkpt lat="45.4382294" lon="12.0358188"><ele>4.0</ele><time>2026-04-19T15:11:14.837Z</time></trkpt><trkpt lat="45.4383183" lon="12.0362395"><ele>3.5</ele><time>2026-04-19T15:11:15.841Z</time></trkpt><trkpt lat="45.4384109" lon="12.0366671"><ele>3.0</ele><time>2026-04-19T15:11:16.844Z</time></trkpt><trkpt lat="45.4385024" lon="12.0370895"><ele>4.0</ele><time>2026-04-19T15:11:17.837Z</time></trkpt><trkpt lat="45.4385977" lon="12.037511"><ele>5.0</ele><time>2026-04-19T15:11:18.84Z</time></trkpt><trkpt lat="45.4386896" lon="12.0379407"><ele>4.5</ele><time>2026-04-19T15:11:19.843Z</time></trkpt><trkpt lat="45.4387798" lon="12.03837"><ele>4.0</ele><time>2026-04-19T15:11:20.849Z</time></trkpt><trkpt lat="45.438868" lon="12.0387976"><ele>4.0</ele><time>2026-04-19T15:11:21.844Z</time></trkpt><trkpt lat="45.4389591" lon="12.039235"><ele>4.0</ele><time>2026-04-19T15:11:22.857Z</time></trkpt><trkpt lat="45.4390486" lon="12.039669"><ele>4.0</ele><time>2026-04-19T15:11:23.857Z</time></trkpt><trkpt lat="45.4391387" lon="12.0400982"><ele>4.0</ele><time>2026-04-19T15:11:24.841Z</time></trkpt><trkpt lat="45.4392292" lon="12.040525"><ele>4.0</ele><time>2026-04-19T15:11:25.834Z</time></trkpt><trkpt lat="45.4393095" lon="12.0409544"><ele>4.0</ele><time>2026-04-19T15:11:26.839Z</time></trkpt><trkpt lat="45.4393967" lon="12.0413855"><ele>4.0</ele><time>2026-04-19T15:11:27.847Z</time></trkpt><trkpt lat="45.4394868" lon="12.04182"><ele>4.0</ele><time>2026-04-19T15:11:28.849Z</time></trkpt><trkpt lat="45.4395752" lon="12.042249"><ele>4.0</ele><time>2026-04-19T15:11:29.831Z</time></trkpt><trkpt lat="45.4396675" lon="12.0426868"><ele>4.0</ele><time>2026-04-19T15:11:30.857Z</time></trkpt><trkpt lat="45.4397552" lon="12.0431186"><ele>4.5</ele><time>2026-04-19T15:11:31.829Z</time></trkpt><trkpt lat="45.4398431" lon="12.0435715"><ele>5.0</ele><time>2026-04-19T15:11:32.844Z</time></trkpt><trkpt lat="45.4399315" lon="12.0440346"><ele>5.0</ele><time>2026-04-19T15:11:33.85Z</time></trkpt><trkpt lat="45.4400225" lon="12.044494"><ele>5.0</ele><time>2026-04-19T15:11:34.851Z</time></trkpt><trkpt lat="45.4401169" lon="12.0449552"><ele>5.5</ele><time>2026-04-19T15:11:35.848Z</time></trkpt><trkpt lat="45.4402131" lon="12.0454109"><ele>6.0</ele><time>2026-04-19T15:11:36.838Z</time></trkpt><trkpt lat="45.4403152" lon="12.0458887"><ele>6.5</ele><time>2026-04-19T15:11:37.852Z</time></trkpt><trkpt lat="45.440413" lon="12.0463515"><ele>7.0</ele><time>2026-04-19T15:11:38.833Z</time></trkpt><trkpt lat="45.4405102" lon="12.0468237"><ele>6.0</ele><time>2026-04-19T15:11:39.843Z</time></trkpt><trkpt lat="45.4406045" lon="12.0472946"><ele>5.0</ele><time>2026-04-19T15:11:40.859Z</time></trkpt><trkpt lat="45.4407052" lon="12.0477906"><ele>3.0</ele><time>2026-04-19T15:11:41.844Z</time></trkpt><trkpt lat="45.4408057" lon="12.0483163"><ele>1.0</ele><time>2026-04-19T15:11:42.838Z</time></trkpt><trkpt lat="45.4409079" lon="12.0488321"><ele>1.5</ele><time>2026-04-19T15:11:43.851Z</time></trkpt><trkpt lat="45.4410143" lon="12.0493278"><ele>2.0</ele><time>2026-04-19T15:11:44.838Z</time></trkpt><trkpt lat="45.4411107" lon="12.0498105"><ele>2.5</ele><time>2026-04-19T15:11:45.861Z</time></trkpt><trkpt lat="45.4412089" lon="12.0502916"><ele>3.0</ele><time>2026-04-19T15:11:46.849Z</time></trkpt><trkpt lat="45.4413033" lon="12.0507686"><ele>3.0</ele><time>2026-04-19T15:11:47.837Z</time></trkpt><trkpt lat="45.4413938" lon="12.0512357"><ele>3.0</ele><time>2026-04-19T15:11:48.839Z</time></trkpt><trkpt lat="45.4414839" lon="12.051689"><ele>3.0</ele><time>2026-04-19T15:11:49.857Z</time></trkpt><trkpt lat="45.4415721" lon="12.0521266"><ele>3.0</ele><time>2026-04-19T15:11:50.841Z</time></trkpt><trkpt lat="45.4416634" lon="12.0525552"><ele>3.0</ele><time>2026-04-19T15:11:51.854Z</time></trkpt><trkpt lat="45.4417506" lon="12.0529804"><ele>3.0</ele><time>2026-04-19T15:11:52.84Z</time></trkpt><trkpt lat="45.4418392" lon="12.0534059"><ele>3.0</ele><time>2026-04-19T15:11:53.839Z</time></trkpt><trkpt lat="45.4419267" lon="12.0538305"><ele>3.0</ele><time>2026-04-19T15:11:54.845Z</time></trkpt><trkpt lat="45.4420125" lon="12.0542522"><ele>4.0</ele><time>2026-04-19T15:11:55.835Z</time></trkpt><trkpt lat="45.4420999" lon="12.0546734"><ele>5.0</ele><time>2026-04-19T15:11:56.838Z</time></trkpt><trkpt lat="45.4421907" lon="12.0550947"><ele>5.0</ele><time>2026-04-19T15:11:57.829Z</time></trkpt><trkpt lat="45.4422841" lon="12.0555141"><ele>5.0</ele><time>2026-04-19T15:11:58.834Z</time></trkpt><trkpt lat="45.4423755" lon="12.0559284"><ele>4.5</ele><time>2026-04-19T15:11:59.829Z</time></trkpt><trkpt lat="45.4424662" lon="12.0563364"><ele>4.0</ele><time>2026-04-19T15:12:00.831Z</time></trkpt><trkpt lat="45.4425523" lon="12.0567403"><ele>3.5</ele><time>2026-04-19T15:12:01.827Z</time></trkpt><trkpt lat="45.4426368" lon="12.0571392"><ele>3.0</ele><time>2026-04-19T15:12:02.834Z</time></trkpt><trkpt lat="45.4427179" lon="12.0575381"><ele>3.0</ele><time>2026-04-19T15:12:03.833Z</time></trkpt><trkpt lat="45.4427981" lon="12.0579403"><ele>3.0</ele><time>2026-04-19T15:12:04.835Z</time></trkpt><trkpt lat="45.4428805" lon="12.0583469"><ele>3.5</ele><time>2026-04-19T15:12:05.835Z</time></trkpt><trkpt lat="45.4429644" lon="12.0587596"><ele>4.0</ele><time>2026-04-19T15:12:06.854Z</time></trkpt><trkpt lat="45.4430501" lon="12.0591749"><ele>3.0</ele><time>2026-04-19T15:12:07.848Z</time></trkpt><trkpt lat="45.4431348" lon="12.059589"><ele>2.0</ele><time>2026-04-19T15:12:08.84Z</time></trkpt><trkpt lat="45.4432202" lon="12.060001"><ele>2.0</ele><time>2026-04-19T15:12:09.842Z</time></trkpt><trkpt lat="45.4433058" lon="12.06041"><ele>2.0</ele><time>2026-04-19T15:12:10.853Z</time></trkpt><trkpt lat="45.4433883" lon="12.0608153"><ele>2.0</ele><time>2026-04-19T15:12:11.847Z</time></trkpt><trkpt lat="45.4434733" lon="12.0612185"><ele>2.0</ele><time>2026-04-19T15:12:12.851Z</time></trkpt><trkpt lat="45.4435607" lon="12.0616224"><ele>2.0</ele><time>2026-04-19T15:12:13.831Z</time></trkpt><trkpt lat="45.4436442" lon="12.0620273"><ele>2.0</ele><time>2026-04-19T15:12:14.829Z</time></trkpt><trkpt lat="45.4437259" lon="12.0624287"><ele>2.0</ele><time>2026-04-19T15:12:15.845Z</time></trkpt><trkpt lat="45.4438102" lon="12.0628249"><ele>2.0</ele><time>2026-04-19T15:12:16.834Z</time></trkpt><trkpt lat="45.4438915" lon="12.0632197"><ele>2.5</ele><time>2026-04-19T15:12:17.831Z</time></trkpt><trkpt lat="45.4439718" lon="12.0636137"><ele>3.0</ele><time>2026-04-19T15:12:18.841Z</time></trkpt><trkpt lat="45.4440525" lon="12.0640077"><ele>3.0</ele><time>2026-04-19T15:12:19.837Z</time></trkpt><trkpt lat="45.4441337" lon="12.0644021"><ele>3.0</ele><time>2026-04-19T15:12:20.841Z</time></trkpt><trkpt lat="45.4442154" lon="12.0647964"><ele>2.5</ele><time>2026-04-19T15:12:21.845Z</time></trkpt><trkpt lat="45.4442985" lon="12.0651904"><ele>2.0</ele><time>2026-04-19T15:12:22.852Z</time></trkpt><trkpt lat="45.4443817" lon="12.0655845"><ele>2.0</ele><time>2026-04-19T15:12:23.851Z</time></trkpt><trkpt lat="45.4444642" lon="12.0659804"><ele>2.0</ele><time>2026-04-19T15:12:24.836Z</time></trkpt><trkpt lat="45.4445466" lon="12.0663798"><ele>2.0</ele><time>2026-04-19T15:12:25.858Z</time></trkpt><trkpt lat="45.44463" lon="12.0667818"><ele>2.0</ele><time>2026-04-19T15:12:26.837Z</time></trkpt><trkpt lat="45.4447137" lon="12.067185"><ele>2.5</ele><time>2026-04-19T15:12:27.847Z</time></trkpt><trkpt lat="45.4447977" lon="12.0675893"><ele>3.0</ele><time>2026-04-19T15:12:28.832Z</time></trkpt><trkpt lat="45.4448816" lon="12.0679951"><ele>3.0</ele><time>2026-04-19T15:12:29.837Z</time></trkpt><trkpt lat="45.4449629" lon="12.0684027"><ele>3.0</ele><time>2026-04-19T15:12:30.844Z</time></trkpt><trkpt lat="45.445047" lon="12.0688099"><ele>3.0</ele><time>2026-04-19T15:12:31.85Z</time></trkpt><trkpt lat="45.4451302" lon="12.0692179"><ele>3.0</ele><time>2026-04-19T15:12:32.85Z</time></trkpt><trkpt lat="45.4452152" lon="12.0696281"><ele>3.5</ele><time>2026-04-19T15:12:33.843Z</time></trkpt><trkpt lat="45.4453008" lon="12.0700409"><ele>4.0</ele><time>2026-04-19T15:12:34.86Z</time></trkpt><trkpt lat="45.4453859" lon="12.0704559"><ele>4.5</ele><time>2026-04-19T15:12:35.854Z</time></trkpt><trkpt lat="45.4454701" lon="12.0708724"><ele>5.0</ele><time>2026-04-19T15:12:36.856Z</time></trkpt><trkpt lat="45.4455556" lon="12.0712901"><ele>4.5</ele><time>2026-04-19T15:12:37.848Z</time></trkpt><trkpt lat="45.4456403" lon="12.0717155"><ele>4.0</ele><time>2026-04-19T15:12:38.836Z</time></trkpt><trkpt lat="45.4457249" lon="12.0721492"><ele>4.5</ele><time>2026-04-19T15:12:39.831Z</time></trkpt><trkpt lat="45.4458114" lon="12.0725841"><ele>5.0</ele><time>2026-04-19T15:12:40.846Z</time></trkpt><trkpt lat="45.445899" lon="12.0730171"><ele>5.5</ele><time>2026-04-19T15:12:41.841Z</time></trkpt><trkpt lat="45.4459878" lon="12.0734458"><ele>6.0</ele><time>2026-04-19T15:12:42.851Z</time></trkpt><trkpt lat="45.446074" lon="12.0738716"><ele>5.0</ele><time>2026-04-19T15:12:43.841Z</time></trkpt><trkpt lat="45.446162" lon="12.0742974"><ele>4.0</ele><time>2026-04-19T15:12:44.847Z</time></trkpt><trkpt lat="45.44625" lon="12.0747228"><ele>4.5</ele><time>2026-04-19T15:12:45.841Z</time></trkpt><trkpt lat="45.4463399" lon="12.0751457"><ele>5.0</ele><time>2026-04-19T15:12:46.846Z</time></trkpt><trkpt lat="45.446428" lon="12.0755661"><ele>4.5</ele><time>2026-04-19T15:12:47.861Z</time></trkpt><trkpt lat="45.4465164" lon="12.0759857"><ele>4.0</ele><time>2026-04-19T15:12:48.86Z</time></trkpt><trkpt lat="45.4466016" lon="12.0764102"><ele>4.0</ele><time>2026-04-19T15:12:49.851Z</time></trkpt><trkpt lat="45.4466852" lon="12.0768397"><ele>4.0</ele><time>2026-04-19T15:12:50.842Z</time></trkpt><trkpt lat="45.4467696" lon="12.0772736"><ele>3.5</ele><time>2026-04-19T15:12:51.847Z</time></trkpt><trkpt lat="45.4468553" lon="12.0777092"><ele>3.0</ele><time>2026-04-19T15:12:52.834Z</time></trkpt><trkpt lat="45.4469437" lon="12.0781425"><ele>3.0</ele><time>2026-04-19T15:12:53.852Z</time></trkpt><trkpt lat="45.4470328" lon="12.0785765"><ele>3.0</ele><time>2026-04-19T15:12:54.866Z</time></trkpt><trkpt lat="45.4471239" lon="12.079008"><ele>2.5</ele><time>2026-04-19T15:12:55.838Z</time></trkpt><trkpt lat="45.4472143" lon="12.0794366"><ele>2.0</ele><time>2026-04-19T15:12:56.85Z</time></trkpt><trkpt lat="45.4473046" lon="12.0798619"><ele>2.5</ele><time>2026-04-19T15:12:57.842Z</time></trkpt><trkpt lat="45.4473957" lon="12.0802835"><ele>3.0</ele><time>2026-04-19T15:12:58.853Z</time></trkpt><trkpt lat="45.4474901" lon="12.0806997"><ele>3.5</ele><time>2026-04-19T15:12:59.848Z</time></trkpt><trkpt lat="45.4475892" lon="12.0811111"><ele>4.0</ele><time>2026-04-19T15:13:00.841Z</time></trkpt><trkpt lat="45.4476902" lon="12.0815208"><ele>3.0</ele><time>2026-04-19T15:13:01.84Z</time></trkpt><trkpt lat="45.4477985" lon="12.0819256"><ele>2.0</ele><time>2026-04-19T15:13:02.847Z</time></trkpt><trkpt lat="45.4479147" lon="12.0823262"><ele>2.0</ele><time>2026-04-19T15:13:03.863Z</time></trkpt><trkpt lat="45.4480401" lon="12.0827216"><ele>2.0</ele><time>2026-04-19T15:13:04.843Z</time></trkpt><trkpt lat="45.4481617" lon="12.0831199"><ele>2.5</ele><time>2026-04-19T15:13:05.842Z</time></trkpt><trkpt lat="45.4482938" lon="12.0835121"><ele>3.0</ele><time>2026-04-19T15:13:06.843Z</time></trkpt><trkpt lat="45.4484268" lon="12.0839063"><ele>4.0</ele><time>2026-04-19T15:13:07.836Z</time></trkpt><trkpt lat="45.4485697" lon="12.0842958"><ele>5.0</ele><time>2026-04-19T15:13:08.846Z</time></trkpt><trkpt lat="45.4487187" lon="12.0846823"><ele>3.5</ele><time>2026-04-19T15:13:09.846Z</time></trkpt><trkpt lat="45.448871" lon="12.0850639"><ele>2.0</ele><time>2026-04-19T15:13:10.846Z</time></trkpt><trkpt lat="45.4490271" lon="12.0854372"><ele>2.0</ele><time>2026-04-19T15:13:11.836Z</time></trkpt><trkpt lat="45.4491994" lon="12.0857898"><ele>2.0</ele><time>2026-04-19T15:13:12.854Z</time></trkpt><trkpt lat="45.449358" lon="12.0861501"><ele>2.0</ele><time>2026-04-19T15:13:13.851Z</time></trkpt><trkpt lat="45.4495181" lon="12.0865065"><ele>2.0</ele><time>2026-04-19T15:13:14.849Z</time></trkpt><trkpt lat="45.449688" lon="12.0868556"><ele>2.5</ele><time>2026-04-19T15:13:15.838Z</time></trkpt><trkpt lat="45.4498624" lon="12.0872008"><ele>3.0</ele><time>2026-04-19T15:13:16.845Z</time></trkpt><trkpt lat="45.4500465" lon="12.087539"><ele>3.0</ele><time>2026-04-19T15:13:17.862Z</time></trkpt><trkpt lat="45.4502399" lon="12.0878717"><ele>3.0</ele><time>2026-04-19T15:13:18.845Z</time></trkpt><trkpt lat="45.4504356" lon="12.0882002"><ele>4.5</ele><time>2026-04-19T15:13:19.832Z</time></trkpt><trkpt lat="45.4506339" lon="12.0885221"><ele>6.0</ele><time>2026-04-19T15:13:20.854Z</time></trkpt><trkpt lat="45.4508366" lon="12.0888376"><ele>4.5</ele><time>2026-04-19T15:13:21.862Z</time></trkpt><trkpt lat="45.4510427" lon="12.0891466"><ele>3.0</ele><time>2026-04-19T15:13:22.833Z</time></trkpt><trkpt lat="45.4512535" lon="12.0894481"><ele>3.0</ele><time>2026-04-19T15:13:23.849Z</time></trkpt><trkpt lat="45.4514686" lon="12.0897439"><ele>3.0</ele><time>2026-04-19T15:13:24.84Z</time></trkpt><trkpt lat="45.4516878" lon="12.0900344"><ele>3.0</ele><time>2026-04-19T15:13:25.847Z</time></trkpt><trkpt lat="45.4519114" lon="12.0903187"><ele>3.0</ele><time>2026-04-19T15:13:26.845Z</time></trkpt><trkpt lat="45.4521394" lon="12.0905972"><ele>1.0</ele><time>2026-04-19T15:13:27.838Z</time></trkpt><trkpt lat="45.4523723" lon="12.0908684"><ele>-1.0</ele><time>2026-04-19T15:13:28.839Z</time></trkpt><trkpt lat="45.4526086" lon="12.0911337"><ele>-1.0</ele><time>2026-04-19T15:13:29.87Z</time></trkpt><trkpt lat="45.4528462" lon="12.0913933"><ele>-1.0</ele><time>2026-04-19T15:13:30.866Z</time></trkpt><trkpt lat="45.453087" lon="12.0916459"><ele>0.0</ele><time>2026-04-19T15:13:31.844Z</time></trkpt><trkpt lat="45.4533266" lon="12.0918955"><ele>1.0</ele><time>2026-04-19T15:13:32.839Z</time></trkpt><trkpt lat="45.4535695" lon="12.0921351"><ele>0.5</ele><time>2026-04-19T15:13:33.835Z</time></trkpt><trkpt lat="45.4538138" lon="12.0923683"><ele>0.0</ele><time>2026-04-19T15:13:34.856Z</time></trkpt><trkpt lat="45.4540613" lon="12.0925901"><ele>-0.5</ele><time>2026-04-19T15:13:35.855Z</time></trkpt><trkpt lat="45.4543128" lon="12.0928018"><ele>-1.0</ele><time>2026-04-19T15:13:36.838Z</time></trkpt><trkpt lat="45.454567" lon="12.0930075"><ele>0.0</ele><time>2026-04-19T15:13:37.836Z</time></trkpt><trkpt lat="45.4548279" lon="12.0932059"><ele>1.0</ele><time>2026-04-19T15:13:38.833Z</time></trkpt><trkpt lat="45.455092" lon="12.0934023"><ele>1.0</ele><time>2026-04-19T15:13:39.838Z</time></trkpt><trkpt lat="45.4553566" lon="12.0936017"><ele>1.0</ele><time>2026-04-19T15:13:40.84Z</time></trkpt><trkpt lat="45.455622" lon="12.093808"><ele>1.0</ele><time>2026-04-19T15:13:41.832Z</time></trkpt><trkpt lat="45.4558904" lon="12.0940171"><ele>1.0</ele><time>2026-04-19T15:13:42.841Z</time></trkpt><trkpt lat="45.4561607" lon="12.094224"><ele>1.5</ele><time>2026-04-19T15:13:43.844Z</time></trkpt><trkpt lat="45.4564308" lon="12.0944276"><ele>2.0</ele><time>2026-04-19T15:13:44.843Z</time></trkpt><trkpt lat="45.4567014" lon="12.0946257"><ele>2.0</ele><time>2026-04-19T15:13:45.841Z</time></trkpt><trkpt lat="45.4569747" lon="12.0948088"><ele>2.0</ele><time>2026-04-19T15:13:46.852Z</time></trkpt><trkpt lat="45.4588028" lon="12.0961926"><ele>2.0</ele><time>2026-04-19T15:13:53.861Z</time></trkpt><trkpt lat="45.4590505" lon="12.0964359"><ele>2.0</ele><time>2026-04-19T15:13:54.848Z</time></trkpt><trkpt lat="45.4593148" lon="12.096651"><ele>2.0</ele><time>2026-04-19T15:13:55.865Z</time></trkpt><trkpt lat="45.4595719" lon="12.0968093"><ele>2.0</ele><time>2026-04-19T15:13:56.849Z</time></trkpt><trkpt lat="45.459866" lon="12.0970016"><ele>2.0</ele><time>2026-04-19T15:13:57.842Z</time></trkpt><trkpt lat="45.4601471" lon="12.0971921"><ele>2.0</ele><time>2026-04-19T15:13:58.837Z</time></trkpt><trkpt lat="45.4604206" lon="12.0973838"><ele>1.0</ele><time>2026-04-19T15:13:59.857Z</time></trkpt><trkpt lat="45.4606918" lon="12.0975681"><ele>0.0</ele><time>2026-04-19T15:14:00.852Z</time></trkpt><trkpt lat="45.4609611" lon="12.0977592"><ele>0.0</ele><time>2026-04-19T15:14:01.839Z</time></trkpt><trkpt lat="45.4612325" lon="12.0979513"><ele>0.0</ele><time>2026-04-19T15:14:02.841Z</time></trkpt><trkpt lat="45.461502" lon="12.0981475"><ele>0.0</ele><time>2026-04-19T15:14:03.847Z</time></trkpt><trkpt lat="45.461771" lon="12.0983422"><ele>0.0</ele><time>2026-04-19T15:14:04.851Z</time></trkpt><trkpt lat="45.4620399" lon="12.0985332"><ele>0.0</ele><time>2026-04-19T15:14:05.861Z</time></trkpt><trkpt lat="45.4623102" lon="12.0987188"><ele>0.0</ele><time>2026-04-19T15:14:06.851Z</time></trkpt><trkpt lat="45.462577" lon="12.0989102"><ele>0.0</ele><time>2026-04-19T15:14:07.847Z</time></trkpt><trkpt lat="45.4628417" lon="12.0991064"><ele>0.0</ele><time>2026-04-19T15:14:08.855Z</time></trkpt><trkpt lat="45.4631068" lon="12.0993043"><ele>0.0</ele><time>2026-04-19T15:14:09.849Z</time></trkpt><trkpt lat="45.4633734" lon="12.099503"><ele>0.0</ele><time>2026-04-19T15:14:10.84Z</time></trkpt><trkpt lat="45.4636423" lon="12.0997022"><ele>0.5</ele><time>2026-04-19T15:14:11.846Z</time></trkpt><trkpt lat="45.4639118" lon="12.0999041"><ele>1.0</ele><time>2026-04-19T15:14:12.844Z</time></trkpt><trkpt lat="45.4641846" lon="12.100101"><ele>1.0</ele><time>2026-04-19T15:14:13.837Z</time></trkpt><trkpt lat="45.4644594" lon="12.1002988"><ele>1.0</ele><time>2026-04-19T15:14:14.832Z</time></trkpt><trkpt lat="45.4647342" lon="12.1005015"><ele>1.0</ele><time>2026-04-19T15:14:15.841Z</time></trkpt><trkpt lat="45.4650085" lon="12.1007035"><ele>1.0</ele><time>2026-04-19T15:14:16.842Z</time></trkpt><trkpt lat="45.4652825" lon="12.1009042"><ele>1.0</ele><time>2026-04-19T15:14:17.843Z</time></trkpt><trkpt lat="45.4655575" lon="12.1011029"><ele>1.0</ele><time>2026-04-19T15:14:18.852Z</time></trkpt><trkpt lat="45.4658329" lon="12.1013051"><ele>1.0</ele><time>2026-04-19T15:14:19.854Z</time></trkpt><trkpt lat="45.4661094" lon="12.1015101"><ele>1.0</ele><time>2026-04-19T15:14:20.861Z</time></trkpt><trkpt lat="45.466385" lon="12.1017175"><ele>1.0</ele><time>2026-04-19T15:14:21.858Z</time></trkpt><trkpt lat="45.46666" lon="12.1019273"><ele>1.0</ele><time>2026-04-19T15:14:22.84Z</time></trkpt><trkpt lat="45.4669338" lon="12.1021395"><ele>1.0</ele><time>2026-04-19T15:14:23.85Z</time></trkpt><trkpt lat="45.4672055" lon="12.1023554"><ele>1.0</ele><time>2026-04-19T15:14:24.855Z</time></trkpt><trkpt lat="45.4674738" lon="12.1025782"><ele>1.0</ele><time>2026-04-19T15:14:25.871Z</time></trkpt><trkpt lat="45.4677449" lon="12.1027939"><ele>1.0</ele><time>2026-04-19T15:14:26.833Z</time></trkpt><trkpt lat="45.4680121" lon="12.1030234"><ele>1.0</ele><time>2026-04-19T15:14:27.835Z</time></trkpt><trkpt lat="45.4682775" lon="12.10326"><ele>1.0</ele><time>2026-04-19T15:14:28.848Z</time></trkpt><trkpt lat="45.4695845" lon="12.104453"><ele>1.0</ele><time>2026-04-19T15:14:33.842Z</time></trkpt><trkpt lat="45.4698081" lon="12.1048422"><ele>1.0</ele><time>2026-04-19T15:14:34.854Z</time></trkpt><trkpt lat="45.4700043" lon="12.1051753"><ele>1.0</ele><time>2026-04-19T15:14:35.847Z</time></trkpt><trkpt lat="45.4701776" lon="12.1054765"><ele>1.0</ele><time>2026-04-19T15:14:36.838Z</time></trkpt><trkpt lat="45.4703791" lon="12.1057532"><ele>1.5</ele><time>2026-04-19T15:14:37.846Z</time></trkpt><trkpt lat="45.4705767" lon="12.1060601"><ele>2.0</ele><time>2026-04-19T15:14:38.836Z</time></trkpt><trkpt lat="45.4707683" lon="12.1063778"><ele>2.0</ele><time>2026-04-19T15:14:39.836Z</time></trkpt><trkpt lat="45.4709593" lon="12.1066958"><ele>2.0</ele><time>2026-04-19T15:14:40.852Z</time></trkpt><trkpt lat="45.4711407" lon="12.1070278"><ele>2.0</ele><time>2026-04-19T15:14:41.856Z</time></trkpt><trkpt lat="45.4713195" lon="12.1073678"><ele>2.0</ele><time>2026-04-19T15:14:42.856Z</time></trkpt><trkpt lat="45.4714948" lon="12.1077147"><ele>2.0</ele><time>2026-04-19T15:14:43.836Z</time></trkpt><trkpt lat="45.4716652" lon="12.1080654"><ele>2.0</ele><time>2026-04-19T15:14:44.85Z</time></trkpt><trkpt lat="45.4718259" lon="12.1084221"><ele>2.5</ele><time>2026-04-19T15:14:45.861Z</time></trkpt><trkpt lat="45.4719796" lon="12.1087799"><ele>3.0</ele><time>2026-04-19T15:14:46.84Z</time></trkpt><trkpt lat="45.4721294" lon="12.1091413"><ele>3.5</ele><time>2026-04-19T15:14:47.861Z</time></trkpt><trkpt lat="45.4722757" lon="12.1095091"><ele>4.0</ele><time>2026-04-19T15:14:48.837Z</time></trkpt><trkpt lat="45.4724188" lon="12.1098824"><ele>3.5</ele><time>2026-04-19T15:14:49.84Z</time></trkpt><trkpt lat="45.4725586" lon="12.1102609"><ele>3.0</ele><time>2026-04-19T15:14:50.834Z</time></trkpt><trkpt lat="45.4726858" lon="12.1106497"><ele>2.5</ele><time>2026-04-19T15:14:51.852Z</time></trkpt><trkpt lat="45.4728028" lon="12.1110436"><ele>2.0</ele><time>2026-04-19T15:14:52.852Z</time></trkpt><trkpt lat="45.4729177" lon="12.1114373"><ele>1.0</ele><time>2026-04-19T15:14:53.838Z</time></trkpt><trkpt lat="45.473029" lon="12.1118329"><ele>0.0</ele><time>2026-04-19T15:14:54.861Z</time></trkpt><trkpt lat="45.4731368" lon="12.1122297"><ele>0.5</ele><time>2026-04-19T15:14:55.845Z</time></trkpt><trkpt lat="45.4732404" lon="12.1126276"><ele>1.0</ele><time>2026-04-19T15:14:56.842Z</time></trkpt><trkpt lat="45.4733395" lon="12.1130273"><ele>0.0</ele><time>2026-04-19T15:14:57.83Z</time></trkpt><trkpt lat="45.4734387" lon="12.1134269"><ele>-1.0</ele><time>2026-04-19T15:14:58.848Z</time></trkpt><trkpt lat="45.4735363" lon="12.1138257"><ele>-0.5</ele><time>2026-04-19T15:14:59.854Z</time></trkpt><trkpt lat="45.4736332" lon="12.1142238"><ele>0.0</ele><time>2026-04-19T15:15:00.833Z</time></trkpt><trkpt lat="45.4737319" lon="12.1146247"><ele>-0.5</ele><time>2026-04-19T15:15:01.834Z</time></trkpt><trkpt lat="45.4738346" lon="12.1150431"><ele>-1.0</ele><time>2026-04-19T15:15:02.84Z</time></trkpt><trkpt lat="45.473944" lon="12.1154856"><ele>-1.0</ele><time>2026-04-19T15:15:03.849Z</time></trkpt><trkpt lat="45.4740515" lon="12.1159358"><ele>-1.0</ele><time>2026-04-19T15:15:04.865Z</time></trkpt><trkpt lat="45.474154" lon="12.116375"><ele>-0.5</ele><time>2026-04-19T15:15:05.839Z</time></trkpt><trkpt lat="45.4742529" lon="12.1168038"><ele>0.0</ele><time>2026-04-19T15:15:06.853Z</time></trkpt><trkpt lat="45.4743512" lon="12.1172268"><ele>0.0</ele><time>2026-04-19T15:15:07.859Z</time></trkpt><trkpt lat="45.4744456" lon="12.1176484"><ele>0.0</ele><time>2026-04-19T15:15:08.848Z</time></trkpt><trkpt lat="45.474537" lon="12.118071"><ele>-0.5</ele><time>2026-04-19T15:15:09.864Z</time></trkpt><trkpt lat="45.4746253" lon="12.1184931"><ele>-1.0</ele><time>2026-04-19T15:15:10.847Z</time></trkpt><trkpt lat="45.4747164" lon="12.1189115"><ele>-1.0</ele><time>2026-04-19T15:15:11.863Z</time></trkpt><trkpt lat="45.4748088" lon="12.1193246"><ele>-1.0</ele><time>2026-04-19T15:15:12.849Z</time></trkpt><trkpt lat="45.4749067" lon="12.1197305"><ele>-0.5</ele><time>2026-04-19T15:15:13.847Z</time></trkpt><trkpt lat="45.4750024" lon="12.1201335"><ele>0.0</ele><time>2026-04-19T15:15:14.841Z</time></trkpt><trkpt lat="45.4750952" lon="12.1205353"><ele>-0.5</ele><time>2026-04-19T15:15:15.844Z</time></trkpt><trkpt lat="45.475186" lon="12.120936"><ele>-1.0</ele><time>2026-04-19T15:15:16.877Z</time></trkpt><trkpt lat="45.4752766" lon="12.1213357"><ele>-1.5</ele><time>2026-04-19T15:15:17.854Z</time></trkpt><trkpt lat="45.4753665" lon="12.1217357"><ele>-2.0</ele><time>2026-04-19T15:15:18.87Z</time></trkpt><trkpt lat="45.4754576" lon="12.1221346"><ele>-1.0</ele><time>2026-04-19T15:15:19.85Z</time></trkpt><trkpt lat="45.4755555" lon="12.1225324"><ele>0.0</ele><time>2026-04-19T15:15:20.846Z</time></trkpt><trkpt lat="45.4756598" lon="12.1229292"><ele>-0.5</ele><time>2026-04-19T15:15:21.86Z</time></trkpt><trkpt lat="45.475769" lon="12.1233252"><ele>-1.0</ele><time>2026-04-19T15:15:22.847Z</time></trkpt><trkpt lat="45.4758858" lon="12.1237203"><ele>0.0</ele><time>2026-04-19T15:15:23.851Z</time></trkpt><trkpt lat="45.4760052" lon="12.1241163"><ele>1.0</ele><time>2026-04-19T15:15:24.872Z</time></trkpt><trkpt lat="45.4761336" lon="12.1245077"><ele>1.0</ele><time>2026-04-19T15:15:25.834Z</time></trkpt><trkpt lat="45.4762648" lon="12.1248991"><ele>1.0</ele><time>2026-04-19T15:15:26.85Z</time></trkpt><trkpt lat="45.4764126" lon="12.1252805"><ele>0.5</ele><time>2026-04-19T15:15:27.859Z</time></trkpt><trkpt lat="45.4765642" lon="12.1256615"><ele>0.0</ele><time>2026-04-19T15:15:28.839Z</time></trkpt><trkpt lat="45.4767236" lon="12.1260394"><ele>0.0</ele><time>2026-04-19T15:15:29.856Z</time></trkpt><trkpt lat="45.4768889" lon="12.1264133"><ele>0.0</ele><time>2026-04-19T15:15:30.851Z</time></trkpt><trkpt lat="45.4770601" lon="12.126782"><ele>0.5</ele><time>2026-04-19T15:15:31.84Z</time></trkpt><trkpt lat="45.4772347" lon="12.1271455"><ele>1.0</ele><time>2026-04-19T15:15:32.85Z</time></trkpt><trkpt lat="45.4774129" lon="12.1275027"><ele>1.0</ele><time>2026-04-19T15:15:33.853Z</time></trkpt><trkpt lat="45.4776005" lon="12.1278488"><ele>1.0</ele><time>2026-04-19T15:15:34.837Z</time></trkpt><trkpt lat="45.4777951" lon="12.1281869"><ele>1.0</ele><time>2026-04-19T15:15:35.837Z</time></trkpt><trkpt lat="45.4779985" lon="12.1285168"><ele>1.0</ele><time>2026-04-19T15:15:36.839Z</time></trkpt><trkpt lat="45.4782064" lon="12.1288394"><ele>0.5</ele><time>2026-04-19T15:15:37.858Z</time></trkpt><trkpt lat="45.4784175" lon="12.1291544"><ele>0.0</ele><time>2026-04-19T15:15:38.845Z</time></trkpt><trkpt lat="45.478634" lon="12.12946"><ele>1.0</ele><time>2026-04-19T15:15:39.838Z</time></trkpt><trkpt lat="45.4788547" lon="12.1297599"><ele>2.0</ele><time>2026-04-19T15:15:40.859Z</time></trkpt><trkpt lat="45.4790809" lon="12.1300541"><ele>2.5</ele><time>2026-04-19T15:15:41.846Z</time></trkpt><trkpt lat="45.4793145" lon="12.1303382"><ele>3.0</ele><time>2026-04-19T15:15:42.85Z</time></trkpt><trkpt lat="45.4795585" lon="12.1306057"><ele>3.5</ele><time>2026-04-19T15:15:43.867Z</time></trkpt><trkpt lat="45.479803" lon="12.1308698"><ele>4.0</ele><time>2026-04-19T15:15:44.868Z</time></trkpt><trkpt lat="45.4800499" lon="12.1311242"><ele>4.0</ele><time>2026-04-19T15:15:45.847Z</time></trkpt><trkpt lat="45.4802976" lon="12.1313716"><ele>4.0</ele><time>2026-04-19T15:15:46.837Z</time></trkpt><trkpt lat="45.4805487" lon="12.1316079"><ele>3.0</ele><time>2026-04-19T15:15:47.85Z</time></trkpt><trkpt lat="45.4808054" lon="12.1318323"><ele>2.0</ele><time>2026-04-19T15:15:48.848Z</time></trkpt><trkpt lat="45.4810647" lon="12.1320488"><ele>2.0</ele><time>2026-04-19T15:15:49.843Z</time></trkpt><trkpt lat="45.4813289" lon="12.1322521"><ele>2.0</ele><time>2026-04-19T15:15:50.846Z</time></trkpt><trkpt lat="45.481594" lon="12.1324503"><ele>1.5</ele><time>2026-04-19T15:15:51.845Z</time></trkpt><trkpt lat="45.4818621" lon="12.1326398"><ele>1.0</ele><time>2026-04-19T15:15:52.841Z</time></trkpt><trkpt lat="45.4821309" lon="12.1328218"><ele>2.0</ele><time>2026-04-19T15:15:53.863Z</time></trkpt><trkpt lat="45.4824012" lon="12.1329994"><ele>3.0</ele><time>2026-04-19T15:15:54.841Z</time></trkpt><trkpt lat="45.4826741" lon="12.1331741"><ele>1.5</ele><time>2026-04-19T15:15:55.85Z</time></trkpt><trkpt lat="45.4829483" lon="12.1333508"><ele>0.0</ele><time>2026-04-19T15:15:56.865Z</time></trkpt><trkpt lat="45.4832265" lon="12.1335218"><ele>0.0</ele><time>2026-04-19T15:15:57.847Z</time></trkpt><trkpt lat="45.4835098" lon="12.1336829"><ele>0.0</ele><time>2026-04-19T15:15:58.866Z</time></trkpt><trkpt lat="45.4837979" lon="12.133843"><ele>0.5</ele><time>2026-04-19T15:15:59.848Z</time></trkpt><trkpt lat="45.4840895" lon="12.1340098"><ele>1.0</ele><time>2026-04-19T15:16:00.848Z</time></trkpt><trkpt lat="45.484381" lon="12.1341931"><ele>1.0</ele><time>2026-04-19T15:16:01.849Z</time></trkpt><trkpt lat="45.4846654" lon="12.1343816"><ele>1.0</ele><time>2026-04-19T15:16:02.844Z</time></trkpt><trkpt lat="45.4849421" lon="12.1345676"><ele>1.0</ele><time>2026-04-19T15:16:03.854Z</time></trkpt><trkpt lat="45.4852196" lon="12.1347422"><ele>1.0</ele><time>2026-04-19T15:16:04.845Z</time></trkpt><trkpt lat="45.4854959" lon="12.134911"><ele>1.0</ele><time>2026-04-19T15:16:05.845Z</time></trkpt><trkpt lat="45.485768" lon="12.1350747"><ele>1.0</ele><time>2026-04-19T15:16:06.851Z</time></trkpt><trkpt lat="45.4860362" lon="12.1352396"><ele>1.5</ele><time>2026-04-19T15:16:07.86Z</time></trkpt><trkpt lat="45.486304" lon="12.1354078"><ele>2.0</ele><time>2026-04-19T15:16:08.86Z</time></trkpt><trkpt lat="45.486575" lon="12.1355771"><ele>1.5</ele><time>2026-04-19T15:16:09.855Z</time></trkpt><trkpt lat="45.4868486" lon="12.135751"><ele>1.0</ele><time>2026-04-19T15:16:10.841Z</time></trkpt><trkpt lat="45.4871262" lon="12.1359208"><ele>1.0</ele><time>2026-04-19T15:16:11.875Z</time></trkpt><trkpt lat="45.4874048" lon="12.136087"><ele>1.0</ele><time>2026-04-19T15:16:12.834Z</time></trkpt><trkpt lat="45.4876819" lon="12.1362578"><ele>1.0</ele><time>2026-04-19T15:16:13.838Z</time></trkpt><trkpt lat="45.4879601" lon="12.136427"><ele>1.0</ele><time>2026-04-19T15:16:14.84Z</time></trkpt><trkpt lat="45.4882368" lon="12.136597"><ele>1.0</ele><time>2026-04-19T15:16:15.844Z</time></trkpt><trkpt lat="45.4885116" lon="12.1367682"><ele>1.0</ele><time>2026-04-19T15:16:16.84Z</time></trkpt><trkpt lat="45.4887856" lon="12.1369323"><ele>2.5</ele><time>2026-04-19T15:16:17.839Z</time></trkpt><trkpt lat="45.4890578" lon="12.1370943"><ele>4.0</ele><time>2026-04-19T15:16:18.84Z</time></trkpt><trkpt lat="45.4893296" lon="12.1372524"><ele>2.5</ele><time>2026-04-19T15:16:19.837Z</time></trkpt><trkpt lat="45.4896012" lon="12.1374061"><ele>1.0</ele><time>2026-04-19T15:16:20.835Z</time></trkpt><trkpt lat="45.4898753" lon="12.1375495"><ele>1.0</ele><time>2026-04-19T15:16:21.839Z</time></trkpt><trkpt lat="45.4901522" lon="12.1376883"><ele>1.0</ele><time>2026-04-19T15:16:22.843Z</time></trkpt><trkpt lat="45.4904322" lon="12.1378183"><ele>1.0</ele><time>2026-04-19T15:16:23.844Z</time></trkpt><trkpt lat="45.4907133" lon="12.1379452"><ele>1.0</ele><time>2026-04-19T15:16:24.833Z</time></trkpt><trkpt lat="45.490997" lon="12.1380673"><ele>2.0</ele><time>2026-04-19T15:16:25.837Z</time></trkpt><trkpt lat="45.4912842" lon="12.1381863"><ele>3.0</ele><time>2026-04-19T15:16:26.831Z</time></trkpt><trkpt lat="45.4915755" lon="12.138297"><ele>3.0</ele><time>2026-04-19T15:16:27.832Z</time></trkpt><trkpt lat="45.4918684" lon="12.1384028"><ele>3.0</ele><time>2026-04-19T15:16:28.837Z</time></trkpt><trkpt lat="45.4921623" lon="12.1385072"><ele>3.5</ele><time>2026-04-19T15:16:29.833Z</time></trkpt><trkpt lat="45.4924566" lon="12.1386113"><ele>4.0</ele><time>2026-04-19T15:16:30.834Z</time></trkpt><trkpt lat="45.4927554" lon="12.1386985"><ele>3.0</ele><time>2026-04-19T15:16:31.855Z</time></trkpt><trkpt lat="45.4930571" lon="12.1387783"><ele>2.0</ele><time>2026-04-19T15:16:32.844Z</time></trkpt><trkpt lat="45.4933593" lon="12.1388473"><ele>2.0</ele><time>2026-04-19T15:16:33.857Z</time></trkpt><trkpt lat="45.4936698" lon="12.1388871"><ele>2.0</ele><time>2026-04-19T15:16:34.858Z</time></trkpt><trkpt lat="45.4957406" lon="12.139249"><ele>3.5</ele><time>2026-04-19T15:16:41.836Z</time></trkpt><trkpt lat="45.4960512" lon="12.1392598"><ele>5.0</ele><time>2026-04-19T15:16:42.847Z</time></trkpt><trkpt lat="45.4963438" lon="12.1392555"><ele>5.0</ele><time>2026-04-19T15:16:43.85Z</time></trkpt><trkpt lat="45.4966618" lon="12.1392209"><ele>5.0</ele><time>2026-04-19T15:16:44.838Z</time></trkpt><trkpt lat="45.4969948" lon="12.1392201"><ele>4.0</ele><time>2026-04-19T15:16:45.84Z</time></trkpt><trkpt lat="45.4973133" lon="12.1391941"><ele>3.0</ele><time>2026-04-19T15:16:46.834Z</time></trkpt><trkpt lat="45.4976246" lon="12.1391745"><ele>3.5</ele><time>2026-04-19T15:16:47.829Z</time></trkpt><trkpt lat="45.4979251" lon="12.1391637"><ele>4.0</ele><time>2026-04-19T15:16:48.843Z</time></trkpt><trkpt lat="45.4982229" lon="12.1391297"><ele>4.0</ele><time>2026-04-19T15:16:49.841Z</time></trkpt><trkpt lat="45.4985146" lon="12.1391068"><ele>4.0</ele><time>2026-04-19T15:16:50.852Z</time></trkpt><trkpt lat="45.4988098" lon="12.139068"><ele>3.5</ele><time>2026-04-19T15:16:51.85Z</time></trkpt><trkpt lat="45.4991048" lon="12.1390383"><ele>3.0</ele><time>2026-04-19T15:16:52.84Z</time></trkpt><trkpt lat="45.4993995" lon="12.1390097"><ele>4.5</ele><time>2026-04-19T15:16:53.866Z</time></trkpt><trkpt lat="45.4996914" lon="12.1389851"><ele>6.0</ele><time>2026-04-19T15:16:54.861Z</time></trkpt><trkpt lat="45.4999823" lon="12.1389618"><ele>6.0</ele><time>2026-04-19T15:16:55.844Z</time></trkpt><trkpt lat="45.5002733" lon="12.1389405"><ele>6.0</ele><time>2026-04-19T15:16:56.848Z</time></trkpt><trkpt lat="45.5005658" lon="12.1389265"><ele>5.5</ele><time>2026-04-19T15:16:57.854Z</time></trkpt><trkpt lat="45.5008607" lon="12.138923"><ele>5.0</ele><time>2026-04-19T15:16:58.856Z</time></trkpt><trkpt lat="45.5011559" lon="12.1389288"><ele>3.5</ele><time>2026-04-19T15:16:59.865Z</time></trkpt><trkpt lat="45.5014518" lon="12.1389464"><ele>2.0</ele><time>2026-04-19T15:17:00.844Z</time></trkpt><trkpt lat="45.5017485" lon="12.138974"><ele>2.0</ele><time>2026-04-19T15:17:01.856Z</time></trkpt><trkpt lat="45.5020453" lon="12.1390086"><ele>2.0</ele><time>2026-04-19T15:17:02.84Z</time></trkpt><trkpt lat="45.5023436" lon="12.1390506"><ele>3.0</ele><time>2026-04-19T15:17:03.844Z</time></trkpt><trkpt lat="45.5026426" lon="12.1391012"><ele>4.0</ele><time>2026-04-19T15:17:04.853Z</time></trkpt><trkpt lat="45.5029417" lon="12.1391568"><ele>4.5</ele><time>2026-04-19T15:17:05.857Z</time></trkpt><trkpt lat="45.5032425" lon="12.1392207"><ele>5.0</ele><time>2026-04-19T15:17:06.842Z</time></trkpt><trkpt lat="45.5035448" lon="12.139289"><ele>3.5</ele><time>2026-04-19T15:17:07.862Z</time></trkpt><trkpt lat="45.5038478" lon="12.1393581"><ele>2.0</ele><time>2026-04-19T15:17:08.829Z</time></trkpt><trkpt lat="45.5041522" lon="12.1394172"><ele>2.0</ele><time>2026-04-19T15:17:09.848Z</time></trkpt><trkpt lat="45.5044555" lon="12.1394776"><ele>2.0</ele><time>2026-04-19T15:17:10.84Z</time></trkpt><trkpt lat="45.5047586" lon="12.1395326"><ele>2.0</ele><time>2026-04-19T15:17:11.845Z</time></trkpt><trkpt lat="45.5050606" lon="12.1395869"><ele>2.0</ele><time>2026-04-19T15:17:12.837Z</time></trkpt><trkpt lat="45.5053622" lon="12.1396379"><ele>1.0</ele><time>2026-04-19T15:17:13.841Z</time></trkpt><trkpt lat="45.5056646" lon="12.1396839"><ele>0.0</ele><time>2026-04-19T15:17:14.841Z</time></trkpt><trkpt lat="45.5059678" lon="12.1397182"><ele>1.0</ele><time>2026-04-19T15:17:15.864Z</time></trkpt><trkpt lat="45.5062715" lon="12.13975"><ele>2.0</ele><time>2026-04-19T15:17:16.853Z</time></trkpt><trkpt lat="45.5065755" lon="12.1397732"><ele>2.0</ele><time>2026-04-19T15:17:17.846Z</time></trkpt><trkpt lat="45.5068791" lon="12.1397881"><ele>2.0</ele><time>2026-04-19T15:17:18.838Z</time></trkpt><trkpt lat="45.5071844" lon="12.1397862"><ele>2.5</ele><time>2026-04-19T15:17:19.863Z</time></trkpt><trkpt lat="45.5074905" lon="12.1397821"><ele>3.0</ele><time>2026-04-19T15:17:20.854Z</time></trkpt><trkpt lat="45.5077979" lon="12.1397766"><ele>2.5</ele><time>2026-04-19T15:17:21.867Z</time></trkpt><trkpt lat="45.5081052" lon="12.1397671"><ele>2.0</ele><time>2026-04-19T15:17:22.847Z</time></trkpt><trkpt lat="45.5084112" lon="12.139762"><ele>2.0</ele><time>2026-04-19T15:17:23.849Z</time></trkpt><trkpt lat="45.508717" lon="12.1397511"><ele>2.0</ele><time>2026-04-19T15:17:24.838Z</time></trkpt><trkpt lat="45.5090228" lon="12.1397396"><ele>3.0</ele><time>2026-04-19T15:17:25.839Z</time></trkpt><trkpt lat="45.5093279" lon="12.1397265"><ele>4.0</ele><time>2026-04-19T15:17:26.846Z</time></trkpt><trkpt lat="45.5096316" lon="12.1397116"><ele>4.5</ele><time>2026-04-19T15:17:27.838Z</time></trkpt><trkpt lat="45.5099344" lon="12.1396932"><ele>5.0</ele><time>2026-04-19T15:17:28.842Z</time></trkpt><trkpt lat="45.5102371" lon="12.1396763"><ele>5.0</ele><time>2026-04-19T15:17:29.848Z</time></trkpt><trkpt lat="45.5105399" lon="12.1396592"><ele>5.0</ele><time>2026-04-19T15:17:30.853Z</time></trkpt><trkpt lat="45.5108437" lon="12.1396445"><ele>5.0</ele><time>2026-04-19T15:17:31.841Z</time></trkpt><trkpt lat="45.511149" lon="12.1396365"><ele>5.0</ele><time>2026-04-19T15:17:32.878Z</time></trkpt><trkpt lat="45.5114547" lon="12.1396383"><ele>5.0</ele><time>2026-04-19T15:17:33.845Z</time></trkpt><trkpt lat="45.5117606" lon="12.139649"><ele>5.0</ele><time>2026-04-19T15:17:34.834Z</time></trkpt><trkpt lat="45.512066" lon="12.1396645"><ele>5.0</ele><time>2026-04-19T15:17:35.84Z</time></trkpt><trkpt lat="45.5123708" lon="12.1396865"><ele>5.0</ele><time>2026-04-19T15:17:36.836Z</time></trkpt><trkpt lat="45.5126764" lon="12.139717"><ele>5.0</ele><time>2026-04-19T15:17:37.857Z</time></trkpt><trkpt lat="45.5129817" lon="12.1397573"><ele>5.0</ele><time>2026-04-19T15:17:38.86Z</time></trkpt><trkpt lat="45.5132848" lon="12.1398019"><ele>5.0</ele><time>2026-04-19T15:17:39.849Z</time></trkpt><trkpt lat="45.5135861" lon="12.1398477"><ele>5.0</ele><time>2026-04-19T15:17:40.852Z</time></trkpt><trkpt lat="45.5138866" lon="12.1398902"><ele>5.0</ele><time>2026-04-19T15:17:41.849Z</time></trkpt><trkpt lat="45.5141826" lon="12.1399562"><ele>5.0</ele><time>2026-04-19T15:17:42.842Z</time></trkpt><trkpt lat="45.5144775" lon="12.1400141"><ele>5.0</ele><time>2026-04-19T15:17:43.843Z</time></trkpt><trkpt lat="45.5147728" lon="12.140069"><ele>5.0</ele><time>2026-04-19T15:17:44.855Z</time></trkpt><trkpt lat="45.5150684" lon="12.1401226"><ele>5.0</ele><time>2026-04-19T15:17:45.847Z</time></trkpt><trkpt lat="45.5153665" lon="12.1401587"><ele>5.0</ele><time>2026-04-19T15:17:46.851Z</time></trkpt><trkpt lat="45.5156632" lon="12.1402188"><ele>5.0</ele><time>2026-04-19T15:17:47.84Z</time></trkpt><trkpt lat="45.5159619" lon="12.1402686"><ele>5.0</ele><time>2026-04-19T15:17:48.842Z</time></trkpt><trkpt lat="45.5162619" lon="12.1403045"><ele>5.5</ele><time>2026-04-19T15:17:49.85Z</time></trkpt><trkpt lat="45.5165588" lon="12.1403606"><ele>6.0</ele><time>2026-04-19T15:17:50.845Z</time></trkpt><trkpt lat="45.5168567" lon="12.1404011"><ele>5.0</ele><time>2026-04-19T15:17:51.854Z</time></trkpt><trkpt lat="45.5171549" lon="12.1404302"><ele>4.0</ele><time>2026-04-19T15:17:52.868Z</time></trkpt><trkpt lat="45.5174525" lon="12.1404537"><ele>4.0</ele><time>2026-04-19T15:17:53.841Z</time></trkpt><trkpt lat="45.5177512" lon="12.1404695"><ele>4.0</ele><time>2026-04-19T15:17:54.866Z</time></trkpt><trkpt lat="45.5180508" lon="12.1404791"><ele>5.0</ele><time>2026-04-19T15:17:55.839Z</time></trkpt><trkpt lat="45.518349" lon="12.1404801"><ele>6.0</ele><time>2026-04-19T15:17:56.842Z</time></trkpt><trkpt lat="45.5186472" lon="12.1404685"><ele>5.5</ele><time>2026-04-19T15:17:57.84Z</time></trkpt><trkpt lat="45.5189431" lon="12.1404509"><ele>5.0</ele><time>2026-04-19T15:17:58.87Z</time></trkpt><trkpt lat="45.5192387" lon="12.140427"><ele>5.0</ele><time>2026-04-19T15:17:59.871Z</time></trkpt><trkpt lat="45.519535" lon="12.1403972"><ele>5.0</ele><time>2026-04-19T15:18:00.861Z</time></trkpt><trkpt lat="45.5198315" lon="12.1403613"><ele>5.0</ele><time>2026-04-19T15:18:01.857Z</time></trkpt><trkpt lat="45.5201277" lon="12.1403163"><ele>5.0</ele><time>2026-04-19T15:18:02.842Z</time></trkpt><trkpt lat="45.5204252" lon="12.140269"><ele>5.0</ele><time>2026-04-19T15:18:03.867Z</time></trkpt><trkpt lat="45.5207231" lon="12.140217"><ele>5.0</ele><time>2026-04-19T15:18:04.853Z</time></trkpt><trkpt lat="45.5210219" lon="12.1401589"><ele>5.5</ele><time>2026-04-19T15:18:05.841Z</time></trkpt><trkpt lat="45.5213226" lon="12.1401123"><ele>6.0</ele><time>2026-04-19T15:18:06.845Z</time></trkpt><trkpt lat="45.5216204" lon="12.1400623"><ele>6.0</ele><time>2026-04-19T15:18:07.839Z</time></trkpt><trkpt lat="45.521915" lon="12.1400114"><ele>6.0</ele><time>2026-04-19T15:18:08.857Z</time></trkpt><trkpt lat="45.5222069" lon="12.1399614"><ele>6.0</ele><time>2026-04-19T15:18:09.846Z</time></trkpt><trkpt lat="45.5224978" lon="12.1399172"><ele>6.0</ele><time>2026-04-19T15:18:10.864Z</time></trkpt><trkpt lat="45.5227884" lon="12.1398765"><ele>6.5</ele><time>2026-04-19T15:18:11.846Z</time></trkpt><trkpt lat="45.5230802" lon="12.1398408"><ele>7.0</ele><time>2026-04-19T15:18:12.86Z</time></trkpt><trkpt lat="45.523373" lon="12.1398187"><ele>7.0</ele><time>2026-04-19T15:18:13.851Z</time></trkpt><trkpt lat="45.5236663" lon="12.1398074"><ele>7.0</ele><time>2026-04-19T15:18:14.846Z</time></trkpt><trkpt lat="45.5239611" lon="12.1398068"><ele>6.0</ele><time>2026-04-19T15:18:15.856Z</time></trkpt><trkpt lat="45.5242578" lon="12.1398124"><ele>5.0</ele><time>2026-04-19T15:18:16.843Z</time></trkpt><trkpt lat="45.5245565" lon="12.1398276"><ele>5.0</ele><time>2026-04-19T15:18:17.858Z</time></trkpt><trkpt lat="45.5248559" lon="12.1398534"><ele>5.0</ele><time>2026-04-19T15:18:18.843Z</time></trkpt><trkpt lat="45.5251544" lon="12.1398868"><ele>6.0</ele><time>2026-04-19T15:18:19.838Z</time></trkpt><trkpt lat="45.5254515" lon="12.1399306"><ele>7.0</ele><time>2026-04-19T15:18:20.843Z</time></trkpt><trkpt lat="45.525747" lon="12.1399574"><ele>7.0</ele><time>2026-04-19T15:18:21.844Z</time></trkpt><trkpt lat="45.526041" lon="12.1400187"><ele>7.0</ele><time>2026-04-19T15:18:22.886Z</time></trkpt><trkpt lat="45.5263343" lon="12.1401127"><ele>7.0</ele><time>2026-04-19T15:18:23.842Z</time></trkpt><trkpt lat="45.5266284" lon="12.1402027"><ele>7.0</ele><time>2026-04-19T15:18:24.886Z</time></trkpt><trkpt lat="45.526922" lon="12.1403004"><ele>7.0</ele><time>2026-04-19T15:18:25.835Z</time></trkpt><trkpt lat="45.5272169" lon="12.1403979"><ele>7.0</ele><time>2026-04-19T15:18:26.836Z</time></trkpt><trkpt lat="45.5275119" lon="12.1404994"><ele>7.0</ele><time>2026-04-19T15:18:27.841Z</time></trkpt><trkpt lat="45.5278074" lon="12.1406094"><ele>7.0</ele><time>2026-04-19T15:18:28.834Z</time></trkpt><trkpt lat="45.5281021" lon="12.1407243"><ele>7.0</ele><time>2026-04-19T15:18:29.838Z</time></trkpt><trkpt lat="45.5283985" lon="12.1408361"><ele>7.0</ele><time>2026-04-19T15:18:30.862Z</time></trkpt><trkpt lat="45.5287004" lon="12.1409409"><ele>6.5</ele><time>2026-04-19T15:18:31.836Z</time></trkpt><trkpt lat="45.5290072" lon="12.1410422"><ele>6.0</ele><time>2026-04-19T15:18:32.862Z</time></trkpt><trkpt lat="45.5293165" lon="12.1411399"><ele>7.0</ele><time>2026-04-19T15:18:33.842Z</time></trkpt><trkpt lat="45.5295904" lon="12.1412663"><ele>8.0</ele><time>2026-04-19T15:18:34.841Z</time></trkpt><trkpt lat="45.5299238" lon="12.1413641"><ele>8.0</ele><time>2026-04-19T15:18:35.857Z</time></trkpt><trkpt lat="45.5302502" lon="12.1414517"><ele>8.0</ele><time>2026-04-19T15:18:36.851Z</time></trkpt><trkpt lat="45.5305697" lon="12.1415401"><ele>7.0</ele><time>2026-04-19T15:18:37.854Z</time></trkpt><trkpt lat="45.5308902" lon="12.1416158"><ele>6.0</ele><time>2026-04-19T15:18:38.861Z</time></trkpt><trkpt lat="45.531212" lon="12.1416715"><ele>7.0</ele><time>2026-04-19T15:18:39.859Z</time></trkpt><trkpt lat="45.5315324" lon="12.1417081"><ele>8.0</ele><time>2026-04-19T15:18:40.872Z</time></trkpt><trkpt lat="45.5318376" lon="12.1417267"><ele>7.5</ele><time>2026-04-19T15:18:41.86Z</time></trkpt><trkpt lat="45.5321436" lon="12.1417338"><ele>7.0</ele><time>2026-04-19T15:18:42.847Z</time></trkpt><trkpt lat="45.5324479" lon="12.1417314"><ele>7.0</ele><time>2026-04-19T15:18:43.845Z</time></trkpt><trkpt lat="45.5327558" lon="12.1417226"><ele>7.0</ele><time>2026-04-19T15:18:44.842Z</time></trkpt><trkpt lat="45.533069" lon="12.1417084"><ele>7.0</ele><time>2026-04-19T15:18:45.852Z</time></trkpt><trkpt lat="45.5333787" lon="12.141689"><ele>7.0</ele><time>2026-04-19T15:18:46.844Z</time></trkpt><trkpt lat="45.53369" lon="12.141667"><ele>7.0</ele><time>2026-04-19T15:18:47.861Z</time></trkpt><trkpt lat="45.5339999" lon="12.1416463"><ele>7.0</ele><time>2026-04-19T15:18:48.843Z</time></trkpt><trkpt lat="45.5343055" lon="12.1416154"><ele>7.0</ele><time>2026-04-19T15:18:49.84Z</time></trkpt><trkpt lat="45.5346126" lon="12.1415681"><ele>7.0</ele><time>2026-04-19T15:18:50.849Z</time></trkpt><trkpt lat="45.5349151" lon="12.1415246"><ele>7.0</ele><time>2026-04-19T15:18:51.843Z</time></trkpt><trkpt lat="45.5352199" lon="12.1414856"><ele>7.0</ele><time>2026-04-19T15:18:52.883Z</time></trkpt><trkpt lat="45.5355145" lon="12.1414491"><ele>7.0</ele><time>2026-04-19T15:18:53.87Z</time></trkpt><trkpt lat="45.5358183" lon="12.1414143"><ele>7.0</ele><time>2026-04-19T15:18:54.859Z</time></trkpt><trkpt lat="45.5361156" lon="12.1413822"><ele>7.5</ele><time>2026-04-19T15:18:55.822Z</time></trkpt><trkpt lat="45.5364281" lon="12.1413544"><ele>8.0</ele><time>2026-04-19T15:18:56.854Z</time></trkpt><trkpt lat="45.5367244" lon="12.1413446"><ele>8.0</ele><time>2026-04-19T15:18:57.821Z</time></trkpt><trkpt lat="45.5370132" lon="12.1413346"><ele>8.0</ele><time>2026-04-19T15:18:58.838Z</time></trkpt><trkpt lat="45.5373034" lon="12.1413313"><ele>8.0</ele><time>2026-04-19T15:18:59.836Z</time></trkpt><trkpt lat="45.5376403" lon="12.1413327"><ele>8.0</ele><time>2026-04-19T15:19:00.848Z</time></trkpt><trkpt lat="45.5379224" lon="12.1413444"><ele>7.0</ele><time>2026-04-19T15:19:01.86Z</time></trkpt><trkpt lat="45.5382343" lon="12.1413617"><ele>6.0</ele><time>2026-04-19T15:19:02.852Z</time></trkpt><trkpt lat="45.5385487" lon="12.1414035"><ele>6.5</ele><time>2026-04-19T15:19:03.857Z</time></trkpt><trkpt lat="45.5388475" lon="12.1414429"><ele>7.0</ele><time>2026-04-19T15:19:04.836Z</time></trkpt><trkpt lat="45.5391346" lon="12.1414848"><ele>7.0</ele><time>2026-04-19T15:19:05.845Z</time></trkpt><trkpt lat="45.5394254" lon="12.1415369"><ele>7.0</ele><time>2026-04-19T15:19:06.86Z</time></trkpt><trkpt lat="45.5397098" lon="12.1415945"><ele>8.0</ele><time>2026-04-19T15:19:07.84Z</time></trkpt><trkpt lat="45.5400122" lon="12.1416726"><ele>9.0</ele><time>2026-04-19T15:19:08.86Z</time></trkpt><trkpt lat="45.5402957" lon="12.1417474"><ele>8.5</ele><time>2026-04-19T15:19:09.87Z</time></trkpt><trkpt lat="45.5405779" lon="12.1418287"><ele>8.0</ele><time>2026-04-19T15:19:10.864Z</time></trkpt><trkpt lat="45.540864" lon="12.1419195"><ele>8.0</ele><time>2026-04-19T15:19:11.861Z</time></trkpt><trkpt lat="45.5411493" lon="12.1420151"><ele>8.0</ele><time>2026-04-19T15:19:12.847Z</time></trkpt><trkpt lat="45.5414415" lon="12.1421155"><ele>8.5</ele><time>2026-04-19T15:19:13.847Z</time></trkpt><trkpt lat="45.5417337" lon="12.1422213"><ele>9.0</ele><time>2026-04-19T15:19:14.849Z</time></trkpt><trkpt lat="45.5420215" lon="12.1423334"><ele>8.0</ele><time>2026-04-19T15:19:15.846Z</time></trkpt><trkpt lat="45.5423102" lon="12.1424557"><ele>7.0</ele><time>2026-04-19T15:19:16.831Z</time></trkpt><trkpt lat="45.5426039" lon="12.1425907"><ele>7.0</ele><time>2026-04-19T15:19:17.843Z</time></trkpt><trkpt lat="45.5428991" lon="12.1427281"><ele>7.0</ele><time>2026-04-19T15:19:18.838Z</time></trkpt><trkpt lat="45.543197" lon="12.1428776"><ele>7.0</ele><time>2026-04-19T15:19:19.853Z</time></trkpt><trkpt lat="45.5434869" lon="12.1430304"><ele>7.0</ele><time>2026-04-19T15:19:20.847Z</time></trkpt><trkpt lat="45.5437764" lon="12.1431916"><ele>6.5</ele><time>2026-04-19T15:19:21.854Z</time></trkpt><trkpt lat="45.5440605" lon="12.1433528"><ele>6.0</ele><time>2026-04-19T15:19:22.837Z</time></trkpt><trkpt lat="45.5443474" lon="12.1435197"><ele>7.0</ele><time>2026-04-19T15:19:23.836Z</time></trkpt><trkpt lat="45.5446341" lon="12.1436912"><ele>8.0</ele><time>2026-04-19T15:19:24.836Z</time></trkpt><trkpt lat="45.5449196" lon="12.1438643"><ele>8.0</ele><time>2026-04-19T15:19:25.839Z</time></trkpt><trkpt lat="45.5452073" lon="12.1440396"><ele>8.0</ele><time>2026-04-19T15:19:26.849Z</time></trkpt><trkpt lat="45.5454919" lon="12.144213"><ele>9.0</ele><time>2026-04-19T15:19:27.855Z</time></trkpt><trkpt lat="45.5460612" lon="12.1445603"><ele>8.5</ele><time>2026-04-19T15:19:29.841Z</time></trkpt><trkpt lat="45.5463464" lon="12.1447326"><ele>8.0</ele><time>2026-04-19T15:19:30.84Z</time></trkpt><trkpt lat="45.546625" lon="12.1449009"><ele>8.0</ele><time>2026-04-19T15:19:31.839Z</time></trkpt><trkpt lat="45.5469079" lon="12.1450707"><ele>8.0</ele><time>2026-04-19T15:19:32.85Z</time></trkpt><trkpt lat="45.5471867" lon="12.1452376"><ele>7.5</ele><time>2026-04-19T15:19:33.84Z</time></trkpt><trkpt lat="45.5474622" lon="12.1454052"><ele>7.0</ele><time>2026-04-19T15:19:34.847Z</time></trkpt><trkpt lat="45.5477371" lon="12.1455718"><ele>7.0</ele><time>2026-04-19T15:19:35.838Z</time></trkpt><trkpt lat="45.5480131" lon="12.1457397"><ele>7.0</ele><time>2026-04-19T15:19:36.841Z</time></trkpt><trkpt lat="45.5482881" lon="12.1459039"><ele>7.0</ele><time>2026-04-19T15:19:37.837Z</time></trkpt><trkpt lat="45.5485635" lon="12.1460659"><ele>7.0</ele><time>2026-04-19T15:19:38.841Z</time></trkpt><trkpt lat="45.5488346" lon="12.1462245"><ele>7.5</ele><time>2026-04-19T15:19:39.837Z</time></trkpt><trkpt lat="45.5491187" lon="12.1463878"><ele>8.0</ele><time>2026-04-19T15:19:40.857Z</time></trkpt><trkpt lat="45.5493973" lon="12.1465493"><ele>8.5</ele><time>2026-04-19T15:19:41.849Z</time></trkpt><trkpt lat="45.5496692" lon="12.146709"><ele>9.0</ele><time>2026-04-19T15:19:42.833Z</time></trkpt><trkpt lat="45.5499511" lon="12.1468752"><ele>9.0</ele><time>2026-04-19T15:19:43.833Z</time></trkpt><trkpt lat="45.5502295" lon="12.1470382"><ele>9.0</ele><time>2026-04-19T15:19:44.828Z</time></trkpt><trkpt lat="45.5505084" lon="12.1472025"><ele>9.0</ele><time>2026-04-19T15:19:45.829Z</time></trkpt><trkpt lat="45.550789" lon="12.1473677"><ele>9.0</ele><time>2026-04-19T15:19:46.82Z</time></trkpt><trkpt lat="45.5510688" lon="12.1475277"><ele>8.0</ele><time>2026-04-19T15:19:47.859Z</time></trkpt><trkpt lat="45.5513566" lon="12.1476894"><ele>7.0</ele><time>2026-04-19T15:19:48.834Z</time></trkpt><trkpt lat="45.5516397" lon="12.1478471"><ele>7.0</ele><time>2026-04-19T15:19:49.818Z</time></trkpt><trkpt lat="45.5519158" lon="12.1480016"><ele>7.0</ele><time>2026-04-19T15:19:50.843Z</time></trkpt><trkpt lat="45.5522268" lon="12.1481787"><ele>8.5</ele><time>2026-04-19T15:19:51.842Z</time></trkpt><trkpt lat="45.552464" lon="12.1483116"><ele>10.0</ele><time>2026-04-19T15:19:52.842Z</time></trkpt><trkpt lat="45.5527222" lon="12.1484541"><ele>9.5</ele><time>2026-04-19T15:19:53.851Z</time></trkpt><trkpt lat="45.552956" lon="12.1485687"><ele>9.0</ele><time>2026-04-19T15:19:54.848Z</time></trkpt><trkpt lat="45.5533007" lon="12.1487505"><ele>9.0</ele><time>2026-04-19T15:19:55.861Z</time></trkpt><trkpt lat="45.5535782" lon="12.1488841"><ele>9.0</ele><time>2026-04-19T15:19:56.852Z</time></trkpt><trkpt lat="45.5538572" lon="12.1490061"><ele>8.5</ele><time>2026-04-19T15:19:57.853Z</time></trkpt><trkpt lat="45.5541379" lon="12.1491144"><ele>8.0</ele><time>2026-04-19T15:19:58.84Z</time></trkpt><trkpt lat="45.5544331" lon="12.1492114"><ele>7.5</ele><time>2026-04-19T15:19:59.86Z</time></trkpt><trkpt lat="45.5547419" lon="12.1492937"><ele>7.0</ele><time>2026-04-19T15:20:00.857Z</time></trkpt><trkpt lat="45.5550686" lon="12.1493638"><ele>6.5</ele><time>2026-04-19T15:20:01.853Z</time></trkpt><trkpt lat="45.5554009" lon="12.1494473"><ele>6.0</ele><time>2026-04-19T15:20:02.862Z</time></trkpt><trkpt lat="45.5557187" lon="12.1495136"><ele>6.0</ele><time>2026-04-19T15:20:03.853Z</time></trkpt><trkpt lat="45.556033" lon="12.1495727"><ele>6.0</ele><time>2026-04-19T15:20:04.853Z</time></trkpt><trkpt lat="45.5563445" lon="12.1496212"><ele>6.0</ele><time>2026-04-19T15:20:05.841Z</time></trkpt><trkpt lat="45.5566561" lon="12.1496624"><ele>6.0</ele><time>2026-04-19T15:20:06.841Z</time></trkpt><trkpt lat="45.5569655" lon="12.1497033"><ele>7.0</ele><time>2026-04-19T15:20:07.833Z</time></trkpt><trkpt lat="45.5572706" lon="12.1497447"><ele>8.0</ele><time>2026-04-19T15:20:08.853Z</time></trkpt><trkpt lat="45.5575733" lon="12.1497853"><ele>7.0</ele><time>2026-04-19T15:20:09.853Z</time></trkpt><trkpt lat="45.5578747" lon="12.1498155"><ele>6.0</ele><time>2026-04-19T15:20:10.859Z</time></trkpt><trkpt lat="45.5581695" lon="12.1498465"><ele>6.0</ele><time>2026-04-19T15:20:11.844Z</time></trkpt><trkpt lat="45.5584706" lon="12.1498786"><ele>6.0</ele><time>2026-04-19T15:20:12.874Z</time></trkpt><trkpt lat="45.5587601" lon="12.1499098"><ele>7.0</ele><time>2026-04-19T15:20:13.85Z</time></trkpt><trkpt lat="45.5590539" lon="12.1499428"><ele>8.0</ele><time>2026-04-19T15:20:14.842Z</time></trkpt><trkpt lat="45.5593487" lon="12.1499752"><ele>7.5</ele><time>2026-04-19T15:20:15.853Z</time></trkpt><trkpt lat="45.5596402" lon="12.1500071"><ele>7.0</ele><time>2026-04-19T15:20:16.844Z</time></trkpt><trkpt lat="45.5599369" lon="12.15004"><ele>7.0</ele><time>2026-04-19T15:20:17.861Z</time></trkpt><trkpt lat="45.5602304" lon="12.1500745"><ele>7.0</ele><time>2026-04-19T15:20:18.848Z</time></trkpt><trkpt lat="45.5605279" lon="12.1501118"><ele>7.0</ele><time>2026-04-19T15:20:19.845Z</time></trkpt><trkpt lat="45.5608284" lon="12.150142"><ele>7.0</ele><time>2026-04-19T15:20:20.85Z</time></trkpt><trkpt lat="45.5611237" lon="12.150186"><ele>6.5</ele><time>2026-04-19T15:20:21.841Z</time></trkpt><trkpt lat="45.5614226" lon="12.150242"><ele>6.0</ele><time>2026-04-19T15:20:22.877Z</time></trkpt><trkpt lat="45.561718" lon="12.15031"><ele>6.0</ele><time>2026-04-19T15:20:23.859Z</time></trkpt><trkpt lat="45.5620154" lon="12.1503893"><ele>6.0</ele><time>2026-04-19T15:20:24.837Z</time></trkpt><trkpt lat="45.5623187" lon="12.1504777"><ele>6.5</ele><time>2026-04-19T15:20:25.848Z</time></trkpt><trkpt lat="45.5626145" lon="12.1505691"><ele>7.0</ele><time>2026-04-19T15:20:26.824Z</time></trkpt><trkpt lat="45.5629196" lon="12.1506681"><ele>6.5</ele><time>2026-04-19T15:20:27.858Z</time></trkpt><trkpt lat="45.5632174" lon="12.1507738"><ele>6.0</ele><time>2026-04-19T15:20:28.853Z</time></trkpt><trkpt lat="45.5635136" lon="12.1508869"><ele>6.5</ele><time>2026-04-19T15:20:29.849Z</time></trkpt><trkpt lat="45.5638098" lon="12.1510104"><ele>7.0</ele><time>2026-04-19T15:20:30.849Z</time></trkpt><trkpt lat="45.5641017" lon="12.1511435"><ele>7.0</ele><time>2026-04-19T15:20:31.846Z</time></trkpt><trkpt lat="45.5643931" lon="12.1512856"><ele>7.0</ele><time>2026-04-19T15:20:32.848Z</time></trkpt><trkpt lat="45.5646809" lon="12.1514358"><ele>7.5</ele><time>2026-04-19T15:20:33.852Z</time></trkpt><trkpt lat="45.564967" lon="12.151595"><ele>8.0</ele><time>2026-04-19T15:20:34.84Z</time></trkpt><trkpt lat="45.5652548" lon="12.1517653"><ele>8.0</ele><time>2026-04-19T15:20:35.861Z</time></trkpt><trkpt lat="45.5655396" lon="12.151941"><ele>8.0</ele><time>2026-04-19T15:20:36.849Z</time></trkpt><trkpt lat="45.5658221" lon="12.1521203"><ele>8.0</ele><time>2026-04-19T15:20:37.847Z</time></trkpt><trkpt lat="45.5661017" lon="12.1523099"><ele>8.0</ele><time>2026-04-19T15:20:38.837Z</time></trkpt><trkpt lat="45.5663798" lon="12.1525135"><ele>8.5</ele><time>2026-04-19T15:20:39.844Z</time></trkpt><trkpt lat="45.5666498" lon="12.1527242"><ele>9.0</ele><time>2026-04-19T15:20:40.849Z</time></trkpt><trkpt lat="45.5669213" lon="12.152941"><ele>8.5</ele><time>2026-04-19T15:20:41.848Z</time></trkpt><trkpt lat="45.5671875" lon="12.1531681"><ele>8.0</ele><time>2026-04-19T15:20:42.861Z</time></trkpt><trkpt lat="45.5674522" lon="12.1534028"><ele>8.0</ele><time>2026-04-19T15:20:43.849Z</time></trkpt><trkpt lat="45.5677085" lon="12.153638"><ele>8.0</ele><time>2026-04-19T15:20:44.838Z</time></trkpt><trkpt lat="45.5679661" lon="12.1538815"><ele>8.0</ele><time>2026-04-19T15:20:45.831Z</time></trkpt><trkpt lat="45.5682224" lon="12.1541339"><ele>8.0</ele><time>2026-04-19T15:20:46.825Z</time></trkpt><trkpt lat="45.5684766" lon="12.1543917"><ele>8.0</ele><time>2026-04-19T15:20:47.834Z</time></trkpt><trkpt lat="45.5687221" lon="12.1546493"><ele>8.0</ele><time>2026-04-19T15:20:48.82Z</time></trkpt><trkpt lat="45.5689712" lon="12.1549191"><ele>8.0</ele><time>2026-04-19T15:20:49.844Z</time></trkpt><trkpt lat="45.5691902" lon="12.1551648"><ele>8.0</ele><time>2026-04-19T15:20:50.834Z</time></trkpt><trkpt lat="45.5694856" lon="12.1555046"><ele>8.5</ele><time>2026-04-19T15:20:51.846Z</time></trkpt><trkpt lat="45.5697438" lon="12.1558086"><ele>9.0</ele><time>2026-04-19T15:20:52.858Z</time></trkpt><trkpt lat="45.5699788" lon="12.1560921"><ele>9.0</ele><time>2026-04-19T15:20:53.849Z</time></trkpt><trkpt lat="45.5701787" lon="12.1563473"><ele>9.0</ele><time>2026-04-19T15:20:54.852Z</time></trkpt><trkpt lat="45.5703541" lon="12.1565977"><ele>8.5</ele><time>2026-04-19T15:20:55.851Z</time></trkpt><trkpt lat="45.5705482" lon="12.1568727"><ele>8.0</ele><time>2026-04-19T15:20:56.851Z</time></trkpt><trkpt lat="45.5707438" lon="12.1571551"><ele>8.5</ele><time>2026-04-19T15:20:57.864Z</time></trkpt><trkpt lat="45.5709442" lon="12.1574495"><ele>9.0</ele><time>2026-04-19T15:20:58.851Z</time></trkpt><trkpt lat="45.5711447" lon="12.15777"><ele>9.0</ele><time>2026-04-19T15:20:59.86Z</time></trkpt><trkpt lat="45.5713429" lon="12.1580733"><ele>9.0</ele><time>2026-04-19T15:21:00.842Z</time></trkpt><trkpt lat="45.5715446" lon="12.1583848"><ele>8.5</ele><time>2026-04-19T15:21:01.839Z</time></trkpt><trkpt lat="45.5717442" lon="12.158693"><ele>8.0</ele><time>2026-04-19T15:21:02.839Z</time></trkpt><trkpt lat="45.5719425" lon="12.1590017"><ele>9.0</ele><time>2026-04-19T15:21:03.834Z</time></trkpt><trkpt lat="45.5721395" lon="12.1593174"><ele>10.0</ele><time>2026-04-19T15:21:04.837Z</time></trkpt><trkpt lat="45.5723349" lon="12.1596366"><ele>9.5</ele><time>2026-04-19T15:21:05.842Z</time></trkpt><trkpt lat="45.5725251" lon="12.1599571"><ele>9.0</ele><time>2026-04-19T15:21:06.839Z</time></trkpt><trkpt lat="45.5727154" lon="12.1602889"><ele>9.5</ele><time>2026-04-19T15:21:07.845Z</time></trkpt><trkpt lat="45.5729008" lon="12.160624"><ele>10.0</ele><time>2026-04-19T15:21:08.849Z</time></trkpt><trkpt lat="45.573084" lon="12.1609549"><ele>10.0</ele><time>2026-04-19T15:21:09.854Z</time></trkpt><trkpt lat="45.5732672" lon="12.1612887"><ele>10.0</ele><time>2026-04-19T15:21:10.84Z</time></trkpt><trkpt lat="45.5734483" lon="12.1616234"><ele>9.0</ele><time>2026-04-19T15:21:11.844Z</time></trkpt><trkpt lat="45.5736263" lon="12.1619622"><ele>8.0</ele><time>2026-04-19T15:21:12.865Z</time></trkpt><trkpt lat="45.5737969" lon="12.1623005"><ele>8.5</ele><time>2026-04-19T15:21:13.836Z</time></trkpt><trkpt lat="45.5739685" lon="12.162647"><ele>9.0</ele><time>2026-04-19T15:21:14.844Z</time></trkpt><trkpt lat="45.5741373" lon="12.1629929"><ele>9.5</ele><time>2026-04-19T15:21:15.842Z</time></trkpt><trkpt lat="45.5743046" lon="12.1633429"><ele>10.0</ele><time>2026-04-19T15:21:16.846Z</time></trkpt><trkpt lat="45.574468" lon="12.1636998"><ele>9.5</ele><time>2026-04-19T15:21:17.868Z</time></trkpt><trkpt lat="45.574627" lon="12.1640559"><ele>9.0</ele><time>2026-04-19T15:21:18.871Z</time></trkpt><trkpt lat="45.5747816" lon="12.1644091"><ele>9.0</ele><time>2026-04-19T15:21:19.845Z</time></trkpt><trkpt lat="45.5749413" lon="12.16478"><ele>9.0</ele><time>2026-04-19T15:21:20.85Z</time></trkpt><trkpt lat="45.5750952" lon="12.1651512"><ele>9.0</ele><time>2026-04-19T15:21:21.848Z</time></trkpt><trkpt lat="45.5752426" lon="12.1655273"><ele>9.0</ele><time>2026-04-19T15:21:22.842Z</time></trkpt><trkpt lat="45.5753902" lon="12.1659138"><ele>9.0</ele><time>2026-04-19T15:21:23.854Z</time></trkpt><trkpt lat="45.5755357" lon="12.1662945"><ele>9.0</ele><time>2026-04-19T15:21:24.845Z</time></trkpt><trkpt lat="45.5756824" lon="12.1666774"><ele>9.0</ele><time>2026-04-19T15:21:25.832Z</time></trkpt><trkpt lat="45.575829" lon="12.1670651"><ele>9.0</ele><time>2026-04-19T15:21:26.838Z</time></trkpt><trkpt lat="45.5759744" lon="12.1674556"><ele>9.0</ele><time>2026-04-19T15:21:27.843Z</time></trkpt><trkpt lat="45.5761172" lon="12.1678419"><ele>9.0</ele><time>2026-04-19T15:21:28.837Z</time></trkpt><trkpt lat="45.5762591" lon="12.1682278"><ele>9.0</ele><time>2026-04-19T15:21:29.858Z</time></trkpt><trkpt lat="45.5764005" lon="12.1686138"><ele>9.0</ele><time>2026-04-19T15:21:30.84Z</time></trkpt><trkpt lat="45.5765427" lon="12.1689956"><ele>9.0</ele><time>2026-04-19T15:21:31.839Z</time></trkpt><trkpt lat="45.5766841" lon="12.1693781"><ele>9.0</ele><time>2026-04-19T15:21:32.837Z</time></trkpt><trkpt lat="45.5768241" lon="12.1697608"><ele>9.0</ele><time>2026-04-19T15:21:33.845Z</time></trkpt><trkpt lat="45.5769638" lon="12.170141"><ele>9.0</ele><time>2026-04-19T15:21:34.848Z</time></trkpt><trkpt lat="45.5771031" lon="12.170522"><ele>8.5</ele><time>2026-04-19T15:21:35.85Z</time></trkpt><trkpt lat="45.5772437" lon="12.1709049"><ele>8.0</ele><time>2026-04-19T15:21:36.84Z</time></trkpt><trkpt lat="45.5773869" lon="12.1712912"><ele>7.5</ele><time>2026-04-19T15:21:37.86Z</time></trkpt><trkpt lat="45.5775298" lon="12.1716741"><ele>7.0</ele><time>2026-04-19T15:21:38.852Z</time></trkpt><trkpt lat="45.5776748" lon="12.172062"><ele>7.5</ele><time>2026-04-19T15:21:39.857Z</time></trkpt><trkpt lat="45.5778162" lon="12.1724479"><ele>8.0</ele><time>2026-04-19T15:21:40.845Z</time></trkpt><trkpt lat="45.5779584" lon="12.1728313"><ele>9.0</ele><time>2026-04-19T15:21:41.847Z</time></trkpt><trkpt lat="45.578104" lon="12.1732156"><ele>10.0</ele><time>2026-04-19T15:21:42.848Z</time></trkpt><trkpt lat="45.5782524" lon="12.1735974"><ele>10.0</ele><time>2026-04-19T15:21:43.864Z</time></trkpt><trkpt lat="45.5783987" lon="12.1739695"><ele>10.0</ele><time>2026-04-19T15:21:44.835Z</time></trkpt><trkpt lat="45.5785467" lon="12.1743569"><ele>10.0</ele><time>2026-04-19T15:21:45.849Z</time></trkpt><trkpt lat="45.5786894" lon="12.174741"><ele>10.0</ele><time>2026-04-19T15:21:46.839Z</time></trkpt><trkpt lat="45.5788328" lon="12.1751278"><ele>10.0</ele><time>2026-04-19T15:21:47.843Z</time></trkpt><trkpt lat="45.5789757" lon="12.1755152"><ele>10.0</ele><time>2026-04-19T15:21:48.846Z</time></trkpt><trkpt lat="45.5791197" lon="12.1759047"><ele>10.0</ele><time>2026-04-19T15:21:49.849Z</time></trkpt><trkpt lat="45.5792612" lon="12.1762872"><ele>10.0</ele><time>2026-04-19T15:21:50.832Z</time></trkpt><trkpt lat="45.579406" lon="12.1766813"><ele>9.5</ele><time>2026-04-19T15:21:51.86Z</time></trkpt><trkpt lat="45.5795485" lon="12.1770593"><ele>9.0</ele><time>2026-04-19T15:21:52.845Z</time></trkpt><trkpt lat="45.5796943" lon="12.1774431"><ele>9.0</ele><time>2026-04-19T15:21:53.855Z</time></trkpt><trkpt lat="45.5798393" lon="12.1778294"><ele>9.0</ele><time>2026-04-19T15:21:54.87Z</time></trkpt><trkpt lat="45.579979" lon="12.1782067"><ele>9.0</ele><time>2026-04-19T15:21:55.854Z</time></trkpt><trkpt lat="45.5801178" lon="12.1785839"><ele>9.0</ele><time>2026-04-19T15:21:56.854Z</time></trkpt><trkpt lat="45.5802565" lon="12.1789599"><ele>9.0</ele><time>2026-04-19T15:21:57.868Z</time></trkpt><trkpt lat="45.5803936" lon="12.1793274"><ele>9.0</ele><time>2026-04-19T15:21:58.844Z</time></trkpt><trkpt lat="45.5805348" lon="12.1797019"><ele>9.0</ele><time>2026-04-19T15:21:59.863Z</time></trkpt><trkpt lat="45.5806721" lon="12.180068"><ele>9.0</ele><time>2026-04-19T15:22:00.851Z</time></trkpt><trkpt lat="45.5808102" lon="12.1804322"><ele>10.0</ele><time>2026-04-19T15:22:01.839Z</time></trkpt><trkpt lat="45.5809483" lon="12.1808025"><ele>11.0</ele><time>2026-04-19T15:22:02.833Z</time></trkpt><trkpt lat="45.5810847" lon="12.1811745"><ele>9.5</ele><time>2026-04-19T15:22:03.84Z</time></trkpt><trkpt lat="45.5812198" lon="12.1815445"><ele>8.0</ele><time>2026-04-19T15:22:04.848Z</time></trkpt><trkpt lat="45.5813568" lon="12.1819181"><ele>8.0</ele><time>2026-04-19T15:22:05.857Z</time></trkpt><trkpt lat="45.5814916" lon="12.1822908"><ele>8.0</ele><time>2026-04-19T15:22:06.848Z</time></trkpt><trkpt lat="45.581628" lon="12.1826707"><ele>7.5</ele><time>2026-04-19T15:22:07.841Z</time></trkpt><trkpt lat="45.5817656" lon="12.1830522"><ele>7.0</ele><time>2026-04-19T15:22:08.84Z</time></trkpt><trkpt lat="45.5819046" lon="12.1834346"><ele>7.5</ele><time>2026-04-19T15:22:09.848Z</time></trkpt><trkpt lat="45.5820444" lon="12.1838199"><ele>8.0</ele><time>2026-04-19T15:22:10.858Z</time></trkpt><trkpt lat="45.582185" lon="12.1841992"><ele>8.0</ele><time>2026-04-19T15:22:11.845Z</time></trkpt><trkpt lat="45.5823297" lon="12.1845825"><ele>8.0</ele><time>2026-04-19T15:22:12.85Z</time></trkpt><trkpt lat="45.5824759" lon="12.1849638"><ele>8.0</ele><time>2026-04-19T15:22:13.849Z</time></trkpt><trkpt lat="45.5826234" lon="12.1853451"><ele>8.0</ele><time>2026-04-19T15:22:14.855Z</time></trkpt><trkpt lat="45.5827657" lon="12.1857271"><ele>8.5</ele><time>2026-04-19T15:22:15.841Z</time></trkpt><trkpt lat="45.5829099" lon="12.1861135"><ele>9.0</ele><time>2026-04-19T15:22:16.868Z</time></trkpt><trkpt lat="45.5830519" lon="12.1864882"><ele>8.5</ele><time>2026-04-19T15:22:17.839Z</time></trkpt><trkpt lat="45.5831985" lon="12.1868698"><ele>8.0</ele><time>2026-04-19T15:22:18.859Z</time></trkpt><trkpt lat="45.5833458" lon="12.1872425"><ele>7.5</ele><time>2026-04-19T15:22:19.837Z</time></trkpt><trkpt lat="45.5834979" lon="12.1876273"><ele>7.0</ele><time>2026-04-19T15:22:20.861Z</time></trkpt><trkpt lat="45.5836481" lon="12.1880109"><ele>7.0</ele><time>2026-04-19T15:22:21.867Z</time></trkpt><trkpt lat="45.5837979" lon="12.1883973"><ele>7.0</ele><time>2026-04-19T15:22:22.85Z</time></trkpt><trkpt lat="45.5839502" lon="12.1887958"><ele>7.0</ele><time>2026-04-19T15:22:23.869Z</time></trkpt><trkpt lat="45.5840982" lon="12.1891876"><ele>7.0</ele><time>2026-04-19T15:22:24.848Z</time></trkpt><trkpt lat="45.5842516" lon="12.1895863"><ele>7.5</ele><time>2026-04-19T15:22:25.846Z</time></trkpt><trkpt lat="45.5844027" lon="12.1899902"><ele>8.0</ele><time>2026-04-19T15:22:26.842Z</time></trkpt><trkpt lat="45.58454" lon="12.1904032"><ele>7.5</ele><time>2026-04-19T15:22:27.855Z</time></trkpt><trkpt lat="45.5846726" lon="12.1908129"><ele>7.0</ele><time>2026-04-19T15:22:28.848Z</time></trkpt><trkpt lat="45.5848129" lon="12.191227"><ele>7.0</ele><time>2026-04-19T15:22:29.858Z</time></trkpt><trkpt lat="45.5849553" lon="12.1916236"><ele>7.0</ele><time>2026-04-19T15:22:30.838Z</time></trkpt><trkpt lat="45.5851017" lon="12.1920182"><ele>8.0</ele><time>2026-04-19T15:22:31.847Z</time></trkpt><trkpt lat="45.5852446" lon="12.1924086"><ele>9.0</ele><time>2026-04-19T15:22:32.846Z</time></trkpt><trkpt lat="45.5853858" lon="12.1927939"><ele>9.0</ele><time>2026-04-19T15:22:33.845Z</time></trkpt><trkpt lat="45.5855248" lon="12.193176"><ele>9.0</ele><time>2026-04-19T15:22:34.849Z</time></trkpt><trkpt lat="45.5856617" lon="12.1935521"><ele>9.0</ele><time>2026-04-19T15:22:35.833Z</time></trkpt><trkpt lat="45.5857999" lon="12.1939303"><ele>9.0</ele><time>2026-04-19T15:22:36.863Z</time></trkpt><trkpt lat="45.5859329" lon="12.1942897"><ele>8.5</ele><time>2026-04-19T15:22:37.85Z</time></trkpt><trkpt lat="45.5860677" lon="12.1946523"><ele>8.0</ele><time>2026-04-19T15:22:38.863Z</time></trkpt><trkpt lat="45.5862027" lon="12.1950102"><ele>7.5</ele><time>2026-04-19T15:22:39.873Z</time></trkpt><trkpt lat="45.5863354" lon="12.1953624"><ele>7.0</ele><time>2026-04-19T15:22:40.851Z</time></trkpt><trkpt lat="45.5864709" lon="12.1957224"><ele>6.5</ele><time>2026-04-19T15:22:41.859Z</time></trkpt><trkpt lat="45.5866054" lon="12.1960781"><ele>6.0</ele><time>2026-04-19T15:22:42.835Z</time></trkpt><trkpt lat="45.5867419" lon="12.1964433"><ele>7.5</ele><time>2026-04-19T15:22:43.855Z</time></trkpt><trkpt lat="45.5868758" lon="12.1968059"><ele>9.0</ele><time>2026-04-19T15:22:44.859Z</time></trkpt><trkpt lat="45.5870083" lon="12.1971639"><ele>8.5</ele><time>2026-04-19T15:22:45.842Z</time></trkpt><trkpt lat="45.5871433" lon="12.1975313"><ele>8.0</ele><time>2026-04-19T15:22:46.848Z</time></trkpt><trkpt lat="45.587277" lon="12.1978951"><ele>8.5</ele><time>2026-04-19T15:22:47.854Z</time></trkpt><trkpt lat="45.5874123" lon="12.1982616"><ele>9.0</ele><time>2026-04-19T15:22:48.856Z</time></trkpt><trkpt lat="45.5875473" lon="12.1986303"><ele>9.0</ele><time>2026-04-19T15:22:49.876Z</time></trkpt><trkpt lat="45.5876753" lon="12.1989936"><ele>9.0</ele><time>2026-04-19T15:22:50.841Z</time></trkpt><trkpt lat="45.587807" lon="12.1993817"><ele>9.0</ele><time>2026-04-19T15:22:51.866Z</time></trkpt><trkpt lat="45.5879308" lon="12.199767"><ele>9.0</ele><time>2026-04-19T15:22:52.857Z</time></trkpt><trkpt lat="45.5880523" lon="12.200157"><ele>8.5</ele><time>2026-04-19T15:22:53.84Z</time></trkpt><trkpt lat="45.588174" lon="12.200558"><ele>8.0</ele><time>2026-04-19T15:22:54.837Z</time></trkpt><trkpt lat="45.5882885" lon="12.200965"><ele>8.0</ele><time>2026-04-19T15:22:55.838Z</time></trkpt><trkpt lat="45.5883996" lon="12.2013733"><ele>8.0</ele><time>2026-04-19T15:22:56.868Z</time></trkpt><trkpt lat="45.5885098" lon="12.2017852"><ele>7.5</ele><time>2026-04-19T15:22:57.861Z</time></trkpt><trkpt lat="45.5886162" lon="12.2021994"><ele>7.0</ele><time>2026-04-19T15:22:58.854Z</time></trkpt><trkpt lat="45.5887176" lon="12.2026256"><ele>7.0</ele><time>2026-04-19T15:22:59.86Z</time></trkpt><trkpt lat="45.5888104" lon="12.2030509"><ele>7.0</ele><time>2026-04-19T15:23:00.846Z</time></trkpt><trkpt lat="45.5888972" lon="12.2034888"><ele>6.5</ele><time>2026-04-19T15:23:01.851Z</time></trkpt><trkpt lat="45.5889752" lon="12.2039265"><ele>6.0</ele><time>2026-04-19T15:23:02.835Z</time></trkpt><trkpt lat="45.5890499" lon="12.2043729"><ele>7.0</ele><time>2026-04-19T15:23:03.856Z</time></trkpt><trkpt lat="45.5891166" lon="12.2048105"><ele>8.0</ele><time>2026-04-19T15:23:04.852Z</time></trkpt><trkpt lat="45.589179" lon="12.2052505"><ele>8.5</ele><time>2026-04-19T15:23:05.849Z</time></trkpt><trkpt lat="45.5892369" lon="12.2056842"><ele>9.0</ele><time>2026-04-19T15:23:06.857Z</time></trkpt><trkpt lat="45.5892917" lon="12.2061134"><ele>9.0</ele><time>2026-04-19T15:23:07.848Z</time></trkpt><trkpt lat="45.5893415" lon="12.2065492"><ele>9.0</ele><time>2026-04-19T15:23:08.857Z</time></trkpt><trkpt lat="45.5893856" lon="12.2069835"><ele>8.0</ele><time>2026-04-19T15:23:09.847Z</time></trkpt><trkpt lat="45.589424" lon="12.2074145"><ele>7.0</ele><time>2026-04-19T15:23:10.84Z</time></trkpt><trkpt lat="45.5894573" lon="12.2078533"><ele>6.5</ele><time>2026-04-19T15:23:11.844Z</time></trkpt><trkpt lat="45.5894842" lon="12.2082887"><ele>6.0</ele><time>2026-04-19T15:23:12.841Z</time></trkpt><trkpt lat="45.5895074" lon="12.2087311"><ele>6.5</ele><time>2026-04-19T15:23:13.871Z</time></trkpt><trkpt lat="45.5895247" lon="12.2091617"><ele>7.0</ele><time>2026-04-19T15:23:14.838Z</time></trkpt><trkpt lat="45.5895393" lon="12.209602"><ele>7.0</ele><time>2026-04-19T15:23:15.842Z</time></trkpt><trkpt lat="45.5895483" lon="12.2100406"><ele>7.0</ele><time>2026-04-19T15:23:16.852Z</time></trkpt><trkpt lat="45.5895515" lon="12.2104785"><ele>7.0</ele><time>2026-04-19T15:23:17.843Z</time></trkpt><trkpt lat="45.5895486" lon="12.2109234"><ele>7.0</ele><time>2026-04-19T15:23:18.863Z</time></trkpt><trkpt lat="45.5895412" lon="12.2113593"><ele>7.0</ele><time>2026-04-19T15:23:19.842Z</time></trkpt><trkpt lat="45.589528" lon="12.2118004"><ele>7.0</ele><time>2026-04-19T15:23:20.848Z</time></trkpt><trkpt lat="45.5895067" lon="12.2122324"><ele>7.5</ele><time>2026-04-19T15:23:21.845Z</time></trkpt><trkpt lat="45.5894791" lon="12.2126702"><ele>8.0</ele><time>2026-04-19T15:23:22.857Z</time></trkpt><trkpt lat="45.5894456" lon="12.2131041"><ele>7.5</ele><time>2026-04-19T15:23:23.865Z</time></trkpt><trkpt lat="45.5894094" lon="12.2135379"><ele>7.0</ele><time>2026-04-19T15:23:24.842Z</time></trkpt><trkpt lat="45.5893695" lon="12.2139848"><ele>7.5</ele><time>2026-04-19T15:23:25.861Z</time></trkpt><trkpt lat="45.5893275" lon="12.2144208"><ele>8.0</ele><time>2026-04-19T15:23:26.851Z</time></trkpt><trkpt lat="45.5892826" lon="12.2148561"><ele>8.0</ele><time>2026-04-19T15:23:27.846Z</time></trkpt><trkpt lat="45.5892364" lon="12.215296"><ele>8.0</ele><time>2026-04-19T15:23:28.854Z</time></trkpt><trkpt lat="45.5891863" lon="12.2157366"><ele>8.0</ele><time>2026-04-19T15:23:29.86Z</time></trkpt><trkpt lat="45.5891311" lon="12.2161749"><ele>8.0</ele><time>2026-04-19T15:23:30.877Z</time></trkpt><trkpt lat="45.5890711" lon="12.2166047"><ele>8.0</ele><time>2026-04-19T15:23:31.854Z</time></trkpt><trkpt lat="45.5890053" lon="12.21704"><ele>8.0</ele><time>2026-04-19T15:23:32.854Z</time></trkpt><trkpt lat="45.5889394" lon="12.2174782"><ele>8.0</ele><time>2026-04-19T15:23:33.86Z</time></trkpt><trkpt lat="45.5888801" lon="12.2179121"><ele>8.0</ele><time>2026-04-19T15:23:34.86Z</time></trkpt><trkpt lat="45.5888239" lon="12.2183424"><ele>7.5</ele><time>2026-04-19T15:23:35.873Z</time></trkpt><trkpt lat="45.5887686" lon="12.2187506"><ele>7.0</ele><time>2026-04-19T15:23:36.844Z</time></trkpt><trkpt lat="45.5887103" lon="12.2191686"><ele>7.0</ele><time>2026-04-19T15:23:37.856Z</time></trkpt><trkpt lat="45.5886509" lon="12.2195842"><ele>7.0</ele><time>2026-04-19T15:23:38.859Z</time></trkpt><trkpt lat="45.588593" lon="12.2199918"><ele>7.0</ele><time>2026-04-19T15:23:39.846Z</time></trkpt><trkpt lat="45.5885343" lon="12.2204038"><ele>7.0</ele><time>2026-04-19T15:23:40.849Z</time></trkpt><trkpt lat="45.5884742" lon="12.2208175"><ele>6.5</ele><time>2026-04-19T15:23:41.85Z</time></trkpt><trkpt lat="45.5884169" lon="12.2212278"><ele>6.0</ele><time>2026-04-19T15:23:42.85Z</time></trkpt><trkpt lat="45.5883607" lon="12.2216317"><ele>6.5</ele><time>2026-04-19T15:23:43.853Z</time></trkpt><trkpt lat="45.5883057" lon="12.2220369"><ele>7.0</ele><time>2026-04-19T15:23:44.851Z</time></trkpt><trkpt lat="45.5882496" lon="12.2224479"><ele>7.0</ele><time>2026-04-19T15:23:45.858Z</time></trkpt><trkpt lat="45.5881943" lon="12.2228607"><ele>7.0</ele><time>2026-04-19T15:23:46.84Z</time></trkpt><trkpt lat="45.5881387" lon="12.2232813"><ele>7.0</ele><time>2026-04-19T15:23:47.85Z</time></trkpt><trkpt lat="45.5880838" lon="12.2237046"><ele>7.0</ele><time>2026-04-19T15:23:48.851Z</time></trkpt><trkpt lat="45.5880304" lon="12.2241332"><ele>7.0</ele><time>2026-04-19T15:23:49.855Z</time></trkpt><trkpt lat="45.5879782" lon="12.2245636"><ele>7.0</ele><time>2026-04-19T15:23:50.862Z</time></trkpt><trkpt lat="45.5879247" lon="12.2249978"><ele>7.0</ele><time>2026-04-19T15:23:51.854Z</time></trkpt><trkpt lat="45.5878716" lon="12.225433"><ele>7.0</ele><time>2026-04-19T15:23:52.855Z</time></trkpt><trkpt lat="45.5878191" lon="12.2258643"><ele>7.0</ele><time>2026-04-19T15:23:53.847Z</time></trkpt><trkpt lat="45.5877655" lon="12.2262983"><ele>7.0</ele><time>2026-04-19T15:23:54.865Z</time></trkpt><trkpt lat="45.587713" lon="12.2267191"><ele>7.0</ele><time>2026-04-19T15:23:55.865Z</time></trkpt><trkpt lat="45.5876604" lon="12.2271298"><ele>7.0</ele><time>2026-04-19T15:23:56.846Z</time></trkpt><trkpt lat="45.5876055" lon="12.2275545"><ele>7.0</ele><time>2026-04-19T15:23:57.861Z</time></trkpt><trkpt lat="45.5875527" lon="12.2279648"><ele>7.0</ele><time>2026-04-19T15:23:58.843Z</time></trkpt><trkpt lat="45.5874986" lon="12.2283871"><ele>7.0</ele><time>2026-04-19T15:23:59.866Z</time></trkpt><trkpt lat="45.5874462" lon="12.2288052"><ele>7.0</ele><time>2026-04-19T15:24:00.848Z</time></trkpt><trkpt lat="45.5873931" lon="12.2292363"><ele>7.0</ele><time>2026-04-19T15:24:01.853Z</time></trkpt><trkpt lat="45.5873471" lon="12.2296354"><ele>7.0</ele><time>2026-04-19T15:24:02.847Z</time></trkpt><trkpt lat="45.5872992" lon="12.2300468"><ele>6.5</ele><time>2026-04-19T15:24:03.847Z</time></trkpt><trkpt lat="45.5872595" lon="12.2304602"><ele>6.0</ele><time>2026-04-19T15:24:04.841Z</time></trkpt><trkpt lat="45.587226" lon="12.2308846"><ele>7.0</ele><time>2026-04-19T15:24:05.839Z</time></trkpt><trkpt lat="45.5871946" lon="12.2313102"><ele>8.0</ele><time>2026-04-19T15:24:06.838Z</time></trkpt><trkpt lat="45.5871646" lon="12.2317583"><ele>8.0</ele><time>2026-04-19T15:24:07.847Z</time></trkpt><trkpt lat="45.5871376" lon="12.2321904"><ele>8.0</ele><time>2026-04-19T15:24:08.828Z</time></trkpt><trkpt lat="45.5871133" lon="12.2326214"><ele>7.666666666666666</ele><time>2026-04-19T15:24:09.845Z</time></trkpt><trkpt lat="45.587102" lon="12.2329152"><ele>7.333333333333334</ele><time>2026-04-19T15:24:10.854Z</time></trkpt><trkpt lat="45.5870919" lon="12.2332314"><ele>7.0</ele><time>2026-04-19T15:24:11.836Z</time></trkpt><trkpt lat="45.5870862" lon="12.2334969"><ele>7.0</ele><time>2026-04-19T15:24:12.777Z</time></trkpt><trkpt lat="45.5870835" lon="12.2338084"><ele>7.0</ele><time>2026-04-19T15:24:13.778Z</time></trkpt><trkpt lat="45.587068" lon="12.2346379"><ele>7.0</ele><time>2026-04-19T15:24:14.835Z</time></trkpt><trkpt lat="45.5870461" lon="12.2352164"><ele>7.0</ele><time>2026-04-19T15:24:15.877Z</time></trkpt><trkpt lat="45.5870358" lon="12.2357165"><ele>7.0</ele><time>2026-04-19T15:24:16.847Z</time></trkpt><trkpt lat="45.5870274" lon="12.2361706"><ele>7.0</ele><time>2026-04-19T15:24:17.846Z</time></trkpt><trkpt lat="45.5870169" lon="12.2366253"><ele>6.5</ele><time>2026-04-19T15:24:18.86Z</time></trkpt><trkpt lat="45.5870218" lon="12.2370547"><ele>6.0</ele><time>2026-04-19T15:24:19.846Z</time></trkpt><trkpt lat="45.5870409" lon="12.2374899"><ele>6.0</ele><time>2026-04-19T15:24:20.86Z</time></trkpt><trkpt lat="45.5870669" lon="12.237906"><ele>6.0</ele><time>2026-04-19T15:24:21.837Z</time></trkpt><trkpt lat="45.5870869" lon="12.2383397"><ele>6.0</ele><time>2026-04-19T15:24:22.848Z</time></trkpt><trkpt lat="45.5871262" lon="12.2387589"><ele>6.0</ele><time>2026-04-19T15:24:23.838Z</time></trkpt><trkpt lat="45.5871708" lon="12.2391744"><ele>6.5</ele><time>2026-04-19T15:24:24.85Z</time></trkpt><trkpt lat="45.5872193" lon="12.2395918"><ele>7.0</ele><time>2026-04-19T15:24:25.842Z</time></trkpt><trkpt lat="45.5872736" lon="12.2400082"><ele>7.0</ele><time>2026-04-19T15:24:26.84Z</time></trkpt><trkpt lat="45.5873337" lon="12.2404299"><ele>7.0</ele><time>2026-04-19T15:24:27.847Z</time></trkpt><trkpt lat="45.5873996" lon="12.2408462"><ele>6.5</ele><time>2026-04-19T15:24:28.839Z</time></trkpt><trkpt lat="45.5874709" lon="12.2412695"><ele>6.0</ele><time>2026-04-19T15:24:29.865Z</time></trkpt><trkpt lat="45.5875449" lon="12.2416778"><ele>6.0</ele><time>2026-04-19T15:24:30.834Z</time></trkpt><trkpt lat="45.5876238" lon="12.2420935"><ele>6.0</ele><time>2026-04-19T15:24:31.84Z</time></trkpt><trkpt lat="45.5877066" lon="12.2425176"><ele>5.5</ele><time>2026-04-19T15:24:32.844Z</time></trkpt><trkpt lat="45.5877963" lon="12.2429269"><ele>5.0</ele><time>2026-04-19T15:24:33.838Z</time></trkpt><trkpt lat="45.5878928" lon="12.2433356"><ele>5.0</ele><time>2026-04-19T15:24:34.859Z</time></trkpt><trkpt lat="45.5879923" lon="12.2437328"><ele>5.0</ele><time>2026-04-19T15:24:35.85Z</time></trkpt><trkpt lat="45.588096" lon="12.2441279"><ele>5.5</ele><time>2026-04-19T15:24:36.846Z</time></trkpt><trkpt lat="45.5882013" lon="12.2445235"><ele>6.0</ele><time>2026-04-19T15:24:37.851Z</time></trkpt><trkpt lat="45.5883097" lon="12.2449152"><ele>6.5</ele><time>2026-04-19T15:24:38.844Z</time></trkpt><trkpt lat="45.5884232" lon="12.2453035"><ele>7.0</ele><time>2026-04-19T15:24:39.84Z</time></trkpt><trkpt lat="45.5885421" lon="12.245687"><ele>7.0</ele><time>2026-04-19T15:24:40.861Z</time></trkpt><trkpt lat="45.5886635" lon="12.2460584"><ele>7.0</ele><time>2026-04-19T15:24:41.86Z</time></trkpt><trkpt lat="45.588787" lon="12.2464271"><ele>6.0</ele><time>2026-04-19T15:24:42.851Z</time></trkpt><trkpt lat="45.5889137" lon="12.2467992"><ele>5.0</ele><time>2026-04-19T15:24:43.858Z</time></trkpt><trkpt lat="45.5890416" lon="12.2471643"><ele>5.5</ele><time>2026-04-19T15:24:44.844Z</time></trkpt><trkpt lat="45.589172" lon="12.2475333"><ele>6.0</ele><time>2026-04-19T15:24:45.845Z</time></trkpt><trkpt lat="45.5893007" lon="12.2478974"><ele>6.0</ele><time>2026-04-19T15:24:46.837Z</time></trkpt><trkpt lat="45.5894335" lon="12.2482618"><ele>6.0</ele><time>2026-04-19T15:24:47.847Z</time></trkpt><trkpt lat="45.5895665" lon="12.2486212"><ele>5.5</ele><time>2026-04-19T15:24:48.842Z</time></trkpt><trkpt lat="45.5897007" lon="12.2489893"><ele>5.0</ele><time>2026-04-19T15:24:49.86Z</time></trkpt><trkpt lat="45.5898323" lon="12.2493484"><ele>5.0</ele><time>2026-04-19T15:24:50.85Z</time></trkpt><trkpt lat="45.589963" lon="12.2497093"><ele>5.0</ele><time>2026-04-19T15:24:51.836Z</time></trkpt><trkpt lat="45.5900965" lon="12.2500783"><ele>5.0</ele><time>2026-04-19T15:24:52.837Z</time></trkpt><trkpt lat="45.590227" lon="12.2504447"><ele>5.0</ele><time>2026-04-19T15:24:53.848Z</time></trkpt><trkpt lat="45.5903591" lon="12.2508121"><ele>4.5</ele><time>2026-04-19T15:24:54.847Z</time></trkpt><trkpt lat="45.5904913" lon="12.251185"><ele>4.0</ele><time>2026-04-19T15:24:55.852Z</time></trkpt><trkpt lat="45.5906242" lon="12.2515594"><ele>4.0</ele><time>2026-04-19T15:24:56.839Z</time></trkpt><trkpt lat="45.5907609" lon="12.251947"><ele>4.0</ele><time>2026-04-19T15:24:57.866Z</time></trkpt><trkpt lat="45.5908865" lon="12.2523365"><ele>3.5</ele><time>2026-04-19T15:24:58.852Z</time></trkpt><trkpt lat="45.5910129" lon="12.2527283"><ele>3.0</ele><time>2026-04-19T15:24:59.852Z</time></trkpt><trkpt lat="45.5911383" lon="12.2531195"><ele>3.5</ele><time>2026-04-19T15:25:00.842Z</time></trkpt><trkpt lat="45.5912605" lon="12.253513"><ele>4.0</ele><time>2026-04-19T15:25:01.846Z</time></trkpt><trkpt lat="45.591379" lon="12.253905"><ele>4.0</ele><time>2026-04-19T15:25:02.839Z</time></trkpt><trkpt lat="45.5914939" lon="12.2542937"><ele>4.0</ele><time>2026-04-19T15:25:03.836Z</time></trkpt><trkpt lat="45.5916047" lon="12.2546878"><ele>3.5</ele><time>2026-04-19T15:25:04.842Z</time></trkpt><trkpt lat="45.5917096" lon="12.2550802"><ele>3.0</ele><time>2026-04-19T15:25:05.841Z</time></trkpt><trkpt lat="45.5918093" lon="12.2554721"><ele>3.0</ele><time>2026-04-19T15:25:06.833Z</time></trkpt><trkpt lat="45.5919057" lon="12.2558718"><ele>3.0</ele><time>2026-04-19T15:25:07.86Z</time></trkpt><trkpt lat="45.5919951" lon="12.256258"><ele>3.5</ele><time>2026-04-19T15:25:08.833Z</time></trkpt><trkpt lat="45.5920851" lon="12.2566586"><ele>4.0</ele><time>2026-04-19T15:25:09.855Z</time></trkpt><trkpt lat="45.5921675" lon="12.2570504"><ele>4.5</ele><time>2026-04-19T15:25:10.836Z</time></trkpt><trkpt lat="45.5922458" lon="12.2574513"><ele>5.0</ele><time>2026-04-19T15:25:11.851Z</time></trkpt><trkpt lat="45.5923192" lon="12.2578519"><ele>4.5</ele><time>2026-04-19T15:25:12.84Z</time></trkpt><trkpt lat="45.5923878" lon="12.258253"><ele>4.0</ele><time>2026-04-19T15:25:13.838Z</time></trkpt><trkpt lat="45.5924526" lon="12.2586636"><ele>4.5</ele><time>2026-04-19T15:25:14.861Z</time></trkpt><trkpt lat="45.592512" lon="12.2590642"><ele>5.0</ele><time>2026-04-19T15:25:15.84Z</time></trkpt><trkpt lat="45.5925665" lon="12.259475"><ele>4.5</ele><time>2026-04-19T15:25:16.837Z</time></trkpt><trkpt lat="45.5926139" lon="12.259887"><ele>4.0</ele><time>2026-04-19T15:25:17.845Z</time></trkpt><trkpt lat="45.5926585" lon="12.2603012"><ele>5.0</ele><time>2026-04-19T15:25:18.841Z</time></trkpt><trkpt lat="45.5926991" lon="12.260715"><ele>6.0</ele><time>2026-04-19T15:25:19.835Z</time></trkpt><trkpt lat="45.5927347" lon="12.2611379"><ele>5.5</ele><time>2026-04-19T15:25:20.862Z</time></trkpt><trkpt lat="45.5927635" lon="12.2615592"><ele>5.0</ele><time>2026-04-19T15:25:21.854Z</time></trkpt><trkpt lat="45.5927852" lon="12.2619847"><ele>4.5</ele><time>2026-04-19T15:25:22.843Z</time></trkpt><trkpt lat="45.5928011" lon="12.2624193"><ele>4.0</ele><time>2026-04-19T15:25:23.85Z</time></trkpt><trkpt lat="45.5928102" lon="12.2628612"><ele>3.5</ele><time>2026-04-19T15:25:24.842Z</time></trkpt><trkpt lat="45.5928142" lon="12.263312"><ele>3.0</ele><time>2026-04-19T15:25:25.862Z</time></trkpt><trkpt lat="45.5928156" lon="12.2637594"><ele>2.5</ele><time>2026-04-19T15:25:26.87Z</time></trkpt><trkpt lat="45.5928147" lon="12.2642051"><ele>2.0</ele><time>2026-04-19T15:25:27.838Z</time></trkpt><trkpt lat="45.5928081" lon="12.2646684"><ele>2.0</ele><time>2026-04-19T15:25:28.871Z</time></trkpt><trkpt lat="45.5927955" lon="12.265117"><ele>2.0</ele><time>2026-04-19T15:25:29.841Z</time></trkpt><trkpt lat="45.5927764" lon="12.2655767"><ele>2.5</ele><time>2026-04-19T15:25:30.845Z</time></trkpt><trkpt lat="45.5927508" lon="12.266036"><ele>3.0</ele><time>2026-04-19T15:25:31.847Z</time></trkpt><trkpt lat="45.5927218" lon="12.266492"><ele>3.5</ele><time>2026-04-19T15:25:32.839Z</time></trkpt><trkpt lat="45.5926876" lon="12.2669496"><ele>4.0</ele><time>2026-04-19T15:25:33.859Z</time></trkpt><trkpt lat="45.5926485" lon="12.2673984"><ele>4.0</ele><time>2026-04-19T15:25:34.851Z</time></trkpt><trkpt lat="45.5926056" lon="12.2678511"><ele>4.0</ele><time>2026-04-19T15:25:35.854Z</time></trkpt><trkpt lat="45.5925578" lon="12.2683008"><ele>4.0</ele><time>2026-04-19T15:25:36.843Z</time></trkpt><trkpt lat="45.592504" lon="12.2687456"><ele>4.0</ele><time>2026-04-19T15:25:37.848Z</time></trkpt><trkpt lat="45.5924446" lon="12.2691816"><ele>4.0</ele><time>2026-04-19T15:25:38.839Z</time></trkpt><trkpt lat="45.5923795" lon="12.2696125"><ele>4.0</ele><time>2026-04-19T15:25:39.838Z</time></trkpt><trkpt lat="45.5923071" lon="12.2700469"><ele>4.0</ele><time>2026-04-19T15:25:40.84Z</time></trkpt><trkpt lat="45.5922311" lon="12.2704844"><ele>4.0</ele><time>2026-04-19T15:25:41.834Z</time></trkpt><trkpt lat="45.592154" lon="12.2709263"><ele>3.5</ele><time>2026-04-19T15:25:42.83Z</time></trkpt><trkpt lat="45.5920719" lon="12.2713723"><ele>3.0</ele><time>2026-04-19T15:25:43.847Z</time></trkpt><trkpt lat="45.5919848" lon="12.2718114"><ele>3.5</ele><time>2026-04-19T15:25:44.846Z</time></trkpt><trkpt lat="45.5918932" lon="12.2722508"><ele>4.0</ele><time>2026-04-19T15:25:45.855Z</time></trkpt><trkpt lat="45.5917994" lon="12.2726851"><ele>3.5</ele><time>2026-04-19T15:25:46.863Z</time></trkpt><trkpt lat="45.5917059" lon="12.2731166"><ele>3.0</ele><time>2026-04-19T15:25:47.844Z</time></trkpt><trkpt lat="45.5916071" lon="12.2735527"><ele>3.5</ele><time>2026-04-19T15:25:48.852Z</time></trkpt><trkpt lat="45.5915063" lon="12.2739817"><ele>4.0</ele><time>2026-04-19T15:25:49.871Z</time></trkpt><trkpt lat="45.5914121" lon="12.2744067"><ele>3.5</ele><time>2026-04-19T15:25:50.84Z</time></trkpt><trkpt lat="45.5913197" lon="12.2748397"><ele>3.0</ele><time>2026-04-19T15:25:51.861Z</time></trkpt><trkpt lat="45.5912324" lon="12.2752641"><ele>3.5</ele><time>2026-04-19T15:25:52.842Z</time></trkpt><trkpt lat="45.591144" lon="12.2756874"><ele>4.0</ele><time>2026-04-19T15:25:53.845Z</time></trkpt><trkpt lat="45.5910542" lon="12.2761058"><ele>4.0</ele><time>2026-04-19T15:25:54.86Z</time></trkpt><trkpt lat="45.5909647" lon="12.2765148"><ele>4.0</ele><time>2026-04-19T15:25:55.862Z</time></trkpt><trkpt lat="45.590876" lon="12.2769172"><ele>4.0</ele><time>2026-04-19T15:25:56.851Z</time></trkpt><trkpt lat="45.5907864" lon="12.2773192"><ele>4.0</ele><time>2026-04-19T15:25:57.85Z</time></trkpt><trkpt lat="45.5906993" lon="12.2777147"><ele>4.5</ele><time>2026-04-19T15:25:58.844Z</time></trkpt><trkpt lat="45.5906145" lon="12.2781069"><ele>5.0</ele><time>2026-04-19T15:25:59.851Z</time></trkpt><trkpt lat="45.5905314" lon="12.2784968"><ele>5.0</ele><time>2026-04-19T15:26:00.842Z</time></trkpt><trkpt lat="45.5904488" lon="12.2788873"><ele>5.0</ele><time>2026-04-19T15:26:01.848Z</time></trkpt><trkpt lat="45.5903688" lon="12.2792701"><ele>5.0</ele><time>2026-04-19T15:26:02.836Z</time></trkpt><trkpt lat="45.5902891" lon="12.2796622"><ele>5.0</ele><time>2026-04-19T15:26:03.842Z</time></trkpt><trkpt lat="45.590211" lon="12.2800549"><ele>5.0</ele><time>2026-04-19T15:26:04.848Z</time></trkpt><trkpt lat="45.5901324" lon="12.2804513"><ele>5.0</ele><time>2026-04-19T15:26:05.838Z</time></trkpt><trkpt lat="45.5900529" lon="12.2808508"><ele>5.0</ele><time>2026-04-19T15:26:06.854Z</time></trkpt><trkpt lat="45.5899733" lon="12.2812447"><ele>5.0</ele><time>2026-04-19T15:26:07.841Z</time></trkpt><trkpt lat="45.5898927" lon="12.2816431"><ele>4.0</ele><time>2026-04-19T15:26:08.849Z</time></trkpt><trkpt lat="45.5898117" lon="12.2820431"><ele>3.0</ele><time>2026-04-19T15:26:09.855Z</time></trkpt><trkpt lat="45.5897325" lon="12.2824457"><ele>3.0</ele><time>2026-04-19T15:26:10.847Z</time></trkpt><trkpt lat="45.5896512" lon="12.2828541"><ele>3.0</ele><time>2026-04-19T15:26:11.848Z</time></trkpt><trkpt lat="45.5895668" lon="12.2832541"><ele>3.0</ele><time>2026-04-19T15:26:12.85Z</time></trkpt><trkpt lat="45.5894838" lon="12.2836545"><ele>3.0</ele><time>2026-04-19T15:26:13.84Z</time></trkpt><trkpt lat="45.5894072" lon="12.2840453"><ele>3.5</ele><time>2026-04-19T15:26:14.844Z</time></trkpt><trkpt lat="45.5893321" lon="12.2844094"><ele>4.0</ele><time>2026-04-19T15:26:15.843Z</time></trkpt><trkpt lat="45.5892581" lon="12.2847483"><ele>5.0</ele><time>2026-04-19T15:26:16.856Z</time></trkpt><trkpt lat="45.5891873" lon="12.2850665"><ele>6.0</ele><time>2026-04-19T15:26:17.854Z</time></trkpt><trkpt lat="45.5891171" lon="12.2853752"><ele>5.5</ele><time>2026-04-19T15:26:18.842Z</time></trkpt><trkpt lat="45.5890448" lon="12.2856933"><ele>5.0</ele><time>2026-04-19T15:26:19.844Z</time></trkpt><trkpt lat="45.5889693" lon="12.2860304"><ele>5.0</ele><time>2026-04-19T15:26:20.854Z</time></trkpt><trkpt lat="45.5888873" lon="12.2863759"><ele>5.0</ele><time>2026-04-19T15:26:21.849Z</time></trkpt><trkpt lat="45.5887985" lon="12.2867292"><ele>5.0</ele><time>2026-04-19T15:26:22.851Z</time></trkpt><trkpt lat="45.5887071" lon="12.2870794"><ele>5.0</ele><time>2026-04-19T15:26:23.858Z</time></trkpt><trkpt lat="45.5886141" lon="12.2874228"><ele>5.0</ele><time>2026-04-19T15:26:24.858Z</time></trkpt><trkpt lat="45.5885174" lon="12.2877527"><ele>5.0</ele><time>2026-04-19T15:26:25.844Z</time></trkpt><trkpt lat="45.5884036" lon="12.2880615"><ele>4.0</ele><time>2026-04-19T15:26:26.86Z</time></trkpt><trkpt lat="45.5882921" lon="12.2883476"><ele>3.0</ele><time>2026-04-19T15:26:27.839Z</time></trkpt><trkpt lat="45.5881608" lon="12.2886025"><ele>3.0</ele><time>2026-04-19T15:26:28.843Z</time></trkpt><trkpt lat="45.5880231" lon="12.2888458"><ele>3.0</ele><time>2026-04-19T15:26:29.855Z</time></trkpt><trkpt lat="45.587866" lon="12.2890575"><ele>3.0</ele><time>2026-04-19T15:26:30.846Z</time></trkpt><trkpt lat="45.5876904" lon="12.2892363"><ele>3.333333333333333</ele><time>2026-04-19T15:26:31.84Z</time></trkpt><trkpt lat="45.5875028" lon="12.289391"><ele>3.6666666666666665</ele><time>2026-04-19T15:26:32.849Z</time></trkpt><trkpt lat="45.5873042" lon="12.2895145"><ele>4.0</ele><time>2026-04-19T15:26:33.847Z</time></trkpt><trkpt lat="45.5870989" lon="12.2896116"><ele>3.6666666666666665</ele><time>2026-04-19T15:26:34.859Z</time></trkpt><trkpt lat="45.586885" lon="12.2896768"><ele>3.333333333333333</ele><time>2026-04-19T15:26:35.839Z</time></trkpt><trkpt lat="45.5866602" lon="12.2896841"><ele>3.0</ele><time>2026-04-19T15:26:36.849Z</time></trkpt><trkpt lat="45.5864387" lon="12.2896731"><ele>3.0</ele><time>2026-04-19T15:26:37.852Z</time></trkpt><trkpt lat="45.5862204" lon="12.2896207"><ele>3.0</ele><time>2026-04-19T15:26:38.835Z</time></trkpt><trkpt lat="45.5860062" lon="12.2895663"><ele>3.0</ele><time>2026-04-19T15:26:39.854Z</time></trkpt><trkpt lat="45.5857918" lon="12.2895186"><ele>3.0</ele><time>2026-04-19T15:26:40.844Z</time></trkpt><trkpt lat="45.5855712" lon="12.2894609"><ele>3.0</ele><time>2026-04-19T15:26:41.838Z</time></trkpt><trkpt lat="45.5853482" lon="12.2893784"><ele>3.333333333333333</ele><time>2026-04-19T15:26:42.841Z</time></trkpt><trkpt lat="45.585122" lon="12.2893104"><ele>3.6666666666666665</ele><time>2026-04-19T15:26:43.854Z</time></trkpt><trkpt lat="45.5849097" lon="12.2892433"><ele>4.0</ele><time>2026-04-19T15:26:44.842Z</time></trkpt><trkpt lat="45.5847053" lon="12.2891837"><ele>3.6666666666666665</ele><time>2026-04-19T15:26:45.837Z</time></trkpt><trkpt lat="45.584495" lon="12.2891256"><ele>3.333333333333333</ele><time>2026-04-19T15:26:46.859Z</time></trkpt><trkpt lat="45.584277" lon="12.2890647"><ele>3.0</ele><time>2026-04-19T15:26:47.862Z</time></trkpt><trkpt lat="45.5840497" lon="12.2890046"><ele>3.0</ele><time>2026-04-19T15:26:48.837Z</time></trkpt><trkpt lat="45.5838234" lon="12.2889419"><ele>3.0</ele><time>2026-04-19T15:26:49.849Z</time></trkpt><trkpt lat="45.5836022" lon="12.2888773"><ele>3.333333333333333</ele><time>2026-04-19T15:26:50.846Z</time></trkpt><trkpt lat="45.5833841" lon="12.2888104"><ele>3.6666666666666665</ele><time>2026-04-19T15:26:51.854Z</time></trkpt><trkpt lat="45.5831634" lon="12.288743"><ele>4.0</ele><time>2026-04-19T15:26:52.842Z</time></trkpt><trkpt lat="45.5829368" lon="12.288676"><ele>4.0</ele><time>2026-04-19T15:26:53.839Z</time></trkpt><trkpt lat="45.5827057" lon="12.2886081"><ele>4.0</ele><time>2026-04-19T15:26:54.842Z</time></trkpt><trkpt lat="45.5824717" lon="12.2885415"><ele>4.0</ele><time>2026-04-19T15:26:55.855Z</time></trkpt><trkpt lat="45.5822341" lon="12.2884851"><ele>4.0</ele><time>2026-04-19T15:26:56.831Z</time></trkpt><trkpt lat="45.5819946" lon="12.2884441"><ele>3.5</ele><time>2026-04-19T15:26:57.84Z</time></trkpt><trkpt lat="45.5817584" lon="12.2884292"><ele>3.0</ele><time>2026-04-19T15:26:58.838Z</time></trkpt><trkpt lat="45.5815341" lon="12.288461"><ele>3.0</ele><time>2026-04-19T15:26:59.855Z</time></trkpt><trkpt lat="45.5813201" lon="12.2885013"><ele>3.0</ele><time>2026-04-19T15:27:00.841Z</time></trkpt><trkpt lat="45.5811157" lon="12.2885765"><ele>3.0</ele><time>2026-04-19T15:27:01.839Z</time></trkpt><trkpt lat="45.5809229" lon="12.2886505"><ele>2.6666666666666665</ele><time>2026-04-19T15:27:02.845Z</time></trkpt><trkpt lat="45.5807412" lon="12.2887104"><ele>2.333333333333333</ele><time>2026-04-19T15:27:03.85Z</time></trkpt><trkpt lat="45.5805645" lon="12.2887419"><ele>2.0</ele><time>2026-04-19T15:27:04.831Z</time></trkpt><trkpt lat="45.5803842" lon="12.2887564"><ele>2.0</ele><time>2026-04-19T15:27:05.847Z</time></trkpt><trkpt lat="45.5801975" lon="12.2887428"><ele>2.0</ele><time>2026-04-19T15:27:06.843Z</time></trkpt><trkpt lat="45.5800085" lon="12.2887021"><ele>2.0</ele><time>2026-04-19T15:27:07.84Z</time></trkpt><trkpt lat="45.5798231" lon="12.2886352"><ele>2.0</ele><time>2026-04-19T15:27:08.85Z</time></trkpt><trkpt lat="45.5796413" lon="12.2885493"><ele>2.0</ele><time>2026-04-19T15:27:09.835Z</time></trkpt><trkpt lat="45.5794645" lon="12.2884424"><ele>2.0</ele><time>2026-04-19T15:27:10.87Z</time></trkpt><trkpt lat="45.579294" lon="12.2883099"><ele>2.0</ele><time>2026-04-19T15:27:11.854Z</time></trkpt><trkpt lat="45.5791285" lon="12.2881595"><ele>2.0</ele><time>2026-04-19T15:27:12.86Z</time></trkpt><trkpt lat="45.5789722" lon="12.2879954"><ele>2.0</ele><time>2026-04-19T15:27:13.869Z</time></trkpt><trkpt lat="45.5788306" lon="12.2878173"><ele>2.0</ele><time>2026-04-19T15:27:14.888Z</time></trkpt><trkpt lat="45.578697" lon="12.2876351"><ele>2.0</ele><time>2026-04-19T15:27:15.858Z</time></trkpt><trkpt lat="45.5785769" lon="12.2874357"><ele>2.0</ele><time>2026-04-19T15:27:16.845Z</time></trkpt><trkpt lat="45.5784623" lon="12.2872325"><ele>2.333333333333333</ele><time>2026-04-19T15:27:17.841Z</time></trkpt><trkpt lat="45.5783487" lon="12.2870268"><ele>2.6666666666666665</ele><time>2026-04-19T15:27:18.84Z</time></trkpt><trkpt lat="45.5782314" lon="12.2868222"><ele>3.0</ele><time>2026-04-19T15:27:19.841Z</time></trkpt><trkpt lat="45.5781123" lon="12.286612"><ele>3.0</ele><time>2026-04-19T15:27:20.847Z</time></trkpt><trkpt lat="45.5779862" lon="12.2864008"><ele>3.0</ele><time>2026-04-19T15:27:21.854Z</time></trkpt><trkpt lat="45.5778606" lon="12.2861768"><ele>3.0</ele><time>2026-04-19T15:27:22.868Z</time></trkpt><trkpt lat="45.577726" lon="12.2859428"><ele>3.0</ele><time>2026-04-19T15:27:23.839Z</time></trkpt><trkpt lat="45.5775914" lon="12.2857004"><ele>3.0</ele><time>2026-04-19T15:27:24.845Z</time></trkpt><trkpt lat="45.5774629" lon="12.2854681"><ele>3.0</ele><time>2026-04-19T15:27:25.84Z</time></trkpt><trkpt lat="45.5773401" lon="12.285249"><ele>3.0</ele><time>2026-04-19T15:27:26.841Z</time></trkpt><trkpt lat="45.5772246" lon="12.2850408"><ele>3.0</ele><time>2026-04-19T15:27:27.856Z</time></trkpt><trkpt lat="45.577115" lon="12.2848401"><ele>3.0</ele><time>2026-04-19T15:27:28.85Z</time></trkpt><trkpt lat="45.5770172" lon="12.2846402"><ele>3.0</ele><time>2026-04-19T15:27:29.833Z</time></trkpt><trkpt lat="45.5769227" lon="12.2844573"><ele>3.0</ele><time>2026-04-19T15:27:30.856Z</time></trkpt><trkpt lat="45.5768394" lon="12.284294"><ele>3.0</ele><time>2026-04-19T15:27:31.845Z</time></trkpt><trkpt lat="45.5767684" lon="12.2841635"><ele>3.0</ele><time>2026-04-19T15:27:32.843Z</time></trkpt><trkpt lat="45.5767158" lon="12.2840524"><ele>3.0</ele><time>2026-04-19T15:27:33.84Z</time></trkpt><trkpt lat="45.5766584" lon="12.283962"><ele>3.0</ele><time>2026-04-19T15:27:34.837Z</time></trkpt><trkpt lat="45.5765983" lon="12.2838859"><ele>3.0</ele><time>2026-04-19T15:27:35.848Z</time></trkpt><trkpt lat="45.5765312" lon="12.2837951"><ele>3.0</ele><time>2026-04-19T15:27:36.839Z</time></trkpt><trkpt lat="45.5764638" lon="12.2836582"><ele>3.0</ele><time>2026-04-19T15:27:37.84Z</time></trkpt><trkpt lat="45.5763704" lon="12.2835077"><ele>3.0</ele><time>2026-04-19T15:27:38.848Z</time></trkpt><trkpt lat="45.5763175" lon="12.2832813"><ele>3.0</ele><time>2026-04-19T15:27:39.865Z</time></trkpt><trkpt lat="45.5762216" lon="12.2830649"><ele>3.0</ele><time>2026-04-19T15:27:40.858Z</time></trkpt><trkpt lat="45.576105" lon="12.28283"><ele>3.0</ele><time>2026-04-19T15:27:41.85Z</time></trkpt><trkpt lat="45.5759748" lon="12.282567"><ele>3.0</ele><time>2026-04-19T15:27:42.838Z</time></trkpt><trkpt lat="45.575835" lon="12.2822838"><ele>2.5</ele><time>2026-04-19T15:27:43.852Z</time></trkpt><trkpt lat="45.575688" lon="12.2819871"><ele>2.0</ele><time>2026-04-19T15:27:44.845Z</time></trkpt><trkpt lat="45.5755356" lon="12.2816864"><ele>2.0</ele><time>2026-04-19T15:27:45.836Z</time></trkpt><trkpt lat="45.5753789" lon="12.2813805"><ele>2.0</ele><time>2026-04-19T15:27:46.845Z</time></trkpt><trkpt lat="45.5752205" lon="12.2810691"><ele>2.0</ele><time>2026-04-19T15:27:47.834Z</time></trkpt><trkpt lat="45.5750597" lon="12.2807494"><ele>2.0</ele><time>2026-04-19T15:27:48.838Z</time></trkpt><trkpt lat="45.5748967" lon="12.2804297"><ele>2.0</ele><time>2026-04-19T15:27:49.843Z</time></trkpt><trkpt lat="45.5747321" lon="12.2801168"><ele>2.0</ele><time>2026-04-19T15:27:50.832Z</time></trkpt><trkpt lat="45.5745695" lon="12.2798142"><ele>3.5</ele><time>2026-04-19T15:27:51.861Z</time></trkpt><trkpt lat="45.5744117" lon="12.2795265"><ele>5.0</ele><time>2026-04-19T15:27:52.848Z</time></trkpt><trkpt lat="45.5742544" lon="12.2792486"><ele>5.0</ele><time>2026-04-19T15:27:53.857Z</time></trkpt><trkpt lat="45.5740873" lon="12.2789777"><ele>5.0</ele><time>2026-04-19T15:27:54.839Z</time></trkpt><trkpt lat="45.5739165" lon="12.2786985"><ele>4.0</ele><time>2026-04-19T15:27:55.837Z</time></trkpt><trkpt lat="45.5737363" lon="12.2784206"><ele>3.0</ele><time>2026-04-19T15:27:56.848Z</time></trkpt><trkpt lat="45.5735477" lon="12.2781489"><ele>3.0</ele><time>2026-04-19T15:27:57.855Z</time></trkpt><trkpt lat="45.5733477" lon="12.2778856"><ele>3.0</ele><time>2026-04-19T15:27:58.866Z</time></trkpt><trkpt lat="45.5731375" lon="12.2776297"><ele>3.0</ele><time>2026-04-19T15:27:59.839Z</time></trkpt><trkpt lat="45.5729221" lon="12.2773793"><ele>3.0</ele><time>2026-04-19T15:28:00.867Z</time></trkpt><trkpt lat="45.5727021" lon="12.277132"><ele>3.0</ele><time>2026-04-19T15:28:01.845Z</time></trkpt><trkpt lat="45.572476" lon="12.2768881"><ele>3.0</ele><time>2026-04-19T15:28:02.857Z</time></trkpt><trkpt lat="45.5722399" lon="12.2766602"><ele>3.0</ele><time>2026-04-19T15:28:03.842Z</time></trkpt><trkpt lat="45.5719931" lon="12.2764524"><ele>3.0</ele><time>2026-04-19T15:28:04.849Z</time></trkpt><trkpt lat="45.5717458" lon="12.276247"><ele>3.0</ele><time>2026-04-19T15:28:05.875Z</time></trkpt><trkpt lat="45.5714934" lon="12.2760541"><ele>3.0</ele><time>2026-04-19T15:28:06.841Z</time></trkpt><trkpt lat="45.5712357" lon="12.2758726"><ele>3.5</ele><time>2026-04-19T15:28:07.874Z</time></trkpt><trkpt lat="45.5709753" lon="12.2756976"><ele>4.0</ele><time>2026-04-19T15:28:08.848Z</time></trkpt><trkpt lat="45.5707092" lon="12.2755341"><ele>3.0</ele><time>2026-04-19T15:28:09.848Z</time></trkpt><trkpt lat="45.5704395" lon="12.2753797"><ele>2.0</ele><time>2026-04-19T15:28:10.852Z</time></trkpt><trkpt lat="45.5701702" lon="12.2752367"><ele>2.0</ele><time>2026-04-19T15:28:11.847Z</time></trkpt><trkpt lat="45.5699093" lon="12.2751076"><ele>2.0</ele><time>2026-04-19T15:28:12.848Z</time></trkpt><trkpt lat="45.5696618" lon="12.2749914"><ele>2.0</ele><time>2026-04-19T15:28:13.869Z</time></trkpt><trkpt lat="45.5694292" lon="12.2748755"><ele>2.0</ele><time>2026-04-19T15:28:14.848Z</time></trkpt><trkpt lat="45.5692138" lon="12.2747583"><ele>1.6666666666666665</ele><time>2026-04-19T15:28:15.844Z</time></trkpt><trkpt lat="45.5690224" lon="12.2746272"><ele>1.3333333333333333</ele><time>2026-04-19T15:28:16.838Z</time></trkpt><trkpt lat="45.5688551" lon="12.2744768"><ele>1.0</ele><time>2026-04-19T15:28:17.839Z</time></trkpt><trkpt lat="45.5687167" lon="12.2742844"><ele>1.6666666666666665</ele><time>2026-04-19T15:28:18.85Z</time></trkpt><trkpt lat="45.5685941" lon="12.2740783"><ele>2.3333333333333335</ele><time>2026-04-19T15:28:19.847Z</time></trkpt><trkpt lat="45.5685153" lon="12.273818"><ele>3.0</ele><time>2026-04-19T15:28:20.876Z</time></trkpt><trkpt lat="45.5684612" lon="12.273535"><ele>3.0</ele><time>2026-04-19T15:28:21.845Z</time></trkpt><trkpt lat="45.56843" lon="12.2732344"><ele>3.0</ele><time>2026-04-19T15:28:22.844Z</time></trkpt><trkpt lat="45.5684152" lon="12.2729143"><ele>3.0</ele><time>2026-04-19T15:28:23.844Z</time></trkpt><trkpt lat="45.5684028" lon="12.2725869"><ele>2.5</ele><time>2026-04-19T15:28:24.852Z</time></trkpt><trkpt lat="45.5683727" lon="12.2722581"><ele>2.0</ele><time>2026-04-19T15:28:25.863Z</time></trkpt><trkpt lat="45.5683319" lon="12.2719245"><ele>2.0</ele><time>2026-04-19T15:28:26.857Z</time></trkpt><trkpt lat="45.5682905" lon="12.2715835"><ele>2.0</ele><time>2026-04-19T15:28:27.846Z</time></trkpt><trkpt lat="45.5682445" lon="12.2712367"><ele>2.0</ele><time>2026-04-19T15:28:28.851Z</time></trkpt><trkpt lat="45.5682006" lon="12.2708828"><ele>2.0</ele><time>2026-04-19T15:28:29.834Z</time></trkpt><trkpt lat="45.5681498" lon="12.2705171"><ele>2.0</ele><time>2026-04-19T15:28:30.856Z</time></trkpt><trkpt lat="45.5680943" lon="12.2701484"><ele>2.0</ele><time>2026-04-19T15:28:31.852Z</time></trkpt><trkpt lat="45.5680383" lon="12.269785"><ele>2.0</ele><time>2026-04-19T15:28:32.848Z</time></trkpt><trkpt lat="45.5679959" lon="12.2694313"><ele>2.0</ele><time>2026-04-19T15:28:33.836Z</time></trkpt><trkpt lat="45.5679535" lon="12.2690933"><ele>2.5</ele><time>2026-04-19T15:28:34.843Z</time></trkpt><trkpt lat="45.567923" lon="12.2687552"><ele>3.0</ele><time>2026-04-19T15:28:35.843Z</time></trkpt><trkpt lat="45.5679013" lon="12.2684186"><ele>2.5</ele><time>2026-04-19T15:28:36.848Z</time></trkpt><trkpt lat="45.5678882" lon="12.2680862"><ele>2.0</ele><time>2026-04-19T15:28:37.864Z</time></trkpt><trkpt lat="45.5678773" lon="12.2677583"><ele>2.0</ele><time>2026-04-19T15:28:38.85Z</time></trkpt><trkpt lat="45.5678686" lon="12.2674357"><ele>2.0</ele><time>2026-04-19T15:28:39.837Z</time></trkpt><trkpt lat="45.567873" lon="12.2671159"><ele>2.333333333333333</ele><time>2026-04-19T15:28:40.835Z</time></trkpt><trkpt lat="45.5678823" lon="12.2667987"><ele>2.6666666666666665</ele><time>2026-04-19T15:28:41.837Z</time></trkpt><trkpt lat="45.5678909" lon="12.2664825"><ele>3.0</ele><time>2026-04-19T15:28:42.847Z</time></trkpt><trkpt lat="45.5679032" lon="12.2661679"><ele>3.0</ele><time>2026-04-19T15:28:43.843Z</time></trkpt><trkpt lat="45.5679242" lon="12.2658605"><ele>3.0</ele><time>2026-04-19T15:28:44.844Z</time></trkpt><trkpt lat="45.5679527" lon="12.2655577"><ele>3.0</ele><time>2026-04-19T15:28:45.841Z</time></trkpt><trkpt lat="45.5679868" lon="12.2652645"><ele>2.6666666666666665</ele><time>2026-04-19T15:28:46.838Z</time></trkpt><trkpt lat="45.5680229" lon="12.2649774"><ele>2.333333333333333</ele><time>2026-04-19T15:28:47.862Z</time></trkpt><trkpt lat="45.56806" lon="12.2646949"><ele>2.0</ele><time>2026-04-19T15:28:48.851Z</time></trkpt><trkpt lat="45.5680998" lon="12.2644224"><ele>2.333333333333333</ele><time>2026-04-19T15:28:49.844Z</time></trkpt><trkpt lat="45.5681461" lon="12.2641672"><ele>2.6666666666666665</ele><time>2026-04-19T15:28:50.833Z</time></trkpt><trkpt lat="45.5681919" lon="12.2639164"><ele>3.0</ele><time>2026-04-19T15:28:51.845Z</time></trkpt><trkpt lat="45.5682377" lon="12.2636667"><ele>3.0</ele><time>2026-04-19T15:28:52.85Z</time></trkpt><trkpt lat="45.5682835" lon="12.263423"><ele>3.0</ele><time>2026-04-19T15:28:53.831Z</time></trkpt><trkpt lat="45.5683284" lon="12.2631971"><ele>3.0</ele><time>2026-04-19T15:28:54.843Z</time></trkpt><trkpt lat="45.5683664" lon="12.2629893"><ele>2.75</ele><time>2026-04-19T15:28:55.863Z</time></trkpt><trkpt lat="45.5684126" lon="12.2627994"><ele>2.5</ele><time>2026-04-19T15:28:56.864Z</time></trkpt><trkpt lat="45.5684661" lon="12.2626309"><ele>2.25</ele><time>2026-04-19T15:28:57.86Z</time></trkpt><trkpt lat="45.5685199" lon="12.2624971"><ele>2.0</ele><time>2026-04-19T15:28:58.863Z</time></trkpt><trkpt lat="45.5685611" lon="12.2624103"><ele>2.0</ele><time>2026-04-19T15:28:59.842Z</time></trkpt><trkpt lat="45.5686229" lon="12.2623254"><ele>2.0</ele><time>2026-04-19T15:29:01.839Z</time></trkpt><trkpt lat="45.5687002" lon="12.262267"><ele>2.0</ele><time>2026-04-19T15:29:03.855Z</time></trkpt><trkpt lat="45.5688271" lon="12.2622282"><ele>2.0</ele><time>2026-04-19T15:29:05.859Z</time></trkpt><trkpt lat="45.5689115" lon="12.2622412"><ele>2.0</ele><time>2026-04-19T15:29:06.851Z</time></trkpt><trkpt lat="45.5690086" lon="12.2622689"><ele>2.25</ele><time>2026-04-19T15:29:07.849Z</time></trkpt><trkpt lat="45.5691062" lon="12.262345"><ele>2.5</ele><time>2026-04-19T15:29:08.831Z</time></trkpt><trkpt lat="45.5692034" lon="12.2624437"><ele>2.75</ele><time>2026-04-19T15:29:09.839Z</time></trkpt><trkpt lat="45.5693042" lon="12.2625478"><ele>3.0</ele><time>2026-04-19T15:29:10.836Z</time></trkpt><trkpt lat="45.5694128" lon="12.2626683"><ele>2.6666666666666665</ele><time>2026-04-19T15:29:11.834Z</time></trkpt><trkpt lat="45.5695368" lon="12.2627985"><ele>2.333333333333333</ele><time>2026-04-19T15:29:12.838Z</time></trkpt><trkpt lat="45.5696779" lon="12.262933"><ele>2.0</ele><time>2026-04-19T15:29:13.831Z</time></trkpt><trkpt lat="45.5698275" lon="12.2630784"><ele>2.6666666666666665</ele><time>2026-04-19T15:29:14.865Z</time></trkpt><trkpt lat="45.5699741" lon="12.2632346"><ele>3.333333333333333</ele><time>2026-04-19T15:29:15.839Z</time></trkpt><trkpt lat="45.570119" lon="12.2633891"><ele>4.0</ele><time>2026-04-19T15:29:16.834Z</time></trkpt><trkpt lat="45.5702658" lon="12.2635342"><ele>4.0</ele><time>2026-04-19T15:29:17.841Z</time></trkpt><trkpt lat="45.5704107" lon="12.2636854"><ele>4.0</ele><time>2026-04-19T15:29:18.84Z</time></trkpt><trkpt lat="45.5705563" lon="12.2638367"><ele>4.0</ele><time>2026-04-19T15:29:19.871Z</time></trkpt><trkpt lat="45.5707045" lon="12.2639829"><ele>4.0</ele><time>2026-04-19T15:29:20.833Z</time></trkpt><trkpt lat="45.5708514" lon="12.2641332"><ele>4.0</ele><time>2026-04-19T15:29:21.855Z</time></trkpt><trkpt lat="45.5709979" lon="12.2642857"><ele>4.0</ele><time>2026-04-19T15:29:22.842Z</time></trkpt><trkpt lat="45.5711428" lon="12.2644377"><ele>4.333333333333333</ele><time>2026-04-19T15:29:23.833Z</time></trkpt><trkpt lat="45.5712882" lon="12.2645848"><ele>4.666666666666667</ele><time>2026-04-19T15:29:24.85Z</time></trkpt><trkpt lat="45.5714363" lon="12.2647312"><ele>5.0</ele><time>2026-04-19T15:29:25.849Z</time></trkpt><trkpt lat="45.5715819" lon="12.2648867"><ele>5.0</ele><time>2026-04-19T15:29:26.84Z</time></trkpt><trkpt lat="45.5717302" lon="12.2650423"><ele>5.0</ele><time>2026-04-19T15:29:27.857Z</time></trkpt><trkpt lat="45.5718787" lon="12.2652003"><ele>5.0</ele><time>2026-04-19T15:29:28.868Z</time></trkpt><trkpt lat="45.572028" lon="12.265357"><ele>5.0</ele><time>2026-04-19T15:29:29.846Z</time></trkpt><trkpt lat="45.5721793" lon="12.2655123"><ele>5.0</ele><time>2026-04-19T15:29:30.849Z</time></trkpt><trkpt lat="45.5723321" lon="12.2656681"><ele>5.0</ele><time>2026-04-19T15:29:31.842Z</time></trkpt><trkpt lat="45.572486" lon="12.2658251"><ele>5.0</ele><time>2026-04-19T15:29:32.848Z</time></trkpt><trkpt lat="45.5726403" lon="12.2659817"><ele>5.0</ele><time>2026-04-19T15:29:33.834Z</time></trkpt><trkpt lat="45.5727939" lon="12.2661356"><ele>5.0</ele><time>2026-04-19T15:29:34.836Z</time></trkpt><trkpt lat="45.5729445" lon="12.2662908"><ele>4.333333333333334</ele><time>2026-04-19T15:29:35.838Z</time></trkpt><trkpt lat="45.5730915" lon="12.2664482"><ele>3.666666666666667</ele><time>2026-04-19T15:29:36.849Z</time></trkpt><trkpt lat="45.5732368" lon="12.266605"><ele>3.0</ele><time>2026-04-19T15:29:37.849Z</time></trkpt><trkpt lat="45.5733838" lon="12.2667547"><ele>3.0</ele><time>2026-04-19T15:29:38.853Z</time></trkpt><trkpt lat="45.5735341" lon="12.2668981"><ele>3.0</ele><time>2026-04-19T15:29:39.839Z</time></trkpt><trkpt lat="45.5736809" lon="12.2670498"><ele>3.0</ele><time>2026-04-19T15:29:40.84Z</time></trkpt><trkpt lat="45.5738286" lon="12.267205"><ele>3.666666666666667</ele><time>2026-04-19T15:29:41.837Z</time></trkpt><trkpt lat="45.5739786" lon="12.2673629"><ele>4.333333333333334</ele><time>2026-04-19T15:29:42.841Z</time></trkpt><trkpt lat="45.5741303" lon="12.2675228"><ele>5.0</ele><time>2026-04-19T15:29:43.836Z</time></trkpt><trkpt lat="45.5742819" lon="12.2676855"><ele>5.0</ele><time>2026-04-19T15:29:44.833Z</time></trkpt><trkpt lat="45.5744391" lon="12.2678408"><ele>5.0</ele><time>2026-04-19T15:29:45.841Z</time></trkpt><trkpt lat="45.5745955" lon="12.268003"><ele>5.0</ele><time>2026-04-19T15:29:46.834Z</time></trkpt><trkpt lat="45.5747594" lon="12.2681516"><ele>4.666666666666667</ele><time>2026-04-19T15:29:47.83Z</time></trkpt><trkpt lat="45.5749174" lon="12.2683093"><ele>4.333333333333333</ele><time>2026-04-19T15:29:48.847Z</time></trkpt><trkpt lat="45.5750716" lon="12.2684703"><ele>4.0</ele><time>2026-04-19T15:29:49.842Z</time></trkpt><trkpt lat="45.5752251" lon="12.2686295"><ele>3.6666666666666665</ele><time>2026-04-19T15:29:50.839Z</time></trkpt><trkpt lat="45.5753737" lon="12.2687965"><ele>3.333333333333333</ele><time>2026-04-19T15:29:51.856Z</time></trkpt><trkpt lat="45.5755234" lon="12.2689583"><ele>3.0</ele><time>2026-04-19T15:29:52.856Z</time></trkpt><trkpt lat="45.5756757" lon="12.2691124"><ele>3.666666666666667</ele><time>2026-04-19T15:29:53.852Z</time></trkpt><trkpt lat="45.5758264" lon="12.2692642"><ele>4.333333333333334</ele><time>2026-04-19T15:29:54.836Z</time></trkpt><trkpt lat="45.5759757" lon="12.269416"><ele>5.0</ele><time>2026-04-19T15:29:55.862Z</time></trkpt><trkpt lat="45.5761237" lon="12.2695685"><ele>5.333333333333334</ele><time>2026-04-19T15:29:56.836Z</time></trkpt><trkpt lat="45.5762723" lon="12.2697188"><ele>5.666666666666667</ele><time>2026-04-19T15:29:57.84Z</time></trkpt><trkpt lat="45.5764189" lon="12.2698721"><ele>6.0</ele><time>2026-04-19T15:29:58.852Z</time></trkpt><trkpt lat="45.5765609" lon="12.2700331"><ele>5.333333333333333</ele><time>2026-04-19T15:29:59.83Z</time></trkpt><trkpt lat="45.5767073" lon="12.270186"><ele>4.666666666666666</ele><time>2026-04-19T15:30:00.876Z</time></trkpt><trkpt lat="45.5768556" lon="12.2703348"><ele>4.0</ele><time>2026-04-19T15:30:01.846Z</time></trkpt><trkpt lat="45.5770026" lon="12.2704897"><ele>4.333333333333333</ele><time>2026-04-19T15:30:02.844Z</time></trkpt><trkpt lat="45.5771531" lon="12.2706437"><ele>4.666666666666667</ele><time>2026-04-19T15:30:03.84Z</time></trkpt><trkpt lat="45.5773077" lon="12.2707972"><ele>5.0</ele><time>2026-04-19T15:30:04.837Z</time></trkpt><trkpt lat="45.5774588" lon="12.2709645"><ele>5.0</ele><time>2026-04-19T15:30:05.841Z</time></trkpt><trkpt lat="45.5776038" lon="12.2711463"><ele>5.0</ele><time>2026-04-19T15:30:06.857Z</time></trkpt><trkpt lat="45.5777432" lon="12.2713367"><ele>5.0</ele><time>2026-04-19T15:30:07.846Z</time></trkpt><trkpt lat="45.5778742" lon="12.2715376"><ele>5.0</ele><time>2026-04-19T15:30:08.86Z</time></trkpt><trkpt lat="45.5779911" lon="12.2717524"><ele>5.0</ele><time>2026-04-19T15:30:09.861Z</time></trkpt><trkpt lat="45.5781046" lon="12.2719653"><ele>5.0</ele><time>2026-04-19T15:30:10.859Z</time></trkpt><trkpt lat="45.5782098" lon="12.272183"><ele>5.0</ele><time>2026-04-19T15:30:11.86Z</time></trkpt><trkpt lat="45.5782991" lon="12.272416"><ele>5.0</ele><time>2026-04-19T15:30:12.83Z</time></trkpt><trkpt lat="45.5783909" lon="12.2726468"><ele>5.0</ele><time>2026-04-19T15:30:13.853Z</time></trkpt><trkpt lat="45.5784789" lon="12.2728836"><ele>5.0</ele><time>2026-04-19T15:30:14.841Z</time></trkpt><trkpt lat="45.5785707" lon="12.2731192"><ele>5.0</ele><time>2026-04-19T15:30:15.839Z</time></trkpt><trkpt lat="45.5786632" lon="12.2733557"><ele>5.0</ele><time>2026-04-19T15:30:16.843Z</time></trkpt><trkpt lat="45.5787562" lon="12.2735934"><ele>5.0</ele><time>2026-04-19T15:30:17.837Z</time></trkpt><trkpt lat="45.5788467" lon="12.2738311"><ele>5.0</ele><time>2026-04-19T15:30:18.84Z</time></trkpt><trkpt lat="45.5789378" lon="12.2740624"><ele>5.0</ele><time>2026-04-19T15:30:19.861Z</time></trkpt><trkpt lat="45.5790274" lon="12.2742906"><ele>4.333333333333334</ele><time>2026-04-19T15:30:20.861Z</time></trkpt><trkpt lat="45.5791177" lon="12.2745167"><ele>3.666666666666667</ele><time>2026-04-19T15:30:21.851Z</time></trkpt><trkpt lat="45.5792074" lon="12.2747444"><ele>3.0</ele><time>2026-04-19T15:30:22.826Z</time></trkpt><trkpt lat="45.5792983" lon="12.2749747"><ele>2.6666666666666665</ele><time>2026-04-19T15:30:23.844Z</time></trkpt><trkpt lat="45.5793895" lon="12.275208"><ele>2.333333333333333</ele><time>2026-04-19T15:30:24.848Z</time></trkpt><trkpt lat="45.5794842" lon="12.2754397"><ele>2.0</ele><time>2026-04-19T15:30:25.865Z</time></trkpt><trkpt lat="45.5795764" lon="12.2756757"><ele>2.6666666666666665</ele><time>2026-04-19T15:30:26.85Z</time></trkpt><trkpt lat="45.5796694" lon="12.2759132"><ele>3.333333333333333</ele><time>2026-04-19T15:30:27.861Z</time></trkpt><trkpt lat="45.5797651" lon="12.2761499"><ele>4.0</ele><time>2026-04-19T15:30:28.856Z</time></trkpt><trkpt lat="45.5798591" lon="12.2763903"><ele>4.0</ele><time>2026-04-19T15:30:29.84Z</time></trkpt><trkpt lat="45.579955" lon="12.2766306"><ele>4.0</ele><time>2026-04-19T15:30:30.853Z</time></trkpt><trkpt lat="45.5800502" lon="12.2768686"><ele>4.0</ele><time>2026-04-19T15:30:31.837Z</time></trkpt><trkpt lat="45.5801543" lon="12.2770959"><ele>4.0</ele><time>2026-04-19T15:30:32.88Z</time></trkpt><trkpt lat="45.58027" lon="12.2773119"><ele>4.0</ele><time>2026-04-19T15:30:33.83Z</time></trkpt><trkpt lat="45.5803941" lon="12.2775165"><ele>4.0</ele><time>2026-04-19T15:30:34.859Z</time></trkpt><trkpt lat="45.5805212" lon="12.2777086"><ele>4.333333333333333</ele><time>2026-04-19T15:30:35.856Z</time></trkpt><trkpt lat="45.580645" lon="12.2778919"><ele>4.666666666666667</ele><time>2026-04-19T15:30:36.861Z</time></trkpt><trkpt lat="45.5807679" lon="12.2780677"><ele>5.0</ele><time>2026-04-19T15:30:37.849Z</time></trkpt><trkpt lat="45.5808898" lon="12.278242"><ele>5.0</ele><time>2026-04-19T15:30:38.848Z</time></trkpt><trkpt lat="45.5810089" lon="12.2784197"><ele>5.0</ele><time>2026-04-19T15:30:39.853Z</time></trkpt><trkpt lat="45.5811294" lon="12.2785948"><ele>5.0</ele><time>2026-04-19T15:30:40.849Z</time></trkpt><trkpt lat="45.5812492" lon="12.2787703"><ele>4.333333333333334</ele><time>2026-04-19T15:30:41.85Z</time></trkpt><trkpt lat="45.581368" lon="12.2789476"><ele>3.666666666666667</ele><time>2026-04-19T15:30:42.837Z</time></trkpt><trkpt lat="45.581489" lon="12.279121"><ele>3.0</ele><time>2026-04-19T15:30:43.855Z</time></trkpt><trkpt lat="45.5816064" lon="12.2792969"><ele>3.0</ele><time>2026-04-19T15:30:44.836Z</time></trkpt><trkpt lat="45.581716" lon="12.2794808"><ele>3.0</ele><time>2026-04-19T15:30:45.849Z</time></trkpt><trkpt lat="45.5818248" lon="12.2796681"><ele>3.0</ele><time>2026-04-19T15:30:46.859Z</time></trkpt><trkpt lat="45.5819353" lon="12.2798546"><ele>3.0</ele><time>2026-04-19T15:30:47.863Z</time></trkpt><trkpt lat="45.5820464" lon="12.2800373"><ele>3.0</ele><time>2026-04-19T15:30:48.853Z</time></trkpt><trkpt lat="45.5821505" lon="12.2802219"><ele>3.0</ele><time>2026-04-19T15:30:49.855Z</time></trkpt><trkpt lat="45.5822509" lon="12.2804074"><ele>3.0</ele><time>2026-04-19T15:30:50.858Z</time></trkpt><trkpt lat="45.5823501" lon="12.280592"><ele>3.0</ele><time>2026-04-19T15:30:51.869Z</time></trkpt><trkpt lat="45.5824485" lon="12.280769"><ele>3.0</ele><time>2026-04-19T15:30:52.857Z</time></trkpt><trkpt lat="45.582546" lon="12.2809393"><ele>3.0</ele><time>2026-04-19T15:30:53.862Z</time></trkpt><trkpt lat="45.5826463" lon="12.2811043"><ele>3.0</ele><time>2026-04-19T15:30:54.86Z</time></trkpt><trkpt lat="45.5827438" lon="12.2812693"><ele>3.0</ele><time>2026-04-19T15:30:55.842Z</time></trkpt><trkpt lat="45.582842" lon="12.2814331"><ele>3.0</ele><time>2026-04-19T15:30:56.862Z</time></trkpt><trkpt lat="45.5829396" lon="12.281598"><ele>3.0</ele><time>2026-04-19T15:30:57.868Z</time></trkpt><trkpt lat="45.583037" lon="12.2817595"><ele>3.0</ele><time>2026-04-19T15:30:58.869Z</time></trkpt><trkpt lat="45.5831286" lon="12.2819199"><ele>3.0</ele><time>2026-04-19T15:30:59.856Z</time></trkpt><trkpt lat="45.5832161" lon="12.2820715"><ele>3.0</ele><time>2026-04-19T15:31:00.835Z</time></trkpt><trkpt lat="45.5832975" lon="12.2822131"><ele>3.0</ele><time>2026-04-19T15:31:01.835Z</time></trkpt><trkpt lat="45.5833744" lon="12.2823444"><ele>3.0</ele><time>2026-04-19T15:31:02.836Z</time></trkpt><trkpt lat="45.5834488" lon="12.2824695"><ele>3.0</ele><time>2026-04-19T15:31:03.838Z</time></trkpt><trkpt lat="45.583522" lon="12.2825909"><ele>3.0</ele><time>2026-04-19T15:31:04.858Z</time></trkpt><trkpt lat="45.5835937" lon="12.2827085"><ele>3.0</ele><time>2026-04-19T15:31:05.858Z</time></trkpt><trkpt lat="45.5836586" lon="12.2828222"><ele>3.0</ele><time>2026-04-19T15:31:06.835Z</time></trkpt><trkpt lat="45.5837175" lon="12.2829258"><ele>3.0</ele><time>2026-04-19T15:31:07.831Z</time></trkpt><trkpt lat="45.5837727" lon="12.2830252"><ele>3.0</ele><time>2026-04-19T15:31:08.847Z</time></trkpt><trkpt lat="45.5838251" lon="12.2831256"><ele>3.0</ele><time>2026-04-19T15:31:09.83Z</time></trkpt><trkpt lat="45.5838777" lon="12.2832203"><ele>3.0</ele><time>2026-04-19T15:31:10.838Z</time></trkpt><trkpt lat="45.5839241" lon="12.2833143"><ele>3.0</ele><time>2026-04-19T15:31:11.84Z</time></trkpt><trkpt lat="45.5839615" lon="12.2834107"><ele>3.0</ele><time>2026-04-19T15:31:12.865Z</time></trkpt><trkpt lat="45.5839991" lon="12.2835008"><ele>3.0</ele><time>2026-04-19T15:31:13.858Z</time></trkpt><trkpt lat="45.584034" lon="12.28359"><ele>3.0</ele><time>2026-04-19T15:31:14.854Z</time></trkpt><trkpt lat="45.5840684" lon="12.2836759"><ele>3.0</ele><time>2026-04-19T15:31:15.839Z</time></trkpt><trkpt lat="45.5840967" lon="12.2837632"><ele>3.0</ele><time>2026-04-19T15:31:16.846Z</time></trkpt><trkpt lat="45.5841139" lon="12.283851"><ele>3.0</ele><time>2026-04-19T15:31:17.859Z</time></trkpt><trkpt lat="45.584104" lon="12.2839436"><ele>3.0</ele><time>2026-04-19T15:31:18.853Z</time></trkpt><trkpt lat="45.5840763" lon="12.2840418"><ele>3.0</ele><time>2026-04-19T15:31:19.853Z</time></trkpt><trkpt lat="45.5840336" lon="12.284149"><ele>3.0</ele><time>2026-04-19T15:31:20.839Z</time></trkpt><trkpt lat="45.583995" lon="12.2842738"><ele>3.0</ele><time>2026-04-19T15:31:21.84Z</time></trkpt><trkpt lat="45.5839871" lon="12.2844195"><ele>3.0</ele><time>2026-04-19T15:31:22.844Z</time></trkpt><trkpt lat="45.5839934" lon="12.2845598"><ele>3.0</ele><time>2026-04-19T15:31:23.843Z</time></trkpt><trkpt lat="45.5840392" lon="12.2846931"><ele>3.0</ele><time>2026-04-19T15:31:24.844Z</time></trkpt><trkpt lat="45.5841112" lon="12.2848021"><ele>3.0</ele><time>2026-04-19T15:31:25.845Z</time></trkpt><trkpt lat="45.5841967" lon="12.2848857"><ele>3.2</ele><time>2026-04-19T15:31:26.851Z</time></trkpt><trkpt lat="45.5842911" lon="12.2849496"><ele>3.4</ele><time>2026-04-19T15:31:27.865Z</time></trkpt><trkpt lat="45.5843817" lon="12.2850253"><ele>3.6000000000000005</ele><time>2026-04-19T15:31:28.837Z</time></trkpt><trkpt lat="45.5844673" lon="12.2851342"><ele>3.8000000000000003</ele><time>2026-04-19T15:31:29.847Z</time></trkpt><trkpt lat="45.5845309" lon="12.2852855"><ele>4.0</ele><time>2026-04-19T15:31:30.861Z</time></trkpt><trkpt lat="45.5845841" lon="12.2854539"><ele>4.0</ele><time>2026-04-19T15:31:31.86Z</time></trkpt><trkpt lat="45.5846361" lon="12.285628"><ele>4.0</ele><time>2026-04-19T15:31:32.854Z</time></trkpt><trkpt lat="45.5846933" lon="12.2857998"><ele>4.0</ele><time>2026-04-19T15:31:33.853Z</time></trkpt><trkpt lat="45.5847493" lon="12.2859803"><ele>4.0</ele><time>2026-04-19T15:31:34.832Z</time></trkpt><trkpt lat="45.5848061" lon="12.2861654"><ele>4.0</ele><time>2026-04-19T15:31:35.841Z</time></trkpt><trkpt lat="45.5848613" lon="12.286359"><ele>4.0</ele><time>2026-04-19T15:31:36.856Z</time></trkpt><trkpt lat="45.5849211" lon="12.2865545"><ele>4.0</ele><time>2026-04-19T15:31:37.84Z</time></trkpt><trkpt lat="45.5849748" lon="12.2867564"><ele>4.0</ele><time>2026-04-19T15:31:38.844Z</time></trkpt><trkpt lat="45.5850244" lon="12.2869632"><ele>3.6666666666666665</ele><time>2026-04-19T15:31:39.833Z</time></trkpt><trkpt lat="45.5850669" lon="12.2871759"><ele>3.333333333333333</ele><time>2026-04-19T15:31:40.839Z</time></trkpt><trkpt lat="45.5851077" lon="12.2873898"><ele>3.0</ele><time>2026-04-19T15:31:41.841Z</time></trkpt><trkpt lat="45.5851536" lon="12.2876012"><ele>4.0</ele><time>2026-04-19T15:31:42.862Z</time></trkpt><trkpt lat="45.5851836" lon="12.2878179"><ele>5.0</ele><time>2026-04-19T15:31:43.851Z</time></trkpt><trkpt lat="45.5852124" lon="12.2880439"><ele>6.0</ele><time>2026-04-19T15:31:44.843Z</time></trkpt><trkpt lat="45.5852253" lon="12.2882774"><ele>6.0</ele><time>2026-04-19T15:31:45.845Z</time></trkpt><trkpt lat="45.5852273" lon="12.2885135"><ele>6.0</ele><time>2026-04-19T15:31:46.846Z</time></trkpt><trkpt lat="45.5852252" lon="12.2887535"><ele>6.0</ele><time>2026-04-19T15:31:47.85Z</time></trkpt><trkpt lat="45.5852175" lon="12.2889976"><ele>5.333333333333333</ele><time>2026-04-19T15:31:48.843Z</time></trkpt><trkpt lat="45.5852" lon="12.2892433"><ele>4.666666666666666</ele><time>2026-04-19T15:31:49.858Z</time></trkpt><trkpt lat="45.5851788" lon="12.2894943"><ele>4.0</ele><time>2026-04-19T15:31:50.839Z</time></trkpt><trkpt lat="45.5851595" lon="12.2897517"><ele>3.6666666666666665</ele><time>2026-04-19T15:31:51.848Z</time></trkpt><trkpt lat="45.585142" lon="12.2900126"><ele>3.333333333333333</ele><time>2026-04-19T15:31:52.869Z</time></trkpt><trkpt lat="45.5851409" lon="12.2902805"><ele>3.0</ele><time>2026-04-19T15:31:53.842Z</time></trkpt><trkpt lat="45.5851394" lon="12.2905496"><ele>3.0</ele><time>2026-04-19T15:31:54.845Z</time></trkpt><trkpt lat="45.5851393" lon="12.2908209"><ele>3.0</ele><time>2026-04-19T15:31:55.842Z</time></trkpt><trkpt lat="45.5851374" lon="12.2910953"><ele>3.0</ele><time>2026-04-19T15:31:56.841Z</time></trkpt><trkpt lat="45.5851395" lon="12.2913733"><ele>3.666666666666667</ele><time>2026-04-19T15:31:57.838Z</time></trkpt><trkpt lat="45.5851347" lon="12.2916481"><ele>4.333333333333334</ele><time>2026-04-19T15:31:58.855Z</time></trkpt><trkpt lat="45.5851338" lon="12.2919203"><ele>5.0</ele><time>2026-04-19T15:31:59.858Z</time></trkpt><trkpt lat="45.58513" lon="12.2921923"><ele>5.333333333333334</ele><time>2026-04-19T15:32:00.843Z</time></trkpt><trkpt lat="45.5851272" lon="12.2924655"><ele>5.666666666666667</ele><time>2026-04-19T15:32:01.859Z</time></trkpt><trkpt lat="45.5851282" lon="12.2927402"><ele>6.0</ele><time>2026-04-19T15:32:02.864Z</time></trkpt><trkpt lat="45.5851342" lon="12.2930163"><ele>5.666666666666667</ele><time>2026-04-19T15:32:03.839Z</time></trkpt><trkpt lat="45.5851443" lon="12.2932943"><ele>5.333333333333334</ele><time>2026-04-19T15:32:04.85Z</time></trkpt><trkpt lat="45.5851569" lon="12.2935729"><ele>5.0</ele><time>2026-04-19T15:32:05.852Z</time></trkpt><trkpt lat="45.5851725" lon="12.2938493"><ele>4.333333333333334</ele><time>2026-04-19T15:32:06.863Z</time></trkpt><trkpt lat="45.5851881" lon="12.2941215"><ele>3.666666666666667</ele><time>2026-04-19T15:32:07.873Z</time></trkpt><trkpt lat="45.5852038" lon="12.2943871"><ele>3.0</ele><time>2026-04-19T15:32:08.865Z</time></trkpt><trkpt lat="45.5852202" lon="12.2946474"><ele>3.333333333333333</ele><time>2026-04-19T15:32:09.857Z</time></trkpt><trkpt lat="45.585236" lon="12.2949072"><ele>3.6666666666666665</ele><time>2026-04-19T15:32:10.866Z</time></trkpt><trkpt lat="45.5852518" lon="12.2951635"><ele>4.0</ele><time>2026-04-19T15:32:11.853Z</time></trkpt><trkpt lat="45.5852621" lon="12.2954216"><ele>4.0</ele><time>2026-04-19T15:32:12.846Z</time></trkpt><trkpt lat="45.5852755" lon="12.2956782"><ele>4.0</ele><time>2026-04-19T15:32:13.857Z</time></trkpt><trkpt lat="45.585291" lon="12.2959342"><ele>4.0</ele><time>2026-04-19T15:32:14.852Z</time></trkpt><trkpt lat="45.5853089" lon="12.2961924"><ele>4.0</ele><time>2026-04-19T15:32:15.843Z</time></trkpt><trkpt lat="45.5853333" lon="12.2964502"><ele>4.0</ele><time>2026-04-19T15:32:16.858Z</time></trkpt><trkpt lat="45.5853529" lon="12.2967133"><ele>4.0</ele><time>2026-04-19T15:32:17.838Z</time></trkpt><trkpt lat="45.5853723" lon="12.296977"><ele>4.0</ele><time>2026-04-19T15:32:18.855Z</time></trkpt><trkpt lat="45.5853916" lon="12.2972361"><ele>4.0</ele><time>2026-04-19T15:32:19.859Z</time></trkpt><trkpt lat="45.585411" lon="12.2974927"><ele>4.0</ele><time>2026-04-19T15:32:20.844Z</time></trkpt><trkpt lat="45.5854215" lon="12.2977538"><ele>4.0</ele><time>2026-04-19T15:32:21.863Z</time></trkpt><trkpt lat="45.5854472" lon="12.298017"><ele>4.0</ele><time>2026-04-19T15:32:22.845Z</time></trkpt><trkpt lat="45.58547" lon="12.2982853"><ele>4.0</ele><time>2026-04-19T15:32:23.854Z</time></trkpt><trkpt lat="45.5854961" lon="12.2985538"><ele>4.0</ele><time>2026-04-19T15:32:24.859Z</time></trkpt><trkpt lat="45.5855174" lon="12.2988164"><ele>4.0</ele><time>2026-04-19T15:32:25.85Z</time></trkpt><trkpt lat="45.5855391" lon="12.2990611"><ele>4.0</ele><time>2026-04-19T15:32:26.867Z</time></trkpt><trkpt lat="45.5855585" lon="12.2992917"><ele>4.0</ele><time>2026-04-19T15:32:27.857Z</time></trkpt><trkpt lat="45.585578" lon="12.2995176"><ele>4.0</ele><time>2026-04-19T15:32:28.85Z</time></trkpt><trkpt lat="45.5855975" lon="12.2997414"><ele>4.0</ele><time>2026-04-19T15:32:29.865Z</time></trkpt><trkpt lat="45.5856164" lon="12.2999597"><ele>3.75</ele><time>2026-04-19T15:32:30.841Z</time></trkpt><trkpt lat="45.5856352" lon="12.3001685"><ele>3.5</ele><time>2026-04-19T15:32:31.879Z</time></trkpt><trkpt lat="45.5856483" lon="12.3003636"><ele>3.25</ele><time>2026-04-19T15:32:32.854Z</time></trkpt><trkpt lat="45.5856583" lon="12.3005475"><ele>3.0</ele><time>2026-04-19T15:32:33.85Z</time></trkpt><trkpt lat="45.5856653" lon="12.3007276"><ele>3.0</ele><time>2026-04-19T15:32:34.835Z</time></trkpt><trkpt lat="45.5856655" lon="12.3009082"><ele>3.0</ele><time>2026-04-19T15:32:35.858Z</time></trkpt><trkpt lat="45.585671" lon="12.3010902"><ele>3.0</ele><time>2026-04-19T15:32:36.85Z</time></trkpt><trkpt lat="45.5856818" lon="12.3012753"><ele>3.0</ele><time>2026-04-19T15:32:37.844Z</time></trkpt><trkpt lat="45.5857055" lon="12.3014636"><ele>3.0</ele><time>2026-04-19T15:32:38.856Z</time></trkpt><trkpt lat="45.5857447" lon="12.3016559"><ele>3.0</ele><time>2026-04-19T15:32:39.852Z</time></trkpt><trkpt lat="45.5858063" lon="12.3018381"><ele>3.0</ele><time>2026-04-19T15:32:40.855Z</time></trkpt><trkpt lat="45.5858743" lon="12.3020086"><ele>3.0</ele><time>2026-04-19T15:32:41.851Z</time></trkpt><trkpt lat="45.5859549" lon="12.302163"><ele>2.75</ele><time>2026-04-19T15:32:42.845Z</time></trkpt><trkpt lat="45.5860427" lon="12.3023087"><ele>2.5</ele><time>2026-04-19T15:32:43.842Z</time></trkpt><trkpt lat="45.5861413" lon="12.3024455"><ele>2.25</ele><time>2026-04-19T15:32:44.846Z</time></trkpt><trkpt lat="45.5862455" lon="12.3025844"><ele>2.0</ele><time>2026-04-19T15:32:45.877Z</time></trkpt><trkpt lat="45.5863472" lon="12.3027348"><ele>2.333333333333333</ele><time>2026-04-19T15:32:46.843Z</time></trkpt><trkpt lat="45.5864522" lon="12.3028986"><ele>2.6666666666666665</ele><time>2026-04-19T15:32:47.845Z</time></trkpt><trkpt lat="45.5865558" lon="12.3030779"><ele>3.0</ele><time>2026-04-19T15:32:48.855Z</time></trkpt><trkpt lat="45.5866555" lon="12.3032699"><ele>3.0</ele><time>2026-04-19T15:32:49.855Z</time></trkpt><trkpt lat="45.5867552" lon="12.3034704"><ele>3.0</ele><time>2026-04-19T15:32:50.858Z</time></trkpt><trkpt lat="45.5868602" lon="12.3036773"><ele>3.0</ele><time>2026-04-19T15:32:51.84Z</time></trkpt><trkpt lat="45.5869694" lon="12.3038908"><ele>3.0</ele><time>2026-04-19T15:32:52.858Z</time></trkpt><trkpt lat="45.5870842" lon="12.3041019"><ele>3.0</ele><time>2026-04-19T15:32:53.847Z</time></trkpt><trkpt lat="45.5871976" lon="12.3043141"><ele>3.0</ele><time>2026-04-19T15:32:54.851Z</time></trkpt><trkpt lat="45.5873071" lon="12.3045269"><ele>3.0</ele><time>2026-04-19T15:32:55.839Z</time></trkpt><trkpt lat="45.5874177" lon="12.3047389"><ele>3.0</ele><time>2026-04-19T15:32:56.859Z</time></trkpt><trkpt lat="45.5875264" lon="12.3049535"><ele>3.0</ele><time>2026-04-19T15:32:57.844Z</time></trkpt><trkpt lat="45.5876365" lon="12.3051683"><ele>2.6666666666666665</ele><time>2026-04-19T15:32:58.86Z</time></trkpt><trkpt lat="45.5877494" lon="12.3053816"><ele>2.333333333333333</ele><time>2026-04-19T15:32:59.858Z</time></trkpt><trkpt lat="45.5878613" lon="12.3055975"><ele>2.0</ele><time>2026-04-19T15:33:00.844Z</time></trkpt><trkpt lat="45.5879745" lon="12.305813"><ele>2.0</ele><time>2026-04-19T15:33:01.857Z</time></trkpt><trkpt lat="45.5880907" lon="12.3060225"><ele>2.0</ele><time>2026-04-19T15:33:02.867Z</time></trkpt><trkpt lat="45.5881976" lon="12.3062292"><ele>2.0</ele><time>2026-04-19T15:33:03.84Z</time></trkpt><trkpt lat="45.5882995" lon="12.306418"><ele>2.0</ele><time>2026-04-19T15:33:04.834Z</time></trkpt><trkpt lat="45.5883905" lon="12.3065926"><ele>2.0</ele><time>2026-04-19T15:33:05.872Z</time></trkpt><trkpt lat="45.5884691" lon="12.3067493"><ele>2.0</ele><time>2026-04-19T15:33:06.852Z</time></trkpt><trkpt lat="45.5885328" lon="12.3068786"><ele>2.0</ele><time>2026-04-19T15:33:07.841Z</time></trkpt><trkpt lat="45.5885763" lon="12.3069851"><ele>1.9999999999999998</ele><time>2026-04-19T15:33:08.849Z</time></trkpt><trkpt lat="45.5885948" lon="12.3070771"><ele>2.0</ele><time>2026-04-19T15:33:09.836Z</time></trkpt><trkpt lat="45.5885972" lon="12.3072316"><ele>2.0</ele><time>2026-04-19T15:33:11.853Z</time></trkpt><trkpt lat="45.5886015" lon="12.3073503"><ele>2.0</ele><time>2026-04-19T15:33:13.85Z</time></trkpt><trkpt lat="45.588632" lon="12.3074309"><ele>1.9999999999999998</ele><time>2026-04-19T15:33:15.849Z</time></trkpt><trkpt lat="45.5887002" lon="12.3075075"><ele>2.0</ele><time>2026-04-19T15:33:18.859Z</time></trkpt><trkpt lat="45.588809" lon="12.3075789"><ele>2.2</ele><time>2026-04-19T15:34:12.841Z</time></trkpt><trkpt lat="45.5888966" lon="12.3076233"><ele>2.4000000000000004</ele><time>2026-04-19T15:34:14.852Z</time></trkpt><trkpt lat="45.5889474" lon="12.3076977"><ele>2.5999999999999996</ele><time>2026-04-19T15:34:15.862Z</time></trkpt><trkpt lat="45.5890042" lon="12.3077973"><ele>2.8</ele><time>2026-04-19T15:34:16.869Z</time></trkpt><trkpt lat="45.5890811" lon="12.3079482"><ele>3.0</ele><time>2026-04-19T15:34:17.844Z</time></trkpt><trkpt lat="45.5891781" lon="12.3081294"><ele>3.333333333333333</ele><time>2026-04-19T15:34:18.838Z</time></trkpt><trkpt lat="45.5892852" lon="12.3083368"><ele>3.6666666666666665</ele><time>2026-04-19T15:34:19.853Z</time></trkpt><trkpt lat="45.5894003" lon="12.3085546"><ele>4.0</ele><time>2026-04-19T15:34:20.831Z</time></trkpt><trkpt lat="45.5895166" lon="12.3087815"><ele>3.6666666666666665</ele><time>2026-04-19T15:34:21.849Z</time></trkpt><trkpt lat="45.5896414" lon="12.3090058"><ele>3.333333333333333</ele><time>2026-04-19T15:34:22.85Z</time></trkpt><trkpt lat="45.5897679" lon="12.3092364"><ele>3.0</ele><time>2026-04-19T15:34:23.86Z</time></trkpt><trkpt lat="45.589894" lon="12.3094752"><ele>3.0</ele><time>2026-04-19T15:34:24.842Z</time></trkpt><trkpt lat="45.5900217" lon="12.3097209"><ele>3.0</ele><time>2026-04-19T15:34:25.837Z</time></trkpt><trkpt lat="45.5901429" lon="12.3099813"><ele>3.0</ele><time>2026-04-19T15:34:26.854Z</time></trkpt><trkpt lat="45.5902719" lon="12.3102373"><ele>3.0</ele><time>2026-04-19T15:34:27.867Z</time></trkpt><trkpt lat="45.5904059" lon="12.3104913"><ele>3.0</ele><time>2026-04-19T15:34:28.847Z</time></trkpt><trkpt lat="45.5905382" lon="12.3107508"><ele>3.0</ele><time>2026-04-19T15:34:29.885Z</time></trkpt><trkpt lat="45.5906719" lon="12.3110095"><ele>3.0</ele><time>2026-04-19T15:34:30.855Z</time></trkpt><trkpt lat="45.5908073" lon="12.3112654"><ele>3.0</ele><time>2026-04-19T15:34:31.838Z</time></trkpt><trkpt lat="45.5909393" lon="12.3115218"><ele>3.0</ele><time>2026-04-19T15:34:32.849Z</time></trkpt><trkpt lat="45.5910717" lon="12.3117764"><ele>3.0</ele><time>2026-04-19T15:34:33.853Z</time></trkpt><trkpt lat="45.5912042" lon="12.3120282"><ele>3.0</ele><time>2026-04-19T15:34:34.848Z</time></trkpt><trkpt lat="45.5913354" lon="12.3122728"><ele>3.0</ele><time>2026-04-19T15:34:35.852Z</time></trkpt><trkpt lat="45.5914622" lon="12.3125138"><ele>3.0</ele><time>2026-04-19T15:34:36.859Z</time></trkpt><trkpt lat="45.5915871" lon="12.3127556"><ele>3.0</ele><time>2026-04-19T15:34:37.865Z</time></trkpt><trkpt lat="45.5917119" lon="12.3129994"><ele>3.0</ele><time>2026-04-19T15:34:38.847Z</time></trkpt><trkpt lat="45.5918384" lon="12.3132371"><ele>3.0</ele><time>2026-04-19T15:34:39.853Z</time></trkpt><trkpt lat="45.5919626" lon="12.3134696"><ele>3.0</ele><time>2026-04-19T15:34:40.844Z</time></trkpt><trkpt lat="45.5920833" lon="12.3137012"><ele>3.0</ele><time>2026-04-19T15:34:41.854Z</time></trkpt><trkpt lat="45.5922021" lon="12.3139321"><ele>3.666666666666667</ele><time>2026-04-19T15:34:42.857Z</time></trkpt><trkpt lat="45.5923228" lon="12.314162"><ele>4.333333333333334</ele><time>2026-04-19T15:34:43.844Z</time></trkpt><trkpt lat="45.59244" lon="12.3143949"><ele>5.0</ele><time>2026-04-19T15:34:44.841Z</time></trkpt><trkpt lat="45.5925563" lon="12.3146273"><ele>4.666666666666667</ele><time>2026-04-19T15:34:45.853Z</time></trkpt><trkpt lat="45.5926758" lon="12.3148567"><ele>4.333333333333333</ele><time>2026-04-19T15:34:46.838Z</time></trkpt><trkpt lat="45.5927942" lon="12.3150881"><ele>4.0</ele><time>2026-04-19T15:34:47.851Z</time></trkpt><trkpt lat="45.5929138" lon="12.3153201"><ele>4.0</ele><time>2026-04-19T15:34:48.846Z</time></trkpt><trkpt lat="45.5930352" lon="12.3155482"><ele>4.0</ele><time>2026-04-19T15:34:49.842Z</time></trkpt><trkpt lat="45.5931539" lon="12.3157666"><ele>4.0</ele><time>2026-04-19T15:34:50.858Z</time></trkpt><trkpt lat="45.5932708" lon="12.3159704"><ele>3.6666666666666665</ele><time>2026-04-19T15:34:51.842Z</time></trkpt><trkpt lat="45.5933812" lon="12.3161705"><ele>3.333333333333333</ele><time>2026-04-19T15:34:52.854Z</time></trkpt><trkpt lat="45.5934911" lon="12.3163589"><ele>3.0</ele><time>2026-04-19T15:34:53.857Z</time></trkpt><trkpt lat="45.5935934" lon="12.316541"><ele>3.75</ele><time>2026-04-19T15:34:54.846Z</time></trkpt><trkpt lat="45.5936942" lon="12.3167068"><ele>4.5</ele><time>2026-04-19T15:34:55.85Z</time></trkpt><trkpt lat="45.5937884" lon="12.3168633"><ele>5.25</ele><time>2026-04-19T15:34:56.857Z</time></trkpt><trkpt lat="45.5938752" lon="12.3170059"><ele>6.0</ele><time>2026-04-19T15:34:57.846Z</time></trkpt><trkpt lat="45.5939552" lon="12.3171321"><ele>6.0</ele><time>2026-04-19T15:34:58.861Z</time></trkpt><trkpt lat="45.594021" lon="12.3172351"><ele>6.0</ele><time>2026-04-19T15:34:59.844Z</time></trkpt><trkpt lat="45.5940688" lon="12.3173068"><ele>6.0</ele><time>2026-04-19T15:35:00.853Z</time></trkpt><trkpt lat="45.5941778" lon="12.3173185"><ele>6.0</ele><time>2026-04-19T15:35:02.846Z</time></trkpt><trkpt lat="45.5942376" lon="12.3172569"><ele>6.0</ele><time>2026-04-19T15:35:03.857Z</time></trkpt><trkpt lat="45.5942925" lon="12.3171273"><ele>6.0</ele><time>2026-04-19T15:35:04.849Z</time></trkpt><trkpt lat="45.5943624" lon="12.3169723"><ele>6.0</ele><time>2026-04-19T15:35:05.862Z</time></trkpt><trkpt lat="45.5944393" lon="12.3167862"><ele>6.0</ele><time>2026-04-19T15:35:06.857Z</time></trkpt><trkpt lat="45.5945262" lon="12.3166046"><ele>6.0</ele><time>2026-04-19T15:35:07.85Z</time></trkpt><trkpt lat="45.5946029" lon="12.3164318"><ele>6.0</ele><time>2026-04-19T15:35:08.854Z</time></trkpt><trkpt lat="45.5946839" lon="12.3162766"><ele>6.0</ele><time>2026-04-19T15:35:09.847Z</time></trkpt><trkpt lat="45.5947728" lon="12.3161451"><ele>6.0</ele><time>2026-04-19T15:35:10.843Z</time></trkpt><trkpt lat="45.5948731" lon="12.3160432"><ele>6.0</ele><time>2026-04-19T15:35:11.856Z</time></trkpt><trkpt lat="45.5949738" lon="12.3159468"><ele>6.0</ele><time>2026-04-19T15:35:12.838Z</time></trkpt><trkpt lat="45.5950696" lon="12.3158566"><ele>6.0</ele><time>2026-04-19T15:35:13.861Z</time></trkpt><trkpt lat="45.5951645" lon="12.3157695"><ele>6.0</ele><time>2026-04-19T15:35:14.835Z</time></trkpt><trkpt lat="45.5952611" lon="12.3156817"><ele>6.0</ele><time>2026-04-19T15:35:15.837Z</time></trkpt><trkpt lat="45.5953577" lon="12.3155897"><ele>5.5</ele><time>2026-04-19T15:35:16.855Z</time></trkpt><trkpt lat="45.5954608" lon="12.315501"><ele>5.0</ele><time>2026-04-19T15:35:17.837Z</time></trkpt><trkpt lat="45.5955728" lon="12.3154125"><ele>4.5</ele><time>2026-04-19T15:35:18.855Z</time></trkpt><trkpt lat="45.5956921" lon="12.3153085"><ele>4.0</ele><time>2026-04-19T15:35:19.841Z</time></trkpt><trkpt lat="45.5958185" lon="12.3152042"><ele>4.0</ele><time>2026-04-19T15:35:20.839Z</time></trkpt><trkpt lat="45.595939" lon="12.3150972"><ele>4.0</ele><time>2026-04-19T15:35:21.869Z</time></trkpt><trkpt lat="45.5960531" lon="12.3149925"><ele>4.0</ele><time>2026-04-19T15:35:22.858Z</time></trkpt><trkpt lat="45.5961537" lon="12.3148735"><ele>4.0</ele><time>2026-04-19T15:35:23.87Z</time></trkpt><trkpt lat="45.5962343" lon="12.3147354"><ele>4.25</ele><time>2026-04-19T15:35:24.847Z</time></trkpt><trkpt lat="45.5963033" lon="12.3145899"><ele>4.5</ele><time>2026-04-19T15:35:25.86Z</time></trkpt><trkpt lat="45.5963661" lon="12.314442"><ele>4.75</ele><time>2026-04-19T15:35:26.861Z</time></trkpt><trkpt lat="45.5964231" lon="12.3142939"><ele>5.0</ele><time>2026-04-19T15:35:27.849Z</time></trkpt><trkpt lat="45.596485" lon="12.3141395"><ele>5.0</ele><time>2026-04-19T15:35:28.855Z</time></trkpt><trkpt lat="45.5965495" lon="12.3139785"><ele>5.0</ele><time>2026-04-19T15:35:29.846Z</time></trkpt><trkpt lat="45.5966154" lon="12.3138258"><ele>5.0</ele><time>2026-04-19T15:35:30.855Z</time></trkpt><trkpt lat="45.5966748" lon="12.3136924"><ele>5.0</ele><time>2026-04-19T15:35:31.839Z</time></trkpt><trkpt lat="45.5967268" lon="12.3135876"><ele>4.666666666666667</ele><time>2026-04-19T15:35:32.849Z</time></trkpt><trkpt lat="45.5967671" lon="12.3135044"><ele>4.333333333333334</ele><time>2026-04-19T15:35:33.84Z</time></trkpt><trkpt lat="45.5968062" lon="12.3134136"><ele>4.0</ele><time>2026-04-19T15:35:35.862Z</time></trkpt><trkpt lat="45.5967923" lon="12.3132788"><ele>3.666666666666667</ele><time>2026-04-19T15:35:38.845Z</time></trkpt><trkpt lat="45.596735" lon="12.3132091"><ele>3.3333333333333335</ele><time>2026-04-19T15:35:39.848Z</time></trkpt><trkpt lat="45.5966527" lon="12.3131374"><ele>3.0</ele><time>2026-04-19T15:35:40.848Z</time></trkpt><trkpt lat="45.596571" lon="12.3130629"><ele>2.8</ele><time>2026-04-19T15:35:41.855Z</time></trkpt><trkpt lat="45.5964983" lon="12.3129871"><ele>2.5999999999999996</ele><time>2026-04-19T15:35:42.848Z</time></trkpt><trkpt lat="45.596425" lon="12.312911"><ele>2.4000000000000004</ele><time>2026-04-19T15:35:43.844Z</time></trkpt><trkpt lat="45.5963525" lon="12.3128306"><ele>2.2</ele><time>2026-04-19T15:35:44.835Z</time></trkpt><trkpt lat="45.5962831" lon="12.3127448"><ele>2.0</ele><time>2026-04-19T15:35:45.85Z</time></trkpt><trkpt lat="45.596225" lon="12.3126525"><ele>2.1666666666666665</ele><time>2026-04-19T15:35:46.832Z</time></trkpt><trkpt lat="45.5961629" lon="12.312573"><ele>2.333333333333333</ele><time>2026-04-19T15:35:47.846Z</time></trkpt><trkpt lat="45.5961023" lon="12.3124973"><ele>2.5</ele><time>2026-04-19T15:35:48.839Z</time></trkpt><trkpt lat="45.5960425" lon="12.3124262"><ele>2.6666666666666665</ele><time>2026-04-19T15:35:49.865Z</time></trkpt><trkpt lat="45.5959857" lon="12.3123594"><ele>2.8333333333333335</ele><time>2026-04-19T15:35:50.847Z</time></trkpt><trkpt lat="45.5959312" lon="12.3122947"><ele>3.0</ele><time>2026-04-19T15:35:51.864Z</time></trkpt><trkpt lat="45.595838" lon="12.3121964"><ele>3.0</ele><time>2026-04-19T15:35:53.851Z</time></trkpt><trkpt lat="45.5957674" lon="12.3121276"><ele>3.0</ele><time>2026-04-19T15:35:55.834Z</time></trkpt><trkpt lat="45.5956711" lon="12.312116"><ele>3.0</ele><time>2026-04-19T15:36:00.856Z</time></trkpt><trkpt lat="45.5956308" lon="12.3121962"><ele>3.0</ele><time>2026-04-19T15:36:03.854Z</time></trkpt><trkpt lat="45.595579" lon="12.3122978"><ele>3.0</ele><time>2026-04-19T15:36:06.843Z</time></trkpt><trkpt lat="45.5955357" lon="12.3123868"><ele>3.0</ele><time>2026-04-19T15:36:08.848Z</time></trkpt><trkpt lat="45.5954929" lon="12.3124558"><ele>4.0</ele><time>2026-04-19T15:36:10.835Z</time></trkpt><trkpt lat="45.5954287" lon="12.3126047"><ele>4.0</ele><time>2026-04-19T15:37:10.859Z</time></trkpt><trkpt lat="45.5953548" lon="12.312626"><ele>4.0</ele><time>2026-04-19T15:37:33.847Z</time></trkpt></trkseg></trk></gpx>